<?xml version="1.0" encoding="UTF-8"?>
<gpx version="1.1" creator="https://www.youtrack.es" xsi:schemaLocation="http://www.topografix.com/GPX/1/1 http://www.topografix.com/GPX/1/1/gpx.xsd http://www.garmin.com/xmlschemas/GpxExtensions/v3 http://www.garmin.com/xmlschemas/GpxExtensionsv3.xsd http://www.garmin.com/xmlschemas/TrackPointExtension/v1 http://www.garmin.com/xmlschemas/TrackPointExtensionv1.xsd" xmlns:gpxtpx="http://www.garmin.com/xmlschemas/TrackPointExtension/v1" xmlns:gpxx="http://www.garmin.com/xmlschemas/GpxExtensions/v3" xmlns:xsi="http://www.w3.org/2001/XMLSchema-instance">
  <metadata>
    <link href="https://www.youtrack.es">
      <text>YouTrack.es</text>
    </link>
    <time>2026-05-08T02:20:42Z</time>
  </metadata>
  <trk>
    <src>https://www.youtrack.es</src>
    <link href="https://www.youtrack.es/ruta/2676-ait-ben-haddou-camping">
      <text>YouTrack.es</text>
    </link>
    <trkseg>
      <trkpt lat="31.0426368713378906" lon="-7.1292772293090820">
        <ele>0.0</ele>
        <time>2018-10-12T07:26:28.000Z</time>
      </trkpt>
      <trkpt lat="31.0425796508789062" lon="-7.1293330192565918">
        <ele>1285.0</ele>
        <time>2018-10-12T07:26:31.000Z</time>
      </trkpt>
      <trkpt lat="31.0425586700439453" lon="-7.1293492317199707">
        <ele>1285.0</ele>
        <time>2018-10-12T07:26:32.000Z</time>
      </trkpt>
      <trkpt lat="31.0425357818603516" lon="-7.1293659210205078">
        <ele>1285.0</ele>
        <time>2018-10-12T07:26:33.000Z</time>
      </trkpt>
      <trkpt lat="31.0425148010253906" lon="-7.1293840408325195">
        <ele>1285.0</ele>
        <time>2018-10-12T07:26:34.000Z</time>
      </trkpt>
      <trkpt lat="31.0424957275390625" lon="-7.1293997764587402">
        <ele>1285.82177734375</ele>
        <time>2018-10-12T07:26:35.000Z</time>
      </trkpt>
      <trkpt lat="31.0424766540527344" lon="-7.1294159889221191">
        <ele>1286.0</ele>
        <time>2018-10-12T07:26:36.000Z</time>
      </trkpt>
      <trkpt lat="31.0424613952636719" lon="-7.1294331550598145">
        <ele>1286.0</ele>
        <time>2018-10-12T07:26:37.000Z</time>
      </trkpt>
      <trkpt lat="31.0424461364746094" lon="-7.1294479370117188">
        <ele>1286.0</ele>
        <time>2018-10-12T07:26:38.000Z</time>
      </trkpt>
      <trkpt lat="31.0424308776855469" lon="-7.1294617652893066">
        <ele>1286.0</ele>
        <time>2018-10-12T07:26:39.000Z</time>
      </trkpt>
      <trkpt lat="31.0424022674560547" lon="-7.1294832229614258">
        <ele>1286.0</ele>
        <time>2018-10-12T07:26:41.000Z</time>
      </trkpt>
      <trkpt lat="31.0423278808593750" lon="-7.1295781135559082">
        <ele>1286.0</ele>
        <time>2018-10-12T07:26:46.000Z</time>
      </trkpt>
      <trkpt lat="31.0423088073730469" lon="-7.1296038627624512">
        <ele>1286.0</ele>
        <time>2018-10-12T07:26:47.000Z</time>
      </trkpt>
      <trkpt lat="31.0422840118408203" lon="-7.1296257972717285">
        <ele>1286.0</ele>
        <time>2018-10-12T07:26:48.000Z</time>
      </trkpt>
      <trkpt lat="31.0422668457031250" lon="-7.1296558380126953">
        <ele>1286.0</ele>
        <time>2018-10-12T07:26:49.000Z</time>
      </trkpt>
      <trkpt lat="31.0422496795654297" lon="-7.1296830177307129">
        <ele>1285.178955078125</ele>
        <time>2018-10-12T07:26:50.000Z</time>
      </trkpt>
      <trkpt lat="31.0422344207763672" lon="-7.1297121047973633">
        <ele>1285.0</ele>
        <time>2018-10-12T07:26:51.000Z</time>
      </trkpt>
      <trkpt lat="31.0422134399414062" lon="-7.1297402381896973">
        <ele>1285.0</ele>
        <time>2018-10-12T07:26:52.000Z</time>
      </trkpt>
      <trkpt lat="31.0421943664550781" lon="-7.1297569274902344">
        <ele>1285.0</ele>
        <time>2018-10-12T07:26:53.000Z</time>
      </trkpt>
      <trkpt lat="31.0421772003173828" lon="-7.1297698020935059">
        <ele>1285.0</ele>
        <time>2018-10-12T07:26:54.000Z</time>
      </trkpt>
      <trkpt lat="31.0421600341796875" lon="-7.1297740936279297">
        <ele>1285.0</ele>
        <time>2018-10-12T07:26:55.000Z</time>
      </trkpt>
      <trkpt lat="31.0421390533447266" lon="-7.1297740936279297">
        <ele>1285.0</ele>
        <time>2018-10-12T07:26:56.000Z</time>
      </trkpt>
      <trkpt lat="31.0421047210693359" lon="-7.1297740936279297">
        <ele>1285.0</ele>
        <time>2018-10-12T07:26:58.000Z</time>
      </trkpt>
      <trkpt lat="31.0420856475830078" lon="-7.1297731399536133">
        <ele>1285.0</ele>
        <time>2018-10-12T07:26:59.000Z</time>
      </trkpt>
      <trkpt lat="31.0420684814453125" lon="-7.1297669410705566">
        <ele>1285.0</ele>
        <time>2018-10-12T07:27:00.000Z</time>
      </trkpt>
      <trkpt lat="31.0420455932617188" lon="-7.1297559738159180">
        <ele>1285.0</ele>
        <time>2018-10-12T07:27:01.000Z</time>
      </trkpt>
      <trkpt lat="31.0420303344726562" lon="-7.1297278404235840">
        <ele>1285.0</ele>
        <time>2018-10-12T07:27:04.000Z</time>
      </trkpt>
      <trkpt lat="31.0420207977294922" lon="-7.1297101974487305">
        <ele>1285.0</ele>
        <time>2018-10-12T07:27:05.000Z</time>
      </trkpt>
      <trkpt lat="31.0420074462890625" lon="-7.1296920776367188">
        <ele>1285.0</ele>
        <time>2018-10-12T07:27:06.000Z</time>
      </trkpt>
      <trkpt lat="31.0419960021972656" lon="-7.1296739578247070">
        <ele>1285.0</ele>
        <time>2018-10-12T07:27:07.000Z</time>
      </trkpt>
      <trkpt lat="31.0419826507568359" lon="-7.1296548843383789">
        <ele>1285.0</ele>
        <time>2018-10-12T07:27:08.000Z</time>
      </trkpt>
      <trkpt lat="31.0419673919677734" lon="-7.1296348571777344">
        <ele>1285.0</ele>
        <time>2018-10-12T07:27:09.000Z</time>
      </trkpt>
      <trkpt lat="31.0419502258300781" lon="-7.1296138763427734">
        <ele>1285.0</ele>
        <time>2018-10-12T07:27:10.000Z</time>
      </trkpt>
      <trkpt lat="31.0419330596923828" lon="-7.1295919418334961">
        <ele>1285.0</ele>
        <time>2018-10-12T07:27:11.000Z</time>
      </trkpt>
      <trkpt lat="31.0419178009033203" lon="-7.1295719146728516">
        <ele>1285.0</ele>
        <time>2018-10-12T07:27:12.000Z</time>
      </trkpt>
      <trkpt lat="31.0419025421142578" lon="-7.1295518875122070">
        <ele>1285.0</ele>
        <time>2018-10-12T07:27:13.000Z</time>
      </trkpt>
      <trkpt lat="31.0418872833251953" lon="-7.1295337677001953">
        <ele>1285.0</ele>
        <time>2018-10-12T07:27:14.000Z</time>
      </trkpt>
      <trkpt lat="31.0418720245361328" lon="-7.1295142173767090">
        <ele>1285.0</ele>
        <time>2018-10-12T07:27:15.000Z</time>
      </trkpt>
      <trkpt lat="31.0418548583984375" lon="-7.1294918060302734">
        <ele>1285.0</ele>
        <time>2018-10-12T07:27:16.000Z</time>
      </trkpt>
      <trkpt lat="31.0418376922607422" lon="-7.1294679641723633">
        <ele>1285.0</ele>
        <time>2018-10-12T07:27:17.000Z</time>
      </trkpt>
      <trkpt lat="31.0418186187744141" lon="-7.1294431686401367">
        <ele>1285.0</ele>
        <time>2018-10-12T07:27:18.000Z</time>
      </trkpt>
      <trkpt lat="31.0417976379394531" lon="-7.1294178962707520">
        <ele>1285.0</ele>
        <time>2018-10-12T07:27:19.000Z</time>
      </trkpt>
      <trkpt lat="31.0417766571044922" lon="-7.1293921470642090">
        <ele>1285.0</ele>
        <time>2018-10-12T07:27:20.000Z</time>
      </trkpt>
      <trkpt lat="31.0417556762695312" lon="-7.1293687820434570">
        <ele>1285.0</ele>
        <time>2018-10-12T07:27:21.000Z</time>
      </trkpt>
      <trkpt lat="31.0417346954345703" lon="-7.1293458938598633">
        <ele>1285.0</ele>
        <time>2018-10-12T07:27:22.000Z</time>
      </trkpt>
      <trkpt lat="31.0417137145996094" lon="-7.1293258666992188">
        <ele>1285.0</ele>
        <time>2018-10-12T07:27:23.000Z</time>
      </trkpt>
      <trkpt lat="31.0416927337646484" lon="-7.1293048858642578">
        <ele>1285.0</ele>
        <time>2018-10-12T07:27:24.000Z</time>
      </trkpt>
      <trkpt lat="31.0416736602783203" lon="-7.1292819976806641">
        <ele>1285.0</ele>
        <time>2018-10-12T07:27:25.000Z</time>
      </trkpt>
      <trkpt lat="31.0416564941406250" lon="-7.1292600631713867">
        <ele>1285.0</ele>
        <time>2018-10-12T07:27:26.000Z</time>
      </trkpt>
      <trkpt lat="31.0416374206542969" lon="-7.1292381286621094">
        <ele>1285.0</ele>
        <time>2018-10-12T07:27:27.000Z</time>
      </trkpt>
      <trkpt lat="31.0416202545166016" lon="-7.1292147636413574">
        <ele>1285.0</ele>
        <time>2018-10-12T07:27:28.000Z</time>
      </trkpt>
      <trkpt lat="31.0415992736816406" lon="-7.1291909217834473">
        <ele>1285.0</ele>
        <time>2018-10-12T07:27:29.000Z</time>
      </trkpt>
      <trkpt lat="31.0415782928466797" lon="-7.1291661262512207">
        <ele>1285.0</ele>
        <time>2018-10-12T07:27:30.000Z</time>
      </trkpt>
      <trkpt lat="31.0415573120117188" lon="-7.1291399002075195">
        <ele>1285.0</ele>
        <time>2018-10-12T07:27:31.000Z</time>
      </trkpt>
      <trkpt lat="31.0415344238281250" lon="-7.1291117668151855">
        <ele>1285.0</ele>
        <time>2018-10-12T07:27:32.000Z</time>
      </trkpt>
      <trkpt lat="31.0415115356445312" lon="-7.1290850639343262">
        <ele>1285.0</ele>
        <time>2018-10-12T07:27:33.000Z</time>
      </trkpt>
      <trkpt lat="31.0414886474609375" lon="-7.1290597915649414">
        <ele>1285.0</ele>
        <time>2018-10-12T07:27:34.000Z</time>
      </trkpt>
      <trkpt lat="31.0414676666259766" lon="-7.1290359497070312">
        <ele>1285.0</ele>
        <time>2018-10-12T07:27:35.000Z</time>
      </trkpt>
      <trkpt lat="31.0414466857910156" lon="-7.1290121078491211">
        <ele>1285.0</ele>
        <time>2018-10-12T07:27:36.000Z</time>
      </trkpt>
      <trkpt lat="31.0414257049560547" lon="-7.1289868354797363">
        <ele>1285.0</ele>
        <time>2018-10-12T07:27:37.000Z</time>
      </trkpt>
      <trkpt lat="31.0414066314697266" lon="-7.1289629936218262">
        <ele>1285.0</ele>
        <time>2018-10-12T07:27:38.000Z</time>
      </trkpt>
      <trkpt lat="31.0413875579833984" lon="-7.1289381980895996">
        <ele>1285.0</ele>
        <time>2018-10-12T07:27:39.000Z</time>
      </trkpt>
      <trkpt lat="31.0413703918457031" lon="-7.1289138793945312">
        <ele>1285.0</ele>
        <time>2018-10-12T07:27:40.000Z</time>
      </trkpt>
      <trkpt lat="31.0413513183593750" lon="-7.1288919448852539">
        <ele>1285.0</ele>
        <time>2018-10-12T07:27:41.000Z</time>
      </trkpt>
      <trkpt lat="31.0413322448730469" lon="-7.1288690567016602">
        <ele>1285.0</ele>
        <time>2018-10-12T07:27:42.000Z</time>
      </trkpt>
      <trkpt lat="31.0413131713867188" lon="-7.1288461685180664">
        <ele>1285.0</ele>
        <time>2018-10-12T07:27:43.000Z</time>
      </trkpt>
      <trkpt lat="31.0412940979003906" lon="-7.1288242340087891">
        <ele>1285.0</ele>
        <time>2018-10-12T07:27:44.000Z</time>
      </trkpt>
      <trkpt lat="31.0412731170654297" lon="-7.1288042068481445">
        <ele>1285.0</ele>
        <time>2018-10-12T07:27:45.000Z</time>
      </trkpt>
      <trkpt lat="31.0412559509277344" lon="-7.1287817955017090">
        <ele>1285.0</ele>
        <time>2018-10-12T07:27:46.000Z</time>
      </trkpt>
      <trkpt lat="31.0412368774414062" lon="-7.1287589073181152">
        <ele>1285.821044921875</ele>
        <time>2018-10-12T07:27:47.000Z</time>
      </trkpt>
      <trkpt lat="31.0412197113037109" lon="-7.1287350654602051">
        <ele>1286.0</ele>
        <time>2018-10-12T07:27:48.000Z</time>
      </trkpt>
      <trkpt lat="31.0412025451660156" lon="-7.1287131309509277">
        <ele>1286.0</ele>
        <time>2018-10-12T07:27:49.000Z</time>
      </trkpt>
      <trkpt lat="31.0411853790283203" lon="-7.1286888122558594">
        <ele>1286.0</ele>
        <time>2018-10-12T07:27:50.000Z</time>
      </trkpt>
      <trkpt lat="31.0411682128906250" lon="-7.1286659240722656">
        <ele>1286.0</ele>
        <time>2018-10-12T07:27:51.000Z</time>
      </trkpt>
      <trkpt lat="31.0411510467529297" lon="-7.1286439895629883">
        <ele>1286.0</ele>
        <time>2018-10-12T07:27:52.000Z</time>
      </trkpt>
      <trkpt lat="31.0411357879638672" lon="-7.1286211013793945">
        <ele>1286.0</ele>
        <time>2018-10-12T07:27:53.000Z</time>
      </trkpt>
      <trkpt lat="31.0411186218261719" lon="-7.1286001205444336">
        <ele>1286.797119140625</ele>
        <time>2018-10-12T07:27:54.000Z</time>
      </trkpt>
      <trkpt lat="31.0411014556884766" lon="-7.1285800933837891">
        <ele>1287.0</ele>
        <time>2018-10-12T07:27:55.000Z</time>
      </trkpt>
      <trkpt lat="31.0410842895507812" lon="-7.1285581588745117">
        <ele>1287.0</ele>
        <time>2018-10-12T07:27:56.000Z</time>
      </trkpt>
      <trkpt lat="31.0410690307617188" lon="-7.1285362243652344">
        <ele>1287.0</ele>
        <time>2018-10-12T07:27:57.000Z</time>
      </trkpt>
      <trkpt lat="31.0410518646240234" lon="-7.1285161972045898">
        <ele>1287.0</ele>
        <time>2018-10-12T07:27:58.000Z</time>
      </trkpt>
      <trkpt lat="31.0410346984863281" lon="-7.1284928321838379">
        <ele>1287.0</ele>
        <time>2018-10-12T07:27:59.000Z</time>
      </trkpt>
      <trkpt lat="31.0410175323486328" lon="-7.1284718513488770">
        <ele>1287.0</ele>
        <time>2018-10-12T07:28:00.000Z</time>
      </trkpt>
      <trkpt lat="31.0410003662109375" lon="-7.1284508705139160">
        <ele>1287.0</ele>
        <time>2018-10-12T07:28:01.000Z</time>
      </trkpt>
      <trkpt lat="31.0409832000732422" lon="-7.1284308433532715">
        <ele>1287.0</ele>
        <time>2018-10-12T07:28:02.000Z</time>
      </trkpt>
      <trkpt lat="31.0409698486328125" lon="-7.1284108161926270">
        <ele>1287.0</ele>
        <time>2018-10-12T07:28:03.000Z</time>
      </trkpt>
      <trkpt lat="31.0409545898437500" lon="-7.1283907890319824">
        <ele>1287.0</ele>
        <time>2018-10-12T07:28:04.000Z</time>
      </trkpt>
      <trkpt lat="31.0409393310546875" lon="-7.1283731460571289">
        <ele>1287.0</ele>
        <time>2018-10-12T07:28:05.000Z</time>
      </trkpt>
      <trkpt lat="31.0409259796142578" lon="-7.1283531188964844">
        <ele>1287.0</ele>
        <time>2018-10-12T07:28:06.000Z</time>
      </trkpt>
      <trkpt lat="31.0409088134765625" lon="-7.1283330917358398">
        <ele>1287.0</ele>
        <time>2018-10-12T07:28:07.000Z</time>
      </trkpt>
      <trkpt lat="31.0408916473388672" lon="-7.1283130645751953">
        <ele>1287.0</ele>
        <time>2018-10-12T07:28:08.000Z</time>
      </trkpt>
      <trkpt lat="31.0408725738525391" lon="-7.1282920837402344">
        <ele>1287.0</ele>
        <time>2018-10-12T07:28:09.000Z</time>
      </trkpt>
      <trkpt lat="31.0408554077148438" lon="-7.1282701492309570">
        <ele>1287.0</ele>
        <time>2018-10-12T07:28:10.000Z</time>
      </trkpt>
      <trkpt lat="31.0408382415771484" lon="-7.1282458305358887">
        <ele>1287.821044921875</ele>
        <time>2018-10-12T07:28:11.000Z</time>
      </trkpt>
      <trkpt lat="31.0408210754394531" lon="-7.1282229423522949">
        <ele>1288.0</ele>
        <time>2018-10-12T07:28:12.000Z</time>
      </trkpt>
      <trkpt lat="31.0408020019531250" lon="-7.1281971931457520">
        <ele>1288.0</ele>
        <time>2018-10-12T07:28:13.000Z</time>
      </trkpt>
      <trkpt lat="31.0407848358154297" lon="-7.1281709671020508">
        <ele>1288.821044921875</ele>
        <time>2018-10-12T07:28:14.000Z</time>
      </trkpt>
      <trkpt lat="31.0407657623291016" lon="-7.1281461715698242">
        <ele>1289.0</ele>
        <time>2018-10-12T07:28:15.000Z</time>
      </trkpt>
      <trkpt lat="31.0407466888427734" lon="-7.1281199455261230">
        <ele>1289.0</ele>
        <time>2018-10-12T07:28:16.000Z</time>
      </trkpt>
      <trkpt lat="31.0407276153564453" lon="-7.1280908584594727">
        <ele>1289.0</ele>
        <time>2018-10-12T07:28:17.000Z</time>
      </trkpt>
      <trkpt lat="31.0407085418701172" lon="-7.1280632019042969">
        <ele>1289.0</ele>
        <time>2018-10-12T07:28:18.000Z</time>
      </trkpt>
      <trkpt lat="31.0406894683837891" lon="-7.1280369758605957">
        <ele>1289.0</ele>
        <time>2018-10-12T07:28:19.000Z</time>
      </trkpt>
      <trkpt lat="31.0406723022460938" lon="-7.1280112266540527">
        <ele>1289.0</ele>
        <time>2018-10-12T07:28:20.000Z</time>
      </trkpt>
      <trkpt lat="31.0406513214111328" lon="-7.1279850006103516">
        <ele>1289.0</ele>
        <time>2018-10-12T07:28:21.000Z</time>
      </trkpt>
      <trkpt lat="31.0406322479248047" lon="-7.1279587745666504">
        <ele>1289.7406005859375</ele>
        <time>2018-10-12T07:28:22.000Z</time>
      </trkpt>
      <trkpt lat="31.0406150817871094" lon="-7.1279330253601074">
        <ele>1290.0</ele>
        <time>2018-10-12T07:28:23.000Z</time>
      </trkpt>
      <trkpt lat="31.0405979156494141" lon="-7.1279058456420898">
        <ele>1290.0</ele>
        <time>2018-10-12T07:28:24.000Z</time>
      </trkpt>
      <trkpt lat="31.0405788421630859" lon="-7.1278781890869141">
        <ele>1290.0</ele>
        <time>2018-10-12T07:28:25.000Z</time>
      </trkpt>
      <trkpt lat="31.0405597686767578" lon="-7.1278510093688965">
        <ele>1290.0</ele>
        <time>2018-10-12T07:28:26.000Z</time>
      </trkpt>
      <trkpt lat="31.0405406951904297" lon="-7.1278247833251953">
        <ele>1290.0</ele>
        <time>2018-10-12T07:28:27.000Z</time>
      </trkpt>
      <trkpt lat="31.0405235290527344" lon="-7.1277980804443359">
        <ele>1290.0</ele>
        <time>2018-10-12T07:28:28.000Z</time>
      </trkpt>
      <trkpt lat="31.0405044555664062" lon="-7.1277718544006348">
        <ele>1290.0</ele>
        <time>2018-10-12T07:28:29.000Z</time>
      </trkpt>
      <trkpt lat="31.0404872894287109" lon="-7.1277461051940918">
        <ele>1290.0</ele>
        <time>2018-10-12T07:28:30.000Z</time>
      </trkpt>
      <trkpt lat="31.0404701232910156" lon="-7.1277189254760742">
        <ele>1290.0</ele>
        <time>2018-10-12T07:28:31.000Z</time>
      </trkpt>
      <trkpt lat="31.0404548645019531" lon="-7.1276907920837402">
        <ele>1290.0</ele>
        <time>2018-10-12T07:28:32.000Z</time>
      </trkpt>
      <trkpt lat="31.0404376983642578" lon="-7.1276640892028809">
        <ele>1290.0</ele>
        <time>2018-10-12T07:28:33.000Z</time>
      </trkpt>
      <trkpt lat="31.0404205322265625" lon="-7.1276378631591797">
        <ele>1290.0</ele>
        <time>2018-10-12T07:28:34.000Z</time>
      </trkpt>
      <trkpt lat="31.0404033660888672" lon="-7.1276111602783203">
        <ele>1290.0</ele>
        <time>2018-10-12T07:28:35.000Z</time>
      </trkpt>
      <trkpt lat="31.0403881072998047" lon="-7.1275830268859863">
        <ele>1290.0</ele>
        <time>2018-10-12T07:28:36.000Z</time>
      </trkpt>
      <trkpt lat="31.0403728485107422" lon="-7.1275568008422852">
        <ele>1290.0</ele>
        <time>2018-10-12T07:28:37.000Z</time>
      </trkpt>
      <trkpt lat="31.0403575897216797" lon="-7.1275291442871094">
        <ele>1290.0</ele>
        <time>2018-10-12T07:28:38.000Z</time>
      </trkpt>
      <trkpt lat="31.0403404235839844" lon="-7.1275010108947754">
        <ele>1290.0</ele>
        <time>2018-10-12T07:28:39.000Z</time>
      </trkpt>
      <trkpt lat="31.0403232574462891" lon="-7.1274738311767578">
        <ele>1290.631591796875</ele>
        <time>2018-10-12T07:28:40.000Z</time>
      </trkpt>
      <trkpt lat="31.0403060913085938" lon="-7.1274471282958984">
        <ele>1291.0</ele>
        <time>2018-10-12T07:28:41.000Z</time>
      </trkpt>
      <trkpt lat="31.0402908325195312" lon="-7.1274199485778809">
        <ele>1291.0</ele>
        <time>2018-10-12T07:28:42.000Z</time>
      </trkpt>
      <trkpt lat="31.0402736663818359" lon="-7.1273927688598633">
        <ele>1291.0</ele>
        <time>2018-10-12T07:28:43.000Z</time>
      </trkpt>
      <trkpt lat="31.0402584075927734" lon="-7.1273670196533203">
        <ele>1291.0</ele>
        <time>2018-10-12T07:28:44.000Z</time>
      </trkpt>
      <trkpt lat="31.0402412414550781" lon="-7.1273388862609863">
        <ele>1291.0</ele>
        <time>2018-10-12T07:28:45.000Z</time>
      </trkpt>
      <trkpt lat="31.0402240753173828" lon="-7.1273131370544434">
        <ele>1291.0</ele>
        <time>2018-10-12T07:28:46.000Z</time>
      </trkpt>
      <trkpt lat="31.0402088165283203" lon="-7.1272850036621094">
        <ele>1291.0</ele>
        <time>2018-10-12T07:28:47.000Z</time>
      </trkpt>
      <trkpt lat="31.0401897430419922" lon="-7.1272559165954590">
        <ele>1291.0</ele>
        <time>2018-10-12T07:28:48.000Z</time>
      </trkpt>
      <trkpt lat="31.0401706695556641" lon="-7.1272249221801758">
        <ele>1291.0</ele>
        <time>2018-10-12T07:28:49.000Z</time>
      </trkpt>
      <trkpt lat="31.0401515960693359" lon="-7.1271939277648926">
        <ele>1291.0</ele>
        <time>2018-10-12T07:28:50.000Z</time>
      </trkpt>
      <trkpt lat="31.0401344299316406" lon="-7.1271638870239258">
        <ele>1291.0</ele>
        <time>2018-10-12T07:28:51.000Z</time>
      </trkpt>
      <trkpt lat="31.0401172637939453" lon="-7.1271362304687500">
        <ele>1291.0</ele>
        <time>2018-10-12T07:28:52.000Z</time>
      </trkpt>
      <trkpt lat="31.0400981903076172" lon="-7.1271080970764160">
        <ele>1291.0</ele>
        <time>2018-10-12T07:28:53.000Z</time>
      </trkpt>
      <trkpt lat="31.0400772094726562" lon="-7.1270790100097656">
        <ele>1291.0</ele>
        <time>2018-10-12T07:28:54.000Z</time>
      </trkpt>
      <trkpt lat="31.0400581359863281" lon="-7.1270480155944824">
        <ele>1291.0</ele>
        <time>2018-10-12T07:28:55.000Z</time>
      </trkpt>
      <trkpt lat="31.0400390625000000" lon="-7.1270179748535156">
        <ele>1291.0</ele>
        <time>2018-10-12T07:28:56.000Z</time>
      </trkpt>
      <trkpt lat="31.0400218963623047" lon="-7.1269869804382324">
        <ele>1291.0</ele>
        <time>2018-10-12T07:28:57.000Z</time>
      </trkpt>
      <trkpt lat="31.0400047302246094" lon="-7.1269559860229492">
        <ele>1291.0</ele>
        <time>2018-10-12T07:28:58.000Z</time>
      </trkpt>
      <trkpt lat="31.0399856567382812" lon="-7.1269259452819824">
        <ele>1291.0</ele>
        <time>2018-10-12T07:28:59.000Z</time>
      </trkpt>
      <trkpt lat="31.0399665832519531" lon="-7.1268959045410156">
        <ele>1291.0</ele>
        <time>2018-10-12T07:29:00.000Z</time>
      </trkpt>
      <trkpt lat="31.0399494171142578" lon="-7.1268668174743652">
        <ele>1291.0</ele>
        <time>2018-10-12T07:29:01.000Z</time>
      </trkpt>
      <trkpt lat="31.0399341583251953" lon="-7.1268401145935059">
        <ele>1291.0</ele>
        <time>2018-10-12T07:29:02.000Z</time>
      </trkpt>
      <trkpt lat="31.0399188995361328" lon="-7.1268138885498047">
        <ele>1291.0</ele>
        <time>2018-10-12T07:29:03.000Z</time>
      </trkpt>
      <trkpt lat="31.0399017333984375" lon="-7.1267848014831543">
        <ele>1291.0</ele>
        <time>2018-10-12T07:29:04.000Z</time>
      </trkpt>
      <trkpt lat="31.0398826599121094" lon="-7.1267561912536621">
        <ele>1291.0</ele>
        <time>2018-10-12T07:29:05.000Z</time>
      </trkpt>
      <trkpt lat="31.0398635864257812" lon="-7.1267261505126953">
        <ele>1291.0</ele>
        <time>2018-10-12T07:29:06.000Z</time>
      </trkpt>
      <trkpt lat="31.0398445129394531" lon="-7.1266951560974121">
        <ele>1291.0</ele>
        <time>2018-10-12T07:29:07.000Z</time>
      </trkpt>
      <trkpt lat="31.0398216247558594" lon="-7.1266632080078125">
        <ele>1291.0</ele>
        <time>2018-10-12T07:29:08.000Z</time>
      </trkpt>
      <trkpt lat="31.0397987365722656" lon="-7.1266288757324219">
        <ele>1291.0</ele>
        <time>2018-10-12T07:29:09.000Z</time>
      </trkpt>
      <trkpt lat="31.0397758483886719" lon="-7.1265940666198730">
        <ele>1291.0</ele>
        <time>2018-10-12T07:29:10.000Z</time>
      </trkpt>
      <trkpt lat="31.0397529602050781" lon="-7.1265578269958496">
        <ele>1291.0</ele>
        <time>2018-10-12T07:29:11.000Z</time>
      </trkpt>
      <trkpt lat="31.0397300720214844" lon="-7.1265211105346680">
        <ele>1291.0</ele>
        <time>2018-10-12T07:29:12.000Z</time>
      </trkpt>
      <trkpt lat="31.0397090911865234" lon="-7.1264858245849609">
        <ele>1291.0</ele>
        <time>2018-10-12T07:29:13.000Z</time>
      </trkpt>
      <trkpt lat="31.0396900177001953" lon="-7.1264529228210449">
        <ele>1290.373291015625</ele>
        <time>2018-10-12T07:29:14.000Z</time>
      </trkpt>
      <trkpt lat="31.0396709442138672" lon="-7.1264200210571289">
        <ele>1290.0</ele>
        <time>2018-10-12T07:29:15.000Z</time>
      </trkpt>
      <trkpt lat="31.0396537780761719" lon="-7.1263880729675293">
        <ele>1290.0</ele>
        <time>2018-10-12T07:29:16.000Z</time>
      </trkpt>
      <trkpt lat="31.0396385192871094" lon="-7.1263599395751953">
        <ele>1290.0</ele>
        <time>2018-10-12T07:29:17.000Z</time>
      </trkpt>
      <trkpt lat="31.0396232604980469" lon="-7.1263360977172852">
        <ele>1290.0</ele>
        <time>2018-10-12T07:29:18.000Z</time>
      </trkpt>
      <trkpt lat="31.0396099090576172" lon="-7.1263170242309570">
        <ele>1290.0</ele>
        <time>2018-10-12T07:29:19.000Z</time>
      </trkpt>
      <trkpt lat="31.0395984649658203" lon="-7.1262998580932617">
        <ele>1290.0</ele>
        <time>2018-10-12T07:29:20.000Z</time>
      </trkpt>
      <trkpt lat="31.0395774841308594" lon="-7.1262731552124023">
        <ele>1290.0</ele>
        <time>2018-10-12T07:29:22.000Z</time>
      </trkpt>
      <trkpt lat="31.0395545959472656" lon="-7.1262450218200684">
        <ele>1290.0</ele>
        <time>2018-10-12T07:29:24.000Z</time>
      </trkpt>
      <trkpt lat="31.0395450592041016" lon="-7.1262269020080566">
        <ele>1290.0</ele>
        <time>2018-10-12T07:29:25.000Z</time>
      </trkpt>
      <trkpt lat="31.0395298004150391" lon="-7.1261959075927734">
        <ele>1290.0</ele>
        <time>2018-10-12T07:29:27.000Z</time>
      </trkpt>
      <trkpt lat="31.0395240783691406" lon="-7.1261582374572754">
        <ele>1289.821044921875</ele>
        <time>2018-10-12T07:29:29.000Z</time>
      </trkpt>
      <trkpt lat="31.0395336151123047" lon="-7.1261267662048340">
        <ele>1290.0</ele>
        <time>2018-10-12T07:29:30.000Z</time>
      </trkpt>
      <trkpt lat="31.0395450592041016" lon="-7.1260890960693359">
        <ele>1290.0</ele>
        <time>2018-10-12T07:29:31.000Z</time>
      </trkpt>
      <trkpt lat="31.0395622253417969" lon="-7.1260499954223633">
        <ele>1290.0</ele>
        <time>2018-10-12T07:29:32.000Z</time>
      </trkpt>
      <trkpt lat="31.0395774841308594" lon="-7.1260089874267578">
        <ele>1290.0</ele>
        <time>2018-10-12T07:29:33.000Z</time>
      </trkpt>
      <trkpt lat="31.0395927429199219" lon="-7.1259660720825195">
        <ele>1290.0</ele>
        <time>2018-10-12T07:29:34.000Z</time>
      </trkpt>
      <trkpt lat="31.0396099090576172" lon="-7.1259207725524902">
        <ele>1290.0</ele>
        <time>2018-10-12T07:29:35.000Z</time>
      </trkpt>
      <trkpt lat="31.0396270751953125" lon="-7.1258702278137207">
        <ele>1290.0</ele>
        <time>2018-10-12T07:29:36.000Z</time>
      </trkpt>
      <trkpt lat="31.0396423339843750" lon="-7.1258120536804199">
        <ele>1289.368408203125</ele>
        <time>2018-10-12T07:29:37.000Z</time>
      </trkpt>
      <trkpt lat="31.0396556854248047" lon="-7.1257491111755371">
        <ele>1289.0</ele>
        <time>2018-10-12T07:29:38.000Z</time>
      </trkpt>
      <trkpt lat="31.0396633148193359" lon="-7.1256809234619141">
        <ele>1289.0</ele>
        <time>2018-10-12T07:29:39.000Z</time>
      </trkpt>
      <trkpt lat="31.0396652221679688" lon="-7.1256108283996582">
        <ele>1289.0</ele>
        <time>2018-10-12T07:29:40.000Z</time>
      </trkpt>
      <trkpt lat="31.0396595001220703" lon="-7.1255378723144531">
        <ele>1289.0</ele>
        <time>2018-10-12T07:29:41.000Z</time>
      </trkpt>
      <trkpt lat="31.0396499633789062" lon="-7.1254620552062988">
        <ele>1288.3826904296875</ele>
        <time>2018-10-12T07:29:42.000Z</time>
      </trkpt>
      <trkpt lat="31.0396347045898438" lon="-7.1253838539123535">
        <ele>1287.2672119140625</ele>
        <time>2018-10-12T07:29:43.000Z</time>
      </trkpt>
      <trkpt lat="31.0396156311035156" lon="-7.1253061294555664">
        <ele>1287.0</ele>
        <time>2018-10-12T07:29:44.000Z</time>
      </trkpt>
      <trkpt lat="31.0395889282226562" lon="-7.1252331733703613">
        <ele>1287.0</ele>
        <time>2018-10-12T07:29:45.000Z</time>
      </trkpt>
      <trkpt lat="31.0395584106445312" lon="-7.1251649856567383">
        <ele>1287.0</ele>
        <time>2018-10-12T07:29:46.000Z</time>
      </trkpt>
      <trkpt lat="31.0395278930664062" lon="-7.1251029968261719">
        <ele>1287.0</ele>
        <time>2018-10-12T07:29:47.000Z</time>
      </trkpt>
      <trkpt lat="31.0394935607910156" lon="-7.1250472068786621">
        <ele>1287.0</ele>
        <time>2018-10-12T07:29:48.000Z</time>
      </trkpt>
      <trkpt lat="31.0394611358642578" lon="-7.1249952316284180">
        <ele>1287.0</ele>
        <time>2018-10-12T07:29:49.000Z</time>
      </trkpt>
      <trkpt lat="31.0394344329833984" lon="-7.1249499320983887">
        <ele>1287.0</ele>
        <time>2018-10-12T07:29:50.000Z</time>
      </trkpt>
      <trkpt lat="31.0394096374511719" lon="-7.1249070167541504">
        <ele>1287.0</ele>
        <time>2018-10-12T07:29:51.000Z</time>
      </trkpt>
      <trkpt lat="31.0393905639648438" lon="-7.1248641014099121">
        <ele>1286.2593994140625</ele>
        <time>2018-10-12T07:29:52.000Z</time>
      </trkpt>
      <trkpt lat="31.0393714904785156" lon="-7.1248202323913574">
        <ele>1286.0</ele>
        <time>2018-10-12T07:29:53.000Z</time>
      </trkpt>
      <trkpt lat="31.0393524169921875" lon="-7.1247768402099609">
        <ele>1286.0</ele>
        <time>2018-10-12T07:29:54.000Z</time>
      </trkpt>
      <trkpt lat="31.0393352508544922" lon="-7.1247358322143555">
        <ele>1286.0</ele>
        <time>2018-10-12T07:29:55.000Z</time>
      </trkpt>
      <trkpt lat="31.0393257141113281" lon="-7.1246938705444336">
        <ele>1286.0</ele>
        <time>2018-10-12T07:29:56.000Z</time>
      </trkpt>
      <trkpt lat="31.0393257141113281" lon="-7.1246509552001953">
        <ele>1286.0</ele>
        <time>2018-10-12T07:29:57.000Z</time>
      </trkpt>
      <trkpt lat="31.0393238067626953" lon="-7.1246070861816406">
        <ele>1286.0</ele>
        <time>2018-10-12T07:29:58.000Z</time>
      </trkpt>
      <trkpt lat="31.0393218994140625" lon="-7.1245598793029785">
        <ele>1286.0</ele>
        <time>2018-10-12T07:29:59.000Z</time>
      </trkpt>
      <trkpt lat="31.0393161773681641" lon="-7.1245121955871582">
        <ele>1286.0</ele>
        <time>2018-10-12T07:30:00.000Z</time>
      </trkpt>
      <trkpt lat="31.0393104553222656" lon="-7.1244630813598633">
        <ele>1286.0</ele>
        <time>2018-10-12T07:30:01.000Z</time>
      </trkpt>
      <trkpt lat="31.0393047332763672" lon="-7.1244130134582520">
        <ele>1285.178955078125</ele>
        <time>2018-10-12T07:30:02.000Z</time>
      </trkpt>
      <trkpt lat="31.0392971038818359" lon="-7.1243600845336914">
        <ele>1285.0</ele>
        <time>2018-10-12T07:30:03.000Z</time>
      </trkpt>
      <trkpt lat="31.0392894744873047" lon="-7.1243047714233398">
        <ele>1285.0</ele>
        <time>2018-10-12T07:30:04.000Z</time>
      </trkpt>
      <trkpt lat="31.0392799377441406" lon="-7.1242489814758301">
        <ele>1285.0</ele>
        <time>2018-10-12T07:30:05.000Z</time>
      </trkpt>
      <trkpt lat="31.0392684936523438" lon="-7.1241922378540039">
        <ele>1285.0</ele>
        <time>2018-10-12T07:30:06.000Z</time>
      </trkpt>
      <trkpt lat="31.0392570495605469" lon="-7.1241350173950195">
        <ele>1285.0</ele>
        <time>2018-10-12T07:30:07.000Z</time>
      </trkpt>
      <trkpt lat="31.0392475128173828" lon="-7.1240768432617188">
        <ele>1285.0</ele>
        <time>2018-10-12T07:30:08.000Z</time>
      </trkpt>
      <trkpt lat="31.0392360687255859" lon="-7.1240167617797852">
        <ele>1285.0</ele>
        <time>2018-10-12T07:30:09.000Z</time>
      </trkpt>
      <trkpt lat="31.0392265319824219" lon="-7.1239571571350098">
        <ele>1285.0</ele>
        <time>2018-10-12T07:30:10.000Z</time>
      </trkpt>
      <trkpt lat="31.0392131805419922" lon="-7.1238961219787598">
        <ele>1284.178955078125</ele>
        <time>2018-10-12T07:30:11.000Z</time>
      </trkpt>
      <trkpt lat="31.0392017364501953" lon="-7.1238350868225098">
        <ele>1284.0</ele>
        <time>2018-10-12T07:30:12.000Z</time>
      </trkpt>
      <trkpt lat="31.0391864776611328" lon="-7.1237730979919434">
        <ele>1284.0</ele>
        <time>2018-10-12T07:30:13.000Z</time>
      </trkpt>
      <trkpt lat="31.0391712188720703" lon="-7.1237120628356934">
        <ele>1284.0</ele>
        <time>2018-10-12T07:30:14.000Z</time>
      </trkpt>
      <trkpt lat="31.0391578674316406" lon="-7.1236529350280762">
        <ele>1284.0</ele>
        <time>2018-10-12T07:30:15.000Z</time>
      </trkpt>
      <trkpt lat="31.0391426086425781" lon="-7.1235928535461426">
        <ele>1284.0</ele>
        <time>2018-10-12T07:30:16.000Z</time>
      </trkpt>
      <trkpt lat="31.0391273498535156" lon="-7.1235327720642090">
        <ele>1284.0</ele>
        <time>2018-10-12T07:30:17.000Z</time>
      </trkpt>
      <trkpt lat="31.0391120910644531" lon="-7.1234731674194336">
        <ele>1284.0</ele>
        <time>2018-10-12T07:30:18.000Z</time>
      </trkpt>
      <trkpt lat="31.0390987396240234" lon="-7.1234130859375000">
        <ele>1284.0</ele>
        <time>2018-10-12T07:30:19.000Z</time>
      </trkpt>
      <trkpt lat="31.0390853881835938" lon="-7.1233520507812500">
        <ele>1283.1826171875</ele>
        <time>2018-10-12T07:30:20.000Z</time>
      </trkpt>
      <trkpt lat="31.0390720367431641" lon="-7.1232900619506836">
        <ele>1283.0</ele>
        <time>2018-10-12T07:30:21.000Z</time>
      </trkpt>
      <trkpt lat="31.0390567779541016" lon="-7.1232299804687500">
        <ele>1283.0</ele>
        <time>2018-10-12T07:30:22.000Z</time>
      </trkpt>
      <trkpt lat="31.0390434265136719" lon="-7.1231708526611328">
        <ele>1283.0</ele>
        <time>2018-10-12T07:30:23.000Z</time>
      </trkpt>
      <trkpt lat="31.0390281677246094" lon="-7.1231141090393066">
        <ele>1283.0</ele>
        <time>2018-10-12T07:30:24.000Z</time>
      </trkpt>
      <trkpt lat="31.0390148162841797" lon="-7.1230587959289551">
        <ele>1283.0</ele>
        <time>2018-10-12T07:30:25.000Z</time>
      </trkpt>
      <trkpt lat="31.0389995574951172" lon="-7.1230049133300781">
        <ele>1283.0</ele>
        <time>2018-10-12T07:30:26.000Z</time>
      </trkpt>
      <trkpt lat="31.0389842987060547" lon="-7.1229510307312012">
        <ele>1283.0</ele>
        <time>2018-10-12T07:30:27.000Z</time>
      </trkpt>
      <trkpt lat="31.0389671325683594" lon="-7.1228981018066406">
        <ele>1283.0</ele>
        <time>2018-10-12T07:30:28.000Z</time>
      </trkpt>
      <trkpt lat="31.0389480590820312" lon="-7.1228451728820801">
        <ele>1283.0</ele>
        <time>2018-10-12T07:30:29.000Z</time>
      </trkpt>
      <trkpt lat="31.0389289855957031" lon="-7.1227941513061523">
        <ele>1283.0</ele>
        <time>2018-10-12T07:30:30.000Z</time>
      </trkpt>
      <trkpt lat="31.0389099121093750" lon="-7.1227421760559082">
        <ele>1283.0</ele>
        <time>2018-10-12T07:30:31.000Z</time>
      </trkpt>
      <trkpt lat="31.0388927459716797" lon="-7.1226887702941895">
        <ele>1282.3826904296875</ele>
        <time>2018-10-12T07:30:32.000Z</time>
      </trkpt>
      <trkpt lat="31.0388755798339844" lon="-7.1226320266723633">
        <ele>1282.0</ele>
        <time>2018-10-12T07:30:33.000Z</time>
      </trkpt>
      <trkpt lat="31.0388641357421875" lon="-7.1225748062133789">
        <ele>1282.0</ele>
        <time>2018-10-12T07:30:34.000Z</time>
      </trkpt>
      <trkpt lat="31.0388526916503906" lon="-7.1225161552429199">
        <ele>1282.0</ele>
        <time>2018-10-12T07:30:35.000Z</time>
      </trkpt>
      <trkpt lat="31.0388431549072266" lon="-7.1224560737609863">
        <ele>1282.0</ele>
        <time>2018-10-12T07:30:36.000Z</time>
      </trkpt>
      <trkpt lat="31.0388355255126953" lon="-7.1223959922790527">
        <ele>1282.0</ele>
        <time>2018-10-12T07:30:37.000Z</time>
      </trkpt>
      <trkpt lat="31.0388240814208984" lon="-7.1223359107971191">
        <ele>1282.0</ele>
        <time>2018-10-12T07:30:38.000Z</time>
      </trkpt>
      <trkpt lat="31.0388145446777344" lon="-7.1222767829895020">
        <ele>1282.0</ele>
        <time>2018-10-12T07:30:39.000Z</time>
      </trkpt>
      <trkpt lat="31.0388031005859375" lon="-7.1222190856933594">
        <ele>1282.0</ele>
        <time>2018-10-12T07:30:40.000Z</time>
      </trkpt>
      <trkpt lat="31.0387916564941406" lon="-7.1221599578857422">
        <ele>1282.0</ele>
        <time>2018-10-12T07:30:41.000Z</time>
      </trkpt>
      <trkpt lat="31.0387802124023438" lon="-7.1221008300781250">
        <ele>1282.0</ele>
        <time>2018-10-12T07:30:42.000Z</time>
      </trkpt>
      <trkpt lat="31.0387706756591797" lon="-7.1220421791076660">
        <ele>1282.0</ele>
        <time>2018-10-12T07:30:43.000Z</time>
      </trkpt>
      <trkpt lat="31.0387611389160156" lon="-7.1219820976257324">
        <ele>1282.0</ele>
        <time>2018-10-12T07:30:44.000Z</time>
      </trkpt>
      <trkpt lat="31.0387496948242188" lon="-7.1219220161437988">
        <ele>1282.0</ele>
        <time>2018-10-12T07:30:45.000Z</time>
      </trkpt>
      <trkpt lat="31.0387382507324219" lon="-7.1218619346618652">
        <ele>1282.0</ele>
        <time>2018-10-12T07:30:46.000Z</time>
      </trkpt>
      <trkpt lat="31.0387248992919922" lon="-7.1218042373657227">
        <ele>1282.0</ele>
        <time>2018-10-12T07:30:47.000Z</time>
      </trkpt>
      <trkpt lat="31.0387115478515625" lon="-7.1217489242553711">
        <ele>1282.0</ele>
        <time>2018-10-12T07:30:48.000Z</time>
      </trkpt>
      <trkpt lat="31.0387001037597656" lon="-7.1216959953308105">
        <ele>1282.0</ele>
        <time>2018-10-12T07:30:49.000Z</time>
      </trkpt>
      <trkpt lat="31.0386924743652344" lon="-7.1216459274291992">
        <ele>1282.0</ele>
        <time>2018-10-12T07:30:50.000Z</time>
      </trkpt>
      <trkpt lat="31.0386848449707031" lon="-7.1215991973876953">
        <ele>1282.821044921875</ele>
        <time>2018-10-12T07:30:51.000Z</time>
      </trkpt>
      <trkpt lat="31.0386772155761719" lon="-7.1215548515319824">
        <ele>1283.0</ele>
        <time>2018-10-12T07:30:52.000Z</time>
      </trkpt>
      <trkpt lat="31.0386714935302734" lon="-7.1215138435363770">
        <ele>1283.0</ele>
        <time>2018-10-12T07:30:53.000Z</time>
      </trkpt>
      <trkpt lat="31.0386657714843750" lon="-7.1214737892150879">
        <ele>1283.0</ele>
        <time>2018-10-12T07:30:54.000Z</time>
      </trkpt>
      <trkpt lat="31.0386581420898438" lon="-7.1214361190795898">
        <ele>1283.0</ele>
        <time>2018-10-12T07:30:55.000Z</time>
      </trkpt>
      <trkpt lat="31.0386505126953125" lon="-7.1213989257812500">
        <ele>1283.0</ele>
        <time>2018-10-12T07:30:56.000Z</time>
      </trkpt>
      <trkpt lat="31.0386428833007812" lon="-7.1213631629943848">
        <ele>1283.0</ele>
        <time>2018-10-12T07:30:57.000Z</time>
      </trkpt>
      <trkpt lat="31.0386333465576172" lon="-7.1213269233703613">
        <ele>1283.0</ele>
        <time>2018-10-12T07:30:58.000Z</time>
      </trkpt>
      <trkpt lat="31.0386238098144531" lon="-7.1212887763977051">
        <ele>1283.0</ele>
        <time>2018-10-12T07:30:59.000Z</time>
      </trkpt>
      <trkpt lat="31.0386142730712891" lon="-7.1212491989135742">
        <ele>1283.0</ele>
        <time>2018-10-12T07:31:00.000Z</time>
      </trkpt>
      <trkpt lat="31.0386047363281250" lon="-7.1212072372436523">
        <ele>1283.0</ele>
        <time>2018-10-12T07:31:01.000Z</time>
      </trkpt>
      <trkpt lat="31.0385951995849609" lon="-7.1211628913879395">
        <ele>1283.0</ele>
        <time>2018-10-12T07:31:02.000Z</time>
      </trkpt>
      <trkpt lat="31.0385856628417969" lon="-7.1211171150207520">
        <ele>1283.821044921875</ele>
        <time>2018-10-12T07:31:03.000Z</time>
      </trkpt>
      <trkpt lat="31.0385780334472656" lon="-7.1210689544677734">
        <ele>1284.0</ele>
        <time>2018-10-12T07:31:04.000Z</time>
      </trkpt>
      <trkpt lat="31.0385684967041016" lon="-7.1210207939147949">
        <ele>1284.0</ele>
        <time>2018-10-12T07:31:05.000Z</time>
      </trkpt>
      <trkpt lat="31.0385608673095703" lon="-7.1209721565246582">
        <ele>1284.0</ele>
        <time>2018-10-12T07:31:06.000Z</time>
      </trkpt>
      <trkpt lat="31.0385513305664062" lon="-7.1209239959716797">
        <ele>1284.0</ele>
        <time>2018-10-12T07:31:07.000Z</time>
      </trkpt>
      <trkpt lat="31.0385417938232422" lon="-7.1208748817443848">
        <ele>1284.0</ele>
        <time>2018-10-12T07:31:08.000Z</time>
      </trkpt>
      <trkpt lat="31.0385303497314453" lon="-7.1208257675170898">
        <ele>1284.0</ele>
        <time>2018-10-12T07:31:09.000Z</time>
      </trkpt>
      <trkpt lat="31.0385227203369141" lon="-7.1207761764526367">
        <ele>1284.0</ele>
        <time>2018-10-12T07:31:10.000Z</time>
      </trkpt>
      <trkpt lat="31.0385112762451172" lon="-7.1207251548767090">
        <ele>1284.0</ele>
        <time>2018-10-12T07:31:11.000Z</time>
      </trkpt>
      <trkpt lat="31.0384998321533203" lon="-7.1206741333007812">
        <ele>1284.0</ele>
        <time>2018-10-12T07:31:12.000Z</time>
      </trkpt>
      <trkpt lat="31.0384864807128906" lon="-7.1206221580505371">
        <ele>1283.2593994140625</ele>
        <time>2018-10-12T07:31:13.000Z</time>
      </trkpt>
      <trkpt lat="31.0384731292724609" lon="-7.1205677986145020">
        <ele>1283.0</ele>
        <time>2018-10-12T07:31:14.000Z</time>
      </trkpt>
      <trkpt lat="31.0384578704833984" lon="-7.1205139160156250">
        <ele>1283.0</ele>
        <time>2018-10-12T07:31:15.000Z</time>
      </trkpt>
      <trkpt lat="31.0384426116943359" lon="-7.1204590797424316">
        <ele>1283.0</ele>
        <time>2018-10-12T07:31:16.000Z</time>
      </trkpt>
      <trkpt lat="31.0384254455566406" lon="-7.1204037666320801">
        <ele>1283.0</ele>
        <time>2018-10-12T07:31:17.000Z</time>
      </trkpt>
      <trkpt lat="31.0384082794189453" lon="-7.1203498840332031">
        <ele>1283.0</ele>
        <time>2018-10-12T07:31:18.000Z</time>
      </trkpt>
      <trkpt lat="31.0383930206298828" lon="-7.1202960014343262">
        <ele>1283.0</ele>
        <time>2018-10-12T07:31:19.000Z</time>
      </trkpt>
      <trkpt lat="31.0383777618408203" lon="-7.1202430725097656">
        <ele>1282.178955078125</ele>
        <time>2018-10-12T07:31:20.000Z</time>
      </trkpt>
      <trkpt lat="31.0383644104003906" lon="-7.1201891899108887">
        <ele>1282.0</ele>
        <time>2018-10-12T07:31:21.000Z</time>
      </trkpt>
      <trkpt lat="31.0383529663085938" lon="-7.1201338768005371">
        <ele>1282.0</ele>
        <time>2018-10-12T07:31:22.000Z</time>
      </trkpt>
      <trkpt lat="31.0383415222167969" lon="-7.1200790405273438">
        <ele>1282.0</ele>
        <time>2018-10-12T07:31:23.000Z</time>
      </trkpt>
      <trkpt lat="31.0383300781250000" lon="-7.1200242042541504">
        <ele>1282.0</ele>
        <time>2018-10-12T07:31:24.000Z</time>
      </trkpt>
      <trkpt lat="31.0383224487304688" lon="-7.1199688911437988">
        <ele>1282.0</ele>
        <time>2018-10-12T07:31:25.000Z</time>
      </trkpt>
      <trkpt lat="31.0383129119873047" lon="-7.1199140548706055">
        <ele>1282.0</ele>
        <time>2018-10-12T07:31:26.000Z</time>
      </trkpt>
      <trkpt lat="31.0383033752441406" lon="-7.1198601722717285">
        <ele>1282.0</ele>
        <time>2018-10-12T07:31:27.000Z</time>
      </trkpt>
      <trkpt lat="31.0382957458496094" lon="-7.1198048591613770">
        <ele>1281.2557373046875</ele>
        <time>2018-10-12T07:31:28.000Z</time>
      </trkpt>
      <trkpt lat="31.0382881164550781" lon="-7.1197519302368164">
        <ele>1281.0</ele>
        <time>2018-10-12T07:31:29.000Z</time>
      </trkpt>
      <trkpt lat="31.0382804870605469" lon="-7.1196990013122559">
        <ele>1281.0</ele>
        <time>2018-10-12T07:31:30.000Z</time>
      </trkpt>
      <trkpt lat="31.0382747650146484" lon="-7.1196470260620117">
        <ele>1281.0</ele>
        <time>2018-10-12T07:31:31.000Z</time>
      </trkpt>
      <trkpt lat="31.0382728576660156" lon="-7.1195960044860840">
        <ele>1281.0</ele>
        <time>2018-10-12T07:31:32.000Z</time>
      </trkpt>
      <trkpt lat="31.0382709503173828" lon="-7.1195468902587891">
        <ele>1281.0</ele>
        <time>2018-10-12T07:31:33.000Z</time>
      </trkpt>
      <trkpt lat="31.0382728576660156" lon="-7.1194968223571777">
        <ele>1281.0</ele>
        <time>2018-10-12T07:31:34.000Z</time>
      </trkpt>
      <trkpt lat="31.0382785797119141" lon="-7.1194472312927246">
        <ele>1281.0</ele>
        <time>2018-10-12T07:31:35.000Z</time>
      </trkpt>
      <trkpt lat="31.0382919311523438" lon="-7.1194009780883789">
        <ele>1281.0</ele>
        <time>2018-10-12T07:31:36.000Z</time>
      </trkpt>
      <trkpt lat="31.0383129119873047" lon="-7.1193561553955078">
        <ele>1281.0</ele>
        <time>2018-10-12T07:31:37.000Z</time>
      </trkpt>
      <trkpt lat="31.0383338928222656" lon="-7.1193127632141113">
        <ele>1281.0</ele>
        <time>2018-10-12T07:31:38.000Z</time>
      </trkpt>
      <trkpt lat="31.0383567810058594" lon="-7.1192698478698730">
        <ele>1280.373291015625</ele>
        <time>2018-10-12T07:31:39.000Z</time>
      </trkpt>
      <trkpt lat="31.0383796691894531" lon="-7.1192278861999512">
        <ele>1280.0</ele>
        <time>2018-10-12T07:31:40.000Z</time>
      </trkpt>
      <trkpt lat="31.0384025573730469" lon="-7.1191887855529785">
        <ele>1280.0</ele>
        <time>2018-10-12T07:31:41.000Z</time>
      </trkpt>
      <trkpt lat="31.0384235382080078" lon="-7.1191511154174805">
        <ele>1280.0</ele>
        <time>2018-10-12T07:31:42.000Z</time>
      </trkpt>
      <trkpt lat="31.0384445190429688" lon="-7.1191129684448242">
        <ele>1280.0</ele>
        <time>2018-10-12T07:31:43.000Z</time>
      </trkpt>
      <trkpt lat="31.0384635925292969" lon="-7.1190738677978516">
        <ele>1280.0</ele>
        <time>2018-10-12T07:31:44.000Z</time>
      </trkpt>
      <trkpt lat="31.0384807586669922" lon="-7.1190338134765625">
        <ele>1280.0</ele>
        <time>2018-10-12T07:31:45.000Z</time>
      </trkpt>
      <trkpt lat="31.0384941101074219" lon="-7.1189918518066406">
        <ele>1280.0</ele>
        <time>2018-10-12T07:31:46.000Z</time>
      </trkpt>
      <trkpt lat="31.0385055541992188" lon="-7.1189479827880859">
        <ele>1280.0</ele>
        <time>2018-10-12T07:31:47.000Z</time>
      </trkpt>
      <trkpt lat="31.0385189056396484" lon="-7.1189031600952148">
        <ele>1280.0</ele>
        <time>2018-10-12T07:31:48.000Z</time>
      </trkpt>
      <trkpt lat="31.0385284423828125" lon="-7.1188549995422363">
        <ele>1280.0</ele>
        <time>2018-10-12T07:31:49.000Z</time>
      </trkpt>
      <trkpt lat="31.0385398864746094" lon="-7.1188058853149414">
        <ele>1279.3780517578125</ele>
        <time>2018-10-12T07:31:50.000Z</time>
      </trkpt>
      <trkpt lat="31.0385513305664062" lon="-7.1187548637390137">
        <ele>1279.0</ele>
        <time>2018-10-12T07:31:51.000Z</time>
      </trkpt>
      <trkpt lat="31.0385608673095703" lon="-7.1187009811401367">
        <ele>1279.0</ele>
        <time>2018-10-12T07:31:52.000Z</time>
      </trkpt>
      <trkpt lat="31.0385665893554688" lon="-7.1186428070068359">
        <ele>1278.178955078125</ele>
        <time>2018-10-12T07:31:53.000Z</time>
      </trkpt>
      <trkpt lat="31.0385704040527344" lon="-7.1185808181762695">
        <ele>1277.178955078125</ele>
        <time>2018-10-12T07:31:54.000Z</time>
      </trkpt>
      <trkpt lat="31.0385742187500000" lon="-7.1185169219970703">
        <ele>1277.821044921875</ele>
        <time>2018-10-12T07:31:55.000Z</time>
      </trkpt>
      <trkpt lat="31.0385818481445312" lon="-7.1184520721435547">
        <ele>1278.0</ele>
        <time>2018-10-12T07:31:56.000Z</time>
      </trkpt>
      <trkpt lat="31.0385875701904297" lon="-7.1183857917785645">
        <ele>1278.0</ele>
        <time>2018-10-12T07:31:57.000Z</time>
      </trkpt>
      <trkpt lat="31.0385951995849609" lon="-7.1183209419250488">
        <ele>1278.0</ele>
        <time>2018-10-12T07:31:58.000Z</time>
      </trkpt>
      <trkpt lat="31.0386028289794922" lon="-7.1182589530944824">
        <ele>1278.0</ele>
        <time>2018-10-12T07:31:59.000Z</time>
      </trkpt>
      <trkpt lat="31.0386104583740234" lon="-7.1181979179382324">
        <ele>1278.0</ele>
        <time>2018-10-12T07:32:00.000Z</time>
      </trkpt>
      <trkpt lat="31.0386161804199219" lon="-7.1181402206420898">
        <ele>1278.0</ele>
        <time>2018-10-12T07:32:01.000Z</time>
      </trkpt>
      <trkpt lat="31.0386219024658203" lon="-7.1180830001831055">
        <ele>1278.0</ele>
        <time>2018-10-12T07:32:02.000Z</time>
      </trkpt>
      <trkpt lat="31.0386276245117188" lon="-7.1180272102355957">
        <ele>1276.3580322265625</ele>
        <time>2018-10-12T07:32:03.000Z</time>
      </trkpt>
      <trkpt lat="31.0386333465576172" lon="-7.1179690361022949">
        <ele>1275.178955078125</ele>
        <time>2018-10-12T07:32:04.000Z</time>
      </trkpt>
      <trkpt lat="31.0386371612548828" lon="-7.1179108619689941">
        <ele>1275.821044921875</ele>
        <time>2018-10-12T07:32:05.000Z</time>
      </trkpt>
      <trkpt lat="31.0386371612548828" lon="-7.1178488731384277">
        <ele>1276.0</ele>
        <time>2018-10-12T07:32:06.000Z</time>
      </trkpt>
      <trkpt lat="31.0386371612548828" lon="-7.1177849769592285">
        <ele>1276.0</ele>
        <time>2018-10-12T07:32:07.000Z</time>
      </trkpt>
      <trkpt lat="31.0386352539062500" lon="-7.1177220344543457">
        <ele>1275.195068359375</ele>
        <time>2018-10-12T07:32:08.000Z</time>
      </trkpt>
      <trkpt lat="31.0386333465576172" lon="-7.1176629066467285">
        <ele>1275.0</ele>
        <time>2018-10-12T07:32:09.000Z</time>
      </trkpt>
      <trkpt lat="31.0386276245117188" lon="-7.1176080703735352">
        <ele>1275.0</ele>
        <time>2018-10-12T07:32:10.000Z</time>
      </trkpt>
      <trkpt lat="31.0386219024658203" lon="-7.1175541877746582">
        <ele>1275.0</ele>
        <time>2018-10-12T07:32:11.000Z</time>
      </trkpt>
      <trkpt lat="31.0386142730712891" lon="-7.1174988746643066">
        <ele>1274.178955078125</ele>
        <time>2018-10-12T07:32:12.000Z</time>
      </trkpt>
      <trkpt lat="31.0386085510253906" lon="-7.1174411773681641">
        <ele>1273.178955078125</ele>
        <time>2018-10-12T07:32:13.000Z</time>
      </trkpt>
      <trkpt lat="31.0386066436767578" lon="-7.1173849105834961">
        <ele>1273.0</ele>
        <time>2018-10-12T07:32:14.000Z</time>
      </trkpt>
      <trkpt lat="31.0386047363281250" lon="-7.1173372268676758">
        <ele>1273.0</ele>
        <time>2018-10-12T07:32:15.000Z</time>
      </trkpt>
      <trkpt lat="31.0386047363281250" lon="-7.1172962188720703">
        <ele>1273.0</ele>
        <time>2018-10-12T07:32:16.000Z</time>
      </trkpt>
      <trkpt lat="31.0386066436767578" lon="-7.1172618865966797">
        <ele>1272.178955078125</ele>
        <time>2018-10-12T07:32:17.000Z</time>
      </trkpt>
      <trkpt lat="31.0386104583740234" lon="-7.1172299385070801">
        <ele>1272.0</ele>
        <time>2018-10-12T07:32:18.000Z</time>
      </trkpt>
      <trkpt lat="31.0386219024658203" lon="-7.1171970367431641">
        <ele>1272.0</ele>
        <time>2018-10-12T07:32:19.000Z</time>
      </trkpt>
      <trkpt lat="31.0386295318603516" lon="-7.1171607971191406">
        <ele>1272.0</ele>
        <time>2018-10-12T07:32:20.000Z</time>
      </trkpt>
      <trkpt lat="31.0386314392089844" lon="-7.1171221733093262">
        <ele>1271.178955078125</ele>
        <time>2018-10-12T07:32:21.000Z</time>
      </trkpt>
      <trkpt lat="31.0386314392089844" lon="-7.1170811653137207">
        <ele>1271.0</ele>
        <time>2018-10-12T07:32:22.000Z</time>
      </trkpt>
      <trkpt lat="31.0386295318603516" lon="-7.1170368194580078">
        <ele>1271.0</ele>
        <time>2018-10-12T07:32:23.000Z</time>
      </trkpt>
      <trkpt lat="31.0386238098144531" lon="-7.1169891357421875">
        <ele>1271.0</ele>
        <time>2018-10-12T07:32:24.000Z</time>
      </trkpt>
      <trkpt lat="31.0386180877685547" lon="-7.1169347763061523">
        <ele>1270.2672119140625</ele>
        <time>2018-10-12T07:32:25.000Z</time>
      </trkpt>
      <trkpt lat="31.0386180877685547" lon="-7.1168727874755859">
        <ele>1270.0</ele>
        <time>2018-10-12T07:32:26.000Z</time>
      </trkpt>
      <trkpt lat="31.0386257171630859" lon="-7.1168050765991211">
        <ele>1269.178955078125</ele>
        <time>2018-10-12T07:32:27.000Z</time>
      </trkpt>
      <trkpt lat="31.0386390686035156" lon="-7.1167378425598145">
        <ele>1269.0</ele>
        <time>2018-10-12T07:32:28.000Z</time>
      </trkpt>
      <trkpt lat="31.0386638641357422" lon="-7.1166729927062988">
        <ele>1269.0</ele>
        <time>2018-10-12T07:32:29.000Z</time>
      </trkpt>
      <trkpt lat="31.0386981964111328" lon="-7.1166157722473145">
        <ele>1269.0</ele>
        <time>2018-10-12T07:32:30.000Z</time>
      </trkpt>
      <trkpt lat="31.0387420654296875" lon="-7.1165699958801270">
        <ele>1268.178955078125</ele>
        <time>2018-10-12T07:32:31.000Z</time>
      </trkpt>
      <trkpt lat="31.0387954711914062" lon="-7.1165390014648438">
        <ele>1267.3826904296875</ele>
        <time>2018-10-12T07:32:32.000Z</time>
      </trkpt>
      <trkpt lat="31.0388545989990234" lon="-7.1165227890014648">
        <ele>1267.0</ele>
        <time>2018-10-12T07:32:33.000Z</time>
      </trkpt>
      <trkpt lat="31.0389137268066406" lon="-7.1165227890014648">
        <ele>1267.0</ele>
        <time>2018-10-12T07:32:34.000Z</time>
      </trkpt>
      <trkpt lat="31.0389709472656250" lon="-7.1165351867675781">
        <ele>1267.0</ele>
        <time>2018-10-12T07:32:35.000Z</time>
      </trkpt>
      <trkpt lat="31.0390243530273438" lon="-7.1165518760681152">
        <ele>1267.0</ele>
        <time>2018-10-12T07:32:36.000Z</time>
      </trkpt>
      <trkpt lat="31.0390739440917969" lon="-7.1165719032287598">
        <ele>1267.0</ele>
        <time>2018-10-12T07:32:37.000Z</time>
      </trkpt>
      <trkpt lat="31.0391216278076172" lon="-7.1165947914123535">
        <ele>1267.0</ele>
        <time>2018-10-12T07:32:38.000Z</time>
      </trkpt>
      <trkpt lat="31.0391654968261719" lon="-7.1166210174560547">
        <ele>1267.0</ele>
        <time>2018-10-12T07:32:39.000Z</time>
      </trkpt>
      <trkpt lat="31.0392074584960938" lon="-7.1166481971740723">
        <ele>1267.0</ele>
        <time>2018-10-12T07:32:40.000Z</time>
      </trkpt>
      <trkpt lat="31.0392475128173828" lon="-7.1166768074035645">
        <ele>1267.0</ele>
        <time>2018-10-12T07:32:41.000Z</time>
      </trkpt>
      <trkpt lat="31.0392837524414062" lon="-7.1167078018188477">
        <ele>1267.0</ele>
        <time>2018-10-12T07:32:42.000Z</time>
      </trkpt>
      <trkpt lat="31.0393161773681641" lon="-7.1167368888854980">
        <ele>1267.0</ele>
        <time>2018-10-12T07:32:43.000Z</time>
      </trkpt>
      <trkpt lat="31.0393486022949219" lon="-7.1167659759521484">
        <ele>1267.0</ele>
        <time>2018-10-12T07:32:44.000Z</time>
      </trkpt>
      <trkpt lat="31.0393829345703125" lon="-7.1167950630187988">
        <ele>1267.0</ele>
        <time>2018-10-12T07:32:45.000Z</time>
      </trkpt>
      <trkpt lat="31.0394134521484375" lon="-7.1168298721313477">
        <ele>1267.0</ele>
        <time>2018-10-12T07:32:46.000Z</time>
      </trkpt>
      <trkpt lat="31.0394382476806641" lon="-7.1168699264526367">
        <ele>1266.373291015625</ele>
        <time>2018-10-12T07:32:47.000Z</time>
      </trkpt>
      <trkpt lat="31.0394573211669922" lon="-7.1169152259826660">
        <ele>1266.0</ele>
        <time>2018-10-12T07:32:48.000Z</time>
      </trkpt>
      <trkpt lat="31.0394763946533203" lon="-7.1169619560241699">
        <ele>1266.0</ele>
        <time>2018-10-12T07:32:49.000Z</time>
      </trkpt>
      <trkpt lat="31.0394935607910156" lon="-7.1170091629028320">
        <ele>1266.0</ele>
        <time>2018-10-12T07:32:50.000Z</time>
      </trkpt>
      <trkpt lat="31.0395107269287109" lon="-7.1170568466186523">
        <ele>1266.0</ele>
        <time>2018-10-12T07:32:51.000Z</time>
      </trkpt>
      <trkpt lat="31.0395336151123047" lon="-7.1171021461486816">
        <ele>1266.0</ele>
        <time>2018-10-12T07:32:52.000Z</time>
      </trkpt>
      <trkpt lat="31.0395641326904297" lon="-7.1171369552612305">
        <ele>1266.0</ele>
        <time>2018-10-12T07:32:53.000Z</time>
      </trkpt>
      <trkpt lat="31.0396022796630859" lon="-7.1171622276306152">
        <ele>1266.0</ele>
        <time>2018-10-12T07:32:54.000Z</time>
      </trkpt>
      <trkpt lat="31.0396480560302734" lon="-7.1171789169311523">
        <ele>1265.2672119140625</ele>
        <time>2018-10-12T07:32:55.000Z</time>
      </trkpt>
      <trkpt lat="31.0397014617919922" lon="-7.1171879768371582">
        <ele>1265.0</ele>
        <time>2018-10-12T07:32:56.000Z</time>
      </trkpt>
      <trkpt lat="31.0397586822509766" lon="-7.1171879768371582">
        <ele>1265.0</ele>
        <time>2018-10-12T07:32:57.000Z</time>
      </trkpt>
      <trkpt lat="31.0398159027099609" lon="-7.1171731948852539">
        <ele>1264.178955078125</ele>
        <time>2018-10-12T07:32:58.000Z</time>
      </trkpt>
      <trkpt lat="31.0398674011230469" lon="-7.1171407699584961">
        <ele>1264.0</ele>
        <time>2018-10-12T07:32:59.000Z</time>
      </trkpt>
      <trkpt lat="31.0399074554443359" lon="-7.1170930862426758">
        <ele>1263.178955078125</ele>
        <time>2018-10-12T07:33:00.000Z</time>
      </trkpt>
      <trkpt lat="31.0399379730224609" lon="-7.1170358657836914">
        <ele>1263.0</ele>
        <time>2018-10-12T07:33:01.000Z</time>
      </trkpt>
      <trkpt lat="31.0399608612060547" lon="-7.1169757843017578">
        <ele>1263.0</ele>
        <time>2018-10-12T07:33:02.000Z</time>
      </trkpt>
      <trkpt lat="31.0399799346923828" lon="-7.1169199943542480">
        <ele>1263.0</ele>
        <time>2018-10-12T07:33:03.000Z</time>
      </trkpt>
      <trkpt lat="31.0400028228759766" lon="-7.1168689727783203">
        <ele>1263.0</ele>
        <time>2018-10-12T07:33:04.000Z</time>
      </trkpt>
      <trkpt lat="31.0400276184082031" lon="-7.1168198585510254">
        <ele>1263.0</ele>
        <time>2018-10-12T07:33:05.000Z</time>
      </trkpt>
      <trkpt lat="31.0400524139404297" lon="-7.1167750358581543">
        <ele>1263.0</ele>
        <time>2018-10-12T07:33:06.000Z</time>
      </trkpt>
      <trkpt lat="31.0400791168212891" lon="-7.1167368888854980">
        <ele>1263.0</ele>
        <time>2018-10-12T07:33:07.000Z</time>
      </trkpt>
      <trkpt lat="31.0401058197021484" lon="-7.1167030334472656">
        <ele>1263.0</ele>
        <time>2018-10-12T07:33:08.000Z</time>
      </trkpt>
      <trkpt lat="31.0401325225830078" lon="-7.1166701316833496">
        <ele>1263.0</ele>
        <time>2018-10-12T07:33:09.000Z</time>
      </trkpt>
      <trkpt lat="31.0401554107666016" lon="-7.1166400909423828">
        <ele>1263.0</ele>
        <time>2018-10-12T07:33:10.000Z</time>
      </trkpt>
      <trkpt lat="31.0401763916015625" lon="-7.1166138648986816">
        <ele>1263.0</ele>
        <time>2018-10-12T07:33:11.000Z</time>
      </trkpt>
      <trkpt lat="31.0401973724365234" lon="-7.1165881156921387">
        <ele>1263.0</ele>
        <time>2018-10-12T07:33:12.000Z</time>
      </trkpt>
      <trkpt lat="31.0402164459228516" lon="-7.1165609359741211">
        <ele>1263.0</ele>
        <time>2018-10-12T07:33:13.000Z</time>
      </trkpt>
      <trkpt lat="31.0402355194091797" lon="-7.1165342330932617">
        <ele>1263.0</ele>
        <time>2018-10-12T07:33:14.000Z</time>
      </trkpt>
      <trkpt lat="31.0402507781982422" lon="-7.1165051460266113">
        <ele>1263.0</ele>
        <time>2018-10-12T07:33:15.000Z</time>
      </trkpt>
      <trkpt lat="31.0402603149414062" lon="-7.1164741516113281">
        <ele>1263.0</ele>
        <time>2018-10-12T07:33:16.000Z</time>
      </trkpt>
      <trkpt lat="31.0402717590332031" lon="-7.1164422035217285">
        <ele>1263.0</ele>
        <time>2018-10-12T07:33:17.000Z</time>
      </trkpt>
      <trkpt lat="31.0402812957763672" lon="-7.1164088249206543">
        <ele>1263.0</ele>
        <time>2018-10-12T07:33:18.000Z</time>
      </trkpt>
      <trkpt lat="31.0402946472167969" lon="-7.1163759231567383">
        <ele>1263.0</ele>
        <time>2018-10-12T07:33:19.000Z</time>
      </trkpt>
      <trkpt lat="31.0403099060058594" lon="-7.1163468360900879">
        <ele>1263.0</ele>
        <time>2018-10-12T07:33:20.000Z</time>
      </trkpt>
      <trkpt lat="31.0403270721435547" lon="-7.1163210868835449">
        <ele>1263.0</ele>
        <time>2018-10-12T07:33:21.000Z</time>
      </trkpt>
      <trkpt lat="31.0403461456298828" lon="-7.1162991523742676">
        <ele>1263.0</ele>
        <time>2018-10-12T07:33:22.000Z</time>
      </trkpt>
      <trkpt lat="31.0403633117675781" lon="-7.1162791252136230">
        <ele>1263.0</ele>
        <time>2018-10-12T07:33:23.000Z</time>
      </trkpt>
      <trkpt lat="31.0403804779052734" lon="-7.1162581443786621">
        <ele>1262.178955078125</ele>
        <time>2018-10-12T07:33:24.000Z</time>
      </trkpt>
      <trkpt lat="31.0403938293457031" lon="-7.1162309646606445">
        <ele>1262.0</ele>
        <time>2018-10-12T07:33:25.000Z</time>
      </trkpt>
      <trkpt lat="31.0404052734375000" lon="-7.1161961555480957">
        <ele>1262.0</ele>
        <time>2018-10-12T07:33:26.000Z</time>
      </trkpt>
      <trkpt lat="31.0404186248779297" lon="-7.1161589622497559">
        <ele>1262.0</ele>
        <time>2018-10-12T07:33:27.000Z</time>
      </trkpt>
      <trkpt lat="31.0404281616210938" lon="-7.1161217689514160">
        <ele>1262.0</ele>
        <time>2018-10-12T07:33:28.000Z</time>
      </trkpt>
      <trkpt lat="31.0404376983642578" lon="-7.1160840988159180">
        <ele>1262.0</ele>
        <time>2018-10-12T07:33:29.000Z</time>
      </trkpt>
      <trkpt lat="31.0404434204101562" lon="-7.1160478591918945">
        <ele>1262.0</ele>
        <time>2018-10-12T07:33:30.000Z</time>
      </trkpt>
      <trkpt lat="31.0404472351074219" lon="-7.1160159111022949">
        <ele>1262.0</ele>
        <time>2018-10-12T07:33:31.000Z</time>
      </trkpt>
      <trkpt lat="31.0404472351074219" lon="-7.1159911155700684">
        <ele>1262.0</ele>
        <time>2018-10-12T07:33:32.000Z</time>
      </trkpt>
      <trkpt lat="31.0404453277587891" lon="-7.1159520149230957">
        <ele>1262.0</ele>
        <time>2018-10-12T07:33:34.000Z</time>
      </trkpt>
      <trkpt lat="31.0404415130615234" lon="-7.1159090995788574">
        <ele>1262.0</ele>
        <time>2018-10-12T07:33:36.000Z</time>
      </trkpt>
      <trkpt lat="31.0404396057128906" lon="-7.1158881187438965">
        <ele>1262.0</ele>
        <time>2018-10-12T07:33:37.000Z</time>
      </trkpt>
      <trkpt lat="31.0404376983642578" lon="-7.1158671379089355">
        <ele>1262.0</ele>
        <time>2018-10-12T07:33:38.000Z</time>
      </trkpt>
      <trkpt lat="31.0404357910156250" lon="-7.1158437728881836">
        <ele>1262.0</ele>
        <time>2018-10-12T07:33:39.000Z</time>
      </trkpt>
      <trkpt lat="31.0404281616210938" lon="-7.1158218383789062">
        <ele>1262.821044921875</ele>
        <time>2018-10-12T07:33:40.000Z</time>
      </trkpt>
      <trkpt lat="31.0404224395751953" lon="-7.1157979965209961">
        <ele>1263.0</ele>
        <time>2018-10-12T07:33:41.000Z</time>
      </trkpt>
      <trkpt lat="31.0404148101806641" lon="-7.1157717704772949">
        <ele>1263.0</ele>
        <time>2018-10-12T07:33:42.000Z</time>
      </trkpt>
      <trkpt lat="31.0404033660888672" lon="-7.1157450675964355">
        <ele>1263.0</ele>
        <time>2018-10-12T07:33:43.000Z</time>
      </trkpt>
      <trkpt lat="31.0403881072998047" lon="-7.1157169342041016">
        <ele>1263.0</ele>
        <time>2018-10-12T07:33:44.000Z</time>
      </trkpt>
      <trkpt lat="31.0403747558593750" lon="-7.1156878471374512">
        <ele>1263.0</ele>
        <time>2018-10-12T07:33:45.000Z</time>
      </trkpt>
      <trkpt lat="31.0403594970703125" lon="-7.1156592369079590">
        <ele>1263.0</ele>
        <time>2018-10-12T07:33:46.000Z</time>
      </trkpt>
      <trkpt lat="31.0403461456298828" lon="-7.1156239509582520">
        <ele>1263.0</ele>
        <time>2018-10-12T07:33:47.000Z</time>
      </trkpt>
      <trkpt lat="31.0403327941894531" lon="-7.1155858039855957">
        <ele>1263.0</ele>
        <time>2018-10-12T07:33:48.000Z</time>
      </trkpt>
      <trkpt lat="31.0403194427490234" lon="-7.1155471801757812">
        <ele>1263.0</ele>
        <time>2018-10-12T07:33:49.000Z</time>
      </trkpt>
      <trkpt lat="31.0403079986572266" lon="-7.1155061721801758">
        <ele>1263.0</ele>
        <time>2018-10-12T07:33:50.000Z</time>
      </trkpt>
      <trkpt lat="31.0403003692626953" lon="-7.1154651641845703">
        <ele>1263.0</ele>
        <time>2018-10-12T07:33:51.000Z</time>
      </trkpt>
      <trkpt lat="31.0402965545654297" lon="-7.1154251098632812">
        <ele>1263.0</ele>
        <time>2018-10-12T07:33:52.000Z</time>
      </trkpt>
      <trkpt lat="31.0402927398681641" lon="-7.1153850555419922">
        <ele>1263.0</ele>
        <time>2018-10-12T07:33:53.000Z</time>
      </trkpt>
      <trkpt lat="31.0402889251708984" lon="-7.1153459548950195">
        <ele>1263.7327880859375</ele>
        <time>2018-10-12T07:33:54.000Z</time>
      </trkpt>
      <trkpt lat="31.0402812957763672" lon="-7.1153078079223633">
        <ele>1264.0</ele>
        <time>2018-10-12T07:33:55.000Z</time>
      </trkpt>
      <trkpt lat="31.0402717590332031" lon="-7.1152710914611816">
        <ele>1264.0</ele>
        <time>2018-10-12T07:33:56.000Z</time>
      </trkpt>
      <trkpt lat="31.0402622222900391" lon="-7.1152338981628418">
        <ele>1264.0</ele>
        <time>2018-10-12T07:33:57.000Z</time>
      </trkpt>
      <trkpt lat="31.0402526855468750" lon="-7.1151971817016602">
        <ele>1264.0</ele>
        <time>2018-10-12T07:33:58.000Z</time>
      </trkpt>
      <trkpt lat="31.0402431488037109" lon="-7.1151599884033203">
        <ele>1264.0</ele>
        <time>2018-10-12T07:33:59.000Z</time>
      </trkpt>
      <trkpt lat="31.0402317047119141" lon="-7.1151218414306641">
        <ele>1264.0</ele>
        <time>2018-10-12T07:34:00.000Z</time>
      </trkpt>
      <trkpt lat="31.0402202606201172" lon="-7.1150841712951660">
        <ele>1264.0</ele>
        <time>2018-10-12T07:34:01.000Z</time>
      </trkpt>
      <trkpt lat="31.0402107238769531" lon="-7.1150450706481934">
        <ele>1264.0</ele>
        <time>2018-10-12T07:34:02.000Z</time>
      </trkpt>
      <trkpt lat="31.0402011871337891" lon="-7.1150050163269043">
        <ele>1264.0</ele>
        <time>2018-10-12T07:34:03.000Z</time>
      </trkpt>
      <trkpt lat="31.0401954650878906" lon="-7.1149640083312988">
        <ele>1264.0</ele>
        <time>2018-10-12T07:34:04.000Z</time>
      </trkpt>
      <trkpt lat="31.0401878356933594" lon="-7.1149220466613770">
        <ele>1264.0</ele>
        <time>2018-10-12T07:34:05.000Z</time>
      </trkpt>
      <trkpt lat="31.0401802062988281" lon="-7.1148800849914551">
        <ele>1264.0</ele>
        <time>2018-10-12T07:34:06.000Z</time>
      </trkpt>
      <trkpt lat="31.0401744842529297" lon="-7.1148371696472168">
        <ele>1264.0</ele>
        <time>2018-10-12T07:34:07.000Z</time>
      </trkpt>
      <trkpt lat="31.0401725769042969" lon="-7.1147928237915039">
        <ele>1264.0</ele>
        <time>2018-10-12T07:34:08.000Z</time>
      </trkpt>
      <trkpt lat="31.0401725769042969" lon="-7.1147480010986328">
        <ele>1264.0</ele>
        <time>2018-10-12T07:34:09.000Z</time>
      </trkpt>
      <trkpt lat="31.0401725769042969" lon="-7.1147031784057617">
        <ele>1264.0</ele>
        <time>2018-10-12T07:34:10.000Z</time>
      </trkpt>
      <trkpt lat="31.0401706695556641" lon="-7.1146569252014160">
        <ele>1264.0</ele>
        <time>2018-10-12T07:34:11.000Z</time>
      </trkpt>
      <trkpt lat="31.0401668548583984" lon="-7.1146101951599121">
        <ele>1264.0</ele>
        <time>2018-10-12T07:34:12.000Z</time>
      </trkpt>
      <trkpt lat="31.0401611328125000" lon="-7.1145629882812500">
        <ele>1264.0</ele>
        <time>2018-10-12T07:34:13.000Z</time>
      </trkpt>
      <trkpt lat="31.0401515960693359" lon="-7.1145157814025879">
        <ele>1264.0</ele>
        <time>2018-10-12T07:34:14.000Z</time>
      </trkpt>
      <trkpt lat="31.0401382446289062" lon="-7.1144690513610840">
        <ele>1264.0</ele>
        <time>2018-10-12T07:34:15.000Z</time>
      </trkpt>
      <trkpt lat="31.0401248931884766" lon="-7.1144208908081055">
        <ele>1264.0</ele>
        <time>2018-10-12T07:34:16.000Z</time>
      </trkpt>
      <trkpt lat="31.0401096343994141" lon="-7.1143732070922852">
        <ele>1264.0</ele>
        <time>2018-10-12T07:34:17.000Z</time>
      </trkpt>
      <trkpt lat="31.0400962829589844" lon="-7.1143250465393066">
        <ele>1264.0</ele>
        <time>2018-10-12T07:34:18.000Z</time>
      </trkpt>
      <trkpt lat="31.0400829315185547" lon="-7.1142778396606445">
        <ele>1263.178955078125</ele>
        <time>2018-10-12T07:34:19.000Z</time>
      </trkpt>
      <trkpt lat="31.0400695800781250" lon="-7.1142320632934570">
        <ele>1263.0</ele>
        <time>2018-10-12T07:34:20.000Z</time>
      </trkpt>
      <trkpt lat="31.0400543212890625" lon="-7.1141867637634277">
        <ele>1263.0</ele>
        <time>2018-10-12T07:34:21.000Z</time>
      </trkpt>
      <trkpt lat="31.0400390625000000" lon="-7.1141428947448730">
        <ele>1263.0</ele>
        <time>2018-10-12T07:34:22.000Z</time>
      </trkpt>
      <trkpt lat="31.0400276184082031" lon="-7.1140980720520020">
        <ele>1263.0</ele>
        <time>2018-10-12T07:34:23.000Z</time>
      </trkpt>
      <trkpt lat="31.0400123596191406" lon="-7.1140527725219727">
        <ele>1263.0</ele>
        <time>2018-10-12T07:34:24.000Z</time>
      </trkpt>
      <trkpt lat="31.0399971008300781" lon="-7.1140069961547852">
        <ele>1263.0</ele>
        <time>2018-10-12T07:34:25.000Z</time>
      </trkpt>
      <trkpt lat="31.0399837493896484" lon="-7.1139621734619141">
        <ele>1263.0</ele>
        <time>2018-10-12T07:34:26.000Z</time>
      </trkpt>
      <trkpt lat="31.0399703979492188" lon="-7.1139168739318848">
        <ele>1263.0</ele>
        <time>2018-10-12T07:34:27.000Z</time>
      </trkpt>
      <trkpt lat="31.0399570465087891" lon="-7.1138720512390137">
        <ele>1263.0</ele>
        <time>2018-10-12T07:34:28.000Z</time>
      </trkpt>
      <trkpt lat="31.0399456024169922" lon="-7.1138281822204590">
        <ele>1263.0</ele>
        <time>2018-10-12T07:34:29.000Z</time>
      </trkpt>
      <trkpt lat="31.0399341583251953" lon="-7.1137838363647461">
        <ele>1263.0</ele>
        <time>2018-10-12T07:34:30.000Z</time>
      </trkpt>
      <trkpt lat="31.0399265289306641" lon="-7.1137399673461914">
        <ele>1263.0</ele>
        <time>2018-10-12T07:34:31.000Z</time>
      </trkpt>
      <trkpt lat="31.0399208068847656" lon="-7.1136951446533203">
        <ele>1263.0</ele>
        <time>2018-10-12T07:34:32.000Z</time>
      </trkpt>
      <trkpt lat="31.0399169921875000" lon="-7.1136531829833984">
        <ele>1263.0</ele>
        <time>2018-10-12T07:34:33.000Z</time>
      </trkpt>
      <trkpt lat="31.0399150848388672" lon="-7.1136112213134766">
        <ele>1263.0</ele>
        <time>2018-10-12T07:34:34.000Z</time>
      </trkpt>
      <trkpt lat="31.0399188995361328" lon="-7.1135711669921875">
        <ele>1263.0</ele>
        <time>2018-10-12T07:34:35.000Z</time>
      </trkpt>
      <trkpt lat="31.0399208068847656" lon="-7.1135330200195312">
        <ele>1263.0</ele>
        <time>2018-10-12T07:34:36.000Z</time>
      </trkpt>
      <trkpt lat="31.0399227142333984" lon="-7.1134967803955078">
        <ele>1262.178955078125</ele>
        <time>2018-10-12T07:34:37.000Z</time>
      </trkpt>
      <trkpt lat="31.0399246215820312" lon="-7.1134600639343262">
        <ele>1262.0</ele>
        <time>2018-10-12T07:34:38.000Z</time>
      </trkpt>
      <trkpt lat="31.0399284362792969" lon="-7.1134219169616699">
        <ele>1262.0</ele>
        <time>2018-10-12T07:34:39.000Z</time>
      </trkpt>
      <trkpt lat="31.0399379730224609" lon="-7.1133852005004883">
        <ele>1262.0</ele>
        <time>2018-10-12T07:34:40.000Z</time>
      </trkpt>
      <trkpt lat="31.0399513244628906" lon="-7.1133499145507812">
        <ele>1262.0</ele>
        <time>2018-10-12T07:34:41.000Z</time>
      </trkpt>
      <trkpt lat="31.0399684906005859" lon="-7.1133170127868652">
        <ele>1262.7442626953125</ele>
        <time>2018-10-12T07:34:42.000Z</time>
      </trkpt>
      <trkpt lat="31.0399913787841797" lon="-7.1132898330688477">
        <ele>1263.0</ele>
        <time>2018-10-12T07:34:43.000Z</time>
      </trkpt>
      <trkpt lat="31.0400142669677734" lon="-7.1132721900939941">
        <ele>1263.0</ele>
        <time>2018-10-12T07:34:44.000Z</time>
      </trkpt>
      <trkpt lat="31.0400390625000000" lon="-7.1132569313049316">
        <ele>1263.0</ele>
        <time>2018-10-12T07:34:45.000Z</time>
      </trkpt>
      <trkpt lat="31.0400657653808594" lon="-7.1132459640502930">
        <ele>1263.0</ele>
        <time>2018-10-12T07:34:46.000Z</time>
      </trkpt>
      <trkpt lat="31.0400905609130859" lon="-7.1132359504699707">
        <ele>1263.0</ele>
        <time>2018-10-12T07:34:47.000Z</time>
      </trkpt>
      <trkpt lat="31.0401134490966797" lon="-7.1132287979125977">
        <ele>1263.0</ele>
        <time>2018-10-12T07:34:48.000Z</time>
      </trkpt>
      <trkpt lat="31.0401382446289062" lon="-7.1132249832153320">
        <ele>1263.0</ele>
        <time>2018-10-12T07:34:49.000Z</time>
      </trkpt>
      <trkpt lat="31.0401649475097656" lon="-7.1132187843322754">
        <ele>1263.0</ele>
        <time>2018-10-12T07:34:50.000Z</time>
      </trkpt>
      <trkpt lat="31.0401897430419922" lon="-7.1132130622863770">
        <ele>1263.0</ele>
        <time>2018-10-12T07:34:51.000Z</time>
      </trkpt>
      <trkpt lat="31.0402164459228516" lon="-7.1132059097290039">
        <ele>1263.0</ele>
        <time>2018-10-12T07:34:52.000Z</time>
      </trkpt>
      <trkpt lat="31.0402431488037109" lon="-7.1131978034973145">
        <ele>1263.8128662109375</ele>
        <time>2018-10-12T07:34:53.000Z</time>
      </trkpt>
      <trkpt lat="31.0402717590332031" lon="-7.1131920814514160">
        <ele>1264.0</ele>
        <time>2018-10-12T07:34:54.000Z</time>
      </trkpt>
      <trkpt lat="31.0403003692626953" lon="-7.1131868362426758">
        <ele>1264.0</ele>
        <time>2018-10-12T07:34:55.000Z</time>
      </trkpt>
      <trkpt lat="31.0403308868408203" lon="-7.1131830215454102">
        <ele>1264.0</ele>
        <time>2018-10-12T07:34:56.000Z</time>
      </trkpt>
      <trkpt lat="31.0403614044189453" lon="-7.1131777763366699">
        <ele>1264.0</ele>
        <time>2018-10-12T07:34:57.000Z</time>
      </trkpt>
      <trkpt lat="31.0403919219970703" lon="-7.1131739616394043">
        <ele>1264.0</ele>
        <time>2018-10-12T07:34:58.000Z</time>
      </trkpt>
      <trkpt lat="31.0404243469238281" lon="-7.1131720542907715">
        <ele>1264.0</ele>
        <time>2018-10-12T07:34:59.000Z</time>
      </trkpt>
      <trkpt lat="31.0404567718505859" lon="-7.1131720542907715">
        <ele>1264.0</ele>
        <time>2018-10-12T07:35:00.000Z</time>
      </trkpt>
      <trkpt lat="31.0404872894287109" lon="-7.1131720542907715">
        <ele>1264.0</ele>
        <time>2018-10-12T07:35:01.000Z</time>
      </trkpt>
      <trkpt lat="31.0405178070068359" lon="-7.1131701469421387">
        <ele>1264.0</ele>
        <time>2018-10-12T07:35:02.000Z</time>
      </trkpt>
      <trkpt lat="31.0405426025390625" lon="-7.1131658554077148">
        <ele>1264.0</ele>
        <time>2018-10-12T07:35:03.000Z</time>
      </trkpt>
      <trkpt lat="31.0405654907226562" lon="-7.1131601333618164">
        <ele>1264.0</ele>
        <time>2018-10-12T07:35:04.000Z</time>
      </trkpt>
      <trkpt lat="31.0405883789062500" lon="-7.1131501197814941">
        <ele>1264.0</ele>
        <time>2018-10-12T07:35:05.000Z</time>
      </trkpt>
      <trkpt lat="31.0406112670898438" lon="-7.1131339073181152">
        <ele>1264.0</ele>
        <time>2018-10-12T07:35:06.000Z</time>
      </trkpt>
      <trkpt lat="31.0406322479248047" lon="-7.1131138801574707">
        <ele>1264.0</ele>
        <time>2018-10-12T07:35:07.000Z</time>
      </trkpt>
      <trkpt lat="31.0406494140625000" lon="-7.1130919456481934">
        <ele>1264.0</ele>
        <time>2018-10-12T07:35:08.000Z</time>
      </trkpt>
      <trkpt lat="31.0406646728515625" lon="-7.1130700111389160">
        <ele>1264.0</ele>
        <time>2018-10-12T07:35:09.000Z</time>
      </trkpt>
      <trkpt lat="31.0406780242919922" lon="-7.1130471229553223">
        <ele>1264.0</ele>
        <time>2018-10-12T07:35:10.000Z</time>
      </trkpt>
      <trkpt lat="31.0406913757324219" lon="-7.1130228042602539">
        <ele>1264.821044921875</ele>
        <time>2018-10-12T07:35:11.000Z</time>
      </trkpt>
      <trkpt lat="31.0407047271728516" lon="-7.1129999160766602">
        <ele>1265.0</ele>
        <time>2018-10-12T07:35:12.000Z</time>
      </trkpt>
      <trkpt lat="31.0407161712646484" lon="-7.1129760742187500">
        <ele>1265.0</ele>
        <time>2018-10-12T07:35:13.000Z</time>
      </trkpt>
      <trkpt lat="31.0407276153564453" lon="-7.1129508018493652">
        <ele>1265.0</ele>
        <time>2018-10-12T07:35:14.000Z</time>
      </trkpt>
      <trkpt lat="31.0407371520996094" lon="-7.1129240989685059">
        <ele>1265.0</ele>
        <time>2018-10-12T07:35:15.000Z</time>
      </trkpt>
      <trkpt lat="31.0407485961914062" lon="-7.1128969192504883">
        <ele>1265.0</ele>
        <time>2018-10-12T07:35:16.000Z</time>
      </trkpt>
      <trkpt lat="31.0407562255859375" lon="-7.1128687858581543">
        <ele>1265.0</ele>
        <time>2018-10-12T07:35:17.000Z</time>
      </trkpt>
      <trkpt lat="31.0407619476318359" lon="-7.1128411293029785">
        <ele>1265.0</ele>
        <time>2018-10-12T07:35:18.000Z</time>
      </trkpt>
      <trkpt lat="31.0407657623291016" lon="-7.1128129959106445">
        <ele>1265.631591796875</ele>
        <time>2018-10-12T07:35:19.000Z</time>
      </trkpt>
      <trkpt lat="31.0407695770263672" lon="-7.1127858161926270">
        <ele>1266.0</ele>
        <time>2018-10-12T07:35:20.000Z</time>
      </trkpt>
      <trkpt lat="31.0407733917236328" lon="-7.1127600669860840">
        <ele>1266.0</ele>
        <time>2018-10-12T07:35:21.000Z</time>
      </trkpt>
      <trkpt lat="31.0407791137695312" lon="-7.1127328872680664">
        <ele>1266.821044921875</ele>
        <time>2018-10-12T07:35:22.000Z</time>
      </trkpt>
      <trkpt lat="31.0407829284667969" lon="-7.1127071380615234">
        <ele>1267.0</ele>
        <time>2018-10-12T07:35:23.000Z</time>
      </trkpt>
      <trkpt lat="31.0407867431640625" lon="-7.1126809120178223">
        <ele>1267.0</ele>
        <time>2018-10-12T07:35:24.000Z</time>
      </trkpt>
      <trkpt lat="31.0407905578613281" lon="-7.1126561164855957">
        <ele>1267.821044921875</ele>
        <time>2018-10-12T07:35:25.000Z</time>
      </trkpt>
      <trkpt lat="31.0407924652099609" lon="-7.1126308441162109">
        <ele>1268.0</ele>
        <time>2018-10-12T07:35:26.000Z</time>
      </trkpt>
      <trkpt lat="31.0407962799072266" lon="-7.1126070022583008">
        <ele>1268.821044921875</ele>
        <time>2018-10-12T07:35:27.000Z</time>
      </trkpt>
      <trkpt lat="31.0408000946044922" lon="-7.1125822067260742">
        <ele>1269.0</ele>
        <time>2018-10-12T07:35:28.000Z</time>
      </trkpt>
      <trkpt lat="31.0408039093017578" lon="-7.1125569343566895">
        <ele>1269.0</ele>
        <time>2018-10-12T07:35:29.000Z</time>
      </trkpt>
      <trkpt lat="31.0408077239990234" lon="-7.1125330924987793">
        <ele>1269.0</ele>
        <time>2018-10-12T07:35:30.000Z</time>
      </trkpt>
      <trkpt lat="31.0408134460449219" lon="-7.1125078201293945">
        <ele>1269.0</ele>
        <time>2018-10-12T07:35:31.000Z</time>
      </trkpt>
      <trkpt lat="31.0408153533935547" lon="-7.1124839782714844">
        <ele>1269.821044921875</ele>
        <time>2018-10-12T07:35:32.000Z</time>
      </trkpt>
      <trkpt lat="31.0408191680908203" lon="-7.1124582290649414">
        <ele>1270.0</ele>
        <time>2018-10-12T07:35:33.000Z</time>
      </trkpt>
      <trkpt lat="31.0408229827880859" lon="-7.1124320030212402">
        <ele>1270.0</ele>
        <time>2018-10-12T07:35:34.000Z</time>
      </trkpt>
      <trkpt lat="31.0408267974853516" lon="-7.1124048233032227">
        <ele>1270.0</ele>
        <time>2018-10-12T07:35:35.000Z</time>
      </trkpt>
      <trkpt lat="31.0408306121826172" lon="-7.1123781204223633">
        <ele>1270.0</ele>
        <time>2018-10-12T07:35:36.000Z</time>
      </trkpt>
      <trkpt lat="31.0408344268798828" lon="-7.1123509407043457">
        <ele>1270.0</ele>
        <time>2018-10-12T07:35:37.000Z</time>
      </trkpt>
      <trkpt lat="31.0408382415771484" lon="-7.1123251914978027">
        <ele>1270.0</ele>
        <time>2018-10-12T07:35:38.000Z</time>
      </trkpt>
      <trkpt lat="31.0408420562744141" lon="-7.1122999191284180">
        <ele>1270.7442626953125</ele>
        <time>2018-10-12T07:35:39.000Z</time>
      </trkpt>
      <trkpt lat="31.0408458709716797" lon="-7.1122751235961914">
        <ele>1271.0</ele>
        <time>2018-10-12T07:35:40.000Z</time>
      </trkpt>
      <trkpt lat="31.0408515930175781" lon="-7.1122498512268066">
        <ele>1271.0</ele>
        <time>2018-10-12T07:35:41.000Z</time>
      </trkpt>
      <trkpt lat="31.0408554077148438" lon="-7.1122231483459473">
        <ele>1271.0</ele>
        <time>2018-10-12T07:35:42.000Z</time>
      </trkpt>
      <trkpt lat="31.0408592224121094" lon="-7.1121959686279297">
        <ele>1271.0</ele>
        <time>2018-10-12T07:35:43.000Z</time>
      </trkpt>
      <trkpt lat="31.0408649444580078" lon="-7.1121678352355957">
        <ele>1271.0</ele>
        <time>2018-10-12T07:35:44.000Z</time>
      </trkpt>
      <trkpt lat="31.0408687591552734" lon="-7.1121392250061035">
        <ele>1271.0</ele>
        <time>2018-10-12T07:35:45.000Z</time>
      </trkpt>
      <trkpt lat="31.0408706665039062" lon="-7.1121101379394531">
        <ele>1271.0</ele>
        <time>2018-10-12T07:35:46.000Z</time>
      </trkpt>
      <trkpt lat="31.0408725738525391" lon="-7.1120810508728027">
        <ele>1271.0</ele>
        <time>2018-10-12T07:35:47.000Z</time>
      </trkpt>
      <trkpt lat="31.0408763885498047" lon="-7.1120510101318359">
        <ele>1271.0</ele>
        <time>2018-10-12T07:35:48.000Z</time>
      </trkpt>
      <trkpt lat="31.0408763885498047" lon="-7.1120190620422363">
        <ele>1271.0</ele>
        <time>2018-10-12T07:35:49.000Z</time>
      </trkpt>
      <trkpt lat="31.0408782958984375" lon="-7.1119880676269531">
        <ele>1271.0</ele>
        <time>2018-10-12T07:35:50.000Z</time>
      </trkpt>
      <trkpt lat="31.0408782958984375" lon="-7.1119561195373535">
        <ele>1271.0</ele>
        <time>2018-10-12T07:35:51.000Z</time>
      </trkpt>
      <trkpt lat="31.0408763885498047" lon="-7.1119251251220703">
        <ele>1271.821044921875</ele>
        <time>2018-10-12T07:35:52.000Z</time>
      </trkpt>
      <trkpt lat="31.0408763885498047" lon="-7.1118950843811035">
        <ele>1272.0</ele>
        <time>2018-10-12T07:35:53.000Z</time>
      </trkpt>
      <trkpt lat="31.0408763885498047" lon="-7.1118650436401367">
        <ele>1272.0</ele>
        <time>2018-10-12T07:35:54.000Z</time>
      </trkpt>
      <trkpt lat="31.0408744812011719" lon="-7.1118350028991699">
        <ele>1272.0</ele>
        <time>2018-10-12T07:35:55.000Z</time>
      </trkpt>
      <trkpt lat="31.0408725738525391" lon="-7.1118049621582031">
        <ele>1272.0</ele>
        <time>2018-10-12T07:35:56.000Z</time>
      </trkpt>
      <trkpt lat="31.0408706665039062" lon="-7.1117739677429199">
        <ele>1272.0</ele>
        <time>2018-10-12T07:35:57.000Z</time>
      </trkpt>
      <trkpt lat="31.0408687591552734" lon="-7.1117439270019531">
        <ele>1272.0</ele>
        <time>2018-10-12T07:35:58.000Z</time>
      </trkpt>
      <trkpt lat="31.0408649444580078" lon="-7.1117157936096191">
        <ele>1272.0</ele>
        <time>2018-10-12T07:35:59.000Z</time>
      </trkpt>
      <trkpt lat="31.0408611297607422" lon="-7.1116871833801270">
        <ele>1272.821044921875</ele>
        <time>2018-10-12T07:36:00.000Z</time>
      </trkpt>
      <trkpt lat="31.0408573150634766" lon="-7.1116609573364258">
        <ele>1273.0</ele>
        <time>2018-10-12T07:36:01.000Z</time>
      </trkpt>
      <trkpt lat="31.0408515930175781" lon="-7.1116361618041992">
        <ele>1273.0</ele>
        <time>2018-10-12T07:36:02.000Z</time>
      </trkpt>
      <trkpt lat="31.0408439636230469" lon="-7.1116099357604980">
        <ele>1273.0</ele>
        <time>2018-10-12T07:36:03.000Z</time>
      </trkpt>
      <trkpt lat="31.0408344268798828" lon="-7.1115841865539551">
        <ele>1273.0</ele>
        <time>2018-10-12T07:36:04.000Z</time>
      </trkpt>
      <trkpt lat="31.0408229827880859" lon="-7.1115598678588867">
        <ele>1273.0</ele>
        <time>2018-10-12T07:36:05.000Z</time>
      </trkpt>
      <trkpt lat="31.0408115386962891" lon="-7.1115360260009766">
        <ele>1273.0</ele>
        <time>2018-10-12T07:36:06.000Z</time>
      </trkpt>
      <trkpt lat="31.0407981872558594" lon="-7.1115159988403320">
        <ele>1273.821044921875</ele>
        <time>2018-10-12T07:36:07.000Z</time>
      </trkpt>
      <trkpt lat="31.0407752990722656" lon="-7.1114869117736816">
        <ele>1274.0</ele>
        <time>2018-10-12T07:36:09.000Z</time>
      </trkpt>
      <trkpt lat="31.0407505035400391" lon="-7.1114611625671387">
        <ele>1275.0</ele>
        <time>2018-10-12T07:36:11.000Z</time>
      </trkpt>
      <trkpt lat="31.0407371520996094" lon="-7.1114449501037598">
        <ele>1275.0</ele>
        <time>2018-10-12T07:36:12.000Z</time>
      </trkpt>
      <trkpt lat="31.0407218933105469" lon="-7.1114277839660645">
        <ele>1275.0</ele>
        <time>2018-10-12T07:36:13.000Z</time>
      </trkpt>
      <trkpt lat="31.0407066345214844" lon="-7.1114110946655273">
        <ele>1275.0</ele>
        <time>2018-10-12T07:36:14.000Z</time>
      </trkpt>
      <trkpt lat="31.0406932830810547" lon="-7.1113958358764648">
        <ele>1275.821044921875</ele>
        <time>2018-10-12T07:36:15.000Z</time>
      </trkpt>
      <trkpt lat="31.0406799316406250" lon="-7.1113810539245605">
        <ele>1276.0</ele>
        <time>2018-10-12T07:36:16.000Z</time>
      </trkpt>
      <trkpt lat="31.0406627655029297" lon="-7.1113638877868652">
        <ele>1276.0</ele>
        <time>2018-10-12T07:36:17.000Z</time>
      </trkpt>
      <trkpt lat="31.0406436920166016" lon="-7.1113429069519043">
        <ele>1276.0</ele>
        <time>2018-10-12T07:36:18.000Z</time>
      </trkpt>
      <trkpt lat="31.0406246185302734" lon="-7.1113238334655762">
        <ele>1276.0</ele>
        <time>2018-10-12T07:36:19.000Z</time>
      </trkpt>
      <trkpt lat="31.0406074523925781" lon="-7.1113038063049316">
        <ele>1276.0</ele>
        <time>2018-10-12T07:36:20.000Z</time>
      </trkpt>
      <trkpt lat="31.0405902862548828" lon="-7.1112837791442871">
        <ele>1276.0</ele>
        <time>2018-10-12T07:36:21.000Z</time>
      </trkpt>
      <trkpt lat="31.0405750274658203" lon="-7.1112618446350098">
        <ele>1276.0</ele>
        <time>2018-10-12T07:36:22.000Z</time>
      </trkpt>
      <trkpt lat="31.0405597686767578" lon="-7.1112389564514160">
        <ele>1276.0</ele>
        <time>2018-10-12T07:36:23.000Z</time>
      </trkpt>
      <trkpt lat="31.0405445098876953" lon="-7.1112151145935059">
        <ele>1276.0</ele>
        <time>2018-10-12T07:36:24.000Z</time>
      </trkpt>
      <trkpt lat="31.0405292510986328" lon="-7.1111898422241211">
        <ele>1276.0</ele>
        <time>2018-10-12T07:36:25.000Z</time>
      </trkpt>
      <trkpt lat="31.0405139923095703" lon="-7.1111640930175781">
        <ele>1276.0</ele>
        <time>2018-10-12T07:36:26.000Z</time>
      </trkpt>
      <trkpt lat="31.0404987335205078" lon="-7.1111369132995605">
        <ele>1276.0</ele>
        <time>2018-10-12T07:36:27.000Z</time>
      </trkpt>
      <trkpt lat="31.0404834747314453" lon="-7.1111111640930176">
        <ele>1276.0</ele>
        <time>2018-10-12T07:36:28.000Z</time>
      </trkpt>
      <trkpt lat="31.0404663085937500" lon="-7.1110868453979492">
        <ele>1276.0</ele>
        <time>2018-10-12T07:36:29.000Z</time>
      </trkpt>
      <trkpt lat="31.0404510498046875" lon="-7.1110639572143555">
        <ele>1276.0</ele>
        <time>2018-10-12T07:36:30.000Z</time>
      </trkpt>
      <trkpt lat="31.0404338836669922" lon="-7.1110401153564453">
        <ele>1276.0</ele>
        <time>2018-10-12T07:36:31.000Z</time>
      </trkpt>
      <trkpt lat="31.0404205322265625" lon="-7.1110138893127441">
        <ele>1276.0</ele>
        <time>2018-10-12T07:36:32.000Z</time>
      </trkpt>
      <trkpt lat="31.0404071807861328" lon="-7.1109871864318848">
        <ele>1276.0</ele>
        <time>2018-10-12T07:36:33.000Z</time>
      </trkpt>
      <trkpt lat="31.0403938293457031" lon="-7.1109571456909180">
        <ele>1276.0</ele>
        <time>2018-10-12T07:36:34.000Z</time>
      </trkpt>
      <trkpt lat="31.0403804779052734" lon="-7.1109271049499512">
        <ele>1276.0</ele>
        <time>2018-10-12T07:36:35.000Z</time>
      </trkpt>
      <trkpt lat="31.0403671264648438" lon="-7.1108961105346680">
        <ele>1276.0</ele>
        <time>2018-10-12T07:36:36.000Z</time>
      </trkpt>
      <trkpt lat="31.0403556823730469" lon="-7.1108641624450684">
        <ele>1276.0</ele>
        <time>2018-10-12T07:36:37.000Z</time>
      </trkpt>
      <trkpt lat="31.0403442382812500" lon="-7.1108331680297852">
        <ele>1276.0</ele>
        <time>2018-10-12T07:36:38.000Z</time>
      </trkpt>
      <trkpt lat="31.0403347015380859" lon="-7.1108040809631348">
        <ele>1276.0</ele>
        <time>2018-10-12T07:36:39.000Z</time>
      </trkpt>
      <trkpt lat="31.0403251647949219" lon="-7.1107778549194336">
        <ele>1276.0</ele>
        <time>2018-10-12T07:36:40.000Z</time>
      </trkpt>
      <trkpt lat="31.0403175354003906" lon="-7.1107511520385742">
        <ele>1276.0</ele>
        <time>2018-10-12T07:36:41.000Z</time>
      </trkpt>
      <trkpt lat="31.0403060913085938" lon="-7.1107230186462402">
        <ele>1276.0</ele>
        <time>2018-10-12T07:36:42.000Z</time>
      </trkpt>
      <trkpt lat="31.0402965545654297" lon="-7.1106939315795898">
        <ele>1276.0</ele>
        <time>2018-10-12T07:36:43.000Z</time>
      </trkpt>
      <trkpt lat="31.0402870178222656" lon="-7.1106638908386230">
        <ele>1276.0</ele>
        <time>2018-10-12T07:36:44.000Z</time>
      </trkpt>
      <trkpt lat="31.0402755737304688" lon="-7.1106362342834473">
        <ele>1276.0</ele>
        <time>2018-10-12T07:36:45.000Z</time>
      </trkpt>
      <trkpt lat="31.0402660369873047" lon="-7.1106081008911133">
        <ele>1276.0</ele>
        <time>2018-10-12T07:36:46.000Z</time>
      </trkpt>
      <trkpt lat="31.0402565002441406" lon="-7.1105799674987793">
        <ele>1276.0</ele>
        <time>2018-10-12T07:36:47.000Z</time>
      </trkpt>
      <trkpt lat="31.0402450561523438" lon="-7.1105518341064453">
        <ele>1276.0</ele>
        <time>2018-10-12T07:36:48.000Z</time>
      </trkpt>
      <trkpt lat="31.0402374267578125" lon="-7.1105241775512695">
        <ele>1276.626708984375</ele>
        <time>2018-10-12T07:36:49.000Z</time>
      </trkpt>
      <trkpt lat="31.0402297973632812" lon="-7.1104969978332520">
        <ele>1277.0</ele>
        <time>2018-10-12T07:36:50.000Z</time>
      </trkpt>
      <trkpt lat="31.0402202606201172" lon="-7.1104707717895508">
        <ele>1277.0</ele>
        <time>2018-10-12T07:36:51.000Z</time>
      </trkpt>
      <trkpt lat="31.0402164459228516" lon="-7.1104440689086914">
        <ele>1277.0</ele>
        <time>2018-10-12T07:36:52.000Z</time>
      </trkpt>
      <trkpt lat="31.0402107238769531" lon="-7.1104202270507812">
        <ele>1277.0</ele>
        <time>2018-10-12T07:36:53.000Z</time>
      </trkpt>
      <trkpt lat="31.0402088165283203" lon="-7.1103940010070801">
        <ele>1277.0</ele>
        <time>2018-10-12T07:36:54.000Z</time>
      </trkpt>
      <trkpt lat="31.0402050018310547" lon="-7.1103668212890625">
        <ele>1277.0</ele>
        <time>2018-10-12T07:36:55.000Z</time>
      </trkpt>
      <trkpt lat="31.0401992797851562" lon="-7.1103401184082031">
        <ele>1277.0</ele>
        <time>2018-10-12T07:36:56.000Z</time>
      </trkpt>
      <trkpt lat="31.0401954650878906" lon="-7.1103110313415527">
        <ele>1277.0</ele>
        <time>2018-10-12T07:36:57.000Z</time>
      </trkpt>
      <trkpt lat="31.0401897430419922" lon="-7.1102819442749023">
        <ele>1277.0</ele>
        <time>2018-10-12T07:36:58.000Z</time>
      </trkpt>
      <trkpt lat="31.0401782989501953" lon="-7.1102519035339355">
        <ele>1277.0</ele>
        <time>2018-10-12T07:36:59.000Z</time>
      </trkpt>
      <trkpt lat="31.0401687622070312" lon="-7.1102228164672852">
        <ele>1277.0</ele>
        <time>2018-10-12T07:37:00.000Z</time>
      </trkpt>
      <trkpt lat="31.0401573181152344" lon="-7.1101927757263184">
        <ele>1277.0</ele>
        <time>2018-10-12T07:37:01.000Z</time>
      </trkpt>
      <trkpt lat="31.0401496887207031" lon="-7.1101641654968262">
        <ele>1277.0</ele>
        <time>2018-10-12T07:37:02.000Z</time>
      </trkpt>
      <trkpt lat="31.0401401519775391" lon="-7.1101369857788086">
        <ele>1277.0</ele>
        <time>2018-10-12T07:37:03.000Z</time>
      </trkpt>
      <trkpt lat="31.0401306152343750" lon="-7.1101088523864746">
        <ele>1277.0</ele>
        <time>2018-10-12T07:37:04.000Z</time>
      </trkpt>
      <trkpt lat="31.0401191711425781" lon="-7.1100778579711914">
        <ele>1277.0</ele>
        <time>2018-10-12T07:37:05.000Z</time>
      </trkpt>
      <trkpt lat="31.0401077270507812" lon="-7.1100459098815918">
        <ele>1277.0</ele>
        <time>2018-10-12T07:37:06.000Z</time>
      </trkpt>
      <trkpt lat="31.0400962829589844" lon="-7.1100120544433594">
        <ele>1277.0</ele>
        <time>2018-10-12T07:37:07.000Z</time>
      </trkpt>
      <trkpt lat="31.0400848388671875" lon="-7.1099767684936523">
        <ele>1277.0</ele>
        <time>2018-10-12T07:37:08.000Z</time>
      </trkpt>
      <trkpt lat="31.0400733947753906" lon="-7.1099400520324707">
        <ele>1277.0</ele>
        <time>2018-10-12T07:37:09.000Z</time>
      </trkpt>
      <trkpt lat="31.0400600433349609" lon="-7.1099019050598145">
        <ele>1277.0</ele>
        <time>2018-10-12T07:37:10.000Z</time>
      </trkpt>
      <trkpt lat="31.0400466918945312" lon="-7.1098651885986328">
        <ele>1277.0</ele>
        <time>2018-10-12T07:37:11.000Z</time>
      </trkpt>
      <trkpt lat="31.0400333404541016" lon="-7.1098289489746094">
        <ele>1277.0</ele>
        <time>2018-10-12T07:37:12.000Z</time>
      </trkpt>
      <trkpt lat="31.0400161743164062" lon="-7.1097941398620605">
        <ele>1277.0</ele>
        <time>2018-10-12T07:37:13.000Z</time>
      </trkpt>
      <trkpt lat="31.0400047302246094" lon="-7.1097588539123535">
        <ele>1277.0</ele>
        <time>2018-10-12T07:37:14.000Z</time>
      </trkpt>
      <trkpt lat="31.0399932861328125" lon="-7.1097249984741211">
        <ele>1277.0</ele>
        <time>2018-10-12T07:37:15.000Z</time>
      </trkpt>
      <trkpt lat="31.0399837493896484" lon="-7.1096901893615723">
        <ele>1277.0</ele>
        <time>2018-10-12T07:37:16.000Z</time>
      </trkpt>
      <trkpt lat="31.0399761199951172" lon="-7.1096549034118652">
        <ele>1277.0</ele>
        <time>2018-10-12T07:37:17.000Z</time>
      </trkpt>
      <trkpt lat="31.0399723052978516" lon="-7.1096181869506836">
        <ele>1277.0</ele>
        <time>2018-10-12T07:37:18.000Z</time>
      </trkpt>
      <trkpt lat="31.0399665832519531" lon="-7.1095809936523438">
        <ele>1277.0</ele>
        <time>2018-10-12T07:37:19.000Z</time>
      </trkpt>
      <trkpt lat="31.0399627685546875" lon="-7.1095438003540039">
        <ele>1277.0</ele>
        <time>2018-10-12T07:37:20.000Z</time>
      </trkpt>
      <trkpt lat="31.0399570465087891" lon="-7.1095070838928223">
        <ele>1277.0</ele>
        <time>2018-10-12T07:37:21.000Z</time>
      </trkpt>
      <trkpt lat="31.0399513244628906" lon="-7.1094708442687988">
        <ele>1277.0</ele>
        <time>2018-10-12T07:37:22.000Z</time>
      </trkpt>
      <trkpt lat="31.0399436950683594" lon="-7.1094369888305664">
        <ele>1276.178955078125</ele>
        <time>2018-10-12T07:37:23.000Z</time>
      </trkpt>
      <trkpt lat="31.0399341583251953" lon="-7.1094021797180176">
        <ele>1276.6219482421875</ele>
        <time>2018-10-12T07:37:24.000Z</time>
      </trkpt>
      <trkpt lat="31.0399246215820312" lon="-7.1093668937683105">
        <ele>1277.0</ele>
        <time>2018-10-12T07:37:25.000Z</time>
      </trkpt>
      <trkpt lat="31.0399131774902344" lon="-7.1093330383300781">
        <ele>1277.0</ele>
        <time>2018-10-12T07:37:26.000Z</time>
      </trkpt>
      <trkpt lat="31.0399036407470703" lon="-7.1093001365661621">
        <ele>1277.0</ele>
        <time>2018-10-12T07:37:27.000Z</time>
      </trkpt>
      <trkpt lat="31.0398921966552734" lon="-7.1092672348022461">
        <ele>1277.0</ele>
        <time>2018-10-12T07:37:28.000Z</time>
      </trkpt>
      <trkpt lat="31.0398845672607422" lon="-7.1092391014099121">
        <ele>1277.0</ele>
        <time>2018-10-12T07:37:29.000Z</time>
      </trkpt>
      <trkpt lat="31.0398750305175781" lon="-7.1092147827148438">
        <ele>1277.0</ele>
        <time>2018-10-12T07:37:30.000Z</time>
      </trkpt>
      <trkpt lat="31.0398674011230469" lon="-7.1091890335083008">
        <ele>1277.0</ele>
        <time>2018-10-12T07:37:31.000Z</time>
      </trkpt>
      <trkpt lat="31.0398597717285156" lon="-7.1091599464416504">
        <ele>1277.0</ele>
        <time>2018-10-12T07:37:32.000Z</time>
      </trkpt>
      <trkpt lat="31.0398502349853516" lon="-7.1091251373291016">
        <ele>1276.2593994140625</ele>
        <time>2018-10-12T07:37:33.000Z</time>
      </trkpt>
      <trkpt lat="31.0398387908935547" lon="-7.1090841293334961">
        <ele>1276.0</ele>
        <time>2018-10-12T07:37:34.000Z</time>
      </trkpt>
      <trkpt lat="31.0398273468017578" lon="-7.1090431213378906">
        <ele>1276.0</ele>
        <time>2018-10-12T07:37:35.000Z</time>
      </trkpt>
      <trkpt lat="31.0398120880126953" lon="-7.1090011596679688">
        <ele>1276.0</ele>
        <time>2018-10-12T07:37:36.000Z</time>
      </trkpt>
      <trkpt lat="31.0397872924804688" lon="-7.1089577674865723">
        <ele>1275.178955078125</ele>
        <time>2018-10-12T07:37:37.000Z</time>
      </trkpt>
      <trkpt lat="31.0397472381591797" lon="-7.1089181900024414">
        <ele>1274.373291015625</ele>
        <time>2018-10-12T07:37:38.000Z</time>
      </trkpt>
      <trkpt lat="31.0396995544433594" lon="-7.1088790893554688">
        <ele>1274.0</ele>
        <time>2018-10-12T07:37:39.000Z</time>
      </trkpt>
      <trkpt lat="31.0396556854248047" lon="-7.1088380813598633">
        <ele>1273.178955078125</ele>
        <time>2018-10-12T07:37:40.000Z</time>
      </trkpt>
      <trkpt lat="31.0396137237548828" lon="-7.1087961196899414">
        <ele>1273.0</ele>
        <time>2018-10-12T07:37:41.000Z</time>
      </trkpt>
      <trkpt lat="31.0395774841308594" lon="-7.1087541580200195">
        <ele>1273.0</ele>
        <time>2018-10-12T07:37:42.000Z</time>
      </trkpt>
      <trkpt lat="31.0395431518554688" lon="-7.1087107658386230">
        <ele>1273.0</ele>
        <time>2018-10-12T07:37:43.000Z</time>
      </trkpt>
      <trkpt lat="31.0395088195800781" lon="-7.1086688041687012">
        <ele>1273.0</ele>
        <time>2018-10-12T07:37:44.000Z</time>
      </trkpt>
      <trkpt lat="31.0394763946533203" lon="-7.1086320877075195">
        <ele>1273.0</ele>
        <time>2018-10-12T07:37:45.000Z</time>
      </trkpt>
      <trkpt lat="31.0394458770751953" lon="-7.1085958480834961">
        <ele>1273.0</ele>
        <time>2018-10-12T07:37:46.000Z</time>
      </trkpt>
      <trkpt lat="31.0394172668457031" lon="-7.1085619926452637">
        <ele>1273.0</ele>
        <time>2018-10-12T07:37:47.000Z</time>
      </trkpt>
      <trkpt lat="31.0393886566162109" lon="-7.1085281372070312">
        <ele>1273.821044921875</ele>
        <time>2018-10-12T07:37:48.000Z</time>
      </trkpt>
      <trkpt lat="31.0393638610839844" lon="-7.1084928512573242">
        <ele>1274.0</ele>
        <time>2018-10-12T07:37:49.000Z</time>
      </trkpt>
      <trkpt lat="31.0393428802490234" lon="-7.1084609031677246">
        <ele>1274.0</ele>
        <time>2018-10-12T07:37:50.000Z</time>
      </trkpt>
      <trkpt lat="31.0393238067626953" lon="-7.1084299087524414">
        <ele>1274.631591796875</ele>
        <time>2018-10-12T07:37:51.000Z</time>
      </trkpt>
      <trkpt lat="31.0393066406250000" lon="-7.1084017753601074">
        <ele>1275.0</ele>
        <time>2018-10-12T07:37:52.000Z</time>
      </trkpt>
      <trkpt lat="31.0392913818359375" lon="-7.1083750724792480">
        <ele>1275.0</ele>
        <time>2018-10-12T07:37:53.000Z</time>
      </trkpt>
      <trkpt lat="31.0392742156982422" lon="-7.1083459854125977">
        <ele>1275.0</ele>
        <time>2018-10-12T07:37:54.000Z</time>
      </trkpt>
      <trkpt lat="31.0392570495605469" lon="-7.1083159446716309">
        <ele>1275.0</ele>
        <time>2018-10-12T07:37:55.000Z</time>
      </trkpt>
      <trkpt lat="31.0392436981201172" lon="-7.1082820892333984">
        <ele>1275.821044921875</ele>
        <time>2018-10-12T07:37:56.000Z</time>
      </trkpt>
      <trkpt lat="31.0392322540283203" lon="-7.1082468032836914">
        <ele>1276.0</ele>
        <time>2018-10-12T07:37:57.000Z</time>
      </trkpt>
      <trkpt lat="31.0392227172851562" lon="-7.1082119941711426">
        <ele>1276.0</ele>
        <time>2018-10-12T07:37:58.000Z</time>
      </trkpt>
      <trkpt lat="31.0392112731933594" lon="-7.1081748008728027">
        <ele>1276.0</ele>
        <time>2018-10-12T07:37:59.000Z</time>
      </trkpt>
      <trkpt lat="31.0391998291015625" lon="-7.1081390380859375">
        <ele>1276.0</ele>
        <time>2018-10-12T07:38:00.000Z</time>
      </trkpt>
      <trkpt lat="31.0391826629638672" lon="-7.1081070899963379">
        <ele>1276.0</ele>
        <time>2018-10-12T07:38:01.000Z</time>
      </trkpt>
      <trkpt lat="31.0391635894775391" lon="-7.1080760955810547">
        <ele>1276.0</ele>
        <time>2018-10-12T07:38:02.000Z</time>
      </trkpt>
      <trkpt lat="31.0391464233398438" lon="-7.1080441474914551">
        <ele>1276.0</ele>
        <time>2018-10-12T07:38:03.000Z</time>
      </trkpt>
      <trkpt lat="31.0391273498535156" lon="-7.1080131530761719">
        <ele>1276.0</ele>
        <time>2018-10-12T07:38:04.000Z</time>
      </trkpt>
      <trkpt lat="31.0391082763671875" lon="-7.1079831123352051">
        <ele>1276.0</ele>
        <time>2018-10-12T07:38:05.000Z</time>
      </trkpt>
      <trkpt lat="31.0390892028808594" lon="-7.1079540252685547">
        <ele>1276.0</ele>
        <time>2018-10-12T07:38:06.000Z</time>
      </trkpt>
      <trkpt lat="31.0390701293945312" lon="-7.1079258918762207">
        <ele>1276.0</ele>
        <time>2018-10-12T07:38:07.000Z</time>
      </trkpt>
      <trkpt lat="31.0390510559082031" lon="-7.1079010963439941">
        <ele>1276.821044921875</ele>
        <time>2018-10-12T07:38:08.000Z</time>
      </trkpt>
      <trkpt lat="31.0390338897705078" lon="-7.1078767776489258">
        <ele>1277.0</ele>
        <time>2018-10-12T07:38:09.000Z</time>
      </trkpt>
      <trkpt lat="31.0390167236328125" lon="-7.1078538894653320">
        <ele>1277.0</ele>
        <time>2018-10-12T07:38:10.000Z</time>
      </trkpt>
      <trkpt lat="31.0389995574951172" lon="-7.1078310012817383">
        <ele>1277.0</ele>
        <time>2018-10-12T07:38:11.000Z</time>
      </trkpt>
      <trkpt lat="31.0389823913574219" lon="-7.1078062057495117">
        <ele>1277.821044921875</ele>
        <time>2018-10-12T07:38:12.000Z</time>
      </trkpt>
      <trkpt lat="31.0389633178710938" lon="-7.1077809333801270">
        <ele>1278.0</ele>
        <time>2018-10-12T07:38:13.000Z</time>
      </trkpt>
      <trkpt lat="31.0389442443847656" lon="-7.1077570915222168">
        <ele>1278.0</ele>
        <time>2018-10-12T07:38:14.000Z</time>
      </trkpt>
      <trkpt lat="31.0389251708984375" lon="-7.1077327728271484">
        <ele>1278.0</ele>
        <time>2018-10-12T07:38:15.000Z</time>
      </trkpt>
      <trkpt lat="31.0389060974121094" lon="-7.1077079772949219">
        <ele>1278.0</ele>
        <time>2018-10-12T07:38:16.000Z</time>
      </trkpt>
      <trkpt lat="31.0388870239257812" lon="-7.1076841354370117">
        <ele>1278.0</ele>
        <time>2018-10-12T07:38:17.000Z</time>
      </trkpt>
      <trkpt lat="31.0388660430908203" lon="-7.1076569557189941">
        <ele>1278.0</ele>
        <time>2018-10-12T07:38:18.000Z</time>
      </trkpt>
      <trkpt lat="31.0388450622558594" lon="-7.1076278686523438">
        <ele>1278.0</ele>
        <time>2018-10-12T07:38:19.000Z</time>
      </trkpt>
      <trkpt lat="31.0388202667236328" lon="-7.1075978279113770">
        <ele>1278.0</ele>
        <time>2018-10-12T07:38:20.000Z</time>
      </trkpt>
      <trkpt lat="31.0387935638427734" lon="-7.1075649261474609">
        <ele>1278.0</ele>
        <time>2018-10-12T07:38:21.000Z</time>
      </trkpt>
      <trkpt lat="31.0387649536132812" lon="-7.1075291633605957">
        <ele>1278.0</ele>
        <time>2018-10-12T07:38:22.000Z</time>
      </trkpt>
      <trkpt lat="31.0387325286865234" lon="-7.1074938774108887">
        <ele>1278.0</ele>
        <time>2018-10-12T07:38:23.000Z</time>
      </trkpt>
      <trkpt lat="31.0386962890625000" lon="-7.1074619293212891">
        <ele>1277.178955078125</ele>
        <time>2018-10-12T07:38:24.000Z</time>
      </trkpt>
      <trkpt lat="31.0386562347412109" lon="-7.1074318885803223">
        <ele>1277.0</ele>
        <time>2018-10-12T07:38:25.000Z</time>
      </trkpt>
      <trkpt lat="31.0386161804199219" lon="-7.1074070930480957">
        <ele>1277.0</ele>
        <time>2018-10-12T07:38:26.000Z</time>
      </trkpt>
      <trkpt lat="31.0385742187500000" lon="-7.1073899269104004">
        <ele>1277.0</ele>
        <time>2018-10-12T07:38:27.000Z</time>
      </trkpt>
      <trkpt lat="31.0385341644287109" lon="-7.1073789596557617">
        <ele>1277.821044921875</ele>
        <time>2018-10-12T07:38:28.000Z</time>
      </trkpt>
      <trkpt lat="31.0384979248046875" lon="-7.1073760986328125">
        <ele>1278.0</ele>
        <time>2018-10-12T07:38:29.000Z</time>
      </trkpt>
      <trkpt lat="31.0384616851806641" lon="-7.1073808670043945">
        <ele>1278.0</ele>
        <time>2018-10-12T07:38:30.000Z</time>
      </trkpt>
      <trkpt lat="31.0384330749511719" lon="-7.1073870658874512">
        <ele>1278.0</ele>
        <time>2018-10-12T07:38:31.000Z</time>
      </trkpt>
      <trkpt lat="31.0384063720703125" lon="-7.1073908805847168">
        <ele>1278.821044921875</ele>
        <time>2018-10-12T07:38:32.000Z</time>
      </trkpt>
      <trkpt lat="31.0383815765380859" lon="-7.1073908805847168">
        <ele>1279.0</ele>
        <time>2018-10-12T07:38:33.000Z</time>
      </trkpt>
      <trkpt lat="31.0383548736572266" lon="-7.1073870658874512">
        <ele>1279.0</ele>
        <time>2018-10-12T07:38:34.000Z</time>
      </trkpt>
      <trkpt lat="31.0383262634277344" lon="-7.1073827743530273">
        <ele>1279.6173095703125</ele>
        <time>2018-10-12T07:38:35.000Z</time>
      </trkpt>
      <trkpt lat="31.0382995605468750" lon="-7.1073751449584961">
        <ele>1280.0</ele>
        <time>2018-10-12T07:38:36.000Z</time>
      </trkpt>
      <trkpt lat="31.0382747650146484" lon="-7.1073660850524902">
        <ele>1280.0</ele>
        <time>2018-10-12T07:38:37.000Z</time>
      </trkpt>
      <trkpt lat="31.0382537841796875" lon="-7.1073551177978516">
        <ele>1280.821044921875</ele>
        <time>2018-10-12T07:38:38.000Z</time>
      </trkpt>
      <trkpt lat="31.0382347106933594" lon="-7.1073398590087891">
        <ele>1281.0</ele>
        <time>2018-10-12T07:38:39.000Z</time>
      </trkpt>
      <trkpt lat="31.0382175445556641" lon="-7.1073207855224609">
        <ele>1281.0</ele>
        <time>2018-10-12T07:38:40.000Z</time>
      </trkpt>
      <trkpt lat="31.0382041931152344" lon="-7.1072988510131836">
        <ele>1281.0</ele>
        <time>2018-10-12T07:38:41.000Z</time>
      </trkpt>
      <trkpt lat="31.0381946563720703" lon="-7.1072731018066406">
        <ele>1281.0</ele>
        <time>2018-10-12T07:38:42.000Z</time>
      </trkpt>
      <trkpt lat="31.0381851196289062" lon="-7.1072430610656738">
        <ele>1281.0</ele>
        <time>2018-10-12T07:38:43.000Z</time>
      </trkpt>
      <trkpt lat="31.0381793975830078" lon="-7.1072111129760742">
        <ele>1281.0</ele>
        <time>2018-10-12T07:38:44.000Z</time>
      </trkpt>
      <trkpt lat="31.0381793975830078" lon="-7.1071767807006836">
        <ele>1281.0</ele>
        <time>2018-10-12T07:38:45.000Z</time>
      </trkpt>
      <trkpt lat="31.0381832122802734" lon="-7.1071419715881348">
        <ele>1281.0</ele>
        <time>2018-10-12T07:38:46.000Z</time>
      </trkpt>
      <trkpt lat="31.0381908416748047" lon="-7.1071081161499023">
        <ele>1281.8154296875</ele>
        <time>2018-10-12T07:38:47.000Z</time>
      </trkpt>
      <trkpt lat="31.0381984710693359" lon="-7.1070752143859863">
        <ele>1282.0</ele>
        <time>2018-10-12T07:38:48.000Z</time>
      </trkpt>
      <trkpt lat="31.0382022857666016" lon="-7.1070408821105957">
        <ele>1282.7442626953125</ele>
        <time>2018-10-12T07:38:49.000Z</time>
      </trkpt>
      <trkpt lat="31.0382061004638672" lon="-7.1070079803466797">
        <ele>1283.0</ele>
        <time>2018-10-12T07:38:50.000Z</time>
      </trkpt>
      <trkpt lat="31.0382118225097656" lon="-7.1069750785827637">
        <ele>1282.178955078125</ele>
        <time>2018-10-12T07:38:51.000Z</time>
      </trkpt>
      <trkpt lat="31.0382156372070312" lon="-7.1069412231445312">
        <ele>1282.821044921875</ele>
        <time>2018-10-12T07:38:52.000Z</time>
      </trkpt>
      <trkpt lat="31.0382175445556641" lon="-7.1069068908691406">
        <ele>1283.0</ele>
        <time>2018-10-12T07:38:53.000Z</time>
      </trkpt>
      <trkpt lat="31.0382156372070312" lon="-7.1068749427795410">
        <ele>1283.0</ele>
        <time>2018-10-12T07:38:54.000Z</time>
      </trkpt>
      <trkpt lat="31.0382099151611328" lon="-7.1068429946899414">
        <ele>1283.821044921875</ele>
        <time>2018-10-12T07:38:55.000Z</time>
      </trkpt>
      <trkpt lat="31.0382041931152344" lon="-7.1068120002746582">
        <ele>1284.0</ele>
        <time>2018-10-12T07:38:56.000Z</time>
      </trkpt>
      <trkpt lat="31.0381984710693359" lon="-7.1067819595336914">
        <ele>1284.0</ele>
        <time>2018-10-12T07:38:57.000Z</time>
      </trkpt>
      <trkpt lat="31.0381908416748047" lon="-7.1067571640014648">
        <ele>1284.0</ele>
        <time>2018-10-12T07:38:58.000Z</time>
      </trkpt>
      <trkpt lat="31.0381793975830078" lon="-7.1067361831665039">
        <ele>1284.0</ele>
        <time>2018-10-12T07:38:59.000Z</time>
      </trkpt>
      <trkpt lat="31.0381660461425781" lon="-7.1067171096801758">
        <ele>1284.0</ele>
        <time>2018-10-12T07:39:00.000Z</time>
      </trkpt>
      <trkpt lat="31.0381526947021484" lon="-7.1066999435424805">
        <ele>1284.0</ele>
        <time>2018-10-12T07:39:01.000Z</time>
      </trkpt>
      <trkpt lat="31.0381355285644531" lon="-7.1066818237304688">
        <ele>1284.0</ele>
        <time>2018-10-12T07:39:02.000Z</time>
      </trkpt>
      <trkpt lat="31.0381183624267578" lon="-7.1066651344299316">
        <ele>1284.0</ele>
        <time>2018-10-12T07:39:03.000Z</time>
      </trkpt>
      <trkpt lat="31.0380992889404297" lon="-7.1066470146179199">
        <ele>1284.0</ele>
        <time>2018-10-12T07:39:04.000Z</time>
      </trkpt>
      <trkpt lat="31.0380802154541016" lon="-7.1066308021545410">
        <ele>1284.0</ele>
        <time>2018-10-12T07:39:05.000Z</time>
      </trkpt>
      <trkpt lat="31.0380630493164062" lon="-7.1066150665283203">
        <ele>1284.0</ele>
        <time>2018-10-12T07:39:06.000Z</time>
      </trkpt>
      <trkpt lat="31.0380458831787109" lon="-7.1065979003906250">
        <ele>1284.0</ele>
        <time>2018-10-12T07:39:07.000Z</time>
      </trkpt>
      <trkpt lat="31.0380306243896484" lon="-7.1065821647644043">
        <ele>1284.0</ele>
        <time>2018-10-12T07:39:08.000Z</time>
      </trkpt>
      <trkpt lat="31.0380153656005859" lon="-7.1065649986267090">
        <ele>1284.0</ele>
        <time>2018-10-12T07:39:09.000Z</time>
      </trkpt>
      <trkpt lat="31.0380001068115234" lon="-7.1065487861633301">
        <ele>1284.0</ele>
        <time>2018-10-12T07:39:10.000Z</time>
      </trkpt>
      <trkpt lat="31.0379848480224609" lon="-7.1065368652343750">
        <ele>1284.8128662109375</ele>
        <time>2018-10-12T07:39:11.000Z</time>
      </trkpt>
      <trkpt lat="31.0379695892333984" lon="-7.1065258979797363">
        <ele>1285.0</ele>
        <time>2018-10-12T07:39:12.000Z</time>
      </trkpt>
      <trkpt lat="31.0379543304443359" lon="-7.1065139770507812">
        <ele>1285.0</ele>
        <time>2018-10-12T07:39:13.000Z</time>
      </trkpt>
      <trkpt lat="31.0379390716552734" lon="-7.1064991950988770">
        <ele>1285.0</ele>
        <time>2018-10-12T07:39:14.000Z</time>
      </trkpt>
      <trkpt lat="31.0379219055175781" lon="-7.1064839363098145">
        <ele>1285.0</ele>
        <time>2018-10-12T07:39:15.000Z</time>
      </trkpt>
      <trkpt lat="31.0379028320312500" lon="-7.1064710617065430">
        <ele>1285.0</ele>
        <time>2018-10-12T07:39:16.000Z</time>
      </trkpt>
      <trkpt lat="31.0378818511962891" lon="-7.1064591407775879">
        <ele>1285.0</ele>
        <time>2018-10-12T07:39:17.000Z</time>
      </trkpt>
      <trkpt lat="31.0378608703613281" lon="-7.1064448356628418">
        <ele>1285.0</ele>
        <time>2018-10-12T07:39:18.000Z</time>
      </trkpt>
      <trkpt lat="31.0378379821777344" lon="-7.1064310073852539">
        <ele>1285.0</ele>
        <time>2018-10-12T07:39:19.000Z</time>
      </trkpt>
      <trkpt lat="31.0378131866455078" lon="-7.1064162254333496">
        <ele>1285.0</ele>
        <time>2018-10-12T07:39:20.000Z</time>
      </trkpt>
      <trkpt lat="31.0377902984619141" lon="-7.1064028739929199">
        <ele>1285.0</ele>
        <time>2018-10-12T07:39:21.000Z</time>
      </trkpt>
      <trkpt lat="31.0377674102783203" lon="-7.1063890457153320">
        <ele>1285.0</ele>
        <time>2018-10-12T07:39:22.000Z</time>
      </trkpt>
      <trkpt lat="31.0377445220947266" lon="-7.1063737869262695">
        <ele>1285.0</ele>
        <time>2018-10-12T07:39:23.000Z</time>
      </trkpt>
      <trkpt lat="31.0377235412597656" lon="-7.1063561439514160">
        <ele>1285.0</ele>
        <time>2018-10-12T07:39:24.000Z</time>
      </trkpt>
      <trkpt lat="31.0377025604248047" lon="-7.1063361167907715">
        <ele>1285.0</ele>
        <time>2018-10-12T07:39:25.000Z</time>
      </trkpt>
      <trkpt lat="31.0376834869384766" lon="-7.1063151359558105">
        <ele>1285.0</ele>
        <time>2018-10-12T07:39:26.000Z</time>
      </trkpt>
      <trkpt lat="31.0376625061035156" lon="-7.1062941551208496">
        <ele>1285.0</ele>
        <time>2018-10-12T07:39:27.000Z</time>
      </trkpt>
      <trkpt lat="31.0376396179199219" lon="-7.1062741279602051">
        <ele>1285.0</ele>
        <time>2018-10-12T07:39:28.000Z</time>
      </trkpt>
      <trkpt lat="31.0376167297363281" lon="-7.1062531471252441">
        <ele>1285.821044921875</ele>
        <time>2018-10-12T07:39:29.000Z</time>
      </trkpt>
      <trkpt lat="31.0375938415527344" lon="-7.1062297821044922">
        <ele>1286.0</ele>
        <time>2018-10-12T07:39:30.000Z</time>
      </trkpt>
      <trkpt lat="31.0375709533691406" lon="-7.1062078475952148">
        <ele>1286.0</ele>
        <time>2018-10-12T07:39:31.000Z</time>
      </trkpt>
      <trkpt lat="31.0375461578369141" lon="-7.1061868667602539">
        <ele>1286.0</ele>
        <time>2018-10-12T07:39:32.000Z</time>
      </trkpt>
      <trkpt lat="31.0375213623046875" lon="-7.1061677932739258">
        <ele>1286.0</ele>
        <time>2018-10-12T07:39:33.000Z</time>
      </trkpt>
      <trkpt lat="31.0374965667724609" lon="-7.1061468124389648">
        <ele>1286.0</ele>
        <time>2018-10-12T07:39:34.000Z</time>
      </trkpt>
      <trkpt lat="31.0374698638916016" lon="-7.1061267852783203">
        <ele>1286.0</ele>
        <time>2018-10-12T07:39:35.000Z</time>
      </trkpt>
      <trkpt lat="31.0374431610107422" lon="-7.1061072349548340">
        <ele>1286.0</ele>
        <time>2018-10-12T07:39:36.000Z</time>
      </trkpt>
      <trkpt lat="31.0374183654785156" lon="-7.1060872077941895">
        <ele>1286.0</ele>
        <time>2018-10-12T07:39:37.000Z</time>
      </trkpt>
      <trkpt lat="31.0373897552490234" lon="-7.1060671806335449">
        <ele>1286.0</ele>
        <time>2018-10-12T07:39:38.000Z</time>
      </trkpt>
      <trkpt lat="31.0373611450195312" lon="-7.1060481071472168">
        <ele>1286.0</ele>
        <time>2018-10-12T07:39:39.000Z</time>
      </trkpt>
      <trkpt lat="31.0373306274414062" lon="-7.1060299873352051">
        <ele>1286.0</ele>
        <time>2018-10-12T07:39:40.000Z</time>
      </trkpt>
      <trkpt lat="31.0373001098632812" lon="-7.1060109138488770">
        <ele>1286.0</ele>
        <time>2018-10-12T07:39:41.000Z</time>
      </trkpt>
      <trkpt lat="31.0372695922851562" lon="-7.1059889793395996">
        <ele>1286.0</ele>
        <time>2018-10-12T07:39:42.000Z</time>
      </trkpt>
      <trkpt lat="31.0372390747070312" lon="-7.1059689521789551">
        <ele>1286.0</ele>
        <time>2018-10-12T07:39:43.000Z</time>
      </trkpt>
      <trkpt lat="31.0372085571289062" lon="-7.1059479713439941">
        <ele>1286.0</ele>
        <time>2018-10-12T07:39:44.000Z</time>
      </trkpt>
      <trkpt lat="31.0371761322021484" lon="-7.1059269905090332">
        <ele>1286.0</ele>
        <time>2018-10-12T07:39:45.000Z</time>
      </trkpt>
      <trkpt lat="31.0371437072753906" lon="-7.1059069633483887">
        <ele>1286.7406005859375</ele>
        <time>2018-10-12T07:39:46.000Z</time>
      </trkpt>
      <trkpt lat="31.0371093750000000" lon="-7.1058869361877441">
        <ele>1287.0</ele>
        <time>2018-10-12T07:39:47.000Z</time>
      </trkpt>
      <trkpt lat="31.0370750427246094" lon="-7.1058669090270996">
        <ele>1287.0</ele>
        <time>2018-10-12T07:39:48.000Z</time>
      </trkpt>
      <trkpt lat="31.0370388031005859" lon="-7.1058449745178223">
        <ele>1287.0</ele>
        <time>2018-10-12T07:39:49.000Z</time>
      </trkpt>
      <trkpt lat="31.0370025634765625" lon="-7.1058239936828613">
        <ele>1287.0</ele>
        <time>2018-10-12T07:39:50.000Z</time>
      </trkpt>
      <trkpt lat="31.0369644165039062" lon="-7.1058020591735840">
        <ele>1287.0</ele>
        <time>2018-10-12T07:39:51.000Z</time>
      </trkpt>
      <trkpt lat="31.0369262695312500" lon="-7.1057791709899902">
        <ele>1287.0</ele>
        <time>2018-10-12T07:39:52.000Z</time>
      </trkpt>
      <trkpt lat="31.0368881225585938" lon="-7.1057558059692383">
        <ele>1287.0</ele>
        <time>2018-10-12T07:39:53.000Z</time>
      </trkpt>
      <trkpt lat="31.0368499755859375" lon="-7.1057329177856445">
        <ele>1287.0</ele>
        <time>2018-10-12T07:39:54.000Z</time>
      </trkpt>
      <trkpt lat="31.0368118286132812" lon="-7.1057100296020508">
        <ele>1287.0</ele>
        <time>2018-10-12T07:39:55.000Z</time>
      </trkpt>
      <trkpt lat="31.0367736816406250" lon="-7.1056880950927734">
        <ele>1286.178955078125</ele>
        <time>2018-10-12T07:39:56.000Z</time>
      </trkpt>
      <trkpt lat="31.0367355346679688" lon="-7.1056690216064453">
        <ele>1286.0</ele>
        <time>2018-10-12T07:39:57.000Z</time>
      </trkpt>
      <trkpt lat="31.0366973876953125" lon="-7.1056489944458008">
        <ele>1286.0</ele>
        <time>2018-10-12T07:39:58.000Z</time>
      </trkpt>
      <trkpt lat="31.0366573333740234" lon="-7.1056299209594727">
        <ele>1286.0</ele>
        <time>2018-10-12T07:39:59.000Z</time>
      </trkpt>
      <trkpt lat="31.0366191864013672" lon="-7.1056118011474609">
        <ele>1286.0</ele>
        <time>2018-10-12T07:40:00.000Z</time>
      </trkpt>
      <trkpt lat="31.0365791320800781" lon="-7.1055941581726074">
        <ele>1286.0</ele>
        <time>2018-10-12T07:40:01.000Z</time>
      </trkpt>
      <trkpt lat="31.0365409851074219" lon="-7.1055769920349121">
        <ele>1286.0</ele>
        <time>2018-10-12T07:40:02.000Z</time>
      </trkpt>
      <trkpt lat="31.0365028381347656" lon="-7.1055579185485840">
        <ele>1286.0</ele>
        <time>2018-10-12T07:40:03.000Z</time>
      </trkpt>
      <trkpt lat="31.0364627838134766" lon="-7.1055397987365723">
        <ele>1286.0</ele>
        <time>2018-10-12T07:40:04.000Z</time>
      </trkpt>
      <trkpt lat="31.0364227294921875" lon="-7.1055240631103516">
        <ele>1286.0</ele>
        <time>2018-10-12T07:40:05.000Z</time>
      </trkpt>
      <trkpt lat="31.0363845825195312" lon="-7.1055068969726562">
        <ele>1286.0</ele>
        <time>2018-10-12T07:40:06.000Z</time>
      </trkpt>
      <trkpt lat="31.0363445281982422" lon="-7.1054911613464355">
        <ele>1286.0</ele>
        <time>2018-10-12T07:40:07.000Z</time>
      </trkpt>
      <trkpt lat="31.0363044738769531" lon="-7.1054739952087402">
        <ele>1286.0</ele>
        <time>2018-10-12T07:40:08.000Z</time>
      </trkpt>
      <trkpt lat="31.0362663269042969" lon="-7.1054568290710449">
        <ele>1286.0</ele>
        <time>2018-10-12T07:40:09.000Z</time>
      </trkpt>
      <trkpt lat="31.0362262725830078" lon="-7.1054410934448242">
        <ele>1286.0</ele>
        <time>2018-10-12T07:40:10.000Z</time>
      </trkpt>
      <trkpt lat="31.0361862182617188" lon="-7.1054248809814453">
        <ele>1286.0</ele>
        <time>2018-10-12T07:40:11.000Z</time>
      </trkpt>
      <trkpt lat="31.0361461639404297" lon="-7.1054091453552246">
        <ele>1286.0</ele>
        <time>2018-10-12T07:40:12.000Z</time>
      </trkpt>
      <trkpt lat="31.0361042022705078" lon="-7.1053948402404785">
        <ele>1286.0</ele>
        <time>2018-10-12T07:40:13.000Z</time>
      </trkpt>
      <trkpt lat="31.0360641479492188" lon="-7.1053800582885742">
        <ele>1286.0</ele>
        <time>2018-10-12T07:40:14.000Z</time>
      </trkpt>
      <trkpt lat="31.0360221862792969" lon="-7.1053671836853027">
        <ele>1286.0</ele>
        <time>2018-10-12T07:40:15.000Z</time>
      </trkpt>
      <trkpt lat="31.0359821319580078" lon="-7.1053528785705566">
        <ele>1286.0</ele>
        <time>2018-10-12T07:40:16.000Z</time>
      </trkpt>
      <trkpt lat="31.0359401702880859" lon="-7.1053400039672852">
        <ele>1286.0</ele>
        <time>2018-10-12T07:40:17.000Z</time>
      </trkpt>
      <trkpt lat="31.0358963012695312" lon="-7.1053290367126465">
        <ele>1286.0</ele>
        <time>2018-10-12T07:40:18.000Z</time>
      </trkpt>
      <trkpt lat="31.0358524322509766" lon="-7.1053171157836914">
        <ele>1286.0</ele>
        <time>2018-10-12T07:40:19.000Z</time>
      </trkpt>
      <trkpt lat="31.0358085632324219" lon="-7.1053051948547363">
        <ele>1286.0</ele>
        <time>2018-10-12T07:40:20.000Z</time>
      </trkpt>
      <trkpt lat="31.0357646942138672" lon="-7.1052918434143066">
        <ele>1286.0</ele>
        <time>2018-10-12T07:40:21.000Z</time>
      </trkpt>
      <trkpt lat="31.0357246398925781" lon="-7.1052770614624023">
        <ele>1286.0</ele>
        <time>2018-10-12T07:40:22.000Z</time>
      </trkpt>
      <trkpt lat="31.0356845855712891" lon="-7.1052618026733398">
        <ele>1286.0</ele>
        <time>2018-10-12T07:40:23.000Z</time>
      </trkpt>
      <trkpt lat="31.0356445312500000" lon="-7.1052479743957520">
        <ele>1286.0</ele>
        <time>2018-10-12T07:40:24.000Z</time>
      </trkpt>
      <trkpt lat="31.0356044769287109" lon="-7.1052350997924805">
        <ele>1286.0</ele>
        <time>2018-10-12T07:40:25.000Z</time>
      </trkpt>
      <trkpt lat="31.0355663299560547" lon="-7.1052207946777344">
        <ele>1286.0</ele>
        <time>2018-10-12T07:40:26.000Z</time>
      </trkpt>
      <trkpt lat="31.0355262756347656" lon="-7.1052069664001465">
        <ele>1285.178955078125</ele>
        <time>2018-10-12T07:40:27.000Z</time>
      </trkpt>
      <trkpt lat="31.0354843139648438" lon="-7.1051940917968750">
        <ele>1285.0</ele>
        <time>2018-10-12T07:40:28.000Z</time>
      </trkpt>
      <trkpt lat="31.0354404449462891" lon="-7.1051812171936035">
        <ele>1285.0</ele>
        <time>2018-10-12T07:40:29.000Z</time>
      </trkpt>
      <trkpt lat="31.0353965759277344" lon="-7.1051678657531738">
        <ele>1285.0</ele>
        <time>2018-10-12T07:40:30.000Z</time>
      </trkpt>
      <trkpt lat="31.0353507995605469" lon="-7.1051530838012695">
        <ele>1285.0</ele>
        <time>2018-10-12T07:40:31.000Z</time>
      </trkpt>
      <trkpt lat="31.0353050231933594" lon="-7.1051378250122070">
        <ele>1285.0</ele>
        <time>2018-10-12T07:40:32.000Z</time>
      </trkpt>
      <trkpt lat="31.0352592468261719" lon="-7.1051220893859863">
        <ele>1285.0</ele>
        <time>2018-10-12T07:40:33.000Z</time>
      </trkpt>
      <trkpt lat="31.0352134704589844" lon="-7.1051058769226074">
        <ele>1285.0</ele>
        <time>2018-10-12T07:40:34.000Z</time>
      </trkpt>
      <trkpt lat="31.0351657867431641" lon="-7.1050920486450195">
        <ele>1285.0</ele>
        <time>2018-10-12T07:40:35.000Z</time>
      </trkpt>
      <trkpt lat="31.0351181030273438" lon="-7.1050791740417480">
        <ele>1285.0</ele>
        <time>2018-10-12T07:40:36.000Z</time>
      </trkpt>
      <trkpt lat="31.0350704193115234" lon="-7.1050658226013184">
        <ele>1285.0</ele>
        <time>2018-10-12T07:40:37.000Z</time>
      </trkpt>
      <trkpt lat="31.0350246429443359" lon="-7.1050510406494141">
        <ele>1285.0</ele>
        <time>2018-10-12T07:40:38.000Z</time>
      </trkpt>
      <trkpt lat="31.0349788665771484" lon="-7.1050348281860352">
        <ele>1285.0</ele>
        <time>2018-10-12T07:40:39.000Z</time>
      </trkpt>
      <trkpt lat="31.0349330902099609" lon="-7.1050181388854980">
        <ele>1285.0</ele>
        <time>2018-10-12T07:40:40.000Z</time>
      </trkpt>
      <trkpt lat="31.0348892211914062" lon="-7.1050000190734863">
        <ele>1285.0</ele>
        <time>2018-10-12T07:40:41.000Z</time>
      </trkpt>
      <trkpt lat="31.0348453521728516" lon="-7.1049852371215820">
        <ele>1285.0</ele>
        <time>2018-10-12T07:40:42.000Z</time>
      </trkpt>
      <trkpt lat="31.0348014831542969" lon="-7.1049690246582031">
        <ele>1285.0</ele>
        <time>2018-10-12T07:40:43.000Z</time>
      </trkpt>
      <trkpt lat="31.0347576141357422" lon="-7.1049499511718750">
        <ele>1285.0</ele>
        <time>2018-10-12T07:40:44.000Z</time>
      </trkpt>
      <trkpt lat="31.0347137451171875" lon="-7.1049308776855469">
        <ele>1285.0</ele>
        <time>2018-10-12T07:40:45.000Z</time>
      </trkpt>
      <trkpt lat="31.0346698760986328" lon="-7.1049118041992188">
        <ele>1285.0</ele>
        <time>2018-10-12T07:40:46.000Z</time>
      </trkpt>
      <trkpt lat="31.0346279144287109" lon="-7.1048917770385742">
        <ele>1285.0</ele>
        <time>2018-10-12T07:40:47.000Z</time>
      </trkpt>
      <trkpt lat="31.0345859527587891" lon="-7.1048731803894043">
        <ele>1285.0</ele>
        <time>2018-10-12T07:40:48.000Z</time>
      </trkpt>
      <trkpt lat="31.0345420837402344" lon="-7.1048560142517090">
        <ele>1285.0</ele>
        <time>2018-10-12T07:40:49.000Z</time>
      </trkpt>
      <trkpt lat="31.0345001220703125" lon="-7.1048421859741211">
        <ele>1285.0</ele>
        <time>2018-10-12T07:40:50.000Z</time>
      </trkpt>
      <trkpt lat="31.0344562530517578" lon="-7.1048321723937988">
        <ele>1285.0</ele>
        <time>2018-10-12T07:40:51.000Z</time>
      </trkpt>
      <trkpt lat="31.0344123840332031" lon="-7.1048259735107422">
        <ele>1285.0</ele>
        <time>2018-10-12T07:40:52.000Z</time>
      </trkpt>
      <trkpt lat="31.0343685150146484" lon="-7.1048240661621094">
        <ele>1285.0</ele>
        <time>2018-10-12T07:40:53.000Z</time>
      </trkpt>
      <trkpt lat="31.0343303680419922" lon="-7.1048240661621094">
        <ele>1285.0</ele>
        <time>2018-10-12T07:40:54.000Z</time>
      </trkpt>
      <trkpt lat="31.0342922210693359" lon="-7.1048259735107422">
        <ele>1285.0</ele>
        <time>2018-10-12T07:40:55.000Z</time>
      </trkpt>
      <trkpt lat="31.0342597961425781" lon="-7.1048297882080078">
        <ele>1285.0</ele>
        <time>2018-10-12T07:40:56.000Z</time>
      </trkpt>
      <trkpt lat="31.0342254638671875" lon="-7.1048388481140137">
        <ele>1285.0</ele>
        <time>2018-10-12T07:40:57.000Z</time>
      </trkpt>
      <trkpt lat="31.0341968536376953" lon="-7.1048521995544434">
        <ele>1285.0</ele>
        <time>2018-10-12T07:40:58.000Z</time>
      </trkpt>
      <trkpt lat="31.0341663360595703" lon="-7.1048631668090820">
        <ele>1285.0</ele>
        <time>2018-10-12T07:40:59.000Z</time>
      </trkpt>
      <trkpt lat="31.0341396331787109" lon="-7.1048707962036133">
        <ele>1285.0</ele>
        <time>2018-10-12T07:41:00.000Z</time>
      </trkpt>
      <trkpt lat="31.0341148376464844" lon="-7.1048769950866699">
        <ele>1285.0</ele>
        <time>2018-10-12T07:41:01.000Z</time>
      </trkpt>
      <trkpt lat="31.0340900421142578" lon="-7.1048817634582520">
        <ele>1285.0</ele>
        <time>2018-10-12T07:41:02.000Z</time>
      </trkpt>
      <trkpt lat="31.0340709686279297" lon="-7.1048851013183594">
        <ele>1285.0</ele>
        <time>2018-10-12T07:41:03.000Z</time>
      </trkpt>
      <trkpt lat="31.0340347290039062" lon="-7.1048841476440430">
        <ele>1284.0</ele>
        <time>2018-10-12T07:41:05.000Z</time>
      </trkpt>
      <trkpt lat="31.0340137481689453" lon="-7.1048789024353027">
        <ele>1284.0</ele>
        <time>2018-10-12T07:41:06.000Z</time>
      </trkpt>
      <trkpt lat="31.0339927673339844" lon="-7.1048722267150879">
        <ele>1284.0</ele>
        <time>2018-10-12T07:41:07.000Z</time>
      </trkpt>
      <trkpt lat="31.0339736938476562" lon="-7.1048650741577148">
        <ele>1284.0</ele>
        <time>2018-10-12T07:41:08.000Z</time>
      </trkpt>
      <trkpt lat="31.0339546203613281" lon="-7.1048579216003418">
        <ele>1284.0</ele>
        <time>2018-10-12T07:41:09.000Z</time>
      </trkpt>
      <trkpt lat="31.0339355468750000" lon="-7.1048498153686523">
        <ele>1284.0</ele>
        <time>2018-10-12T07:41:10.000Z</time>
      </trkpt>
      <trkpt lat="31.0339164733886719" lon="-7.1048378944396973">
        <ele>1284.0</ele>
        <time>2018-10-12T07:41:11.000Z</time>
      </trkpt>
      <trkpt lat="31.0338973999023438" lon="-7.1048212051391602">
        <ele>1284.0</ele>
        <time>2018-10-12T07:41:12.000Z</time>
      </trkpt>
      <trkpt lat="31.0338745117187500" lon="-7.1047978401184082">
        <ele>1284.0</ele>
        <time>2018-10-12T07:41:13.000Z</time>
      </trkpt>
      <trkpt lat="31.0338497161865234" lon="-7.1047677993774414">
        <ele>1284.0</ele>
        <time>2018-10-12T07:41:14.000Z</time>
      </trkpt>
      <trkpt lat="31.0338172912597656" lon="-7.1047310829162598">
        <ele>1283.3826904296875</ele>
        <time>2018-10-12T07:41:15.000Z</time>
      </trkpt>
      <trkpt lat="31.0337791442871094" lon="-7.1046857833862305">
        <ele>1282.2672119140625</ele>
        <time>2018-10-12T07:41:16.000Z</time>
      </trkpt>
      <trkpt lat="31.0337333679199219" lon="-7.1046347618103027">
        <ele>1282.0</ele>
        <time>2018-10-12T07:41:17.000Z</time>
      </trkpt>
      <trkpt lat="31.0336818695068359" lon="-7.1045799255371094">
        <ele>1282.0</ele>
        <time>2018-10-12T07:41:18.000Z</time>
      </trkpt>
      <trkpt lat="31.0336284637451172" lon="-7.1045198440551758">
        <ele>1282.0</ele>
        <time>2018-10-12T07:41:19.000Z</time>
      </trkpt>
      <trkpt lat="31.0335769653320312" lon="-7.1044530868530273">
        <ele>1282.0</ele>
        <time>2018-10-12T07:41:20.000Z</time>
      </trkpt>
      <trkpt lat="31.0335273742675781" lon="-7.1043801307678223">
        <ele>1281.2593994140625</ele>
        <time>2018-10-12T07:41:21.000Z</time>
      </trkpt>
      <trkpt lat="31.0334815979003906" lon="-7.1043038368225098">
        <ele>1281.0</ele>
        <time>2018-10-12T07:41:22.000Z</time>
      </trkpt>
      <trkpt lat="31.0334320068359375" lon="-7.1042289733886719">
        <ele>1280.2672119140625</ele>
        <time>2018-10-12T07:41:23.000Z</time>
      </trkpt>
      <trkpt lat="31.0333805084228516" lon="-7.1041550636291504">
        <ele>1280.0</ele>
        <time>2018-10-12T07:41:24.000Z</time>
      </trkpt>
      <trkpt lat="31.0333271026611328" lon="-7.1040821075439453">
        <ele>1279.178955078125</ele>
        <time>2018-10-12T07:41:25.000Z</time>
      </trkpt>
      <trkpt lat="31.0332736968994141" lon="-7.1040058135986328">
        <ele>1278.178955078125</ele>
        <time>2018-10-12T07:41:26.000Z</time>
      </trkpt>
      <trkpt lat="31.0332221984863281" lon="-7.1039299964904785">
        <ele>1278.0</ele>
        <time>2018-10-12T07:41:27.000Z</time>
      </trkpt>
      <trkpt lat="31.0331726074218750" lon="-7.1038532257080078">
        <ele>1278.0</ele>
        <time>2018-10-12T07:41:28.000Z</time>
      </trkpt>
      <trkpt lat="31.0331249237060547" lon="-7.1037759780883789">
        <ele>1278.0</ele>
        <time>2018-10-12T07:41:29.000Z</time>
      </trkpt>
      <trkpt lat="31.0330791473388672" lon="-7.1036977767944336">
        <ele>1278.0</ele>
        <time>2018-10-12T07:41:30.000Z</time>
      </trkpt>
      <trkpt lat="31.0330371856689453" lon="-7.1036200523376465">
        <ele>1277.178955078125</ele>
        <time>2018-10-12T07:41:31.000Z</time>
      </trkpt>
      <trkpt lat="31.0330009460449219" lon="-7.1035418510437012">
        <ele>1277.0</ele>
        <time>2018-10-12T07:41:32.000Z</time>
      </trkpt>
      <trkpt lat="31.0329685211181641" lon="-7.1034631729125977">
        <ele>1277.0</ele>
        <time>2018-10-12T07:41:33.000Z</time>
      </trkpt>
      <trkpt lat="31.0329380035400391" lon="-7.1033859252929688">
        <ele>1277.0</ele>
        <time>2018-10-12T07:41:34.000Z</time>
      </trkpt>
      <trkpt lat="31.0329074859619141" lon="-7.1033110618591309">
        <ele>1277.0</ele>
        <time>2018-10-12T07:41:35.000Z</time>
      </trkpt>
      <trkpt lat="31.0328750610351562" lon="-7.1032390594482422">
        <ele>1277.0</ele>
        <time>2018-10-12T07:41:36.000Z</time>
      </trkpt>
      <trkpt lat="31.0328445434570312" lon="-7.1031689643859863">
        <ele>1277.0</ele>
        <time>2018-10-12T07:41:37.000Z</time>
      </trkpt>
      <trkpt lat="31.0328121185302734" lon="-7.1031007766723633">
        <ele>1277.0</ele>
        <time>2018-10-12T07:41:38.000Z</time>
      </trkpt>
      <trkpt lat="31.0327777862548828" lon="-7.1030359268188477">
        <ele>1276.3760986328125</ele>
        <time>2018-10-12T07:41:39.000Z</time>
      </trkpt>
      <trkpt lat="31.0327434539794922" lon="-7.1029729843139648">
        <ele>1276.0</ele>
        <time>2018-10-12T07:41:40.000Z</time>
      </trkpt>
      <trkpt lat="31.0327110290527344" lon="-7.1029109954833984">
        <ele>1276.0</ele>
        <time>2018-10-12T07:41:41.000Z</time>
      </trkpt>
      <trkpt lat="31.0326805114746094" lon="-7.1028480529785156">
        <ele>1276.0</ele>
        <time>2018-10-12T07:41:42.000Z</time>
      </trkpt>
      <trkpt lat="31.0326557159423828" lon="-7.1027841567993164">
        <ele>1275.2672119140625</ele>
        <time>2018-10-12T07:41:43.000Z</time>
      </trkpt>
      <trkpt lat="31.0326328277587891" lon="-7.1027178764343262">
        <ele>1275.0</ele>
        <time>2018-10-12T07:41:44.000Z</time>
      </trkpt>
      <trkpt lat="31.0326099395751953" lon="-7.1026539802551270">
        <ele>1275.0</ele>
        <time>2018-10-12T07:41:45.000Z</time>
      </trkpt>
      <trkpt lat="31.0325851440429688" lon="-7.1025919914245605">
        <ele>1275.0</ele>
        <time>2018-10-12T07:41:46.000Z</time>
      </trkpt>
      <trkpt lat="31.0325603485107422" lon="-7.1025309562683105">
        <ele>1275.0</ele>
        <time>2018-10-12T07:41:47.000Z</time>
      </trkpt>
      <trkpt lat="31.0325355529785156" lon="-7.1024708747863770">
        <ele>1275.0</ele>
        <time>2018-10-12T07:41:48.000Z</time>
      </trkpt>
      <trkpt lat="31.0325107574462891" lon="-7.1024107933044434">
        <ele>1275.0</ele>
        <time>2018-10-12T07:41:49.000Z</time>
      </trkpt>
      <trkpt lat="31.0324897766113281" lon="-7.1023488044738770">
        <ele>1275.0</ele>
        <time>2018-10-12T07:41:50.000Z</time>
      </trkpt>
      <trkpt lat="31.0324687957763672" lon="-7.1022868156433105">
        <ele>1275.0</ele>
        <time>2018-10-12T07:41:51.000Z</time>
      </trkpt>
      <trkpt lat="31.0324478149414062" lon="-7.1022248268127441">
        <ele>1275.0</ele>
        <time>2018-10-12T07:41:52.000Z</time>
      </trkpt>
      <trkpt lat="31.0324306488037109" lon="-7.1021609306335449">
        <ele>1275.0</ele>
        <time>2018-10-12T07:41:53.000Z</time>
      </trkpt>
      <trkpt lat="31.0324153900146484" lon="-7.1020979881286621">
        <ele>1275.0</ele>
        <time>2018-10-12T07:41:54.000Z</time>
      </trkpt>
      <trkpt lat="31.0324001312255859" lon="-7.1020359992980957">
        <ele>1275.0</ele>
        <time>2018-10-12T07:41:55.000Z</time>
      </trkpt>
      <trkpt lat="31.0323886871337891" lon="-7.1019749641418457">
        <ele>1275.0</ele>
        <time>2018-10-12T07:41:56.000Z</time>
      </trkpt>
      <trkpt lat="31.0323791503906250" lon="-7.1019129753112793">
        <ele>1275.0</ele>
        <time>2018-10-12T07:41:57.000Z</time>
      </trkpt>
      <trkpt lat="31.0323715209960938" lon="-7.1018490791320801">
        <ele>1275.0</ele>
        <time>2018-10-12T07:41:58.000Z</time>
      </trkpt>
      <trkpt lat="31.0323619842529297" lon="-7.1017851829528809">
        <ele>1274.2557373046875</ele>
        <time>2018-10-12T07:41:59.000Z</time>
      </trkpt>
      <trkpt lat="31.0323543548583984" lon="-7.1017198562622070">
        <ele>1274.0</ele>
        <time>2018-10-12T07:42:00.000Z</time>
      </trkpt>
      <trkpt lat="31.0323467254638672" lon="-7.1016530990600586">
        <ele>1274.0</ele>
        <time>2018-10-12T07:42:01.000Z</time>
      </trkpt>
      <trkpt lat="31.0323371887207031" lon="-7.1015849113464355">
        <ele>1274.0</ele>
        <time>2018-10-12T07:42:02.000Z</time>
      </trkpt>
      <trkpt lat="31.0323276519775391" lon="-7.1015157699584961">
        <ele>1274.0</ele>
        <time>2018-10-12T07:42:03.000Z</time>
      </trkpt>
      <trkpt lat="31.0323143005371094" lon="-7.1014451980590820">
        <ele>1273.178955078125</ele>
        <time>2018-10-12T07:42:04.000Z</time>
      </trkpt>
      <trkpt lat="31.0322990417480469" lon="-7.1013741493225098">
        <ele>1272.178955078125</ele>
        <time>2018-10-12T07:42:05.000Z</time>
      </trkpt>
      <trkpt lat="31.0322818756103516" lon="-7.1013040542602539">
        <ele>1272.0</ele>
        <time>2018-10-12T07:42:06.000Z</time>
      </trkpt>
      <trkpt lat="31.0322628021240234" lon="-7.1012330055236816">
        <ele>1272.0</ele>
        <time>2018-10-12T07:42:07.000Z</time>
      </trkpt>
      <trkpt lat="31.0322437286376953" lon="-7.1011629104614258">
        <ele>1272.0</ele>
        <time>2018-10-12T07:42:08.000Z</time>
      </trkpt>
      <trkpt lat="31.0322265625000000" lon="-7.1010951995849609">
        <ele>1272.0</ele>
        <time>2018-10-12T07:42:09.000Z</time>
      </trkpt>
      <trkpt lat="31.0322093963623047" lon="-7.1010279655456543">
        <ele>1272.0</ele>
        <time>2018-10-12T07:42:10.000Z</time>
      </trkpt>
      <trkpt lat="31.0321922302246094" lon="-7.1009621620178223">
        <ele>1272.0</ele>
        <time>2018-10-12T07:42:11.000Z</time>
      </trkpt>
      <trkpt lat="31.0321750640869141" lon="-7.1008968353271484">
        <ele>1272.0</ele>
        <time>2018-10-12T07:42:12.000Z</time>
      </trkpt>
      <trkpt lat="31.0321559906005859" lon="-7.1008348464965820">
        <ele>1272.0</ele>
        <time>2018-10-12T07:42:13.000Z</time>
      </trkpt>
      <trkpt lat="31.0321369171142578" lon="-7.1007761955261230">
        <ele>1272.0</ele>
        <time>2018-10-12T07:42:14.000Z</time>
      </trkpt>
      <trkpt lat="31.0321178436279297" lon="-7.1007208824157715">
        <ele>1272.0</ele>
        <time>2018-10-12T07:42:15.000Z</time>
      </trkpt>
      <trkpt lat="31.0320987701416016" lon="-7.1006689071655273">
        <ele>1272.0</ele>
        <time>2018-10-12T07:42:16.000Z</time>
      </trkpt>
      <trkpt lat="31.0320796966552734" lon="-7.1006197929382324">
        <ele>1272.0</ele>
        <time>2018-10-12T07:42:17.000Z</time>
      </trkpt>
      <trkpt lat="31.0320606231689453" lon="-7.1005730628967285">
        <ele>1272.0</ele>
        <time>2018-10-12T07:42:18.000Z</time>
      </trkpt>
      <trkpt lat="31.0320396423339844" lon="-7.1005268096923828">
        <ele>1272.0</ele>
        <time>2018-10-12T07:42:19.000Z</time>
      </trkpt>
      <trkpt lat="31.0320186614990234" lon="-7.1004819869995117">
        <ele>1272.0</ele>
        <time>2018-10-12T07:42:20.000Z</time>
      </trkpt>
      <trkpt lat="31.0319957733154297" lon="-7.1004371643066406">
        <ele>1271.178955078125</ele>
        <time>2018-10-12T07:42:21.000Z</time>
      </trkpt>
      <trkpt lat="31.0319766998291016" lon="-7.1003899574279785">
        <ele>1271.0</ele>
        <time>2018-10-12T07:42:22.000Z</time>
      </trkpt>
      <trkpt lat="31.0319595336914062" lon="-7.1003417968750000">
        <ele>1271.0</ele>
        <time>2018-10-12T07:42:23.000Z</time>
      </trkpt>
      <trkpt lat="31.0319442749023438" lon="-7.1002950668334961">
        <ele>1271.0</ele>
        <time>2018-10-12T07:42:24.000Z</time>
      </trkpt>
      <trkpt lat="31.0319271087646484" lon="-7.1002511978149414">
        <ele>1270.178955078125</ele>
        <time>2018-10-12T07:42:25.000Z</time>
      </trkpt>
      <trkpt lat="31.0319118499755859" lon="-7.1002078056335449">
        <ele>1270.0</ele>
        <time>2018-10-12T07:42:26.000Z</time>
      </trkpt>
      <trkpt lat="31.0318984985351562" lon="-7.1001658439636230">
        <ele>1270.0</ele>
        <time>2018-10-12T07:42:27.000Z</time>
      </trkpt>
      <trkpt lat="31.0318889617919922" lon="-7.1001348495483398">
        <ele>1269.178955078125</ele>
        <time>2018-10-12T07:42:28.000Z</time>
      </trkpt>
      <trkpt lat="31.0318775177001953" lon="-7.1001019477844238">
        <ele>1269.0</ele>
        <time>2018-10-12T07:42:30.000Z</time>
      </trkpt>
      <trkpt lat="31.0318489074707031" lon="-7.1000919342041016">
        <ele>1269.821044921875</ele>
        <time>2018-10-12T07:42:32.000Z</time>
      </trkpt>
      <trkpt lat="31.0318298339843750" lon="-7.1000890731811523">
        <ele>1270.0</ele>
        <time>2018-10-12T07:42:33.000Z</time>
      </trkpt>
      <trkpt lat="31.0318012237548828" lon="-7.1000771522521973">
        <ele>1270.0</ele>
        <time>2018-10-12T07:42:35.000Z</time>
      </trkpt>
      <trkpt lat="31.0317935943603516" lon="-7.1000571250915527">
        <ele>1270.0</ele>
        <time>2018-10-12T07:42:36.000Z</time>
      </trkpt>
      <trkpt lat="31.0317840576171875" lon="-7.1000270843505859">
        <ele>1269.2593994140625</ele>
        <time>2018-10-12T07:42:37.000Z</time>
      </trkpt>
      <trkpt lat="31.0317745208740234" lon="-7.0999898910522461">
        <ele>1269.0</ele>
        <time>2018-10-12T07:42:38.000Z</time>
      </trkpt>
      <trkpt lat="31.0317592620849609" lon="-7.0999441146850586">
        <ele>1269.0</ele>
        <time>2018-10-12T07:42:39.000Z</time>
      </trkpt>
      <trkpt lat="31.0317420959472656" lon="-7.0998911857604980">
        <ele>1268.202880859375</ele>
        <time>2018-10-12T07:42:40.000Z</time>
      </trkpt>
      <trkpt lat="31.0317249298095703" lon="-7.0998339653015137">
        <ele>1267.1845703125</ele>
        <time>2018-10-12T07:42:41.000Z</time>
      </trkpt>
      <trkpt lat="31.0317039489746094" lon="-7.0997748374938965">
        <ele>1267.0</ele>
        <time>2018-10-12T07:42:42.000Z</time>
      </trkpt>
      <trkpt lat="31.0316810607910156" lon="-7.0997171401977539">
        <ele>1266.178955078125</ele>
        <time>2018-10-12T07:42:43.000Z</time>
      </trkpt>
      <trkpt lat="31.0316562652587891" lon="-7.0996589660644531">
        <ele>1265.178955078125</ele>
        <time>2018-10-12T07:42:44.000Z</time>
      </trkpt>
      <trkpt lat="31.0316352844238281" lon="-7.0996022224426270">
        <ele>1264.3826904296875</ele>
        <time>2018-10-12T07:42:45.000Z</time>
      </trkpt>
      <trkpt lat="31.0316162109375000" lon="-7.0995459556579590">
        <ele>1264.0</ele>
        <time>2018-10-12T07:42:46.000Z</time>
      </trkpt>
      <trkpt lat="31.0315971374511719" lon="-7.0994911193847656">
        <ele>1264.0</ele>
        <time>2018-10-12T07:42:47.000Z</time>
      </trkpt>
      <trkpt lat="31.0315856933593750" lon="-7.0994319915771484">
        <ele>1264.0</ele>
        <time>2018-10-12T07:42:48.000Z</time>
      </trkpt>
      <trkpt lat="31.0315818786621094" lon="-7.0993690490722656">
        <ele>1264.0</ele>
        <time>2018-10-12T07:42:49.000Z</time>
      </trkpt>
      <trkpt lat="31.0315818786621094" lon="-7.0993061065673828">
        <ele>1264.0</ele>
        <time>2018-10-12T07:42:50.000Z</time>
      </trkpt>
      <trkpt lat="31.0315837860107422" lon="-7.0992441177368164">
        <ele>1264.0</ele>
        <time>2018-10-12T07:42:51.000Z</time>
      </trkpt>
      <trkpt lat="31.0315856933593750" lon="-7.0991821289062500">
        <ele>1263.178955078125</ele>
        <time>2018-10-12T07:42:52.000Z</time>
      </trkpt>
      <trkpt lat="31.0315780639648438" lon="-7.0991210937500000">
        <ele>1263.0</ele>
        <time>2018-10-12T07:42:53.000Z</time>
      </trkpt>
      <trkpt lat="31.0315647125244141" lon="-7.0990629196166992">
        <ele>1263.0</ele>
        <time>2018-10-12T07:42:54.000Z</time>
      </trkpt>
      <trkpt lat="31.0315437316894531" lon="-7.0990099906921387">
        <ele>1263.0</ele>
        <time>2018-10-12T07:42:55.000Z</time>
      </trkpt>
      <trkpt lat="31.0315189361572266" lon="-7.0989589691162109">
        <ele>1263.0</ele>
        <time>2018-10-12T07:42:56.000Z</time>
      </trkpt>
      <trkpt lat="31.0314903259277344" lon="-7.0989060401916504">
        <ele>1263.0</ele>
        <time>2018-10-12T07:42:57.000Z</time>
      </trkpt>
      <trkpt lat="31.0314655303955078" lon="-7.0988488197326660">
        <ele>1263.0</ele>
        <time>2018-10-12T07:42:58.000Z</time>
      </trkpt>
      <trkpt lat="31.0314426422119141" lon="-7.0987911224365234">
        <ele>1262.178955078125</ele>
        <time>2018-10-12T07:42:59.000Z</time>
      </trkpt>
      <trkpt lat="31.0314254760742188" lon="-7.0987291336059570">
        <ele>1262.0</ele>
        <time>2018-10-12T07:43:00.000Z</time>
      </trkpt>
      <trkpt lat="31.0314064025878906" lon="-7.0986638069152832">
        <ele>1262.0</ele>
        <time>2018-10-12T07:43:01.000Z</time>
      </trkpt>
      <trkpt lat="31.0313873291015625" lon="-7.0985980033874512">
        <ele>1262.0</ele>
        <time>2018-10-12T07:43:02.000Z</time>
      </trkpt>
      <trkpt lat="31.0313644409179688" lon="-7.0985307693481445">
        <ele>1262.0</ele>
        <time>2018-10-12T07:43:03.000Z</time>
      </trkpt>
      <trkpt lat="31.0313377380371094" lon="-7.0984649658203125">
        <ele>1262.0</ele>
        <time>2018-10-12T07:43:04.000Z</time>
      </trkpt>
      <trkpt lat="31.0313091278076172" lon="-7.0984010696411133">
        <ele>1262.0</ele>
        <time>2018-10-12T07:43:05.000Z</time>
      </trkpt>
      <trkpt lat="31.0312805175781250" lon="-7.0983371734619141">
        <ele>1262.0</ele>
        <time>2018-10-12T07:43:06.000Z</time>
      </trkpt>
      <trkpt lat="31.0312519073486328" lon="-7.0982761383056641">
        <ele>1262.0</ele>
        <time>2018-10-12T07:43:07.000Z</time>
      </trkpt>
      <trkpt lat="31.0312213897705078" lon="-7.0982179641723633">
        <ele>1262.0</ele>
        <time>2018-10-12T07:43:08.000Z</time>
      </trkpt>
      <trkpt lat="31.0311946868896484" lon="-7.0981640815734863">
        <ele>1262.0</ele>
        <time>2018-10-12T07:43:09.000Z</time>
      </trkpt>
      <trkpt lat="31.0311679840087891" lon="-7.0981140136718750">
        <ele>1262.0</ele>
        <time>2018-10-12T07:43:10.000Z</time>
      </trkpt>
      <trkpt lat="31.0311393737792969" lon="-7.0980658531188965">
        <ele>1262.0</ele>
        <time>2018-10-12T07:43:11.000Z</time>
      </trkpt>
      <trkpt lat="31.0311126708984375" lon="-7.0980191230773926">
        <ele>1262.0</ele>
        <time>2018-10-12T07:43:12.000Z</time>
      </trkpt>
      <trkpt lat="31.0310897827148438" lon="-7.0979719161987305">
        <ele>1262.0</ele>
        <time>2018-10-12T07:43:13.000Z</time>
      </trkpt>
      <trkpt lat="31.0310649871826172" lon="-7.0979251861572266">
        <ele>1262.0</ele>
        <time>2018-10-12T07:43:14.000Z</time>
      </trkpt>
      <trkpt lat="31.0310363769531250" lon="-7.0978817939758301">
        <ele>1262.0</ele>
        <time>2018-10-12T07:43:15.000Z</time>
      </trkpt>
      <trkpt lat="31.0310039520263672" lon="-7.0978422164916992">
        <ele>1262.0</ele>
        <time>2018-10-12T07:43:16.000Z</time>
      </trkpt>
      <trkpt lat="31.0309677124023438" lon="-7.0978069305419922">
        <ele>1262.0</ele>
        <time>2018-10-12T07:43:17.000Z</time>
      </trkpt>
      <trkpt lat="31.0309295654296875" lon="-7.0977759361267090">
        <ele>1262.0</ele>
        <time>2018-10-12T07:43:18.000Z</time>
      </trkpt>
      <trkpt lat="31.0308933258056641" lon="-7.0977449417114258">
        <ele>1262.0</ele>
        <time>2018-10-12T07:43:19.000Z</time>
      </trkpt>
      <trkpt lat="31.0308570861816406" lon="-7.0977149009704590">
        <ele>1262.0</ele>
        <time>2018-10-12T07:43:20.000Z</time>
      </trkpt>
      <trkpt lat="31.0308227539062500" lon="-7.0976819992065430">
        <ele>1262.0</ele>
        <time>2018-10-12T07:43:21.000Z</time>
      </trkpt>
      <trkpt lat="31.0307903289794922" lon="-7.0976481437683105">
        <ele>1261.178955078125</ele>
        <time>2018-10-12T07:43:22.000Z</time>
      </trkpt>
      <trkpt lat="31.0307598114013672" lon="-7.0976109504699707">
        <ele>1261.0</ele>
        <time>2018-10-12T07:43:23.000Z</time>
      </trkpt>
      <trkpt lat="31.0307292938232422" lon="-7.0975761413574219">
        <ele>1261.0</ele>
        <time>2018-10-12T07:43:24.000Z</time>
      </trkpt>
      <trkpt lat="31.0307006835937500" lon="-7.0975427627563477">
        <ele>1261.0</ele>
        <time>2018-10-12T07:43:25.000Z</time>
      </trkpt>
      <trkpt lat="31.0306720733642578" lon="-7.0975151062011719">
        <ele>1261.0</ele>
        <time>2018-10-12T07:43:26.000Z</time>
      </trkpt>
      <trkpt lat="31.0306453704833984" lon="-7.0974888801574707">
        <ele>1261.0</ele>
        <time>2018-10-12T07:43:27.000Z</time>
      </trkpt>
      <trkpt lat="31.0306148529052734" lon="-7.0974621772766113">
        <ele>1261.0</ele>
        <time>2018-10-12T07:43:28.000Z</time>
      </trkpt>
      <trkpt lat="31.0305862426757812" lon="-7.0974321365356445">
        <ele>1261.0</ele>
        <time>2018-10-12T07:43:29.000Z</time>
      </trkpt>
      <trkpt lat="31.0305557250976562" lon="-7.0973992347717285">
        <ele>1261.0</ele>
        <time>2018-10-12T07:43:30.000Z</time>
      </trkpt>
      <trkpt lat="31.0305233001708984" lon="-7.0973677635192871">
        <ele>1261.0</ele>
        <time>2018-10-12T07:43:31.000Z</time>
      </trkpt>
      <trkpt lat="31.0304889678955078" lon="-7.0973381996154785">
        <ele>1261.0</ele>
        <time>2018-10-12T07:43:32.000Z</time>
      </trkpt>
      <trkpt lat="31.0304527282714844" lon="-7.0973091125488281">
        <ele>1261.626953125</ele>
        <time>2018-10-12T07:43:33.000Z</time>
      </trkpt>
      <trkpt lat="31.0304183959960938" lon="-7.0972781181335449">
        <ele>1262.0</ele>
        <time>2018-10-12T07:43:34.000Z</time>
      </trkpt>
      <trkpt lat="31.0303821563720703" lon="-7.0972480773925781">
        <ele>1262.0</ele>
        <time>2018-10-12T07:43:35.000Z</time>
      </trkpt>
      <trkpt lat="31.0303440093994141" lon="-7.0972199440002441">
        <ele>1262.0</ele>
        <time>2018-10-12T07:43:36.000Z</time>
      </trkpt>
      <trkpt lat="31.0303058624267578" lon="-7.0971927642822266">
        <ele>1262.0</ele>
        <time>2018-10-12T07:43:37.000Z</time>
      </trkpt>
      <trkpt lat="31.0302658081054688" lon="-7.0971679687500000">
        <ele>1262.0</ele>
        <time>2018-10-12T07:43:38.000Z</time>
      </trkpt>
      <trkpt lat="31.0302276611328125" lon="-7.0971422195434570">
        <ele>1262.0</ele>
        <time>2018-10-12T07:43:39.000Z</time>
      </trkpt>
      <trkpt lat="31.0301914215087891" lon="-7.0971121788024902">
        <ele>1262.0</ele>
        <time>2018-10-12T07:43:40.000Z</time>
      </trkpt>
      <trkpt lat="31.0301570892333984" lon="-7.0970768928527832">
        <ele>1262.0</ele>
        <time>2018-10-12T07:43:41.000Z</time>
      </trkpt>
      <trkpt lat="31.0301246643066406" lon="-7.0970392227172852">
        <ele>1262.0</ele>
        <time>2018-10-12T07:43:42.000Z</time>
      </trkpt>
      <trkpt lat="31.0300922393798828" lon="-7.0969982147216797">
        <ele>1262.0</ele>
        <time>2018-10-12T07:43:43.000Z</time>
      </trkpt>
      <trkpt lat="31.0300617218017578" lon="-7.0969538688659668">
        <ele>1262.0</ele>
        <time>2018-10-12T07:43:44.000Z</time>
      </trkpt>
      <trkpt lat="31.0300312042236328" lon="-7.0969061851501465">
        <ele>1262.0</ele>
        <time>2018-10-12T07:43:45.000Z</time>
      </trkpt>
      <trkpt lat="31.0300064086914062" lon="-7.0968542098999023">
        <ele>1262.0</ele>
        <time>2018-10-12T07:43:46.000Z</time>
      </trkpt>
      <trkpt lat="31.0299797058105469" lon="-7.0967988967895508">
        <ele>1262.0</ele>
        <time>2018-10-12T07:43:47.000Z</time>
      </trkpt>
      <trkpt lat="31.0299549102783203" lon="-7.0967431068420410">
        <ele>1262.0</ele>
        <time>2018-10-12T07:43:48.000Z</time>
      </trkpt>
      <trkpt lat="31.0299301147460938" lon="-7.0966858863830566">
        <ele>1261.177978515625</ele>
        <time>2018-10-12T07:43:49.000Z</time>
      </trkpt>
      <trkpt lat="31.0299053192138672" lon="-7.0966272354125977">
        <ele>1261.0</ele>
        <time>2018-10-12T07:43:50.000Z</time>
      </trkpt>
      <trkpt lat="31.0298805236816406" lon="-7.0965690612792969">
        <ele>1261.0</ele>
        <time>2018-10-12T07:43:51.000Z</time>
      </trkpt>
      <trkpt lat="31.0298557281494141" lon="-7.0965108871459961">
        <ele>1261.0</ele>
        <time>2018-10-12T07:43:52.000Z</time>
      </trkpt>
      <trkpt lat="31.0298309326171875" lon="-7.0964570045471191">
        <ele>1261.0</ele>
        <time>2018-10-12T07:43:53.000Z</time>
      </trkpt>
      <trkpt lat="31.0298061370849609" lon="-7.0964040756225586">
        <ele>1261.0</ele>
        <time>2018-10-12T07:43:54.000Z</time>
      </trkpt>
      <trkpt lat="31.0297851562500000" lon="-7.0963559150695801">
        <ele>1261.0</ele>
        <time>2018-10-12T07:43:55.000Z</time>
      </trkpt>
      <trkpt lat="31.0297698974609375" lon="-7.0963149070739746">
        <ele>1261.0</ele>
        <time>2018-10-12T07:43:56.000Z</time>
      </trkpt>
      <trkpt lat="31.0297527313232422" lon="-7.0962810516357422">
        <ele>1261.0</ele>
        <time>2018-10-12T07:43:57.000Z</time>
      </trkpt>
      <trkpt lat="31.0297393798828125" lon="-7.0962538719177246">
        <ele>1261.0</ele>
        <time>2018-10-12T07:43:58.000Z</time>
      </trkpt>
      <trkpt lat="31.0297241210937500" lon="-7.0962309837341309">
        <ele>1261.0</ele>
        <time>2018-10-12T07:43:59.000Z</time>
      </trkpt>
      <trkpt lat="31.0297126770019531" lon="-7.0962061882019043">
        <ele>1261.0</ele>
        <time>2018-10-12T07:44:00.000Z</time>
      </trkpt>
      <trkpt lat="31.0296993255615234" lon="-7.0961751937866211">
        <ele>1261.0</ele>
        <time>2018-10-12T07:44:01.000Z</time>
      </trkpt>
      <trkpt lat="31.0296840667724609" lon="-7.0961399078369141">
        <ele>1261.0</ele>
        <time>2018-10-12T07:44:02.000Z</time>
      </trkpt>
      <trkpt lat="31.0296707153320312" lon="-7.0961031913757324">
        <ele>1261.0</ele>
        <time>2018-10-12T07:44:03.000Z</time>
      </trkpt>
      <trkpt lat="31.0296535491943359" lon="-7.0960640907287598">
        <ele>1261.0</ele>
        <time>2018-10-12T07:44:04.000Z</time>
      </trkpt>
      <trkpt lat="31.0296382904052734" lon="-7.0960240364074707">
        <ele>1261.0</ele>
        <time>2018-10-12T07:44:05.000Z</time>
      </trkpt>
      <trkpt lat="31.0296211242675781" lon="-7.0959858894348145">
        <ele>1261.0</ele>
        <time>2018-10-12T07:44:06.000Z</time>
      </trkpt>
      <trkpt lat="31.0296020507812500" lon="-7.0959467887878418">
        <ele>1261.0</ele>
        <time>2018-10-12T07:44:07.000Z</time>
      </trkpt>
      <trkpt lat="31.0295867919921875" lon="-7.0959057807922363">
        <ele>1261.0</ele>
        <time>2018-10-12T07:44:08.000Z</time>
      </trkpt>
      <trkpt lat="31.0295715332031250" lon="-7.0958638191223145">
        <ele>1261.0</ele>
        <time>2018-10-12T07:44:09.000Z</time>
      </trkpt>
      <trkpt lat="31.0295543670654297" lon="-7.0958209037780762">
        <ele>1261.0</ele>
        <time>2018-10-12T07:44:10.000Z</time>
      </trkpt>
      <trkpt lat="31.0295391082763672" lon="-7.0957779884338379">
        <ele>1261.0</ele>
        <time>2018-10-12T07:44:11.000Z</time>
      </trkpt>
      <trkpt lat="31.0295257568359375" lon="-7.0957350730895996">
        <ele>1261.0</ele>
        <time>2018-10-12T07:44:12.000Z</time>
      </trkpt>
      <trkpt lat="31.0295124053955078" lon="-7.0956931114196777">
        <ele>1261.0</ele>
        <time>2018-10-12T07:44:13.000Z</time>
      </trkpt>
      <trkpt lat="31.0294971466064453" lon="-7.0956521034240723">
        <ele>1261.0</ele>
        <time>2018-10-12T07:44:14.000Z</time>
      </trkpt>
      <trkpt lat="31.0294818878173828" lon="-7.0956120491027832">
        <ele>1261.821044921875</ele>
        <time>2018-10-12T07:44:15.000Z</time>
      </trkpt>
      <trkpt lat="31.0294666290283203" lon="-7.0955729484558105">
        <ele>1262.0</ele>
        <time>2018-10-12T07:44:16.000Z</time>
      </trkpt>
      <trkpt lat="31.0294494628906250" lon="-7.0955362319946289">
        <ele>1262.0</ele>
        <time>2018-10-12T07:44:17.000Z</time>
      </trkpt>
      <trkpt lat="31.0294303894042969" lon="-7.0955028533935547">
        <ele>1262.0</ele>
        <time>2018-10-12T07:44:18.000Z</time>
      </trkpt>
      <trkpt lat="31.0294132232666016" lon="-7.0954689979553223">
        <ele>1262.0</ele>
        <time>2018-10-12T07:44:19.000Z</time>
      </trkpt>
      <trkpt lat="31.0293960571289062" lon="-7.0954351425170898">
        <ele>1262.0</ele>
        <time>2018-10-12T07:44:20.000Z</time>
      </trkpt>
      <trkpt lat="31.0293807983398438" lon="-7.0953989028930664">
        <ele>1262.0</ele>
        <time>2018-10-12T07:44:21.000Z</time>
      </trkpt>
      <trkpt lat="31.0293636322021484" lon="-7.0953640937805176">
        <ele>1262.821044921875</ele>
        <time>2018-10-12T07:44:22.000Z</time>
      </trkpt>
      <trkpt lat="31.0293483734130859" lon="-7.0953288078308105">
        <ele>1263.0</ele>
        <time>2018-10-12T07:44:23.000Z</time>
      </trkpt>
      <trkpt lat="31.0293350219726562" lon="-7.0952930450439453">
        <ele>1263.0</ele>
        <time>2018-10-12T07:44:24.000Z</time>
      </trkpt>
      <trkpt lat="31.0293216705322266" lon="-7.0952568054199219">
        <ele>1263.0</ele>
        <time>2018-10-12T07:44:25.000Z</time>
      </trkpt>
      <trkpt lat="31.0293064117431641" lon="-7.0952200889587402">
        <ele>1263.0</ele>
        <time>2018-10-12T07:44:26.000Z</time>
      </trkpt>
      <trkpt lat="31.0292930603027344" lon="-7.0951838493347168">
        <ele>1263.0</ele>
        <time>2018-10-12T07:44:27.000Z</time>
      </trkpt>
      <trkpt lat="31.0292797088623047" lon="-7.0951471328735352">
        <ele>1263.821044921875</ele>
        <time>2018-10-12T07:44:28.000Z</time>
      </trkpt>
      <trkpt lat="31.0292682647705078" lon="-7.0951089859008789">
        <ele>1264.821044921875</ele>
        <time>2018-10-12T07:44:29.000Z</time>
      </trkpt>
      <trkpt lat="31.0292568206787109" lon="-7.0950708389282227">
        <ele>1265.631591796875</ele>
        <time>2018-10-12T07:44:30.000Z</time>
      </trkpt>
      <trkpt lat="31.0292453765869141" lon="-7.0950341224670410">
        <ele>1266.0</ele>
        <time>2018-10-12T07:44:31.000Z</time>
      </trkpt>
      <trkpt lat="31.0292358398437500" lon="-7.0950012207031250">
        <ele>1266.0</ele>
        <time>2018-10-12T07:44:32.000Z</time>
      </trkpt>
      <trkpt lat="31.0292282104492188" lon="-7.0949721336364746">
        <ele>1266.0</ele>
        <time>2018-10-12T07:44:33.000Z</time>
      </trkpt>
      <trkpt lat="31.0292224884033203" lon="-7.0949459075927734">
        <ele>1266.0</ele>
        <time>2018-10-12T07:44:34.000Z</time>
      </trkpt>
      <trkpt lat="31.0292167663574219" lon="-7.0949192047119141">
        <ele>1266.0</ele>
        <time>2018-10-12T07:44:35.000Z</time>
      </trkpt>
      <trkpt lat="31.0292110443115234" lon="-7.0948948860168457">
        <ele>1266.0</ele>
        <time>2018-10-12T07:44:36.000Z</time>
      </trkpt>
      <trkpt lat="31.0292053222656250" lon="-7.0948700904846191">
        <ele>1266.0</ele>
        <time>2018-10-12T07:44:37.000Z</time>
      </trkpt>
      <trkpt lat="31.0291996002197266" lon="-7.0948457717895508">
        <ele>1266.0</ele>
        <time>2018-10-12T07:44:38.000Z</time>
      </trkpt>
      <trkpt lat="31.0291919708251953" lon="-7.0948219299316406">
        <ele>1266.821044921875</ele>
        <time>2018-10-12T07:44:39.000Z</time>
      </trkpt>
      <trkpt lat="31.0291824340820312" lon="-7.0947971343994141">
        <ele>1267.0</ele>
        <time>2018-10-12T07:44:40.000Z</time>
      </trkpt>
      <trkpt lat="31.0291767120361328" lon="-7.0947718620300293">
        <ele>1267.0</ele>
        <time>2018-10-12T07:44:41.000Z</time>
      </trkpt>
      <trkpt lat="31.0291652679443359" lon="-7.0947470664978027">
        <ele>1267.0</ele>
        <time>2018-10-12T07:44:42.000Z</time>
      </trkpt>
      <trkpt lat="31.0291557312011719" lon="-7.0947241783142090">
        <ele>1267.0</ele>
        <time>2018-10-12T07:44:43.000Z</time>
      </trkpt>
      <trkpt lat="31.0291404724121094" lon="-7.0946998596191406">
        <ele>1267.0</ele>
        <time>2018-10-12T07:44:44.000Z</time>
      </trkpt>
      <trkpt lat="31.0291252136230469" lon="-7.0946760177612305">
        <ele>1267.0</ele>
        <time>2018-10-12T07:44:45.000Z</time>
      </trkpt>
      <trkpt lat="31.0291080474853516" lon="-7.0946512222290039">
        <ele>1267.0</ele>
        <time>2018-10-12T07:44:46.000Z</time>
      </trkpt>
      <trkpt lat="31.0290927886962891" lon="-7.0946269035339355">
        <ele>1267.0</ele>
        <time>2018-10-12T07:44:47.000Z</time>
      </trkpt>
      <trkpt lat="31.0290794372558594" lon="-7.0946011543273926">
        <ele>1267.0</ele>
        <time>2018-10-12T07:44:48.000Z</time>
      </trkpt>
      <trkpt lat="31.0290641784667969" lon="-7.0945730209350586">
        <ele>1267.0</ele>
        <time>2018-10-12T07:44:49.000Z</time>
      </trkpt>
      <trkpt lat="31.0290489196777344" lon="-7.0945439338684082">
        <ele>1267.0</ele>
        <time>2018-10-12T07:44:50.000Z</time>
      </trkpt>
      <trkpt lat="31.0290298461914062" lon="-7.0945158004760742">
        <ele>1267.0</ele>
        <time>2018-10-12T07:44:51.000Z</time>
      </trkpt>
      <trkpt lat="31.0290088653564453" lon="-7.0944900512695312">
        <ele>1267.0</ele>
        <time>2018-10-12T07:44:52.000Z</time>
      </trkpt>
      <trkpt lat="31.0289878845214844" lon="-7.0944662094116211">
        <ele>1267.0</ele>
        <time>2018-10-12T07:44:53.000Z</time>
      </trkpt>
      <trkpt lat="31.0289669036865234" lon="-7.0944418907165527">
        <ele>1267.0</ele>
        <time>2018-10-12T07:44:54.000Z</time>
      </trkpt>
      <trkpt lat="31.0289440155029297" lon="-7.0944170951843262">
        <ele>1267.0</ele>
        <time>2018-10-12T07:44:55.000Z</time>
      </trkpt>
      <trkpt lat="31.0289211273193359" lon="-7.0943908691406250">
        <ele>1267.0</ele>
        <time>2018-10-12T07:44:56.000Z</time>
      </trkpt>
      <trkpt lat="31.0289001464843750" lon="-7.0943632125854492">
        <ele>1267.0</ele>
        <time>2018-10-12T07:44:57.000Z</time>
      </trkpt>
      <trkpt lat="31.0288791656494141" lon="-7.0943360328674316">
        <ele>1267.0</ele>
        <time>2018-10-12T07:44:58.000Z</time>
      </trkpt>
      <trkpt lat="31.0288600921630859" lon="-7.0943078994750977">
        <ele>1267.0</ele>
        <time>2018-10-12T07:44:59.000Z</time>
      </trkpt>
      <trkpt lat="31.0288429260253906" lon="-7.0942788124084473">
        <ele>1267.0</ele>
        <time>2018-10-12T07:45:00.000Z</time>
      </trkpt>
      <trkpt lat="31.0288238525390625" lon="-7.0942487716674805">
        <ele>1267.0</ele>
        <time>2018-10-12T07:45:01.000Z</time>
      </trkpt>
      <trkpt lat="31.0288066864013672" lon="-7.0942177772521973">
        <ele>1267.0</ele>
        <time>2018-10-12T07:45:02.000Z</time>
      </trkpt>
      <trkpt lat="31.0287876129150391" lon="-7.0941848754882812">
        <ele>1267.0</ele>
        <time>2018-10-12T07:45:03.000Z</time>
      </trkpt>
      <trkpt lat="31.0287704467773438" lon="-7.0941519737243652">
        <ele>1267.0</ele>
        <time>2018-10-12T07:45:04.000Z</time>
      </trkpt>
      <trkpt lat="31.0287513732910156" lon="-7.0941181182861328">
        <ele>1267.0</ele>
        <time>2018-10-12T07:45:05.000Z</time>
      </trkpt>
      <trkpt lat="31.0287342071533203" lon="-7.0940828323364258">
        <ele>1267.0</ele>
        <time>2018-10-12T07:45:06.000Z</time>
      </trkpt>
      <trkpt lat="31.0287170410156250" lon="-7.0940461158752441">
        <ele>1267.0</ele>
        <time>2018-10-12T07:45:07.000Z</time>
      </trkpt>
      <trkpt lat="31.0286998748779297" lon="-7.0940079689025879">
        <ele>1267.0</ele>
        <time>2018-10-12T07:45:08.000Z</time>
      </trkpt>
      <trkpt lat="31.0286808013916016" lon="-7.0939688682556152">
        <ele>1267.0</ele>
        <time>2018-10-12T07:45:09.000Z</time>
      </trkpt>
      <trkpt lat="31.0286617279052734" lon="-7.0939297676086426">
        <ele>1267.0</ele>
        <time>2018-10-12T07:45:10.000Z</time>
      </trkpt>
      <trkpt lat="31.0286407470703125" lon="-7.0938911437988281">
        <ele>1267.0</ele>
        <time>2018-10-12T07:45:11.000Z</time>
      </trkpt>
      <trkpt lat="31.0286178588867188" lon="-7.0938520431518555">
        <ele>1267.0</ele>
        <time>2018-10-12T07:45:12.000Z</time>
      </trkpt>
      <trkpt lat="31.0285930633544922" lon="-7.0938138961791992">
        <ele>1267.0</ele>
        <time>2018-10-12T07:45:13.000Z</time>
      </trkpt>
      <trkpt lat="31.0285701751708984" lon="-7.0937771797180176">
        <ele>1267.0</ele>
        <time>2018-10-12T07:45:14.000Z</time>
      </trkpt>
      <trkpt lat="31.0285472869873047" lon="-7.0937390327453613">
        <ele>1267.0</ele>
        <time>2018-10-12T07:45:15.000Z</time>
      </trkpt>
      <trkpt lat="31.0285263061523438" lon="-7.0936989784240723">
        <ele>1267.0</ele>
        <time>2018-10-12T07:45:16.000Z</time>
      </trkpt>
      <trkpt lat="31.0285072326660156" lon="-7.0936579704284668">
        <ele>1267.0</ele>
        <time>2018-10-12T07:45:17.000Z</time>
      </trkpt>
      <trkpt lat="31.0284900665283203" lon="-7.0936160087585449">
        <ele>1267.0</ele>
        <time>2018-10-12T07:45:18.000Z</time>
      </trkpt>
      <trkpt lat="31.0284748077392578" lon="-7.0935730934143066">
        <ele>1267.0</ele>
        <time>2018-10-12T07:45:19.000Z</time>
      </trkpt>
      <trkpt lat="31.0284614562988281" lon="-7.0935292243957520">
        <ele>1267.0</ele>
        <time>2018-10-12T07:45:20.000Z</time>
      </trkpt>
      <trkpt lat="31.0284461975097656" lon="-7.0934839248657227">
        <ele>1267.0</ele>
        <time>2018-10-12T07:45:21.000Z</time>
      </trkpt>
      <trkpt lat="31.0284347534179688" lon="-7.0934381484985352">
        <ele>1267.0</ele>
        <time>2018-10-12T07:45:22.000Z</time>
      </trkpt>
      <trkpt lat="31.0284214019775391" lon="-7.0933909416198730">
        <ele>1267.0</ele>
        <time>2018-10-12T07:45:23.000Z</time>
      </trkpt>
      <trkpt lat="31.0284061431884766" lon="-7.0933451652526855">
        <ele>1267.0</ele>
        <time>2018-10-12T07:45:24.000Z</time>
      </trkpt>
      <trkpt lat="31.0283908843994141" lon="-7.0932998657226562">
        <ele>1267.0</ele>
        <time>2018-10-12T07:45:25.000Z</time>
      </trkpt>
      <trkpt lat="31.0283718109130859" lon="-7.0932550430297852">
        <ele>1267.0</ele>
        <time>2018-10-12T07:45:26.000Z</time>
      </trkpt>
      <trkpt lat="31.0283527374267578" lon="-7.0932102203369141">
        <ele>1267.0</ele>
        <time>2018-10-12T07:45:27.000Z</time>
      </trkpt>
      <trkpt lat="31.0283336639404297" lon="-7.0931649208068848">
        <ele>1267.0</ele>
        <time>2018-10-12T07:45:28.000Z</time>
      </trkpt>
      <trkpt lat="31.0283126831054688" lon="-7.0931200981140137">
        <ele>1267.0</ele>
        <time>2018-10-12T07:45:29.000Z</time>
      </trkpt>
      <trkpt lat="31.0282917022705078" lon="-7.0930747985839844">
        <ele>1267.0</ele>
        <time>2018-10-12T07:45:30.000Z</time>
      </trkpt>
      <trkpt lat="31.0282726287841797" lon="-7.0930280685424805">
        <ele>1267.0</ele>
        <time>2018-10-12T07:45:31.000Z</time>
      </trkpt>
      <trkpt lat="31.0282516479492188" lon="-7.0929818153381348">
        <ele>1267.0</ele>
        <time>2018-10-12T07:45:32.000Z</time>
      </trkpt>
      <trkpt lat="31.0282287597656250" lon="-7.0929369926452637">
        <ele>1267.0</ele>
        <time>2018-10-12T07:45:33.000Z</time>
      </trkpt>
      <trkpt lat="31.0282058715820312" lon="-7.0928921699523926">
        <ele>1267.0</ele>
        <time>2018-10-12T07:45:34.000Z</time>
      </trkpt>
      <trkpt lat="31.0281810760498047" lon="-7.0928459167480469">
        <ele>1267.0</ele>
        <time>2018-10-12T07:45:35.000Z</time>
      </trkpt>
      <trkpt lat="31.0281562805175781" lon="-7.0927991867065430">
        <ele>1267.0</ele>
        <time>2018-10-12T07:45:36.000Z</time>
      </trkpt>
      <trkpt lat="31.0281333923339844" lon="-7.0927529335021973">
        <ele>1267.0</ele>
        <time>2018-10-12T07:45:37.000Z</time>
      </trkpt>
      <trkpt lat="31.0281085968017578" lon="-7.0927071571350098">
        <ele>1267.0</ele>
        <time>2018-10-12T07:45:38.000Z</time>
      </trkpt>
      <trkpt lat="31.0280838012695312" lon="-7.0926618576049805">
        <ele>1267.0</ele>
        <time>2018-10-12T07:45:39.000Z</time>
      </trkpt>
      <trkpt lat="31.0280609130859375" lon="-7.0926170349121094">
        <ele>1267.0</ele>
        <time>2018-10-12T07:45:40.000Z</time>
      </trkpt>
      <trkpt lat="31.0280361175537109" lon="-7.0925731658935547">
        <ele>1267.0</ele>
        <time>2018-10-12T07:45:41.000Z</time>
      </trkpt>
      <trkpt lat="31.0280132293701172" lon="-7.0925278663635254">
        <ele>1267.0</ele>
        <time>2018-10-12T07:45:42.000Z</time>
      </trkpt>
      <trkpt lat="31.0279960632324219" lon="-7.0924811363220215">
        <ele>1267.0</ele>
        <time>2018-10-12T07:45:43.000Z</time>
      </trkpt>
      <trkpt lat="31.0279788970947266" lon="-7.0924310684204102">
        <ele>1267.0</ele>
        <time>2018-10-12T07:45:44.000Z</time>
      </trkpt>
      <trkpt lat="31.0279617309570312" lon="-7.0923819541931152">
        <ele>1267.0</ele>
        <time>2018-10-12T07:45:45.000Z</time>
      </trkpt>
      <trkpt lat="31.0279388427734375" lon="-7.0923318862915039">
        <ele>1266.368408203125</ele>
        <time>2018-10-12T07:45:46.000Z</time>
      </trkpt>
      <trkpt lat="31.0279159545898438" lon="-7.0922818183898926">
        <ele>1266.0</ele>
        <time>2018-10-12T07:45:47.000Z</time>
      </trkpt>
      <trkpt lat="31.0278930664062500" lon="-7.0922369956970215">
        <ele>1266.0</ele>
        <time>2018-10-12T07:45:48.000Z</time>
      </trkpt>
      <trkpt lat="31.0278759002685547" lon="-7.0922021865844727">
        <ele>1266.0</ele>
        <time>2018-10-12T07:45:49.000Z</time>
      </trkpt>
      <trkpt lat="31.0278625488281250" lon="-7.0921778678894043">
        <ele>1266.0</ele>
        <time>2018-10-12T07:45:50.000Z</time>
      </trkpt>
      <trkpt lat="31.0278530120849609" lon="-7.0921602249145508">
        <ele>1266.0</ele>
        <time>2018-10-12T07:45:51.000Z</time>
      </trkpt>
      <trkpt lat="31.0278377532958984" lon="-7.0921311378479004">
        <ele>1265.0</ele>
        <time>2018-10-12T07:45:53.000Z</time>
      </trkpt>
      <trkpt lat="31.0278129577636719" lon="-7.0920848846435547">
        <ele>1265.0</ele>
        <time>2018-10-12T07:45:59.000Z</time>
      </trkpt>
      <trkpt lat="31.0277938842773438" lon="-7.0920500755310059">
        <ele>1265.0</ele>
        <time>2018-10-12T07:46:01.000Z</time>
      </trkpt>
      <trkpt lat="31.0277843475341797" lon="-7.0920271873474121">
        <ele>1265.0</ele>
        <time>2018-10-12T07:46:02.000Z</time>
      </trkpt>
      <trkpt lat="31.0277748107910156" lon="-7.0919928550720215">
        <ele>1264.1826171875</ele>
        <time>2018-10-12T07:46:03.000Z</time>
      </trkpt>
      <trkpt lat="31.0277538299560547" lon="-7.0919461250305176">
        <ele>1264.0</ele>
        <time>2018-10-12T07:46:04.000Z</time>
      </trkpt>
      <trkpt lat="31.0277194976806641" lon="-7.0919008255004883">
        <ele>1263.373291015625</ele>
        <time>2018-10-12T07:46:05.000Z</time>
      </trkpt>
      <trkpt lat="31.0276718139648438" lon="-7.0918641090393066">
        <ele>1263.0</ele>
        <time>2018-10-12T07:46:06.000Z</time>
      </trkpt>
      <trkpt lat="31.0276222229003906" lon="-7.0918321609497070">
        <ele>1263.0</ele>
        <time>2018-10-12T07:46:07.000Z</time>
      </trkpt>
      <trkpt lat="31.0275707244873047" lon="-7.0918021202087402">
        <ele>1263.0</ele>
        <time>2018-10-12T07:46:08.000Z</time>
      </trkpt>
      <trkpt lat="31.0275211334228516" lon="-7.0917692184448242">
        <ele>1263.0</ele>
        <time>2018-10-12T07:46:09.000Z</time>
      </trkpt>
      <trkpt lat="31.0274772644042969" lon="-7.0917310714721680">
        <ele>1263.0</ele>
        <time>2018-10-12T07:46:10.000Z</time>
      </trkpt>
      <trkpt lat="31.0274467468261719" lon="-7.0916857719421387">
        <ele>1263.821044921875</ele>
        <time>2018-10-12T07:46:11.000Z</time>
      </trkpt>
      <trkpt lat="31.0274314880371094" lon="-7.0916399955749512">
        <ele>1264.8128662109375</ele>
        <time>2018-10-12T07:46:12.000Z</time>
      </trkpt>
      <trkpt lat="31.0274295806884766" lon="-7.0915961265563965">
        <ele>1265.0</ele>
        <time>2018-10-12T07:46:13.000Z</time>
      </trkpt>
      <trkpt lat="31.0274314880371094" lon="-7.0915517807006836">
        <ele>1265.0</ele>
        <time>2018-10-12T07:46:14.000Z</time>
      </trkpt>
      <trkpt lat="31.0274333953857422" lon="-7.0915079116821289">
        <ele>1265.0</ele>
        <time>2018-10-12T07:46:15.000Z</time>
      </trkpt>
      <trkpt lat="31.0274372100830078" lon="-7.0914640426635742">
        <ele>1264.178955078125</ele>
        <time>2018-10-12T07:46:16.000Z</time>
      </trkpt>
      <trkpt lat="31.0274429321289062" lon="-7.0914168357849121">
        <ele>1264.0</ele>
        <time>2018-10-12T07:46:17.000Z</time>
      </trkpt>
      <trkpt lat="31.0274505615234375" lon="-7.0913639068603516">
        <ele>1263.178955078125</ele>
        <time>2018-10-12T07:46:18.000Z</time>
      </trkpt>
      <trkpt lat="31.0274543762207031" lon="-7.0913081169128418">
        <ele>1263.0</ele>
        <time>2018-10-12T07:46:19.000Z</time>
      </trkpt>
      <trkpt lat="31.0274543762207031" lon="-7.0912489891052246">
        <ele>1262.2672119140625</ele>
        <time>2018-10-12T07:46:20.000Z</time>
      </trkpt>
      <trkpt lat="31.0274505615234375" lon="-7.0911870002746582">
        <ele>1262.0</ele>
        <time>2018-10-12T07:46:21.000Z</time>
      </trkpt>
      <trkpt lat="31.0274467468261719" lon="-7.0911288261413574">
        <ele>1262.0</ele>
        <time>2018-10-12T07:46:22.000Z</time>
      </trkpt>
      <trkpt lat="31.0274486541748047" lon="-7.0910749435424805">
        <ele>1262.0</ele>
        <time>2018-10-12T07:46:23.000Z</time>
      </trkpt>
      <trkpt lat="31.0274600982666016" lon="-7.0910248756408691">
        <ele>1262.0</ele>
        <time>2018-10-12T07:46:24.000Z</time>
      </trkpt>
      <trkpt lat="31.0274772644042969" lon="-7.0909762382507324">
        <ele>1262.0</ele>
        <time>2018-10-12T07:46:25.000Z</time>
      </trkpt>
      <trkpt lat="31.0274944305419922" lon="-7.0909271240234375">
        <ele>1262.0</ele>
        <time>2018-10-12T07:46:26.000Z</time>
      </trkpt>
      <trkpt lat="31.0275077819824219" lon="-7.0908770561218262">
        <ele>1262.0</ele>
        <time>2018-10-12T07:46:27.000Z</time>
      </trkpt>
      <trkpt lat="31.0275173187255859" lon="-7.0908269882202148">
        <ele>1262.0</ele>
        <time>2018-10-12T07:46:28.000Z</time>
      </trkpt>
      <trkpt lat="31.0275268554687500" lon="-7.0907778739929199">
        <ele>1262.821044921875</ele>
        <time>2018-10-12T07:46:29.000Z</time>
      </trkpt>
      <trkpt lat="31.0275344848632812" lon="-7.0907292366027832">
        <ele>1263.0</ele>
        <time>2018-10-12T07:46:30.000Z</time>
      </trkpt>
      <trkpt lat="31.0275382995605469" lon="-7.0906839370727539">
        <ele>1263.0</ele>
        <time>2018-10-12T07:46:31.000Z</time>
      </trkpt>
      <trkpt lat="31.0275421142578125" lon="-7.0906429290771484">
        <ele>1263.7366943359375</ele>
        <time>2018-10-12T07:46:32.000Z</time>
      </trkpt>
      <trkpt lat="31.0275421142578125" lon="-7.0906071662902832">
        <ele>1264.0</ele>
        <time>2018-10-12T07:46:33.000Z</time>
      </trkpt>
      <trkpt lat="31.0275421142578125" lon="-7.0905737876892090">
        <ele>1264.0</ele>
        <time>2018-10-12T07:46:34.000Z</time>
      </trkpt>
      <trkpt lat="31.0275402069091797" lon="-7.0905427932739258">
        <ele>1264.0</ele>
        <time>2018-10-12T07:46:35.000Z</time>
      </trkpt>
      <trkpt lat="31.0275344848632812" lon="-7.0905117988586426">
        <ele>1264.0</ele>
        <time>2018-10-12T07:46:36.000Z</time>
      </trkpt>
      <trkpt lat="31.0275306701660156" lon="-7.0904822349548340">
        <ele>1264.821044921875</ele>
        <time>2018-10-12T07:46:37.000Z</time>
      </trkpt>
      <trkpt lat="31.0275249481201172" lon="-7.0904507637023926">
        <ele>1265.0</ele>
        <time>2018-10-12T07:46:38.000Z</time>
      </trkpt>
      <trkpt lat="31.0275192260742188" lon="-7.0904221534729004">
        <ele>1265.0</ele>
        <time>2018-10-12T07:46:39.000Z</time>
      </trkpt>
      <trkpt lat="31.0275115966796875" lon="-7.0903930664062500">
        <ele>1265.821044921875</ele>
        <time>2018-10-12T07:46:40.000Z</time>
      </trkpt>
      <trkpt lat="31.0275077819824219" lon="-7.0903649330139160">
        <ele>1266.821044921875</ele>
        <time>2018-10-12T07:46:41.000Z</time>
      </trkpt>
      <trkpt lat="31.0275020599365234" lon="-7.0903358459472656">
        <ele>1267.0</ele>
        <time>2018-10-12T07:46:42.000Z</time>
      </trkpt>
      <trkpt lat="31.0274963378906250" lon="-7.0903058052062988">
        <ele>1267.0</ele>
        <time>2018-10-12T07:46:43.000Z</time>
      </trkpt>
      <trkpt lat="31.0274906158447266" lon="-7.0902738571166992">
        <ele>1267.0</ele>
        <time>2018-10-12T07:46:44.000Z</time>
      </trkpt>
      <trkpt lat="31.0274848937988281" lon="-7.0902400016784668">
        <ele>1267.0</ele>
        <time>2018-10-12T07:46:45.000Z</time>
      </trkpt>
      <trkpt lat="31.0274791717529297" lon="-7.0902037620544434">
        <ele>1267.0</ele>
        <time>2018-10-12T07:46:46.000Z</time>
      </trkpt>
      <trkpt lat="31.0274715423583984" lon="-7.0901679992675781">
        <ele>1267.8128662109375</ele>
        <time>2018-10-12T07:46:47.000Z</time>
      </trkpt>
      <trkpt lat="31.0274639129638672" lon="-7.0901308059692383">
        <ele>1268.0</ele>
        <time>2018-10-12T07:46:48.000Z</time>
      </trkpt>
      <trkpt lat="31.0274543762207031" lon="-7.0900931358337402">
        <ele>1268.7406005859375</ele>
        <time>2018-10-12T07:46:49.000Z</time>
      </trkpt>
      <trkpt lat="31.0274467468261719" lon="-7.0900540351867676">
        <ele>1269.821044921875</ele>
        <time>2018-10-12T07:46:50.000Z</time>
      </trkpt>
      <trkpt lat="31.0274372100830078" lon="-7.0900168418884277">
        <ele>1270.0</ele>
        <time>2018-10-12T07:46:51.000Z</time>
      </trkpt>
      <trkpt lat="31.0274314880371094" lon="-7.0899829864501953">
        <ele>1270.0</ele>
        <time>2018-10-12T07:46:52.000Z</time>
      </trkpt>
      <trkpt lat="31.0274257659912109" lon="-7.0899519920349121">
        <ele>1270.821044921875</ele>
        <time>2018-10-12T07:46:53.000Z</time>
      </trkpt>
      <trkpt lat="31.0274219512939453" lon="-7.0899229049682617">
        <ele>1271.0</ele>
        <time>2018-10-12T07:46:54.000Z</time>
      </trkpt>
      <trkpt lat="31.0274162292480469" lon="-7.0898947715759277">
        <ele>1271.0</ele>
        <time>2018-10-12T07:46:55.000Z</time>
      </trkpt>
      <trkpt lat="31.0274162292480469" lon="-7.0898690223693848">
        <ele>1271.0</ele>
        <time>2018-10-12T07:46:56.000Z</time>
      </trkpt>
      <trkpt lat="31.0274181365966797" lon="-7.0898408889770508">
        <ele>1271.0</ele>
        <time>2018-10-12T07:46:57.000Z</time>
      </trkpt>
      <trkpt lat="31.0274200439453125" lon="-7.0898118019104004">
        <ele>1271.0</ele>
        <time>2018-10-12T07:46:58.000Z</time>
      </trkpt>
      <trkpt lat="31.0274219512939453" lon="-7.0897822380065918">
        <ele>1271.0</ele>
        <time>2018-10-12T07:46:59.000Z</time>
      </trkpt>
      <trkpt lat="31.0274238586425781" lon="-7.0897521972656250">
        <ele>1271.0</ele>
        <time>2018-10-12T07:47:00.000Z</time>
      </trkpt>
      <trkpt lat="31.0274257659912109" lon="-7.0897221565246582">
        <ele>1271.0</ele>
        <time>2018-10-12T07:47:01.000Z</time>
      </trkpt>
      <trkpt lat="31.0274295806884766" lon="-7.0896911621093750">
        <ele>1271.0</ele>
        <time>2018-10-12T07:47:02.000Z</time>
      </trkpt>
      <trkpt lat="31.0274333953857422" lon="-7.0896577835083008">
        <ele>1271.0</ele>
        <time>2018-10-12T07:47:03.000Z</time>
      </trkpt>
      <trkpt lat="31.0274353027343750" lon="-7.0896239280700684">
        <ele>1271.0</ele>
        <time>2018-10-12T07:47:04.000Z</time>
      </trkpt>
      <trkpt lat="31.0274372100830078" lon="-7.0895891189575195">
        <ele>1271.0</ele>
        <time>2018-10-12T07:47:05.000Z</time>
      </trkpt>
      <trkpt lat="31.0274391174316406" lon="-7.0895547866821289">
        <ele>1271.0</ele>
        <time>2018-10-12T07:47:06.000Z</time>
      </trkpt>
      <trkpt lat="31.0274410247802734" lon="-7.0895209312438965">
        <ele>1271.0</ele>
        <time>2018-10-12T07:47:07.000Z</time>
      </trkpt>
      <trkpt lat="31.0274429321289062" lon="-7.0894889831542969">
        <ele>1271.0</ele>
        <time>2018-10-12T07:47:08.000Z</time>
      </trkpt>
      <trkpt lat="31.0274429321289062" lon="-7.0894560813903809">
        <ele>1271.0</ele>
        <time>2018-10-12T07:47:09.000Z</time>
      </trkpt>
      <trkpt lat="31.0274391174316406" lon="-7.0894241333007812">
        <ele>1271.0</ele>
        <time>2018-10-12T07:47:10.000Z</time>
      </trkpt>
      <trkpt lat="31.0274372100830078" lon="-7.0893931388854980">
        <ele>1271.821044921875</ele>
        <time>2018-10-12T07:47:11.000Z</time>
      </trkpt>
      <trkpt lat="31.0274353027343750" lon="-7.0893630981445312">
        <ele>1272.0</ele>
        <time>2018-10-12T07:47:12.000Z</time>
      </trkpt>
      <trkpt lat="31.0274353027343750" lon="-7.0893330574035645">
        <ele>1272.0</ele>
        <time>2018-10-12T07:47:13.000Z</time>
      </trkpt>
      <trkpt lat="31.0274353027343750" lon="-7.0893020629882812">
        <ele>1272.0</ele>
        <time>2018-10-12T07:47:14.000Z</time>
      </trkpt>
      <trkpt lat="31.0274333953857422" lon="-7.0892701148986816">
        <ele>1272.0</ele>
        <time>2018-10-12T07:47:15.000Z</time>
      </trkpt>
      <trkpt lat="31.0274333953857422" lon="-7.0892381668090820">
        <ele>1272.0</ele>
        <time>2018-10-12T07:47:16.000Z</time>
      </trkpt>
      <trkpt lat="31.0274353027343750" lon="-7.0892062187194824">
        <ele>1272.0</ele>
        <time>2018-10-12T07:47:17.000Z</time>
      </trkpt>
      <trkpt lat="31.0274372100830078" lon="-7.0891737937927246">
        <ele>1272.0</ele>
        <time>2018-10-12T07:47:18.000Z</time>
      </trkpt>
      <trkpt lat="31.0274353027343750" lon="-7.0891418457031250">
        <ele>1272.0</ele>
        <time>2018-10-12T07:47:19.000Z</time>
      </trkpt>
      <trkpt lat="31.0274314880371094" lon="-7.0891089439392090">
        <ele>1272.0</ele>
        <time>2018-10-12T07:47:20.000Z</time>
      </trkpt>
      <trkpt lat="31.0274295806884766" lon="-7.0890760421752930">
        <ele>1272.0</ele>
        <time>2018-10-12T07:47:21.000Z</time>
      </trkpt>
      <trkpt lat="31.0274276733398438" lon="-7.0890431404113770">
        <ele>1272.0</ele>
        <time>2018-10-12T07:47:22.000Z</time>
      </trkpt>
      <trkpt lat="31.0274257659912109" lon="-7.0890097618103027">
        <ele>1272.0</ele>
        <time>2018-10-12T07:47:23.000Z</time>
      </trkpt>
      <trkpt lat="31.0274219512939453" lon="-7.0889787673950195">
        <ele>1272.0</ele>
        <time>2018-10-12T07:47:24.000Z</time>
      </trkpt>
      <trkpt lat="31.0274181365966797" lon="-7.0889458656311035">
        <ele>1272.0</ele>
        <time>2018-10-12T07:47:25.000Z</time>
      </trkpt>
      <trkpt lat="31.0274162292480469" lon="-7.0889139175415039">
        <ele>1272.0</ele>
        <time>2018-10-12T07:47:26.000Z</time>
      </trkpt>
      <trkpt lat="31.0274143218994141" lon="-7.0888800621032715">
        <ele>1272.0</ele>
        <time>2018-10-12T07:47:27.000Z</time>
      </trkpt>
      <trkpt lat="31.0274105072021484" lon="-7.0888447761535645">
        <ele>1272.0</ele>
        <time>2018-10-12T07:47:28.000Z</time>
      </trkpt>
      <trkpt lat="31.0274028778076172" lon="-7.0888099670410156">
        <ele>1272.0</ele>
        <time>2018-10-12T07:47:29.000Z</time>
      </trkpt>
      <trkpt lat="31.0273952484130859" lon="-7.0887742042541504">
        <ele>1272.0</ele>
        <time>2018-10-12T07:47:30.000Z</time>
      </trkpt>
      <trkpt lat="31.0273895263671875" lon="-7.0887360572814941">
        <ele>1272.0</ele>
        <time>2018-10-12T07:47:31.000Z</time>
      </trkpt>
      <trkpt lat="31.0273838043212891" lon="-7.0886950492858887">
        <ele>1272.0</ele>
        <time>2018-10-12T07:47:32.000Z</time>
      </trkpt>
      <trkpt lat="31.0273799896240234" lon="-7.0886521339416504">
        <ele>1272.0</ele>
        <time>2018-10-12T07:47:33.000Z</time>
      </trkpt>
      <trkpt lat="31.0273761749267578" lon="-7.0886092185974121">
        <ele>1272.0</ele>
        <time>2018-10-12T07:47:34.000Z</time>
      </trkpt>
      <trkpt lat="31.0273723602294922" lon="-7.0885648727416992">
        <ele>1272.0</ele>
        <time>2018-10-12T07:47:35.000Z</time>
      </trkpt>
      <trkpt lat="31.0273685455322266" lon="-7.0885210037231445">
        <ele>1272.0</ele>
        <time>2018-10-12T07:47:36.000Z</time>
      </trkpt>
      <trkpt lat="31.0273647308349609" lon="-7.0884771347045898">
        <ele>1272.0</ele>
        <time>2018-10-12T07:47:37.000Z</time>
      </trkpt>
      <trkpt lat="31.0273609161376953" lon="-7.0884327888488770">
        <ele>1272.0</ele>
        <time>2018-10-12T07:47:38.000Z</time>
      </trkpt>
      <trkpt lat="31.0273551940917969" lon="-7.0883879661560059">
        <ele>1272.0</ele>
        <time>2018-10-12T07:47:39.000Z</time>
      </trkpt>
      <trkpt lat="31.0273513793945312" lon="-7.0883440971374512">
        <ele>1272.0</ele>
        <time>2018-10-12T07:47:40.000Z</time>
      </trkpt>
      <trkpt lat="31.0273475646972656" lon="-7.0882987976074219">
        <ele>1272.0</ele>
        <time>2018-10-12T07:47:41.000Z</time>
      </trkpt>
      <trkpt lat="31.0273437500000000" lon="-7.0882530212402344">
        <ele>1272.0</ele>
        <time>2018-10-12T07:47:42.000Z</time>
      </trkpt>
      <trkpt lat="31.0273399353027344" lon="-7.0882067680358887">
        <ele>1271.178955078125</ele>
        <time>2018-10-12T07:47:43.000Z</time>
      </trkpt>
      <trkpt lat="31.0273361206054688" lon="-7.0881609916687012">
        <ele>1271.0</ele>
        <time>2018-10-12T07:47:44.000Z</time>
      </trkpt>
      <trkpt lat="31.0273323059082031" lon="-7.0881161689758301">
        <ele>1271.0</ele>
        <time>2018-10-12T07:47:45.000Z</time>
      </trkpt>
      <trkpt lat="31.0273284912109375" lon="-7.0880699157714844">
        <ele>1271.0</ele>
        <time>2018-10-12T07:47:46.000Z</time>
      </trkpt>
      <trkpt lat="31.0273227691650391" lon="-7.0880260467529297">
        <ele>1271.0</ele>
        <time>2018-10-12T07:47:47.000Z</time>
      </trkpt>
      <trkpt lat="31.0273189544677734" lon="-7.0879812240600586">
        <ele>1271.0</ele>
        <time>2018-10-12T07:47:48.000Z</time>
      </trkpt>
      <trkpt lat="31.0273151397705078" lon="-7.0879368782043457">
        <ele>1271.0</ele>
        <time>2018-10-12T07:47:49.000Z</time>
      </trkpt>
      <trkpt lat="31.0273132324218750" lon="-7.0878930091857910">
        <ele>1271.0</ele>
        <time>2018-10-12T07:47:50.000Z</time>
      </trkpt>
      <trkpt lat="31.0273094177246094" lon="-7.0878481864929199">
        <ele>1271.0</ele>
        <time>2018-10-12T07:47:51.000Z</time>
      </trkpt>
      <trkpt lat="31.0273036956787109" lon="-7.0878028869628906">
        <ele>1271.0</ele>
        <time>2018-10-12T07:47:52.000Z</time>
      </trkpt>
      <trkpt lat="31.0272998809814453" lon="-7.0877580642700195">
        <ele>1271.0</ele>
        <time>2018-10-12T07:47:53.000Z</time>
      </trkpt>
      <trkpt lat="31.0272960662841797" lon="-7.0877118110656738">
        <ele>1271.0</ele>
        <time>2018-10-12T07:47:54.000Z</time>
      </trkpt>
      <trkpt lat="31.0272941589355469" lon="-7.0876660346984863">
        <ele>1271.0</ele>
        <time>2018-10-12T07:47:55.000Z</time>
      </trkpt>
      <trkpt lat="31.0272884368896484" lon="-7.0876212120056152">
        <ele>1271.0</ele>
        <time>2018-10-12T07:47:56.000Z</time>
      </trkpt>
      <trkpt lat="31.0272827148437500" lon="-7.0875759124755859">
        <ele>1271.0</ele>
        <time>2018-10-12T07:47:57.000Z</time>
      </trkpt>
      <trkpt lat="31.0272789001464844" lon="-7.0875310897827148">
        <ele>1271.0</ele>
        <time>2018-10-12T07:47:58.000Z</time>
      </trkpt>
      <trkpt lat="31.0272731781005859" lon="-7.0874857902526855">
        <ele>1271.0</ele>
        <time>2018-10-12T07:47:59.000Z</time>
      </trkpt>
      <trkpt lat="31.0272674560546875" lon="-7.0874419212341309">
        <ele>1271.0</ele>
        <time>2018-10-12T07:48:00.000Z</time>
      </trkpt>
      <trkpt lat="31.0272617340087891" lon="-7.0873980522155762">
        <ele>1271.0</ele>
        <time>2018-10-12T07:48:01.000Z</time>
      </trkpt>
      <trkpt lat="31.0272579193115234" lon="-7.0873541831970215">
        <ele>1271.821044921875</ele>
        <time>2018-10-12T07:48:02.000Z</time>
      </trkpt>
      <trkpt lat="31.0272521972656250" lon="-7.0873122215270996">
        <ele>1272.0</ele>
        <time>2018-10-12T07:48:03.000Z</time>
      </trkpt>
      <trkpt lat="31.0272483825683594" lon="-7.0872688293457031">
        <ele>1272.0</ele>
        <time>2018-10-12T07:48:04.000Z</time>
      </trkpt>
      <trkpt lat="31.0272445678710938" lon="-7.0872268676757812">
        <ele>1272.0</ele>
        <time>2018-10-12T07:48:05.000Z</time>
      </trkpt>
      <trkpt lat="31.0272388458251953" lon="-7.0871858596801758">
        <ele>1272.0</ele>
        <time>2018-10-12T07:48:06.000Z</time>
      </trkpt>
      <trkpt lat="31.0272369384765625" lon="-7.0871458053588867">
        <ele>1272.0</ele>
        <time>2018-10-12T07:48:07.000Z</time>
      </trkpt>
      <trkpt lat="31.0272331237792969" lon="-7.0871047973632812">
        <ele>1272.0</ele>
        <time>2018-10-12T07:48:08.000Z</time>
      </trkpt>
      <trkpt lat="31.0272293090820312" lon="-7.0870661735534668">
        <ele>1272.0</ele>
        <time>2018-10-12T07:48:09.000Z</time>
      </trkpt>
      <trkpt lat="31.0272274017333984" lon="-7.0870280265808105">
        <ele>1272.0</ele>
        <time>2018-10-12T07:48:10.000Z</time>
      </trkpt>
      <trkpt lat="31.0272235870361328" lon="-7.0869889259338379">
        <ele>1271.178955078125</ele>
        <time>2018-10-12T07:48:11.000Z</time>
      </trkpt>
      <trkpt lat="31.0272197723388672" lon="-7.0869498252868652">
        <ele>1271.0</ele>
        <time>2018-10-12T07:48:12.000Z</time>
      </trkpt>
      <trkpt lat="31.0272159576416016" lon="-7.0869131088256836">
        <ele>1271.0</ele>
        <time>2018-10-12T07:48:13.000Z</time>
      </trkpt>
      <trkpt lat="31.0272121429443359" lon="-7.0868749618530273">
        <ele>1271.0</ele>
        <time>2018-10-12T07:48:14.000Z</time>
      </trkpt>
      <trkpt lat="31.0272045135498047" lon="-7.0868349075317383">
        <ele>1271.0</ele>
        <time>2018-10-12T07:48:15.000Z</time>
      </trkpt>
      <trkpt lat="31.0271911621093750" lon="-7.0867972373962402">
        <ele>1271.0</ele>
        <time>2018-10-12T07:48:16.000Z</time>
      </trkpt>
      <trkpt lat="31.0271663665771484" lon="-7.0867590904235840">
        <ele>1270.1845703125</ele>
        <time>2018-10-12T07:48:17.000Z</time>
      </trkpt>
      <trkpt lat="31.0271320343017578" lon="-7.0867238044738770">
        <ele>1270.0</ele>
        <time>2018-10-12T07:48:18.000Z</time>
      </trkpt>
      <trkpt lat="31.0270862579345703" lon="-7.0866999626159668">
        <ele>1270.0</ele>
        <time>2018-10-12T07:48:19.000Z</time>
      </trkpt>
      <trkpt lat="31.0270366668701172" lon="-7.0866799354553223">
        <ele>1270.0</ele>
        <time>2018-10-12T07:48:20.000Z</time>
      </trkpt>
      <trkpt lat="31.0269947052001953" lon="-7.0866599082946777">
        <ele>1270.0</ele>
        <time>2018-10-12T07:48:21.000Z</time>
      </trkpt>
      <trkpt lat="31.0269527435302734" lon="-7.0866408348083496">
        <ele>1269.178955078125</ele>
        <time>2018-10-12T07:48:22.000Z</time>
      </trkpt>
      <trkpt lat="31.0269126892089844" lon="-7.0866241455078125">
        <ele>1269.0</ele>
        <time>2018-10-12T07:48:23.000Z</time>
      </trkpt>
      <trkpt lat="31.0268764495849609" lon="-7.0866107940673828">
        <ele>1269.0</ele>
        <time>2018-10-12T07:48:24.000Z</time>
      </trkpt>
      <trkpt lat="31.0268402099609375" lon="-7.0866007804870605">
        <ele>1269.0</ele>
        <time>2018-10-12T07:48:25.000Z</time>
      </trkpt>
      <trkpt lat="31.0268077850341797" lon="-7.0865898132324219">
        <ele>1269.0</ele>
        <time>2018-10-12T07:48:26.000Z</time>
      </trkpt>
      <trkpt lat="31.0267696380615234" lon="-7.0865750312805176">
        <ele>1269.0</ele>
        <time>2018-10-12T07:48:27.000Z</time>
      </trkpt>
      <trkpt lat="31.0267333984375000" lon="-7.0865578651428223">
        <ele>1269.0</ele>
        <time>2018-10-12T07:48:28.000Z</time>
      </trkpt>
      <trkpt lat="31.0266952514648438" lon="-7.0865421295166016">
        <ele>1269.0</ele>
        <time>2018-10-12T07:48:29.000Z</time>
      </trkpt>
      <trkpt lat="31.0266571044921875" lon="-7.0865268707275391">
        <ele>1269.0</ele>
        <time>2018-10-12T07:48:30.000Z</time>
      </trkpt>
      <trkpt lat="31.0266208648681641" lon="-7.0865149497985840">
        <ele>1269.7406005859375</ele>
        <time>2018-10-12T07:48:31.000Z</time>
      </trkpt>
      <trkpt lat="31.0265827178955078" lon="-7.0865011215209961">
        <ele>1270.0</ele>
        <time>2018-10-12T07:48:32.000Z</time>
      </trkpt>
      <trkpt lat="31.0265445709228516" lon="-7.0864810943603516">
        <ele>1270.0</ele>
        <time>2018-10-12T07:48:33.000Z</time>
      </trkpt>
      <trkpt lat="31.0265083312988281" lon="-7.0864567756652832">
        <ele>1269.178955078125</ele>
        <time>2018-10-12T07:48:34.000Z</time>
      </trkpt>
      <trkpt lat="31.0264778137207031" lon="-7.0864291191101074">
        <ele>1269.0</ele>
        <time>2018-10-12T07:48:35.000Z</time>
      </trkpt>
      <trkpt lat="31.0264492034912109" lon="-7.0863962173461914">
        <ele>1269.0</ele>
        <time>2018-10-12T07:48:36.000Z</time>
      </trkpt>
      <trkpt lat="31.0264282226562500" lon="-7.0863571166992188">
        <ele>1269.0</ele>
        <time>2018-10-12T07:48:37.000Z</time>
      </trkpt>
      <trkpt lat="31.0264129638671875" lon="-7.0863151550292969">
        <ele>1269.0</ele>
        <time>2018-10-12T07:48:38.000Z</time>
      </trkpt>
      <trkpt lat="31.0264053344726562" lon="-7.0862708091735840">
        <ele>1269.0</ele>
        <time>2018-10-12T07:48:39.000Z</time>
      </trkpt>
      <trkpt lat="31.0264072418212891" lon="-7.0862259864807129">
        <ele>1269.0</ele>
        <time>2018-10-12T07:48:40.000Z</time>
      </trkpt>
      <trkpt lat="31.0264167785644531" lon="-7.0861830711364746">
        <ele>1269.0</ele>
        <time>2018-10-12T07:48:41.000Z</time>
      </trkpt>
      <trkpt lat="31.0264301300048828" lon="-7.0861430168151855">
        <ele>1269.0</ele>
        <time>2018-10-12T07:48:42.000Z</time>
      </trkpt>
      <trkpt lat="31.0264472961425781" lon="-7.0861082077026367">
        <ele>1269.0</ele>
        <time>2018-10-12T07:48:43.000Z</time>
      </trkpt>
      <trkpt lat="31.0264701843261719" lon="-7.0860791206359863">
        <ele>1269.626708984375</ele>
        <time>2018-10-12T07:48:44.000Z</time>
      </trkpt>
      <trkpt lat="31.0264930725097656" lon="-7.0860538482666016">
        <ele>1270.0</ele>
        <time>2018-10-12T07:48:45.000Z</time>
      </trkpt>
      <trkpt lat="31.0265178680419922" lon="-7.0860280990600586">
        <ele>1270.0</ele>
        <time>2018-10-12T07:48:46.000Z</time>
      </trkpt>
      <trkpt lat="31.0265369415283203" lon="-7.0859999656677246">
        <ele>1270.821044921875</ele>
        <time>2018-10-12T07:48:47.000Z</time>
      </trkpt>
      <trkpt lat="31.0265541076660156" lon="-7.0859708786010742">
        <ele>1271.0</ele>
        <time>2018-10-12T07:48:48.000Z</time>
      </trkpt>
      <trkpt lat="31.0265712738037109" lon="-7.0859432220458984">
        <ele>1271.0</ele>
        <time>2018-10-12T07:48:49.000Z</time>
      </trkpt>
      <trkpt lat="31.0265884399414062" lon="-7.0859160423278809">
        <ele>1271.0</ele>
        <time>2018-10-12T07:48:50.000Z</time>
      </trkpt>
      <trkpt lat="31.0266036987304688" lon="-7.0858907699584961">
        <ele>1271.0</ele>
        <time>2018-10-12T07:48:51.000Z</time>
      </trkpt>
      <trkpt lat="31.0266170501708984" lon="-7.0858669281005859">
        <ele>1271.821044921875</ele>
        <time>2018-10-12T07:48:52.000Z</time>
      </trkpt>
      <trkpt lat="31.0266323089599609" lon="-7.0858430862426758">
        <ele>1272.0</ele>
        <time>2018-10-12T07:48:53.000Z</time>
      </trkpt>
      <trkpt lat="31.0266494750976562" lon="-7.0858187675476074">
        <ele>1272.0</ele>
        <time>2018-10-12T07:48:54.000Z</time>
      </trkpt>
      <trkpt lat="31.0266666412353516" lon="-7.0857930183410645">
        <ele>1272.0</ele>
        <time>2018-10-12T07:48:55.000Z</time>
      </trkpt>
      <trkpt lat="31.0266819000244141" lon="-7.0857629776000977">
        <ele>1272.0</ele>
        <time>2018-10-12T07:48:56.000Z</time>
      </trkpt>
      <trkpt lat="31.0266971588134766" lon="-7.0857319831848145">
        <ele>1272.0</ele>
        <time>2018-10-12T07:48:57.000Z</time>
      </trkpt>
      <trkpt lat="31.0267124176025391" lon="-7.0856990814208984">
        <ele>1272.0</ele>
        <time>2018-10-12T07:48:58.000Z</time>
      </trkpt>
      <trkpt lat="31.0267257690429688" lon="-7.0856637954711914">
        <ele>1272.821044921875</ele>
        <time>2018-10-12T07:48:59.000Z</time>
      </trkpt>
      <trkpt lat="31.0267333984375000" lon="-7.0856299400329590">
        <ele>1273.0</ele>
        <time>2018-10-12T07:49:00.000Z</time>
      </trkpt>
      <trkpt lat="31.0267410278320312" lon="-7.0855951309204102">
        <ele>1273.0</ele>
        <time>2018-10-12T07:49:01.000Z</time>
      </trkpt>
      <trkpt lat="31.0267467498779297" lon="-7.0855622291564941">
        <ele>1273.0</ele>
        <time>2018-10-12T07:49:02.000Z</time>
      </trkpt>
      <trkpt lat="31.0267505645751953" lon="-7.0855312347412109">
        <ele>1273.0</ele>
        <time>2018-10-12T07:49:03.000Z</time>
      </trkpt>
      <trkpt lat="31.0267505645751953" lon="-7.0854978561401367">
        <ele>1273.0</ele>
        <time>2018-10-12T07:49:04.000Z</time>
      </trkpt>
      <trkpt lat="31.0267505645751953" lon="-7.0854649543762207">
        <ele>1273.0</ele>
        <time>2018-10-12T07:49:05.000Z</time>
      </trkpt>
      <trkpt lat="31.0267486572265625" lon="-7.0854330062866211">
        <ele>1273.0</ele>
        <time>2018-10-12T07:49:06.000Z</time>
      </trkpt>
      <trkpt lat="31.0267467498779297" lon="-7.0854010581970215">
        <ele>1273.0</ele>
        <time>2018-10-12T07:49:07.000Z</time>
      </trkpt>
      <trkpt lat="31.0267429351806641" lon="-7.0853691101074219">
        <ele>1273.0</ele>
        <time>2018-10-12T07:49:08.000Z</time>
      </trkpt>
      <trkpt lat="31.0267353057861328" lon="-7.0853371620178223">
        <ele>1273.821044921875</ele>
        <time>2018-10-12T07:49:09.000Z</time>
      </trkpt>
      <trkpt lat="31.0267276763916016" lon="-7.0853061676025391">
        <ele>1274.821044921875</ele>
        <time>2018-10-12T07:49:10.000Z</time>
      </trkpt>
      <trkpt lat="31.0267143249511719" lon="-7.0852751731872559">
        <ele>1275.0</ele>
        <time>2018-10-12T07:49:11.000Z</time>
      </trkpt>
      <trkpt lat="31.0266971588134766" lon="-7.0852460861206055">
        <ele>1275.0</ele>
        <time>2018-10-12T07:49:12.000Z</time>
      </trkpt>
      <trkpt lat="31.0266780853271484" lon="-7.0852198600769043">
        <ele>1275.0</ele>
        <time>2018-10-12T07:49:13.000Z</time>
      </trkpt>
      <trkpt lat="31.0266590118408203" lon="-7.0851931571960449">
        <ele>1275.0</ele>
        <time>2018-10-12T07:49:14.000Z</time>
      </trkpt>
      <trkpt lat="31.0266399383544922" lon="-7.0851669311523438">
        <ele>1275.0</ele>
        <time>2018-10-12T07:49:15.000Z</time>
      </trkpt>
      <trkpt lat="31.0266189575195312" lon="-7.0851421356201172">
        <ele>1275.0</ele>
        <time>2018-10-12T07:49:16.000Z</time>
      </trkpt>
      <trkpt lat="31.0265960693359375" lon="-7.0851178169250488">
        <ele>1275.0</ele>
        <time>2018-10-12T07:49:17.000Z</time>
      </trkpt>
      <trkpt lat="31.0265712738037109" lon="-7.0850968360900879">
        <ele>1275.626708984375</ele>
        <time>2018-10-12T07:49:18.000Z</time>
      </trkpt>
      <trkpt lat="31.0265464782714844" lon="-7.0850768089294434">
        <ele>1276.0</ele>
        <time>2018-10-12T07:49:19.000Z</time>
      </trkpt>
      <trkpt lat="31.0265197753906250" lon="-7.0850591659545898">
        <ele>1276.0</ele>
        <time>2018-10-12T07:49:20.000Z</time>
      </trkpt>
      <trkpt lat="31.0264892578125000" lon="-7.0850439071655273">
        <ele>1276.0</ele>
        <time>2018-10-12T07:49:21.000Z</time>
      </trkpt>
      <trkpt lat="31.0264606475830078" lon="-7.0850319862365723">
        <ele>1276.0</ele>
        <time>2018-10-12T07:49:22.000Z</time>
      </trkpt>
      <trkpt lat="31.0264282226562500" lon="-7.0850229263305664">
        <ele>1276.0</ele>
        <time>2018-10-12T07:49:23.000Z</time>
      </trkpt>
      <trkpt lat="31.0263977050781250" lon="-7.0850157737731934">
        <ele>1276.0</ele>
        <time>2018-10-12T07:49:24.000Z</time>
      </trkpt>
      <trkpt lat="31.0263671875000000" lon="-7.0850100517272949">
        <ele>1276.0</ele>
        <time>2018-10-12T07:49:25.000Z</time>
      </trkpt>
      <trkpt lat="31.0263366699218750" lon="-7.0850038528442383">
        <ele>1276.0</ele>
        <time>2018-10-12T07:49:26.000Z</time>
      </trkpt>
      <trkpt lat="31.0263042449951172" lon="-7.0849938392639160">
        <ele>1276.0</ele>
        <time>2018-10-12T07:49:27.000Z</time>
      </trkpt>
      <trkpt lat="31.0262756347656250" lon="-7.0849800109863281">
        <ele>1276.0</ele>
        <time>2018-10-12T07:49:28.000Z</time>
      </trkpt>
      <trkpt lat="31.0262470245361328" lon="-7.0849637985229492">
        <ele>1276.0</ele>
        <time>2018-10-12T07:49:29.000Z</time>
      </trkpt>
      <trkpt lat="31.0262184143066406" lon="-7.0849490165710449">
        <ele>1276.0</ele>
        <time>2018-10-12T07:49:30.000Z</time>
      </trkpt>
      <trkpt lat="31.0261898040771484" lon="-7.0849318504333496">
        <ele>1276.0</ele>
        <time>2018-10-12T07:49:31.000Z</time>
      </trkpt>
      <trkpt lat="31.0261631011962891" lon="-7.0849118232727051">
        <ele>1276.0</ele>
        <time>2018-10-12T07:49:32.000Z</time>
      </trkpt>
      <trkpt lat="31.0261363983154297" lon="-7.0848889350891113">
        <ele>1276.0</ele>
        <time>2018-10-12T07:49:33.000Z</time>
      </trkpt>
      <trkpt lat="31.0261096954345703" lon="-7.0848641395568848">
        <ele>1276.0</ele>
        <time>2018-10-12T07:49:34.000Z</time>
      </trkpt>
      <trkpt lat="31.0260848999023438" lon="-7.0848340988159180">
        <ele>1276.0</ele>
        <time>2018-10-12T07:49:35.000Z</time>
      </trkpt>
      <trkpt lat="31.0260601043701172" lon="-7.0848011970520020">
        <ele>1276.0</ele>
        <time>2018-10-12T07:49:36.000Z</time>
      </trkpt>
      <trkpt lat="31.0260353088378906" lon="-7.0847668647766113">
        <ele>1276.0</ele>
        <time>2018-10-12T07:49:37.000Z</time>
      </trkpt>
      <trkpt lat="31.0260105133056641" lon="-7.0847330093383789">
        <ele>1276.0</ele>
        <time>2018-10-12T07:49:38.000Z</time>
      </trkpt>
      <trkpt lat="31.0259876251220703" lon="-7.0846967697143555">
        <ele>1276.0</ele>
        <time>2018-10-12T07:49:39.000Z</time>
      </trkpt>
      <trkpt lat="31.0259704589843750" lon="-7.0846571922302246">
        <ele>1276.0</ele>
        <time>2018-10-12T07:49:40.000Z</time>
      </trkpt>
      <trkpt lat="31.0259552001953125" lon="-7.0846152305603027">
        <ele>1276.0</ele>
        <time>2018-10-12T07:49:41.000Z</time>
      </trkpt>
      <trkpt lat="31.0259418487548828" lon="-7.0845718383789062">
        <ele>1276.0</ele>
        <time>2018-10-12T07:49:42.000Z</time>
      </trkpt>
      <trkpt lat="31.0259284973144531" lon="-7.0845279693603516">
        <ele>1276.0</ele>
        <time>2018-10-12T07:49:43.000Z</time>
      </trkpt>
      <trkpt lat="31.0259170532226562" lon="-7.0844821929931641">
        <ele>1276.0</ele>
        <time>2018-10-12T07:49:44.000Z</time>
      </trkpt>
      <trkpt lat="31.0259075164794922" lon="-7.0844349861145020">
        <ele>1276.0</ele>
        <time>2018-10-12T07:49:45.000Z</time>
      </trkpt>
      <trkpt lat="31.0258979797363281" lon="-7.0843877792358398">
        <ele>1276.0</ele>
        <time>2018-10-12T07:49:46.000Z</time>
      </trkpt>
      <trkpt lat="31.0258884429931641" lon="-7.0843391418457031">
        <ele>1275.2557373046875</ele>
        <time>2018-10-12T07:49:47.000Z</time>
      </trkpt>
      <trkpt lat="31.0258808135986328" lon="-7.0842890739440918">
        <ele>1275.0</ele>
        <time>2018-10-12T07:49:48.000Z</time>
      </trkpt>
      <trkpt lat="31.0258731842041016" lon="-7.0842370986938477">
        <ele>1275.0</ele>
        <time>2018-10-12T07:49:49.000Z</time>
      </trkpt>
      <trkpt lat="31.0258693695068359" lon="-7.0841841697692871">
        <ele>1275.0</ele>
        <time>2018-10-12T07:49:50.000Z</time>
      </trkpt>
      <trkpt lat="31.0258655548095703" lon="-7.0841298103332520">
        <ele>1275.0</ele>
        <time>2018-10-12T07:49:51.000Z</time>
      </trkpt>
      <trkpt lat="31.0258617401123047" lon="-7.0840768814086914">
        <ele>1275.0</ele>
        <time>2018-10-12T07:49:52.000Z</time>
      </trkpt>
      <trkpt lat="31.0258617401123047" lon="-7.0840239524841309">
        <ele>1275.0</ele>
        <time>2018-10-12T07:49:53.000Z</time>
      </trkpt>
      <trkpt lat="31.0258617401123047" lon="-7.0839719772338867">
        <ele>1275.0</ele>
        <time>2018-10-12T07:49:54.000Z</time>
      </trkpt>
      <trkpt lat="31.0258636474609375" lon="-7.0839200019836426">
        <ele>1275.0</ele>
        <time>2018-10-12T07:49:55.000Z</time>
      </trkpt>
      <trkpt lat="31.0258674621582031" lon="-7.0838680267333984">
        <ele>1275.0</ele>
        <time>2018-10-12T07:49:56.000Z</time>
      </trkpt>
      <trkpt lat="31.0258712768554688" lon="-7.0838160514831543">
        <ele>1275.0</ele>
        <time>2018-10-12T07:49:57.000Z</time>
      </trkpt>
      <trkpt lat="31.0258750915527344" lon="-7.0837650299072266">
        <ele>1275.0</ele>
        <time>2018-10-12T07:49:58.000Z</time>
      </trkpt>
      <trkpt lat="31.0258808135986328" lon="-7.0837149620056152">
        <ele>1275.0</ele>
        <time>2018-10-12T07:49:59.000Z</time>
      </trkpt>
      <trkpt lat="31.0258884429931641" lon="-7.0836648941040039">
        <ele>1275.0</ele>
        <time>2018-10-12T07:50:00.000Z</time>
      </trkpt>
      <trkpt lat="31.0258960723876953" lon="-7.0836172103881836">
        <ele>1275.0</ele>
        <time>2018-10-12T07:50:01.000Z</time>
      </trkpt>
      <trkpt lat="31.0259056091308594" lon="-7.0835690498352051">
        <ele>1275.0</ele>
        <time>2018-10-12T07:50:02.000Z</time>
      </trkpt>
      <trkpt lat="31.0259170532226562" lon="-7.0835218429565430">
        <ele>1275.0</ele>
        <time>2018-10-12T07:50:03.000Z</time>
      </trkpt>
      <trkpt lat="31.0259284973144531" lon="-7.0834770202636719">
        <ele>1275.821044921875</ele>
        <time>2018-10-12T07:50:04.000Z</time>
      </trkpt>
      <trkpt lat="31.0259380340576172" lon="-7.0834331512451172">
        <ele>1276.0</ele>
        <time>2018-10-12T07:50:05.000Z</time>
      </trkpt>
      <trkpt lat="31.0259475708007812" lon="-7.0833888053894043">
        <ele>1276.0</ele>
        <time>2018-10-12T07:50:06.000Z</time>
      </trkpt>
      <trkpt lat="31.0259571075439453" lon="-7.0833477973937988">
        <ele>1276.0</ele>
        <time>2018-10-12T07:50:07.000Z</time>
      </trkpt>
      <trkpt lat="31.0259685516357422" lon="-7.0833067893981934">
        <ele>1276.0</ele>
        <time>2018-10-12T07:50:08.000Z</time>
      </trkpt>
      <trkpt lat="31.0259799957275391" lon="-7.0832657814025879">
        <ele>1276.0</ele>
        <time>2018-10-12T07:50:09.000Z</time>
      </trkpt>
      <trkpt lat="31.0259895324707031" lon="-7.0832238197326660">
        <ele>1276.0</ele>
        <time>2018-10-12T07:50:10.000Z</time>
      </trkpt>
      <trkpt lat="31.0259952545166016" lon="-7.0831780433654785">
        <ele>1276.0</ele>
        <time>2018-10-12T07:50:11.000Z</time>
      </trkpt>
      <trkpt lat="31.0259971618652344" lon="-7.0831270217895508">
        <ele>1276.0</ele>
        <time>2018-10-12T07:50:12.000Z</time>
      </trkpt>
      <trkpt lat="31.0259933471679688" lon="-7.0830769538879395">
        <ele>1276.0</ele>
        <time>2018-10-12T07:50:13.000Z</time>
      </trkpt>
      <trkpt lat="31.0259876251220703" lon="-7.0830287933349609">
        <ele>1276.0</ele>
        <time>2018-10-12T07:50:14.000Z</time>
      </trkpt>
      <trkpt lat="31.0259799957275391" lon="-7.0829830169677734">
        <ele>1276.0</ele>
        <time>2018-10-12T07:50:15.000Z</time>
      </trkpt>
      <trkpt lat="31.0259723663330078" lon="-7.0829391479492188">
        <ele>1276.0</ele>
        <time>2018-10-12T07:50:16.000Z</time>
      </trkpt>
      <trkpt lat="31.0259628295898438" lon="-7.0828962326049805">
        <ele>1276.0</ele>
        <time>2018-10-12T07:50:17.000Z</time>
      </trkpt>
      <trkpt lat="31.0259513854980469" lon="-7.0828571319580078">
        <ele>1276.0</ele>
        <time>2018-10-12T07:50:18.000Z</time>
      </trkpt>
      <trkpt lat="31.0259399414062500" lon="-7.0828242301940918">
        <ele>1276.0</ele>
        <time>2018-10-12T07:50:19.000Z</time>
      </trkpt>
      <trkpt lat="31.0259246826171875" lon="-7.0827960968017578">
        <ele>1276.0</ele>
        <time>2018-10-12T07:50:20.000Z</time>
      </trkpt>
      <trkpt lat="31.0259037017822266" lon="-7.0827717781066895">
        <ele>1276.0</ele>
        <time>2018-10-12T07:50:21.000Z</time>
      </trkpt>
      <trkpt lat="31.0258808135986328" lon="-7.0827541351318359">
        <ele>1276.0</ele>
        <time>2018-10-12T07:50:22.000Z</time>
      </trkpt>
      <trkpt lat="31.0258522033691406" lon="-7.0827398300170898">
        <ele>1276.0</ele>
        <time>2018-10-12T07:50:23.000Z</time>
      </trkpt>
      <trkpt lat="31.0258274078369141" lon="-7.0827279090881348">
        <ele>1276.0</ele>
        <time>2018-10-12T07:50:24.000Z</time>
      </trkpt>
      <trkpt lat="31.0258064270019531" lon="-7.0827150344848633">
        <ele>1276.0</ele>
        <time>2018-10-12T07:50:25.000Z</time>
      </trkpt>
      <trkpt lat="31.0257873535156250" lon="-7.0826997756958008">
        <ele>1276.0</ele>
        <time>2018-10-12T07:50:26.000Z</time>
      </trkpt>
      <trkpt lat="31.0257682800292969" lon="-7.0826821327209473">
        <ele>1276.0</ele>
        <time>2018-10-12T07:50:27.000Z</time>
      </trkpt>
      <trkpt lat="31.0257492065429688" lon="-7.0826578140258789">
        <ele>1276.0</ele>
        <time>2018-10-12T07:50:28.000Z</time>
      </trkpt>
      <trkpt lat="31.0257282257080078" lon="-7.0826311111450195">
        <ele>1276.0</ele>
        <time>2018-10-12T07:50:29.000Z</time>
      </trkpt>
      <trkpt lat="31.0257072448730469" lon="-7.0826029777526855">
        <ele>1276.0</ele>
        <time>2018-10-12T07:50:30.000Z</time>
      </trkpt>
      <trkpt lat="31.0256881713867188" lon="-7.0825748443603516">
        <ele>1276.0</ele>
        <time>2018-10-12T07:50:31.000Z</time>
      </trkpt>
      <trkpt lat="31.0256729125976562" lon="-7.0825481414794922">
        <ele>1276.0</ele>
        <time>2018-10-12T07:50:32.000Z</time>
      </trkpt>
      <trkpt lat="31.0256576538085938" lon="-7.0825209617614746">
        <ele>1276.0</ele>
        <time>2018-10-12T07:50:33.000Z</time>
      </trkpt>
      <trkpt lat="31.0256366729736328" lon="-7.0824971199035645">
        <ele>1276.821044921875</ele>
        <time>2018-10-12T07:50:34.000Z</time>
      </trkpt>
      <trkpt lat="31.0256175994873047" lon="-7.0824728012084961">
        <ele>1277.0</ele>
        <time>2018-10-12T07:50:35.000Z</time>
      </trkpt>
      <trkpt lat="31.0255966186523438" lon="-7.0824480056762695">
        <ele>1277.0</ele>
        <time>2018-10-12T07:50:36.000Z</time>
      </trkpt>
      <trkpt lat="31.0255794525146484" lon="-7.0824208259582520">
        <ele>1277.0</ele>
        <time>2018-10-12T07:50:37.000Z</time>
      </trkpt>
      <trkpt lat="31.0255603790283203" lon="-7.0823931694030762">
        <ele>1277.0</ele>
        <time>2018-10-12T07:50:38.000Z</time>
      </trkpt>
      <trkpt lat="31.0255432128906250" lon="-7.0823650360107422">
        <ele>1277.821044921875</ele>
        <time>2018-10-12T07:50:39.000Z</time>
      </trkpt>
      <trkpt lat="31.0255241394042969" lon="-7.0823359489440918">
        <ele>1278.0</ele>
        <time>2018-10-12T07:50:40.000Z</time>
      </trkpt>
      <trkpt lat="31.0255050659179688" lon="-7.0823049545288086">
        <ele>1278.0</ele>
        <time>2018-10-12T07:50:41.000Z</time>
      </trkpt>
      <trkpt lat="31.0254898071289062" lon="-7.0822720527648926">
        <ele>1278.0</ele>
        <time>2018-10-12T07:50:42.000Z</time>
      </trkpt>
      <trkpt lat="31.0254726409912109" lon="-7.0822358131408691">
        <ele>1278.0</ele>
        <time>2018-10-12T07:50:43.000Z</time>
      </trkpt>
      <trkpt lat="31.0254554748535156" lon="-7.0822010040283203">
        <ele>1278.0</ele>
        <time>2018-10-12T07:50:44.000Z</time>
      </trkpt>
      <trkpt lat="31.0254383087158203" lon="-7.0821647644042969">
        <ele>1278.0</ele>
        <time>2018-10-12T07:50:45.000Z</time>
      </trkpt>
      <trkpt lat="31.0254211425781250" lon="-7.0821299552917480">
        <ele>1278.0</ele>
        <time>2018-10-12T07:50:46.000Z</time>
      </trkpt>
      <trkpt lat="31.0254058837890625" lon="-7.0820980072021484">
        <ele>1278.0</ele>
        <time>2018-10-12T07:50:47.000Z</time>
      </trkpt>
      <trkpt lat="31.0253868103027344" lon="-7.0820698738098145">
        <ele>1278.0</ele>
        <time>2018-10-12T07:50:48.000Z</time>
      </trkpt>
      <trkpt lat="31.0253658294677734" lon="-7.0820431709289551">
        <ele>1278.0</ele>
        <time>2018-10-12T07:50:49.000Z</time>
      </trkpt>
      <trkpt lat="31.0253448486328125" lon="-7.0820169448852539">
        <ele>1278.0</ele>
        <time>2018-10-12T07:50:50.000Z</time>
      </trkpt>
      <trkpt lat="31.0253238677978516" lon="-7.0819921493530273">
        <ele>1278.0</ele>
        <time>2018-10-12T07:50:51.000Z</time>
      </trkpt>
      <trkpt lat="31.0253028869628906" lon="-7.0819678306579590">
        <ele>1278.0</ele>
        <time>2018-10-12T07:50:52.000Z</time>
      </trkpt>
      <trkpt lat="31.0252780914306641" lon="-7.0819439888000488">
        <ele>1278.0</ele>
        <time>2018-10-12T07:50:53.000Z</time>
      </trkpt>
      <trkpt lat="31.0252552032470703" lon="-7.0819191932678223">
        <ele>1278.0</ele>
        <time>2018-10-12T07:50:54.000Z</time>
      </trkpt>
      <trkpt lat="31.0252323150634766" lon="-7.0818939208984375">
        <ele>1278.0</ele>
        <time>2018-10-12T07:50:55.000Z</time>
      </trkpt>
      <trkpt lat="31.0252094268798828" lon="-7.0818681716918945">
        <ele>1278.0</ele>
        <time>2018-10-12T07:50:56.000Z</time>
      </trkpt>
      <trkpt lat="31.0251865386962891" lon="-7.0818409919738770">
        <ele>1278.0</ele>
        <time>2018-10-12T07:50:57.000Z</time>
      </trkpt>
      <trkpt lat="31.0251655578613281" lon="-7.0818119049072266">
        <ele>1278.0</ele>
        <time>2018-10-12T07:50:58.000Z</time>
      </trkpt>
      <trkpt lat="31.0251445770263672" lon="-7.0817837715148926">
        <ele>1278.0</ele>
        <time>2018-10-12T07:50:59.000Z</time>
      </trkpt>
      <trkpt lat="31.0251235961914062" lon="-7.0817570686340332">
        <ele>1278.0</ele>
        <time>2018-10-12T07:51:00.000Z</time>
      </trkpt>
      <trkpt lat="31.0251026153564453" lon="-7.0817298889160156">
        <ele>1278.0</ele>
        <time>2018-10-12T07:51:01.000Z</time>
      </trkpt>
      <trkpt lat="31.0250835418701172" lon="-7.0817022323608398">
        <ele>1278.0</ele>
        <time>2018-10-12T07:51:02.000Z</time>
      </trkpt>
      <trkpt lat="31.0250682830810547" lon="-7.0816688537597656">
        <ele>1278.0</ele>
        <time>2018-10-12T07:51:03.000Z</time>
      </trkpt>
      <trkpt lat="31.0250530242919922" lon="-7.0816311836242676">
        <ele>1278.821044921875</ele>
        <time>2018-10-12T07:51:04.000Z</time>
      </trkpt>
      <trkpt lat="31.0250396728515625" lon="-7.0815920829772949">
        <ele>1279.0</ele>
        <time>2018-10-12T07:51:05.000Z</time>
      </trkpt>
      <trkpt lat="31.0250225067138672" lon="-7.0815548896789551">
        <ele>1279.0</ele>
        <time>2018-10-12T07:51:06.000Z</time>
      </trkpt>
      <trkpt lat="31.0250015258789062" lon="-7.0815200805664062">
        <ele>1279.0</ele>
        <time>2018-10-12T07:51:07.000Z</time>
      </trkpt>
      <trkpt lat="31.0249805450439453" lon="-7.0814871788024902">
        <ele>1279.0</ele>
        <time>2018-10-12T07:51:08.000Z</time>
      </trkpt>
      <trkpt lat="31.0249595642089844" lon="-7.0814528465270996">
        <ele>1279.0</ele>
        <time>2018-10-12T07:51:09.000Z</time>
      </trkpt>
      <trkpt lat="31.0249404907226562" lon="-7.0814170837402344">
        <ele>1279.0</ele>
        <time>2018-10-12T07:51:10.000Z</time>
      </trkpt>
      <trkpt lat="31.0249195098876953" lon="-7.0813817977905273">
        <ele>1279.0</ele>
        <time>2018-10-12T07:51:11.000Z</time>
      </trkpt>
      <trkpt lat="31.0248966217041016" lon="-7.0813479423522949">
        <ele>1279.0</ele>
        <time>2018-10-12T07:51:12.000Z</time>
      </trkpt>
      <trkpt lat="31.0248737335205078" lon="-7.0813150405883789">
        <ele>1279.0</ele>
        <time>2018-10-12T07:51:13.000Z</time>
      </trkpt>
      <trkpt lat="31.0248527526855469" lon="-7.0812811851501465">
        <ele>1279.0</ele>
        <time>2018-10-12T07:51:14.000Z</time>
      </trkpt>
      <trkpt lat="31.0248298645019531" lon="-7.0812468528747559">
        <ele>1279.0</ele>
        <time>2018-10-12T07:51:15.000Z</time>
      </trkpt>
      <trkpt lat="31.0248050689697266" lon="-7.0812149047851562">
        <ele>1279.0</ele>
        <time>2018-10-12T07:51:16.000Z</time>
      </trkpt>
      <trkpt lat="31.0247821807861328" lon="-7.0811839103698730">
        <ele>1279.0</ele>
        <time>2018-10-12T07:51:17.000Z</time>
      </trkpt>
      <trkpt lat="31.0247631072998047" lon="-7.0811519622802734">
        <ele>1279.0</ele>
        <time>2018-10-12T07:51:18.000Z</time>
      </trkpt>
      <trkpt lat="31.0247478485107422" lon="-7.0811161994934082">
        <ele>1279.0</ele>
        <time>2018-10-12T07:51:19.000Z</time>
      </trkpt>
      <trkpt lat="31.0247287750244141" lon="-7.0810799598693848">
        <ele>1279.0</ele>
        <time>2018-10-12T07:51:20.000Z</time>
      </trkpt>
      <trkpt lat="31.0247097015380859" lon="-7.0810427665710449">
        <ele>1279.0</ele>
        <time>2018-10-12T07:51:21.000Z</time>
      </trkpt>
      <trkpt lat="31.0246887207031250" lon="-7.0810079574584961">
        <ele>1279.0</ele>
        <time>2018-10-12T07:51:22.000Z</time>
      </trkpt>
      <trkpt lat="31.0246658325195312" lon="-7.0809721946716309">
        <ele>1279.0</ele>
        <time>2018-10-12T07:51:23.000Z</time>
      </trkpt>
      <trkpt lat="31.0246391296386719" lon="-7.0809359550476074">
        <ele>1279.0</ele>
        <time>2018-10-12T07:51:24.000Z</time>
      </trkpt>
      <trkpt lat="31.0246124267578125" lon="-7.0809001922607422">
        <ele>1279.0</ele>
        <time>2018-10-12T07:51:25.000Z</time>
      </trkpt>
      <trkpt lat="31.0245857238769531" lon="-7.0808639526367188">
        <ele>1279.0</ele>
        <time>2018-10-12T07:51:26.000Z</time>
      </trkpt>
      <trkpt lat="31.0245590209960938" lon="-7.0808291435241699">
        <ele>1279.0</ele>
        <time>2018-10-12T07:51:27.000Z</time>
      </trkpt>
      <trkpt lat="31.0245323181152344" lon="-7.0807938575744629">
        <ele>1279.0</ele>
        <time>2018-10-12T07:51:28.000Z</time>
      </trkpt>
      <trkpt lat="31.0245075225830078" lon="-7.0807561874389648">
        <ele>1279.7442626953125</ele>
        <time>2018-10-12T07:51:29.000Z</time>
      </trkpt>
      <trkpt lat="31.0244827270507812" lon="-7.0807189941406250">
        <ele>1280.0</ele>
        <time>2018-10-12T07:51:30.000Z</time>
      </trkpt>
      <trkpt lat="31.0244579315185547" lon="-7.0806798934936523">
        <ele>1280.0</ele>
        <time>2018-10-12T07:51:31.000Z</time>
      </trkpt>
      <trkpt lat="31.0244312286376953" lon="-7.0806431770324707">
        <ele>1280.0</ele>
        <time>2018-10-12T07:51:32.000Z</time>
      </trkpt>
      <trkpt lat="31.0244064331054688" lon="-7.0806040763854980">
        <ele>1280.0</ele>
        <time>2018-10-12T07:51:33.000Z</time>
      </trkpt>
      <trkpt lat="31.0243816375732422" lon="-7.0805649757385254">
        <ele>1280.0</ele>
        <time>2018-10-12T07:51:34.000Z</time>
      </trkpt>
      <trkpt lat="31.0243549346923828" lon="-7.0805258750915527">
        <ele>1280.0</ele>
        <time>2018-10-12T07:51:35.000Z</time>
      </trkpt>
      <trkpt lat="31.0243282318115234" lon="-7.0804858207702637">
        <ele>1280.0</ele>
        <time>2018-10-12T07:51:36.000Z</time>
      </trkpt>
      <trkpt lat="31.0243015289306641" lon="-7.0804457664489746">
        <ele>1280.0</ele>
        <time>2018-10-12T07:51:37.000Z</time>
      </trkpt>
      <trkpt lat="31.0242748260498047" lon="-7.0804071426391602">
        <ele>1280.0</ele>
        <time>2018-10-12T07:51:38.000Z</time>
      </trkpt>
      <trkpt lat="31.0242462158203125" lon="-7.0803670883178711">
        <ele>1280.0</ele>
        <time>2018-10-12T07:51:39.000Z</time>
      </trkpt>
      <trkpt lat="31.0242195129394531" lon="-7.0803260803222656">
        <ele>1280.0</ele>
        <time>2018-10-12T07:51:40.000Z</time>
      </trkpt>
      <trkpt lat="31.0241909027099609" lon="-7.0802850723266602">
        <ele>1280.0</ele>
        <time>2018-10-12T07:51:41.000Z</time>
      </trkpt>
      <trkpt lat="31.0241603851318359" lon="-7.0802412033081055">
        <ele>1280.0</ele>
        <time>2018-10-12T07:51:42.000Z</time>
      </trkpt>
      <trkpt lat="31.0241298675537109" lon="-7.0801968574523926">
        <ele>1280.0</ele>
        <time>2018-10-12T07:51:43.000Z</time>
      </trkpt>
      <trkpt lat="31.0240993499755859" lon="-7.0801520347595215">
        <ele>1280.0</ele>
        <time>2018-10-12T07:51:44.000Z</time>
      </trkpt>
      <trkpt lat="31.0240726470947266" lon="-7.0801048278808594">
        <ele>1280.0</ele>
        <time>2018-10-12T07:51:45.000Z</time>
      </trkpt>
      <trkpt lat="31.0240440368652344" lon="-7.0800561904907227">
        <ele>1280.0</ele>
        <time>2018-10-12T07:51:46.000Z</time>
      </trkpt>
      <trkpt lat="31.0240173339843750" lon="-7.0800061225891113">
        <ele>1280.0</ele>
        <time>2018-10-12T07:51:47.000Z</time>
      </trkpt>
      <trkpt lat="31.0239925384521484" lon="-7.0799551010131836">
        <ele>1279.6072998046875</ele>
        <time>2018-10-12T07:51:48.000Z</time>
      </trkpt>
      <trkpt lat="31.0239734649658203" lon="-7.0799031257629395">
        <ele>1279.0</ele>
        <time>2018-10-12T07:51:49.000Z</time>
      </trkpt>
      <trkpt lat="31.0239543914794922" lon="-7.0798530578613281">
        <ele>1279.0</ele>
        <time>2018-10-12T07:51:50.000Z</time>
      </trkpt>
      <trkpt lat="31.0239372253417969" lon="-7.0798029899597168">
        <ele>1279.0</ele>
        <time>2018-10-12T07:51:51.000Z</time>
      </trkpt>
      <trkpt lat="31.0239219665527344" lon="-7.0797557830810547">
        <ele>1279.0</ele>
        <time>2018-10-12T07:51:52.000Z</time>
      </trkpt>
      <trkpt lat="31.0239048004150391" lon="-7.0797138214111328">
        <ele>1279.0</ele>
        <time>2018-10-12T07:51:53.000Z</time>
      </trkpt>
      <trkpt lat="31.0238857269287109" lon="-7.0796790122985840">
        <ele>1279.0</ele>
        <time>2018-10-12T07:51:54.000Z</time>
      </trkpt>
      <trkpt lat="31.0238647460937500" lon="-7.0796499252319336">
        <ele>1279.0</ele>
        <time>2018-10-12T07:51:55.000Z</time>
      </trkpt>
      <trkpt lat="31.0238399505615234" lon="-7.0796279907226562">
        <ele>1279.0</ele>
        <time>2018-10-12T07:51:56.000Z</time>
      </trkpt>
      <trkpt lat="31.0238132476806641" lon="-7.0796070098876953">
        <ele>1279.0</ele>
        <time>2018-10-12T07:51:57.000Z</time>
      </trkpt>
      <trkpt lat="31.0237865447998047" lon="-7.0795850753784180">
        <ele>1279.0</ele>
        <time>2018-10-12T07:51:58.000Z</time>
      </trkpt>
      <trkpt lat="31.0237560272216797" lon="-7.0795612335205078">
        <ele>1279.0</ele>
        <time>2018-10-12T07:51:59.000Z</time>
      </trkpt>
      <trkpt lat="31.0237255096435547" lon="-7.0795321464538574">
        <ele>1278.373291015625</ele>
        <time>2018-10-12T07:52:00.000Z</time>
      </trkpt>
      <trkpt lat="31.0236968994140625" lon="-7.0794968605041504">
        <ele>1278.0</ele>
        <time>2018-10-12T07:52:01.000Z</time>
      </trkpt>
      <trkpt lat="31.0236721038818359" lon="-7.0794548988342285">
        <ele>1278.0</ele>
        <time>2018-10-12T07:52:02.000Z</time>
      </trkpt>
      <trkpt lat="31.0236530303955078" lon="-7.0794091224670410">
        <ele>1278.0</ele>
        <time>2018-10-12T07:52:03.000Z</time>
      </trkpt>
      <trkpt lat="31.0236358642578125" lon="-7.0793619155883789">
        <ele>1278.0</ele>
        <time>2018-10-12T07:52:04.000Z</time>
      </trkpt>
      <trkpt lat="31.0236148834228516" lon="-7.0793161392211914">
        <ele>1278.0</ele>
        <time>2018-10-12T07:52:05.000Z</time>
      </trkpt>
      <trkpt lat="31.0235881805419922" lon="-7.0792751312255859">
        <ele>1278.0</ele>
        <time>2018-10-12T07:52:06.000Z</time>
      </trkpt>
      <trkpt lat="31.0235595703125000" lon="-7.0792388916015625">
        <ele>1278.0</ele>
        <time>2018-10-12T07:52:07.000Z</time>
      </trkpt>
      <trkpt lat="31.0235271453857422" lon="-7.0792050361633301">
        <ele>1278.0</ele>
        <time>2018-10-12T07:52:08.000Z</time>
      </trkpt>
      <trkpt lat="31.0234966278076172" lon="-7.0791759490966797">
        <ele>1278.0</ele>
        <time>2018-10-12T07:52:09.000Z</time>
      </trkpt>
      <trkpt lat="31.0234661102294922" lon="-7.0791501998901367">
        <ele>1278.0</ele>
        <time>2018-10-12T07:52:10.000Z</time>
      </trkpt>
      <trkpt lat="31.0234375000000000" lon="-7.0791249275207520">
        <ele>1278.0</ele>
        <time>2018-10-12T07:52:11.000Z</time>
      </trkpt>
      <trkpt lat="31.0234088897705078" lon="-7.0791001319885254">
        <ele>1278.0</ele>
        <time>2018-10-12T07:52:12.000Z</time>
      </trkpt>
      <trkpt lat="31.0233783721923828" lon="-7.0790767669677734">
        <ele>1278.6173095703125</ele>
        <time>2018-10-12T07:52:13.000Z</time>
      </trkpt>
      <trkpt lat="31.0233497619628906" lon="-7.0790548324584961">
        <ele>1279.0</ele>
        <time>2018-10-12T07:52:14.000Z</time>
      </trkpt>
      <trkpt lat="31.0233211517333984" lon="-7.0790328979492188">
        <ele>1279.0</ele>
        <time>2018-10-12T07:52:15.000Z</time>
      </trkpt>
      <trkpt lat="31.0232925415039062" lon="-7.0790100097656250">
        <ele>1279.0</ele>
        <time>2018-10-12T07:52:16.000Z</time>
      </trkpt>
      <trkpt lat="31.0232658386230469" lon="-7.0789861679077148">
        <ele>1279.0</ele>
        <time>2018-10-12T07:52:17.000Z</time>
      </trkpt>
      <trkpt lat="31.0232372283935547" lon="-7.0789618492126465">
        <ele>1279.0</ele>
        <time>2018-10-12T07:52:18.000Z</time>
      </trkpt>
      <trkpt lat="31.0232067108154297" lon="-7.0789389610290527">
        <ele>1279.0</ele>
        <time>2018-10-12T07:52:19.000Z</time>
      </trkpt>
      <trkpt lat="31.0231781005859375" lon="-7.0789141654968262">
        <ele>1279.0</ele>
        <time>2018-10-12T07:52:20.000Z</time>
      </trkpt>
      <trkpt lat="31.0231475830078125" lon="-7.0788888931274414">
        <ele>1279.0</ele>
        <time>2018-10-12T07:52:21.000Z</time>
      </trkpt>
      <trkpt lat="31.0231189727783203" lon="-7.0788631439208984">
        <ele>1279.0</ele>
        <time>2018-10-12T07:52:22.000Z</time>
      </trkpt>
      <trkpt lat="31.0230884552001953" lon="-7.0788359642028809">
        <ele>1279.0</ele>
        <time>2018-10-12T07:52:23.000Z</time>
      </trkpt>
      <trkpt lat="31.0230598449707031" lon="-7.0788102149963379">
        <ele>1279.0</ele>
        <time>2018-10-12T07:52:24.000Z</time>
      </trkpt>
      <trkpt lat="31.0230293273925781" lon="-7.0787830352783203">
        <ele>1279.0</ele>
        <time>2018-10-12T07:52:25.000Z</time>
      </trkpt>
      <trkpt lat="31.0229988098144531" lon="-7.0787549018859863">
        <ele>1279.0</ele>
        <time>2018-10-12T07:52:26.000Z</time>
      </trkpt>
      <trkpt lat="31.0229682922363281" lon="-7.0787267684936523">
        <ele>1279.0</ele>
        <time>2018-10-12T07:52:27.000Z</time>
      </trkpt>
      <trkpt lat="31.0229377746582031" lon="-7.0787000656127930">
        <ele>1279.0</ele>
        <time>2018-10-12T07:52:28.000Z</time>
      </trkpt>
      <trkpt lat="31.0229034423828125" lon="-7.0786709785461426">
        <ele>1279.0</ele>
        <time>2018-10-12T07:52:29.000Z</time>
      </trkpt>
      <trkpt lat="31.0228729248046875" lon="-7.0786418914794922">
        <ele>1279.821044921875</ele>
        <time>2018-10-12T07:52:30.000Z</time>
      </trkpt>
      <trkpt lat="31.0228385925292969" lon="-7.0786128044128418">
        <ele>1280.0</ele>
        <time>2018-10-12T07:52:31.000Z</time>
      </trkpt>
      <trkpt lat="31.0228042602539062" lon="-7.0785827636718750">
        <ele>1280.0</ele>
        <time>2018-10-12T07:52:32.000Z</time>
      </trkpt>
      <trkpt lat="31.0227718353271484" lon="-7.0785531997680664">
        <ele>1280.0</ele>
        <time>2018-10-12T07:52:33.000Z</time>
      </trkpt>
      <trkpt lat="31.0227394104003906" lon="-7.0785198211669922">
        <ele>1280.0</ele>
        <time>2018-10-12T07:52:34.000Z</time>
      </trkpt>
      <trkpt lat="31.0227088928222656" lon="-7.0784869194030762">
        <ele>1280.0</ele>
        <time>2018-10-12T07:52:35.000Z</time>
      </trkpt>
      <trkpt lat="31.0226783752441406" lon="-7.0784540176391602">
        <ele>1280.0</ele>
        <time>2018-10-12T07:52:36.000Z</time>
      </trkpt>
      <trkpt lat="31.0226478576660156" lon="-7.0784230232238770">
        <ele>1280.0</ele>
        <time>2018-10-12T07:52:37.000Z</time>
      </trkpt>
      <trkpt lat="31.0226173400878906" lon="-7.0783939361572266">
        <ele>1280.0</ele>
        <time>2018-10-12T07:52:38.000Z</time>
      </trkpt>
      <trkpt lat="31.0225868225097656" lon="-7.0783638954162598">
        <ele>1280.0</ele>
        <time>2018-10-12T07:52:39.000Z</time>
      </trkpt>
      <trkpt lat="31.0225543975830078" lon="-7.0783357620239258">
        <ele>1280.0</ele>
        <time>2018-10-12T07:52:40.000Z</time>
      </trkpt>
      <trkpt lat="31.0225219726562500" lon="-7.0783090591430664">
        <ele>1280.0</ele>
        <time>2018-10-12T07:52:41.000Z</time>
      </trkpt>
      <trkpt lat="31.0224876403808594" lon="-7.0782837867736816">
        <ele>1280.0</ele>
        <time>2018-10-12T07:52:42.000Z</time>
      </trkpt>
      <trkpt lat="31.0224552154541016" lon="-7.0782570838928223">
        <ele>1280.0</ele>
        <time>2018-10-12T07:52:43.000Z</time>
      </trkpt>
      <trkpt lat="31.0224227905273438" lon="-7.0782289505004883">
        <ele>1280.626708984375</ele>
        <time>2018-10-12T07:52:44.000Z</time>
      </trkpt>
      <trkpt lat="31.0223903656005859" lon="-7.0782008171081543">
        <ele>1281.0</ele>
        <time>2018-10-12T07:52:45.000Z</time>
      </trkpt>
      <trkpt lat="31.0223579406738281" lon="-7.0781731605529785">
        <ele>1281.0</ele>
        <time>2018-10-12T07:52:46.000Z</time>
      </trkpt>
      <trkpt lat="31.0223255157470703" lon="-7.0781459808349609">
        <ele>1281.0</ele>
        <time>2018-10-12T07:52:47.000Z</time>
      </trkpt>
      <trkpt lat="31.0222949981689453" lon="-7.0781188011169434">
        <ele>1281.0</ele>
        <time>2018-10-12T07:52:48.000Z</time>
      </trkpt>
      <trkpt lat="31.0222644805908203" lon="-7.0780901908874512">
        <ele>1281.821044921875</ele>
        <time>2018-10-12T07:52:49.000Z</time>
      </trkpt>
      <trkpt lat="31.0222358703613281" lon="-7.0780620574951172">
        <ele>1282.0</ele>
        <time>2018-10-12T07:52:50.000Z</time>
      </trkpt>
      <trkpt lat="31.0222053527832031" lon="-7.0780348777770996">
        <ele>1281.3826904296875</ele>
        <time>2018-10-12T07:52:51.000Z</time>
      </trkpt>
      <trkpt lat="31.0221767425537109" lon="-7.0780081748962402">
        <ele>1281.0</ele>
        <time>2018-10-12T07:52:52.000Z</time>
      </trkpt>
      <trkpt lat="31.0221462249755859" lon="-7.0779819488525391">
        <ele>1281.0</ele>
        <time>2018-10-12T07:52:53.000Z</time>
      </trkpt>
      <trkpt lat="31.0221157073974609" lon="-7.0779561996459961">
        <ele>1281.0</ele>
        <time>2018-10-12T07:52:54.000Z</time>
      </trkpt>
      <trkpt lat="31.0220832824707031" lon="-7.0779309272766113">
        <ele>1281.821044921875</ele>
        <time>2018-10-12T07:52:55.000Z</time>
      </trkpt>
      <trkpt lat="31.0220508575439453" lon="-7.0779051780700684">
        <ele>1282.0</ele>
        <time>2018-10-12T07:52:56.000Z</time>
      </trkpt>
      <trkpt lat="31.0220165252685547" lon="-7.0778789520263672">
        <ele>1282.0</ele>
        <time>2018-10-12T07:52:57.000Z</time>
      </trkpt>
      <trkpt lat="31.0219821929931641" lon="-7.0778508186340332">
        <ele>1282.0</ele>
        <time>2018-10-12T07:52:58.000Z</time>
      </trkpt>
      <trkpt lat="31.0219478607177734" lon="-7.0778222084045410">
        <ele>1282.0</ele>
        <time>2018-10-12T07:52:59.000Z</time>
      </trkpt>
      <trkpt lat="31.0219135284423828" lon="-7.0777931213378906">
        <ele>1282.0</ele>
        <time>2018-10-12T07:53:00.000Z</time>
      </trkpt>
      <trkpt lat="31.0218791961669922" lon="-7.0777630805969238">
        <ele>1282.0</ele>
        <time>2018-10-12T07:53:01.000Z</time>
      </trkpt>
      <trkpt lat="31.0218448638916016" lon="-7.0777339935302734">
        <ele>1282.0</ele>
        <time>2018-10-12T07:53:02.000Z</time>
      </trkpt>
      <trkpt lat="31.0218105316162109" lon="-7.0777049064636230">
        <ele>1282.0</ele>
        <time>2018-10-12T07:53:03.000Z</time>
      </trkpt>
      <trkpt lat="31.0217761993408203" lon="-7.0776758193969727">
        <ele>1282.0</ele>
        <time>2018-10-12T07:53:04.000Z</time>
      </trkpt>
      <trkpt lat="31.0217437744140625" lon="-7.0776457786560059">
        <ele>1282.0</ele>
        <time>2018-10-12T07:53:05.000Z</time>
      </trkpt>
      <trkpt lat="31.0217094421386719" lon="-7.0776147842407227">
        <ele>1282.0</ele>
        <time>2018-10-12T07:53:06.000Z</time>
      </trkpt>
      <trkpt lat="31.0216770172119141" lon="-7.0775837898254395">
        <ele>1282.0</ele>
        <time>2018-10-12T07:53:07.000Z</time>
      </trkpt>
      <trkpt lat="31.0216445922851562" lon="-7.0775508880615234">
        <ele>1282.0</ele>
        <time>2018-10-12T07:53:08.000Z</time>
      </trkpt>
      <trkpt lat="31.0216121673583984" lon="-7.0775170326232910">
        <ele>1282.821044921875</ele>
        <time>2018-10-12T07:53:09.000Z</time>
      </trkpt>
      <trkpt lat="31.0215835571289062" lon="-7.0774788856506348">
        <ele>1283.0</ele>
        <time>2018-10-12T07:53:10.000Z</time>
      </trkpt>
      <trkpt lat="31.0215530395507812" lon="-7.0774388313293457">
        <ele>1283.0</ele>
        <time>2018-10-12T07:53:11.000Z</time>
      </trkpt>
      <trkpt lat="31.0215244293212891" lon="-7.0773987770080566">
        <ele>1283.0</ele>
        <time>2018-10-12T07:53:12.000Z</time>
      </trkpt>
      <trkpt lat="31.0214996337890625" lon="-7.0773568153381348">
        <ele>1283.0</ele>
        <time>2018-10-12T07:53:13.000Z</time>
      </trkpt>
      <trkpt lat="31.0214729309082031" lon="-7.0773138999938965">
        <ele>1283.0</ele>
        <time>2018-10-12T07:53:14.000Z</time>
      </trkpt>
      <trkpt lat="31.0214443206787109" lon="-7.0772738456726074">
        <ele>1283.0</ele>
        <time>2018-10-12T07:53:15.000Z</time>
      </trkpt>
      <trkpt lat="31.0214138031005859" lon="-7.0772399902343750">
        <ele>1283.0</ele>
        <time>2018-10-12T07:53:16.000Z</time>
      </trkpt>
      <trkpt lat="31.0213794708251953" lon="-7.0772089958190918">
        <ele>1283.0</ele>
        <time>2018-10-12T07:53:17.000Z</time>
      </trkpt>
      <trkpt lat="31.0213451385498047" lon="-7.0771799087524414">
        <ele>1283.0</ele>
        <time>2018-10-12T07:53:18.000Z</time>
      </trkpt>
      <trkpt lat="31.0213127136230469" lon="-7.0771498680114746">
        <ele>1283.0</ele>
        <time>2018-10-12T07:53:19.000Z</time>
      </trkpt>
      <trkpt lat="31.0212764739990234" lon="-7.0771207809448242">
        <ele>1283.0</ele>
        <time>2018-10-12T07:53:20.000Z</time>
      </trkpt>
      <trkpt lat="31.0212421417236328" lon="-7.0770921707153320">
        <ele>1283.0</ele>
        <time>2018-10-12T07:53:21.000Z</time>
      </trkpt>
      <trkpt lat="31.0212039947509766" lon="-7.0770640373229980">
        <ele>1283.0</ele>
        <time>2018-10-12T07:53:22.000Z</time>
      </trkpt>
      <trkpt lat="31.0211677551269531" lon="-7.0770368576049805">
        <ele>1283.0</ele>
        <time>2018-10-12T07:53:23.000Z</time>
      </trkpt>
      <trkpt lat="31.0211296081542969" lon="-7.0770111083984375">
        <ele>1283.0</ele>
        <time>2018-10-12T07:53:24.000Z</time>
      </trkpt>
      <trkpt lat="31.0210914611816406" lon="-7.0769858360290527">
        <ele>1283.0</ele>
        <time>2018-10-12T07:53:25.000Z</time>
      </trkpt>
      <trkpt lat="31.0210533142089844" lon="-7.0769610404968262">
        <ele>1283.0</ele>
        <time>2018-10-12T07:53:26.000Z</time>
      </trkpt>
      <trkpt lat="31.0210151672363281" lon="-7.0769357681274414">
        <ele>1283.0</ele>
        <time>2018-10-12T07:53:27.000Z</time>
      </trkpt>
      <trkpt lat="31.0209789276123047" lon="-7.0769109725952148">
        <ele>1283.0</ele>
        <time>2018-10-12T07:53:28.000Z</time>
      </trkpt>
      <trkpt lat="31.0209426879882812" lon="-7.0768837928771973">
        <ele>1283.0</ele>
        <time>2018-10-12T07:53:29.000Z</time>
      </trkpt>
      <trkpt lat="31.0209102630615234" lon="-7.0768551826477051">
        <ele>1283.0</ele>
        <time>2018-10-12T07:53:30.000Z</time>
      </trkpt>
      <trkpt lat="31.0208797454833984" lon="-7.0768260955810547">
        <ele>1283.0</ele>
        <time>2018-10-12T07:53:31.000Z</time>
      </trkpt>
      <trkpt lat="31.0208473205566406" lon="-7.0767998695373535">
        <ele>1283.797119140625</ele>
        <time>2018-10-12T07:53:32.000Z</time>
      </trkpt>
      <trkpt lat="31.0208187103271484" lon="-7.0767750740051270">
        <ele>1284.0</ele>
        <time>2018-10-12T07:53:33.000Z</time>
      </trkpt>
      <trkpt lat="31.0207901000976562" lon="-7.0767488479614258">
        <ele>1284.0</ele>
        <time>2018-10-12T07:53:34.000Z</time>
      </trkpt>
      <trkpt lat="31.0207633972167969" lon="-7.0767211914062500">
        <ele>1284.0</ele>
        <time>2018-10-12T07:53:35.000Z</time>
      </trkpt>
      <trkpt lat="31.0207366943359375" lon="-7.0766911506652832">
        <ele>1284.0</ele>
        <time>2018-10-12T07:53:36.000Z</time>
      </trkpt>
      <trkpt lat="31.0207118988037109" lon="-7.0766601562500000">
        <ele>1284.0</ele>
        <time>2018-10-12T07:53:37.000Z</time>
      </trkpt>
      <trkpt lat="31.0206909179687500" lon="-7.0766248703002930">
        <ele>1284.0</ele>
        <time>2018-10-12T07:53:38.000Z</time>
      </trkpt>
      <trkpt lat="31.0206737518310547" lon="-7.0765872001647949">
        <ele>1284.0</ele>
        <time>2018-10-12T07:53:39.000Z</time>
      </trkpt>
      <trkpt lat="31.0206565856933594" lon="-7.0765471458435059">
        <ele>1284.0</ele>
        <time>2018-10-12T07:53:40.000Z</time>
      </trkpt>
      <trkpt lat="31.0206336975097656" lon="-7.0765099525451660">
        <ele>1284.0</ele>
        <time>2018-10-12T07:53:41.000Z</time>
      </trkpt>
      <trkpt lat="31.0206050872802734" lon="-7.0764789581298828">
        <ele>1284.0</ele>
        <time>2018-10-12T07:53:42.000Z</time>
      </trkpt>
      <trkpt lat="31.0205726623535156" lon="-7.0764517784118652">
        <ele>1284.0</ele>
        <time>2018-10-12T07:53:43.000Z</time>
      </trkpt>
      <trkpt lat="31.0205383300781250" lon="-7.0764241218566895">
        <ele>1284.0</ele>
        <time>2018-10-12T07:53:44.000Z</time>
      </trkpt>
      <trkpt lat="31.0205020904541016" lon="-7.0763931274414062">
        <ele>1284.0</ele>
        <time>2018-10-12T07:53:45.000Z</time>
      </trkpt>
      <trkpt lat="31.0204677581787109" lon="-7.0763578414916992">
        <ele>1284.0</ele>
        <time>2018-10-12T07:53:46.000Z</time>
      </trkpt>
      <trkpt lat="31.0204315185546875" lon="-7.0763220787048340">
        <ele>1284.0</ele>
        <time>2018-10-12T07:53:47.000Z</time>
      </trkpt>
      <trkpt lat="31.0203952789306641" lon="-7.0762839317321777">
        <ele>1284.0</ele>
        <time>2018-10-12T07:53:48.000Z</time>
      </trkpt>
      <trkpt lat="31.0203571319580078" lon="-7.0762457847595215">
        <ele>1284.0</ele>
        <time>2018-10-12T07:53:49.000Z</time>
      </trkpt>
      <trkpt lat="31.0203208923339844" lon="-7.0762090682983398">
        <ele>1284.0</ele>
        <time>2018-10-12T07:53:50.000Z</time>
      </trkpt>
      <trkpt lat="31.0202827453613281" lon="-7.0761699676513672">
        <ele>1284.0</ele>
        <time>2018-10-12T07:53:51.000Z</time>
      </trkpt>
      <trkpt lat="31.0202465057373047" lon="-7.0761308670043945">
        <ele>1284.0</ele>
        <time>2018-10-12T07:53:52.000Z</time>
      </trkpt>
      <trkpt lat="31.0202121734619141" lon="-7.0760898590087891">
        <ele>1284.0</ele>
        <time>2018-10-12T07:53:53.000Z</time>
      </trkpt>
      <trkpt lat="31.0201797485351562" lon="-7.0760488510131836">
        <ele>1284.0</ele>
        <time>2018-10-12T07:53:54.000Z</time>
      </trkpt>
      <trkpt lat="31.0201454162597656" lon="-7.0760078430175781">
        <ele>1284.0</ele>
        <time>2018-10-12T07:53:55.000Z</time>
      </trkpt>
      <trkpt lat="31.0201110839843750" lon="-7.0759649276733398">
        <ele>1284.0</ele>
        <time>2018-10-12T07:53:56.000Z</time>
      </trkpt>
      <trkpt lat="31.0200786590576172" lon="-7.0759239196777344">
        <ele>1284.0</ele>
        <time>2018-10-12T07:53:57.000Z</time>
      </trkpt>
      <trkpt lat="31.0200424194335938" lon="-7.0758838653564453">
        <ele>1284.0</ele>
        <time>2018-10-12T07:53:58.000Z</time>
      </trkpt>
      <trkpt lat="31.0200042724609375" lon="-7.0758471488952637">
        <ele>1284.0</ele>
        <time>2018-10-12T07:53:59.000Z</time>
      </trkpt>
      <trkpt lat="31.0199680328369141" lon="-7.0758118629455566">
        <ele>1284.0</ele>
        <time>2018-10-12T07:54:00.000Z</time>
      </trkpt>
      <trkpt lat="31.0199317932128906" lon="-7.0757770538330078">
        <ele>1284.0</ele>
        <time>2018-10-12T07:54:01.000Z</time>
      </trkpt>
      <trkpt lat="31.0198955535888672" lon="-7.0757417678833008">
        <ele>1284.0</ele>
        <time>2018-10-12T07:54:02.000Z</time>
      </trkpt>
      <trkpt lat="31.0198593139648438" lon="-7.0757079124450684">
        <ele>1284.0</ele>
        <time>2018-10-12T07:54:03.000Z</time>
      </trkpt>
      <trkpt lat="31.0198230743408203" lon="-7.0756731033325195">
        <ele>1284.0</ele>
        <time>2018-10-12T07:54:04.000Z</time>
      </trkpt>
      <trkpt lat="31.0197906494140625" lon="-7.0756359100341797">
        <ele>1284.0</ele>
        <time>2018-10-12T07:54:05.000Z</time>
      </trkpt>
      <trkpt lat="31.0197601318359375" lon="-7.0755968093872070">
        <ele>1284.0</ele>
        <time>2018-10-12T07:54:06.000Z</time>
      </trkpt>
      <trkpt lat="31.0197296142578125" lon="-7.0755548477172852">
        <ele>1284.0</ele>
        <time>2018-10-12T07:54:07.000Z</time>
      </trkpt>
      <trkpt lat="31.0197010040283203" lon="-7.0755100250244141">
        <ele>1284.0</ele>
        <time>2018-10-12T07:54:08.000Z</time>
      </trkpt>
      <trkpt lat="31.0196723937988281" lon="-7.0754618644714355">
        <ele>1284.0</ele>
        <time>2018-10-12T07:54:09.000Z</time>
      </trkpt>
      <trkpt lat="31.0196437835693359" lon="-7.0754141807556152">
        <ele>1284.0</ele>
        <time>2018-10-12T07:54:10.000Z</time>
      </trkpt>
      <trkpt lat="31.0196113586425781" lon="-7.0753660202026367">
        <ele>1284.0</ele>
        <time>2018-10-12T07:54:11.000Z</time>
      </trkpt>
      <trkpt lat="31.0195808410644531" lon="-7.0753188133239746">
        <ele>1284.0</ele>
        <time>2018-10-12T07:54:12.000Z</time>
      </trkpt>
      <trkpt lat="31.0195484161376953" lon="-7.0752720832824707">
        <ele>1284.0</ele>
        <time>2018-10-12T07:54:13.000Z</time>
      </trkpt>
      <trkpt lat="31.0195140838623047" lon="-7.0752282142639160">
        <ele>1284.0</ele>
        <time>2018-10-12T07:54:14.000Z</time>
      </trkpt>
      <trkpt lat="31.0194816589355469" lon="-7.0751872062683105">
        <ele>1284.0</ele>
        <time>2018-10-12T07:54:15.000Z</time>
      </trkpt>
      <trkpt lat="31.0194435119628906" lon="-7.0751481056213379">
        <ele>1284.0</ele>
        <time>2018-10-12T07:54:16.000Z</time>
      </trkpt>
      <trkpt lat="31.0194072723388672" lon="-7.0751099586486816">
        <ele>1284.0</ele>
        <time>2018-10-12T07:54:17.000Z</time>
      </trkpt>
      <trkpt lat="31.0193691253662109" lon="-7.0750727653503418">
        <ele>1284.0</ele>
        <time>2018-10-12T07:54:18.000Z</time>
      </trkpt>
      <trkpt lat="31.0193290710449219" lon="-7.0750379562377930">
        <ele>1284.0</ele>
        <time>2018-10-12T07:54:19.000Z</time>
      </trkpt>
      <trkpt lat="31.0192928314208984" lon="-7.0750031471252441">
        <ele>1284.0</ele>
        <time>2018-10-12T07:54:20.000Z</time>
      </trkpt>
      <trkpt lat="31.0192546844482422" lon="-7.0749678611755371">
        <ele>1284.0</ele>
        <time>2018-10-12T07:54:21.000Z</time>
      </trkpt>
      <trkpt lat="31.0192184448242188" lon="-7.0749330520629883">
        <ele>1284.0</ele>
        <time>2018-10-12T07:54:22.000Z</time>
      </trkpt>
      <trkpt lat="31.0191841125488281" lon="-7.0748991966247559">
        <ele>1284.0</ele>
        <time>2018-10-12T07:54:23.000Z</time>
      </trkpt>
      <trkpt lat="31.0191497802734375" lon="-7.0748658180236816">
        <ele>1284.0</ele>
        <time>2018-10-12T07:54:24.000Z</time>
      </trkpt>
      <trkpt lat="31.0191135406494141" lon="-7.0748319625854492">
        <ele>1284.0</ele>
        <time>2018-10-12T07:54:25.000Z</time>
      </trkpt>
      <trkpt lat="31.0190773010253906" lon="-7.0747990608215332">
        <ele>1284.0</ele>
        <time>2018-10-12T07:54:26.000Z</time>
      </trkpt>
      <trkpt lat="31.0190448760986328" lon="-7.0747637748718262">
        <ele>1284.0</ele>
        <time>2018-10-12T07:54:27.000Z</time>
      </trkpt>
      <trkpt lat="31.0190105438232422" lon="-7.0747280120849609">
        <ele>1284.0</ele>
        <time>2018-10-12T07:54:28.000Z</time>
      </trkpt>
      <trkpt lat="31.0189762115478516" lon="-7.0746917724609375">
        <ele>1284.0</ele>
        <time>2018-10-12T07:54:29.000Z</time>
      </trkpt>
      <trkpt lat="31.0189437866210938" lon="-7.0746550559997559">
        <ele>1284.0</ele>
        <time>2018-10-12T07:54:30.000Z</time>
      </trkpt>
      <trkpt lat="31.0189113616943359" lon="-7.0746188163757324">
        <ele>1284.0</ele>
        <time>2018-10-12T07:54:31.000Z</time>
      </trkpt>
      <trkpt lat="31.0188808441162109" lon="-7.0745830535888672">
        <ele>1284.0</ele>
        <time>2018-10-12T07:54:32.000Z</time>
      </trkpt>
      <trkpt lat="31.0188503265380859" lon="-7.0745477676391602">
        <ele>1284.0</ele>
        <time>2018-10-12T07:54:33.000Z</time>
      </trkpt>
      <trkpt lat="31.0188198089599609" lon="-7.0745139122009277">
        <ele>1284.0</ele>
        <time>2018-10-12T07:54:34.000Z</time>
      </trkpt>
      <trkpt lat="31.0187892913818359" lon="-7.0744791030883789">
        <ele>1284.821044921875</ele>
        <time>2018-10-12T07:54:35.000Z</time>
      </trkpt>
      <trkpt lat="31.0187587738037109" lon="-7.0744447708129883">
        <ele>1285.0</ele>
        <time>2018-10-12T07:54:36.000Z</time>
      </trkpt>
      <trkpt lat="31.0187301635742188" lon="-7.0744109153747559">
        <ele>1285.0</ele>
        <time>2018-10-12T07:54:37.000Z</time>
      </trkpt>
      <trkpt lat="31.0186996459960938" lon="-7.0743780136108398">
        <ele>1285.626708984375</ele>
        <time>2018-10-12T07:54:38.000Z</time>
      </trkpt>
      <trkpt lat="31.0186691284179688" lon="-7.0743441581726074">
        <ele>1286.0</ele>
        <time>2018-10-12T07:54:39.000Z</time>
      </trkpt>
      <trkpt lat="31.0186386108398438" lon="-7.0743098258972168">
        <ele>1286.0</ele>
        <time>2018-10-12T07:54:40.000Z</time>
      </trkpt>
      <trkpt lat="31.0186119079589844" lon="-7.0742769241333008">
        <ele>1286.821044921875</ele>
        <time>2018-10-12T07:54:41.000Z</time>
      </trkpt>
      <trkpt lat="31.0185813903808594" lon="-7.0742440223693848">
        <ele>1287.0</ele>
        <time>2018-10-12T07:54:42.000Z</time>
      </trkpt>
      <trkpt lat="31.0185527801513672" lon="-7.0742120742797852">
        <ele>1287.0</ele>
        <time>2018-10-12T07:54:43.000Z</time>
      </trkpt>
      <trkpt lat="31.0185222625732422" lon="-7.0741801261901855">
        <ele>1287.0</ele>
        <time>2018-10-12T07:54:44.000Z</time>
      </trkpt>
      <trkpt lat="31.0184936523437500" lon="-7.0741481781005859">
        <ele>1287.7406005859375</ele>
        <time>2018-10-12T07:54:45.000Z</time>
      </trkpt>
      <trkpt lat="31.0184650421142578" lon="-7.0741162300109863">
        <ele>1288.0</ele>
        <time>2018-10-12T07:54:46.000Z</time>
      </trkpt>
      <trkpt lat="31.0184364318847656" lon="-7.0740852355957031">
        <ele>1288.0</ele>
        <time>2018-10-12T07:54:47.000Z</time>
      </trkpt>
      <trkpt lat="31.0184097290039062" lon="-7.0740528106689453">
        <ele>1288.0</ele>
        <time>2018-10-12T07:54:48.000Z</time>
      </trkpt>
      <trkpt lat="31.0183849334716797" lon="-7.0740189552307129">
        <ele>1288.0</ele>
        <time>2018-10-12T07:54:49.000Z</time>
      </trkpt>
      <trkpt lat="31.0183563232421875" lon="-7.0739850997924805">
        <ele>1288.0</ele>
        <time>2018-10-12T07:54:50.000Z</time>
      </trkpt>
      <trkpt lat="31.0183315277099609" lon="-7.0739488601684570">
        <ele>1288.0</ele>
        <time>2018-10-12T07:54:51.000Z</time>
      </trkpt>
      <trkpt lat="31.0183067321777344" lon="-7.0739130973815918">
        <ele>1288.0</ele>
        <time>2018-10-12T07:54:52.000Z</time>
      </trkpt>
      <trkpt lat="31.0182819366455078" lon="-7.0738759040832520">
        <ele>1288.0</ele>
        <time>2018-10-12T07:54:53.000Z</time>
      </trkpt>
      <trkpt lat="31.0182571411132812" lon="-7.0738401412963867">
        <ele>1288.0</ele>
        <time>2018-10-12T07:54:54.000Z</time>
      </trkpt>
      <trkpt lat="31.0182342529296875" lon="-7.0738029479980469">
        <ele>1288.0</ele>
        <time>2018-10-12T07:54:55.000Z</time>
      </trkpt>
      <trkpt lat="31.0182113647460938" lon="-7.0737662315368652">
        <ele>1288.0</ele>
        <time>2018-10-12T07:54:56.000Z</time>
      </trkpt>
      <trkpt lat="31.0181884765625000" lon="-7.0737290382385254">
        <ele>1288.0</ele>
        <time>2018-10-12T07:54:57.000Z</time>
      </trkpt>
      <trkpt lat="31.0181655883789062" lon="-7.0736908912658691">
        <ele>1288.0</ele>
        <time>2018-10-12T07:54:58.000Z</time>
      </trkpt>
      <trkpt lat="31.0181446075439453" lon="-7.0736498832702637">
        <ele>1288.0</ele>
        <time>2018-10-12T07:54:59.000Z</time>
      </trkpt>
      <trkpt lat="31.0181198120117188" lon="-7.0736079216003418">
        <ele>1288.0</ele>
        <time>2018-10-12T07:55:00.000Z</time>
      </trkpt>
      <trkpt lat="31.0180969238281250" lon="-7.0735640525817871">
        <ele>1288.0</ele>
        <time>2018-10-12T07:55:01.000Z</time>
      </trkpt>
      <trkpt lat="31.0180721282958984" lon="-7.0735201835632324">
        <ele>1288.0</ele>
        <time>2018-10-12T07:55:02.000Z</time>
      </trkpt>
      <trkpt lat="31.0180492401123047" lon="-7.0734748840332031">
        <ele>1288.0</ele>
        <time>2018-10-12T07:55:03.000Z</time>
      </trkpt>
      <trkpt lat="31.0180263519287109" lon="-7.0734291076660156">
        <ele>1288.0</ele>
        <time>2018-10-12T07:55:04.000Z</time>
      </trkpt>
      <trkpt lat="31.0180053710937500" lon="-7.0733828544616699">
        <ele>1288.0</ele>
        <time>2018-10-12T07:55:05.000Z</time>
      </trkpt>
      <trkpt lat="31.0179862976074219" lon="-7.0733389854431152">
        <ele>1288.0</ele>
        <time>2018-10-12T07:55:06.000Z</time>
      </trkpt>
      <trkpt lat="31.0179672241210938" lon="-7.0732960700988770">
        <ele>1288.0</ele>
        <time>2018-10-12T07:55:07.000Z</time>
      </trkpt>
      <trkpt lat="31.0179481506347656" lon="-7.0732550621032715">
        <ele>1288.0</ele>
        <time>2018-10-12T07:55:08.000Z</time>
      </trkpt>
      <trkpt lat="31.0179309844970703" lon="-7.0732178688049316">
        <ele>1288.0</ele>
        <time>2018-10-12T07:55:09.000Z</time>
      </trkpt>
      <trkpt lat="31.0179138183593750" lon="-7.0731840133666992">
        <ele>1288.7327880859375</ele>
        <time>2018-10-12T07:55:10.000Z</time>
      </trkpt>
      <trkpt lat="31.0178985595703125" lon="-7.0731520652770996">
        <ele>1289.0</ele>
        <time>2018-10-12T07:55:11.000Z</time>
      </trkpt>
      <trkpt lat="31.0178833007812500" lon="-7.0731220245361328">
        <ele>1289.0</ele>
        <time>2018-10-12T07:55:12.000Z</time>
      </trkpt>
      <trkpt lat="31.0178699493408203" lon="-7.0730948448181152">
        <ele>1289.0</ele>
        <time>2018-10-12T07:55:13.000Z</time>
      </trkpt>
      <trkpt lat="31.0178565979003906" lon="-7.0730700492858887">
        <ele>1289.0</ele>
        <time>2018-10-12T07:55:14.000Z</time>
      </trkpt>
      <trkpt lat="31.0178432464599609" lon="-7.0730462074279785">
        <ele>1289.0</ele>
        <time>2018-10-12T07:55:15.000Z</time>
      </trkpt>
      <trkpt lat="31.0178318023681641" lon="-7.0730218887329102">
        <ele>1289.0</ele>
        <time>2018-10-12T07:55:16.000Z</time>
      </trkpt>
      <trkpt lat="31.0178184509277344" lon="-7.0729970932006836">
        <ele>1289.0</ele>
        <time>2018-10-12T07:55:17.000Z</time>
      </trkpt>
      <trkpt lat="31.0178031921386719" lon="-7.0729718208312988">
        <ele>1289.0</ele>
        <time>2018-10-12T07:55:18.000Z</time>
      </trkpt>
      <trkpt lat="31.0177879333496094" lon="-7.0729460716247559">
        <ele>1289.0</ele>
        <time>2018-10-12T07:55:19.000Z</time>
      </trkpt>
      <trkpt lat="31.0177707672119141" lon="-7.0729198455810547">
        <ele>1289.821044921875</ele>
        <time>2018-10-12T07:55:20.000Z</time>
      </trkpt>
      <trkpt lat="31.0177516937255859" lon="-7.0728912353515625">
        <ele>1290.0</ele>
        <time>2018-10-12T07:55:21.000Z</time>
      </trkpt>
      <trkpt lat="31.0177307128906250" lon="-7.0728631019592285">
        <ele>1290.0</ele>
        <time>2018-10-12T07:55:22.000Z</time>
      </trkpt>
      <trkpt lat="31.0177078247070312" lon="-7.0728340148925781">
        <ele>1290.0</ele>
        <time>2018-10-12T07:55:23.000Z</time>
      </trkpt>
      <trkpt lat="31.0176868438720703" lon="-7.0728058815002441">
        <ele>1290.0</ele>
        <time>2018-10-12T07:55:24.000Z</time>
      </trkpt>
      <trkpt lat="31.0176620483398438" lon="-7.0727767944335938">
        <ele>1290.0</ele>
        <time>2018-10-12T07:55:25.000Z</time>
      </trkpt>
      <trkpt lat="31.0176410675048828" lon="-7.0727472305297852">
        <ele>1289.373291015625</ele>
        <time>2018-10-12T07:55:26.000Z</time>
      </trkpt>
      <trkpt lat="31.0176200866699219" lon="-7.0727171897888184">
        <ele>1289.0</ele>
        <time>2018-10-12T07:55:27.000Z</time>
      </trkpt>
      <trkpt lat="31.0176029205322266" lon="-7.0726838111877441">
        <ele>1289.821044921875</ele>
        <time>2018-10-12T07:55:28.000Z</time>
      </trkpt>
      <trkpt lat="31.0175838470458984" lon="-7.0726499557495117">
        <ele>1290.0</ele>
        <time>2018-10-12T07:55:29.000Z</time>
      </trkpt>
      <trkpt lat="31.0175685882568359" lon="-7.0726151466369629">
        <ele>1290.0</ele>
        <time>2018-10-12T07:55:30.000Z</time>
      </trkpt>
      <trkpt lat="31.0175552368164062" lon="-7.0725798606872559">
        <ele>1290.0</ele>
        <time>2018-10-12T07:55:31.000Z</time>
      </trkpt>
      <trkpt lat="31.0175457000732422" lon="-7.0725421905517578">
        <ele>1290.0</ele>
        <time>2018-10-12T07:55:32.000Z</time>
      </trkpt>
      <trkpt lat="31.0175361633300781" lon="-7.0725040435791016">
        <ele>1290.0</ele>
        <time>2018-10-12T07:55:33.000Z</time>
      </trkpt>
      <trkpt lat="31.0175285339355469" lon="-7.0724658966064453">
        <ele>1290.0</ele>
        <time>2018-10-12T07:55:34.000Z</time>
      </trkpt>
      <trkpt lat="31.0175209045410156" lon="-7.0724282264709473">
        <ele>1290.631591796875</ele>
        <time>2018-10-12T07:55:35.000Z</time>
      </trkpt>
      <trkpt lat="31.0175132751464844" lon="-7.0723900794982910">
        <ele>1291.0</ele>
        <time>2018-10-12T07:55:36.000Z</time>
      </trkpt>
      <trkpt lat="31.0175075531005859" lon="-7.0723538398742676">
        <ele>1291.0</ele>
        <time>2018-10-12T07:55:37.000Z</time>
      </trkpt>
      <trkpt lat="31.0175018310546875" lon="-7.0723190307617188">
        <ele>1291.821044921875</ele>
        <time>2018-10-12T07:55:38.000Z</time>
      </trkpt>
      <trkpt lat="31.0174961090087891" lon="-7.0722851753234863">
        <ele>1292.0</ele>
        <time>2018-10-12T07:55:39.000Z</time>
      </trkpt>
      <trkpt lat="31.0174903869628906" lon="-7.0722508430480957">
        <ele>1292.0</ele>
        <time>2018-10-12T07:55:40.000Z</time>
      </trkpt>
      <trkpt lat="31.0174865722656250" lon="-7.0722188949584961">
        <ele>1292.0</ele>
        <time>2018-10-12T07:55:41.000Z</time>
      </trkpt>
      <trkpt lat="31.0174846649169922" lon="-7.0721869468688965">
        <ele>1292.0</ele>
        <time>2018-10-12T07:55:42.000Z</time>
      </trkpt>
      <trkpt lat="31.0174827575683594" lon="-7.0721559524536133">
        <ele>1292.0</ele>
        <time>2018-10-12T07:55:43.000Z</time>
      </trkpt>
      <trkpt lat="31.0174846649169922" lon="-7.0721268653869629">
        <ele>1292.0</ele>
        <time>2018-10-12T07:55:44.000Z</time>
      </trkpt>
      <trkpt lat="31.0174884796142578" lon="-7.0720977783203125">
        <ele>1292.0</ele>
        <time>2018-10-12T07:55:45.000Z</time>
      </trkpt>
      <trkpt lat="31.0174884796142578" lon="-7.0720691680908203">
        <ele>1292.0</ele>
        <time>2018-10-12T07:55:46.000Z</time>
      </trkpt>
      <trkpt lat="31.0174846649169922" lon="-7.0720410346984863">
        <ele>1292.0</ele>
        <time>2018-10-12T07:55:47.000Z</time>
      </trkpt>
      <trkpt lat="31.0174827575683594" lon="-7.0720129013061523">
        <ele>1292.0</ele>
        <time>2018-10-12T07:55:48.000Z</time>
      </trkpt>
      <trkpt lat="31.0174751281738281" lon="-7.0719828605651855">
        <ele>1292.0</ele>
        <time>2018-10-12T07:55:49.000Z</time>
      </trkpt>
      <trkpt lat="31.0174713134765625" lon="-7.0719561576843262">
        <ele>1292.821044921875</ele>
        <time>2018-10-12T07:55:50.000Z</time>
      </trkpt>
      <trkpt lat="31.0174751281738281" lon="-7.0719318389892578">
        <ele>1293.0</ele>
        <time>2018-10-12T07:55:51.000Z</time>
      </trkpt>
      <trkpt lat="31.0174751281738281" lon="-7.0719060897827148">
        <ele>1293.0</ele>
        <time>2018-10-12T07:55:52.000Z</time>
      </trkpt>
      <trkpt lat="31.0174655914306641" lon="-7.0718817710876465">
        <ele>1293.0</ele>
        <time>2018-10-12T07:55:53.000Z</time>
      </trkpt>
      <trkpt lat="31.0174636840820312" lon="-7.0718579292297363">
        <ele>1293.0</ele>
        <time>2018-10-12T07:55:54.000Z</time>
      </trkpt>
      <trkpt lat="31.0174732208251953" lon="-7.0718398094177246">
        <ele>1293.0</ele>
        <time>2018-10-12T07:55:55.000Z</time>
      </trkpt>
      <trkpt lat="31.0174942016601562" lon="-7.0718479156494141">
        <ele>1293.0</ele>
        <time>2018-10-12T07:55:57.000Z</time>
      </trkpt>
      <trkpt lat="31.0174846649169922" lon="-7.0718760490417480">
        <ele>1293.821044921875</ele>
        <time>2018-10-12T07:55:59.000Z</time>
      </trkpt>
      <trkpt lat="31.0174636840820312" lon="-7.0718879699707031">
        <ele>1294.0</ele>
        <time>2018-10-12T07:56:00.000Z</time>
      </trkpt>
      <trkpt lat="31.0174388885498047" lon="-7.0718998908996582">
        <ele>1294.0</ele>
        <time>2018-10-12T07:56:01.000Z</time>
      </trkpt>
      <trkpt lat="31.0174179077148438" lon="-7.0719070434570312">
        <ele>1294.0</ele>
        <time>2018-10-12T07:56:02.000Z</time>
      </trkpt>
      <trkpt lat="31.0173988342285156" lon="-7.0719017982482910">
        <ele>1294.0</ele>
        <time>2018-10-12T07:56:03.000Z</time>
      </trkpt>
      <trkpt lat="31.0173816680908203" lon="-7.0718870162963867">
        <ele>1294.0</ele>
        <time>2018-10-12T07:56:04.000Z</time>
      </trkpt>
      <trkpt lat="31.0173759460449219" lon="-7.0718669891357422">
        <ele>1294.0</ele>
        <time>2018-10-12T07:56:05.000Z</time>
      </trkpt>
      <trkpt lat="31.0173835754394531" lon="-7.0718359947204590">
        <ele>1294.0</ele>
        <time>2018-10-12T07:56:07.000Z</time>
      </trkpt>
      <trkpt lat="31.0173969268798828" lon="-7.0718097686767578">
        <ele>1294.0</ele>
        <time>2018-10-12T07:57:40.000Z</time>
      </trkpt>
      <trkpt lat="31.0173969268798828" lon="-7.0718388557434082">
        <ele>1294.0</ele>
        <time>2018-10-12T07:57:41.000Z</time>
      </trkpt>
      <trkpt lat="31.0174026489257812" lon="-7.0718622207641602">
        <ele>1294.0</ele>
        <time>2018-10-12T07:57:42.000Z</time>
      </trkpt>
      <trkpt lat="31.0173912048339844" lon="-7.0718297958374023">
        <ele>1294.0</ele>
        <time>2018-10-12T07:57:54.000Z</time>
      </trkpt>
      <trkpt lat="31.0173931121826172" lon="-7.0718002319335938">
        <ele>1294.821044921875</ele>
        <time>2018-10-12T07:57:56.000Z</time>
      </trkpt>
      <trkpt lat="31.0173969268798828" lon="-7.0718369483947754">
        <ele>1294.0</ele>
        <time>2018-10-12T07:58:28.000Z</time>
      </trkpt>
      <trkpt lat="31.0174026489257812" lon="-7.0718607902526855">
        <ele>1294.0</ele>
        <time>2018-10-12T07:58:30.000Z</time>
      </trkpt>
      <trkpt lat="31.0173892974853516" lon="-7.0718288421630859">
        <ele>1294.0</ele>
        <time>2018-10-12T07:58:38.000Z</time>
      </trkpt>
      <trkpt lat="31.0173892974853516" lon="-7.0717959403991699">
        <ele>1294.821044921875</ele>
        <time>2018-10-12T07:58:40.000Z</time>
      </trkpt>
      <trkpt lat="31.0173873901367188" lon="-7.0718407630920410">
        <ele>1295.0</ele>
        <time>2018-10-12T08:01:34.000Z</time>
      </trkpt>
      <trkpt lat="31.0173645019531250" lon="-7.0718469619750977">
        <ele>1295.0</ele>
        <time>2018-10-12T08:01:36.000Z</time>
      </trkpt>
      <trkpt lat="31.0173377990722656" lon="-7.0718798637390137">
        <ele>1295.0</ele>
        <time>2018-10-12T08:01:38.000Z</time>
      </trkpt>
      <trkpt lat="31.0173320770263672" lon="-7.0719051361083984">
        <ele>1294.178955078125</ele>
        <time>2018-10-12T08:01:39.000Z</time>
      </trkpt>
      <trkpt lat="31.0173320770263672" lon="-7.0719299316406250">
        <ele>1294.0</ele>
        <time>2018-10-12T08:01:40.000Z</time>
      </trkpt>
      <trkpt lat="31.0173416137695312" lon="-7.0719518661499023">
        <ele>1294.0</ele>
        <time>2018-10-12T08:01:41.000Z</time>
      </trkpt>
      <trkpt lat="31.0173549652099609" lon="-7.0719680786132812">
        <ele>1294.0</ele>
        <time>2018-10-12T08:01:42.000Z</time>
      </trkpt>
      <trkpt lat="31.0173759460449219" lon="-7.0719771385192871">
        <ele>1294.0</ele>
        <time>2018-10-12T08:01:43.000Z</time>
      </trkpt>
      <trkpt lat="31.0173969268798828" lon="-7.0719738006591797">
        <ele>1294.0</ele>
        <time>2018-10-12T08:01:44.000Z</time>
      </trkpt>
      <trkpt lat="31.0174102783203125" lon="-7.0719609260559082">
        <ele>1294.0</ele>
        <time>2018-10-12T08:01:45.000Z</time>
      </trkpt>
      <trkpt lat="31.0174255371093750" lon="-7.0719442367553711">
        <ele>1294.0</ele>
        <time>2018-10-12T08:01:46.000Z</time>
      </trkpt>
      <trkpt lat="31.0174407958984375" lon="-7.0719261169433594">
        <ele>1294.0</ele>
        <time>2018-10-12T08:01:47.000Z</time>
      </trkpt>
      <trkpt lat="31.0174579620361328" lon="-7.0719008445739746">
        <ele>1294.0</ele>
        <time>2018-10-12T08:01:48.000Z</time>
      </trkpt>
      <trkpt lat="31.0174751281738281" lon="-7.0718669891357422">
        <ele>1294.0</ele>
        <time>2018-10-12T08:01:49.000Z</time>
      </trkpt>
      <trkpt lat="31.0174884796142578" lon="-7.0718297958374023">
        <ele>1294.0</ele>
        <time>2018-10-12T08:01:50.000Z</time>
      </trkpt>
      <trkpt lat="31.0174942016601562" lon="-7.0717959403991699">
        <ele>1294.0</ele>
        <time>2018-10-12T08:01:51.000Z</time>
      </trkpt>
      <trkpt lat="31.0174922943115234" lon="-7.0717668533325195">
        <ele>1294.0</ele>
        <time>2018-10-12T08:01:52.000Z</time>
      </trkpt>
      <trkpt lat="31.0174884796142578" lon="-7.0717439651489258">
        <ele>1294.0</ele>
        <time>2018-10-12T08:01:53.000Z</time>
      </trkpt>
      <trkpt lat="31.0174732208251953" lon="-7.0717082023620605">
        <ele>1294.0</ele>
        <time>2018-10-12T08:01:55.000Z</time>
      </trkpt>
      <trkpt lat="31.0174655914306641" lon="-7.0716757774353027">
        <ele>1294.0</ele>
        <time>2018-10-12T08:01:57.000Z</time>
      </trkpt>
      <trkpt lat="31.0174694061279297" lon="-7.0716481208801270">
        <ele>1294.0</ele>
        <time>2018-10-12T08:01:59.000Z</time>
      </trkpt>
      <trkpt lat="31.0174694061279297" lon="-7.0716228485107422">
        <ele>1294.0</ele>
        <time>2018-10-12T08:02:01.000Z</time>
      </trkpt>
      <trkpt lat="31.0174674987792969" lon="-7.0716009140014648">
        <ele>1294.0</ele>
        <time>2018-10-12T08:02:03.000Z</time>
      </trkpt>
      <trkpt lat="31.0174655914306641" lon="-7.0715627670288086">
        <ele>1294.0</ele>
        <time>2018-10-12T08:02:05.000Z</time>
      </trkpt>
      <trkpt lat="31.0174655914306641" lon="-7.0715379714965820">
        <ele>1294.821044921875</ele>
        <time>2018-10-12T08:02:06.000Z</time>
      </trkpt>
      <trkpt lat="31.0174636840820312" lon="-7.0715098381042480">
        <ele>1295.0</ele>
        <time>2018-10-12T08:02:07.000Z</time>
      </trkpt>
      <trkpt lat="31.0174617767333984" lon="-7.0714821815490723">
        <ele>1295.0</ele>
        <time>2018-10-12T08:02:08.000Z</time>
      </trkpt>
      <trkpt lat="31.0174598693847656" lon="-7.0714530944824219">
        <ele>1295.0</ele>
        <time>2018-10-12T08:02:09.000Z</time>
      </trkpt>
      <trkpt lat="31.0174560546875000" lon="-7.0714211463928223">
        <ele>1295.0</ele>
        <time>2018-10-12T08:02:10.000Z</time>
      </trkpt>
      <trkpt lat="31.0174522399902344" lon="-7.0713877677917480">
        <ele>1295.0</ele>
        <time>2018-10-12T08:02:11.000Z</time>
      </trkpt>
      <trkpt lat="31.0174484252929688" lon="-7.0713520050048828">
        <ele>1295.0</ele>
        <time>2018-10-12T08:02:12.000Z</time>
      </trkpt>
      <trkpt lat="31.0174427032470703" lon="-7.0713148117065430">
        <ele>1295.0</ele>
        <time>2018-10-12T08:02:13.000Z</time>
      </trkpt>
      <trkpt lat="31.0174331665039062" lon="-7.0712771415710449">
        <ele>1295.0</ele>
        <time>2018-10-12T08:02:14.000Z</time>
      </trkpt>
      <trkpt lat="31.0174255371093750" lon="-7.0712399482727051">
        <ele>1295.0</ele>
        <time>2018-10-12T08:02:15.000Z</time>
      </trkpt>
      <trkpt lat="31.0174160003662109" lon="-7.0712051391601562">
        <ele>1295.0</ele>
        <time>2018-10-12T08:02:16.000Z</time>
      </trkpt>
      <trkpt lat="31.0174064636230469" lon="-7.0711688995361328">
        <ele>1295.0</ele>
        <time>2018-10-12T08:02:17.000Z</time>
      </trkpt>
      <trkpt lat="31.0173931121826172" lon="-7.0711340904235840">
        <ele>1295.0</ele>
        <time>2018-10-12T08:02:18.000Z</time>
      </trkpt>
      <trkpt lat="31.0173797607421875" lon="-7.0710988044738770">
        <ele>1295.0</ele>
        <time>2018-10-12T08:02:19.000Z</time>
      </trkpt>
      <trkpt lat="31.0173625946044922" lon="-7.0710659027099609">
        <ele>1295.0</ele>
        <time>2018-10-12T08:02:20.000Z</time>
      </trkpt>
      <trkpt lat="31.0173454284667969" lon="-7.0710330009460449">
        <ele>1295.0</ele>
        <time>2018-10-12T08:02:21.000Z</time>
      </trkpt>
      <trkpt lat="31.0173282623291016" lon="-7.0709981918334961">
        <ele>1295.821044921875</ele>
        <time>2018-10-12T08:02:22.000Z</time>
      </trkpt>
      <trkpt lat="31.0173149108886719" lon="-7.0709619522094727">
        <ele>1296.0</ele>
        <time>2018-10-12T08:02:23.000Z</time>
      </trkpt>
      <trkpt lat="31.0173015594482422" lon="-7.0709238052368164">
        <ele>1296.0</ele>
        <time>2018-10-12T08:02:24.000Z</time>
      </trkpt>
      <trkpt lat="31.0172901153564453" lon="-7.0708861351013184">
        <ele>1296.0</ele>
        <time>2018-10-12T08:02:25.000Z</time>
      </trkpt>
      <trkpt lat="31.0172805786132812" lon="-7.0708489418029785">
        <ele>1296.0</ele>
        <time>2018-10-12T08:02:26.000Z</time>
      </trkpt>
      <trkpt lat="31.0172729492187500" lon="-7.0708131790161133">
        <ele>1296.0</ele>
        <time>2018-10-12T08:02:27.000Z</time>
      </trkpt>
      <trkpt lat="31.0172672271728516" lon="-7.0707812309265137">
        <ele>1296.0</ele>
        <time>2018-10-12T08:02:28.000Z</time>
      </trkpt>
      <trkpt lat="31.0172653198242188" lon="-7.0707488059997559">
        <ele>1296.804931640625</ele>
        <time>2018-10-12T08:02:29.000Z</time>
      </trkpt>
      <trkpt lat="31.0172615051269531" lon="-7.0707130432128906">
        <ele>1297.0</ele>
        <time>2018-10-12T08:02:30.000Z</time>
      </trkpt>
      <trkpt lat="31.0172576904296875" lon="-7.0706729888916016">
        <ele>1297.0</ele>
        <time>2018-10-12T08:02:31.000Z</time>
      </trkpt>
      <trkpt lat="31.0172595977783203" lon="-7.0706291198730469">
        <ele>1297.0</ele>
        <time>2018-10-12T08:02:32.000Z</time>
      </trkpt>
      <trkpt lat="31.0172595977783203" lon="-7.0705847740173340">
        <ele>1297.0</ele>
        <time>2018-10-12T08:02:33.000Z</time>
      </trkpt>
      <trkpt lat="31.0172615051269531" lon="-7.0705409049987793">
        <ele>1297.0</ele>
        <time>2018-10-12T08:02:34.000Z</time>
      </trkpt>
      <trkpt lat="31.0172672271728516" lon="-7.0704979896545410">
        <ele>1297.0</ele>
        <time>2018-10-12T08:02:35.000Z</time>
      </trkpt>
      <trkpt lat="31.0172729492187500" lon="-7.0704541206359863">
        <ele>1297.0</ele>
        <time>2018-10-12T08:02:36.000Z</time>
      </trkpt>
      <trkpt lat="31.0172767639160156" lon="-7.0704097747802734">
        <ele>1297.0</ele>
        <time>2018-10-12T08:02:37.000Z</time>
      </trkpt>
      <trkpt lat="31.0172824859619141" lon="-7.0703678131103516">
        <ele>1297.0</ele>
        <time>2018-10-12T08:02:38.000Z</time>
      </trkpt>
      <trkpt lat="31.0172882080078125" lon="-7.0703248977661133">
        <ele>1297.6173095703125</ele>
        <time>2018-10-12T08:02:39.000Z</time>
      </trkpt>
      <trkpt lat="31.0172939300537109" lon="-7.0702819824218750">
        <ele>1298.0</ele>
        <time>2018-10-12T08:02:40.000Z</time>
      </trkpt>
      <trkpt lat="31.0172977447509766" lon="-7.0702400207519531">
        <ele>1298.0</ele>
        <time>2018-10-12T08:02:41.000Z</time>
      </trkpt>
      <trkpt lat="31.0173015594482422" lon="-7.0701980590820312">
        <ele>1298.0</ele>
        <time>2018-10-12T08:02:42.000Z</time>
      </trkpt>
      <trkpt lat="31.0173034667968750" lon="-7.0701570510864258">
        <ele>1297.178955078125</ele>
        <time>2018-10-12T08:02:43.000Z</time>
      </trkpt>
      <trkpt lat="31.0173053741455078" lon="-7.0701150894165039">
        <ele>1297.797119140625</ele>
        <time>2018-10-12T08:02:44.000Z</time>
      </trkpt>
      <trkpt lat="31.0173053741455078" lon="-7.0700740814208984">
        <ele>1298.0</ele>
        <time>2018-10-12T08:02:45.000Z</time>
      </trkpt>
      <trkpt lat="31.0173034667968750" lon="-7.0700321197509766">
        <ele>1298.0</ele>
        <time>2018-10-12T08:02:46.000Z</time>
      </trkpt>
      <trkpt lat="31.0173015594482422" lon="-7.0699892044067383">
        <ele>1298.0</ele>
        <time>2018-10-12T08:02:47.000Z</time>
      </trkpt>
      <trkpt lat="31.0172996520996094" lon="-7.0699467658996582">
        <ele>1298.0</ele>
        <time>2018-10-12T08:02:48.000Z</time>
      </trkpt>
      <trkpt lat="31.0172977447509766" lon="-7.0699048042297363">
        <ele>1298.0</ele>
        <time>2018-10-12T08:02:49.000Z</time>
      </trkpt>
      <trkpt lat="31.0172939300537109" lon="-7.0698618888854980">
        <ele>1298.0</ele>
        <time>2018-10-12T08:02:50.000Z</time>
      </trkpt>
      <trkpt lat="31.0172901153564453" lon="-7.0698189735412598">
        <ele>1298.0</ele>
        <time>2018-10-12T08:02:51.000Z</time>
      </trkpt>
      <trkpt lat="31.0172863006591797" lon="-7.0697760581970215">
        <ele>1298.0</ele>
        <time>2018-10-12T08:02:52.000Z</time>
      </trkpt>
      <trkpt lat="31.0172805786132812" lon="-7.0697340965270996">
        <ele>1298.0</ele>
        <time>2018-10-12T08:02:53.000Z</time>
      </trkpt>
      <trkpt lat="31.0172748565673828" lon="-7.0696921348571777">
        <ele>1298.0</ele>
        <time>2018-10-12T08:02:54.000Z</time>
      </trkpt>
      <trkpt lat="31.0172691345214844" lon="-7.0696511268615723">
        <ele>1298.0</ele>
        <time>2018-10-12T08:02:55.000Z</time>
      </trkpt>
      <trkpt lat="31.0172653198242188" lon="-7.0696110725402832">
        <ele>1298.0</ele>
        <time>2018-10-12T08:02:56.000Z</time>
      </trkpt>
      <trkpt lat="31.0172595977783203" lon="-7.0695719718933105">
        <ele>1298.0</ele>
        <time>2018-10-12T08:02:57.000Z</time>
      </trkpt>
      <trkpt lat="31.0172538757324219" lon="-7.0695347785949707">
        <ele>1298.0</ele>
        <time>2018-10-12T08:02:58.000Z</time>
      </trkpt>
      <trkpt lat="31.0172481536865234" lon="-7.0694999694824219">
        <ele>1298.0</ele>
        <time>2018-10-12T08:02:59.000Z</time>
      </trkpt>
      <trkpt lat="31.0172443389892578" lon="-7.0694680213928223">
        <ele>1298.0</ele>
        <time>2018-10-12T08:03:00.000Z</time>
      </trkpt>
      <trkpt lat="31.0172405242919922" lon="-7.0694398880004883">
        <ele>1298.821044921875</ele>
        <time>2018-10-12T08:03:01.000Z</time>
      </trkpt>
      <trkpt lat="31.0172367095947266" lon="-7.0694150924682617">
        <ele>1299.0</ele>
        <time>2018-10-12T08:03:02.000Z</time>
      </trkpt>
      <trkpt lat="31.0172367095947266" lon="-7.0693922042846680">
        <ele>1299.0</ele>
        <time>2018-10-12T08:03:03.000Z</time>
      </trkpt>
      <trkpt lat="31.0172348022460938" lon="-7.0693521499633789">
        <ele>1299.0</ele>
        <time>2018-10-12T08:03:05.000Z</time>
      </trkpt>
      <trkpt lat="31.0172309875488281" lon="-7.0693302154541016">
        <ele>1299.0</ele>
        <time>2018-10-12T08:03:06.000Z</time>
      </trkpt>
      <trkpt lat="31.0172290802001953" lon="-7.0693058967590332">
        <ele>1299.0</ele>
        <time>2018-10-12T08:03:07.000Z</time>
      </trkpt>
      <trkpt lat="31.0172290802001953" lon="-7.0692820549011230">
        <ele>1299.0</ele>
        <time>2018-10-12T08:03:08.000Z</time>
      </trkpt>
      <trkpt lat="31.0172309875488281" lon="-7.0692582130432129">
        <ele>1299.0</ele>
        <time>2018-10-12T08:03:09.000Z</time>
      </trkpt>
      <trkpt lat="31.0172328948974609" lon="-7.0692348480224609">
        <ele>1299.0</ele>
        <time>2018-10-12T08:03:10.000Z</time>
      </trkpt>
      <trkpt lat="31.0172348022460938" lon="-7.0692138671875000">
        <ele>1299.0</ele>
        <time>2018-10-12T08:03:11.000Z</time>
      </trkpt>
      <trkpt lat="31.0172386169433594" lon="-7.0691771507263184">
        <ele>1299.0</ele>
        <time>2018-10-12T08:03:13.000Z</time>
      </trkpt>
      <trkpt lat="31.0172443389892578" lon="-7.0691461563110352">
        <ele>1299.0</ele>
        <time>2018-10-12T08:03:15.000Z</time>
      </trkpt>
      <trkpt lat="31.0172481536865234" lon="-7.0691118240356445">
        <ele>1299.0</ele>
        <time>2018-10-12T08:03:17.000Z</time>
      </trkpt>
      <trkpt lat="31.0172557830810547" lon="-7.0690860748291016">
        <ele>1298.3826904296875</ele>
        <time>2018-10-12T08:03:19.000Z</time>
      </trkpt>
      <trkpt lat="31.0172653198242188" lon="-7.0690507888793945">
        <ele>1299.0</ele>
        <time>2018-10-12T08:03:21.000Z</time>
      </trkpt>
      <trkpt lat="31.0172748565673828" lon="-7.0690288543701172">
        <ele>1299.0</ele>
        <time>2018-10-12T08:03:22.000Z</time>
      </trkpt>
      <trkpt lat="31.0172843933105469" lon="-7.0689940452575684">
        <ele>1299.0</ele>
        <time>2018-10-12T08:03:24.000Z</time>
      </trkpt>
      <trkpt lat="31.0172977447509766" lon="-7.0689649581909180">
        <ele>1298.178955078125</ele>
        <time>2018-10-12T08:03:26.000Z</time>
      </trkpt>
      <trkpt lat="31.0172977447509766" lon="-7.0689220428466797">
        <ele>1298.0</ele>
        <time>2018-10-12T08:03:53.000Z</time>
      </trkpt>
      <trkpt lat="31.0173034667968750" lon="-7.0688939094543457">
        <ele>1298.0</ele>
        <time>2018-10-12T08:03:54.000Z</time>
      </trkpt>
      <trkpt lat="31.0173110961914062" lon="-7.0688629150390625">
        <ele>1298.0</ele>
        <time>2018-10-12T08:03:55.000Z</time>
      </trkpt>
      <trkpt lat="31.0173206329345703" lon="-7.0688271522521973">
        <ele>1298.0</ele>
        <time>2018-10-12T08:03:56.000Z</time>
      </trkpt>
      <trkpt lat="31.0173301696777344" lon="-7.0687880516052246">
        <ele>1298.0</ele>
        <time>2018-10-12T08:03:57.000Z</time>
      </trkpt>
      <trkpt lat="31.0173416137695312" lon="-7.0687479972839355">
        <ele>1298.0</ele>
        <time>2018-10-12T08:03:58.000Z</time>
      </trkpt>
      <trkpt lat="31.0173530578613281" lon="-7.0687050819396973">
        <ele>1297.178955078125</ele>
        <time>2018-10-12T08:03:59.000Z</time>
      </trkpt>
      <trkpt lat="31.0173683166503906" lon="-7.0686621665954590">
        <ele>1297.0</ele>
        <time>2018-10-12T08:04:00.000Z</time>
      </trkpt>
      <trkpt lat="31.0173816680908203" lon="-7.0686178207397461">
        <ele>1297.0</ele>
        <time>2018-10-12T08:04:01.000Z</time>
      </trkpt>
      <trkpt lat="31.0173950195312500" lon="-7.0685729980468750">
        <ele>1297.0</ele>
        <time>2018-10-12T08:04:02.000Z</time>
      </trkpt>
      <trkpt lat="31.0174083709716797" lon="-7.0685291290283203">
        <ele>1297.0</ele>
        <time>2018-10-12T08:04:03.000Z</time>
      </trkpt>
      <trkpt lat="31.0174198150634766" lon="-7.0684862136840820">
        <ele>1297.0</ele>
        <time>2018-10-12T08:04:04.000Z</time>
      </trkpt>
      <trkpt lat="31.0174312591552734" lon="-7.0684437751770020">
        <ele>1296.178955078125</ele>
        <time>2018-10-12T08:04:05.000Z</time>
      </trkpt>
      <trkpt lat="31.0174465179443359" lon="-7.0684018135070801">
        <ele>1296.0</ele>
        <time>2018-10-12T08:04:06.000Z</time>
      </trkpt>
      <trkpt lat="31.0174636840820312" lon="-7.0683608055114746">
        <ele>1296.0</ele>
        <time>2018-10-12T08:04:07.000Z</time>
      </trkpt>
      <trkpt lat="31.0174884796142578" lon="-7.0683250427246094">
        <ele>1296.0</ele>
        <time>2018-10-12T08:04:08.000Z</time>
      </trkpt>
      <trkpt lat="31.0175189971923828" lon="-7.0682950019836426">
        <ele>1295.2593994140625</ele>
        <time>2018-10-12T08:04:09.000Z</time>
      </trkpt>
      <trkpt lat="31.0175495147705078" lon="-7.0682787895202637">
        <ele>1295.0</ele>
        <time>2018-10-12T08:04:10.000Z</time>
      </trkpt>
      <trkpt lat="31.0175819396972656" lon="-7.0682759284973145">
        <ele>1295.0</ele>
        <time>2018-10-12T08:04:11.000Z</time>
      </trkpt>
      <trkpt lat="31.0176124572753906" lon="-7.0682811737060547">
        <ele>1295.0</ele>
        <time>2018-10-12T08:04:12.000Z</time>
      </trkpt>
      <trkpt lat="31.0176429748535156" lon="-7.0682911872863770">
        <ele>1295.0</ele>
        <time>2018-10-12T08:04:13.000Z</time>
      </trkpt>
      <trkpt lat="31.0176753997802734" lon="-7.0683069229125977">
        <ele>1295.0</ele>
        <time>2018-10-12T08:04:14.000Z</time>
      </trkpt>
      <trkpt lat="31.0177059173583984" lon="-7.0683279037475586">
        <ele>1295.0</ele>
        <time>2018-10-12T08:04:15.000Z</time>
      </trkpt>
      <trkpt lat="31.0177326202392578" lon="-7.0683507919311523">
        <ele>1295.0</ele>
        <time>2018-10-12T08:04:16.000Z</time>
      </trkpt>
      <trkpt lat="31.0177536010742188" lon="-7.0683741569519043">
        <ele>1295.0</ele>
        <time>2018-10-12T08:04:17.000Z</time>
      </trkpt>
      <trkpt lat="31.0177745819091797" lon="-7.0683951377868652">
        <ele>1295.0</ele>
        <time>2018-10-12T08:04:18.000Z</time>
      </trkpt>
      <trkpt lat="31.0177936553955078" lon="-7.0684170722961426">
        <ele>1294.178955078125</ele>
        <time>2018-10-12T08:04:19.000Z</time>
      </trkpt>
      <trkpt lat="31.0178127288818359" lon="-7.0684380531311035">
        <ele>1294.0</ele>
        <time>2018-10-12T08:04:20.000Z</time>
      </trkpt>
      <trkpt lat="31.0178318023681641" lon="-7.0684580802917480">
        <ele>1294.0</ele>
        <time>2018-10-12T08:04:21.000Z</time>
      </trkpt>
      <trkpt lat="31.0178508758544922" lon="-7.0684800148010254">
        <ele>1294.0</ele>
        <time>2018-10-12T08:04:22.000Z</time>
      </trkpt>
      <trkpt lat="31.0178718566894531" lon="-7.0685048103332520">
        <ele>1294.0</ele>
        <time>2018-10-12T08:04:23.000Z</time>
      </trkpt>
      <trkpt lat="31.0178947448730469" lon="-7.0685319900512695">
        <ele>1294.0</ele>
        <time>2018-10-12T08:04:24.000Z</time>
      </trkpt>
      <trkpt lat="31.0179176330566406" lon="-7.0685601234436035">
        <ele>1294.0</ele>
        <time>2018-10-12T08:04:25.000Z</time>
      </trkpt>
      <trkpt lat="31.0179405212402344" lon="-7.0685901641845703">
        <ele>1294.0</ele>
        <time>2018-10-12T08:04:26.000Z</time>
      </trkpt>
      <trkpt lat="31.0179653167724609" lon="-7.0686221122741699">
        <ele>1294.0</ele>
        <time>2018-10-12T08:04:27.000Z</time>
      </trkpt>
      <trkpt lat="31.0179939270019531" lon="-7.0686540603637695">
        <ele>1294.0</ele>
        <time>2018-10-12T08:04:28.000Z</time>
      </trkpt>
      <trkpt lat="31.0180263519287109" lon="-7.0686869621276855">
        <ele>1294.0</ele>
        <time>2018-10-12T08:04:29.000Z</time>
      </trkpt>
      <trkpt lat="31.0180683135986328" lon="-7.0687198638916016">
        <ele>1294.0</ele>
        <time>2018-10-12T08:04:30.000Z</time>
      </trkpt>
      <trkpt lat="31.0181179046630859" lon="-7.0687518119812012">
        <ele>1294.0</ele>
        <time>2018-10-12T08:04:31.000Z</time>
      </trkpt>
      <trkpt lat="31.0181694030761719" lon="-7.0687842369079590">
        <ele>1293.178955078125</ele>
        <time>2018-10-12T08:04:32.000Z</time>
      </trkpt>
      <trkpt lat="31.0182266235351562" lon="-7.0688180923461914">
        <ele>1292.178955078125</ele>
        <time>2018-10-12T08:04:33.000Z</time>
      </trkpt>
      <trkpt lat="31.0182857513427734" lon="-7.0688509941101074">
        <ele>1292.0</ele>
        <time>2018-10-12T08:04:34.000Z</time>
      </trkpt>
      <trkpt lat="31.0183410644531250" lon="-7.0688800811767578">
        <ele>1291.178955078125</ele>
        <time>2018-10-12T08:04:35.000Z</time>
      </trkpt>
      <trkpt lat="31.0183963775634766" lon="-7.0689039230346680">
        <ele>1291.0</ele>
        <time>2018-10-12T08:04:36.000Z</time>
      </trkpt>
      <trkpt lat="31.0184497833251953" lon="-7.0689210891723633">
        <ele>1291.0</ele>
        <time>2018-10-12T08:04:37.000Z</time>
      </trkpt>
      <trkpt lat="31.0184993743896484" lon="-7.0689268112182617">
        <ele>1291.0</ele>
        <time>2018-10-12T08:04:38.000Z</time>
      </trkpt>
      <trkpt lat="31.0185508728027344" lon="-7.0689239501953125">
        <ele>1291.0</ele>
        <time>2018-10-12T08:04:39.000Z</time>
      </trkpt>
      <trkpt lat="31.0186004638671875" lon="-7.0689220428466797">
        <ele>1291.0</ele>
        <time>2018-10-12T08:04:40.000Z</time>
      </trkpt>
      <trkpt lat="31.0186500549316406" lon="-7.0689249038696289">
        <ele>1291.0</ele>
        <time>2018-10-12T08:04:41.000Z</time>
      </trkpt>
      <trkpt lat="31.0187034606933594" lon="-7.0689320564270020">
        <ele>1290.178955078125</ele>
        <time>2018-10-12T08:04:42.000Z</time>
      </trkpt>
      <trkpt lat="31.0187587738037109" lon="-7.0689430236816406">
        <ele>1290.0</ele>
        <time>2018-10-12T08:04:43.000Z</time>
      </trkpt>
      <trkpt lat="31.0188121795654297" lon="-7.0689558982849121">
        <ele>1289.178955078125</ele>
        <time>2018-10-12T08:04:44.000Z</time>
      </trkpt>
      <trkpt lat="31.0188674926757812" lon="-7.0689711570739746">
        <ele>1289.0</ele>
        <time>2018-10-12T08:04:45.000Z</time>
      </trkpt>
      <trkpt lat="31.0189189910888672" lon="-7.0689811706542969">
        <ele>1289.0</ele>
        <time>2018-10-12T08:04:46.000Z</time>
      </trkpt>
      <trkpt lat="31.0189685821533203" lon="-7.0689787864685059">
        <ele>1289.0</ele>
        <time>2018-10-12T08:04:47.000Z</time>
      </trkpt>
      <trkpt lat="31.0190162658691406" lon="-7.0689678192138672">
        <ele>1289.0</ele>
        <time>2018-10-12T08:04:48.000Z</time>
      </trkpt>
      <trkpt lat="31.0190658569335938" lon="-7.0689511299133301">
        <ele>1289.0</ele>
        <time>2018-10-12T08:04:49.000Z</time>
      </trkpt>
      <trkpt lat="31.0191154479980469" lon="-7.0689311027526855">
        <ele>1289.0</ele>
        <time>2018-10-12T08:04:50.000Z</time>
      </trkpt>
      <trkpt lat="31.0191612243652344" lon="-7.0689120292663574">
        <ele>1288.178955078125</ele>
        <time>2018-10-12T08:04:51.000Z</time>
      </trkpt>
      <trkpt lat="31.0192089080810547" lon="-7.0688900947570801">
        <ele>1287.178955078125</ele>
        <time>2018-10-12T08:04:52.000Z</time>
      </trkpt>
      <trkpt lat="31.0192508697509766" lon="-7.0688581466674805">
        <ele>1287.0</ele>
        <time>2018-10-12T08:04:53.000Z</time>
      </trkpt>
      <trkpt lat="31.0192813873291016" lon="-7.0688128471374512">
        <ele>1287.0</ele>
        <time>2018-10-12T08:04:54.000Z</time>
      </trkpt>
      <trkpt lat="31.0192985534667969" lon="-7.0687627792358398">
        <ele>1287.0</ele>
        <time>2018-10-12T08:04:55.000Z</time>
      </trkpt>
      <trkpt lat="31.0192985534667969" lon="-7.0687131881713867">
        <ele>1287.0</ele>
        <time>2018-10-12T08:04:56.000Z</time>
      </trkpt>
      <trkpt lat="31.0192813873291016" lon="-7.0686650276184082">
        <ele>1287.0</ele>
        <time>2018-10-12T08:04:57.000Z</time>
      </trkpt>
      <trkpt lat="31.0192604064941406" lon="-7.0686168670654297">
        <ele>1287.0</ele>
        <time>2018-10-12T08:04:58.000Z</time>
      </trkpt>
      <trkpt lat="31.0192432403564453" lon="-7.0685648918151855">
        <ele>1287.0</ele>
        <time>2018-10-12T08:04:59.000Z</time>
      </trkpt>
      <trkpt lat="31.0192356109619141" lon="-7.0685091018676758">
        <ele>1287.0</ele>
        <time>2018-10-12T08:05:00.000Z</time>
      </trkpt>
      <trkpt lat="31.0192260742187500" lon="-7.0684509277343750">
        <ele>1287.0</ele>
        <time>2018-10-12T08:05:01.000Z</time>
      </trkpt>
      <trkpt lat="31.0192146301269531" lon="-7.0683960914611816">
        <ele>1287.0</ele>
        <time>2018-10-12T08:05:02.000Z</time>
      </trkpt>
      <trkpt lat="31.0192031860351562" lon="-7.0683398246765137">
        <ele>1286.195068359375</ele>
        <time>2018-10-12T08:05:03.000Z</time>
      </trkpt>
      <trkpt lat="31.0191936492919922" lon="-7.0682840347290039">
        <ele>1286.0</ele>
        <time>2018-10-12T08:05:04.000Z</time>
      </trkpt>
      <trkpt lat="31.0191841125488281" lon="-7.0682277679443359">
        <ele>1286.0</ele>
        <time>2018-10-12T08:05:05.000Z</time>
      </trkpt>
      <trkpt lat="31.0191745758056641" lon="-7.0681710243225098">
        <ele>1286.0</ele>
        <time>2018-10-12T08:05:06.000Z</time>
      </trkpt>
      <trkpt lat="31.0191688537597656" lon="-7.0681138038635254">
        <ele>1286.0</ele>
        <time>2018-10-12T08:05:07.000Z</time>
      </trkpt>
      <trkpt lat="31.0191574096679688" lon="-7.0680570602416992">
        <ele>1285.178955078125</ele>
        <time>2018-10-12T08:05:08.000Z</time>
      </trkpt>
      <trkpt lat="31.0191383361816406" lon="-7.0680022239685059">
        <ele>1285.0</ele>
        <time>2018-10-12T08:05:09.000Z</time>
      </trkpt>
      <trkpt lat="31.0191116333007812" lon="-7.0679521560668945">
        <ele>1285.0</ele>
        <time>2018-10-12T08:05:10.000Z</time>
      </trkpt>
      <trkpt lat="31.0190792083740234" lon="-7.0679130554199219">
        <ele>1285.0</ele>
        <time>2018-10-12T08:05:11.000Z</time>
      </trkpt>
      <trkpt lat="31.0190429687500000" lon="-7.0678839683532715">
        <ele>1285.0</ele>
        <time>2018-10-12T08:05:12.000Z</time>
      </trkpt>
      <trkpt lat="31.0190048217773438" lon="-7.0678620338439941">
        <ele>1285.0</ele>
        <time>2018-10-12T08:05:13.000Z</time>
      </trkpt>
      <trkpt lat="31.0189685821533203" lon="-7.0678372383117676">
        <ele>1284.1807861328125</ele>
        <time>2018-10-12T08:05:14.000Z</time>
      </trkpt>
      <trkpt lat="31.0189304351806641" lon="-7.0678038597106934">
        <ele>1283.178955078125</ele>
        <time>2018-10-12T08:05:15.000Z</time>
      </trkpt>
      <trkpt lat="31.0188941955566406" lon="-7.0677628517150879">
        <ele>1283.0</ele>
        <time>2018-10-12T08:05:16.000Z</time>
      </trkpt>
      <trkpt lat="31.0188598632812500" lon="-7.0677151679992676">
        <ele>1283.0</ele>
        <time>2018-10-12T08:05:17.000Z</time>
      </trkpt>
      <trkpt lat="31.0188217163085938" lon="-7.0676631927490234">
        <ele>1282.3826904296875</ele>
        <time>2018-10-12T08:05:18.000Z</time>
      </trkpt>
      <trkpt lat="31.0187854766845703" lon="-7.0676069259643555">
        <ele>1282.0</ele>
        <time>2018-10-12T08:05:19.000Z</time>
      </trkpt>
      <trkpt lat="31.0187473297119141" lon="-7.0675477981567383">
        <ele>1282.0</ele>
        <time>2018-10-12T08:05:20.000Z</time>
      </trkpt>
      <trkpt lat="31.0187034606933594" lon="-7.0674920082092285">
        <ele>1282.0</ele>
        <time>2018-10-12T08:05:21.000Z</time>
      </trkpt>
      <trkpt lat="31.0186614990234375" lon="-7.0674362182617188">
        <ele>1281.178955078125</ele>
        <time>2018-10-12T08:05:22.000Z</time>
      </trkpt>
      <trkpt lat="31.0186252593994141" lon="-7.0673770904541016">
        <ele>1281.0</ele>
        <time>2018-10-12T08:05:23.000Z</time>
      </trkpt>
      <trkpt lat="31.0186004638671875" lon="-7.0673179626464844">
        <ele>1280.373291015625</ele>
        <time>2018-10-12T08:05:24.000Z</time>
      </trkpt>
      <trkpt lat="31.0185794830322266" lon="-7.0672621726989746">
        <ele>1279.2593994140625</ele>
        <time>2018-10-12T08:05:25.000Z</time>
      </trkpt>
      <trkpt lat="31.0185604095458984" lon="-7.0672059059143066">
        <ele>1279.0</ele>
        <time>2018-10-12T08:05:26.000Z</time>
      </trkpt>
      <trkpt lat="31.0185394287109375" lon="-7.0671591758728027">
        <ele>1279.821044921875</ele>
        <time>2018-10-12T08:05:27.000Z</time>
      </trkpt>
      <trkpt lat="31.0185089111328125" lon="-7.0671272277832031">
        <ele>1280.0</ele>
        <time>2018-10-12T08:05:28.000Z</time>
      </trkpt>
      <trkpt lat="31.0184764862060547" lon="-7.0671038627624512">
        <ele>1280.0</ele>
        <time>2018-10-12T08:05:29.000Z</time>
      </trkpt>
      <trkpt lat="31.0184402465820312" lon="-7.0670881271362305">
        <ele>1280.0</ele>
        <time>2018-10-12T08:05:30.000Z</time>
      </trkpt>
      <trkpt lat="31.0184020996093750" lon="-7.0670728683471680">
        <ele>1280.0</ele>
        <time>2018-10-12T08:05:31.000Z</time>
      </trkpt>
      <trkpt lat="31.0183620452880859" lon="-7.0670561790466309">
        <ele>1280.0</ele>
        <time>2018-10-12T08:05:32.000Z</time>
      </trkpt>
      <trkpt lat="31.0183238983154297" lon="-7.0670351982116699">
        <ele>1280.0</ele>
        <time>2018-10-12T08:05:33.000Z</time>
      </trkpt>
      <trkpt lat="31.0182876586914062" lon="-7.0670127868652344">
        <ele>1280.0</ele>
        <time>2018-10-12T08:05:34.000Z</time>
      </trkpt>
      <trkpt lat="31.0182495117187500" lon="-7.0669879913330078">
        <ele>1280.0</ele>
        <time>2018-10-12T08:05:35.000Z</time>
      </trkpt>
      <trkpt lat="31.0182094573974609" lon="-7.0669608116149902">
        <ele>1280.0</ele>
        <time>2018-10-12T08:05:36.000Z</time>
      </trkpt>
      <trkpt lat="31.0181694030761719" lon="-7.0669360160827637">
        <ele>1279.178955078125</ele>
        <time>2018-10-12T08:05:37.000Z</time>
      </trkpt>
      <trkpt lat="31.0181331634521484" lon="-7.0669131278991699">
        <ele>1278.178955078125</ele>
        <time>2018-10-12T08:05:38.000Z</time>
      </trkpt>
      <trkpt lat="31.0181026458740234" lon="-7.0668911933898926">
        <ele>1278.0</ele>
        <time>2018-10-12T08:05:39.000Z</time>
      </trkpt>
      <trkpt lat="31.0180759429931641" lon="-7.0668668746948242">
        <ele>1278.0</ele>
        <time>2018-10-12T08:05:40.000Z</time>
      </trkpt>
      <trkpt lat="31.0180530548095703" lon="-7.0668420791625977">
        <ele>1278.0</ele>
        <time>2018-10-12T08:05:41.000Z</time>
      </trkpt>
      <trkpt lat="31.0180358886718750" lon="-7.0668191909790039">
        <ele>1277.2672119140625</ele>
        <time>2018-10-12T08:05:42.000Z</time>
      </trkpt>
      <trkpt lat="31.0180168151855469" lon="-7.0667929649353027">
        <ele>1277.0</ele>
        <time>2018-10-12T08:05:43.000Z</time>
      </trkpt>
      <trkpt lat="31.0180015563964844" lon="-7.0667610168457031">
        <ele>1277.0</ele>
        <time>2018-10-12T08:05:44.000Z</time>
      </trkpt>
      <trkpt lat="31.0179901123046875" lon="-7.0667300224304199">
        <ele>1277.0</ele>
        <time>2018-10-12T08:05:45.000Z</time>
      </trkpt>
      <trkpt lat="31.0179862976074219" lon="-7.0667028427124023">
        <ele>1277.0</ele>
        <time>2018-10-12T08:05:46.000Z</time>
      </trkpt>
      <trkpt lat="31.0179843902587891" lon="-7.0666770935058594">
        <ele>1276.195068359375</ele>
        <time>2018-10-12T08:05:47.000Z</time>
      </trkpt>
      <trkpt lat="31.0179843902587891" lon="-7.0666518211364746">
        <ele>1276.0</ele>
        <time>2018-10-12T08:05:48.000Z</time>
      </trkpt>
      <trkpt lat="31.0179882049560547" lon="-7.0666232109069824">
        <ele>1276.0</ele>
        <time>2018-10-12T08:05:49.000Z</time>
      </trkpt>
      <trkpt lat="31.0179939270019531" lon="-7.0665869712829590">
        <ele>1275.178955078125</ele>
        <time>2018-10-12T08:05:50.000Z</time>
      </trkpt>
      <trkpt lat="31.0179920196533203" lon="-7.0665459632873535">
        <ele>1275.0</ele>
        <time>2018-10-12T08:05:51.000Z</time>
      </trkpt>
      <trkpt lat="31.0179862976074219" lon="-7.0665078163146973">
        <ele>1275.0</ele>
        <time>2018-10-12T08:05:52.000Z</time>
      </trkpt>
      <trkpt lat="31.0179767608642578" lon="-7.0664710998535156">
        <ele>1274.178955078125</ele>
        <time>2018-10-12T08:05:53.000Z</time>
      </trkpt>
      <trkpt lat="31.0179653167724609" lon="-7.0664300918579102">
        <ele>1274.0</ele>
        <time>2018-10-12T08:05:54.000Z</time>
      </trkpt>
      <trkpt lat="31.0179557800292969" lon="-7.0663862228393555">
        <ele>1274.0</ele>
        <time>2018-10-12T08:05:55.000Z</time>
      </trkpt>
      <trkpt lat="31.0179462432861328" lon="-7.0663399696350098">
        <ele>1274.0</ele>
        <time>2018-10-12T08:05:56.000Z</time>
      </trkpt>
      <trkpt lat="31.0179367065429688" lon="-7.0662951469421387">
        <ele>1274.0</ele>
        <time>2018-10-12T08:05:57.000Z</time>
      </trkpt>
      <trkpt lat="31.0179271697998047" lon="-7.0662479400634766">
        <ele>1274.0</ele>
        <time>2018-10-12T08:05:58.000Z</time>
      </trkpt>
      <trkpt lat="31.0179195404052734" lon="-7.0661969184875488">
        <ele>1274.0</ele>
        <time>2018-10-12T08:05:59.000Z</time>
      </trkpt>
      <trkpt lat="31.0179100036621094" lon="-7.0661420822143555">
        <ele>1273.178955078125</ele>
        <time>2018-10-12T08:06:00.000Z</time>
      </trkpt>
      <trkpt lat="31.0178985595703125" lon="-7.0660839080810547">
        <ele>1273.0</ele>
        <time>2018-10-12T08:06:01.000Z</time>
      </trkpt>
      <trkpt lat="31.0178813934326172" lon="-7.0660247802734375">
        <ele>1272.376220703125</ele>
        <time>2018-10-12T08:06:02.000Z</time>
      </trkpt>
      <trkpt lat="31.0178565979003906" lon="-7.0659742355346680">
        <ele>1271.2593994140625</ele>
        <time>2018-10-12T08:06:03.000Z</time>
      </trkpt>
      <trkpt lat="31.0178298950195312" lon="-7.0659370422363281">
        <ele>1271.0</ele>
        <time>2018-10-12T08:06:04.000Z</time>
      </trkpt>
      <trkpt lat="31.0177993774414062" lon="-7.0659108161926270">
        <ele>1271.0</ele>
        <time>2018-10-12T08:06:05.000Z</time>
      </trkpt>
      <trkpt lat="31.0177707672119141" lon="-7.0658931732177734">
        <ele>1271.0</ele>
        <time>2018-10-12T08:06:06.000Z</time>
      </trkpt>
      <trkpt lat="31.0177383422851562" lon="-7.0658822059631348">
        <ele>1271.0</ele>
        <time>2018-10-12T08:06:07.000Z</time>
      </trkpt>
      <trkpt lat="31.0177040100097656" lon="-7.0658769607543945">
        <ele>1271.0</ele>
        <time>2018-10-12T08:06:08.000Z</time>
      </trkpt>
      <trkpt lat="31.0176696777343750" lon="-7.0658769607543945">
        <ele>1270.3826904296875</ele>
        <time>2018-10-12T08:06:09.000Z</time>
      </trkpt>
      <trkpt lat="31.0176372528076172" lon="-7.0658750534057617">
        <ele>1270.0</ele>
        <time>2018-10-12T08:06:10.000Z</time>
      </trkpt>
      <trkpt lat="31.0176048278808594" lon="-7.0658669471740723">
        <ele>1270.0</ele>
        <time>2018-10-12T08:06:11.000Z</time>
      </trkpt>
      <trkpt lat="31.0175743103027344" lon="-7.0658550262451172">
        <ele>1270.0</ele>
        <time>2018-10-12T08:06:12.000Z</time>
      </trkpt>
      <trkpt lat="31.0175533294677734" lon="-7.0658450126647949">
        <ele>1270.0</ele>
        <time>2018-10-12T08:06:13.000Z</time>
      </trkpt>
      <trkpt lat="31.0175285339355469" lon="-7.0658240318298340">
        <ele>1270.0</ele>
        <time>2018-10-12T08:06:15.000Z</time>
      </trkpt>
      <trkpt lat="31.0175037384033203" lon="-7.0657892227172852">
        <ele>1269.178955078125</ele>
        <time>2018-10-12T08:06:17.000Z</time>
      </trkpt>
      <trkpt lat="31.0174884796142578" lon="-7.0657649040222168">
        <ele>1269.0</ele>
        <time>2018-10-12T08:06:18.000Z</time>
      </trkpt>
      <trkpt lat="31.0174751281738281" lon="-7.0657382011413574">
        <ele>1269.0</ele>
        <time>2018-10-12T08:06:19.000Z</time>
      </trkpt>
      <trkpt lat="31.0174674987792969" lon="-7.0657110214233398">
        <ele>1269.0</ele>
        <time>2018-10-12T08:06:20.000Z</time>
      </trkpt>
      <trkpt lat="31.0174636840820312" lon="-7.0656828880310059">
        <ele>1269.0</ele>
        <time>2018-10-12T08:06:21.000Z</time>
      </trkpt>
      <trkpt lat="31.0174636840820312" lon="-7.0656518936157227">
        <ele>1269.0</ele>
        <time>2018-10-12T08:06:22.000Z</time>
      </trkpt>
      <trkpt lat="31.0174655914306641" lon="-7.0656151771545410">
        <ele>1269.0</ele>
        <time>2018-10-12T08:06:23.000Z</time>
      </trkpt>
      <trkpt lat="31.0174713134765625" lon="-7.0655741691589355">
        <ele>1269.821044921875</ele>
        <time>2018-10-12T08:06:24.000Z</time>
      </trkpt>
      <trkpt lat="31.0174827575683594" lon="-7.0655307769775391">
        <ele>1270.0</ele>
        <time>2018-10-12T08:06:25.000Z</time>
      </trkpt>
      <trkpt lat="31.0174980163574219" lon="-7.0654869079589844">
        <ele>1270.0</ele>
        <time>2018-10-12T08:06:26.000Z</time>
      </trkpt>
      <trkpt lat="31.0175151824951172" lon="-7.0654449462890625">
        <ele>1270.0</ele>
        <time>2018-10-12T08:06:27.000Z</time>
      </trkpt>
      <trkpt lat="31.0175304412841797" lon="-7.0654020309448242">
        <ele>1270.821044921875</ele>
        <time>2018-10-12T08:06:28.000Z</time>
      </trkpt>
      <trkpt lat="31.0175323486328125" lon="-7.0653629302978516">
        <ele>1271.0</ele>
        <time>2018-10-12T08:06:29.000Z</time>
      </trkpt>
      <trkpt lat="31.0175247192382812" lon="-7.0653309822082520">
        <ele>1271.821044921875</ele>
        <time>2018-10-12T08:06:30.000Z</time>
      </trkpt>
      <trkpt lat="31.0175113677978516" lon="-7.0653038024902344">
        <ele>1272.0</ele>
        <time>2018-10-12T08:06:31.000Z</time>
      </trkpt>
      <trkpt lat="31.0174942016601562" lon="-7.0652809143066406">
        <ele>1272.0</ele>
        <time>2018-10-12T08:06:32.000Z</time>
      </trkpt>
      <trkpt lat="31.0174751281738281" lon="-7.0652627944946289">
        <ele>1272.0</ele>
        <time>2018-10-12T08:06:33.000Z</time>
      </trkpt>
      <trkpt lat="31.0174522399902344" lon="-7.0652518272399902">
        <ele>1272.0</ele>
        <time>2018-10-12T08:06:34.000Z</time>
      </trkpt>
      <trkpt lat="31.0174293518066406" lon="-7.0652461051940918">
        <ele>1272.0</ele>
        <time>2018-10-12T08:06:35.000Z</time>
      </trkpt>
      <trkpt lat="31.0174045562744141" lon="-7.0652427673339844">
        <ele>1272.0</ele>
        <time>2018-10-12T08:06:36.000Z</time>
      </trkpt>
      <trkpt lat="31.0173778533935547" lon="-7.0652418136596680">
        <ele>1272.0</ele>
        <time>2018-10-12T08:06:37.000Z</time>
      </trkpt>
      <trkpt lat="31.0173530578613281" lon="-7.0652418136596680">
        <ele>1272.0</ele>
        <time>2018-10-12T08:06:38.000Z</time>
      </trkpt>
      <trkpt lat="31.0173282623291016" lon="-7.0652399063110352">
        <ele>1272.0</ele>
        <time>2018-10-12T08:06:39.000Z</time>
      </trkpt>
      <trkpt lat="31.0173034667968750" lon="-7.0652370452880859">
        <ele>1272.626708984375</ele>
        <time>2018-10-12T08:06:40.000Z</time>
      </trkpt>
      <trkpt lat="31.0172786712646484" lon="-7.0652298927307129">
        <ele>1273.0</ele>
        <time>2018-10-12T08:06:41.000Z</time>
      </trkpt>
      <trkpt lat="31.0172500610351562" lon="-7.0652198791503906">
        <ele>1273.0</ele>
        <time>2018-10-12T08:06:42.000Z</time>
      </trkpt>
      <trkpt lat="31.0172214508056641" lon="-7.0652108192443848">
        <ele>1273.0</ele>
        <time>2018-10-12T08:06:43.000Z</time>
      </trkpt>
      <trkpt lat="31.0171909332275391" lon="-7.0652022361755371">
        <ele>1273.0</ele>
        <time>2018-10-12T08:06:44.000Z</time>
      </trkpt>
      <trkpt lat="31.0171604156494141" lon="-7.0651922225952148">
        <ele>1273.0</ele>
        <time>2018-10-12T08:06:45.000Z</time>
      </trkpt>
      <trkpt lat="31.0171318054199219" lon="-7.0651798248291016">
        <ele>1273.0</ele>
        <time>2018-10-12T08:06:46.000Z</time>
      </trkpt>
      <trkpt lat="31.0171051025390625" lon="-7.0651679039001465">
        <ele>1273.0</ele>
        <time>2018-10-12T08:06:47.000Z</time>
      </trkpt>
      <trkpt lat="31.0170822143554688" lon="-7.0651540756225586">
        <ele>1273.0</ele>
        <time>2018-10-12T08:06:48.000Z</time>
      </trkpt>
      <trkpt lat="31.0170593261718750" lon="-7.0651397705078125">
        <ele>1273.0</ele>
        <time>2018-10-12T08:06:49.000Z</time>
      </trkpt>
      <trkpt lat="31.0170364379882812" lon="-7.0651240348815918">
        <ele>1273.0</ele>
        <time>2018-10-12T08:06:50.000Z</time>
      </trkpt>
      <trkpt lat="31.0170154571533203" lon="-7.0651049613952637">
        <ele>1273.0</ele>
        <time>2018-10-12T08:06:51.000Z</time>
      </trkpt>
      <trkpt lat="31.0169925689697266" lon="-7.0650849342346191">
        <ele>1273.0</ele>
        <time>2018-10-12T08:06:52.000Z</time>
      </trkpt>
      <trkpt lat="31.0169696807861328" lon="-7.0650639533996582">
        <ele>1273.797119140625</ele>
        <time>2018-10-12T08:06:53.000Z</time>
      </trkpt>
      <trkpt lat="31.0169467926025391" lon="-7.0650410652160645">
        <ele>1274.0</ele>
        <time>2018-10-12T08:06:54.000Z</time>
      </trkpt>
      <trkpt lat="31.0169239044189453" lon="-7.0650157928466797">
        <ele>1274.0</ele>
        <time>2018-10-12T08:06:55.000Z</time>
      </trkpt>
      <trkpt lat="31.0168991088867188" lon="-7.0649890899658203">
        <ele>1274.0</ele>
        <time>2018-10-12T08:06:56.000Z</time>
      </trkpt>
      <trkpt lat="31.0168762207031250" lon="-7.0649609565734863">
        <ele>1274.0</ele>
        <time>2018-10-12T08:06:57.000Z</time>
      </trkpt>
      <trkpt lat="31.0168533325195312" lon="-7.0649299621582031">
        <ele>1274.821044921875</ele>
        <time>2018-10-12T08:06:58.000Z</time>
      </trkpt>
      <trkpt lat="31.0168304443359375" lon="-7.0648989677429199">
        <ele>1275.0</ele>
        <time>2018-10-12T08:06:59.000Z</time>
      </trkpt>
      <trkpt lat="31.0168075561523438" lon="-7.0648679733276367">
        <ele>1275.0</ele>
        <time>2018-10-12T08:07:00.000Z</time>
      </trkpt>
      <trkpt lat="31.0167865753173828" lon="-7.0648369789123535">
        <ele>1275.0</ele>
        <time>2018-10-12T08:07:01.000Z</time>
      </trkpt>
      <trkpt lat="31.0167636871337891" lon="-7.0648050308227539">
        <ele>1275.0</ele>
        <time>2018-10-12T08:07:02.000Z</time>
      </trkpt>
      <trkpt lat="31.0167407989501953" lon="-7.0647730827331543">
        <ele>1275.0</ele>
        <time>2018-10-12T08:07:03.000Z</time>
      </trkpt>
      <trkpt lat="31.0167179107666016" lon="-7.0647420883178711">
        <ele>1275.0</ele>
        <time>2018-10-12T08:07:04.000Z</time>
      </trkpt>
      <trkpt lat="31.0166950225830078" lon="-7.0647130012512207">
        <ele>1275.0</ele>
        <time>2018-10-12T08:07:05.000Z</time>
      </trkpt>
      <trkpt lat="31.0166721343994141" lon="-7.0646858215332031">
        <ele>1275.0</ele>
        <time>2018-10-12T08:07:06.000Z</time>
      </trkpt>
      <trkpt lat="31.0166492462158203" lon="-7.0646557807922363">
        <ele>1275.0</ele>
        <time>2018-10-12T08:07:07.000Z</time>
      </trkpt>
      <trkpt lat="31.0166263580322266" lon="-7.0646238327026367">
        <ele>1275.0</ele>
        <time>2018-10-12T08:07:08.000Z</time>
      </trkpt>
      <trkpt lat="31.0166015625000000" lon="-7.0645899772644043">
        <ele>1275.0</ele>
        <time>2018-10-12T08:07:09.000Z</time>
      </trkpt>
      <trkpt lat="31.0165748596191406" lon="-7.0645551681518555">
        <ele>1275.0</ele>
        <time>2018-10-12T08:07:10.000Z</time>
      </trkpt>
      <trkpt lat="31.0165481567382812" lon="-7.0645189285278320">
        <ele>1275.0</ele>
        <time>2018-10-12T08:07:11.000Z</time>
      </trkpt>
      <trkpt lat="31.0165214538574219" lon="-7.0644831657409668">
        <ele>1275.0</ele>
        <time>2018-10-12T08:07:12.000Z</time>
      </trkpt>
      <trkpt lat="31.0164947509765625" lon="-7.0644469261169434">
        <ele>1275.0</ele>
        <time>2018-10-12T08:07:13.000Z</time>
      </trkpt>
      <trkpt lat="31.0164661407470703" lon="-7.0644102096557617">
        <ele>1275.0</ele>
        <time>2018-10-12T08:07:14.000Z</time>
      </trkpt>
      <trkpt lat="31.0164394378662109" lon="-7.0643739700317383">
        <ele>1275.0</ele>
        <time>2018-10-12T08:07:15.000Z</time>
      </trkpt>
      <trkpt lat="31.0164146423339844" lon="-7.0643367767333984">
        <ele>1275.0</ele>
        <time>2018-10-12T08:07:16.000Z</time>
      </trkpt>
      <trkpt lat="31.0163879394531250" lon="-7.0643019676208496">
        <ele>1275.0</ele>
        <time>2018-10-12T08:07:17.000Z</time>
      </trkpt>
      <trkpt lat="31.0163612365722656" lon="-7.0642647743225098">
        <ele>1275.0</ele>
        <time>2018-10-12T08:07:18.000Z</time>
      </trkpt>
      <trkpt lat="31.0163364410400391" lon="-7.0642251968383789">
        <ele>1275.0</ele>
        <time>2018-10-12T08:07:19.000Z</time>
      </trkpt>
      <trkpt lat="31.0163097381591797" lon="-7.0641870498657227">
        <ele>1275.0</ele>
        <time>2018-10-12T08:07:20.000Z</time>
      </trkpt>
      <trkpt lat="31.0162811279296875" lon="-7.0641489028930664">
        <ele>1275.0</ele>
        <time>2018-10-12T08:07:21.000Z</time>
      </trkpt>
      <trkpt lat="31.0162525177001953" lon="-7.0641112327575684">
        <ele>1275.0</ele>
        <time>2018-10-12T08:07:22.000Z</time>
      </trkpt>
      <trkpt lat="31.0162258148193359" lon="-7.0640711784362793">
        <ele>1275.0</ele>
        <time>2018-10-12T08:07:23.000Z</time>
      </trkpt>
      <trkpt lat="31.0161972045898438" lon="-7.0640301704406738">
        <ele>1274.178955078125</ele>
        <time>2018-10-12T08:07:24.000Z</time>
      </trkpt>
      <trkpt lat="31.0161705017089844" lon="-7.0639858245849609">
        <ele>1274.0</ele>
        <time>2018-10-12T08:07:25.000Z</time>
      </trkpt>
      <trkpt lat="31.0161418914794922" lon="-7.0639419555664062">
        <ele>1274.0</ele>
        <time>2018-10-12T08:07:26.000Z</time>
      </trkpt>
      <trkpt lat="31.0161132812500000" lon="-7.0638971328735352">
        <ele>1274.0</ele>
        <time>2018-10-12T08:07:27.000Z</time>
      </trkpt>
      <trkpt lat="31.0160865783691406" lon="-7.0638508796691895">
        <ele>1274.0</ele>
        <time>2018-10-12T08:07:28.000Z</time>
      </trkpt>
      <trkpt lat="31.0160560607910156" lon="-7.0638031959533691">
        <ele>1274.0</ele>
        <time>2018-10-12T08:07:29.000Z</time>
      </trkpt>
      <trkpt lat="31.0160255432128906" lon="-7.0637550354003906">
        <ele>1274.0</ele>
        <time>2018-10-12T08:07:30.000Z</time>
      </trkpt>
      <trkpt lat="31.0159931182861328" lon="-7.0637059211730957">
        <ele>1273.178955078125</ele>
        <time>2018-10-12T08:07:31.000Z</time>
      </trkpt>
      <trkpt lat="31.0159626007080078" lon="-7.0636568069458008">
        <ele>1273.0</ele>
        <time>2018-10-12T08:07:32.000Z</time>
      </trkpt>
      <trkpt lat="31.0159301757812500" lon="-7.0636048316955566">
        <ele>1273.0</ele>
        <time>2018-10-12T08:07:33.000Z</time>
      </trkpt>
      <trkpt lat="31.0158996582031250" lon="-7.0635538101196289">
        <ele>1273.0</ele>
        <time>2018-10-12T08:07:34.000Z</time>
      </trkpt>
      <trkpt lat="31.0158672332763672" lon="-7.0635027885437012">
        <ele>1272.3826904296875</ele>
        <time>2018-10-12T08:07:35.000Z</time>
      </trkpt>
      <trkpt lat="31.0158348083496094" lon="-7.0634517669677734">
        <ele>1272.0</ele>
        <time>2018-10-12T08:07:36.000Z</time>
      </trkpt>
      <trkpt lat="31.0158004760742188" lon="-7.0634012222290039">
        <ele>1272.0</ele>
        <time>2018-10-12T08:07:37.000Z</time>
      </trkpt>
      <trkpt lat="31.0157680511474609" lon="-7.0633478164672852">
        <ele>1272.0</ele>
        <time>2018-10-12T08:07:38.000Z</time>
      </trkpt>
      <trkpt lat="31.0157356262207031" lon="-7.0632939338684082">
        <ele>1272.0</ele>
        <time>2018-10-12T08:07:39.000Z</time>
      </trkpt>
      <trkpt lat="31.0157032012939453" lon="-7.0632410049438477">
        <ele>1272.0</ele>
        <time>2018-10-12T08:07:40.000Z</time>
      </trkpt>
      <trkpt lat="31.0156726837158203" lon="-7.0631880760192871">
        <ele>1271.202880859375</ele>
        <time>2018-10-12T08:07:41.000Z</time>
      </trkpt>
      <trkpt lat="31.0156478881835938" lon="-7.0631351470947266">
        <ele>1271.0</ele>
        <time>2018-10-12T08:07:42.000Z</time>
      </trkpt>
      <trkpt lat="31.0156211853027344" lon="-7.0630807876586914">
        <ele>1271.0</ele>
        <time>2018-10-12T08:07:43.000Z</time>
      </trkpt>
      <trkpt lat="31.0155944824218750" lon="-7.0630311965942383">
        <ele>1271.6173095703125</ele>
        <time>2018-10-12T08:07:44.000Z</time>
      </trkpt>
      <trkpt lat="31.0155677795410156" lon="-7.0629820823669434">
        <ele>1272.0</ele>
        <time>2018-10-12T08:07:45.000Z</time>
      </trkpt>
      <trkpt lat="31.0155410766601562" lon="-7.0629358291625977">
        <ele>1272.0</ele>
        <time>2018-10-12T08:07:46.000Z</time>
      </trkpt>
      <trkpt lat="31.0155143737792969" lon="-7.0628919601440430">
        <ele>1272.0</ele>
        <time>2018-10-12T08:07:47.000Z</time>
      </trkpt>
      <trkpt lat="31.0154876708984375" lon="-7.0628480911254883">
        <ele>1272.0</ele>
        <time>2018-10-12T08:07:48.000Z</time>
      </trkpt>
      <trkpt lat="31.0154571533203125" lon="-7.0628042221069336">
        <ele>1272.0</ele>
        <time>2018-10-12T08:07:49.000Z</time>
      </trkpt>
      <trkpt lat="31.0154266357421875" lon="-7.0627617835998535">
        <ele>1272.0</ele>
        <time>2018-10-12T08:07:50.000Z</time>
      </trkpt>
      <trkpt lat="31.0153942108154297" lon="-7.0627188682556152">
        <ele>1271.178955078125</ele>
        <time>2018-10-12T08:07:51.000Z</time>
      </trkpt>
      <trkpt lat="31.0153617858886719" lon="-7.0626759529113770">
        <ele>1271.0</ele>
        <time>2018-10-12T08:07:52.000Z</time>
      </trkpt>
      <trkpt lat="31.0153293609619141" lon="-7.0626320838928223">
        <ele>1271.0</ele>
        <time>2018-10-12T08:07:53.000Z</time>
      </trkpt>
      <trkpt lat="31.0152969360351562" lon="-7.0625891685485840">
        <ele>1271.0</ele>
        <time>2018-10-12T08:07:54.000Z</time>
      </trkpt>
      <trkpt lat="31.0152683258056641" lon="-7.0625448226928711">
        <ele>1271.0</ele>
        <time>2018-10-12T08:07:55.000Z</time>
      </trkpt>
      <trkpt lat="31.0152397155761719" lon="-7.0625028610229492">
        <ele>1271.0</ele>
        <time>2018-10-12T08:07:56.000Z</time>
      </trkpt>
      <trkpt lat="31.0152111053466797" lon="-7.0624608993530273">
        <ele>1271.0</ele>
        <time>2018-10-12T08:07:57.000Z</time>
      </trkpt>
      <trkpt lat="31.0151824951171875" lon="-7.0624189376831055">
        <ele>1271.0</ele>
        <time>2018-10-12T08:07:58.000Z</time>
      </trkpt>
      <trkpt lat="31.0151557922363281" lon="-7.0623769760131836">
        <ele>1271.0</ele>
        <time>2018-10-12T08:07:59.000Z</time>
      </trkpt>
      <trkpt lat="31.0151290893554688" lon="-7.0623350143432617">
        <ele>1269.4058837890625</ele>
        <time>2018-10-12T08:08:00.000Z</time>
      </trkpt>
      <trkpt lat="31.0151042938232422" lon="-7.0622930526733398">
        <ele>1269.0</ele>
        <time>2018-10-12T08:08:01.000Z</time>
      </trkpt>
      <trkpt lat="31.0150794982910156" lon="-7.0622520446777344">
        <ele>1269.0</ele>
        <time>2018-10-12T08:08:02.000Z</time>
      </trkpt>
      <trkpt lat="31.0150547027587891" lon="-7.0622081756591797">
        <ele>1269.0</ele>
        <time>2018-10-12T08:08:03.000Z</time>
      </trkpt>
      <trkpt lat="31.0150279998779297" lon="-7.0621619224548340">
        <ele>1269.0</ele>
        <time>2018-10-12T08:08:04.000Z</time>
      </trkpt>
      <trkpt lat="31.0149993896484375" lon="-7.0621137619018555">
        <ele>1269.0</ele>
        <time>2018-10-12T08:08:05.000Z</time>
      </trkpt>
      <trkpt lat="31.0149726867675781" lon="-7.0620651245117188">
        <ele>1269.0</ele>
        <time>2018-10-12T08:08:06.000Z</time>
      </trkpt>
      <trkpt lat="31.0149497985839844" lon="-7.0620121955871582">
        <ele>1269.0</ele>
        <time>2018-10-12T08:08:07.000Z</time>
      </trkpt>
      <trkpt lat="31.0149307250976562" lon="-7.0619568824768066">
        <ele>1269.0</ele>
        <time>2018-10-12T08:08:08.000Z</time>
      </trkpt>
      <trkpt lat="31.0149116516113281" lon="-7.0619010925292969">
        <ele>1269.0</ele>
        <time>2018-10-12T08:08:09.000Z</time>
      </trkpt>
      <trkpt lat="31.0148906707763672" lon="-7.0618481636047363">
        <ele>1269.0</ele>
        <time>2018-10-12T08:08:10.000Z</time>
      </trkpt>
      <trkpt lat="31.0148715972900391" lon="-7.0617952346801758">
        <ele>1269.0</ele>
        <time>2018-10-12T08:08:11.000Z</time>
      </trkpt>
      <trkpt lat="31.0148544311523438" lon="-7.0617442131042480">
        <ele>1269.0</ele>
        <time>2018-10-12T08:08:12.000Z</time>
      </trkpt>
      <trkpt lat="31.0148353576660156" lon="-7.0616950988769531">
        <ele>1269.0</ele>
        <time>2018-10-12T08:08:13.000Z</time>
      </trkpt>
      <trkpt lat="31.0148162841796875" lon="-7.0616459846496582">
        <ele>1269.0</ele>
        <time>2018-10-12T08:08:14.000Z</time>
      </trkpt>
      <trkpt lat="31.0147991180419922" lon="-7.0615987777709961">
        <ele>1269.631591796875</ele>
        <time>2018-10-12T08:08:15.000Z</time>
      </trkpt>
      <trkpt lat="31.0147819519042969" lon="-7.0615530014038086">
        <ele>1270.0</ele>
        <time>2018-10-12T08:08:16.000Z</time>
      </trkpt>
      <trkpt lat="31.0147666931152344" lon="-7.0615081787109375">
        <ele>1270.0</ele>
        <time>2018-10-12T08:08:17.000Z</time>
      </trkpt>
      <trkpt lat="31.0147514343261719" lon="-7.0614647865295410">
        <ele>1270.0</ele>
        <time>2018-10-12T08:08:18.000Z</time>
      </trkpt>
      <trkpt lat="31.0147342681884766" lon="-7.0614228248596191">
        <ele>1269.178955078125</ele>
        <time>2018-10-12T08:08:19.000Z</time>
      </trkpt>
      <trkpt lat="31.0147171020507812" lon="-7.0613818168640137">
        <ele>1269.8128662109375</ele>
        <time>2018-10-12T08:08:20.000Z</time>
      </trkpt>
      <trkpt lat="31.0147018432617188" lon="-7.0613417625427246">
        <ele>1270.0</ele>
        <time>2018-10-12T08:08:21.000Z</time>
      </trkpt>
      <trkpt lat="31.0146865844726562" lon="-7.0613031387329102">
        <ele>1270.0</ele>
        <time>2018-10-12T08:08:22.000Z</time>
      </trkpt>
      <trkpt lat="31.0146713256835938" lon="-7.0612659454345703">
        <ele>1270.0</ele>
        <time>2018-10-12T08:08:23.000Z</time>
      </trkpt>
      <trkpt lat="31.0146579742431641" lon="-7.0612311363220215">
        <ele>1270.0</ele>
        <time>2018-10-12T08:08:24.000Z</time>
      </trkpt>
      <trkpt lat="31.0146446228027344" lon="-7.0611968040466309">
        <ele>1270.0</ele>
        <time>2018-10-12T08:08:25.000Z</time>
      </trkpt>
      <trkpt lat="31.0146331787109375" lon="-7.0611658096313477">
        <ele>1270.0</ele>
        <time>2018-10-12T08:08:26.000Z</time>
      </trkpt>
      <trkpt lat="31.0146255493164062" lon="-7.0611410140991211">
        <ele>1270.0</ele>
        <time>2018-10-12T08:08:27.000Z</time>
      </trkpt>
      <trkpt lat="31.0146198272705078" lon="-7.0611181259155273">
        <ele>1270.821044921875</ele>
        <time>2018-10-12T08:08:28.000Z</time>
      </trkpt>
      <trkpt lat="31.0146083831787109" lon="-7.0610980987548828">
        <ele>1271.0</ele>
        <time>2018-10-12T08:08:29.000Z</time>
      </trkpt>
      <trkpt lat="31.0145969390869141" lon="-7.0610809326171875">
        <ele>1271.0</ele>
        <time>2018-10-12T08:08:30.000Z</time>
      </trkpt>
      <trkpt lat="31.0145816802978516" lon="-7.0610599517822266">
        <ele>1271.0</ele>
        <time>2018-10-12T08:08:31.000Z</time>
      </trkpt>
      <trkpt lat="31.0145702362060547" lon="-7.0610361099243164">
        <ele>1271.0</ele>
        <time>2018-10-12T08:08:32.000Z</time>
      </trkpt>
      <trkpt lat="31.0145568847656250" lon="-7.0610098838806152">
        <ele>1270.1807861328125</ele>
        <time>2018-10-12T08:08:33.000Z</time>
      </trkpt>
      <trkpt lat="31.0145454406738281" lon="-7.0609889030456543">
        <ele>1270.0</ele>
        <time>2018-10-12T08:08:34.000Z</time>
      </trkpt>
      <trkpt lat="31.0145263671875000" lon="-7.0609607696533203">
        <ele>1270.0</ele>
        <time>2018-10-12T08:08:36.000Z</time>
      </trkpt>
      <trkpt lat="31.0145034790039062" lon="-7.0609269142150879">
        <ele>1269.178955078125</ele>
        <time>2018-10-12T08:08:38.000Z</time>
      </trkpt>
      <trkpt lat="31.0144882202148438" lon="-7.0609049797058105">
        <ele>1269.0</ele>
        <time>2018-10-12T08:08:39.000Z</time>
      </trkpt>
      <trkpt lat="31.0144729614257812" lon="-7.0608777999877930">
        <ele>1269.0</ele>
        <time>2018-10-12T08:08:40.000Z</time>
      </trkpt>
      <trkpt lat="31.0144557952880859" lon="-7.0608468055725098">
        <ele>1269.0</ele>
        <time>2018-10-12T08:08:41.000Z</time>
      </trkpt>
      <trkpt lat="31.0144386291503906" lon="-7.0608119964599609">
        <ele>1269.0</ele>
        <time>2018-10-12T08:08:42.000Z</time>
      </trkpt>
      <trkpt lat="31.0144195556640625" lon="-7.0607738494873047">
        <ele>1269.0</ele>
        <time>2018-10-12T08:08:43.000Z</time>
      </trkpt>
      <trkpt lat="31.0144042968750000" lon="-7.0607328414916992">
        <ele>1269.0</ele>
        <time>2018-10-12T08:08:44.000Z</time>
      </trkpt>
      <trkpt lat="31.0143871307373047" lon="-7.0606880187988281">
        <ele>1268.178955078125</ele>
        <time>2018-10-12T08:08:45.000Z</time>
      </trkpt>
      <trkpt lat="31.0143699645996094" lon="-7.0606408119201660">
        <ele>1267.178955078125</ele>
        <time>2018-10-12T08:08:46.000Z</time>
      </trkpt>
      <trkpt lat="31.0143508911132812" lon="-7.0605912208557129">
        <ele>1267.0</ele>
        <time>2018-10-12T08:08:47.000Z</time>
      </trkpt>
      <trkpt lat="31.0143318176269531" lon="-7.0605378150939941">
        <ele>1267.0</ele>
        <time>2018-10-12T08:08:48.000Z</time>
      </trkpt>
      <trkpt lat="31.0143108367919922" lon="-7.0604829788208008">
        <ele>1267.0</ele>
        <time>2018-10-12T08:08:49.000Z</time>
      </trkpt>
      <trkpt lat="31.0142898559570312" lon="-7.0604281425476074">
        <ele>1267.0</ele>
        <time>2018-10-12T08:08:50.000Z</time>
      </trkpt>
      <trkpt lat="31.0142650604248047" lon="-7.0603728294372559">
        <ele>1267.0</ele>
        <time>2018-10-12T08:08:51.000Z</time>
      </trkpt>
      <trkpt lat="31.0142402648925781" lon="-7.0603189468383789">
        <ele>1266.178955078125</ele>
        <time>2018-10-12T08:08:52.000Z</time>
      </trkpt>
      <trkpt lat="31.0142154693603516" lon="-7.0602679252624512">
        <ele>1266.0</ele>
        <time>2018-10-12T08:08:53.000Z</time>
      </trkpt>
      <trkpt lat="31.0141887664794922" lon="-7.0602197647094727">
        <ele>1266.0</ele>
        <time>2018-10-12T08:08:54.000Z</time>
      </trkpt>
      <trkpt lat="31.0141620635986328" lon="-7.0601739883422852">
        <ele>1266.0</ele>
        <time>2018-10-12T08:08:55.000Z</time>
      </trkpt>
      <trkpt lat="31.0141334533691406" lon="-7.0601282119750977">
        <ele>1266.0</ele>
        <time>2018-10-12T08:08:56.000Z</time>
      </trkpt>
      <trkpt lat="31.0141029357910156" lon="-7.0600838661193848">
        <ele>1266.0</ele>
        <time>2018-10-12T08:08:57.000Z</time>
      </trkpt>
      <trkpt lat="31.0140686035156250" lon="-7.0600419044494629">
        <ele>1266.0</ele>
        <time>2018-10-12T08:08:58.000Z</time>
      </trkpt>
      <trkpt lat="31.0140304565429688" lon="-7.0599999427795410">
        <ele>1266.0</ele>
        <time>2018-10-12T08:08:59.000Z</time>
      </trkpt>
      <trkpt lat="31.0139904022216797" lon="-7.0599579811096191">
        <ele>1266.0</ele>
        <time>2018-10-12T08:09:00.000Z</time>
      </trkpt>
      <trkpt lat="31.0139503479003906" lon="-7.0599169731140137">
        <ele>1266.0</ele>
        <time>2018-10-12T08:09:01.000Z</time>
      </trkpt>
      <trkpt lat="31.0139102935791016" lon="-7.0598759651184082">
        <ele>1266.0</ele>
        <time>2018-10-12T08:09:02.000Z</time>
      </trkpt>
      <trkpt lat="31.0138721466064453" lon="-7.0598349571228027">
        <ele>1266.0</ele>
        <time>2018-10-12T08:09:03.000Z</time>
      </trkpt>
      <trkpt lat="31.0138301849365234" lon="-7.0597939491271973">
        <ele>1266.0</ele>
        <time>2018-10-12T08:09:04.000Z</time>
      </trkpt>
      <trkpt lat="31.0137920379638672" lon="-7.0597510337829590">
        <ele>1266.0</ele>
        <time>2018-10-12T08:09:05.000Z</time>
      </trkpt>
      <trkpt lat="31.0137557983398438" lon="-7.0597028732299805">
        <ele>1266.0</ele>
        <time>2018-10-12T08:09:06.000Z</time>
      </trkpt>
      <trkpt lat="31.0137214660644531" lon="-7.0596542358398438">
        <ele>1266.0</ele>
        <time>2018-10-12T08:09:07.000Z</time>
      </trkpt>
      <trkpt lat="31.0136890411376953" lon="-7.0596008300781250">
        <ele>1266.0</ele>
        <time>2018-10-12T08:09:08.000Z</time>
      </trkpt>
      <trkpt lat="31.0136547088623047" lon="-7.0595469474792480">
        <ele>1266.0</ele>
        <time>2018-10-12T08:09:09.000Z</time>
      </trkpt>
      <trkpt lat="31.0136184692382812" lon="-7.0594911575317383">
        <ele>1266.0</ele>
        <time>2018-10-12T08:09:10.000Z</time>
      </trkpt>
      <trkpt lat="31.0135822296142578" lon="-7.0594329833984375">
        <ele>1266.0</ele>
        <time>2018-10-12T08:09:11.000Z</time>
      </trkpt>
      <trkpt lat="31.0135440826416016" lon="-7.0593719482421875">
        <ele>1266.0</ele>
        <time>2018-10-12T08:09:12.000Z</time>
      </trkpt>
      <trkpt lat="31.0135078430175781" lon="-7.0593109130859375">
        <ele>1266.0</ele>
        <time>2018-10-12T08:09:13.000Z</time>
      </trkpt>
      <trkpt lat="31.0134696960449219" lon="-7.0592489242553711">
        <ele>1266.0</ele>
        <time>2018-10-12T08:09:14.000Z</time>
      </trkpt>
      <trkpt lat="31.0134334564208984" lon="-7.0591878890991211">
        <ele>1265.3826904296875</ele>
        <time>2018-10-12T08:09:15.000Z</time>
      </trkpt>
      <trkpt lat="31.0133953094482422" lon="-7.0591278076171875">
        <ele>1265.0</ele>
        <time>2018-10-12T08:09:16.000Z</time>
      </trkpt>
      <trkpt lat="31.0133590698242188" lon="-7.0590710639953613">
        <ele>1265.0</ele>
        <time>2018-10-12T08:09:17.000Z</time>
      </trkpt>
      <trkpt lat="31.0133266448974609" lon="-7.0590171813964844">
        <ele>1265.0</ele>
        <time>2018-10-12T08:09:18.000Z</time>
      </trkpt>
      <trkpt lat="31.0132923126220703" lon="-7.0589637756347656">
        <ele>1265.0</ele>
        <time>2018-10-12T08:09:19.000Z</time>
      </trkpt>
      <trkpt lat="31.0132617950439453" lon="-7.0589132308959961">
        <ele>1264.178955078125</ele>
        <time>2018-10-12T08:09:20.000Z</time>
      </trkpt>
      <trkpt lat="31.0132312774658203" lon="-7.0588622093200684">
        <ele>1264.0</ele>
        <time>2018-10-12T08:09:21.000Z</time>
      </trkpt>
      <trkpt lat="31.0132026672363281" lon="-7.0588130950927734">
        <ele>1264.0</ele>
        <time>2018-10-12T08:09:22.000Z</time>
      </trkpt>
      <trkpt lat="31.0131740570068359" lon="-7.0587668418884277">
        <ele>1264.0</ele>
        <time>2018-10-12T08:09:23.000Z</time>
      </trkpt>
      <trkpt lat="31.0131473541259766" lon="-7.0587220191955566">
        <ele>1264.0</ele>
        <time>2018-10-12T08:09:24.000Z</time>
      </trkpt>
      <trkpt lat="31.0131244659423828" lon="-7.0586791038513184">
        <ele>1264.0</ele>
        <time>2018-10-12T08:09:25.000Z</time>
      </trkpt>
      <trkpt lat="31.0130996704101562" lon="-7.0586361885070801">
        <ele>1264.0</ele>
        <time>2018-10-12T08:09:26.000Z</time>
      </trkpt>
      <trkpt lat="31.0130767822265625" lon="-7.0585942268371582">
        <ele>1264.0</ele>
        <time>2018-10-12T08:09:27.000Z</time>
      </trkpt>
      <trkpt lat="31.0130538940429688" lon="-7.0585541725158691">
        <ele>1264.0</ele>
        <time>2018-10-12T08:09:28.000Z</time>
      </trkpt>
      <trkpt lat="31.0130329132080078" lon="-7.0585141181945801">
        <ele>1264.0</ele>
        <time>2018-10-12T08:09:29.000Z</time>
      </trkpt>
      <trkpt lat="31.0130157470703125" lon="-7.0584759712219238">
        <ele>1264.0</ele>
        <time>2018-10-12T08:09:30.000Z</time>
      </trkpt>
      <trkpt lat="31.0129966735839844" lon="-7.0584359169006348">
        <ele>1264.0</ele>
        <time>2018-10-12T08:09:31.000Z</time>
      </trkpt>
      <trkpt lat="31.0129795074462891" lon="-7.0583958625793457">
        <ele>1264.0</ele>
        <time>2018-10-12T08:09:32.000Z</time>
      </trkpt>
      <trkpt lat="31.0129623413085938" lon="-7.0583558082580566">
        <ele>1264.0</ele>
        <time>2018-10-12T08:09:33.000Z</time>
      </trkpt>
      <trkpt lat="31.0129489898681641" lon="-7.0583162307739258">
        <ele>1264.0</ele>
        <time>2018-10-12T08:09:34.000Z</time>
      </trkpt>
      <trkpt lat="31.0129356384277344" lon="-7.0582761764526367">
        <ele>1264.0</ele>
        <time>2018-10-12T08:09:35.000Z</time>
      </trkpt>
      <trkpt lat="31.0129241943359375" lon="-7.0582380294799805">
        <ele>1264.0</ele>
        <time>2018-10-12T08:09:36.000Z</time>
      </trkpt>
      <trkpt lat="31.0129127502441406" lon="-7.0582017898559570">
        <ele>1264.0</ele>
        <time>2018-10-12T08:09:37.000Z</time>
      </trkpt>
      <trkpt lat="31.0129013061523438" lon="-7.0581660270690918">
        <ele>1263.178955078125</ele>
        <time>2018-10-12T08:09:38.000Z</time>
      </trkpt>
      <trkpt lat="31.0128917694091797" lon="-7.0581331253051758">
        <ele>1263.0</ele>
        <time>2018-10-12T08:09:39.000Z</time>
      </trkpt>
      <trkpt lat="31.0128822326660156" lon="-7.0581021308898926">
        <ele>1263.0</ele>
        <time>2018-10-12T08:09:40.000Z</time>
      </trkpt>
      <trkpt lat="31.0128746032714844" lon="-7.0580711364746094">
        <ele>1263.0</ele>
        <time>2018-10-12T08:09:41.000Z</time>
      </trkpt>
      <trkpt lat="31.0128669738769531" lon="-7.0580430030822754">
        <ele>1263.0</ele>
        <time>2018-10-12T08:09:42.000Z</time>
      </trkpt>
      <trkpt lat="31.0128593444824219" lon="-7.0580148696899414">
        <ele>1263.0</ele>
        <time>2018-10-12T08:09:43.000Z</time>
      </trkpt>
      <trkpt lat="31.0128536224365234" lon="-7.0579857826232910">
        <ele>1263.8192138671875</ele>
        <time>2018-10-12T08:09:44.000Z</time>
      </trkpt>
      <trkpt lat="31.0128440856933594" lon="-7.0579571723937988">
        <ele>1264.0</ele>
        <time>2018-10-12T08:09:45.000Z</time>
      </trkpt>
      <trkpt lat="31.0128326416015625" lon="-7.0579271316528320">
        <ele>1264.0</ele>
        <time>2018-10-12T08:09:46.000Z</time>
      </trkpt>
      <trkpt lat="31.0128211975097656" lon="-7.0578951835632324">
        <ele>1264.0</ele>
        <time>2018-10-12T08:09:47.000Z</time>
      </trkpt>
      <trkpt lat="31.0128078460693359" lon="-7.0578570365905762">
        <ele>1264.0</ele>
        <time>2018-10-12T08:09:48.000Z</time>
      </trkpt>
      <trkpt lat="31.0127887725830078" lon="-7.0578131675720215">
        <ele>1264.0</ele>
        <time>2018-10-12T08:09:49.000Z</time>
      </trkpt>
      <trkpt lat="31.0127639770507812" lon="-7.0577669143676758">
        <ele>1264.0</ele>
        <time>2018-10-12T08:09:50.000Z</time>
      </trkpt>
      <trkpt lat="31.0127391815185547" lon="-7.0577201843261719">
        <ele>1264.728759765625</ele>
        <time>2018-10-12T08:09:51.000Z</time>
      </trkpt>
      <trkpt lat="31.0127124786376953" lon="-7.0576710700988770">
        <ele>1265.0</ele>
        <time>2018-10-12T08:09:52.000Z</time>
      </trkpt>
      <trkpt lat="31.0126838684082031" lon="-7.0576210021972656">
        <ele>1265.0</ele>
        <time>2018-10-12T08:09:53.000Z</time>
      </trkpt>
      <trkpt lat="31.0126514434814453" lon="-7.0575718879699707">
        <ele>1265.821044921875</ele>
        <time>2018-10-12T08:09:54.000Z</time>
      </trkpt>
      <trkpt lat="31.0126190185546875" lon="-7.0575242042541504">
        <ele>1266.821044921875</ele>
        <time>2018-10-12T08:09:55.000Z</time>
      </trkpt>
      <trkpt lat="31.0125846862792969" lon="-7.0574769973754883">
        <ele>1267.0</ele>
        <time>2018-10-12T08:09:56.000Z</time>
      </trkpt>
      <trkpt lat="31.0125522613525391" lon="-7.0574350357055664">
        <ele>1267.821044921875</ele>
        <time>2018-10-12T08:09:57.000Z</time>
      </trkpt>
      <trkpt lat="31.0125217437744141" lon="-7.0573968887329102">
        <ele>1268.0</ele>
        <time>2018-10-12T08:09:58.000Z</time>
      </trkpt>
      <trkpt lat="31.0124969482421875" lon="-7.0573658943176270">
        <ele>1268.821044921875</ele>
        <time>2018-10-12T08:09:59.000Z</time>
      </trkpt>
      <trkpt lat="31.0124740600585938" lon="-7.0573420524597168">
        <ele>1269.0</ele>
        <time>2018-10-12T08:10:00.000Z</time>
      </trkpt>
      <trkpt lat="31.0124588012695312" lon="-7.0573210716247559">
        <ele>1269.821044921875</ele>
        <time>2018-10-12T08:10:01.000Z</time>
      </trkpt>
      <trkpt lat="31.0124435424804688" lon="-7.0573029518127441">
        <ele>1270.0</ele>
        <time>2018-10-12T08:10:02.000Z</time>
      </trkpt>
      <trkpt lat="31.0124282836914062" lon="-7.0572881698608398">
        <ele>1270.0</ele>
        <time>2018-10-12T08:10:03.000Z</time>
      </trkpt>
      <trkpt lat="31.0124053955078125" lon="-7.0572600364685059">
        <ele>1271.821044921875</ele>
        <time>2018-10-12T08:10:05.000Z</time>
      </trkpt>
      <trkpt lat="31.0123825073242188" lon="-7.0572371482849121">
        <ele>1272.0</ele>
        <time>2018-10-12T08:10:07.000Z</time>
      </trkpt>
      <trkpt lat="31.0123653411865234" lon="-7.0572137832641602">
        <ele>1272.0</ele>
        <time>2018-10-12T08:10:09.000Z</time>
      </trkpt>
      <trkpt lat="31.0123462677001953" lon="-7.0571870803833008">
        <ele>1272.0</ele>
        <time>2018-10-12T08:10:11.000Z</time>
      </trkpt>
      <trkpt lat="31.0123233795166016" lon="-7.0571551322937012">
        <ele>1273.0</ele>
        <time>2018-10-12T08:10:13.000Z</time>
      </trkpt>
      <trkpt lat="31.0123023986816406" lon="-7.0571241378784180">
        <ele>1273.0</ele>
        <time>2018-10-12T08:10:15.000Z</time>
      </trkpt>
      <trkpt lat="31.0122833251953125" lon="-7.0570950508117676">
        <ele>1273.0</ele>
        <time>2018-10-12T08:10:17.000Z</time>
      </trkpt>
      <trkpt lat="31.0122718811035156" lon="-7.0570740699768066">
        <ele>1273.0</ele>
        <time>2018-10-12T08:10:19.000Z</time>
      </trkpt>
      <trkpt lat="31.0122852325439453" lon="-7.0570979118347168">
        <ele>1272.0</ele>
        <time>2018-10-12T08:11:51.000Z</time>
      </trkpt>
      <trkpt lat="31.0122947692871094" lon="-7.0571179389953613">
        <ele>1272.0</ele>
        <time>2018-10-12T08:11:52.000Z</time>
      </trkpt>
      <trkpt lat="31.0122833251953125" lon="-7.0570869445800781">
        <ele>1272.0</ele>
        <time>2018-10-12T08:12:00.000Z</time>
      </trkpt>
      <trkpt lat="31.0122699737548828" lon="-7.0570578575134277">
        <ele>1272.0</ele>
        <time>2018-10-12T08:12:02.000Z</time>
      </trkpt>
      <trkpt lat="31.0122852325439453" lon="-7.0570869445800781">
        <ele>1272.0</ele>
        <time>2018-10-12T08:12:34.000Z</time>
      </trkpt>
      <trkpt lat="31.0122928619384766" lon="-7.0571150779724121">
        <ele>1272.0</ele>
        <time>2018-10-12T08:12:36.000Z</time>
      </trkpt>
      <trkpt lat="31.0122833251953125" lon="-7.0570878982543945">
        <ele>1272.0</ele>
        <time>2018-10-12T08:12:44.000Z</time>
      </trkpt>
      <trkpt lat="31.0122756958007812" lon="-7.0570597648620605">
        <ele>1271.1845703125</ele>
        <time>2018-10-12T08:12:46.000Z</time>
      </trkpt>
      <trkpt lat="31.0122871398925781" lon="-7.0570850372314453">
        <ele>1272.821044921875</ele>
        <time>2018-10-12T08:13:09.000Z</time>
      </trkpt>
      <trkpt lat="31.0122985839843750" lon="-7.0571069717407227">
        <ele>1273.0</ele>
        <time>2018-10-12T08:13:10.000Z</time>
      </trkpt>
      <trkpt lat="31.0123062133789062" lon="-7.0571260452270508">
        <ele>1273.0</ele>
        <time>2018-10-12T08:13:12.000Z</time>
      </trkpt>
      <trkpt lat="31.0122966766357422" lon="-7.0570878982543945">
        <ele>1272.0</ele>
        <time>2018-10-12T08:13:17.000Z</time>
      </trkpt>
      <trkpt lat="31.0122852325439453" lon="-7.0570631027221680">
        <ele>1272.0</ele>
        <time>2018-10-12T08:13:18.000Z</time>
      </trkpt>
      <trkpt lat="31.0122699737548828" lon="-7.0570511817932129">
        <ele>1272.7406005859375</ele>
        <time>2018-10-12T08:13:20.000Z</time>
      </trkpt>
      <trkpt lat="31.0122795104980469" lon="-7.0570840835571289">
        <ele>1272.0</ele>
        <time>2018-10-12T08:13:38.000Z</time>
      </trkpt>
      <trkpt lat="31.0122890472412109" lon="-7.0571098327636719">
        <ele>1272.0</ele>
        <time>2018-10-12T08:13:40.000Z</time>
      </trkpt>
      <trkpt lat="31.0123004913330078" lon="-7.0570831298828125">
        <ele>1271.821044921875</ele>
        <time>2018-10-12T08:13:46.000Z</time>
      </trkpt>
      <trkpt lat="31.0122814178466797" lon="-7.0570502281188965">
        <ele>1272.0</ele>
        <time>2018-10-12T08:13:48.000Z</time>
      </trkpt>
      <trkpt lat="31.0122451782226562" lon="-7.0570302009582520">
        <ele>1272.0</ele>
        <time>2018-10-12T08:14:44.000Z</time>
      </trkpt>
      <trkpt lat="31.0122413635253906" lon="-7.0570030212402344">
        <ele>1272.0</ele>
        <time>2018-10-12T08:14:46.000Z</time>
      </trkpt>
      <trkpt lat="31.0122432708740234" lon="-7.0569758415222168">
        <ele>1272.0</ele>
        <time>2018-10-12T08:14:48.000Z</time>
      </trkpt>
      <trkpt lat="31.0122318267822266" lon="-7.0569429397583008">
        <ele>1272.0</ele>
        <time>2018-10-12T08:14:50.000Z</time>
      </trkpt>
      <trkpt lat="31.0122203826904297" lon="-7.0569272041320801">
        <ele>1272.0</ele>
        <time>2018-10-12T08:14:51.000Z</time>
      </trkpt>
      <trkpt lat="31.0122051239013672" lon="-7.0569062232971191">
        <ele>1272.0</ele>
        <time>2018-10-12T08:14:52.000Z</time>
      </trkpt>
      <trkpt lat="31.0121860504150391" lon="-7.0568790435791016">
        <ele>1271.1871337890625</ele>
        <time>2018-10-12T08:14:53.000Z</time>
      </trkpt>
      <trkpt lat="31.0121593475341797" lon="-7.0568461418151855">
        <ele>1271.0</ele>
        <time>2018-10-12T08:14:54.000Z</time>
      </trkpt>
      <trkpt lat="31.0121250152587891" lon="-7.0568089485168457">
        <ele>1270.2593994140625</ele>
        <time>2018-10-12T08:14:55.000Z</time>
      </trkpt>
      <trkpt lat="31.0120811462402344" lon="-7.0567741394042969">
        <ele>1270.0</ele>
        <time>2018-10-12T08:14:56.000Z</time>
      </trkpt>
      <trkpt lat="31.0120315551757812" lon="-7.0567469596862793">
        <ele>1269.3826904296875</ele>
        <time>2018-10-12T08:14:57.000Z</time>
      </trkpt>
      <trkpt lat="31.0119743347167969" lon="-7.0567278861999512">
        <ele>1268.2672119140625</ele>
        <time>2018-10-12T08:14:58.000Z</time>
      </trkpt>
      <trkpt lat="31.0119132995605469" lon="-7.0567169189453125">
        <ele>1268.0</ele>
        <time>2018-10-12T08:14:59.000Z</time>
      </trkpt>
      <trkpt lat="31.0118446350097656" lon="-7.0567049980163574">
        <ele>1265.5369873046875</ele>
        <time>2018-10-12T08:15:00.000Z</time>
      </trkpt>
      <trkpt lat="31.0117702484130859" lon="-7.0566921234130859">
        <ele>1265.0</ele>
        <time>2018-10-12T08:15:01.000Z</time>
      </trkpt>
      <trkpt lat="31.0117053985595703" lon="-7.0566720962524414">
        <ele>1265.0</ele>
        <time>2018-10-12T08:15:02.000Z</time>
      </trkpt>
      <trkpt lat="31.0116558074951172" lon="-7.0566439628601074">
        <ele>1265.0</ele>
        <time>2018-10-12T08:15:03.000Z</time>
      </trkpt>
      <trkpt lat="31.0116138458251953" lon="-7.0566101074218750">
        <ele>1265.0</ele>
        <time>2018-10-12T08:15:04.000Z</time>
      </trkpt>
      <trkpt lat="31.0115833282470703" lon="-7.0565738677978516">
        <ele>1265.0</ele>
        <time>2018-10-12T08:15:05.000Z</time>
      </trkpt>
      <trkpt lat="31.0115604400634766" lon="-7.0565361976623535">
        <ele>1265.626708984375</ele>
        <time>2018-10-12T08:15:06.000Z</time>
      </trkpt>
      <trkpt lat="31.0115394592285156" lon="-7.0564980506896973">
        <ele>1266.0</ele>
        <time>2018-10-12T08:15:07.000Z</time>
      </trkpt>
      <trkpt lat="31.0115203857421875" lon="-7.0564570426940918">
        <ele>1266.0</ele>
        <time>2018-10-12T08:15:08.000Z</time>
      </trkpt>
      <trkpt lat="31.0114994049072266" lon="-7.0564150810241699">
        <ele>1266.0</ele>
        <time>2018-10-12T08:15:09.000Z</time>
      </trkpt>
      <trkpt lat="31.0114784240722656" lon="-7.0563712120056152">
        <ele>1265.178955078125</ele>
        <time>2018-10-12T08:15:10.000Z</time>
      </trkpt>
      <trkpt lat="31.0114555358886719" lon="-7.0563240051269531">
        <ele>1265.0</ele>
        <time>2018-10-12T08:15:11.000Z</time>
      </trkpt>
      <trkpt lat="31.0114326477050781" lon="-7.0562748908996582">
        <ele>1265.0</ele>
        <time>2018-10-12T08:15:12.000Z</time>
      </trkpt>
      <trkpt lat="31.0114097595214844" lon="-7.0562248229980469">
        <ele>1265.0</ele>
        <time>2018-10-12T08:15:13.000Z</time>
      </trkpt>
      <trkpt lat="31.0113830566406250" lon="-7.0561728477478027">
        <ele>1265.0</ele>
        <time>2018-10-12T08:15:14.000Z</time>
      </trkpt>
      <trkpt lat="31.0113582611083984" lon="-7.0561199188232422">
        <ele>1265.0</ele>
        <time>2018-10-12T08:15:15.000Z</time>
      </trkpt>
      <trkpt lat="31.0113315582275391" lon="-7.0560679435729980">
        <ele>1265.0</ele>
        <time>2018-10-12T08:15:16.000Z</time>
      </trkpt>
      <trkpt lat="31.0113067626953125" lon="-7.0560140609741211">
        <ele>1265.0</ele>
        <time>2018-10-12T08:15:17.000Z</time>
      </trkpt>
      <trkpt lat="31.0112781524658203" lon="-7.0559601783752441">
        <ele>1265.0</ele>
        <time>2018-10-12T08:15:18.000Z</time>
      </trkpt>
      <trkpt lat="31.0112514495849609" lon="-7.0559048652648926">
        <ele>1265.0</ele>
        <time>2018-10-12T08:15:19.000Z</time>
      </trkpt>
      <trkpt lat="31.0112266540527344" lon="-7.0558500289916992">
        <ele>1265.0</ele>
        <time>2018-10-12T08:15:20.000Z</time>
      </trkpt>
      <trkpt lat="31.0111980438232422" lon="-7.0557928085327148">
        <ele>1265.0</ele>
        <time>2018-10-12T08:15:21.000Z</time>
      </trkpt>
      <trkpt lat="31.0111713409423828" lon="-7.0557360649108887">
        <ele>1265.0</ele>
        <time>2018-10-12T08:15:22.000Z</time>
      </trkpt>
      <trkpt lat="31.0111427307128906" lon="-7.0556788444519043">
        <ele>1265.0</ele>
        <time>2018-10-12T08:15:23.000Z</time>
      </trkpt>
      <trkpt lat="31.0111141204833984" lon="-7.0556211471557617">
        <ele>1264.178955078125</ele>
        <time>2018-10-12T08:15:24.000Z</time>
      </trkpt>
      <trkpt lat="31.0110855102539062" lon="-7.0555620193481445">
        <ele>1264.0</ele>
        <time>2018-10-12T08:15:25.000Z</time>
      </trkpt>
      <trkpt lat="31.0110569000244141" lon="-7.0555038452148438">
        <ele>1263.2633056640625</ele>
        <time>2018-10-12T08:15:26.000Z</time>
      </trkpt>
      <trkpt lat="31.0110263824462891" lon="-7.0554451942443848">
        <ele>1263.0</ele>
        <time>2018-10-12T08:15:27.000Z</time>
      </trkpt>
      <trkpt lat="31.0109977722167969" lon="-7.0553870201110840">
        <ele>1263.0</ele>
        <time>2018-10-12T08:15:28.000Z</time>
      </trkpt>
      <trkpt lat="31.0109691619873047" lon="-7.0553288459777832">
        <ele>1263.0</ele>
        <time>2018-10-12T08:15:29.000Z</time>
      </trkpt>
      <trkpt lat="31.0109405517578125" lon="-7.0552721023559570">
        <ele>1262.1807861328125</ele>
        <time>2018-10-12T08:15:30.000Z</time>
      </trkpt>
      <trkpt lat="31.0109119415283203" lon="-7.0552139282226562">
        <ele>1262.0</ele>
        <time>2018-10-12T08:15:31.000Z</time>
      </trkpt>
      <trkpt lat="31.0108833312988281" lon="-7.0551571846008301">
        <ele>1262.0</ele>
        <time>2018-10-12T08:15:32.000Z</time>
      </trkpt>
      <trkpt lat="31.0108566284179688" lon="-7.0550990104675293">
        <ele>1262.0</ele>
        <time>2018-10-12T08:15:33.000Z</time>
      </trkpt>
      <trkpt lat="31.0108280181884766" lon="-7.0550417900085449">
        <ele>1262.0</ele>
        <time>2018-10-12T08:15:34.000Z</time>
      </trkpt>
      <trkpt lat="31.0107994079589844" lon="-7.0549840927124023">
        <ele>1262.0</ele>
        <time>2018-10-12T08:15:35.000Z</time>
      </trkpt>
      <trkpt lat="31.0107727050781250" lon="-7.0549259185791016">
        <ele>1262.0</ele>
        <time>2018-10-12T08:15:36.000Z</time>
      </trkpt>
      <trkpt lat="31.0107460021972656" lon="-7.0548701286315918">
        <ele>1262.0</ele>
        <time>2018-10-12T08:15:37.000Z</time>
      </trkpt>
      <trkpt lat="31.0107192993164062" lon="-7.0548138618469238">
        <ele>1261.178955078125</ele>
        <time>2018-10-12T08:15:38.000Z</time>
      </trkpt>
      <trkpt lat="31.0106925964355469" lon="-7.0547590255737305">
        <ele>1261.0</ele>
        <time>2018-10-12T08:15:39.000Z</time>
      </trkpt>
      <trkpt lat="31.0106658935546875" lon="-7.0547032356262207">
        <ele>1261.0</ele>
        <time>2018-10-12T08:15:40.000Z</time>
      </trkpt>
      <trkpt lat="31.0106391906738281" lon="-7.0546479225158691">
        <ele>1261.0</ele>
        <time>2018-10-12T08:15:41.000Z</time>
      </trkpt>
      <trkpt lat="31.0106124877929688" lon="-7.0545921325683594">
        <ele>1260.178955078125</ele>
        <time>2018-10-12T08:15:42.000Z</time>
      </trkpt>
      <trkpt lat="31.0105857849121094" lon="-7.0545377731323242">
        <ele>1260.0</ele>
        <time>2018-10-12T08:15:43.000Z</time>
      </trkpt>
      <trkpt lat="31.0105571746826172" lon="-7.0544838905334473">
        <ele>1260.0</ele>
        <time>2018-10-12T08:15:44.000Z</time>
      </trkpt>
      <trkpt lat="31.0105304718017578" lon="-7.0544300079345703">
        <ele>1260.0</ele>
        <time>2018-10-12T08:15:45.000Z</time>
      </trkpt>
      <trkpt lat="31.0105037689208984" lon="-7.0543751716613770">
        <ele>1260.0</ele>
        <time>2018-10-12T08:15:46.000Z</time>
      </trkpt>
      <trkpt lat="31.0104770660400391" lon="-7.0543198585510254">
        <ele>1260.0</ele>
        <time>2018-10-12T08:15:47.000Z</time>
      </trkpt>
      <trkpt lat="31.0104522705078125" lon="-7.0542669296264648">
        <ele>1260.0</ele>
        <time>2018-10-12T08:15:48.000Z</time>
      </trkpt>
      <trkpt lat="31.0104255676269531" lon="-7.0542140007019043">
        <ele>1260.0</ele>
        <time>2018-10-12T08:15:49.000Z</time>
      </trkpt>
      <trkpt lat="31.0103988647460938" lon="-7.0541610717773438">
        <ele>1260.0</ele>
        <time>2018-10-12T08:15:50.000Z</time>
      </trkpt>
      <trkpt lat="31.0103721618652344" lon="-7.0541100502014160">
        <ele>1259.373291015625</ele>
        <time>2018-10-12T08:15:51.000Z</time>
      </trkpt>
      <trkpt lat="31.0103454589843750" lon="-7.0540637969970703">
        <ele>1259.0</ele>
        <time>2018-10-12T08:15:52.000Z</time>
      </trkpt>
      <trkpt lat="31.0103206634521484" lon="-7.0540199279785156">
        <ele>1259.0</ele>
        <time>2018-10-12T08:15:53.000Z</time>
      </trkpt>
      <trkpt lat="31.0103015899658203" lon="-7.0539751052856445">
        <ele>1259.0</ele>
        <time>2018-10-12T08:15:54.000Z</time>
      </trkpt>
      <trkpt lat="31.0102844238281250" lon="-7.0539278984069824">
        <ele>1258.178955078125</ele>
        <time>2018-10-12T08:15:55.000Z</time>
      </trkpt>
      <trkpt lat="31.0102672576904297" lon="-7.0538811683654785">
        <ele>1258.0</ele>
        <time>2018-10-12T08:15:56.000Z</time>
      </trkpt>
      <trkpt lat="31.0102481842041016" lon="-7.0538339614868164">
        <ele>1258.0</ele>
        <time>2018-10-12T08:15:57.000Z</time>
      </trkpt>
      <trkpt lat="31.0102329254150391" lon="-7.0537872314453125">
        <ele>1258.0</ele>
        <time>2018-10-12T08:15:58.000Z</time>
      </trkpt>
      <trkpt lat="31.0102176666259766" lon="-7.0537390708923340">
        <ele>1258.0</ele>
        <time>2018-10-12T08:15:59.000Z</time>
      </trkpt>
      <trkpt lat="31.0102005004882812" lon="-7.0536918640136719">
        <ele>1258.0</ele>
        <time>2018-10-12T08:16:00.000Z</time>
      </trkpt>
      <trkpt lat="31.0101795196533203" lon="-7.0536479949951172">
        <ele>1258.0</ele>
        <time>2018-10-12T08:16:01.000Z</time>
      </trkpt>
      <trkpt lat="31.0101509094238281" lon="-7.0536060333251953">
        <ele>1258.0</ele>
        <time>2018-10-12T08:16:02.000Z</time>
      </trkpt>
      <trkpt lat="31.0101203918457031" lon="-7.0535669326782227">
        <ele>1258.0</ele>
        <time>2018-10-12T08:16:03.000Z</time>
      </trkpt>
      <trkpt lat="31.0100936889648438" lon="-7.0535268783569336">
        <ele>1257.1871337890625</ele>
        <time>2018-10-12T08:16:04.000Z</time>
      </trkpt>
      <trkpt lat="31.0100708007812500" lon="-7.0534820556640625">
        <ele>1257.0</ele>
        <time>2018-10-12T08:16:05.000Z</time>
      </trkpt>
      <trkpt lat="31.0100498199462891" lon="-7.0534381866455078">
        <ele>1257.0</ele>
        <time>2018-10-12T08:16:06.000Z</time>
      </trkpt>
      <trkpt lat="31.0100307464599609" lon="-7.0533928871154785">
        <ele>1257.0</ele>
        <time>2018-10-12T08:16:07.000Z</time>
      </trkpt>
      <trkpt lat="31.0100116729736328" lon="-7.0533461570739746">
        <ele>1257.0</ele>
        <time>2018-10-12T08:16:08.000Z</time>
      </trkpt>
      <trkpt lat="31.0099925994873047" lon="-7.0532979965209961">
        <ele>1257.0</ele>
        <time>2018-10-12T08:16:09.000Z</time>
      </trkpt>
      <trkpt lat="31.0099716186523438" lon="-7.0532498359680176">
        <ele>1257.0</ele>
        <time>2018-10-12T08:16:10.000Z</time>
      </trkpt>
      <trkpt lat="31.0099525451660156" lon="-7.0532021522521973">
        <ele>1257.0</ele>
        <time>2018-10-12T08:16:11.000Z</time>
      </trkpt>
      <trkpt lat="31.0099334716796875" lon="-7.0531539916992188">
        <ele>1257.0</ele>
        <time>2018-10-12T08:16:12.000Z</time>
      </trkpt>
      <trkpt lat="31.0099124908447266" lon="-7.0531048774719238">
        <ele>1257.0</ele>
        <time>2018-10-12T08:16:13.000Z</time>
      </trkpt>
      <trkpt lat="31.0098896026611328" lon="-7.0530571937561035">
        <ele>1257.0</ele>
        <time>2018-10-12T08:16:14.000Z</time>
      </trkpt>
      <trkpt lat="31.0098648071289062" lon="-7.0530080795288086">
        <ele>1257.0</ele>
        <time>2018-10-12T08:16:15.000Z</time>
      </trkpt>
      <trkpt lat="31.0098400115966797" lon="-7.0529570579528809">
        <ele>1256.2593994140625</ele>
        <time>2018-10-12T08:16:16.000Z</time>
      </trkpt>
      <trkpt lat="31.0098152160644531" lon="-7.0529060363769531">
        <ele>1256.0</ele>
        <time>2018-10-12T08:16:17.000Z</time>
      </trkpt>
      <trkpt lat="31.0097885131835938" lon="-7.0528540611267090">
        <ele>1256.0</ele>
        <time>2018-10-12T08:16:18.000Z</time>
      </trkpt>
      <trkpt lat="31.0097618103027344" lon="-7.0528011322021484">
        <ele>1256.0</ele>
        <time>2018-10-12T08:16:19.000Z</time>
      </trkpt>
      <trkpt lat="31.0097332000732422" lon="-7.0527467727661133">
        <ele>1256.0</ele>
        <time>2018-10-12T08:16:20.000Z</time>
      </trkpt>
      <trkpt lat="31.0097045898437500" lon="-7.0526928901672363">
        <ele>1256.0</ele>
        <time>2018-10-12T08:16:21.000Z</time>
      </trkpt>
      <trkpt lat="31.0096740722656250" lon="-7.0526380538940430">
        <ele>1256.0</ele>
        <time>2018-10-12T08:16:22.000Z</time>
      </trkpt>
      <trkpt lat="31.0096454620361328" lon="-7.0525817871093750">
        <ele>1256.0</ele>
        <time>2018-10-12T08:16:23.000Z</time>
      </trkpt>
      <trkpt lat="31.0096149444580078" lon="-7.0525250434875488">
        <ele>1255.3873291015625</ele>
        <time>2018-10-12T08:16:24.000Z</time>
      </trkpt>
      <trkpt lat="31.0095844268798828" lon="-7.0524678230285645">
        <ele>1255.0</ele>
        <time>2018-10-12T08:16:25.000Z</time>
      </trkpt>
      <trkpt lat="31.0095520019531250" lon="-7.0524101257324219">
        <ele>1255.0</ele>
        <time>2018-10-12T08:16:26.000Z</time>
      </trkpt>
      <trkpt lat="31.0095214843750000" lon="-7.0523519515991211">
        <ele>1255.0</ele>
        <time>2018-10-12T08:16:27.000Z</time>
      </trkpt>
      <trkpt lat="31.0094909667968750" lon="-7.0522918701171875">
        <ele>1255.0</ele>
        <time>2018-10-12T08:16:28.000Z</time>
      </trkpt>
      <trkpt lat="31.0094604492187500" lon="-7.0522317886352539">
        <ele>1255.0</ele>
        <time>2018-10-12T08:16:29.000Z</time>
      </trkpt>
      <trkpt lat="31.0094318389892578" lon="-7.0521731376647949">
        <ele>1255.0</ele>
        <time>2018-10-12T08:16:30.000Z</time>
      </trkpt>
      <trkpt lat="31.0094032287597656" lon="-7.0521130561828613">
        <ele>1255.0</ele>
        <time>2018-10-12T08:16:31.000Z</time>
      </trkpt>
      <trkpt lat="31.0093765258789062" lon="-7.0520539283752441">
        <ele>1254.178955078125</ele>
        <time>2018-10-12T08:16:32.000Z</time>
      </trkpt>
      <trkpt lat="31.0093479156494141" lon="-7.0519962310791016">
        <ele>1253.3963623046875</ele>
        <time>2018-10-12T08:16:33.000Z</time>
      </trkpt>
      <trkpt lat="31.0093154907226562" lon="-7.0519409179687500">
        <ele>1252.2796630859375</ele>
        <time>2018-10-12T08:16:34.000Z</time>
      </trkpt>
      <trkpt lat="31.0092868804931641" lon="-7.0518860816955566">
        <ele>1252.0</ele>
        <time>2018-10-12T08:16:35.000Z</time>
      </trkpt>
      <trkpt lat="31.0092601776123047" lon="-7.0518321990966797">
        <ele>1252.0</ele>
        <time>2018-10-12T08:16:36.000Z</time>
      </trkpt>
      <trkpt lat="31.0092353820800781" lon="-7.0517787933349609">
        <ele>1252.0</ele>
        <time>2018-10-12T08:16:37.000Z</time>
      </trkpt>
      <trkpt lat="31.0092105865478516" lon="-7.0517277717590332">
        <ele>1252.0</ele>
        <time>2018-10-12T08:16:38.000Z</time>
      </trkpt>
      <trkpt lat="31.0091896057128906" lon="-7.0516772270202637">
        <ele>1252.0</ele>
        <time>2018-10-12T08:16:39.000Z</time>
      </trkpt>
      <trkpt lat="31.0091705322265625" lon="-7.0516247749328613">
        <ele>1252.0</ele>
        <time>2018-10-12T08:16:40.000Z</time>
      </trkpt>
      <trkpt lat="31.0091533660888672" lon="-7.0515727996826172">
        <ele>1252.0</ele>
        <time>2018-10-12T08:16:41.000Z</time>
      </trkpt>
      <trkpt lat="31.0091361999511719" lon="-7.0515198707580566">
        <ele>1252.0</ele>
        <time>2018-10-12T08:16:42.000Z</time>
      </trkpt>
      <trkpt lat="31.0091228485107422" lon="-7.0514669418334961">
        <ele>1252.0</ele>
        <time>2018-10-12T08:16:43.000Z</time>
      </trkpt>
      <trkpt lat="31.0091094970703125" lon="-7.0514149665832520">
        <ele>1252.0</ele>
        <time>2018-10-12T08:16:44.000Z</time>
      </trkpt>
      <trkpt lat="31.0090961456298828" lon="-7.0513629913330078">
        <ele>1252.0</ele>
        <time>2018-10-12T08:16:45.000Z</time>
      </trkpt>
      <trkpt lat="31.0090827941894531" lon="-7.0513110160827637">
        <ele>1252.0</ele>
        <time>2018-10-12T08:16:46.000Z</time>
      </trkpt>
      <trkpt lat="31.0090675354003906" lon="-7.0512599945068359">
        <ele>1252.0</ele>
        <time>2018-10-12T08:16:47.000Z</time>
      </trkpt>
      <trkpt lat="31.0090503692626953" lon="-7.0512080192565918">
        <ele>1251.376220703125</ele>
        <time>2018-10-12T08:16:48.000Z</time>
      </trkpt>
      <trkpt lat="31.0090351104736328" lon="-7.0511550903320312">
        <ele>1251.0</ele>
        <time>2018-10-12T08:16:49.000Z</time>
      </trkpt>
      <trkpt lat="31.0090255737304688" lon="-7.0510997772216797">
        <ele>1251.0</ele>
        <time>2018-10-12T08:16:50.000Z</time>
      </trkpt>
      <trkpt lat="31.0090217590332031" lon="-7.0510420799255371">
        <ele>1251.0</ele>
        <time>2018-10-12T08:16:51.000Z</time>
      </trkpt>
      <trkpt lat="31.0090236663818359" lon="-7.0509800910949707">
        <ele>1251.0</ele>
        <time>2018-10-12T08:16:52.000Z</time>
      </trkpt>
      <trkpt lat="31.0090236663818359" lon="-7.0509161949157715">
        <ele>1251.0</ele>
        <time>2018-10-12T08:16:53.000Z</time>
      </trkpt>
      <trkpt lat="31.0090236663818359" lon="-7.0508489608764648">
        <ele>1251.0</ele>
        <time>2018-10-12T08:16:54.000Z</time>
      </trkpt>
      <trkpt lat="31.0090179443359375" lon="-7.0507798194885254">
        <ele>1251.0</ele>
        <time>2018-10-12T08:16:55.000Z</time>
      </trkpt>
      <trkpt lat="31.0090122222900391" lon="-7.0507111549377441">
        <ele>1251.0</ele>
        <time>2018-10-12T08:16:56.000Z</time>
      </trkpt>
      <trkpt lat="31.0090084075927734" lon="-7.0506391525268555">
        <ele>1250.1871337890625</ele>
        <time>2018-10-12T08:16:57.000Z</time>
      </trkpt>
      <trkpt lat="31.0090084075927734" lon="-7.0505638122558594">
        <ele>1249.1807861328125</ele>
        <time>2018-10-12T08:16:58.000Z</time>
      </trkpt>
      <trkpt lat="31.0090160369873047" lon="-7.0504841804504395">
        <ele>1249.0</ele>
        <time>2018-10-12T08:16:59.000Z</time>
      </trkpt>
      <trkpt lat="31.0090217590332031" lon="-7.0503997802734375">
        <ele>1248.373291015625</ele>
        <time>2018-10-12T08:17:00.000Z</time>
      </trkpt>
      <trkpt lat="31.0090179443359375" lon="-7.0503177642822266">
        <ele>1248.0</ele>
        <time>2018-10-12T08:17:01.000Z</time>
      </trkpt>
      <trkpt lat="31.0090026855468750" lon="-7.0502390861511230">
        <ele>1248.0</ele>
        <time>2018-10-12T08:17:02.000Z</time>
      </trkpt>
      <trkpt lat="31.0089836120605469" lon="-7.0501689910888672">
        <ele>1247.178955078125</ele>
        <time>2018-10-12T08:17:03.000Z</time>
      </trkpt>
      <trkpt lat="31.0089626312255859" lon="-7.0501050949096680">
        <ele>1247.0</ele>
        <time>2018-10-12T08:17:04.000Z</time>
      </trkpt>
      <trkpt lat="31.0089416503906250" lon="-7.0500431060791016">
        <ele>1247.0</ele>
        <time>2018-10-12T08:17:05.000Z</time>
      </trkpt>
      <trkpt lat="31.0089187622070312" lon="-7.0499901771545410">
        <ele>1247.0</ele>
        <time>2018-10-12T08:17:06.000Z</time>
      </trkpt>
      <trkpt lat="31.0088920593261719" lon="-7.0499439239501953">
        <ele>1247.0</ele>
        <time>2018-10-12T08:17:07.000Z</time>
      </trkpt>
      <trkpt lat="31.0088634490966797" lon="-7.0499010086059570">
        <ele>1247.0</ele>
        <time>2018-10-12T08:17:08.000Z</time>
      </trkpt>
      <trkpt lat="31.0088310241699219" lon="-7.0498600006103516">
        <ele>1247.0</ele>
        <time>2018-10-12T08:17:09.000Z</time>
      </trkpt>
      <trkpt lat="31.0087985992431641" lon="-7.0498218536376953">
        <ele>1247.0</ele>
        <time>2018-10-12T08:17:10.000Z</time>
      </trkpt>
      <trkpt lat="31.0087642669677734" lon="-7.0497841835021973">
        <ele>1247.0</ele>
        <time>2018-10-12T08:17:11.000Z</time>
      </trkpt>
      <trkpt lat="31.0087299346923828" lon="-7.0497460365295410">
        <ele>1247.0</ele>
        <time>2018-10-12T08:17:12.000Z</time>
      </trkpt>
      <trkpt lat="31.0086956024169922" lon="-7.0497097969055176">
        <ele>1247.0</ele>
        <time>2018-10-12T08:17:13.000Z</time>
      </trkpt>
      <trkpt lat="31.0086612701416016" lon="-7.0496740341186523">
        <ele>1246.178955078125</ele>
        <time>2018-10-12T08:17:14.000Z</time>
      </trkpt>
      <trkpt lat="31.0086288452148438" lon="-7.0496392250061035">
        <ele>1246.0</ele>
        <time>2018-10-12T08:17:15.000Z</time>
      </trkpt>
      <trkpt lat="31.0085945129394531" lon="-7.0496039390563965">
        <ele>1246.821044921875</ele>
        <time>2018-10-12T08:17:16.000Z</time>
      </trkpt>
      <trkpt lat="31.0085639953613281" lon="-7.0495719909667969">
        <ele>1247.0</ele>
        <time>2018-10-12T08:17:17.000Z</time>
      </trkpt>
      <trkpt lat="31.0085334777832031" lon="-7.0495409965515137">
        <ele>1247.0</ele>
        <time>2018-10-12T08:17:18.000Z</time>
      </trkpt>
      <trkpt lat="31.0085048675537109" lon="-7.0495109558105469">
        <ele>1247.0</ele>
        <time>2018-10-12T08:17:19.000Z</time>
      </trkpt>
      <trkpt lat="31.0084743499755859" lon="-7.0494818687438965">
        <ele>1247.0</ele>
        <time>2018-10-12T08:17:20.000Z</time>
      </trkpt>
      <trkpt lat="31.0084457397460938" lon="-7.0494527816772461">
        <ele>1247.0</ele>
        <time>2018-10-12T08:17:21.000Z</time>
      </trkpt>
      <trkpt lat="31.0084152221679688" lon="-7.0494232177734375">
        <ele>1247.0</ele>
        <time>2018-10-12T08:17:22.000Z</time>
      </trkpt>
      <trkpt lat="31.0083866119384766" lon="-7.0493922233581543">
        <ele>1247.0</ele>
        <time>2018-10-12T08:17:23.000Z</time>
      </trkpt>
      <trkpt lat="31.0083560943603516" lon="-7.0493612289428711">
        <ele>1247.0</ele>
        <time>2018-10-12T08:17:24.000Z</time>
      </trkpt>
      <trkpt lat="31.0083255767822266" lon="-7.0493288040161133">
        <ele>1247.0</ele>
        <time>2018-10-12T08:17:25.000Z</time>
      </trkpt>
      <trkpt lat="31.0082931518554688" lon="-7.0492939949035645">
        <ele>1247.0</ele>
        <time>2018-10-12T08:17:26.000Z</time>
      </trkpt>
      <trkpt lat="31.0082626342773438" lon="-7.0492582321166992">
        <ele>1247.0</ele>
        <time>2018-10-12T08:17:27.000Z</time>
      </trkpt>
      <trkpt lat="31.0082302093505859" lon="-7.0492210388183594">
        <ele>1247.0</ele>
        <time>2018-10-12T08:17:28.000Z</time>
      </trkpt>
      <trkpt lat="31.0082015991210938" lon="-7.0491828918457031">
        <ele>1247.0</ele>
        <time>2018-10-12T08:17:29.000Z</time>
      </trkpt>
      <trkpt lat="31.0081729888916016" lon="-7.0491418838500977">
        <ele>1247.0</ele>
        <time>2018-10-12T08:17:30.000Z</time>
      </trkpt>
      <trkpt lat="31.0081443786621094" lon="-7.0491008758544922">
        <ele>1247.0</ele>
        <time>2018-10-12T08:17:31.000Z</time>
      </trkpt>
      <trkpt lat="31.0081176757812500" lon="-7.0490589141845703">
        <ele>1246.178955078125</ele>
        <time>2018-10-12T08:17:32.000Z</time>
      </trkpt>
      <trkpt lat="31.0080890655517578" lon="-7.0490150451660156">
        <ele>1245.3873291015625</ele>
        <time>2018-10-12T08:17:33.000Z</time>
      </trkpt>
      <trkpt lat="31.0080623626708984" lon="-7.0489721298217773">
        <ele>1245.0</ele>
        <time>2018-10-12T08:17:34.000Z</time>
      </trkpt>
      <trkpt lat="31.0080356597900391" lon="-7.0489311218261719">
        <ele>1245.0</ele>
        <time>2018-10-12T08:17:35.000Z</time>
      </trkpt>
      <trkpt lat="31.0080070495605469" lon="-7.0488891601562500">
        <ele>1245.0</ele>
        <time>2018-10-12T08:17:36.000Z</time>
      </trkpt>
      <trkpt lat="31.0079784393310547" lon="-7.0488457679748535">
        <ele>1244.178955078125</ele>
        <time>2018-10-12T08:17:37.000Z</time>
      </trkpt>
      <trkpt lat="31.0079479217529297" lon="-7.0488028526306152">
        <ele>1243.178955078125</ele>
        <time>2018-10-12T08:17:38.000Z</time>
      </trkpt>
      <trkpt lat="31.0079154968261719" lon="-7.0487589836120605">
        <ele>1243.0</ele>
        <time>2018-10-12T08:17:39.000Z</time>
      </trkpt>
      <trkpt lat="31.0078868865966797" lon="-7.0487141609191895">
        <ele>1243.0</ele>
        <time>2018-10-12T08:17:40.000Z</time>
      </trkpt>
      <trkpt lat="31.0078601837158203" lon="-7.0486669540405273">
        <ele>1243.0</ele>
        <time>2018-10-12T08:17:41.000Z</time>
      </trkpt>
      <trkpt lat="31.0078334808349609" lon="-7.0486159324645996">
        <ele>1243.0</ele>
        <time>2018-10-12T08:17:42.000Z</time>
      </trkpt>
      <trkpt lat="31.0078105926513672" lon="-7.0485601425170898">
        <ele>1243.0</ele>
        <time>2018-10-12T08:17:43.000Z</time>
      </trkpt>
      <trkpt lat="31.0077896118164062" lon="-7.0485010147094727">
        <ele>1243.0</ele>
        <time>2018-10-12T08:17:44.000Z</time>
      </trkpt>
      <trkpt lat="31.0077705383300781" lon="-7.0484409332275391">
        <ele>1243.0</ele>
        <time>2018-10-12T08:17:45.000Z</time>
      </trkpt>
      <trkpt lat="31.0077514648437500" lon="-7.0483798980712891">
        <ele>1243.0</ele>
        <time>2018-10-12T08:17:46.000Z</time>
      </trkpt>
      <trkpt lat="31.0077323913574219" lon="-7.0483188629150391">
        <ele>1243.0</ele>
        <time>2018-10-12T08:17:47.000Z</time>
      </trkpt>
      <trkpt lat="31.0077095031738281" lon="-7.0482568740844727">
        <ele>1243.0</ele>
        <time>2018-10-12T08:17:48.000Z</time>
      </trkpt>
      <trkpt lat="31.0076866149902344" lon="-7.0481948852539062">
        <ele>1242.202880859375</ele>
        <time>2018-10-12T08:17:49.000Z</time>
      </trkpt>
      <trkpt lat="31.0076599121093750" lon="-7.0481328964233398">
        <ele>1242.0</ele>
        <time>2018-10-12T08:17:50.000Z</time>
      </trkpt>
      <trkpt lat="31.0076293945312500" lon="-7.0480718612670898">
        <ele>1242.0</ele>
        <time>2018-10-12T08:17:51.000Z</time>
      </trkpt>
      <trkpt lat="31.0075969696044922" lon="-7.0480098724365234">
        <ele>1242.0</ele>
        <time>2018-10-12T08:17:52.000Z</time>
      </trkpt>
      <trkpt lat="31.0075626373291016" lon="-7.0479488372802734">
        <ele>1242.0</ele>
        <time>2018-10-12T08:17:53.000Z</time>
      </trkpt>
      <trkpt lat="31.0075244903564453" lon="-7.0478901863098145">
        <ele>1242.0</ele>
        <time>2018-10-12T08:17:54.000Z</time>
      </trkpt>
      <trkpt lat="31.0074863433837891" lon="-7.0478310585021973">
        <ele>1242.0</ele>
        <time>2018-10-12T08:17:55.000Z</time>
      </trkpt>
      <trkpt lat="31.0074539184570312" lon="-7.0477681159973145">
        <ele>1242.0</ele>
        <time>2018-10-12T08:17:56.000Z</time>
      </trkpt>
      <trkpt lat="31.0074272155761719" lon="-7.0477008819580078">
        <ele>1241.1807861328125</ele>
        <time>2018-10-12T08:17:57.000Z</time>
      </trkpt>
      <trkpt lat="31.0074005126953125" lon="-7.0476307868957520">
        <ele>1241.0</ele>
        <time>2018-10-12T08:17:58.000Z</time>
      </trkpt>
      <trkpt lat="31.0073738098144531" lon="-7.0475611686706543">
        <ele>1241.0</ele>
        <time>2018-10-12T08:17:59.000Z</time>
      </trkpt>
      <trkpt lat="31.0073451995849609" lon="-7.0474920272827148">
        <ele>1240.3826904296875</ele>
        <time>2018-10-12T08:18:00.000Z</time>
      </trkpt>
      <trkpt lat="31.0073165893554688" lon="-7.0474238395690918">
        <ele>1240.0</ele>
        <time>2018-10-12T08:18:01.000Z</time>
      </trkpt>
      <trkpt lat="31.0072822570800781" lon="-7.0473570823669434">
        <ele>1240.0</ele>
        <time>2018-10-12T08:18:02.000Z</time>
      </trkpt>
      <trkpt lat="31.0072498321533203" lon="-7.0472908020019531">
        <ele>1240.0</ele>
        <time>2018-10-12T08:18:03.000Z</time>
      </trkpt>
      <trkpt lat="31.0072135925292969" lon="-7.0472230911254883">
        <ele>1239.373291015625</ele>
        <time>2018-10-12T08:18:04.000Z</time>
      </trkpt>
      <trkpt lat="31.0071792602539062" lon="-7.0471539497375488">
        <ele>1239.0</ele>
        <time>2018-10-12T08:18:05.000Z</time>
      </trkpt>
      <trkpt lat="31.0071506500244141" lon="-7.0470871925354004">
        <ele>1239.0</ele>
        <time>2018-10-12T08:18:06.000Z</time>
      </trkpt>
      <trkpt lat="31.0071296691894531" lon="-7.0470252037048340">
        <ele>1238.178955078125</ele>
        <time>2018-10-12T08:18:07.000Z</time>
      </trkpt>
      <trkpt lat="31.0071105957031250" lon="-7.0469651222229004">
        <ele>1237.3826904296875</ele>
        <time>2018-10-12T08:18:08.000Z</time>
      </trkpt>
      <trkpt lat="31.0070934295654297" lon="-7.0469031333923340">
        <ele>1236.2672119140625</ele>
        <time>2018-10-12T08:18:09.000Z</time>
      </trkpt>
      <trkpt lat="31.0070781707763672" lon="-7.0468339920043945">
        <ele>1236.0</ele>
        <time>2018-10-12T08:18:10.000Z</time>
      </trkpt>
      <trkpt lat="31.0070629119873047" lon="-7.0467638969421387">
        <ele>1236.0</ele>
        <time>2018-10-12T08:18:11.000Z</time>
      </trkpt>
      <trkpt lat="31.0070495605468750" lon="-7.0466980934143066">
        <ele>1236.0</ele>
        <time>2018-10-12T08:18:12.000Z</time>
      </trkpt>
      <trkpt lat="31.0070343017578125" lon="-7.0466389656066895">
        <ele>1235.1826171875</ele>
        <time>2018-10-12T08:18:13.000Z</time>
      </trkpt>
      <trkpt lat="31.0070171356201172" lon="-7.0465950965881348">
        <ele>1234.178955078125</ele>
        <time>2018-10-12T08:18:14.000Z</time>
      </trkpt>
      <trkpt lat="31.0070018768310547" lon="-7.0465579032897949">
        <ele>1233.178955078125</ele>
        <time>2018-10-12T08:18:15.000Z</time>
      </trkpt>
      <trkpt lat="31.0069866180419922" lon="-7.0465178489685059">
        <ele>1233.0</ele>
        <time>2018-10-12T08:18:16.000Z</time>
      </trkpt>
      <trkpt lat="31.0069751739501953" lon="-7.0464730262756348">
        <ele>1233.0</ele>
        <time>2018-10-12T08:18:17.000Z</time>
      </trkpt>
      <trkpt lat="31.0069770812988281" lon="-7.0464220046997070">
        <ele>1233.0</ele>
        <time>2018-10-12T08:18:18.000Z</time>
      </trkpt>
      <trkpt lat="31.0069923400878906" lon="-7.0463709831237793">
        <ele>1233.0</ele>
        <time>2018-10-12T08:18:19.000Z</time>
      </trkpt>
      <trkpt lat="31.0070171356201172" lon="-7.0463290214538574">
        <ele>1232.178955078125</ele>
        <time>2018-10-12T08:18:20.000Z</time>
      </trkpt>
      <trkpt lat="31.0070533752441406" lon="-7.0462961196899414">
        <ele>1232.0</ele>
        <time>2018-10-12T08:18:21.000Z</time>
      </trkpt>
      <trkpt lat="31.0070915222167969" lon="-7.0462698936462402">
        <ele>1232.0</ele>
        <time>2018-10-12T08:18:22.000Z</time>
      </trkpt>
      <trkpt lat="31.0071296691894531" lon="-7.0462441444396973">
        <ele>1232.0</ele>
        <time>2018-10-12T08:18:23.000Z</time>
      </trkpt>
      <trkpt lat="31.0071582794189453" lon="-7.0462088584899902">
        <ele>1232.0</ele>
        <time>2018-10-12T08:18:24.000Z</time>
      </trkpt>
      <trkpt lat="31.0071754455566406" lon="-7.0461668968200684">
        <ele>1232.0</ele>
        <time>2018-10-12T08:18:25.000Z</time>
      </trkpt>
      <trkpt lat="31.0071811676025391" lon="-7.0461230278015137">
        <ele>1232.0</ele>
        <time>2018-10-12T08:18:26.000Z</time>
      </trkpt>
      <trkpt lat="31.0071773529052734" lon="-7.0460782051086426">
        <ele>1232.0</ele>
        <time>2018-10-12T08:18:27.000Z</time>
      </trkpt>
      <trkpt lat="31.0071697235107422" lon="-7.0460329055786133">
        <ele>1232.0</ele>
        <time>2018-10-12T08:18:28.000Z</time>
      </trkpt>
      <trkpt lat="31.0071544647216797" lon="-7.0459890365600586">
        <ele>1232.0</ele>
        <time>2018-10-12T08:18:29.000Z</time>
      </trkpt>
      <trkpt lat="31.0071334838867188" lon="-7.0459461212158203">
        <ele>1232.0</ele>
        <time>2018-10-12T08:18:30.000Z</time>
      </trkpt>
      <trkpt lat="31.0071067810058594" lon="-7.0459060668945312">
        <ele>1232.0</ele>
        <time>2018-10-12T08:18:31.000Z</time>
      </trkpt>
      <trkpt lat="31.0070724487304688" lon="-7.0458707809448242">
        <ele>1232.0</ele>
        <time>2018-10-12T08:18:32.000Z</time>
      </trkpt>
      <trkpt lat="31.0070362091064453" lon="-7.0458431243896484">
        <ele>1232.0</ele>
        <time>2018-10-12T08:18:33.000Z</time>
      </trkpt>
      <trkpt lat="31.0069961547851562" lon="-7.0458202362060547">
        <ele>1232.0</ele>
        <time>2018-10-12T08:18:34.000Z</time>
      </trkpt>
      <trkpt lat="31.0069541931152344" lon="-7.0457987785339355">
        <ele>1232.0</ele>
        <time>2018-10-12T08:18:35.000Z</time>
      </trkpt>
      <trkpt lat="31.0069141387939453" lon="-7.0457792282104492">
        <ele>1232.0</ele>
        <time>2018-10-12T08:18:36.000Z</time>
      </trkpt>
      <trkpt lat="31.0068702697753906" lon="-7.0457630157470703">
        <ele>1232.0</ele>
        <time>2018-10-12T08:18:37.000Z</time>
      </trkpt>
      <trkpt lat="31.0068264007568359" lon="-7.0457482337951660">
        <ele>1232.0</ele>
        <time>2018-10-12T08:18:38.000Z</time>
      </trkpt>
      <trkpt lat="31.0067825317382812" lon="-7.0457348823547363">
        <ele>1232.0</ele>
        <time>2018-10-12T08:18:39.000Z</time>
      </trkpt>
      <trkpt lat="31.0067367553710938" lon="-7.0457229614257812">
        <ele>1232.0</ele>
        <time>2018-10-12T08:18:40.000Z</time>
      </trkpt>
      <trkpt lat="31.0066928863525391" lon="-7.0457148551940918">
        <ele>1231.391845703125</ele>
        <time>2018-10-12T08:18:41.000Z</time>
      </trkpt>
      <trkpt lat="31.0066452026367188" lon="-7.0457091331481934">
        <ele>1231.0</ele>
        <time>2018-10-12T08:18:42.000Z</time>
      </trkpt>
      <trkpt lat="31.0065975189208984" lon="-7.0457019805908203">
        <ele>1231.0</ele>
        <time>2018-10-12T08:18:43.000Z</time>
      </trkpt>
      <trkpt lat="31.0065441131591797" lon="-7.0456900596618652">
        <ele>1230.178955078125</ele>
        <time>2018-10-12T08:18:44.000Z</time>
      </trkpt>
      <trkpt lat="31.0064907073974609" lon="-7.0456728935241699">
        <ele>1229.178955078125</ele>
        <time>2018-10-12T08:18:45.000Z</time>
      </trkpt>
      <trkpt lat="31.0064353942871094" lon="-7.0456500053405762">
        <ele>1229.0</ele>
        <time>2018-10-12T08:18:46.000Z</time>
      </trkpt>
      <trkpt lat="31.0063858032226562" lon="-7.0456237792968750">
        <ele>1229.0</ele>
        <time>2018-10-12T08:18:47.000Z</time>
      </trkpt>
      <trkpt lat="31.0063381195068359" lon="-7.0455961227416992">
        <ele>1229.0</ele>
        <time>2018-10-12T08:18:48.000Z</time>
      </trkpt>
      <trkpt lat="31.0062942504882812" lon="-7.0455670356750488">
        <ele>1229.0</ele>
        <time>2018-10-12T08:18:49.000Z</time>
      </trkpt>
      <trkpt lat="31.0062522888183594" lon="-7.0455369949340820">
        <ele>1229.0</ele>
        <time>2018-10-12T08:18:50.000Z</time>
      </trkpt>
      <trkpt lat="31.0062122344970703" lon="-7.0455050468444824">
        <ele>1229.7442626953125</ele>
        <time>2018-10-12T08:18:51.000Z</time>
      </trkpt>
      <trkpt lat="31.0061702728271484" lon="-7.0454740524291992">
        <ele>1230.0</ele>
        <time>2018-10-12T08:18:52.000Z</time>
      </trkpt>
      <trkpt lat="31.0061321258544922" lon="-7.0454430580139160">
        <ele>1230.0</ele>
        <time>2018-10-12T08:18:53.000Z</time>
      </trkpt>
      <trkpt lat="31.0060939788818359" lon="-7.0454120635986328">
        <ele>1230.0</ele>
        <time>2018-10-12T08:18:54.000Z</time>
      </trkpt>
      <trkpt lat="31.0060577392578125" lon="-7.0453782081604004">
        <ele>1230.0</ele>
        <time>2018-10-12T08:18:55.000Z</time>
      </trkpt>
      <trkpt lat="31.0060234069824219" lon="-7.0453419685363770">
        <ele>1230.0</ele>
        <time>2018-10-12T08:18:56.000Z</time>
      </trkpt>
      <trkpt lat="31.0059928894042969" lon="-7.0453038215637207">
        <ele>1230.0</ele>
        <time>2018-10-12T08:18:57.000Z</time>
      </trkpt>
      <trkpt lat="31.0059623718261719" lon="-7.0452618598937988">
        <ele>1230.0</ele>
        <time>2018-10-12T08:18:58.000Z</time>
      </trkpt>
      <trkpt lat="31.0059356689453125" lon="-7.0452170372009277">
        <ele>1230.0</ele>
        <time>2018-10-12T08:18:59.000Z</time>
      </trkpt>
      <trkpt lat="31.0059089660644531" lon="-7.0451707839965820">
        <ele>1230.0</ele>
        <time>2018-10-12T08:19:00.000Z</time>
      </trkpt>
      <trkpt lat="31.0058803558349609" lon="-7.0451259613037109">
        <ele>1230.0</ele>
        <time>2018-10-12T08:19:01.000Z</time>
      </trkpt>
      <trkpt lat="31.0058517456054688" lon="-7.0450820922851562">
        <ele>1230.0</ele>
        <time>2018-10-12T08:19:02.000Z</time>
      </trkpt>
      <trkpt lat="31.0058231353759766" lon="-7.0450367927551270">
        <ele>1230.0</ele>
        <time>2018-10-12T08:19:03.000Z</time>
      </trkpt>
      <trkpt lat="31.0058002471923828" lon="-7.0449891090393066">
        <ele>1229.178955078125</ele>
        <time>2018-10-12T08:19:04.000Z</time>
      </trkpt>
      <trkpt lat="31.0057773590087891" lon="-7.0449399948120117">
        <ele>1228.178955078125</ele>
        <time>2018-10-12T08:19:05.000Z</time>
      </trkpt>
      <trkpt lat="31.0057544708251953" lon="-7.0448908805847168">
        <ele>1228.0</ele>
        <time>2018-10-12T08:19:06.000Z</time>
      </trkpt>
      <trkpt lat="31.0057315826416016" lon="-7.0448431968688965">
        <ele>1228.0</ele>
        <time>2018-10-12T08:19:07.000Z</time>
      </trkpt>
      <trkpt lat="31.0057086944580078" lon="-7.0447931289672852">
        <ele>1228.0</ele>
        <time>2018-10-12T08:19:08.000Z</time>
      </trkpt>
      <trkpt lat="31.0056800842285156" lon="-7.0447468757629395">
        <ele>1228.0</ele>
        <time>2018-10-12T08:19:09.000Z</time>
      </trkpt>
      <trkpt lat="31.0056476593017578" lon="-7.0447077751159668">
        <ele>1228.0</ele>
        <time>2018-10-12T08:19:10.000Z</time>
      </trkpt>
      <trkpt lat="31.0056133270263672" lon="-7.0446739196777344">
        <ele>1228.0</ele>
        <time>2018-10-12T08:19:11.000Z</time>
      </trkpt>
      <trkpt lat="31.0055789947509766" lon="-7.0446429252624512">
        <ele>1228.0</ele>
        <time>2018-10-12T08:19:12.000Z</time>
      </trkpt>
      <trkpt lat="31.0055446624755859" lon="-7.0446162223815918">
        <ele>1228.0</ele>
        <time>2018-10-12T08:19:13.000Z</time>
      </trkpt>
      <trkpt lat="31.0055103302001953" lon="-7.0445919036865234">
        <ele>1228.0</ele>
        <time>2018-10-12T08:19:14.000Z</time>
      </trkpt>
      <trkpt lat="31.0054683685302734" lon="-7.0445690155029297">
        <ele>1228.0</ele>
        <time>2018-10-12T08:19:15.000Z</time>
      </trkpt>
      <trkpt lat="31.0054225921630859" lon="-7.0445480346679688">
        <ele>1227.178955078125</ele>
        <time>2018-10-12T08:19:16.000Z</time>
      </trkpt>
      <trkpt lat="31.0053691864013672" lon="-7.0445270538330078">
        <ele>1227.0</ele>
        <time>2018-10-12T08:19:17.000Z</time>
      </trkpt>
      <trkpt lat="31.0053195953369141" lon="-7.0445089340209961">
        <ele>1227.0</ele>
        <time>2018-10-12T08:19:18.000Z</time>
      </trkpt>
      <trkpt lat="31.0052719116210938" lon="-7.0444970130920410">
        <ele>1227.0</ele>
        <time>2018-10-12T08:19:19.000Z</time>
      </trkpt>
      <trkpt lat="31.0052242279052734" lon="-7.0444850921630859">
        <ele>1227.0</ele>
        <time>2018-10-12T08:19:20.000Z</time>
      </trkpt>
      <trkpt lat="31.0051822662353516" lon="-7.0444669723510742">
        <ele>1227.0</ele>
        <time>2018-10-12T08:19:21.000Z</time>
      </trkpt>
      <trkpt lat="31.0051479339599609" lon="-7.0444378852844238">
        <ele>1227.0</ele>
        <time>2018-10-12T08:19:22.000Z</time>
      </trkpt>
      <trkpt lat="31.0051231384277344" lon="-7.0444011688232422">
        <ele>1227.0</ele>
        <time>2018-10-12T08:19:23.000Z</time>
      </trkpt>
      <trkpt lat="31.0051097869873047" lon="-7.0443620681762695">
        <ele>1227.0</ele>
        <time>2018-10-12T08:19:24.000Z</time>
      </trkpt>
      <trkpt lat="31.0051040649414062" lon="-7.0443248748779297">
        <ele>1227.0</ele>
        <time>2018-10-12T08:19:25.000Z</time>
      </trkpt>
      <trkpt lat="31.0051078796386719" lon="-7.0442929267883301">
        <ele>1227.821044921875</ele>
        <time>2018-10-12T08:19:26.000Z</time>
      </trkpt>
      <trkpt lat="31.0051136016845703" lon="-7.0442638397216797">
        <ele>1228.0</ele>
        <time>2018-10-12T08:19:27.000Z</time>
      </trkpt>
      <trkpt lat="31.0051174163818359" lon="-7.0442361831665039">
        <ele>1228.0</ele>
        <time>2018-10-12T08:19:28.000Z</time>
      </trkpt>
      <trkpt lat="31.0051212310791016" lon="-7.0442090034484863">
        <ele>1228.0</ele>
        <time>2018-10-12T08:19:29.000Z</time>
      </trkpt>
      <trkpt lat="31.0051269531250000" lon="-7.0441770553588867">
        <ele>1228.0</ele>
        <time>2018-10-12T08:19:30.000Z</time>
      </trkpt>
      <trkpt lat="31.0051326751708984" lon="-7.0441460609436035">
        <ele>1228.821044921875</ele>
        <time>2018-10-12T08:19:31.000Z</time>
      </trkpt>
      <trkpt lat="31.0051403045654297" lon="-7.0441169738769531">
        <ele>1229.0</ele>
        <time>2018-10-12T08:19:32.000Z</time>
      </trkpt>
      <trkpt lat="31.0051498413085938" lon="-7.0440869331359863">
        <ele>1229.0</ele>
        <time>2018-10-12T08:19:33.000Z</time>
      </trkpt>
      <trkpt lat="31.0051574707031250" lon="-7.0440549850463867">
        <ele>1229.0</ele>
        <time>2018-10-12T08:19:34.000Z</time>
      </trkpt>
      <trkpt lat="31.0051631927490234" lon="-7.0440220832824707">
        <ele>1229.0</ele>
        <time>2018-10-12T08:19:35.000Z</time>
      </trkpt>
      <trkpt lat="31.0051670074462891" lon="-7.0439901351928711">
        <ele>1229.0</ele>
        <time>2018-10-12T08:19:36.000Z</time>
      </trkpt>
      <trkpt lat="31.0051708221435547" lon="-7.0439581871032715">
        <ele>1229.0</ele>
        <time>2018-10-12T08:19:37.000Z</time>
      </trkpt>
      <trkpt lat="31.0051727294921875" lon="-7.0439248085021973">
        <ele>1229.0</ele>
        <time>2018-10-12T08:19:38.000Z</time>
      </trkpt>
      <trkpt lat="31.0051746368408203" lon="-7.0438899993896484">
        <ele>1229.0</ele>
        <time>2018-10-12T08:19:39.000Z</time>
      </trkpt>
      <trkpt lat="31.0051765441894531" lon="-7.0438542366027832">
        <ele>1229.0</ele>
        <time>2018-10-12T08:19:40.000Z</time>
      </trkpt>
      <trkpt lat="31.0051784515380859" lon="-7.0438170433044434">
        <ele>1229.0</ele>
        <time>2018-10-12T08:19:41.000Z</time>
      </trkpt>
      <trkpt lat="31.0051765441894531" lon="-7.0437779426574707">
        <ele>1229.0</ele>
        <time>2018-10-12T08:19:42.000Z</time>
      </trkpt>
      <trkpt lat="31.0051727294921875" lon="-7.0437378883361816">
        <ele>1229.0</ele>
        <time>2018-10-12T08:19:43.000Z</time>
      </trkpt>
      <trkpt lat="31.0051651000976562" lon="-7.0436968803405762">
        <ele>1229.0</ele>
        <time>2018-10-12T08:19:44.000Z</time>
      </trkpt>
      <trkpt lat="31.0051555633544922" lon="-7.0436558723449707">
        <ele>1228.1871337890625</ele>
        <time>2018-10-12T08:19:45.000Z</time>
      </trkpt>
      <trkpt lat="31.0051403045654297" lon="-7.0436148643493652">
        <ele>1228.0</ele>
        <time>2018-10-12T08:19:46.000Z</time>
      </trkpt>
      <trkpt lat="31.0051231384277344" lon="-7.0435748100280762">
        <ele>1228.0</ele>
        <time>2018-10-12T08:19:47.000Z</time>
      </trkpt>
      <trkpt lat="31.0051021575927734" lon="-7.0435352325439453">
        <ele>1228.0</ele>
        <time>2018-10-12T08:19:48.000Z</time>
      </trkpt>
      <trkpt lat="31.0050792694091797" lon="-7.0434951782226562">
        <ele>1228.0</ele>
        <time>2018-10-12T08:19:49.000Z</time>
      </trkpt>
      <trkpt lat="31.0050563812255859" lon="-7.0434541702270508">
        <ele>1228.0</ele>
        <time>2018-10-12T08:19:50.000Z</time>
      </trkpt>
      <trkpt lat="31.0050296783447266" lon="-7.0434107780456543">
        <ele>1228.0</ele>
        <time>2018-10-12T08:19:51.000Z</time>
      </trkpt>
      <trkpt lat="31.0050029754638672" lon="-7.0433688163757324">
        <ele>1228.0</ele>
        <time>2018-10-12T08:19:52.000Z</time>
      </trkpt>
      <trkpt lat="31.0049762725830078" lon="-7.0433249473571777">
        <ele>1228.0</ele>
        <time>2018-10-12T08:19:53.000Z</time>
      </trkpt>
      <trkpt lat="31.0049514770507812" lon="-7.0432801246643066">
        <ele>1228.0</ele>
        <time>2018-10-12T08:19:54.000Z</time>
      </trkpt>
      <trkpt lat="31.0049266815185547" lon="-7.0432338714599609">
        <ele>1228.0</ele>
        <time>2018-10-12T08:19:55.000Z</time>
      </trkpt>
      <trkpt lat="31.0049037933349609" lon="-7.0431871414184570">
        <ele>1228.0</ele>
        <time>2018-10-12T08:19:56.000Z</time>
      </trkpt>
      <trkpt lat="31.0048828125000000" lon="-7.0431399345397949">
        <ele>1228.0</ele>
        <time>2018-10-12T08:19:57.000Z</time>
      </trkpt>
      <trkpt lat="31.0048618316650391" lon="-7.0430917739868164">
        <ele>1228.0</ele>
        <time>2018-10-12T08:19:58.000Z</time>
      </trkpt>
      <trkpt lat="31.0048427581787109" lon="-7.0430440902709961">
        <ele>1228.0</ele>
        <time>2018-10-12T08:19:59.000Z</time>
      </trkpt>
      <trkpt lat="31.0048236846923828" lon="-7.0429968833923340">
        <ele>1228.0</ele>
        <time>2018-10-12T08:20:00.000Z</time>
      </trkpt>
      <trkpt lat="31.0048046112060547" lon="-7.0429511070251465">
        <ele>1228.0</ele>
        <time>2018-10-12T08:20:01.000Z</time>
      </trkpt>
      <trkpt lat="31.0047855377197266" lon="-7.0429048538208008">
        <ele>1228.0</ele>
        <time>2018-10-12T08:20:02.000Z</time>
      </trkpt>
      <trkpt lat="31.0047664642333984" lon="-7.0428609848022461">
        <ele>1227.1826171875</ele>
        <time>2018-10-12T08:20:03.000Z</time>
      </trkpt>
      <trkpt lat="31.0047435760498047" lon="-7.0428171157836914">
        <ele>1227.0</ele>
        <time>2018-10-12T08:20:04.000Z</time>
      </trkpt>
      <trkpt lat="31.0047225952148438" lon="-7.0427742004394531">
        <ele>1227.0</ele>
        <time>2018-10-12T08:20:05.000Z</time>
      </trkpt>
      <trkpt lat="31.0046997070312500" lon="-7.0427317619323730">
        <ele>1227.0</ele>
        <time>2018-10-12T08:20:06.000Z</time>
      </trkpt>
      <trkpt lat="31.0046749114990234" lon="-7.0426898002624512">
        <ele>1227.0</ele>
        <time>2018-10-12T08:20:07.000Z</time>
      </trkpt>
      <trkpt lat="31.0046501159667969" lon="-7.0426487922668457">
        <ele>1227.0</ele>
        <time>2018-10-12T08:20:08.000Z</time>
      </trkpt>
      <trkpt lat="31.0046253204345703" lon="-7.0426068305969238">
        <ele>1227.0</ele>
        <time>2018-10-12T08:20:09.000Z</time>
      </trkpt>
      <trkpt lat="31.0046005249023438" lon="-7.0425639152526855">
        <ele>1226.178955078125</ele>
        <time>2018-10-12T08:20:10.000Z</time>
      </trkpt>
      <trkpt lat="31.0045738220214844" lon="-7.0425190925598145">
        <ele>1226.0</ele>
        <time>2018-10-12T08:20:11.000Z</time>
      </trkpt>
      <trkpt lat="31.0045471191406250" lon="-7.0424752235412598">
        <ele>1226.0</ele>
        <time>2018-10-12T08:20:12.000Z</time>
      </trkpt>
      <trkpt lat="31.0045223236083984" lon="-7.0424289703369141">
        <ele>1226.0</ele>
        <time>2018-10-12T08:20:13.000Z</time>
      </trkpt>
      <trkpt lat="31.0044975280761719" lon="-7.0423831939697266">
        <ele>1226.0</ele>
        <time>2018-10-12T08:20:14.000Z</time>
      </trkpt>
      <trkpt lat="31.0044746398925781" lon="-7.0423378944396973">
        <ele>1226.0</ele>
        <time>2018-10-12T08:20:15.000Z</time>
      </trkpt>
      <trkpt lat="31.0044498443603516" lon="-7.0422930717468262">
        <ele>1226.0</ele>
        <time>2018-10-12T08:20:16.000Z</time>
      </trkpt>
      <trkpt lat="31.0044269561767578" lon="-7.0422492027282715">
        <ele>1226.0</ele>
        <time>2018-10-12T08:20:17.000Z</time>
      </trkpt>
      <trkpt lat="31.0044040679931641" lon="-7.0422058105468750">
        <ele>1226.0</ele>
        <time>2018-10-12T08:20:18.000Z</time>
      </trkpt>
      <trkpt lat="31.0043830871582031" lon="-7.0421662330627441">
        <ele>1226.0</ele>
        <time>2018-10-12T08:20:19.000Z</time>
      </trkpt>
      <trkpt lat="31.0043640136718750" lon="-7.0421252250671387">
        <ele>1226.0</ele>
        <time>2018-10-12T08:20:20.000Z</time>
      </trkpt>
      <trkpt lat="31.0043449401855469" lon="-7.0420880317687988">
        <ele>1225.1871337890625</ele>
        <time>2018-10-12T08:20:21.000Z</time>
      </trkpt>
      <trkpt lat="31.0043258666992188" lon="-7.0420517921447754">
        <ele>1225.0</ele>
        <time>2018-10-12T08:20:22.000Z</time>
      </trkpt>
      <trkpt lat="31.0043087005615234" lon="-7.0420179367065430">
        <ele>1225.0</ele>
        <time>2018-10-12T08:20:23.000Z</time>
      </trkpt>
      <trkpt lat="31.0042896270751953" lon="-7.0419850349426270">
        <ele>1225.0</ele>
        <time>2018-10-12T08:20:24.000Z</time>
      </trkpt>
      <trkpt lat="31.0042724609375000" lon="-7.0419511795043945">
        <ele>1225.0</ele>
        <time>2018-10-12T08:20:25.000Z</time>
      </trkpt>
      <trkpt lat="31.0042533874511719" lon="-7.0419149398803711">
        <ele>1225.821044921875</ele>
        <time>2018-10-12T08:20:26.000Z</time>
      </trkpt>
      <trkpt lat="31.0042362213134766" lon="-7.0418782234191895">
        <ele>1226.0</ele>
        <time>2018-10-12T08:20:27.000Z</time>
      </trkpt>
      <trkpt lat="31.0042171478271484" lon="-7.0418400764465332">
        <ele>1226.0</ele>
        <time>2018-10-12T08:20:28.000Z</time>
      </trkpt>
      <trkpt lat="31.0041980743408203" lon="-7.0418028831481934">
        <ele>1226.0</ele>
        <time>2018-10-12T08:20:29.000Z</time>
      </trkpt>
      <trkpt lat="31.0041809082031250" lon="-7.0417652130126953">
        <ele>1226.0</ele>
        <time>2018-10-12T08:20:30.000Z</time>
      </trkpt>
      <trkpt lat="31.0041637420654297" lon="-7.0417242050170898">
        <ele>1225.178955078125</ele>
        <time>2018-10-12T08:20:31.000Z</time>
      </trkpt>
      <trkpt lat="31.0041465759277344" lon="-7.0416841506958008">
        <ele>1225.0</ele>
        <time>2018-10-12T08:20:32.000Z</time>
      </trkpt>
      <trkpt lat="31.0041313171386719" lon="-7.0416431427001953">
        <ele>1225.0</ele>
        <time>2018-10-12T08:20:33.000Z</time>
      </trkpt>
      <trkpt lat="31.0041160583496094" lon="-7.0416040420532227">
        <ele>1225.0</ele>
        <time>2018-10-12T08:20:34.000Z</time>
      </trkpt>
      <trkpt lat="31.0041007995605469" lon="-7.0415639877319336">
        <ele>1225.0</ele>
        <time>2018-10-12T08:20:35.000Z</time>
      </trkpt>
      <trkpt lat="31.0040855407714844" lon="-7.0415239334106445">
        <ele>1225.0</ele>
        <time>2018-10-12T08:20:36.000Z</time>
      </trkpt>
      <trkpt lat="31.0040683746337891" lon="-7.0414848327636719">
        <ele>1225.0</ele>
        <time>2018-10-12T08:20:37.000Z</time>
      </trkpt>
      <trkpt lat="31.0040512084960938" lon="-7.0414462089538574">
        <ele>1225.0</ele>
        <time>2018-10-12T08:20:38.000Z</time>
      </trkpt>
      <trkpt lat="31.0040321350097656" lon="-7.0414080619812012">
        <ele>1225.0</ele>
        <time>2018-10-12T08:20:39.000Z</time>
      </trkpt>
      <trkpt lat="31.0040130615234375" lon="-7.0413689613342285">
        <ele>1225.0</ele>
        <time>2018-10-12T08:20:40.000Z</time>
      </trkpt>
      <trkpt lat="31.0039939880371094" lon="-7.0413317680358887">
        <ele>1225.0</ele>
        <time>2018-10-12T08:20:41.000Z</time>
      </trkpt>
      <trkpt lat="31.0039749145507812" lon="-7.0412950515747070">
        <ele>1225.0</ele>
        <time>2018-10-12T08:20:42.000Z</time>
      </trkpt>
      <trkpt lat="31.0039539337158203" lon="-7.0412578582763672">
        <ele>1225.0</ele>
        <time>2018-10-12T08:20:43.000Z</time>
      </trkpt>
      <trkpt lat="31.0039348602294922" lon="-7.0412201881408691">
        <ele>1225.0</ele>
        <time>2018-10-12T08:20:44.000Z</time>
      </trkpt>
      <trkpt lat="31.0039157867431641" lon="-7.0411810874938965">
        <ele>1225.0</ele>
        <time>2018-10-12T08:20:45.000Z</time>
      </trkpt>
      <trkpt lat="31.0038948059082031" lon="-7.0411419868469238">
        <ele>1225.0</ele>
        <time>2018-10-12T08:20:46.000Z</time>
      </trkpt>
      <trkpt lat="31.0038738250732422" lon="-7.0411038398742676">
        <ele>1225.0</ele>
        <time>2018-10-12T08:20:47.000Z</time>
      </trkpt>
      <trkpt lat="31.0038547515869141" lon="-7.0410652160644531">
        <ele>1225.0</ele>
        <time>2018-10-12T08:20:48.000Z</time>
      </trkpt>
      <trkpt lat="31.0038337707519531" lon="-7.0410251617431641">
        <ele>1225.0</ele>
        <time>2018-10-12T08:20:49.000Z</time>
      </trkpt>
      <trkpt lat="31.0038127899169922" lon="-7.0409860610961914">
        <ele>1225.0</ele>
        <time>2018-10-12T08:20:50.000Z</time>
      </trkpt>
      <trkpt lat="31.0037918090820312" lon="-7.0409460067749023">
        <ele>1225.0</ele>
        <time>2018-10-12T08:20:51.000Z</time>
      </trkpt>
      <trkpt lat="31.0037708282470703" lon="-7.0409059524536133">
        <ele>1225.0</ele>
        <time>2018-10-12T08:20:52.000Z</time>
      </trkpt>
      <trkpt lat="31.0037498474121094" lon="-7.0408658981323242">
        <ele>1225.0</ele>
        <time>2018-10-12T08:20:53.000Z</time>
      </trkpt>
      <trkpt lat="31.0037288665771484" lon="-7.0408267974853516">
        <ele>1225.0</ele>
        <time>2018-10-12T08:20:54.000Z</time>
      </trkpt>
      <trkpt lat="31.0037078857421875" lon="-7.0407891273498535">
        <ele>1225.0</ele>
        <time>2018-10-12T08:20:55.000Z</time>
      </trkpt>
      <trkpt lat="31.0036888122558594" lon="-7.0407500267028809">
        <ele>1225.0</ele>
        <time>2018-10-12T08:20:56.000Z</time>
      </trkpt>
      <trkpt lat="31.0036697387695312" lon="-7.0407109260559082">
        <ele>1225.0</ele>
        <time>2018-10-12T08:20:57.000Z</time>
      </trkpt>
      <trkpt lat="31.0036506652832031" lon="-7.0406718254089355">
        <ele>1225.821044921875</ele>
        <time>2018-10-12T08:20:58.000Z</time>
      </trkpt>
      <trkpt lat="31.0036296844482422" lon="-7.0406332015991211">
        <ele>1226.0</ele>
        <time>2018-10-12T08:20:59.000Z</time>
      </trkpt>
      <trkpt lat="31.0036106109619141" lon="-7.0405950546264648">
        <ele>1226.0</ele>
        <time>2018-10-12T08:21:00.000Z</time>
      </trkpt>
      <trkpt lat="31.0035915374755859" lon="-7.0405569076538086">
        <ele>1226.0</ele>
        <time>2018-10-12T08:21:01.000Z</time>
      </trkpt>
      <trkpt lat="31.0035743713378906" lon="-7.0405192375183105">
        <ele>1226.0</ele>
        <time>2018-10-12T08:21:02.000Z</time>
      </trkpt>
      <trkpt lat="31.0035552978515625" lon="-7.0404820442199707">
        <ele>1226.821044921875</ele>
        <time>2018-10-12T08:21:03.000Z</time>
      </trkpt>
      <trkpt lat="31.0035362243652344" lon="-7.0404458045959473">
        <ele>1227.0</ele>
        <time>2018-10-12T08:21:04.000Z</time>
      </trkpt>
      <trkpt lat="31.0035152435302734" lon="-7.0404100418090820">
        <ele>1227.0</ele>
        <time>2018-10-12T08:21:05.000Z</time>
      </trkpt>
      <trkpt lat="31.0034961700439453" lon="-7.0403738021850586">
        <ele>1227.0</ele>
        <time>2018-10-12T08:21:06.000Z</time>
      </trkpt>
      <trkpt lat="31.0034751892089844" lon="-7.0403380393981934">
        <ele>1227.0</ele>
        <time>2018-10-12T08:21:07.000Z</time>
      </trkpt>
      <trkpt lat="31.0034542083740234" lon="-7.0402979850769043">
        <ele>1227.0</ele>
        <time>2018-10-12T08:21:08.000Z</time>
      </trkpt>
      <trkpt lat="31.0034351348876953" lon="-7.0402588844299316">
        <ele>1227.7327880859375</ele>
        <time>2018-10-12T08:21:09.000Z</time>
      </trkpt>
      <trkpt lat="31.0034141540527344" lon="-7.0402221679687500">
        <ele>1228.0</ele>
        <time>2018-10-12T08:21:10.000Z</time>
      </trkpt>
      <trkpt lat="31.0033950805664062" lon="-7.0401849746704102">
        <ele>1228.0</ele>
        <time>2018-10-12T08:21:11.000Z</time>
      </trkpt>
      <trkpt lat="31.0033760070800781" lon="-7.0401492118835449">
        <ele>1228.0</ele>
        <time>2018-10-12T08:21:12.000Z</time>
      </trkpt>
      <trkpt lat="31.0033588409423828" lon="-7.0401129722595215">
        <ele>1228.0</ele>
        <time>2018-10-12T08:21:13.000Z</time>
      </trkpt>
      <trkpt lat="31.0033416748046875" lon="-7.0400748252868652">
        <ele>1228.0</ele>
        <time>2018-10-12T08:21:14.000Z</time>
      </trkpt>
      <trkpt lat="31.0033245086669922" lon="-7.0400381088256836">
        <ele>1228.0</ele>
        <time>2018-10-12T08:21:15.000Z</time>
      </trkpt>
      <trkpt lat="31.0033054351806641" lon="-7.0399990081787109">
        <ele>1228.0</ele>
        <time>2018-10-12T08:21:16.000Z</time>
      </trkpt>
      <trkpt lat="31.0032863616943359" lon="-7.0399618148803711">
        <ele>1228.821044921875</ele>
        <time>2018-10-12T08:21:17.000Z</time>
      </trkpt>
      <trkpt lat="31.0032691955566406" lon="-7.0399241447448730">
        <ele>1229.0</ele>
        <time>2018-10-12T08:21:18.000Z</time>
      </trkpt>
      <trkpt lat="31.0032501220703125" lon="-7.0398879051208496">
        <ele>1229.0</ele>
        <time>2018-10-12T08:21:19.000Z</time>
      </trkpt>
      <trkpt lat="31.0032310485839844" lon="-7.0398502349853516">
        <ele>1229.821044921875</ele>
        <time>2018-10-12T08:21:20.000Z</time>
      </trkpt>
      <trkpt lat="31.0032138824462891" lon="-7.0398120880126953">
        <ele>1230.0</ele>
        <time>2018-10-12T08:21:21.000Z</time>
      </trkpt>
      <trkpt lat="31.0031929016113281" lon="-7.0397720336914062">
        <ele>1230.0</ele>
        <time>2018-10-12T08:21:22.000Z</time>
      </trkpt>
      <trkpt lat="31.0031719207763672" lon="-7.0397319793701172">
        <ele>1230.0</ele>
        <time>2018-10-12T08:21:23.000Z</time>
      </trkpt>
      <trkpt lat="31.0031509399414062" lon="-7.0396919250488281">
        <ele>1230.0</ele>
        <time>2018-10-12T08:21:24.000Z</time>
      </trkpt>
      <trkpt lat="31.0031280517578125" lon="-7.0396499633789062">
        <ele>1230.0</ele>
        <time>2018-10-12T08:21:25.000Z</time>
      </trkpt>
      <trkpt lat="31.0031070709228516" lon="-7.0396080017089844">
        <ele>1230.0</ele>
        <time>2018-10-12T08:21:26.000Z</time>
      </trkpt>
      <trkpt lat="31.0030899047851562" lon="-7.0395669937133789">
        <ele>1230.0</ele>
        <time>2018-10-12T08:21:27.000Z</time>
      </trkpt>
      <trkpt lat="31.0030708312988281" lon="-7.0395259857177734">
        <ele>1230.0</ele>
        <time>2018-10-12T08:21:28.000Z</time>
      </trkpt>
      <trkpt lat="31.0030517578125000" lon="-7.0394859313964844">
        <ele>1230.0</ele>
        <time>2018-10-12T08:21:29.000Z</time>
      </trkpt>
      <trkpt lat="31.0030307769775391" lon="-7.0394477844238281">
        <ele>1230.0</ele>
        <time>2018-10-12T08:21:30.000Z</time>
      </trkpt>
      <trkpt lat="31.0030136108398438" lon="-7.0394110679626465">
        <ele>1230.821044921875</ele>
        <time>2018-10-12T08:21:31.000Z</time>
      </trkpt>
      <trkpt lat="31.0029964447021484" lon="-7.0393748283386230">
        <ele>1231.0</ele>
        <time>2018-10-12T08:21:32.000Z</time>
      </trkpt>
      <trkpt lat="31.0029792785644531" lon="-7.0393371582031250">
        <ele>1231.0</ele>
        <time>2018-10-12T08:21:33.000Z</time>
      </trkpt>
      <trkpt lat="31.0029640197753906" lon="-7.0393018722534180">
        <ele>1231.0</ele>
        <time>2018-10-12T08:21:34.000Z</time>
      </trkpt>
      <trkpt lat="31.0029487609863281" lon="-7.0392661094665527">
        <ele>1231.0</ele>
        <time>2018-10-12T08:21:35.000Z</time>
      </trkpt>
      <trkpt lat="31.0029315948486328" lon="-7.0392317771911621">
        <ele>1231.0</ele>
        <time>2018-10-12T08:21:36.000Z</time>
      </trkpt>
      <trkpt lat="31.0029125213623047" lon="-7.0391969680786133">
        <ele>1231.0</ele>
        <time>2018-10-12T08:21:37.000Z</time>
      </trkpt>
      <trkpt lat="31.0028934478759766" lon="-7.0391640663146973">
        <ele>1231.821044921875</ele>
        <time>2018-10-12T08:21:38.000Z</time>
      </trkpt>
      <trkpt lat="31.0028762817382812" lon="-7.0391321182250977">
        <ele>1232.0</ele>
        <time>2018-10-12T08:21:39.000Z</time>
      </trkpt>
      <trkpt lat="31.0028572082519531" lon="-7.0391001701354980">
        <ele>1232.0</ele>
        <time>2018-10-12T08:21:40.000Z</time>
      </trkpt>
      <trkpt lat="31.0028381347656250" lon="-7.0390701293945312">
        <ele>1232.0</ele>
        <time>2018-10-12T08:21:41.000Z</time>
      </trkpt>
      <trkpt lat="31.0028209686279297" lon="-7.0390400886535645">
        <ele>1232.0</ele>
        <time>2018-10-12T08:21:42.000Z</time>
      </trkpt>
      <trkpt lat="31.0028038024902344" lon="-7.0390119552612305">
        <ele>1232.0</ele>
        <time>2018-10-12T08:21:43.000Z</time>
      </trkpt>
      <trkpt lat="31.0027885437011719" lon="-7.0389838218688965">
        <ele>1232.0</ele>
        <time>2018-10-12T08:21:44.000Z</time>
      </trkpt>
      <trkpt lat="31.0027713775634766" lon="-7.0389552116394043">
        <ele>1232.0</ele>
        <time>2018-10-12T08:21:45.000Z</time>
      </trkpt>
      <trkpt lat="31.0027542114257812" lon="-7.0389242172241211">
        <ele>1232.0</ele>
        <time>2018-10-12T08:21:46.000Z</time>
      </trkpt>
      <trkpt lat="31.0027389526367188" lon="-7.0388941764831543">
        <ele>1232.0</ele>
        <time>2018-10-12T08:21:47.000Z</time>
      </trkpt>
      <trkpt lat="31.0027236938476562" lon="-7.0388622283935547">
        <ele>1232.821044921875</ele>
        <time>2018-10-12T08:21:48.000Z</time>
      </trkpt>
      <trkpt lat="31.0027084350585938" lon="-7.0388288497924805">
        <ele>1233.0</ele>
        <time>2018-10-12T08:21:49.000Z</time>
      </trkpt>
      <trkpt lat="31.0026931762695312" lon="-7.0387949943542480">
        <ele>1233.510986328125</ele>
        <time>2018-10-12T08:21:50.000Z</time>
      </trkpt>
      <trkpt lat="31.0026779174804688" lon="-7.0387592315673828">
        <ele>1234.0</ele>
        <time>2018-10-12T08:21:51.000Z</time>
      </trkpt>
      <trkpt lat="31.0026626586914062" lon="-7.0387239456176758">
        <ele>1234.0</ele>
        <time>2018-10-12T08:21:52.000Z</time>
      </trkpt>
      <trkpt lat="31.0026473999023438" lon="-7.0386891365051270">
        <ele>1233.2593994140625</ele>
        <time>2018-10-12T08:21:53.000Z</time>
      </trkpt>
      <trkpt lat="31.0026321411132812" lon="-7.0386538505554199">
        <ele>1233.0</ele>
        <time>2018-10-12T08:21:54.000Z</time>
      </trkpt>
      <trkpt lat="31.0026206970214844" lon="-7.0386180877685547">
        <ele>1233.0</ele>
        <time>2018-10-12T08:21:55.000Z</time>
      </trkpt>
      <trkpt lat="31.0026092529296875" lon="-7.0385799407958984">
        <ele>1233.0</ele>
        <time>2018-10-12T08:21:56.000Z</time>
      </trkpt>
      <trkpt lat="31.0025978088378906" lon="-7.0385417938232422">
        <ele>1233.821044921875</ele>
        <time>2018-10-12T08:21:57.000Z</time>
      </trkpt>
      <trkpt lat="31.0025844573974609" lon="-7.0385007858276367">
        <ele>1234.0</ele>
        <time>2018-10-12T08:21:58.000Z</time>
      </trkpt>
      <trkpt lat="31.0025749206542969" lon="-7.0384597778320312">
        <ele>1234.0</ele>
        <time>2018-10-12T08:21:59.000Z</time>
      </trkpt>
      <trkpt lat="31.0025653839111328" lon="-7.0384159088134766">
        <ele>1233.178955078125</ele>
        <time>2018-10-12T08:22:00.000Z</time>
      </trkpt>
      <trkpt lat="31.0025577545166016" lon="-7.0383710861206055">
        <ele>1233.0</ele>
        <time>2018-10-12T08:22:01.000Z</time>
      </trkpt>
      <trkpt lat="31.0025482177734375" lon="-7.0383257865905762">
        <ele>1233.0</ele>
        <time>2018-10-12T08:22:02.000Z</time>
      </trkpt>
      <trkpt lat="31.0025386810302734" lon="-7.0382819175720215">
        <ele>1233.0</ele>
        <time>2018-10-12T08:22:03.000Z</time>
      </trkpt>
      <trkpt lat="31.0025310516357422" lon="-7.0382370948791504">
        <ele>1233.0</ele>
        <time>2018-10-12T08:22:04.000Z</time>
      </trkpt>
      <trkpt lat="31.0025234222412109" lon="-7.0381917953491211">
        <ele>1233.0</ele>
        <time>2018-10-12T08:22:05.000Z</time>
      </trkpt>
      <trkpt lat="31.0025157928466797" lon="-7.0381469726562500">
        <ele>1233.0</ele>
        <time>2018-10-12T08:22:06.000Z</time>
      </trkpt>
      <trkpt lat="31.0025100708007812" lon="-7.0381021499633789">
        <ele>1233.0</ele>
        <time>2018-10-12T08:22:07.000Z</time>
      </trkpt>
      <trkpt lat="31.0025024414062500" lon="-7.0380558967590332">
        <ele>1233.0</ele>
        <time>2018-10-12T08:22:08.000Z</time>
      </trkpt>
      <trkpt lat="31.0024967193603516" lon="-7.0380110740661621">
        <ele>1233.0</ele>
        <time>2018-10-12T08:22:09.000Z</time>
      </trkpt>
      <trkpt lat="31.0024890899658203" lon="-7.0379657745361328">
        <ele>1233.0</ele>
        <time>2018-10-12T08:22:10.000Z</time>
      </trkpt>
      <trkpt lat="31.0024814605712891" lon="-7.0379199981689453">
        <ele>1233.0</ele>
        <time>2018-10-12T08:22:11.000Z</time>
      </trkpt>
      <trkpt lat="31.0024757385253906" lon="-7.0378742218017578">
        <ele>1233.0</ele>
        <time>2018-10-12T08:22:12.000Z</time>
      </trkpt>
      <trkpt lat="31.0024681091308594" lon="-7.0378279685974121">
        <ele>1233.0</ele>
        <time>2018-10-12T08:22:13.000Z</time>
      </trkpt>
      <trkpt lat="31.0024604797363281" lon="-7.0377821922302246">
        <ele>1233.0</ele>
        <time>2018-10-12T08:22:14.000Z</time>
      </trkpt>
      <trkpt lat="31.0024528503417969" lon="-7.0377349853515625">
        <ele>1233.0</ele>
        <time>2018-10-12T08:22:15.000Z</time>
      </trkpt>
      <trkpt lat="31.0024452209472656" lon="-7.0376868247985840">
        <ele>1233.0</ele>
        <time>2018-10-12T08:22:16.000Z</time>
      </trkpt>
      <trkpt lat="31.0024375915527344" lon="-7.0376391410827637">
        <ele>1233.0</ele>
        <time>2018-10-12T08:22:17.000Z</time>
      </trkpt>
      <trkpt lat="31.0024280548095703" lon="-7.0375928878784180">
        <ele>1233.0</ele>
        <time>2018-10-12T08:22:18.000Z</time>
      </trkpt>
      <trkpt lat="31.0024185180664062" lon="-7.0375471115112305">
        <ele>1233.0</ele>
        <time>2018-10-12T08:22:19.000Z</time>
      </trkpt>
      <trkpt lat="31.0024108886718750" lon="-7.0375008583068848">
        <ele>1233.0</ele>
        <time>2018-10-12T08:22:20.000Z</time>
      </trkpt>
      <trkpt lat="31.0023994445800781" lon="-7.0374550819396973">
        <ele>1233.0</ele>
        <time>2018-10-12T08:22:21.000Z</time>
      </trkpt>
      <trkpt lat="31.0023899078369141" lon="-7.0374097824096680">
        <ele>1233.0</ele>
        <time>2018-10-12T08:22:22.000Z</time>
      </trkpt>
      <trkpt lat="31.0023803710937500" lon="-7.0373649597167969">
        <ele>1233.0</ele>
        <time>2018-10-12T08:22:23.000Z</time>
      </trkpt>
      <trkpt lat="31.0023708343505859" lon="-7.0373201370239258">
        <ele>1233.0</ele>
        <time>2018-10-12T08:22:24.000Z</time>
      </trkpt>
      <trkpt lat="31.0023593902587891" lon="-7.0372748374938965">
        <ele>1233.0</ele>
        <time>2018-10-12T08:22:25.000Z</time>
      </trkpt>
      <trkpt lat="31.0023517608642578" lon="-7.0372290611267090">
        <ele>1233.0</ele>
        <time>2018-10-12T08:22:26.000Z</time>
      </trkpt>
      <trkpt lat="31.0023384094238281" lon="-7.0371837615966797">
        <ele>1233.0</ele>
        <time>2018-10-12T08:22:27.000Z</time>
      </trkpt>
      <trkpt lat="31.0023231506347656" lon="-7.0371379852294922">
        <ele>1233.0</ele>
        <time>2018-10-12T08:22:28.000Z</time>
      </trkpt>
      <trkpt lat="31.0023097991943359" lon="-7.0370931625366211">
        <ele>1233.0</ele>
        <time>2018-10-12T08:22:29.000Z</time>
      </trkpt>
      <trkpt lat="31.0022926330566406" lon="-7.0370478630065918">
        <ele>1233.0</ele>
        <time>2018-10-12T08:22:30.000Z</time>
      </trkpt>
      <trkpt lat="31.0022735595703125" lon="-7.0370030403137207">
        <ele>1233.0</ele>
        <time>2018-10-12T08:22:31.000Z</time>
      </trkpt>
      <trkpt lat="31.0022544860839844" lon="-7.0369601249694824">
        <ele>1233.0</ele>
        <time>2018-10-12T08:22:32.000Z</time>
      </trkpt>
      <trkpt lat="31.0022354125976562" lon="-7.0369172096252441">
        <ele>1233.0</ele>
        <time>2018-10-12T08:22:33.000Z</time>
      </trkpt>
      <trkpt lat="31.0022144317626953" lon="-7.0368747711181641">
        <ele>1233.0</ele>
        <time>2018-10-12T08:22:34.000Z</time>
      </trkpt>
      <trkpt lat="31.0021953582763672" lon="-7.0368328094482422">
        <ele>1233.0</ele>
        <time>2018-10-12T08:22:35.000Z</time>
      </trkpt>
      <trkpt lat="31.0021743774414062" lon="-7.0367908477783203">
        <ele>1233.0</ele>
        <time>2018-10-12T08:22:36.000Z</time>
      </trkpt>
      <trkpt lat="31.0021533966064453" lon="-7.0367469787597656">
        <ele>1233.0</ele>
        <time>2018-10-12T08:22:37.000Z</time>
      </trkpt>
      <trkpt lat="31.0021343231201172" lon="-7.0367031097412109">
        <ele>1233.0</ele>
        <time>2018-10-12T08:22:38.000Z</time>
      </trkpt>
      <trkpt lat="31.0021152496337891" lon="-7.0366578102111816">
        <ele>1233.0</ele>
        <time>2018-10-12T08:22:39.000Z</time>
      </trkpt>
      <trkpt lat="31.0020961761474609" lon="-7.0366129875183105">
        <ele>1233.0</ele>
        <time>2018-10-12T08:22:40.000Z</time>
      </trkpt>
      <trkpt lat="31.0020771026611328" lon="-7.0365672111511230">
        <ele>1233.0</ele>
        <time>2018-10-12T08:22:41.000Z</time>
      </trkpt>
      <trkpt lat="31.0020599365234375" lon="-7.0365209579467773">
        <ele>1233.0</ele>
        <time>2018-10-12T08:22:42.000Z</time>
      </trkpt>
      <trkpt lat="31.0020389556884766" lon="-7.0364751815795898">
        <ele>1233.0</ele>
        <time>2018-10-12T08:22:43.000Z</time>
      </trkpt>
      <trkpt lat="31.0020198822021484" lon="-7.0364279747009277">
        <ele>1233.0</ele>
        <time>2018-10-12T08:22:44.000Z</time>
      </trkpt>
      <trkpt lat="31.0020008087158203" lon="-7.0363807678222656">
        <ele>1233.0</ele>
        <time>2018-10-12T08:22:45.000Z</time>
      </trkpt>
      <trkpt lat="31.0019817352294922" lon="-7.0363340377807617">
        <ele>1233.0</ele>
        <time>2018-10-12T08:22:46.000Z</time>
      </trkpt>
      <trkpt lat="31.0019626617431641" lon="-7.0362868309020996">
        <ele>1233.0</ele>
        <time>2018-10-12T08:22:47.000Z</time>
      </trkpt>
      <trkpt lat="31.0019435882568359" lon="-7.0362391471862793">
        <ele>1233.0</ele>
        <time>2018-10-12T08:22:48.000Z</time>
      </trkpt>
      <trkpt lat="31.0019245147705078" lon="-7.0361900329589844">
        <ele>1233.0</ele>
        <time>2018-10-12T08:22:49.000Z</time>
      </trkpt>
      <trkpt lat="31.0019016265869141" lon="-7.0361399650573730">
        <ele>1233.0</ele>
        <time>2018-10-12T08:22:50.000Z</time>
      </trkpt>
      <trkpt lat="31.0018787384033203" lon="-7.0360879898071289">
        <ele>1233.0</ele>
        <time>2018-10-12T08:22:51.000Z</time>
      </trkpt>
      <trkpt lat="31.0018558502197266" lon="-7.0360341072082520">
        <ele>1233.0</ele>
        <time>2018-10-12T08:22:52.000Z</time>
      </trkpt>
      <trkpt lat="31.0018310546875000" lon="-7.0359802246093750">
        <ele>1233.0</ele>
        <time>2018-10-12T08:22:53.000Z</time>
      </trkpt>
      <trkpt lat="31.0018081665039062" lon="-7.0359258651733398">
        <ele>1233.0</ele>
        <time>2018-10-12T08:22:54.000Z</time>
      </trkpt>
      <trkpt lat="31.0017852783203125" lon="-7.0358729362487793">
        <ele>1233.0</ele>
        <time>2018-10-12T08:22:55.000Z</time>
      </trkpt>
      <trkpt lat="31.0017623901367188" lon="-7.0358200073242188">
        <ele>1233.0</ele>
        <time>2018-10-12T08:22:56.000Z</time>
      </trkpt>
      <trkpt lat="31.0017375946044922" lon="-7.0357680320739746">
        <ele>1233.0</ele>
        <time>2018-10-12T08:22:57.000Z</time>
      </trkpt>
      <trkpt lat="31.0017147064208984" lon="-7.0357170104980469">
        <ele>1232.178955078125</ele>
        <time>2018-10-12T08:22:58.000Z</time>
      </trkpt>
      <trkpt lat="31.0016918182373047" lon="-7.0356669425964355">
        <ele>1232.0</ele>
        <time>2018-10-12T08:22:59.000Z</time>
      </trkpt>
      <trkpt lat="31.0016651153564453" lon="-7.0356187820434570">
        <ele>1232.0</ele>
        <time>2018-10-12T08:23:00.000Z</time>
      </trkpt>
      <trkpt lat="31.0016384124755859" lon="-7.0355710983276367">
        <ele>1232.0</ele>
        <time>2018-10-12T08:23:01.000Z</time>
      </trkpt>
      <trkpt lat="31.0016098022460938" lon="-7.0355219841003418">
        <ele>1232.0</ele>
        <time>2018-10-12T08:23:02.000Z</time>
      </trkpt>
      <trkpt lat="31.0015792846679688" lon="-7.0354728698730469">
        <ele>1232.0</ele>
        <time>2018-10-12T08:23:03.000Z</time>
      </trkpt>
      <trkpt lat="31.0015506744384766" lon="-7.0354251861572266">
        <ele>1232.0</ele>
        <time>2018-10-12T08:23:04.000Z</time>
      </trkpt>
      <trkpt lat="31.0015182495117188" lon="-7.0353779792785645">
        <ele>1232.0</ele>
        <time>2018-10-12T08:23:05.000Z</time>
      </trkpt>
      <trkpt lat="31.0014839172363281" lon="-7.0353307723999023">
        <ele>1232.0</ele>
        <time>2018-10-12T08:23:06.000Z</time>
      </trkpt>
      <trkpt lat="31.0014495849609375" lon="-7.0352849960327148">
        <ele>1232.0</ele>
        <time>2018-10-12T08:23:07.000Z</time>
      </trkpt>
      <trkpt lat="31.0014133453369141" lon="-7.0352377891540527">
        <ele>1232.0</ele>
        <time>2018-10-12T08:23:08.000Z</time>
      </trkpt>
      <trkpt lat="31.0013771057128906" lon="-7.0351910591125488">
        <ele>1232.0</ele>
        <time>2018-10-12T08:23:09.000Z</time>
      </trkpt>
      <trkpt lat="31.0013408660888672" lon="-7.0351448059082031">
        <ele>1232.0</ele>
        <time>2018-10-12T08:23:10.000Z</time>
      </trkpt>
      <trkpt lat="31.0013046264648438" lon="-7.0350999832153320">
        <ele>1232.0</ele>
        <time>2018-10-12T08:23:11.000Z</time>
      </trkpt>
      <trkpt lat="31.0012664794921875" lon="-7.0350551605224609">
        <ele>1232.0</ele>
        <time>2018-10-12T08:23:12.000Z</time>
      </trkpt>
      <trkpt lat="31.0012264251708984" lon="-7.0350117683410645">
        <ele>1232.0</ele>
        <time>2018-10-12T08:23:13.000Z</time>
      </trkpt>
      <trkpt lat="31.0011882781982422" lon="-7.0349688529968262">
        <ele>1231.178955078125</ele>
        <time>2018-10-12T08:23:14.000Z</time>
      </trkpt>
      <trkpt lat="31.0011482238769531" lon="-7.0349268913269043">
        <ele>1231.0</ele>
        <time>2018-10-12T08:23:15.000Z</time>
      </trkpt>
      <trkpt lat="31.0011100769042969" lon="-7.0348858833312988">
        <ele>1231.0</ele>
        <time>2018-10-12T08:23:16.000Z</time>
      </trkpt>
      <trkpt lat="31.0010719299316406" lon="-7.0348458290100098">
        <ele>1231.0</ele>
        <time>2018-10-12T08:23:17.000Z</time>
      </trkpt>
      <trkpt lat="31.0010337829589844" lon="-7.0348057746887207">
        <ele>1231.0</ele>
        <time>2018-10-12T08:23:18.000Z</time>
      </trkpt>
      <trkpt lat="31.0009956359863281" lon="-7.0347671508789062">
        <ele>1231.0</ele>
        <time>2018-10-12T08:23:19.000Z</time>
      </trkpt>
      <trkpt lat="31.0009593963623047" lon="-7.0347280502319336">
        <ele>1231.0</ele>
        <time>2018-10-12T08:23:20.000Z</time>
      </trkpt>
      <trkpt lat="31.0009231567382812" lon="-7.0346889495849609">
        <ele>1231.0</ele>
        <time>2018-10-12T08:23:21.000Z</time>
      </trkpt>
      <trkpt lat="31.0008888244628906" lon="-7.0346498489379883">
        <ele>1231.0</ele>
        <time>2018-10-12T08:23:22.000Z</time>
      </trkpt>
      <trkpt lat="31.0008525848388672" lon="-7.0346121788024902">
        <ele>1231.0</ele>
        <time>2018-10-12T08:23:23.000Z</time>
      </trkpt>
      <trkpt lat="31.0008163452148438" lon="-7.0345730781555176">
        <ele>1231.0</ele>
        <time>2018-10-12T08:23:24.000Z</time>
      </trkpt>
      <trkpt lat="31.0007801055908203" lon="-7.0345320701599121">
        <ele>1231.0</ele>
        <time>2018-10-12T08:23:25.000Z</time>
      </trkpt>
      <trkpt lat="31.0007457733154297" lon="-7.0344910621643066">
        <ele>1231.0</ele>
        <time>2018-10-12T08:23:26.000Z</time>
      </trkpt>
      <trkpt lat="31.0007095336914062" lon="-7.0344491004943848">
        <ele>1231.0</ele>
        <time>2018-10-12T08:23:27.000Z</time>
      </trkpt>
      <trkpt lat="31.0006732940673828" lon="-7.0344061851501465">
        <ele>1231.0</ele>
        <time>2018-10-12T08:23:28.000Z</time>
      </trkpt>
      <trkpt lat="31.0006370544433594" lon="-7.0343627929687500">
        <ele>1231.0</ele>
        <time>2018-10-12T08:23:29.000Z</time>
      </trkpt>
      <trkpt lat="31.0006027221679688" lon="-7.0343198776245117">
        <ele>1231.0</ele>
        <time>2018-10-12T08:23:30.000Z</time>
      </trkpt>
      <trkpt lat="31.0005683898925781" lon="-7.0342769622802734">
        <ele>1231.0</ele>
        <time>2018-10-12T08:23:31.000Z</time>
      </trkpt>
      <trkpt lat="31.0005340576171875" lon="-7.0342330932617188">
        <ele>1230.178955078125</ele>
        <time>2018-10-12T08:23:32.000Z</time>
      </trkpt>
      <trkpt lat="31.0004978179931641" lon="-7.0341892242431641">
        <ele>1230.0</ele>
        <time>2018-10-12T08:23:33.000Z</time>
      </trkpt>
      <trkpt lat="31.0004596710205078" lon="-7.0341448783874512">
        <ele>1230.0</ele>
        <time>2018-10-12T08:23:34.000Z</time>
      </trkpt>
      <trkpt lat="31.0004234313964844" lon="-7.0341019630432129">
        <ele>1230.0</ele>
        <time>2018-10-12T08:23:35.000Z</time>
      </trkpt>
      <trkpt lat="31.0003871917724609" lon="-7.0340590476989746">
        <ele>1230.0</ele>
        <time>2018-10-12T08:23:36.000Z</time>
      </trkpt>
      <trkpt lat="31.0003528594970703" lon="-7.0340142250061035">
        <ele>1230.0</ele>
        <time>2018-10-12T08:23:37.000Z</time>
      </trkpt>
      <trkpt lat="31.0003185272216797" lon="-7.0339679718017578">
        <ele>1230.0</ele>
        <time>2018-10-12T08:23:38.000Z</time>
      </trkpt>
      <trkpt lat="31.0002861022949219" lon="-7.0339221954345703">
        <ele>1230.0</ele>
        <time>2018-10-12T08:23:39.000Z</time>
      </trkpt>
      <trkpt lat="31.0002536773681641" lon="-7.0338749885559082">
        <ele>1230.0</ele>
        <time>2018-10-12T08:23:40.000Z</time>
      </trkpt>
      <trkpt lat="31.0002231597900391" lon="-7.0338277816772461">
        <ele>1230.0</ele>
        <time>2018-10-12T08:23:41.000Z</time>
      </trkpt>
      <trkpt lat="31.0001945495605469" lon="-7.0337800979614258">
        <ele>1230.0</ele>
        <time>2018-10-12T08:23:42.000Z</time>
      </trkpt>
      <trkpt lat="31.0001678466796875" lon="-7.0337328910827637">
        <ele>1230.0</ele>
        <time>2018-10-12T08:23:43.000Z</time>
      </trkpt>
      <trkpt lat="31.0001373291015625" lon="-7.0336852073669434">
        <ele>1230.0</ele>
        <time>2018-10-12T08:23:44.000Z</time>
      </trkpt>
      <trkpt lat="31.0001087188720703" lon="-7.0336389541625977">
        <ele>1230.0</ele>
        <time>2018-10-12T08:23:45.000Z</time>
      </trkpt>
      <trkpt lat="31.0000743865966797" lon="-7.0335941314697266">
        <ele>1230.0</ele>
        <time>2018-10-12T08:23:46.000Z</time>
      </trkpt>
      <trkpt lat="31.0000381469726562" lon="-7.0335512161254883">
        <ele>1229.2593994140625</ele>
        <time>2018-10-12T08:23:47.000Z</time>
      </trkpt>
      <trkpt lat="31.0000019073486328" lon="-7.0335111618041992">
        <ele>1229.0</ele>
        <time>2018-10-12T08:23:48.000Z</time>
      </trkpt>
      <trkpt lat="30.9999618530273438" lon="-7.0334730148315430">
        <ele>1229.0</ele>
        <time>2018-10-12T08:23:49.000Z</time>
      </trkpt>
      <trkpt lat="30.9999217987060547" lon="-7.0334358215332031">
        <ele>1229.0</ele>
        <time>2018-10-12T08:23:50.000Z</time>
      </trkpt>
      <trkpt lat="30.9998798370361328" lon="-7.0333991050720215">
        <ele>1229.0</ele>
        <time>2018-10-12T08:23:51.000Z</time>
      </trkpt>
      <trkpt lat="30.9998397827148438" lon="-7.0333609580993652">
        <ele>1229.0</ele>
        <time>2018-10-12T08:23:52.000Z</time>
      </trkpt>
      <trkpt lat="30.9997997283935547" lon="-7.0333237648010254">
        <ele>1229.0</ele>
        <time>2018-10-12T08:23:53.000Z</time>
      </trkpt>
      <trkpt lat="30.9997596740722656" lon="-7.0332860946655273">
        <ele>1229.0</ele>
        <time>2018-10-12T08:23:54.000Z</time>
      </trkpt>
      <trkpt lat="30.9997215270996094" lon="-7.0332489013671875">
        <ele>1229.0</ele>
        <time>2018-10-12T08:23:55.000Z</time>
      </trkpt>
      <trkpt lat="30.9996814727783203" lon="-7.0332121849060059">
        <ele>1229.0</ele>
        <time>2018-10-12T08:23:56.000Z</time>
      </trkpt>
      <trkpt lat="30.9996433258056641" lon="-7.0331749916076660">
        <ele>1229.0</ele>
        <time>2018-10-12T08:23:57.000Z</time>
      </trkpt>
      <trkpt lat="30.9996051788330078" lon="-7.0331401824951172">
        <ele>1229.0</ele>
        <time>2018-10-12T08:23:58.000Z</time>
      </trkpt>
      <trkpt lat="30.9995689392089844" lon="-7.0331039428710938">
        <ele>1229.0</ele>
        <time>2018-10-12T08:23:59.000Z</time>
      </trkpt>
      <trkpt lat="30.9995307922363281" lon="-7.0330691337585449">
        <ele>1229.0</ele>
        <time>2018-10-12T08:24:00.000Z</time>
      </trkpt>
      <trkpt lat="30.9994926452636719" lon="-7.0330348014831543">
        <ele>1229.0</ele>
        <time>2018-10-12T08:24:01.000Z</time>
      </trkpt>
      <trkpt lat="30.9994525909423828" lon="-7.0330009460449219">
        <ele>1229.0</ele>
        <time>2018-10-12T08:24:02.000Z</time>
      </trkpt>
      <trkpt lat="30.9994125366210938" lon="-7.0329661369323730">
        <ele>1229.0</ele>
        <time>2018-10-12T08:24:03.000Z</time>
      </trkpt>
      <trkpt lat="30.9993724822998047" lon="-7.0329332351684570">
        <ele>1229.0</ele>
        <time>2018-10-12T08:24:04.000Z</time>
      </trkpt>
      <trkpt lat="30.9993324279785156" lon="-7.0329008102416992">
        <ele>1229.0</ele>
        <time>2018-10-12T08:24:05.000Z</time>
      </trkpt>
      <trkpt lat="30.9992904663085938" lon="-7.0328688621520996">
        <ele>1229.0</ele>
        <time>2018-10-12T08:24:06.000Z</time>
      </trkpt>
      <trkpt lat="30.9992504119873047" lon="-7.0328369140625000">
        <ele>1229.0</ele>
        <time>2018-10-12T08:24:07.000Z</time>
      </trkpt>
      <trkpt lat="30.9992103576660156" lon="-7.0328021049499512">
        <ele>1229.0</ele>
        <time>2018-10-12T08:24:08.000Z</time>
      </trkpt>
      <trkpt lat="30.9991703033447266" lon="-7.0327658653259277">
        <ele>1229.0</ele>
        <time>2018-10-12T08:24:09.000Z</time>
      </trkpt>
      <trkpt lat="30.9991302490234375" lon="-7.0327281951904297">
        <ele>1229.0</ele>
        <time>2018-10-12T08:24:10.000Z</time>
      </trkpt>
      <trkpt lat="30.9990921020507812" lon="-7.0326871871948242">
        <ele>1229.0</ele>
        <time>2018-10-12T08:24:11.000Z</time>
      </trkpt>
      <trkpt lat="30.9990558624267578" lon="-7.0326437950134277">
        <ele>1229.0</ele>
        <time>2018-10-12T08:24:12.000Z</time>
      </trkpt>
      <trkpt lat="30.9990234375000000" lon="-7.0325999259948730">
        <ele>1229.0</ele>
        <time>2018-10-12T08:24:13.000Z</time>
      </trkpt>
      <trkpt lat="30.9989948272705078" lon="-7.0325551033020020">
        <ele>1229.0</ele>
        <time>2018-10-12T08:24:14.000Z</time>
      </trkpt>
      <trkpt lat="30.9989643096923828" lon="-7.0325078964233398">
        <ele>1229.0</ele>
        <time>2018-10-12T08:24:15.000Z</time>
      </trkpt>
      <trkpt lat="30.9989356994628906" lon="-7.0324602127075195">
        <ele>1229.0</ele>
        <time>2018-10-12T08:24:16.000Z</time>
      </trkpt>
      <trkpt lat="30.9989070892333984" lon="-7.0324120521545410">
        <ele>1229.0</ele>
        <time>2018-10-12T08:24:17.000Z</time>
      </trkpt>
      <trkpt lat="30.9988765716552734" lon="-7.0323629379272461">
        <ele>1229.0</ele>
        <time>2018-10-12T08:24:18.000Z</time>
      </trkpt>
      <trkpt lat="30.9988460540771484" lon="-7.0323128700256348">
        <ele>1229.0</ele>
        <time>2018-10-12T08:24:19.000Z</time>
      </trkpt>
      <trkpt lat="30.9988155364990234" lon="-7.0322628021240234">
        <ele>1229.0</ele>
        <time>2018-10-12T08:24:20.000Z</time>
      </trkpt>
      <trkpt lat="30.9987869262695312" lon="-7.0322117805480957">
        <ele>1229.0</ele>
        <time>2018-10-12T08:24:21.000Z</time>
      </trkpt>
      <trkpt lat="30.9987564086914062" lon="-7.0321612358093262">
        <ele>1229.0</ele>
        <time>2018-10-12T08:24:22.000Z</time>
      </trkpt>
      <trkpt lat="30.9987277984619141" lon="-7.0321111679077148">
        <ele>1228.195068359375</ele>
        <time>2018-10-12T08:24:23.000Z</time>
      </trkpt>
      <trkpt lat="30.9986972808837891" lon="-7.0320611000061035">
        <ele>1228.0</ele>
        <time>2018-10-12T08:24:24.000Z</time>
      </trkpt>
      <trkpt lat="30.9986686706542969" lon="-7.0320110321044922">
        <ele>1228.0</ele>
        <time>2018-10-12T08:24:25.000Z</time>
      </trkpt>
      <trkpt lat="30.9986400604248047" lon="-7.0319628715515137">
        <ele>1228.0</ele>
        <time>2018-10-12T08:24:26.000Z</time>
      </trkpt>
      <trkpt lat="30.9986114501953125" lon="-7.0319180488586426">
        <ele>1228.0</ele>
        <time>2018-10-12T08:24:27.000Z</time>
      </trkpt>
      <trkpt lat="30.9985866546630859" lon="-7.0318717956542969">
        <ele>1228.0</ele>
        <time>2018-10-12T08:24:28.000Z</time>
      </trkpt>
      <trkpt lat="30.9985599517822266" lon="-7.0318269729614258">
        <ele>1228.0</ele>
        <time>2018-10-12T08:24:29.000Z</time>
      </trkpt>
      <trkpt lat="30.9985332489013672" lon="-7.0317821502685547">
        <ele>1228.0</ele>
        <time>2018-10-12T08:24:30.000Z</time>
      </trkpt>
      <trkpt lat="30.9985046386718750" lon="-7.0317378044128418">
        <ele>1228.0</ele>
        <time>2018-10-12T08:24:31.000Z</time>
      </trkpt>
      <trkpt lat="30.9984741210937500" lon="-7.0316920280456543">
        <ele>1228.0</ele>
        <time>2018-10-12T08:24:32.000Z</time>
      </trkpt>
      <trkpt lat="30.9984455108642578" lon="-7.0316481590270996">
        <ele>1228.0</ele>
        <time>2018-10-12T08:24:33.000Z</time>
      </trkpt>
      <trkpt lat="30.9984169006347656" lon="-7.0316038131713867">
        <ele>1228.0</ele>
        <time>2018-10-12T08:24:34.000Z</time>
      </trkpt>
      <trkpt lat="30.9983863830566406" lon="-7.0315599441528320">
        <ele>1228.0</ele>
        <time>2018-10-12T08:24:35.000Z</time>
      </trkpt>
      <trkpt lat="30.9983558654785156" lon="-7.0315160751342773">
        <ele>1228.0</ele>
        <time>2018-10-12T08:24:36.000Z</time>
      </trkpt>
      <trkpt lat="30.9983234405517578" lon="-7.0314707756042480">
        <ele>1228.0</ele>
        <time>2018-10-12T08:24:37.000Z</time>
      </trkpt>
      <trkpt lat="30.9982929229736328" lon="-7.0314249992370605">
        <ele>1228.0</ele>
        <time>2018-10-12T08:24:38.000Z</time>
      </trkpt>
      <trkpt lat="30.9982604980468750" lon="-7.0313801765441895">
        <ele>1228.0</ele>
        <time>2018-10-12T08:24:39.000Z</time>
      </trkpt>
      <trkpt lat="30.9982280731201172" lon="-7.0313339233398438">
        <ele>1228.0</ele>
        <time>2018-10-12T08:24:40.000Z</time>
      </trkpt>
      <trkpt lat="30.9981994628906250" lon="-7.0312848091125488">
        <ele>1228.0</ele>
        <time>2018-10-12T08:24:41.000Z</time>
      </trkpt>
      <trkpt lat="30.9981708526611328" lon="-7.0312371253967285">
        <ele>1228.0</ele>
        <time>2018-10-12T08:24:42.000Z</time>
      </trkpt>
      <trkpt lat="30.9981422424316406" lon="-7.0311880111694336">
        <ele>1228.0</ele>
        <time>2018-10-12T08:24:43.000Z</time>
      </trkpt>
      <trkpt lat="30.9981155395507812" lon="-7.0311379432678223">
        <ele>1228.0</ele>
        <time>2018-10-12T08:24:44.000Z</time>
      </trkpt>
      <trkpt lat="30.9980869293212891" lon="-7.0310869216918945">
        <ele>1228.0</ele>
        <time>2018-10-12T08:24:45.000Z</time>
      </trkpt>
      <trkpt lat="30.9980602264404297" lon="-7.0310349464416504">
        <ele>1228.0</ele>
        <time>2018-10-12T08:24:46.000Z</time>
      </trkpt>
      <trkpt lat="30.9980354309082031" lon="-7.0309820175170898">
        <ele>1228.0</ele>
        <time>2018-10-12T08:24:47.000Z</time>
      </trkpt>
      <trkpt lat="30.9980087280273438" lon="-7.0309271812438965">
        <ele>1228.0</ele>
        <time>2018-10-12T08:24:48.000Z</time>
      </trkpt>
      <trkpt lat="30.9979839324951172" lon="-7.0308718681335449">
        <ele>1228.0</ele>
        <time>2018-10-12T08:24:49.000Z</time>
      </trkpt>
      <trkpt lat="30.9979572296142578" lon="-7.0308170318603516">
        <ele>1228.0</ele>
        <time>2018-10-12T08:24:50.000Z</time>
      </trkpt>
      <trkpt lat="30.9979305267333984" lon="-7.0307621955871582">
        <ele>1228.0</ele>
        <time>2018-10-12T08:24:51.000Z</time>
      </trkpt>
      <trkpt lat="30.9979057312011719" lon="-7.0307059288024902">
        <ele>1228.0</ele>
        <time>2018-10-12T08:24:52.000Z</time>
      </trkpt>
      <trkpt lat="30.9978771209716797" lon="-7.0306510925292969">
        <ele>1228.0</ele>
        <time>2018-10-12T08:24:53.000Z</time>
      </trkpt>
      <trkpt lat="30.9978485107421875" lon="-7.0305957794189453">
        <ele>1228.0</ele>
        <time>2018-10-12T08:24:54.000Z</time>
      </trkpt>
      <trkpt lat="30.9978199005126953" lon="-7.0305418968200684">
        <ele>1228.0</ele>
        <time>2018-10-12T08:24:55.000Z</time>
      </trkpt>
      <trkpt lat="30.9977874755859375" lon="-7.0304889678955078">
        <ele>1227.178955078125</ele>
        <time>2018-10-12T08:24:56.000Z</time>
      </trkpt>
      <trkpt lat="30.9977531433105469" lon="-7.0304379463195801">
        <ele>1227.0</ele>
        <time>2018-10-12T08:24:57.000Z</time>
      </trkpt>
      <trkpt lat="30.9977207183837891" lon="-7.0303878784179688">
        <ele>1227.0</ele>
        <time>2018-10-12T08:24:58.000Z</time>
      </trkpt>
      <trkpt lat="30.9976844787597656" lon="-7.0303378105163574">
        <ele>1227.0</ele>
        <time>2018-10-12T08:24:59.000Z</time>
      </trkpt>
      <trkpt lat="30.9976520538330078" lon="-7.0302901268005371">
        <ele>1227.0</ele>
        <time>2018-10-12T08:25:00.000Z</time>
      </trkpt>
      <trkpt lat="30.9976177215576172" lon="-7.0302419662475586">
        <ele>1227.0</ele>
        <time>2018-10-12T08:25:01.000Z</time>
      </trkpt>
      <trkpt lat="30.9975833892822266" lon="-7.0301918983459473">
        <ele>1227.0</ele>
        <time>2018-10-12T08:25:02.000Z</time>
      </trkpt>
      <trkpt lat="30.9975490570068359" lon="-7.0301427841186523">
        <ele>1226.2672119140625</ele>
        <time>2018-10-12T08:25:03.000Z</time>
      </trkpt>
      <trkpt lat="30.9975166320800781" lon="-7.0300941467285156">
        <ele>1226.0</ele>
        <time>2018-10-12T08:25:04.000Z</time>
      </trkpt>
      <trkpt lat="30.9974842071533203" lon="-7.0300421714782715">
        <ele>1226.0</ele>
        <time>2018-10-12T08:25:05.000Z</time>
      </trkpt>
      <trkpt lat="30.9974517822265625" lon="-7.0299921035766602">
        <ele>1226.0</ele>
        <time>2018-10-12T08:25:06.000Z</time>
      </trkpt>
      <trkpt lat="30.9974193572998047" lon="-7.0299401283264160">
        <ele>1226.0</ele>
        <time>2018-10-12T08:25:07.000Z</time>
      </trkpt>
      <trkpt lat="30.9973850250244141" lon="-7.0298891067504883">
        <ele>1226.0</ele>
        <time>2018-10-12T08:25:08.000Z</time>
      </trkpt>
      <trkpt lat="30.9973526000976562" lon="-7.0298371315002441">
        <ele>1226.0</ele>
        <time>2018-10-12T08:25:09.000Z</time>
      </trkpt>
      <trkpt lat="30.9973182678222656" lon="-7.0297861099243164">
        <ele>1226.0</ele>
        <time>2018-10-12T08:25:10.000Z</time>
      </trkpt>
      <trkpt lat="30.9972839355468750" lon="-7.0297341346740723">
        <ele>1226.0</ele>
        <time>2018-10-12T08:25:11.000Z</time>
      </trkpt>
      <trkpt lat="30.9972476959228516" lon="-7.0296850204467773">
        <ele>1226.0</ele>
        <time>2018-10-12T08:25:12.000Z</time>
      </trkpt>
      <trkpt lat="30.9972114562988281" lon="-7.0296378135681152">
        <ele>1226.0</ele>
        <time>2018-10-12T08:25:13.000Z</time>
      </trkpt>
      <trkpt lat="30.9971771240234375" lon="-7.0295882225036621">
        <ele>1226.0</ele>
        <time>2018-10-12T08:25:14.000Z</time>
      </trkpt>
      <trkpt lat="30.9971427917480469" lon="-7.0295381546020508">
        <ele>1226.0</ele>
        <time>2018-10-12T08:25:15.000Z</time>
      </trkpt>
      <trkpt lat="30.9971103668212891" lon="-7.0294861793518066">
        <ele>1226.0</ele>
        <time>2018-10-12T08:25:16.000Z</time>
      </trkpt>
      <trkpt lat="30.9970798492431641" lon="-7.0294342041015625">
        <ele>1226.0</ele>
        <time>2018-10-12T08:25:17.000Z</time>
      </trkpt>
      <trkpt lat="30.9970474243164062" lon="-7.0293779373168945">
        <ele>1226.0</ele>
        <time>2018-10-12T08:25:18.000Z</time>
      </trkpt>
      <trkpt lat="30.9970188140869141" lon="-7.0293221473693848">
        <ele>1225.178955078125</ele>
        <time>2018-10-12T08:25:19.000Z</time>
      </trkpt>
      <trkpt lat="30.9969902038574219" lon="-7.0292639732360840">
        <ele>1225.0</ele>
        <time>2018-10-12T08:25:20.000Z</time>
      </trkpt>
      <trkpt lat="30.9969654083251953" lon="-7.0292057991027832">
        <ele>1225.0</ele>
        <time>2018-10-12T08:25:21.000Z</time>
      </trkpt>
      <trkpt lat="30.9969425201416016" lon="-7.0291481018066406">
        <ele>1225.0</ele>
        <time>2018-10-12T08:25:22.000Z</time>
      </trkpt>
      <trkpt lat="30.9969215393066406" lon="-7.0290889739990234">
        <ele>1225.0</ele>
        <time>2018-10-12T08:25:23.000Z</time>
      </trkpt>
      <trkpt lat="30.9968986511230469" lon="-7.0290322303771973">
        <ele>1225.0</ele>
        <time>2018-10-12T08:25:24.000Z</time>
      </trkpt>
      <trkpt lat="30.9968776702880859" lon="-7.0289731025695801">
        <ele>1225.0</ele>
        <time>2018-10-12T08:25:25.000Z</time>
      </trkpt>
      <trkpt lat="30.9968528747558594" lon="-7.0289158821105957">
        <ele>1225.0</ele>
        <time>2018-10-12T08:25:26.000Z</time>
      </trkpt>
      <trkpt lat="30.9968280792236328" lon="-7.0288591384887695">
        <ele>1225.0</ele>
        <time>2018-10-12T08:25:27.000Z</time>
      </trkpt>
      <trkpt lat="30.9968032836914062" lon="-7.0288019180297852">
        <ele>1225.0</ele>
        <time>2018-10-12T08:25:28.000Z</time>
      </trkpt>
      <trkpt lat="30.9967784881591797" lon="-7.0287470817565918">
        <ele>1225.0</ele>
        <time>2018-10-12T08:25:29.000Z</time>
      </trkpt>
      <trkpt lat="30.9967536926269531" lon="-7.0286941528320312">
        <ele>1225.0</ele>
        <time>2018-10-12T08:25:30.000Z</time>
      </trkpt>
      <trkpt lat="30.9967250823974609" lon="-7.0286421775817871">
        <ele>1225.0</ele>
        <time>2018-10-12T08:25:31.000Z</time>
      </trkpt>
      <trkpt lat="30.9966964721679688" lon="-7.0285878181457520">
        <ele>1225.0</ele>
        <time>2018-10-12T08:25:32.000Z</time>
      </trkpt>
      <trkpt lat="30.9966697692871094" lon="-7.0285339355468750">
        <ele>1225.0</ele>
        <time>2018-10-12T08:25:33.000Z</time>
      </trkpt>
      <trkpt lat="30.9966411590576172" lon="-7.0284800529479980">
        <ele>1225.0</ele>
        <time>2018-10-12T08:25:34.000Z</time>
      </trkpt>
      <trkpt lat="30.9966144561767578" lon="-7.0284261703491211">
        <ele>1225.0</ele>
        <time>2018-10-12T08:25:35.000Z</time>
      </trkpt>
      <trkpt lat="30.9965839385986328" lon="-7.0283761024475098">
        <ele>1225.0</ele>
        <time>2018-10-12T08:25:36.000Z</time>
      </trkpt>
      <trkpt lat="30.9965496063232422" lon="-7.0283269882202148">
        <ele>1225.0</ele>
        <time>2018-10-12T08:25:37.000Z</time>
      </trkpt>
      <trkpt lat="30.9965152740478516" lon="-7.0282821655273438">
        <ele>1225.0</ele>
        <time>2018-10-12T08:25:38.000Z</time>
      </trkpt>
      <trkpt lat="30.9964809417724609" lon="-7.0282359123229980">
        <ele>1225.0</ele>
        <time>2018-10-12T08:25:39.000Z</time>
      </trkpt>
      <trkpt lat="30.9964447021484375" lon="-7.0281920433044434">
        <ele>1225.0</ele>
        <time>2018-10-12T08:25:40.000Z</time>
      </trkpt>
      <trkpt lat="30.9964084625244141" lon="-7.0281472206115723">
        <ele>1225.0</ele>
        <time>2018-10-12T08:25:41.000Z</time>
      </trkpt>
      <trkpt lat="30.9963779449462891" lon="-7.0280990600585938">
        <ele>1225.0</ele>
        <time>2018-10-12T08:25:42.000Z</time>
      </trkpt>
      <trkpt lat="30.9963455200195312" lon="-7.0280508995056152">
        <ele>1225.0</ele>
        <time>2018-10-12T08:25:43.000Z</time>
      </trkpt>
      <trkpt lat="30.9963130950927734" lon="-7.0280008316040039">
        <ele>1225.0</ele>
        <time>2018-10-12T08:25:44.000Z</time>
      </trkpt>
      <trkpt lat="30.9962825775146484" lon="-7.0279541015625000">
        <ele>1225.0</ele>
        <time>2018-10-12T08:25:45.000Z</time>
      </trkpt>
      <trkpt lat="30.9962520599365234" lon="-7.0279059410095215">
        <ele>1225.0</ele>
        <time>2018-10-12T08:25:46.000Z</time>
      </trkpt>
      <trkpt lat="30.9962215423583984" lon="-7.0278558731079102">
        <ele>1225.0</ele>
        <time>2018-10-12T08:25:47.000Z</time>
      </trkpt>
      <trkpt lat="30.9961929321289062" lon="-7.0278081893920898">
        <ele>1225.0</ele>
        <time>2018-10-12T08:25:48.000Z</time>
      </trkpt>
      <trkpt lat="30.9961624145507812" lon="-7.0277619361877441">
        <ele>1225.0</ele>
        <time>2018-10-12T08:25:49.000Z</time>
      </trkpt>
      <trkpt lat="30.9961318969726562" lon="-7.0277180671691895">
        <ele>1225.0</ele>
        <time>2018-10-12T08:25:50.000Z</time>
      </trkpt>
      <trkpt lat="30.9961013793945312" lon="-7.0276708602905273">
        <ele>1225.0</ele>
        <time>2018-10-12T08:25:51.000Z</time>
      </trkpt>
      <trkpt lat="30.9960708618164062" lon="-7.0276241302490234">
        <ele>1225.0</ele>
        <time>2018-10-12T08:25:52.000Z</time>
      </trkpt>
      <trkpt lat="30.9960384368896484" lon="-7.0275759696960449">
        <ele>1225.0</ele>
        <time>2018-10-12T08:25:53.000Z</time>
      </trkpt>
      <trkpt lat="30.9960060119628906" lon="-7.0275249481201172">
        <ele>1225.0</ele>
        <time>2018-10-12T08:25:54.000Z</time>
      </trkpt>
      <trkpt lat="30.9959735870361328" lon="-7.0274720191955566">
        <ele>1224.2633056640625</ele>
        <time>2018-10-12T08:25:55.000Z</time>
      </trkpt>
      <trkpt lat="30.9959449768066406" lon="-7.0274147987365723">
        <ele>1224.0</ele>
        <time>2018-10-12T08:25:56.000Z</time>
      </trkpt>
      <trkpt lat="30.9959182739257812" lon="-7.0273561477661133">
        <ele>1224.0</ele>
        <time>2018-10-12T08:25:57.000Z</time>
      </trkpt>
      <trkpt lat="30.9958953857421875" lon="-7.0272908210754395">
        <ele>1224.0</ele>
        <time>2018-10-12T08:25:58.000Z</time>
      </trkpt>
      <trkpt lat="30.9958782196044922" lon="-7.0272259712219238">
        <ele>1224.0</ele>
        <time>2018-10-12T08:25:59.000Z</time>
      </trkpt>
      <trkpt lat="30.9958629608154297" lon="-7.0271577835083008">
        <ele>1224.0</ele>
        <time>2018-10-12T08:26:00.000Z</time>
      </trkpt>
      <trkpt lat="30.9958496093750000" lon="-7.0270891189575195">
        <ele>1224.0</ele>
        <time>2018-10-12T08:26:01.000Z</time>
      </trkpt>
      <trkpt lat="30.9958362579345703" lon="-7.0270171165466309">
        <ele>1224.0</ele>
        <time>2018-10-12T08:26:02.000Z</time>
      </trkpt>
      <trkpt lat="30.9958190917968750" lon="-7.0269451141357422">
        <ele>1224.0</ele>
        <time>2018-10-12T08:26:03.000Z</time>
      </trkpt>
      <trkpt lat="30.9957981109619141" lon="-7.0268731117248535">
        <ele>1224.0</ele>
        <time>2018-10-12T08:26:04.000Z</time>
      </trkpt>
      <trkpt lat="30.9957752227783203" lon="-7.0268020629882812">
        <ele>1224.0</ele>
        <time>2018-10-12T08:26:05.000Z</time>
      </trkpt>
      <trkpt lat="30.9957523345947266" lon="-7.0267329216003418">
        <ele>1223.178955078125</ele>
        <time>2018-10-12T08:26:06.000Z</time>
      </trkpt>
      <trkpt lat="30.9957294464111328" lon="-7.0266661643981934">
        <ele>1223.0</ele>
        <time>2018-10-12T08:26:07.000Z</time>
      </trkpt>
      <trkpt lat="30.9957084655761719" lon="-7.0265998840332031">
        <ele>1223.0</ele>
        <time>2018-10-12T08:26:08.000Z</time>
      </trkpt>
      <trkpt lat="30.9956893920898438" lon="-7.0265378952026367">
        <ele>1223.0</ele>
        <time>2018-10-12T08:26:09.000Z</time>
      </trkpt>
      <trkpt lat="30.9956703186035156" lon="-7.0264787673950195">
        <ele>1223.0</ele>
        <time>2018-10-12T08:26:10.000Z</time>
      </trkpt>
      <trkpt lat="30.9956512451171875" lon="-7.0264220237731934">
        <ele>1223.0</ele>
        <time>2018-10-12T08:26:11.000Z</time>
      </trkpt>
      <trkpt lat="30.9956321716308594" lon="-7.0263662338256836">
        <ele>1223.0</ele>
        <time>2018-10-12T08:26:12.000Z</time>
      </trkpt>
      <trkpt lat="30.9956111907958984" lon="-7.0263099670410156">
        <ele>1223.0</ele>
        <time>2018-10-12T08:26:13.000Z</time>
      </trkpt>
      <trkpt lat="30.9955902099609375" lon="-7.0262541770935059">
        <ele>1223.0</ele>
        <time>2018-10-12T08:26:14.000Z</time>
      </trkpt>
      <trkpt lat="30.9955654144287109" lon="-7.0261979103088379">
        <ele>1223.0</ele>
        <time>2018-10-12T08:26:15.000Z</time>
      </trkpt>
      <trkpt lat="30.9955425262451172" lon="-7.0261411666870117">
        <ele>1223.0</ele>
        <time>2018-10-12T08:26:16.000Z</time>
      </trkpt>
      <trkpt lat="30.9955177307128906" lon="-7.0260829925537109">
        <ele>1223.0</ele>
        <time>2018-10-12T08:26:17.000Z</time>
      </trkpt>
      <trkpt lat="30.9954929351806641" lon="-7.0260238647460938">
        <ele>1223.0</ele>
        <time>2018-10-12T08:26:18.000Z</time>
      </trkpt>
      <trkpt lat="30.9954681396484375" lon="-7.0259652137756348">
        <ele>1223.0</ele>
        <time>2018-10-12T08:26:19.000Z</time>
      </trkpt>
      <trkpt lat="30.9954414367675781" lon="-7.0259070396423340">
        <ele>1223.0</ele>
        <time>2018-10-12T08:26:20.000Z</time>
      </trkpt>
      <trkpt lat="30.9954128265380859" lon="-7.0258507728576660">
        <ele>1223.0</ele>
        <time>2018-10-12T08:26:21.000Z</time>
      </trkpt>
      <trkpt lat="30.9953804016113281" lon="-7.0257978439331055">
        <ele>1222.178955078125</ele>
        <time>2018-10-12T08:26:22.000Z</time>
      </trkpt>
      <trkpt lat="30.9953460693359375" lon="-7.0257477760314941">
        <ele>1222.0</ele>
        <time>2018-10-12T08:26:23.000Z</time>
      </trkpt>
      <trkpt lat="30.9953136444091797" lon="-7.0257000923156738">
        <ele>1222.0</ele>
        <time>2018-10-12T08:26:24.000Z</time>
      </trkpt>
      <trkpt lat="30.9952812194824219" lon="-7.0256519317626953">
        <ele>1222.0</ele>
        <time>2018-10-12T08:26:25.000Z</time>
      </trkpt>
      <trkpt lat="30.9952507019042969" lon="-7.0256028175354004">
        <ele>1222.0</ele>
        <time>2018-10-12T08:26:26.000Z</time>
      </trkpt>
      <trkpt lat="30.9952220916748047" lon="-7.0255532264709473">
        <ele>1222.0</ele>
        <time>2018-10-12T08:26:27.000Z</time>
      </trkpt>
      <trkpt lat="30.9951953887939453" lon="-7.0255022048950195">
        <ele>1222.0</ele>
        <time>2018-10-12T08:26:28.000Z</time>
      </trkpt>
      <trkpt lat="30.9951705932617188" lon="-7.0254530906677246">
        <ele>1222.0</ele>
        <time>2018-10-12T08:26:29.000Z</time>
      </trkpt>
      <trkpt lat="30.9951438903808594" lon="-7.0254030227661133">
        <ele>1222.626708984375</ele>
        <time>2018-10-12T08:26:30.000Z</time>
      </trkpt>
      <trkpt lat="30.9951190948486328" lon="-7.0253520011901855">
        <ele>1223.0</ele>
        <time>2018-10-12T08:26:31.000Z</time>
      </trkpt>
      <trkpt lat="30.9950942993164062" lon="-7.0253019332885742">
        <ele>1223.0</ele>
        <time>2018-10-12T08:26:32.000Z</time>
      </trkpt>
      <trkpt lat="30.9950695037841797" lon="-7.0252499580383301">
        <ele>1223.0</ele>
        <time>2018-10-12T08:26:33.000Z</time>
      </trkpt>
      <trkpt lat="30.9950447082519531" lon="-7.0251970291137695">
        <ele>1223.0</ele>
        <time>2018-10-12T08:26:34.000Z</time>
      </trkpt>
      <trkpt lat="30.9950199127197266" lon="-7.0251460075378418">
        <ele>1223.0</ele>
        <time>2018-10-12T08:26:35.000Z</time>
      </trkpt>
      <trkpt lat="30.9949951171875000" lon="-7.0250949859619141">
        <ele>1223.0</ele>
        <time>2018-10-12T08:26:36.000Z</time>
      </trkpt>
      <trkpt lat="30.9949703216552734" lon="-7.0250458717346191">
        <ele>1223.0</ele>
        <time>2018-10-12T08:26:37.000Z</time>
      </trkpt>
      <trkpt lat="30.9949493408203125" lon="-7.0249972343444824">
        <ele>1223.0</ele>
        <time>2018-10-12T08:26:38.000Z</time>
      </trkpt>
      <trkpt lat="30.9949321746826172" lon="-7.0249481201171875">
        <ele>1223.0</ele>
        <time>2018-10-12T08:26:39.000Z</time>
      </trkpt>
      <trkpt lat="30.9949169158935547" lon="-7.0248980522155762">
        <ele>1223.0</ele>
        <time>2018-10-12T08:26:40.000Z</time>
      </trkpt>
      <trkpt lat="30.9949016571044922" lon="-7.0248460769653320">
        <ele>1223.0</ele>
        <time>2018-10-12T08:26:41.000Z</time>
      </trkpt>
      <trkpt lat="30.9948863983154297" lon="-7.0247907638549805">
        <ele>1223.0</ele>
        <time>2018-10-12T08:26:42.000Z</time>
      </trkpt>
      <trkpt lat="30.9948711395263672" lon="-7.0247349739074707">
        <ele>1223.0</ele>
        <time>2018-10-12T08:26:43.000Z</time>
      </trkpt>
      <trkpt lat="30.9948539733886719" lon="-7.0246782302856445">
        <ele>1223.0</ele>
        <time>2018-10-12T08:26:44.000Z</time>
      </trkpt>
      <trkpt lat="30.9948368072509766" lon="-7.0246210098266602">
        <ele>1223.0</ele>
        <time>2018-10-12T08:26:45.000Z</time>
      </trkpt>
      <trkpt lat="30.9948196411132812" lon="-7.0245628356933594">
        <ele>1223.0</ele>
        <time>2018-10-12T08:26:46.000Z</time>
      </trkpt>
      <trkpt lat="30.9948005676269531" lon="-7.0245060920715332">
        <ele>1223.0</ele>
        <time>2018-10-12T08:26:47.000Z</time>
      </trkpt>
      <trkpt lat="30.9947814941406250" lon="-7.0244488716125488">
        <ele>1223.0</ele>
        <time>2018-10-12T08:26:48.000Z</time>
      </trkpt>
      <trkpt lat="30.9947624206542969" lon="-7.0243930816650391">
        <ele>1222.373291015625</ele>
        <time>2018-10-12T08:26:49.000Z</time>
      </trkpt>
      <trkpt lat="30.9947433471679688" lon="-7.0243368148803711">
        <ele>1222.0</ele>
        <time>2018-10-12T08:26:50.000Z</time>
      </trkpt>
      <trkpt lat="30.9947261810302734" lon="-7.0242800712585449">
        <ele>1222.0</ele>
        <time>2018-10-12T08:26:51.000Z</time>
      </trkpt>
      <trkpt lat="30.9947128295898438" lon="-7.0242218971252441">
        <ele>1222.0</ele>
        <time>2018-10-12T08:26:52.000Z</time>
      </trkpt>
      <trkpt lat="30.9946975708007812" lon="-7.0241641998291016">
        <ele>1222.0</ele>
        <time>2018-10-12T08:26:53.000Z</time>
      </trkpt>
      <trkpt lat="30.9946861267089844" lon="-7.0241050720214844">
        <ele>1222.0</ele>
        <time>2018-10-12T08:26:54.000Z</time>
      </trkpt>
      <trkpt lat="30.9946765899658203" lon="-7.0240468978881836">
        <ele>1222.0</ele>
        <time>2018-10-12T08:26:55.000Z</time>
      </trkpt>
      <trkpt lat="30.9946651458740234" lon="-7.0239892005920410">
        <ele>1222.0</ele>
        <time>2018-10-12T08:26:56.000Z</time>
      </trkpt>
      <trkpt lat="30.9946556091308594" lon="-7.0239310264587402">
        <ele>1222.0</ele>
        <time>2018-10-12T08:26:57.000Z</time>
      </trkpt>
      <trkpt lat="30.9946460723876953" lon="-7.0238738059997559">
        <ele>1222.0</ele>
        <time>2018-10-12T08:26:58.000Z</time>
      </trkpt>
      <trkpt lat="30.9946346282958984" lon="-7.0238170623779297">
        <ele>1221.373291015625</ele>
        <time>2018-10-12T08:26:59.000Z</time>
      </trkpt>
      <trkpt lat="30.9946231842041016" lon="-7.0237598419189453">
        <ele>1221.0</ele>
        <time>2018-10-12T08:27:00.000Z</time>
      </trkpt>
      <trkpt lat="30.9946117401123047" lon="-7.0237050056457520">
        <ele>1221.0</ele>
        <time>2018-10-12T08:27:01.000Z</time>
      </trkpt>
      <trkpt lat="30.9945945739746094" lon="-7.0236501693725586">
        <ele>1221.0</ele>
        <time>2018-10-12T08:27:02.000Z</time>
      </trkpt>
      <trkpt lat="30.9945774078369141" lon="-7.0235939025878906">
        <ele>1221.0</ele>
        <time>2018-10-12T08:27:03.000Z</time>
      </trkpt>
      <trkpt lat="30.9945564270019531" lon="-7.0235381126403809">
        <ele>1221.0</ele>
        <time>2018-10-12T08:27:04.000Z</time>
      </trkpt>
      <trkpt lat="30.9945392608642578" lon="-7.0234799385070801">
        <ele>1221.0</ele>
        <time>2018-10-12T08:27:05.000Z</time>
      </trkpt>
      <trkpt lat="30.9945220947265625" lon="-7.0234208106994629">
        <ele>1221.0</ele>
        <time>2018-10-12T08:27:06.000Z</time>
      </trkpt>
      <trkpt lat="30.9945068359375000" lon="-7.0233612060546875">
        <ele>1221.0</ele>
        <time>2018-10-12T08:27:07.000Z</time>
      </trkpt>
      <trkpt lat="30.9944934844970703" lon="-7.0233011245727539">
        <ele>1221.0</ele>
        <time>2018-10-12T08:27:08.000Z</time>
      </trkpt>
      <trkpt lat="30.9944782257080078" lon="-7.0232419967651367">
        <ele>1221.0</ele>
        <time>2018-10-12T08:27:09.000Z</time>
      </trkpt>
      <trkpt lat="30.9944667816162109" lon="-7.0231838226318359">
        <ele>1221.0</ele>
        <time>2018-10-12T08:27:10.000Z</time>
      </trkpt>
      <trkpt lat="30.9944534301757812" lon="-7.0231251716613770">
        <ele>1221.0</ele>
        <time>2018-10-12T08:27:11.000Z</time>
      </trkpt>
      <trkpt lat="30.9944438934326172" lon="-7.0230669975280762">
        <ele>1221.0</ele>
        <time>2018-10-12T08:27:12.000Z</time>
      </trkpt>
      <trkpt lat="30.9944343566894531" lon="-7.0230097770690918">
        <ele>1221.0</ele>
        <time>2018-10-12T08:27:13.000Z</time>
      </trkpt>
      <trkpt lat="30.9944267272949219" lon="-7.0229539871215820">
        <ele>1221.0</ele>
        <time>2018-10-12T08:27:14.000Z</time>
      </trkpt>
      <trkpt lat="30.9944190979003906" lon="-7.0228967666625977">
        <ele>1221.0</ele>
        <time>2018-10-12T08:27:15.000Z</time>
      </trkpt>
      <trkpt lat="30.9944076538085938" lon="-7.0228409767150879">
        <ele>1221.0</ele>
        <time>2018-10-12T08:27:16.000Z</time>
      </trkpt>
      <trkpt lat="30.9943885803222656" lon="-7.0227870941162109">
        <ele>1221.0</ele>
        <time>2018-10-12T08:27:17.000Z</time>
      </trkpt>
      <trkpt lat="30.9943637847900391" lon="-7.0227370262145996">
        <ele>1221.0</ele>
        <time>2018-10-12T08:27:18.000Z</time>
      </trkpt>
      <trkpt lat="30.9943332672119141" lon="-7.0226922035217285">
        <ele>1221.0</ele>
        <time>2018-10-12T08:27:19.000Z</time>
      </trkpt>
      <trkpt lat="30.9943046569824219" lon="-7.0226497650146484">
        <ele>1221.0</ele>
        <time>2018-10-12T08:27:20.000Z</time>
      </trkpt>
      <trkpt lat="30.9942722320556641" lon="-7.0226101875305176">
        <ele>1221.0</ele>
        <time>2018-10-12T08:27:21.000Z</time>
      </trkpt>
      <trkpt lat="30.9942398071289062" lon="-7.0225710868835449">
        <ele>1221.0</ele>
        <time>2018-10-12T08:27:22.000Z</time>
      </trkpt>
      <trkpt lat="30.9942054748535156" lon="-7.0225329399108887">
        <ele>1221.0</ele>
        <time>2018-10-12T08:27:23.000Z</time>
      </trkpt>
      <trkpt lat="30.9941692352294922" lon="-7.0224938392639160">
        <ele>1221.0</ele>
        <time>2018-10-12T08:27:24.000Z</time>
      </trkpt>
      <trkpt lat="30.9941368103027344" lon="-7.0224561691284180">
        <ele>1221.0</ele>
        <time>2018-10-12T08:27:25.000Z</time>
      </trkpt>
      <trkpt lat="30.9941024780273438" lon="-7.0224180221557617">
        <ele>1221.0</ele>
        <time>2018-10-12T08:27:26.000Z</time>
      </trkpt>
      <trkpt lat="30.9940662384033203" lon="-7.0223789215087891">
        <ele>1221.0</ele>
        <time>2018-10-12T08:27:27.000Z</time>
      </trkpt>
      <trkpt lat="30.9940280914306641" lon="-7.0223407745361328">
        <ele>1220.178955078125</ele>
        <time>2018-10-12T08:27:28.000Z</time>
      </trkpt>
      <trkpt lat="30.9939899444580078" lon="-7.0223021507263184">
        <ele>1220.0</ele>
        <time>2018-10-12T08:27:29.000Z</time>
      </trkpt>
      <trkpt lat="30.9939537048339844" lon="-7.0222611427307129">
        <ele>1220.0</ele>
        <time>2018-10-12T08:27:30.000Z</time>
      </trkpt>
      <trkpt lat="30.9939174652099609" lon="-7.0222191810607910">
        <ele>1220.0</ele>
        <time>2018-10-12T08:27:31.000Z</time>
      </trkpt>
      <trkpt lat="30.9938812255859375" lon="-7.0221738815307617">
        <ele>1220.0</ele>
        <time>2018-10-12T08:27:32.000Z</time>
      </trkpt>
      <trkpt lat="30.9938488006591797" lon="-7.0221261978149414">
        <ele>1220.0</ele>
        <time>2018-10-12T08:27:33.000Z</time>
      </trkpt>
      <trkpt lat="30.9938163757324219" lon="-7.0220761299133301">
        <ele>1220.0</ele>
        <time>2018-10-12T08:27:34.000Z</time>
      </trkpt>
      <trkpt lat="30.9937877655029297" lon="-7.0220251083374023">
        <ele>1220.0</ele>
        <time>2018-10-12T08:27:35.000Z</time>
      </trkpt>
      <trkpt lat="30.9937591552734375" lon="-7.0219712257385254">
        <ele>1220.0</ele>
        <time>2018-10-12T08:27:36.000Z</time>
      </trkpt>
      <trkpt lat="30.9937305450439453" lon="-7.0219130516052246">
        <ele>1220.0</ele>
        <time>2018-10-12T08:27:37.000Z</time>
      </trkpt>
      <trkpt lat="30.9937038421630859" lon="-7.0218548774719238">
        <ele>1220.0</ele>
        <time>2018-10-12T08:27:38.000Z</time>
      </trkpt>
      <trkpt lat="30.9936733245849609" lon="-7.0217981338500977">
        <ele>1220.0</ele>
        <time>2018-10-12T08:27:39.000Z</time>
      </trkpt>
      <trkpt lat="30.9936466217041016" lon="-7.0217428207397461">
        <ele>1220.0</ele>
        <time>2018-10-12T08:27:40.000Z</time>
      </trkpt>
      <trkpt lat="30.9936141967773438" lon="-7.0216908454895020">
        <ele>1219.178955078125</ele>
        <time>2018-10-12T08:27:41.000Z</time>
      </trkpt>
      <trkpt lat="30.9935817718505859" lon="-7.0216441154479980">
        <ele>1219.0</ele>
        <time>2018-10-12T08:27:42.000Z</time>
      </trkpt>
      <trkpt lat="30.9935474395751953" lon="-7.0215969085693359">
        <ele>1218.1807861328125</ele>
        <time>2018-10-12T08:27:43.000Z</time>
      </trkpt>
      <trkpt lat="30.9935131072998047" lon="-7.0215492248535156">
        <ele>1218.0</ele>
        <time>2018-10-12T08:27:44.000Z</time>
      </trkpt>
      <trkpt lat="30.9934844970703125" lon="-7.0215020179748535">
        <ele>1218.0</ele>
        <time>2018-10-12T08:27:45.000Z</time>
      </trkpt>
      <trkpt lat="30.9934597015380859" lon="-7.0214600563049316">
        <ele>1218.0</ele>
        <time>2018-10-12T08:27:46.000Z</time>
      </trkpt>
      <trkpt lat="30.9934368133544922" lon="-7.0214219093322754">
        <ele>1218.0</ele>
        <time>2018-10-12T08:27:47.000Z</time>
      </trkpt>
      <trkpt lat="30.9934139251708984" lon="-7.0213851928710938">
        <ele>1218.0</ele>
        <time>2018-10-12T08:27:48.000Z</time>
      </trkpt>
      <trkpt lat="30.9933891296386719" lon="-7.0213470458984375">
        <ele>1218.0</ele>
        <time>2018-10-12T08:27:49.000Z</time>
      </trkpt>
      <trkpt lat="30.9933662414550781" lon="-7.0213069915771484">
        <ele>1218.0</ele>
        <time>2018-10-12T08:27:50.000Z</time>
      </trkpt>
      <trkpt lat="30.9933395385742188" lon="-7.0212631225585938">
        <ele>1218.0</ele>
        <time>2018-10-12T08:27:51.000Z</time>
      </trkpt>
      <trkpt lat="30.9933090209960938" lon="-7.0212168693542480">
        <ele>1218.0</ele>
        <time>2018-10-12T08:27:52.000Z</time>
      </trkpt>
      <trkpt lat="30.9932765960693359" lon="-7.0211701393127441">
        <ele>1218.0</ele>
        <time>2018-10-12T08:27:53.000Z</time>
      </trkpt>
      <trkpt lat="30.9932422637939453" lon="-7.0211229324340820">
        <ele>1218.0</ele>
        <time>2018-10-12T08:27:54.000Z</time>
      </trkpt>
      <trkpt lat="30.9932060241699219" lon="-7.0210762023925781">
        <ele>1218.0</ele>
        <time>2018-10-12T08:27:55.000Z</time>
      </trkpt>
      <trkpt lat="30.9931697845458984" lon="-7.0210280418395996">
        <ele>1218.0</ele>
        <time>2018-10-12T08:27:56.000Z</time>
      </trkpt>
      <trkpt lat="30.9931354522705078" lon="-7.0209789276123047">
        <ele>1218.0</ele>
        <time>2018-10-12T08:27:57.000Z</time>
      </trkpt>
      <trkpt lat="30.9931011199951172" lon="-7.0209288597106934">
        <ele>1218.0</ele>
        <time>2018-10-12T08:27:58.000Z</time>
      </trkpt>
      <trkpt lat="30.9930648803710938" lon="-7.0208787918090820">
        <ele>1218.0</ele>
        <time>2018-10-12T08:27:59.000Z</time>
      </trkpt>
      <trkpt lat="30.9930305480957031" lon="-7.0208277702331543">
        <ele>1218.0</ele>
        <time>2018-10-12T08:28:00.000Z</time>
      </trkpt>
      <trkpt lat="30.9929943084716797" lon="-7.0207781791687012">
        <ele>1218.0</ele>
        <time>2018-10-12T08:28:01.000Z</time>
      </trkpt>
      <trkpt lat="30.9929580688476562" lon="-7.0207290649414062">
        <ele>1218.0</ele>
        <time>2018-10-12T08:28:02.000Z</time>
      </trkpt>
      <trkpt lat="30.9929218292236328" lon="-7.0206799507141113">
        <ele>1218.0</ele>
        <time>2018-10-12T08:28:03.000Z</time>
      </trkpt>
      <trkpt lat="30.9928855895996094" lon="-7.0206308364868164">
        <ele>1218.0</ele>
        <time>2018-10-12T08:28:04.000Z</time>
      </trkpt>
      <trkpt lat="30.9928493499755859" lon="-7.0205831527709961">
        <ele>1218.0</ele>
        <time>2018-10-12T08:28:05.000Z</time>
      </trkpt>
      <trkpt lat="30.9928169250488281" lon="-7.0205368995666504">
        <ele>1218.0</ele>
        <time>2018-10-12T08:28:06.000Z</time>
      </trkpt>
      <trkpt lat="30.9927845001220703" lon="-7.0204892158508301">
        <ele>1218.0</ele>
        <time>2018-10-12T08:28:07.000Z</time>
      </trkpt>
      <trkpt lat="30.9927501678466797" lon="-7.0204448699951172">
        <ele>1218.0</ele>
        <time>2018-10-12T08:28:08.000Z</time>
      </trkpt>
      <trkpt lat="30.9927101135253906" lon="-7.0204100608825684">
        <ele>1218.0</ele>
        <time>2018-10-12T08:28:09.000Z</time>
      </trkpt>
      <trkpt lat="30.9926662445068359" lon="-7.0203828811645508">
        <ele>1218.0</ele>
        <time>2018-10-12T08:28:10.000Z</time>
      </trkpt>
      <trkpt lat="30.9926204681396484" lon="-7.0203590393066406">
        <ele>1218.0</ele>
        <time>2018-10-12T08:28:11.000Z</time>
      </trkpt>
      <trkpt lat="30.9925746917724609" lon="-7.0203328132629395">
        <ele>1218.0</ele>
        <time>2018-10-12T08:28:12.000Z</time>
      </trkpt>
      <trkpt lat="30.9925308227539062" lon="-7.0203061103820801">
        <ele>1218.0</ele>
        <time>2018-10-12T08:28:13.000Z</time>
      </trkpt>
      <trkpt lat="30.9924850463867188" lon="-7.0202770233154297">
        <ele>1218.0</ele>
        <time>2018-10-12T08:28:14.000Z</time>
      </trkpt>
      <trkpt lat="30.9924392700195312" lon="-7.0202450752258301">
        <ele>1218.0</ele>
        <time>2018-10-12T08:28:15.000Z</time>
      </trkpt>
      <trkpt lat="30.9923934936523438" lon="-7.0202097892761230">
        <ele>1217.178955078125</ele>
        <time>2018-10-12T08:28:16.000Z</time>
      </trkpt>
      <trkpt lat="30.9923477172851562" lon="-7.0201730728149414">
        <ele>1217.0</ele>
        <time>2018-10-12T08:28:17.000Z</time>
      </trkpt>
      <trkpt lat="30.9923019409179688" lon="-7.0201330184936523">
        <ele>1217.0</ele>
        <time>2018-10-12T08:28:18.000Z</time>
      </trkpt>
      <trkpt lat="30.9922561645507812" lon="-7.0200920104980469">
        <ele>1217.0</ele>
        <time>2018-10-12T08:28:19.000Z</time>
      </trkpt>
      <trkpt lat="30.9922122955322266" lon="-7.0200500488281250">
        <ele>1217.0</ele>
        <time>2018-10-12T08:28:20.000Z</time>
      </trkpt>
      <trkpt lat="30.9921703338623047" lon="-7.0200071334838867">
        <ele>1217.0</ele>
        <time>2018-10-12T08:28:21.000Z</time>
      </trkpt>
      <trkpt lat="30.9921264648437500" lon="-7.0199608802795410">
        <ele>1217.0</ele>
        <time>2018-10-12T08:28:22.000Z</time>
      </trkpt>
      <trkpt lat="30.9920845031738281" lon="-7.0199141502380371">
        <ele>1217.0</ele>
        <time>2018-10-12T08:28:23.000Z</time>
      </trkpt>
      <trkpt lat="30.9920425415039062" lon="-7.0198669433593750">
        <ele>1217.0</ele>
        <time>2018-10-12T08:28:24.000Z</time>
      </trkpt>
      <trkpt lat="30.9920024871826172" lon="-7.0198178291320801">
        <ele>1217.0</ele>
        <time>2018-10-12T08:28:25.000Z</time>
      </trkpt>
      <trkpt lat="30.9919624328613281" lon="-7.0197682380676270">
        <ele>1217.0</ele>
        <time>2018-10-12T08:28:26.000Z</time>
      </trkpt>
      <trkpt lat="30.9919261932373047" lon="-7.0197172164916992">
        <ele>1217.0</ele>
        <time>2018-10-12T08:28:27.000Z</time>
      </trkpt>
      <trkpt lat="30.9918937683105469" lon="-7.0196647644042969">
        <ele>1217.0</ele>
        <time>2018-10-12T08:28:28.000Z</time>
      </trkpt>
      <trkpt lat="30.9918632507324219" lon="-7.0196108818054199">
        <ele>1217.0</ele>
        <time>2018-10-12T08:28:29.000Z</time>
      </trkpt>
      <trkpt lat="30.9918384552001953" lon="-7.0195541381835938">
        <ele>1217.0</ele>
        <time>2018-10-12T08:28:30.000Z</time>
      </trkpt>
      <trkpt lat="30.9918155670166016" lon="-7.0194950103759766">
        <ele>1217.0</ele>
        <time>2018-10-12T08:28:31.000Z</time>
      </trkpt>
      <trkpt lat="30.9917945861816406" lon="-7.0194358825683594">
        <ele>1216.2520751953125</ele>
        <time>2018-10-12T08:28:32.000Z</time>
      </trkpt>
      <trkpt lat="30.9917755126953125" lon="-7.0193791389465332">
        <ele>1216.0</ele>
        <time>2018-10-12T08:28:33.000Z</time>
      </trkpt>
      <trkpt lat="30.9917583465576172" lon="-7.0193219184875488">
        <ele>1215.178955078125</ele>
        <time>2018-10-12T08:28:34.000Z</time>
      </trkpt>
      <trkpt lat="30.9917430877685547" lon="-7.0192651748657227">
        <ele>1215.0</ele>
        <time>2018-10-12T08:28:35.000Z</time>
      </trkpt>
      <trkpt lat="30.9917316436767578" lon="-7.0192108154296875">
        <ele>1215.0</ele>
        <time>2018-10-12T08:28:36.000Z</time>
      </trkpt>
      <trkpt lat="30.9917182922363281" lon="-7.0191588401794434">
        <ele>1215.0</ele>
        <time>2018-10-12T08:28:37.000Z</time>
      </trkpt>
      <trkpt lat="30.9917030334472656" lon="-7.0191068649291992">
        <ele>1215.0</ele>
        <time>2018-10-12T08:28:38.000Z</time>
      </trkpt>
      <trkpt lat="30.9916820526123047" lon="-7.0190529823303223">
        <ele>1215.0</ele>
        <time>2018-10-12T08:28:39.000Z</time>
      </trkpt>
      <trkpt lat="30.9916610717773438" lon="-7.0189957618713379">
        <ele>1214.178955078125</ele>
        <time>2018-10-12T08:28:40.000Z</time>
      </trkpt>
      <trkpt lat="30.9916381835937500" lon="-7.0189380645751953">
        <ele>1214.0</ele>
        <time>2018-10-12T08:28:41.000Z</time>
      </trkpt>
      <trkpt lat="30.9916172027587891" lon="-7.0188789367675781">
        <ele>1213.178955078125</ele>
        <time>2018-10-12T08:28:42.000Z</time>
      </trkpt>
      <trkpt lat="30.9915924072265625" lon="-7.0188198089599609">
        <ele>1213.0</ele>
        <time>2018-10-12T08:28:43.000Z</time>
      </trkpt>
      <trkpt lat="30.9915714263916016" lon="-7.0187649726867676">
        <ele>1213.0</ele>
        <time>2018-10-12T08:28:44.000Z</time>
      </trkpt>
      <trkpt lat="30.9915542602539062" lon="-7.0187191963195801">
        <ele>1213.0</ele>
        <time>2018-10-12T08:28:45.000Z</time>
      </trkpt>
      <trkpt lat="30.9915428161621094" lon="-7.0186810493469238">
        <ele>1213.0</ele>
        <time>2018-10-12T08:28:46.000Z</time>
      </trkpt>
      <trkpt lat="30.9915332794189453" lon="-7.0186448097229004">
        <ele>1213.0</ele>
        <time>2018-10-12T08:28:47.000Z</time>
      </trkpt>
      <trkpt lat="30.9915237426757812" lon="-7.0186071395874023">
        <ele>1213.0</ele>
        <time>2018-10-12T08:28:48.000Z</time>
      </trkpt>
      <trkpt lat="30.9915142059326172" lon="-7.0185689926147461">
        <ele>1213.821044921875</ele>
        <time>2018-10-12T08:28:49.000Z</time>
      </trkpt>
      <trkpt lat="30.9915065765380859" lon="-7.0185298919677734">
        <ele>1214.0</ele>
        <time>2018-10-12T08:28:50.000Z</time>
      </trkpt>
      <trkpt lat="30.9914989471435547" lon="-7.0184907913208008">
        <ele>1214.0</ele>
        <time>2018-10-12T08:28:51.000Z</time>
      </trkpt>
      <trkpt lat="30.9914894104003906" lon="-7.0184531211853027">
        <ele>1214.0</ele>
        <time>2018-10-12T08:28:52.000Z</time>
      </trkpt>
      <trkpt lat="30.9914817810058594" lon="-7.0184121131896973">
        <ele>1214.0</ele>
        <time>2018-10-12T08:28:53.000Z</time>
      </trkpt>
      <trkpt lat="30.9914722442626953" lon="-7.0183701515197754">
        <ele>1214.0</ele>
        <time>2018-10-12T08:28:54.000Z</time>
      </trkpt>
      <trkpt lat="30.9914646148681641" lon="-7.0183281898498535">
        <ele>1214.0</ele>
        <time>2018-10-12T08:28:55.000Z</time>
      </trkpt>
      <trkpt lat="30.9914550781250000" lon="-7.0182862281799316">
        <ele>1214.0</ele>
        <time>2018-10-12T08:28:56.000Z</time>
      </trkpt>
      <trkpt lat="30.9914474487304688" lon="-7.0182428359985352">
        <ele>1214.0</ele>
        <time>2018-10-12T08:28:57.000Z</time>
      </trkpt>
      <trkpt lat="30.9914379119873047" lon="-7.0181989669799805">
        <ele>1214.0</ele>
        <time>2018-10-12T08:28:58.000Z</time>
      </trkpt>
      <trkpt lat="30.9914264678955078" lon="-7.0181522369384766">
        <ele>1214.0</ele>
        <time>2018-10-12T08:28:59.000Z</time>
      </trkpt>
      <trkpt lat="30.9914131164550781" lon="-7.0181040763854980">
        <ele>1214.7406005859375</ele>
        <time>2018-10-12T08:29:00.000Z</time>
      </trkpt>
      <trkpt lat="30.9914016723632812" lon="-7.0180559158325195">
        <ele>1215.0</ele>
        <time>2018-10-12T08:29:01.000Z</time>
      </trkpt>
      <trkpt lat="30.9913902282714844" lon="-7.0180058479309082">
        <ele>1215.0</ele>
        <time>2018-10-12T08:29:02.000Z</time>
      </trkpt>
      <trkpt lat="30.9913787841796875" lon="-7.0179557800292969">
        <ele>1215.0</ele>
        <time>2018-10-12T08:29:03.000Z</time>
      </trkpt>
      <trkpt lat="30.9913654327392578" lon="-7.0179071426391602">
        <ele>1215.0</ele>
        <time>2018-10-12T08:29:04.000Z</time>
      </trkpt>
      <trkpt lat="30.9913558959960938" lon="-7.0178570747375488">
        <ele>1215.0</ele>
        <time>2018-10-12T08:29:05.000Z</time>
      </trkpt>
      <trkpt lat="30.9913463592529297" lon="-7.0178041458129883">
        <ele>1215.0</ele>
        <time>2018-10-12T08:29:06.000Z</time>
      </trkpt>
      <trkpt lat="30.9913387298583984" lon="-7.0177512168884277">
        <ele>1215.0</ele>
        <time>2018-10-12T08:29:07.000Z</time>
      </trkpt>
      <trkpt lat="30.9913291931152344" lon="-7.0176949501037598">
        <ele>1215.0</ele>
        <time>2018-10-12T08:29:08.000Z</time>
      </trkpt>
      <trkpt lat="30.9913234710693359" lon="-7.0176401138305664">
        <ele>1215.636474609375</ele>
        <time>2018-10-12T08:29:09.000Z</time>
      </trkpt>
      <trkpt lat="30.9913158416748047" lon="-7.0175848007202148">
        <ele>1216.0</ele>
        <time>2018-10-12T08:29:10.000Z</time>
      </trkpt>
      <trkpt lat="30.9913024902343750" lon="-7.0175328254699707">
        <ele>1216.0</ele>
        <time>2018-10-12T08:29:11.000Z</time>
      </trkpt>
      <trkpt lat="30.9912853240966797" lon="-7.0174851417541504">
        <ele>1216.821044921875</ele>
        <time>2018-10-12T08:29:12.000Z</time>
      </trkpt>
      <trkpt lat="30.9912681579589844" lon="-7.0174398422241211">
        <ele>1217.0</ele>
        <time>2018-10-12T08:29:13.000Z</time>
      </trkpt>
      <trkpt lat="30.9912490844726562" lon="-7.0173997879028320">
        <ele>1217.0</ele>
        <time>2018-10-12T08:29:14.000Z</time>
      </trkpt>
      <trkpt lat="30.9912281036376953" lon="-7.0173659324645996">
        <ele>1217.0</ele>
        <time>2018-10-12T08:29:15.000Z</time>
      </trkpt>
      <trkpt lat="30.9912033081054688" lon="-7.0173349380493164">
        <ele>1217.0</ele>
        <time>2018-10-12T08:29:16.000Z</time>
      </trkpt>
      <trkpt lat="30.9911727905273438" lon="-7.0173029899597168">
        <ele>1216.1845703125</ele>
        <time>2018-10-12T08:29:17.000Z</time>
      </trkpt>
      <trkpt lat="30.9911346435546875" lon="-7.0172710418701172">
        <ele>1216.0</ele>
        <time>2018-10-12T08:29:18.000Z</time>
      </trkpt>
      <trkpt lat="30.9910945892333984" lon="-7.0172390937805176">
        <ele>1216.0</ele>
        <time>2018-10-12T08:29:19.000Z</time>
      </trkpt>
      <trkpt lat="30.9910526275634766" lon="-7.0172109603881836">
        <ele>1216.0</ele>
        <time>2018-10-12T08:29:20.000Z</time>
      </trkpt>
      <trkpt lat="30.9910087585449219" lon="-7.0171899795532227">
        <ele>1216.0</ele>
        <time>2018-10-12T08:29:21.000Z</time>
      </trkpt>
      <trkpt lat="30.9909629821777344" lon="-7.0171751976013184">
        <ele>1216.0</ele>
        <time>2018-10-12T08:29:22.000Z</time>
      </trkpt>
      <trkpt lat="30.9909172058105469" lon="-7.0171642303466797">
        <ele>1216.0</ele>
        <time>2018-10-12T08:29:23.000Z</time>
      </trkpt>
      <trkpt lat="30.9908752441406250" lon="-7.0171561241149902">
        <ele>1216.0</ele>
        <time>2018-10-12T08:29:24.000Z</time>
      </trkpt>
      <trkpt lat="30.9908466339111328" lon="-7.0171461105346680">
        <ele>1216.0</ele>
        <time>2018-10-12T08:29:25.000Z</time>
      </trkpt>
      <trkpt lat="30.9908199310302734" lon="-7.0171351432800293">
        <ele>1216.0</ele>
        <time>2018-10-12T08:29:26.000Z</time>
      </trkpt>
      <trkpt lat="30.9907913208007812" lon="-7.0171189308166504">
        <ele>1216.0</ele>
        <time>2018-10-12T08:29:27.000Z</time>
      </trkpt>
      <trkpt lat="30.9907703399658203" lon="-7.0170989036560059">
        <ele>1216.0</ele>
        <time>2018-10-12T08:29:28.000Z</time>
      </trkpt>
      <trkpt lat="30.9907455444335938" lon="-7.0170698165893555">
        <ele>1216.0</ele>
        <time>2018-10-12T08:29:29.000Z</time>
      </trkpt>
      <trkpt lat="30.9907207489013672" lon="-7.0170278549194336">
        <ele>1216.0</ele>
        <time>2018-10-12T08:29:30.000Z</time>
      </trkpt>
      <trkpt lat="30.9906978607177734" lon="-7.0169820785522461">
        <ele>1215.178955078125</ele>
        <time>2018-10-12T08:29:31.000Z</time>
      </trkpt>
      <trkpt lat="30.9906768798828125" lon="-7.0169339179992676">
        <ele>1215.0</ele>
        <time>2018-10-12T08:29:32.000Z</time>
      </trkpt>
      <trkpt lat="30.9906520843505859" lon="-7.0168881416320801">
        <ele>1215.0</ele>
        <time>2018-10-12T08:29:33.000Z</time>
      </trkpt>
      <trkpt lat="30.9906234741210938" lon="-7.0168437957763672">
        <ele>1215.0</ele>
        <time>2018-10-12T08:29:34.000Z</time>
      </trkpt>
      <trkpt lat="30.9905948638916016" lon="-7.0167970657348633">
        <ele>1215.0</ele>
        <time>2018-10-12T08:29:35.000Z</time>
      </trkpt>
      <trkpt lat="30.9905681610107422" lon="-7.0167450904846191">
        <ele>1215.0</ele>
        <time>2018-10-12T08:29:36.000Z</time>
      </trkpt>
      <trkpt lat="30.9905452728271484" lon="-7.0166888236999512">
        <ele>1215.0</ele>
        <time>2018-10-12T08:29:37.000Z</time>
      </trkpt>
      <trkpt lat="30.9905281066894531" lon="-7.0166301727294922">
        <ele>1215.0</ele>
        <time>2018-10-12T08:29:38.000Z</time>
      </trkpt>
      <trkpt lat="30.9905109405517578" lon="-7.0165719985961914">
        <ele>1215.0</ele>
        <time>2018-10-12T08:29:39.000Z</time>
      </trkpt>
      <trkpt lat="30.9904937744140625" lon="-7.0165147781372070">
        <ele>1215.0</ele>
        <time>2018-10-12T08:29:40.000Z</time>
      </trkpt>
      <trkpt lat="30.9904766082763672" lon="-7.0164608955383301">
        <ele>1215.0</ele>
        <time>2018-10-12T08:29:41.000Z</time>
      </trkpt>
      <trkpt lat="30.9904594421386719" lon="-7.0164098739624023">
        <ele>1215.0</ele>
        <time>2018-10-12T08:29:42.000Z</time>
      </trkpt>
      <trkpt lat="30.9904441833496094" lon="-7.0163612365722656">
        <ele>1215.0</ele>
        <time>2018-10-12T08:29:43.000Z</time>
      </trkpt>
      <trkpt lat="30.9904308319091797" lon="-7.0163111686706543">
        <ele>1215.0</ele>
        <time>2018-10-12T08:29:44.000Z</time>
      </trkpt>
      <trkpt lat="30.9904174804687500" lon="-7.0162601470947266">
        <ele>1215.0</ele>
        <time>2018-10-12T08:29:45.000Z</time>
      </trkpt>
      <trkpt lat="30.9904022216796875" lon="-7.0162091255187988">
        <ele>1215.0</ele>
        <time>2018-10-12T08:29:46.000Z</time>
      </trkpt>
      <trkpt lat="30.9903888702392578" lon="-7.0161571502685547">
        <ele>1215.0</ele>
        <time>2018-10-12T08:29:47.000Z</time>
      </trkpt>
      <trkpt lat="30.9903755187988281" lon="-7.0161061286926270">
        <ele>1215.0</ele>
        <time>2018-10-12T08:29:48.000Z</time>
      </trkpt>
      <trkpt lat="30.9903621673583984" lon="-7.0160570144653320">
        <ele>1215.0</ele>
        <time>2018-10-12T08:29:49.000Z</time>
      </trkpt>
      <trkpt lat="30.9903488159179688" lon="-7.0160088539123535">
        <ele>1215.0</ele>
        <time>2018-10-12T08:29:50.000Z</time>
      </trkpt>
      <trkpt lat="30.9903354644775391" lon="-7.0159611701965332">
        <ele>1215.0</ele>
        <time>2018-10-12T08:29:51.000Z</time>
      </trkpt>
      <trkpt lat="30.9903221130371094" lon="-7.0159130096435547">
        <ele>1215.0</ele>
        <time>2018-10-12T08:29:52.000Z</time>
      </trkpt>
      <trkpt lat="30.9903087615966797" lon="-7.0158629417419434">
        <ele>1215.0</ele>
        <time>2018-10-12T08:29:53.000Z</time>
      </trkpt>
      <trkpt lat="30.9902915954589844" lon="-7.0158128738403320">
        <ele>1215.0</ele>
        <time>2018-10-12T08:29:54.000Z</time>
      </trkpt>
      <trkpt lat="30.9902706146240234" lon="-7.0157618522644043">
        <ele>1214.373291015625</ele>
        <time>2018-10-12T08:29:55.000Z</time>
      </trkpt>
      <trkpt lat="30.9902458190917969" lon="-7.0157141685485840">
        <ele>1214.0</ele>
        <time>2018-10-12T08:29:56.000Z</time>
      </trkpt>
      <trkpt lat="30.9902153015136719" lon="-7.0156669616699219">
        <ele>1214.0</ele>
        <time>2018-10-12T08:29:57.000Z</time>
      </trkpt>
      <trkpt lat="30.9901828765869141" lon="-7.0156202316284180">
        <ele>1214.0</ele>
        <time>2018-10-12T08:29:58.000Z</time>
      </trkpt>
      <trkpt lat="30.9901466369628906" lon="-7.0155749320983887">
        <ele>1214.0</ele>
        <time>2018-10-12T08:29:59.000Z</time>
      </trkpt>
      <trkpt lat="30.9901103973388672" lon="-7.0155310630798340">
        <ele>1214.0</ele>
        <time>2018-10-12T08:30:00.000Z</time>
      </trkpt>
      <trkpt lat="30.9900722503662109" lon="-7.0154900550842285">
        <ele>1214.0</ele>
        <time>2018-10-12T08:30:01.000Z</time>
      </trkpt>
      <trkpt lat="30.9900360107421875" lon="-7.0154500007629395">
        <ele>1214.0</ele>
        <time>2018-10-12T08:30:02.000Z</time>
      </trkpt>
      <trkpt lat="30.9899997711181641" lon="-7.0154099464416504">
        <ele>1214.0</ele>
        <time>2018-10-12T08:30:03.000Z</time>
      </trkpt>
      <trkpt lat="30.9899635314941406" lon="-7.0153708457946777">
        <ele>1214.0</ele>
        <time>2018-10-12T08:30:04.000Z</time>
      </trkpt>
      <trkpt lat="30.9899253845214844" lon="-7.0153331756591797">
        <ele>1214.0</ele>
        <time>2018-10-12T08:30:05.000Z</time>
      </trkpt>
      <trkpt lat="30.9898853302001953" lon="-7.0152931213378906">
        <ele>1214.0</ele>
        <time>2018-10-12T08:30:06.000Z</time>
      </trkpt>
      <trkpt lat="30.9898452758789062" lon="-7.0152511596679688">
        <ele>1213.2520751953125</ele>
        <time>2018-10-12T08:30:07.000Z</time>
      </trkpt>
      <trkpt lat="30.9898052215576172" lon="-7.0152120590209961">
        <ele>1213.0</ele>
        <time>2018-10-12T08:30:08.000Z</time>
      </trkpt>
      <trkpt lat="30.9897651672363281" lon="-7.0151782035827637">
        <ele>1213.0</ele>
        <time>2018-10-12T08:30:09.000Z</time>
      </trkpt>
      <trkpt lat="30.9897232055664062" lon="-7.0151500701904297">
        <ele>1213.0</ele>
        <time>2018-10-12T08:30:10.000Z</time>
      </trkpt>
      <trkpt lat="30.9896812438964844" lon="-7.0151281356811523">
        <ele>1213.0</ele>
        <time>2018-10-12T08:30:11.000Z</time>
      </trkpt>
      <trkpt lat="30.9896316528320312" lon="-7.0151109695434570">
        <ele>1212.178955078125</ele>
        <time>2018-10-12T08:30:12.000Z</time>
      </trkpt>
      <trkpt lat="30.9895763397216797" lon="-7.0150952339172363">
        <ele>1212.0</ele>
        <time>2018-10-12T08:30:13.000Z</time>
      </trkpt>
      <trkpt lat="30.9895210266113281" lon="-7.0150780677795410">
        <ele>1211.178955078125</ele>
        <time>2018-10-12T08:30:14.000Z</time>
      </trkpt>
      <trkpt lat="30.9894695281982422" lon="-7.0150618553161621">
        <ele>1211.0</ele>
        <time>2018-10-12T08:30:15.000Z</time>
      </trkpt>
      <trkpt lat="30.9894218444824219" lon="-7.0150451660156250">
        <ele>1211.0</ele>
        <time>2018-10-12T08:30:16.000Z</time>
      </trkpt>
      <trkpt lat="30.9893760681152344" lon="-7.0150289535522461">
        <ele>1211.0</ele>
        <time>2018-10-12T08:30:17.000Z</time>
      </trkpt>
      <trkpt lat="30.9893321990966797" lon="-7.0150132179260254">
        <ele>1211.0</ele>
        <time>2018-10-12T08:30:18.000Z</time>
      </trkpt>
      <trkpt lat="30.9892940521240234" lon="-7.0149960517883301">
        <ele>1211.0</ele>
        <time>2018-10-12T08:30:19.000Z</time>
      </trkpt>
      <trkpt lat="30.9892616271972656" lon="-7.0149807929992676">
        <ele>1211.0</ele>
        <time>2018-10-12T08:30:20.000Z</time>
      </trkpt>
      <trkpt lat="30.9892311096191406" lon="-7.0149707794189453">
        <ele>1211.0</ele>
        <time>2018-10-12T08:30:21.000Z</time>
      </trkpt>
      <trkpt lat="30.9892044067382812" lon="-7.0149607658386230">
        <ele>1211.821044921875</ele>
        <time>2018-10-12T08:30:22.000Z</time>
      </trkpt>
      <trkpt lat="30.9891757965087891" lon="-7.0149478912353516">
        <ele>1212.821044921875</ele>
        <time>2018-10-12T08:30:23.000Z</time>
      </trkpt>
      <trkpt lat="30.9891490936279297" lon="-7.0149350166320801">
        <ele>1213.0</ele>
        <time>2018-10-12T08:30:24.000Z</time>
      </trkpt>
      <trkpt lat="30.9891223907470703" lon="-7.0149250030517578">
        <ele>1213.0</ele>
        <time>2018-10-12T08:30:25.000Z</time>
      </trkpt>
      <trkpt lat="30.9890937805175781" lon="-7.0149130821228027">
        <ele>1213.0</ele>
        <time>2018-10-12T08:30:26.000Z</time>
      </trkpt>
      <trkpt lat="30.9890632629394531" lon="-7.0149002075195312">
        <ele>1213.0</ele>
        <time>2018-10-12T08:30:27.000Z</time>
      </trkpt>
      <trkpt lat="30.9890308380126953" lon="-7.0148839950561523">
        <ele>1213.821044921875</ele>
        <time>2018-10-12T08:30:28.000Z</time>
      </trkpt>
      <trkpt lat="30.9889984130859375" lon="-7.0148649215698242">
        <ele>1214.0</ele>
        <time>2018-10-12T08:30:29.000Z</time>
      </trkpt>
      <trkpt lat="30.9889621734619141" lon="-7.0148491859436035">
        <ele>1214.0</ele>
        <time>2018-10-12T08:30:30.000Z</time>
      </trkpt>
      <trkpt lat="30.9889278411865234" lon="-7.0148348808288574">
        <ele>1214.0</ele>
        <time>2018-10-12T08:30:31.000Z</time>
      </trkpt>
      <trkpt lat="30.9888916015625000" lon="-7.0148200988769531">
        <ele>1213.178955078125</ele>
        <time>2018-10-12T08:30:32.000Z</time>
      </trkpt>
      <trkpt lat="30.9888553619384766" lon="-7.0148072242736816">
        <ele>1213.0</ele>
        <time>2018-10-12T08:30:33.000Z</time>
      </trkpt>
      <trkpt lat="30.9888191223144531" lon="-7.0147938728332520">
        <ele>1213.0</ele>
        <time>2018-10-12T08:30:34.000Z</time>
      </trkpt>
      <trkpt lat="30.9887847900390625" lon="-7.0147790908813477">
        <ele>1213.0</ele>
        <time>2018-10-12T08:30:35.000Z</time>
      </trkpt>
      <trkpt lat="30.9887466430664062" lon="-7.0147638320922852">
        <ele>1213.0</ele>
        <time>2018-10-12T08:30:36.000Z</time>
      </trkpt>
      <trkpt lat="30.9887065887451172" lon="-7.0147480964660645">
        <ele>1213.0</ele>
        <time>2018-10-12T08:30:37.000Z</time>
      </trkpt>
      <trkpt lat="30.9886646270751953" lon="-7.0147318840026855">
        <ele>1213.0</ele>
        <time>2018-10-12T08:30:38.000Z</time>
      </trkpt>
      <trkpt lat="30.9886207580566406" lon="-7.0147180557250977">
        <ele>1213.0</ele>
        <time>2018-10-12T08:30:39.000Z</time>
      </trkpt>
      <trkpt lat="30.9885787963867188" lon="-7.0147042274475098">
        <ele>1213.0</ele>
        <time>2018-10-12T08:30:40.000Z</time>
      </trkpt>
      <trkpt lat="30.9885349273681641" lon="-7.0146899223327637">
        <ele>1213.0</ele>
        <time>2018-10-12T08:30:41.000Z</time>
      </trkpt>
      <trkpt lat="30.9884910583496094" lon="-7.0146780014038086">
        <ele>1213.0</ele>
        <time>2018-10-12T08:30:42.000Z</time>
      </trkpt>
      <trkpt lat="30.9884471893310547" lon="-7.0146670341491699">
        <ele>1213.0</ele>
        <time>2018-10-12T08:30:43.000Z</time>
      </trkpt>
      <trkpt lat="30.9884052276611328" lon="-7.0146541595458984">
        <ele>1213.0</ele>
        <time>2018-10-12T08:30:44.000Z</time>
      </trkpt>
      <trkpt lat="30.9883613586425781" lon="-7.0146398544311523">
        <ele>1213.0</ele>
        <time>2018-10-12T08:30:45.000Z</time>
      </trkpt>
      <trkpt lat="30.9883193969726562" lon="-7.0146260261535645">
        <ele>1213.0</ele>
        <time>2018-10-12T08:30:46.000Z</time>
      </trkpt>
      <trkpt lat="30.9882774353027344" lon="-7.0146121978759766">
        <ele>1213.0</ele>
        <time>2018-10-12T08:30:47.000Z</time>
      </trkpt>
      <trkpt lat="30.9882335662841797" lon="-7.0145959854125977">
        <ele>1213.0</ele>
        <time>2018-10-12T08:30:48.000Z</time>
      </trkpt>
      <trkpt lat="30.9881916046142578" lon="-7.0145778656005859">
        <ele>1213.0</ele>
        <time>2018-10-12T08:30:49.000Z</time>
      </trkpt>
      <trkpt lat="30.9881496429443359" lon="-7.0145587921142578">
        <ele>1213.0</ele>
        <time>2018-10-12T08:30:50.000Z</time>
      </trkpt>
      <trkpt lat="30.9881076812744141" lon="-7.0145430564880371">
        <ele>1213.0</ele>
        <time>2018-10-12T08:30:51.000Z</time>
      </trkpt>
      <trkpt lat="30.9880676269531250" lon="-7.0145268440246582">
        <ele>1213.0</ele>
        <time>2018-10-12T08:30:52.000Z</time>
      </trkpt>
      <trkpt lat="30.9880294799804688" lon="-7.0145111083984375">
        <ele>1213.0</ele>
        <time>2018-10-12T08:30:53.000Z</time>
      </trkpt>
      <trkpt lat="30.9879913330078125" lon="-7.0144948959350586">
        <ele>1213.0</ele>
        <time>2018-10-12T08:30:54.000Z</time>
      </trkpt>
      <trkpt lat="30.9879589080810547" lon="-7.0144810676574707">
        <ele>1213.0</ele>
        <time>2018-10-12T08:30:55.000Z</time>
      </trkpt>
      <trkpt lat="30.9879245758056641" lon="-7.0144681930541992">
        <ele>1213.0</ele>
        <time>2018-10-12T08:30:56.000Z</time>
      </trkpt>
      <trkpt lat="30.9878940582275391" lon="-7.0144548416137695">
        <ele>1213.0</ele>
        <time>2018-10-12T08:30:57.000Z</time>
      </trkpt>
      <trkpt lat="30.9878616333007812" lon="-7.0144429206848145">
        <ele>1213.0</ele>
        <time>2018-10-12T08:30:58.000Z</time>
      </trkpt>
      <trkpt lat="30.9878273010253906" lon="-7.0144319534301758">
        <ele>1213.0</ele>
        <time>2018-10-12T08:30:59.000Z</time>
      </trkpt>
      <trkpt lat="30.9877910614013672" lon="-7.0144190788269043">
        <ele>1213.0</ele>
        <time>2018-10-12T08:31:00.000Z</time>
      </trkpt>
      <trkpt lat="30.9877548217773438" lon="-7.0144047737121582">
        <ele>1213.0</ele>
        <time>2018-10-12T08:31:01.000Z</time>
      </trkpt>
      <trkpt lat="30.9877185821533203" lon="-7.0143899917602539">
        <ele>1213.0</ele>
        <time>2018-10-12T08:31:02.000Z</time>
      </trkpt>
      <trkpt lat="30.9876804351806641" lon="-7.0143718719482422">
        <ele>1213.636474609375</ele>
        <time>2018-10-12T08:31:03.000Z</time>
      </trkpt>
      <trkpt lat="30.9876441955566406" lon="-7.0143561363220215">
        <ele>1214.0</ele>
        <time>2018-10-12T08:31:04.000Z</time>
      </trkpt>
      <trkpt lat="30.9876060485839844" lon="-7.0143380165100098">
        <ele>1214.0</ele>
        <time>2018-10-12T08:31:05.000Z</time>
      </trkpt>
      <trkpt lat="30.9875698089599609" lon="-7.0143198966979980">
        <ele>1213.363525390625</ele>
        <time>2018-10-12T08:31:06.000Z</time>
      </trkpt>
      <trkpt lat="30.9875316619873047" lon="-7.0143008232116699">
        <ele>1213.0</ele>
        <time>2018-10-12T08:31:07.000Z</time>
      </trkpt>
      <trkpt lat="30.9874916076660156" lon="-7.0142841339111328">
        <ele>1213.0</ele>
        <time>2018-10-12T08:31:08.000Z</time>
      </trkpt>
      <trkpt lat="30.9874515533447266" lon="-7.0142650604248047">
        <ele>1213.0</ele>
        <time>2018-10-12T08:31:09.000Z</time>
      </trkpt>
      <trkpt lat="30.9874134063720703" lon="-7.0142450332641602">
        <ele>1213.0</ele>
        <time>2018-10-12T08:31:10.000Z</time>
      </trkpt>
      <trkpt lat="30.9873733520507812" lon="-7.0142240524291992">
        <ele>1213.0</ele>
        <time>2018-10-12T08:31:11.000Z</time>
      </trkpt>
      <trkpt lat="30.9873332977294922" lon="-7.0142040252685547">
        <ele>1213.0</ele>
        <time>2018-10-12T08:31:12.000Z</time>
      </trkpt>
      <trkpt lat="30.9872932434082031" lon="-7.0141820907592773">
        <ele>1213.0</ele>
        <time>2018-10-12T08:31:13.000Z</time>
      </trkpt>
      <trkpt lat="30.9872531890869141" lon="-7.0141611099243164">
        <ele>1213.0</ele>
        <time>2018-10-12T08:31:14.000Z</time>
      </trkpt>
      <trkpt lat="30.9872131347656250" lon="-7.0141429901123047">
        <ele>1212.178955078125</ele>
        <time>2018-10-12T08:31:15.000Z</time>
      </trkpt>
      <trkpt lat="30.9871730804443359" lon="-7.0141229629516602">
        <ele>1212.0</ele>
        <time>2018-10-12T08:31:16.000Z</time>
      </trkpt>
      <trkpt lat="30.9871349334716797" lon="-7.0141029357910156">
        <ele>1212.0</ele>
        <time>2018-10-12T08:31:17.000Z</time>
      </trkpt>
      <trkpt lat="30.9870948791503906" lon="-7.0140838623046875">
        <ele>1212.0</ele>
        <time>2018-10-12T08:31:18.000Z</time>
      </trkpt>
      <trkpt lat="30.9870567321777344" lon="-7.0140638351440430">
        <ele>1212.0</ele>
        <time>2018-10-12T08:31:19.000Z</time>
      </trkpt>
      <trkpt lat="30.9870185852050781" lon="-7.0140409469604492">
        <ele>1212.0</ele>
        <time>2018-10-12T08:31:20.000Z</time>
      </trkpt>
      <trkpt lat="30.9869766235351562" lon="-7.0140180587768555">
        <ele>1211.178955078125</ele>
        <time>2018-10-12T08:31:21.000Z</time>
      </trkpt>
      <trkpt lat="30.9869346618652344" lon="-7.0139942169189453">
        <ele>1211.0</ele>
        <time>2018-10-12T08:31:22.000Z</time>
      </trkpt>
      <trkpt lat="30.9868946075439453" lon="-7.0139679908752441">
        <ele>1211.0</ele>
        <time>2018-10-12T08:31:23.000Z</time>
      </trkpt>
      <trkpt lat="30.9868526458740234" lon="-7.0139408111572266">
        <ele>1211.0</ele>
        <time>2018-10-12T08:31:24.000Z</time>
      </trkpt>
      <trkpt lat="30.9868106842041016" lon="-7.0139122009277344">
        <ele>1211.0</ele>
        <time>2018-10-12T08:31:25.000Z</time>
      </trkpt>
      <trkpt lat="30.9867687225341797" lon="-7.0138821601867676">
        <ele>1211.0</ele>
        <time>2018-10-12T08:31:26.000Z</time>
      </trkpt>
      <trkpt lat="30.9867267608642578" lon="-7.0138511657714844">
        <ele>1211.0</ele>
        <time>2018-10-12T08:31:27.000Z</time>
      </trkpt>
      <trkpt lat="30.9866867065429688" lon="-7.0138201713562012">
        <ele>1211.0</ele>
        <time>2018-10-12T08:31:28.000Z</time>
      </trkpt>
      <trkpt lat="30.9866447448730469" lon="-7.0137882232666016">
        <ele>1211.0</ele>
        <time>2018-10-12T08:31:29.000Z</time>
      </trkpt>
      <trkpt lat="30.9866008758544922" lon="-7.0137572288513184">
        <ele>1211.0</ele>
        <time>2018-10-12T08:31:30.000Z</time>
      </trkpt>
      <trkpt lat="30.9865570068359375" lon="-7.0137228965759277">
        <ele>1211.0</ele>
        <time>2018-10-12T08:31:31.000Z</time>
      </trkpt>
      <trkpt lat="30.9865131378173828" lon="-7.0136899948120117">
        <ele>1211.0</ele>
        <time>2018-10-12T08:31:32.000Z</time>
      </trkpt>
      <trkpt lat="30.9864673614501953" lon="-7.0136551856994629">
        <ele>1211.0</ele>
        <time>2018-10-12T08:31:33.000Z</time>
      </trkpt>
      <trkpt lat="30.9864215850830078" lon="-7.0136189460754395">
        <ele>1211.0</ele>
        <time>2018-10-12T08:31:34.000Z</time>
      </trkpt>
      <trkpt lat="30.9863777160644531" lon="-7.0135831832885742">
        <ele>1211.0</ele>
        <time>2018-10-12T08:31:35.000Z</time>
      </trkpt>
      <trkpt lat="30.9863357543945312" lon="-7.0135469436645508">
        <ele>1211.0</ele>
        <time>2018-10-12T08:31:36.000Z</time>
      </trkpt>
      <trkpt lat="30.9862918853759766" lon="-7.0135111808776855">
        <ele>1211.0</ele>
        <time>2018-10-12T08:31:37.000Z</time>
      </trkpt>
      <trkpt lat="30.9862499237060547" lon="-7.0134758949279785">
        <ele>1211.0</ele>
        <time>2018-10-12T08:31:38.000Z</time>
      </trkpt>
      <trkpt lat="30.9862060546875000" lon="-7.0134410858154297">
        <ele>1210.178955078125</ele>
        <time>2018-10-12T08:31:39.000Z</time>
      </trkpt>
      <trkpt lat="30.9861640930175781" lon="-7.0134057998657227">
        <ele>1210.0</ele>
        <time>2018-10-12T08:31:40.000Z</time>
      </trkpt>
      <trkpt lat="30.9861202239990234" lon="-7.0133709907531738">
        <ele>1210.0</ele>
        <time>2018-10-12T08:31:41.000Z</time>
      </trkpt>
      <trkpt lat="30.9860782623291016" lon="-7.0133337974548340">
        <ele>1210.0</ele>
        <time>2018-10-12T08:31:42.000Z</time>
      </trkpt>
      <trkpt lat="30.9860343933105469" lon="-7.0132961273193359">
        <ele>1210.0</ele>
        <time>2018-10-12T08:31:43.000Z</time>
      </trkpt>
      <trkpt lat="30.9859905242919922" lon="-7.0132579803466797">
        <ele>1210.821044921875</ele>
        <time>2018-10-12T08:31:44.000Z</time>
      </trkpt>
      <trkpt lat="30.9859466552734375" lon="-7.0132188796997070">
        <ele>1211.0</ele>
        <time>2018-10-12T08:31:45.000Z</time>
      </trkpt>
      <trkpt lat="30.9859027862548828" lon="-7.0131821632385254">
        <ele>1211.0</ele>
        <time>2018-10-12T08:31:46.000Z</time>
      </trkpt>
      <trkpt lat="30.9858589172363281" lon="-7.0131440162658691">
        <ele>1211.0</ele>
        <time>2018-10-12T08:31:47.000Z</time>
      </trkpt>
      <trkpt lat="30.9858150482177734" lon="-7.0131058692932129">
        <ele>1211.0</ele>
        <time>2018-10-12T08:31:48.000Z</time>
      </trkpt>
      <trkpt lat="30.9857730865478516" lon="-7.0130701065063477">
        <ele>1211.0</ele>
        <time>2018-10-12T08:31:49.000Z</time>
      </trkpt>
      <trkpt lat="30.9857311248779297" lon="-7.0130338668823242">
        <ele>1211.0</ele>
        <time>2018-10-12T08:31:50.000Z</time>
      </trkpt>
      <trkpt lat="30.9856910705566406" lon="-7.0129990577697754">
        <ele>1211.0</ele>
        <time>2018-10-12T08:31:51.000Z</time>
      </trkpt>
      <trkpt lat="30.9856491088867188" lon="-7.0129628181457520">
        <ele>1211.0</ele>
        <time>2018-10-12T08:31:52.000Z</time>
      </trkpt>
      <trkpt lat="30.9856090545654297" lon="-7.0129270553588867">
        <ele>1211.0</ele>
        <time>2018-10-12T08:31:53.000Z</time>
      </trkpt>
      <trkpt lat="30.9855709075927734" lon="-7.0128879547119141">
        <ele>1211.0</ele>
        <time>2018-10-12T08:31:54.000Z</time>
      </trkpt>
      <trkpt lat="30.9855327606201172" lon="-7.0128488540649414">
        <ele>1211.0</ele>
        <time>2018-10-12T08:31:55.000Z</time>
      </trkpt>
      <trkpt lat="30.9854946136474609" lon="-7.0128087997436523">
        <ele>1211.0</ele>
        <time>2018-10-12T08:31:56.000Z</time>
      </trkpt>
      <trkpt lat="30.9854545593261719" lon="-7.0127692222595215">
        <ele>1211.0</ele>
        <time>2018-10-12T08:31:57.000Z</time>
      </trkpt>
      <trkpt lat="30.9854164123535156" lon="-7.0127282142639160">
        <ele>1211.0</ele>
        <time>2018-10-12T08:31:58.000Z</time>
      </trkpt>
      <trkpt lat="30.9853782653808594" lon="-7.0126872062683105">
        <ele>1211.0</ele>
        <time>2018-10-12T08:31:59.000Z</time>
      </trkpt>
      <trkpt lat="30.9853420257568359" lon="-7.0126471519470215">
        <ele>1211.0</ele>
        <time>2018-10-12T08:32:00.000Z</time>
      </trkpt>
      <trkpt lat="30.9853057861328125" lon="-7.0126090049743652">
        <ele>1211.0</ele>
        <time>2018-10-12T08:32:01.000Z</time>
      </trkpt>
      <trkpt lat="30.9852695465087891" lon="-7.0125670433044434">
        <ele>1211.0</ele>
        <time>2018-10-12T08:32:02.000Z</time>
      </trkpt>
      <trkpt lat="30.9852352142333984" lon="-7.0125241279602051">
        <ele>1211.0</ele>
        <time>2018-10-12T08:32:03.000Z</time>
      </trkpt>
      <trkpt lat="30.9851970672607422" lon="-7.0124831199645996">
        <ele>1210.178955078125</ele>
        <time>2018-10-12T08:32:04.000Z</time>
      </trkpt>
      <trkpt lat="30.9851608276367188" lon="-7.0124421119689941">
        <ele>1210.0</ele>
        <time>2018-10-12T08:32:05.000Z</time>
      </trkpt>
      <trkpt lat="30.9851226806640625" lon="-7.0124011039733887">
        <ele>1210.0</ele>
        <time>2018-10-12T08:32:06.000Z</time>
      </trkpt>
      <trkpt lat="30.9850845336914062" lon="-7.0123639106750488">
        <ele>1210.0</ele>
        <time>2018-10-12T08:32:07.000Z</time>
      </trkpt>
      <trkpt lat="30.9850444793701172" lon="-7.0123281478881836">
        <ele>1210.0</ele>
        <time>2018-10-12T08:32:08.000Z</time>
      </trkpt>
      <trkpt lat="30.9850044250488281" lon="-7.0122928619384766">
        <ele>1210.0</ele>
        <time>2018-10-12T08:32:09.000Z</time>
      </trkpt>
      <trkpt lat="30.9849643707275391" lon="-7.0122580528259277">
        <ele>1210.0</ele>
        <time>2018-10-12T08:32:10.000Z</time>
      </trkpt>
      <trkpt lat="30.9849243164062500" lon="-7.0122218132019043">
        <ele>1210.0</ele>
        <time>2018-10-12T08:32:11.000Z</time>
      </trkpt>
      <trkpt lat="30.9848823547363281" lon="-7.0121860504150391">
        <ele>1210.0</ele>
        <time>2018-10-12T08:32:12.000Z</time>
      </trkpt>
      <trkpt lat="30.9848423004150391" lon="-7.0121498107910156">
        <ele>1210.0</ele>
        <time>2018-10-12T08:32:13.000Z</time>
      </trkpt>
      <trkpt lat="30.9848003387451172" lon="-7.0121159553527832">
        <ele>1210.0</ele>
        <time>2018-10-12T08:32:14.000Z</time>
      </trkpt>
      <trkpt lat="30.9847583770751953" lon="-7.0120820999145508">
        <ele>1210.0</ele>
        <time>2018-10-12T08:32:15.000Z</time>
      </trkpt>
      <trkpt lat="30.9847183227539062" lon="-7.0120501518249512">
        <ele>1210.0</ele>
        <time>2018-10-12T08:32:16.000Z</time>
      </trkpt>
      <trkpt lat="30.9846763610839844" lon="-7.0120182037353516">
        <ele>1210.0</ele>
        <time>2018-10-12T08:32:17.000Z</time>
      </trkpt>
      <trkpt lat="30.9846343994140625" lon="-7.0119881629943848">
        <ele>1210.0</ele>
        <time>2018-10-12T08:32:18.000Z</time>
      </trkpt>
      <trkpt lat="30.9845924377441406" lon="-7.0119571685791016">
        <ele>1210.0</ele>
        <time>2018-10-12T08:32:19.000Z</time>
      </trkpt>
      <trkpt lat="30.9845523834228516" lon="-7.0119299888610840">
        <ele>1210.0</ele>
        <time>2018-10-12T08:32:20.000Z</time>
      </trkpt>
      <trkpt lat="30.9845123291015625" lon="-7.0119018554687500">
        <ele>1210.0</ele>
        <time>2018-10-12T08:32:21.000Z</time>
      </trkpt>
      <trkpt lat="30.9844741821289062" lon="-7.0118741989135742">
        <ele>1210.0</ele>
        <time>2018-10-12T08:32:22.000Z</time>
      </trkpt>
      <trkpt lat="30.9844341278076172" lon="-7.0118441581726074">
        <ele>1210.0</ele>
        <time>2018-10-12T08:32:23.000Z</time>
      </trkpt>
      <trkpt lat="30.9843940734863281" lon="-7.0118160247802734">
        <ele>1210.0</ele>
        <time>2018-10-12T08:32:24.000Z</time>
      </trkpt>
      <trkpt lat="30.9843559265136719" lon="-7.0117850303649902">
        <ele>1210.0</ele>
        <time>2018-10-12T08:32:25.000Z</time>
      </trkpt>
      <trkpt lat="30.9843177795410156" lon="-7.0117530822753906">
        <ele>1210.0</ele>
        <time>2018-10-12T08:32:26.000Z</time>
      </trkpt>
      <trkpt lat="30.9842777252197266" lon="-7.0117220878601074">
        <ele>1210.0</ele>
        <time>2018-10-12T08:32:27.000Z</time>
      </trkpt>
      <trkpt lat="30.9842395782470703" lon="-7.0116910934448242">
        <ele>1210.0</ele>
        <time>2018-10-12T08:32:28.000Z</time>
      </trkpt>
      <trkpt lat="30.9842014312744141" lon="-7.0116620063781738">
        <ele>1210.0</ele>
        <time>2018-10-12T08:32:29.000Z</time>
      </trkpt>
      <trkpt lat="30.9841632843017578" lon="-7.0116319656372070">
        <ele>1210.0</ele>
        <time>2018-10-12T08:32:30.000Z</time>
      </trkpt>
      <trkpt lat="30.9841251373291016" lon="-7.0116038322448730">
        <ele>1210.0</ele>
        <time>2018-10-12T08:32:31.000Z</time>
      </trkpt>
      <trkpt lat="30.9840888977050781" lon="-7.0115728378295898">
        <ele>1210.0</ele>
        <time>2018-10-12T08:32:32.000Z</time>
      </trkpt>
      <trkpt lat="30.9840564727783203" lon="-7.0115418434143066">
        <ele>1210.0</ele>
        <time>2018-10-12T08:32:33.000Z</time>
      </trkpt>
      <trkpt lat="30.9840240478515625" lon="-7.0115132331848145">
        <ele>1210.0</ele>
        <time>2018-10-12T08:32:34.000Z</time>
      </trkpt>
      <trkpt lat="30.9839935302734375" lon="-7.0114879608154297">
        <ele>1210.0</ele>
        <time>2018-10-12T08:32:35.000Z</time>
      </trkpt>
      <trkpt lat="30.9839668273925781" lon="-7.0114641189575195">
        <ele>1210.0</ele>
        <time>2018-10-12T08:32:36.000Z</time>
      </trkpt>
      <trkpt lat="30.9839439392089844" lon="-7.0114378929138184">
        <ele>1210.0</ele>
        <time>2018-10-12T08:32:37.000Z</time>
      </trkpt>
      <trkpt lat="30.9839191436767578" lon="-7.0114121437072754">
        <ele>1210.0</ele>
        <time>2018-10-12T08:32:38.000Z</time>
      </trkpt>
      <trkpt lat="30.9838981628417969" lon="-7.0113902091979980">
        <ele>1210.0</ele>
        <time>2018-10-12T08:32:39.000Z</time>
      </trkpt>
      <trkpt lat="30.9838809967041016" lon="-7.0113668441772461">
        <ele>1210.0</ele>
        <time>2018-10-12T08:32:40.000Z</time>
      </trkpt>
      <trkpt lat="30.9838657379150391" lon="-7.0113449096679688">
        <ele>1210.0</ele>
        <time>2018-10-12T08:32:41.000Z</time>
      </trkpt>
      <trkpt lat="30.9838485717773438" lon="-7.0113258361816406">
        <ele>1210.0</ele>
        <time>2018-10-12T08:32:42.000Z</time>
      </trkpt>
      <trkpt lat="30.9838333129882812" lon="-7.0113058090209961">
        <ele>1210.0</ele>
        <time>2018-10-12T08:32:43.000Z</time>
      </trkpt>
      <trkpt lat="30.9838142395019531" lon="-7.0112838745117188">
        <ele>1210.0</ele>
        <time>2018-10-12T08:32:44.000Z</time>
      </trkpt>
      <trkpt lat="30.9837951660156250" lon="-7.0112600326538086">
        <ele>1210.0</ele>
        <time>2018-10-12T08:32:45.000Z</time>
      </trkpt>
      <trkpt lat="30.9837722778320312" lon="-7.0112338066101074">
        <ele>1210.0</ele>
        <time>2018-10-12T08:32:46.000Z</time>
      </trkpt>
      <trkpt lat="30.9837493896484375" lon="-7.0112061500549316">
        <ele>1210.0</ele>
        <time>2018-10-12T08:32:47.000Z</time>
      </trkpt>
      <trkpt lat="30.9837245941162109" lon="-7.0111742019653320">
        <ele>1210.0</ele>
        <time>2018-10-12T08:32:48.000Z</time>
      </trkpt>
      <trkpt lat="30.9836959838867188" lon="-7.0111408233642578">
        <ele>1210.0</ele>
        <time>2018-10-12T08:32:49.000Z</time>
      </trkpt>
      <trkpt lat="30.9836673736572266" lon="-7.0111079216003418">
        <ele>1210.0</ele>
        <time>2018-10-12T08:32:50.000Z</time>
      </trkpt>
      <trkpt lat="30.9836387634277344" lon="-7.0110697746276855">
        <ele>1210.0</ele>
        <time>2018-10-12T08:32:51.000Z</time>
      </trkpt>
      <trkpt lat="30.9836063385009766" lon="-7.0110321044921875">
        <ele>1210.0</ele>
        <time>2018-10-12T08:32:52.000Z</time>
      </trkpt>
      <trkpt lat="30.9835758209228516" lon="-7.0109939575195312">
        <ele>1210.0</ele>
        <time>2018-10-12T08:32:53.000Z</time>
      </trkpt>
      <trkpt lat="30.9835453033447266" lon="-7.0109539031982422">
        <ele>1209.363525390625</ele>
        <time>2018-10-12T08:32:54.000Z</time>
      </trkpt>
      <trkpt lat="30.9835147857666016" lon="-7.0109162330627441">
        <ele>1209.0</ele>
        <time>2018-10-12T08:32:55.000Z</time>
      </trkpt>
      <trkpt lat="30.9834842681884766" lon="-7.0108780860900879">
        <ele>1209.0</ele>
        <time>2018-10-12T08:32:56.000Z</time>
      </trkpt>
      <trkpt lat="30.9834537506103516" lon="-7.0108399391174316">
        <ele>1209.0</ele>
        <time>2018-10-12T08:32:57.000Z</time>
      </trkpt>
      <trkpt lat="30.9834232330322266" lon="-7.0108017921447754">
        <ele>1209.0</ele>
        <time>2018-10-12T08:32:58.000Z</time>
      </trkpt>
      <trkpt lat="30.9833927154541016" lon="-7.0107641220092773">
        <ele>1209.0</ele>
        <time>2018-10-12T08:32:59.000Z</time>
      </trkpt>
      <trkpt lat="30.9833621978759766" lon="-7.0107250213623047">
        <ele>1209.0</ele>
        <time>2018-10-12T08:33:00.000Z</time>
      </trkpt>
      <trkpt lat="30.9833316802978516" lon="-7.0106878280639648">
        <ele>1209.0</ele>
        <time>2018-10-12T08:33:01.000Z</time>
      </trkpt>
      <trkpt lat="30.9832992553710938" lon="-7.0106492042541504">
        <ele>1209.0</ele>
        <time>2018-10-12T08:33:02.000Z</time>
      </trkpt>
      <trkpt lat="30.9832668304443359" lon="-7.0106101036071777">
        <ele>1209.0</ele>
        <time>2018-10-12T08:33:03.000Z</time>
      </trkpt>
      <trkpt lat="30.9832363128662109" lon="-7.0105690956115723">
        <ele>1209.0</ele>
        <time>2018-10-12T08:33:04.000Z</time>
      </trkpt>
      <trkpt lat="30.9832057952880859" lon="-7.0105280876159668">
        <ele>1209.0</ele>
        <time>2018-10-12T08:33:05.000Z</time>
      </trkpt>
      <trkpt lat="30.9831752777099609" lon="-7.0104880332946777">
        <ele>1209.0</ele>
        <time>2018-10-12T08:33:06.000Z</time>
      </trkpt>
      <trkpt lat="30.9831466674804688" lon="-7.0104498863220215">
        <ele>1209.0</ele>
        <time>2018-10-12T08:33:07.000Z</time>
      </trkpt>
      <trkpt lat="30.9831180572509766" lon="-7.0104131698608398">
        <ele>1209.0</ele>
        <time>2018-10-12T08:33:08.000Z</time>
      </trkpt>
      <trkpt lat="30.9830894470214844" lon="-7.0103769302368164">
        <ele>1209.0</ele>
        <time>2018-10-12T08:33:09.000Z</time>
      </trkpt>
      <trkpt lat="30.9830608367919922" lon="-7.0103421211242676">
        <ele>1209.0</ele>
        <time>2018-10-12T08:33:10.000Z</time>
      </trkpt>
      <trkpt lat="30.9830322265625000" lon="-7.0103068351745605">
        <ele>1209.0</ele>
        <time>2018-10-12T08:33:11.000Z</time>
      </trkpt>
      <trkpt lat="30.9830055236816406" lon="-7.0102720260620117">
        <ele>1209.0</ele>
        <time>2018-10-12T08:33:12.000Z</time>
      </trkpt>
      <trkpt lat="30.9829788208007812" lon="-7.0102372169494629">
        <ele>1209.0</ele>
        <time>2018-10-12T08:33:13.000Z</time>
      </trkpt>
      <trkpt lat="30.9829502105712891" lon="-7.0102019309997559">
        <ele>1209.0</ele>
        <time>2018-10-12T08:33:14.000Z</time>
      </trkpt>
      <trkpt lat="30.9829196929931641" lon="-7.0101637840270996">
        <ele>1209.0</ele>
        <time>2018-10-12T08:33:15.000Z</time>
      </trkpt>
      <trkpt lat="30.9828891754150391" lon="-7.0101251602172852">
        <ele>1209.0</ele>
        <time>2018-10-12T08:33:16.000Z</time>
      </trkpt>
      <trkpt lat="30.9828586578369141" lon="-7.0100870132446289">
        <ele>1209.0</ele>
        <time>2018-10-12T08:33:17.000Z</time>
      </trkpt>
      <trkpt lat="30.9828281402587891" lon="-7.0100479125976562">
        <ele>1209.0</ele>
        <time>2018-10-12T08:33:18.000Z</time>
      </trkpt>
      <trkpt lat="30.9827976226806641" lon="-7.0100097656250000">
        <ele>1209.0</ele>
        <time>2018-10-12T08:33:19.000Z</time>
      </trkpt>
      <trkpt lat="30.9827690124511719" lon="-7.0099730491638184">
        <ele>1209.0</ele>
        <time>2018-10-12T08:33:20.000Z</time>
      </trkpt>
      <trkpt lat="30.9827384948730469" lon="-7.0099377632141113">
        <ele>1209.0</ele>
        <time>2018-10-12T08:33:21.000Z</time>
      </trkpt>
      <trkpt lat="30.9827098846435547" lon="-7.0099020004272461">
        <ele>1209.0</ele>
        <time>2018-10-12T08:33:22.000Z</time>
      </trkpt>
      <trkpt lat="30.9826812744140625" lon="-7.0098662376403809">
        <ele>1209.0</ele>
        <time>2018-10-12T08:33:23.000Z</time>
      </trkpt>
      <trkpt lat="30.9826526641845703" lon="-7.0098299980163574">
        <ele>1209.0</ele>
        <time>2018-10-12T08:33:24.000Z</time>
      </trkpt>
      <trkpt lat="30.9826202392578125" lon="-7.0097942352294922">
        <ele>1209.0</ele>
        <time>2018-10-12T08:33:25.000Z</time>
      </trkpt>
      <trkpt lat="30.9825897216796875" lon="-7.0097551345825195">
        <ele>1209.0</ele>
        <time>2018-10-12T08:33:26.000Z</time>
      </trkpt>
      <trkpt lat="30.9825553894042969" lon="-7.0097150802612305">
        <ele>1209.0</ele>
        <time>2018-10-12T08:33:27.000Z</time>
      </trkpt>
      <trkpt lat="30.9825191497802734" lon="-7.0096731185913086">
        <ele>1209.0</ele>
        <time>2018-10-12T08:33:28.000Z</time>
      </trkpt>
      <trkpt lat="30.9824829101562500" lon="-7.0096302032470703">
        <ele>1209.0</ele>
        <time>2018-10-12T08:33:29.000Z</time>
      </trkpt>
      <trkpt lat="30.9824447631835938" lon="-7.0095868110656738">
        <ele>1208.178955078125</ele>
        <time>2018-10-12T08:33:30.000Z</time>
      </trkpt>
      <trkpt lat="30.9824047088623047" lon="-7.0095429420471191">
        <ele>1208.0</ele>
        <time>2018-10-12T08:33:31.000Z</time>
      </trkpt>
      <trkpt lat="30.9823646545410156" lon="-7.0095000267028809">
        <ele>1208.0</ele>
        <time>2018-10-12T08:33:32.000Z</time>
      </trkpt>
      <trkpt lat="30.9823226928710938" lon="-7.0094561576843262">
        <ele>1208.0</ele>
        <time>2018-10-12T08:33:33.000Z</time>
      </trkpt>
      <trkpt lat="30.9822807312011719" lon="-7.0094127655029297">
        <ele>1208.0</ele>
        <time>2018-10-12T08:33:34.000Z</time>
      </trkpt>
      <trkpt lat="30.9822387695312500" lon="-7.0093698501586914">
        <ele>1208.0</ele>
        <time>2018-10-12T08:33:35.000Z</time>
      </trkpt>
      <trkpt lat="30.9821949005126953" lon="-7.0093278884887695">
        <ele>1208.0</ele>
        <time>2018-10-12T08:33:36.000Z</time>
      </trkpt>
      <trkpt lat="30.9821510314941406" lon="-7.0092859268188477">
        <ele>1208.0</ele>
        <time>2018-10-12T08:33:37.000Z</time>
      </trkpt>
      <trkpt lat="30.9821052551269531" lon="-7.0092439651489258">
        <ele>1208.0</ele>
        <time>2018-10-12T08:33:38.000Z</time>
      </trkpt>
      <trkpt lat="30.9820613861083984" lon="-7.0092020034790039">
        <ele>1208.0</ele>
        <time>2018-10-12T08:33:39.000Z</time>
      </trkpt>
      <trkpt lat="30.9820175170898438" lon="-7.0091609954833984">
        <ele>1208.0</ele>
        <time>2018-10-12T08:33:40.000Z</time>
      </trkpt>
      <trkpt lat="30.9819736480712891" lon="-7.0091199874877930">
        <ele>1208.0</ele>
        <time>2018-10-12T08:33:41.000Z</time>
      </trkpt>
      <trkpt lat="30.9819297790527344" lon="-7.0090789794921875">
        <ele>1208.0</ele>
        <time>2018-10-12T08:33:42.000Z</time>
      </trkpt>
      <trkpt lat="30.9818820953369141" lon="-7.0090370178222656">
        <ele>1208.0</ele>
        <time>2018-10-12T08:33:43.000Z</time>
      </trkpt>
      <trkpt lat="30.9818382263183594" lon="-7.0089941024780273">
        <ele>1208.0</ele>
        <time>2018-10-12T08:33:44.000Z</time>
      </trkpt>
      <trkpt lat="30.9817924499511719" lon="-7.0089502334594727">
        <ele>1208.0</ele>
        <time>2018-10-12T08:33:45.000Z</time>
      </trkpt>
      <trkpt lat="30.9817447662353516" lon="-7.0089049339294434">
        <ele>1208.0</ele>
        <time>2018-10-12T08:33:46.000Z</time>
      </trkpt>
      <trkpt lat="30.9816951751708984" lon="-7.0088601112365723">
        <ele>1208.0</ele>
        <time>2018-10-12T08:33:47.000Z</time>
      </trkpt>
      <trkpt lat="30.9816474914550781" lon="-7.0088138580322266">
        <ele>1208.0</ele>
        <time>2018-10-12T08:33:48.000Z</time>
      </trkpt>
      <trkpt lat="30.9816017150878906" lon="-7.0087680816650391">
        <ele>1208.0</ele>
        <time>2018-10-12T08:33:49.000Z</time>
      </trkpt>
      <trkpt lat="30.9815540313720703" lon="-7.0087218284606934">
        <ele>1208.0</ele>
        <time>2018-10-12T08:33:50.000Z</time>
      </trkpt>
      <trkpt lat="30.9815082550048828" lon="-7.0086770057678223">
        <ele>1208.0</ele>
        <time>2018-10-12T08:33:51.000Z</time>
      </trkpt>
      <trkpt lat="30.9814624786376953" lon="-7.0086331367492676">
        <ele>1208.0</ele>
        <time>2018-10-12T08:33:52.000Z</time>
      </trkpt>
      <trkpt lat="30.9814167022705078" lon="-7.0085902214050293">
        <ele>1208.0</ele>
        <time>2018-10-12T08:33:53.000Z</time>
      </trkpt>
      <trkpt lat="30.9813671112060547" lon="-7.0085468292236328">
        <ele>1208.0</ele>
        <time>2018-10-12T08:33:54.000Z</time>
      </trkpt>
      <trkpt lat="30.9813213348388672" lon="-7.0085039138793945">
        <ele>1208.0</ele>
        <time>2018-10-12T08:33:55.000Z</time>
      </trkpt>
      <trkpt lat="30.9812736511230469" lon="-7.0084609985351562">
        <ele>1208.0</ele>
        <time>2018-10-12T08:33:56.000Z</time>
      </trkpt>
      <trkpt lat="30.9812259674072266" lon="-7.0084171295166016">
        <ele>1207.178955078125</ele>
        <time>2018-10-12T08:33:57.000Z</time>
      </trkpt>
      <trkpt lat="30.9811801910400391" lon="-7.0083727836608887">
        <ele>1207.0</ele>
        <time>2018-10-12T08:33:58.000Z</time>
      </trkpt>
      <trkpt lat="30.9811344146728516" lon="-7.0083298683166504">
        <ele>1207.0</ele>
        <time>2018-10-12T08:33:59.000Z</time>
      </trkpt>
      <trkpt lat="30.9810886383056641" lon="-7.0082888603210449">
        <ele>1207.0</ele>
        <time>2018-10-12T08:34:00.000Z</time>
      </trkpt>
      <trkpt lat="30.9810428619384766" lon="-7.0082488059997559">
        <ele>1207.0</ele>
        <time>2018-10-12T08:34:01.000Z</time>
      </trkpt>
      <trkpt lat="30.9809951782226562" lon="-7.0082077980041504">
        <ele>1207.0</ele>
        <time>2018-10-12T08:34:02.000Z</time>
      </trkpt>
      <trkpt lat="30.9809513092041016" lon="-7.0081658363342285">
        <ele>1207.0</ele>
        <time>2018-10-12T08:34:03.000Z</time>
      </trkpt>
      <trkpt lat="30.9809055328369141" lon="-7.0081248283386230">
        <ele>1207.0</ele>
        <time>2018-10-12T08:34:04.000Z</time>
      </trkpt>
      <trkpt lat="30.9808616638183594" lon="-7.0080838203430176">
        <ele>1206.178955078125</ele>
        <time>2018-10-12T08:34:05.000Z</time>
      </trkpt>
      <trkpt lat="30.9808158874511719" lon="-7.0080428123474121">
        <ele>1206.0</ele>
        <time>2018-10-12T08:34:06.000Z</time>
      </trkpt>
      <trkpt lat="30.9807701110839844" lon="-7.0080008506774902">
        <ele>1206.0</ele>
        <time>2018-10-12T08:34:07.000Z</time>
      </trkpt>
      <trkpt lat="30.9807243347167969" lon="-7.0079579353332520">
        <ele>1206.0</ele>
        <time>2018-10-12T08:34:08.000Z</time>
      </trkpt>
      <trkpt lat="30.9806785583496094" lon="-7.0079150199890137">
        <ele>1206.0</ele>
        <time>2018-10-12T08:34:09.000Z</time>
      </trkpt>
      <trkpt lat="30.9806346893310547" lon="-7.0078721046447754">
        <ele>1206.0</ele>
        <time>2018-10-12T08:34:10.000Z</time>
      </trkpt>
      <trkpt lat="30.9805908203125000" lon="-7.0078310966491699">
        <ele>1206.0</ele>
        <time>2018-10-12T08:34:11.000Z</time>
      </trkpt>
      <trkpt lat="30.9805469512939453" lon="-7.0077900886535645">
        <ele>1205.2593994140625</ele>
        <time>2018-10-12T08:34:12.000Z</time>
      </trkpt>
      <trkpt lat="30.9805011749267578" lon="-7.0077500343322754">
        <ele>1205.0</ele>
        <time>2018-10-12T08:34:13.000Z</time>
      </trkpt>
      <trkpt lat="30.9804592132568359" lon="-7.0077090263366699">
        <ele>1205.0</ele>
        <time>2018-10-12T08:34:14.000Z</time>
      </trkpt>
      <trkpt lat="30.9804191589355469" lon="-7.0076680183410645">
        <ele>1205.0</ele>
        <time>2018-10-12T08:34:15.000Z</time>
      </trkpt>
      <trkpt lat="30.9803771972656250" lon="-7.0076270103454590">
        <ele>1205.0</ele>
        <time>2018-10-12T08:34:16.000Z</time>
      </trkpt>
      <trkpt lat="30.9803352355957031" lon="-7.0075850486755371">
        <ele>1205.0</ele>
        <time>2018-10-12T08:34:17.000Z</time>
      </trkpt>
      <trkpt lat="30.9802951812744141" lon="-7.0075430870056152">
        <ele>1205.0</ele>
        <time>2018-10-12T08:34:18.000Z</time>
      </trkpt>
      <trkpt lat="30.9802513122558594" lon="-7.0075001716613770">
        <ele>1205.0</ele>
        <time>2018-10-12T08:34:19.000Z</time>
      </trkpt>
      <trkpt lat="30.9802093505859375" lon="-7.0074582099914551">
        <ele>1205.0</ele>
        <time>2018-10-12T08:34:20.000Z</time>
      </trkpt>
      <trkpt lat="30.9801673889160156" lon="-7.0074148178100586">
        <ele>1205.0</ele>
        <time>2018-10-12T08:34:21.000Z</time>
      </trkpt>
      <trkpt lat="30.9801235198974609" lon="-7.0073719024658203">
        <ele>1205.0</ele>
        <time>2018-10-12T08:34:22.000Z</time>
      </trkpt>
      <trkpt lat="30.9800815582275391" lon="-7.0073289871215820">
        <ele>1205.0</ele>
        <time>2018-10-12T08:34:23.000Z</time>
      </trkpt>
      <trkpt lat="30.9800395965576172" lon="-7.0072860717773438">
        <ele>1205.0</ele>
        <time>2018-10-12T08:34:24.000Z</time>
      </trkpt>
      <trkpt lat="30.9799957275390625" lon="-7.0072431564331055">
        <ele>1205.0</ele>
        <time>2018-10-12T08:34:25.000Z</time>
      </trkpt>
      <trkpt lat="30.9799537658691406" lon="-7.0071978569030762">
        <ele>1205.0</ele>
        <time>2018-10-12T08:34:26.000Z</time>
      </trkpt>
      <trkpt lat="30.9799098968505859" lon="-7.0071530342102051">
        <ele>1205.0</ele>
        <time>2018-10-12T08:34:27.000Z</time>
      </trkpt>
      <trkpt lat="30.9798660278320312" lon="-7.0071082115173340">
        <ele>1205.0</ele>
        <time>2018-10-12T08:34:28.000Z</time>
      </trkpt>
      <trkpt lat="30.9798221588134766" lon="-7.0070638656616211">
        <ele>1205.0</ele>
        <time>2018-10-12T08:34:29.000Z</time>
      </trkpt>
      <trkpt lat="30.9797782897949219" lon="-7.0070171356201172">
        <ele>1205.0</ele>
        <time>2018-10-12T08:34:30.000Z</time>
      </trkpt>
      <trkpt lat="30.9797344207763672" lon="-7.0069699287414551">
        <ele>1205.0</ele>
        <time>2018-10-12T08:34:31.000Z</time>
      </trkpt>
      <trkpt lat="30.9796905517578125" lon="-7.0069231986999512">
        <ele>1205.0</ele>
        <time>2018-10-12T08:34:32.000Z</time>
      </trkpt>
      <trkpt lat="30.9796466827392578" lon="-7.0068769454956055">
        <ele>1205.0</ele>
        <time>2018-10-12T08:34:33.000Z</time>
      </trkpt>
      <trkpt lat="30.9796047210693359" lon="-7.0068311691284180">
        <ele>1205.0</ele>
        <time>2018-10-12T08:34:34.000Z</time>
      </trkpt>
      <trkpt lat="30.9795646667480469" lon="-7.0067849159240723">
        <ele>1205.0</ele>
        <time>2018-10-12T08:34:35.000Z</time>
      </trkpt>
      <trkpt lat="30.9795246124267578" lon="-7.0067410469055176">
        <ele>1205.0</ele>
        <time>2018-10-12T08:34:36.000Z</time>
      </trkpt>
      <trkpt lat="30.9794845581054688" lon="-7.0066971778869629">
        <ele>1205.0</ele>
        <time>2018-10-12T08:34:37.000Z</time>
      </trkpt>
      <trkpt lat="30.9794464111328125" lon="-7.0066552162170410">
        <ele>1205.0</ele>
        <time>2018-10-12T08:34:38.000Z</time>
      </trkpt>
      <trkpt lat="30.9794101715087891" lon="-7.0066127777099609">
        <ele>1205.0</ele>
        <time>2018-10-12T08:34:39.000Z</time>
      </trkpt>
      <trkpt lat="30.9793739318847656" lon="-7.0065708160400391">
        <ele>1205.0</ele>
        <time>2018-10-12T08:34:40.000Z</time>
      </trkpt>
      <trkpt lat="30.9793395996093750" lon="-7.0065298080444336">
        <ele>1205.0</ele>
        <time>2018-10-12T08:34:41.000Z</time>
      </trkpt>
      <trkpt lat="30.9793033599853516" lon="-7.0064888000488281">
        <ele>1205.0</ele>
        <time>2018-10-12T08:34:42.000Z</time>
      </trkpt>
      <trkpt lat="30.9792690277099609" lon="-7.0064468383789062">
        <ele>1205.0</ele>
        <time>2018-10-12T08:34:43.000Z</time>
      </trkpt>
      <trkpt lat="30.9792346954345703" lon="-7.0064048767089844">
        <ele>1205.0</ele>
        <time>2018-10-12T08:34:44.000Z</time>
      </trkpt>
      <trkpt lat="30.9792003631591797" lon="-7.0063619613647461">
        <ele>1205.0</ele>
        <time>2018-10-12T08:34:45.000Z</time>
      </trkpt>
      <trkpt lat="30.9791641235351562" lon="-7.0063199996948242">
        <ele>1205.0</ele>
        <time>2018-10-12T08:34:46.000Z</time>
      </trkpt>
      <trkpt lat="30.9791278839111328" lon="-7.0062770843505859">
        <ele>1205.0</ele>
        <time>2018-10-12T08:34:47.000Z</time>
      </trkpt>
      <trkpt lat="30.9790916442871094" lon="-7.0062341690063477">
        <ele>1205.0</ele>
        <time>2018-10-12T08:34:48.000Z</time>
      </trkpt>
      <trkpt lat="30.9790554046630859" lon="-7.0061898231506348">
        <ele>1205.0</ele>
        <time>2018-10-12T08:34:49.000Z</time>
      </trkpt>
      <trkpt lat="30.9790191650390625" lon="-7.0061459541320801">
        <ele>1205.0</ele>
        <time>2018-10-12T08:34:50.000Z</time>
      </trkpt>
      <trkpt lat="30.9789848327636719" lon="-7.0061001777648926">
        <ele>1205.0</ele>
        <time>2018-10-12T08:34:51.000Z</time>
      </trkpt>
      <trkpt lat="30.9789485931396484" lon="-7.0060548782348633">
        <ele>1205.0</ele>
        <time>2018-10-12T08:34:52.000Z</time>
      </trkpt>
      <trkpt lat="30.9789123535156250" lon="-7.0060091018676758">
        <ele>1205.0</ele>
        <time>2018-10-12T08:34:53.000Z</time>
      </trkpt>
      <trkpt lat="30.9788761138916016" lon="-7.0059638023376465">
        <ele>1204.177978515625</ele>
        <time>2018-10-12T08:34:54.000Z</time>
      </trkpt>
      <trkpt lat="30.9788417816162109" lon="-7.0059189796447754">
        <ele>1204.0</ele>
        <time>2018-10-12T08:34:55.000Z</time>
      </trkpt>
      <trkpt lat="30.9788074493408203" lon="-7.0058732032775879">
        <ele>1204.0</ele>
        <time>2018-10-12T08:34:56.000Z</time>
      </trkpt>
      <trkpt lat="30.9787731170654297" lon="-7.0058269500732422">
        <ele>1204.0</ele>
        <time>2018-10-12T08:34:57.000Z</time>
      </trkpt>
      <trkpt lat="30.9787387847900391" lon="-7.0057821273803711">
        <ele>1204.0</ele>
        <time>2018-10-12T08:34:58.000Z</time>
      </trkpt>
      <trkpt lat="30.9787025451660156" lon="-7.0057358741760254">
        <ele>1204.0</ele>
        <time>2018-10-12T08:34:59.000Z</time>
      </trkpt>
      <trkpt lat="30.9786663055419922" lon="-7.0056881904602051">
        <ele>1204.0</ele>
        <time>2018-10-12T08:35:00.000Z</time>
      </trkpt>
      <trkpt lat="30.9786281585693359" lon="-7.0056409835815430">
        <ele>1204.0</ele>
        <time>2018-10-12T08:35:01.000Z</time>
      </trkpt>
      <trkpt lat="30.9785919189453125" lon="-7.0055928230285645">
        <ele>1204.0</ele>
        <time>2018-10-12T08:35:02.000Z</time>
      </trkpt>
      <trkpt lat="30.9785537719726562" lon="-7.0055451393127441">
        <ele>1204.0</ele>
        <time>2018-10-12T08:35:03.000Z</time>
      </trkpt>
      <trkpt lat="30.9785156250000000" lon="-7.0054969787597656">
        <ele>1204.0</ele>
        <time>2018-10-12T08:35:04.000Z</time>
      </trkpt>
      <trkpt lat="30.9784793853759766" lon="-7.0054497718811035">
        <ele>1204.0</ele>
        <time>2018-10-12T08:35:05.000Z</time>
      </trkpt>
      <trkpt lat="30.9784431457519531" lon="-7.0054030418395996">
        <ele>1204.0</ele>
        <time>2018-10-12T08:35:06.000Z</time>
      </trkpt>
      <trkpt lat="30.9784088134765625" lon="-7.0053548812866211">
        <ele>1204.0</ele>
        <time>2018-10-12T08:35:07.000Z</time>
      </trkpt>
      <trkpt lat="30.9783725738525391" lon="-7.0053081512451172">
        <ele>1204.0</ele>
        <time>2018-10-12T08:35:08.000Z</time>
      </trkpt>
      <trkpt lat="30.9783382415771484" lon="-7.0052618980407715">
        <ele>1204.0</ele>
        <time>2018-10-12T08:35:09.000Z</time>
      </trkpt>
      <trkpt lat="30.9783039093017578" lon="-7.0052151679992676">
        <ele>1204.0</ele>
        <time>2018-10-12T08:35:10.000Z</time>
      </trkpt>
      <trkpt lat="30.9782695770263672" lon="-7.0051698684692383">
        <ele>1204.0</ele>
        <time>2018-10-12T08:35:11.000Z</time>
      </trkpt>
      <trkpt lat="30.9782352447509766" lon="-7.0051250457763672">
        <ele>1204.0</ele>
        <time>2018-10-12T08:35:12.000Z</time>
      </trkpt>
      <trkpt lat="30.9782009124755859" lon="-7.0050821304321289">
        <ele>1204.0</ele>
        <time>2018-10-12T08:35:13.000Z</time>
      </trkpt>
      <trkpt lat="30.9781665802001953" lon="-7.0050377845764160">
        <ele>1204.0</ele>
        <time>2018-10-12T08:35:14.000Z</time>
      </trkpt>
      <trkpt lat="30.9781341552734375" lon="-7.0049939155578613">
        <ele>1204.0</ele>
        <time>2018-10-12T08:35:15.000Z</time>
      </trkpt>
      <trkpt lat="30.9781017303466797" lon="-7.0049500465393066">
        <ele>1204.0</ele>
        <time>2018-10-12T08:35:16.000Z</time>
      </trkpt>
      <trkpt lat="30.9780673980712891" lon="-7.0049052238464355">
        <ele>1204.0</ele>
        <time>2018-10-12T08:35:17.000Z</time>
      </trkpt>
      <trkpt lat="30.9780349731445312" lon="-7.0048618316650391">
        <ele>1204.0</ele>
        <time>2018-10-12T08:35:18.000Z</time>
      </trkpt>
      <trkpt lat="30.9780006408691406" lon="-7.0048179626464844">
        <ele>1204.0</ele>
        <time>2018-10-12T08:35:19.000Z</time>
      </trkpt>
      <trkpt lat="30.9779663085937500" lon="-7.0047740936279297">
        <ele>1204.0</ele>
        <time>2018-10-12T08:35:20.000Z</time>
      </trkpt>
      <trkpt lat="30.9779319763183594" lon="-7.0047302246093750">
        <ele>1204.0</ele>
        <time>2018-10-12T08:35:21.000Z</time>
      </trkpt>
      <trkpt lat="30.9778976440429688" lon="-7.0046858787536621">
        <ele>1204.0</ele>
        <time>2018-10-12T08:35:22.000Z</time>
      </trkpt>
      <trkpt lat="30.9778614044189453" lon="-7.0046410560607910">
        <ele>1204.0</ele>
        <time>2018-10-12T08:35:23.000Z</time>
      </trkpt>
      <trkpt lat="30.9778251647949219" lon="-7.0045948028564453">
        <ele>1204.0</ele>
        <time>2018-10-12T08:35:24.000Z</time>
      </trkpt>
      <trkpt lat="30.9777908325195312" lon="-7.0045490264892578">
        <ele>1204.0</ele>
        <time>2018-10-12T08:35:25.000Z</time>
      </trkpt>
      <trkpt lat="30.9777545928955078" lon="-7.0045027732849121">
        <ele>1204.0</ele>
        <time>2018-10-12T08:35:26.000Z</time>
      </trkpt>
      <trkpt lat="30.9777183532714844" lon="-7.0044579505920410">
        <ele>1204.0</ele>
        <time>2018-10-12T08:35:27.000Z</time>
      </trkpt>
      <trkpt lat="30.9776821136474609" lon="-7.0044112205505371">
        <ele>1204.0</ele>
        <time>2018-10-12T08:35:28.000Z</time>
      </trkpt>
      <trkpt lat="30.9776477813720703" lon="-7.0043640136718750">
        <ele>1204.0</ele>
        <time>2018-10-12T08:35:29.000Z</time>
      </trkpt>
      <trkpt lat="30.9776115417480469" lon="-7.0043182373046875">
        <ele>1204.0</ele>
        <time>2018-10-12T08:35:30.000Z</time>
      </trkpt>
      <trkpt lat="30.9775753021240234" lon="-7.0042710304260254">
        <ele>1204.0</ele>
        <time>2018-10-12T08:35:31.000Z</time>
      </trkpt>
      <trkpt lat="30.9775428771972656" lon="-7.0042219161987305">
        <ele>1204.0</ele>
        <time>2018-10-12T08:35:32.000Z</time>
      </trkpt>
      <trkpt lat="30.9775104522705078" lon="-7.0041718482971191">
        <ele>1204.0</ele>
        <time>2018-10-12T08:35:33.000Z</time>
      </trkpt>
      <trkpt lat="30.9774761199951172" lon="-7.0041217803955078">
        <ele>1204.0</ele>
        <time>2018-10-12T08:35:34.000Z</time>
      </trkpt>
      <trkpt lat="30.9774436950683594" lon="-7.0040721893310547">
        <ele>1204.0</ele>
        <time>2018-10-12T08:35:35.000Z</time>
      </trkpt>
      <trkpt lat="30.9774112701416016" lon="-7.0040211677551270">
        <ele>1204.0</ele>
        <time>2018-10-12T08:35:36.000Z</time>
      </trkpt>
      <trkpt lat="30.9773807525634766" lon="-7.0039701461791992">
        <ele>1203.177978515625</ele>
        <time>2018-10-12T08:35:37.000Z</time>
      </trkpt>
      <trkpt lat="30.9773521423339844" lon="-7.0039191246032715">
        <ele>1203.0</ele>
        <time>2018-10-12T08:35:38.000Z</time>
      </trkpt>
      <trkpt lat="30.9773235321044922" lon="-7.0038671493530273">
        <ele>1203.0</ele>
        <time>2018-10-12T08:35:39.000Z</time>
      </trkpt>
      <trkpt lat="30.9772968292236328" lon="-7.0038151741027832">
        <ele>1203.0</ele>
        <time>2018-10-12T08:35:40.000Z</time>
      </trkpt>
      <trkpt lat="30.9772682189941406" lon="-7.0037641525268555">
        <ele>1203.0</ele>
        <time>2018-10-12T08:35:41.000Z</time>
      </trkpt>
      <trkpt lat="30.9772434234619141" lon="-7.0037121772766113">
        <ele>1203.0</ele>
        <time>2018-10-12T08:35:42.000Z</time>
      </trkpt>
      <trkpt lat="30.9772186279296875" lon="-7.0036578178405762">
        <ele>1203.0</ele>
        <time>2018-10-12T08:35:43.000Z</time>
      </trkpt>
      <trkpt lat="30.9771919250488281" lon="-7.0036039352416992">
        <ele>1203.0</ele>
        <time>2018-10-12T08:35:44.000Z</time>
      </trkpt>
      <trkpt lat="30.9771652221679688" lon="-7.0035490989685059">
        <ele>1203.0</ele>
        <time>2018-10-12T08:35:45.000Z</time>
      </trkpt>
      <trkpt lat="30.9771404266357422" lon="-7.0034918785095215">
        <ele>1203.0</ele>
        <time>2018-10-12T08:35:46.000Z</time>
      </trkpt>
      <trkpt lat="30.9771156311035156" lon="-7.0034351348876953">
        <ele>1203.0</ele>
        <time>2018-10-12T08:35:47.000Z</time>
      </trkpt>
      <trkpt lat="30.9770908355712891" lon="-7.0033769607543945">
        <ele>1203.0</ele>
        <time>2018-10-12T08:35:48.000Z</time>
      </trkpt>
      <trkpt lat="30.9770641326904297" lon="-7.0033202171325684">
        <ele>1203.0</ele>
        <time>2018-10-12T08:35:49.000Z</time>
      </trkpt>
      <trkpt lat="30.9770412445068359" lon="-7.0032610893249512">
        <ele>1203.0</ele>
        <time>2018-10-12T08:35:50.000Z</time>
      </trkpt>
      <trkpt lat="30.9770164489746094" lon="-7.0032019615173340">
        <ele>1203.0</ele>
        <time>2018-10-12T08:35:51.000Z</time>
      </trkpt>
      <trkpt lat="30.9769916534423828" lon="-7.0031428337097168">
        <ele>1203.0</ele>
        <time>2018-10-12T08:35:52.000Z</time>
      </trkpt>
      <trkpt lat="30.9769687652587891" lon="-7.0030841827392578">
        <ele>1203.0</ele>
        <time>2018-10-12T08:35:53.000Z</time>
      </trkpt>
      <trkpt lat="30.9769458770751953" lon="-7.0030250549316406">
        <ele>1203.0</ele>
        <time>2018-10-12T08:35:54.000Z</time>
      </trkpt>
      <trkpt lat="30.9769248962402344" lon="-7.0029649734497070">
        <ele>1203.0</ele>
        <time>2018-10-12T08:35:55.000Z</time>
      </trkpt>
      <trkpt lat="30.9769039154052734" lon="-7.0029058456420898">
        <ele>1203.0</ele>
        <time>2018-10-12T08:35:56.000Z</time>
      </trkpt>
      <trkpt lat="30.9768848419189453" lon="-7.0028481483459473">
        <ele>1203.0</ele>
        <time>2018-10-12T08:35:57.000Z</time>
      </trkpt>
      <trkpt lat="30.9768657684326172" lon="-7.0027918815612793">
        <ele>1203.0</ele>
        <time>2018-10-12T08:35:58.000Z</time>
      </trkpt>
      <trkpt lat="30.9768466949462891" lon="-7.0027360916137695">
        <ele>1203.0</ele>
        <time>2018-10-12T08:35:59.000Z</time>
      </trkpt>
      <trkpt lat="30.9768295288085938" lon="-7.0026798248291016">
        <ele>1203.0</ele>
        <time>2018-10-12T08:36:00.000Z</time>
      </trkpt>
      <trkpt lat="30.9768123626708984" lon="-7.0026249885559082">
        <ele>1203.0</ele>
        <time>2018-10-12T08:36:01.000Z</time>
      </trkpt>
      <trkpt lat="30.9767951965332031" lon="-7.0025711059570312">
        <ele>1203.0</ele>
        <time>2018-10-12T08:36:02.000Z</time>
      </trkpt>
      <trkpt lat="30.9767780303955078" lon="-7.0025172233581543">
        <ele>1203.0</ele>
        <time>2018-10-12T08:36:03.000Z</time>
      </trkpt>
      <trkpt lat="30.9767627716064453" lon="-7.0024638175964355">
        <ele>1203.0</ele>
        <time>2018-10-12T08:36:04.000Z</time>
      </trkpt>
      <trkpt lat="30.9767436981201172" lon="-7.0024127960205078">
        <ele>1203.0</ele>
        <time>2018-10-12T08:36:05.000Z</time>
      </trkpt>
      <trkpt lat="30.9767246246337891" lon="-7.0023617744445801">
        <ele>1203.0</ele>
        <time>2018-10-12T08:36:06.000Z</time>
      </trkpt>
      <trkpt lat="30.9767074584960938" lon="-7.0023112297058105">
        <ele>1203.0</ele>
        <time>2018-10-12T08:36:07.000Z</time>
      </trkpt>
      <trkpt lat="30.9766902923583984" lon="-7.0022602081298828">
        <ele>1203.0</ele>
        <time>2018-10-12T08:36:08.000Z</time>
      </trkpt>
      <trkpt lat="30.9766712188720703" lon="-7.0022110939025879">
        <ele>1203.0</ele>
        <time>2018-10-12T08:36:09.000Z</time>
      </trkpt>
      <trkpt lat="30.9766540527343750" lon="-7.0021638870239258">
        <ele>1203.0</ele>
        <time>2018-10-12T08:36:10.000Z</time>
      </trkpt>
      <trkpt lat="30.9766387939453125" lon="-7.0021162033081055">
        <ele>1203.0</ele>
        <time>2018-10-12T08:36:11.000Z</time>
      </trkpt>
      <trkpt lat="30.9766216278076172" lon="-7.0020689964294434">
        <ele>1203.0</ele>
        <time>2018-10-12T08:36:12.000Z</time>
      </trkpt>
      <trkpt lat="30.9766025543212891" lon="-7.0020217895507812">
        <ele>1203.0</ele>
        <time>2018-10-12T08:36:13.000Z</time>
      </trkpt>
      <trkpt lat="30.9765834808349609" lon="-7.0019750595092773">
        <ele>1203.0</ele>
        <time>2018-10-12T08:36:14.000Z</time>
      </trkpt>
      <trkpt lat="30.9765644073486328" lon="-7.0019268989562988">
        <ele>1202.177978515625</ele>
        <time>2018-10-12T08:36:15.000Z</time>
      </trkpt>
      <trkpt lat="30.9765453338623047" lon="-7.0018792152404785">
        <ele>1201.177978515625</ele>
        <time>2018-10-12T08:36:16.000Z</time>
      </trkpt>
      <trkpt lat="30.9765281677246094" lon="-7.0018320083618164">
        <ele>1201.0</ele>
        <time>2018-10-12T08:36:17.000Z</time>
      </trkpt>
      <trkpt lat="30.9765090942382812" lon="-7.0017838478088379">
        <ele>1201.0</ele>
        <time>2018-10-12T08:36:18.000Z</time>
      </trkpt>
      <trkpt lat="30.9764919281005859" lon="-7.0017371177673340">
        <ele>1201.0</ele>
        <time>2018-10-12T08:36:19.000Z</time>
      </trkpt>
      <trkpt lat="30.9764728546142578" lon="-7.0016899108886719">
        <ele>1201.0</ele>
        <time>2018-10-12T08:36:20.000Z</time>
      </trkpt>
      <trkpt lat="30.9764556884765625" lon="-7.0016431808471680">
        <ele>1201.0</ele>
        <time>2018-10-12T08:36:21.000Z</time>
      </trkpt>
      <trkpt lat="30.9764423370361328" lon="-7.0015959739685059">
        <ele>1201.0</ele>
        <time>2018-10-12T08:36:22.000Z</time>
      </trkpt>
      <trkpt lat="30.9764251708984375" lon="-7.0015487670898438">
        <ele>1200.178955078125</ele>
        <time>2018-10-12T08:36:23.000Z</time>
      </trkpt>
      <trkpt lat="30.9764060974121094" lon="-7.0015020370483398">
        <ele>1200.0</ele>
        <time>2018-10-12T08:36:24.000Z</time>
      </trkpt>
      <trkpt lat="30.9763832092285156" lon="-7.0014510154724121">
        <ele>1200.0</ele>
        <time>2018-10-12T08:36:25.000Z</time>
      </trkpt>
      <trkpt lat="30.9763584136962891" lon="-7.0013980865478516">
        <ele>1200.0</ele>
        <time>2018-10-12T08:36:26.000Z</time>
      </trkpt>
      <trkpt lat="30.9763336181640625" lon="-7.0013399124145508">
        <ele>1200.0</ele>
        <time>2018-10-12T08:36:27.000Z</time>
      </trkpt>
      <trkpt lat="30.9763107299804688" lon="-7.0012788772583008">
        <ele>1200.0</ele>
        <time>2018-10-12T08:36:28.000Z</time>
      </trkpt>
      <trkpt lat="30.9762859344482422" lon="-7.0012178421020508">
        <ele>1200.0</ele>
        <time>2018-10-12T08:36:29.000Z</time>
      </trkpt>
      <trkpt lat="30.9762592315673828" lon="-7.0011568069458008">
        <ele>1200.0</ele>
        <time>2018-10-12T08:36:30.000Z</time>
      </trkpt>
      <trkpt lat="30.9762363433837891" lon="-7.0010972023010254">
        <ele>1200.0</ele>
        <time>2018-10-12T08:36:31.000Z</time>
      </trkpt>
      <trkpt lat="30.9762134552001953" lon="-7.0010361671447754">
        <ele>1200.0</ele>
        <time>2018-10-12T08:36:32.000Z</time>
      </trkpt>
      <trkpt lat="30.9761905670166016" lon="-7.0009751319885254">
        <ele>1200.0</ele>
        <time>2018-10-12T08:36:33.000Z</time>
      </trkpt>
      <trkpt lat="30.9761676788330078" lon="-7.0009140968322754">
        <ele>1200.0</ele>
        <time>2018-10-12T08:36:34.000Z</time>
      </trkpt>
      <trkpt lat="30.9761447906494141" lon="-7.0008540153503418">
        <ele>1200.0</ele>
        <time>2018-10-12T08:36:35.000Z</time>
      </trkpt>
      <trkpt lat="30.9761199951171875" lon="-7.0007929801940918">
        <ele>1200.0</ele>
        <time>2018-10-12T08:36:36.000Z</time>
      </trkpt>
      <trkpt lat="30.9760971069335938" lon="-7.0007338523864746">
        <ele>1200.0</ele>
        <time>2018-10-12T08:36:37.000Z</time>
      </trkpt>
      <trkpt lat="30.9760780334472656" lon="-7.0006752014160156">
        <ele>1200.0</ele>
        <time>2018-10-12T08:36:38.000Z</time>
      </trkpt>
      <trkpt lat="30.9760570526123047" lon="-7.0006170272827148">
        <ele>1200.0</ele>
        <time>2018-10-12T08:36:39.000Z</time>
      </trkpt>
      <trkpt lat="30.9760360717773438" lon="-7.0005588531494141">
        <ele>1200.0</ele>
        <time>2018-10-12T08:36:40.000Z</time>
      </trkpt>
      <trkpt lat="30.9760189056396484" lon="-7.0005021095275879">
        <ele>1200.0</ele>
        <time>2018-10-12T08:36:41.000Z</time>
      </trkpt>
      <trkpt lat="30.9760017395019531" lon="-7.0004458427429199">
        <ele>1199.363525390625</ele>
        <time>2018-10-12T08:36:42.000Z</time>
      </trkpt>
      <trkpt lat="30.9759864807128906" lon="-7.0003890991210938">
        <ele>1199.0</ele>
        <time>2018-10-12T08:36:43.000Z</time>
      </trkpt>
      <trkpt lat="30.9759712219238281" lon="-7.0003290176391602">
        <ele>1199.0</ele>
        <time>2018-10-12T08:36:44.000Z</time>
      </trkpt>
      <trkpt lat="30.9759616851806641" lon="-7.0002660751342773">
        <ele>1198.363525390625</ele>
        <time>2018-10-12T08:36:45.000Z</time>
      </trkpt>
      <trkpt lat="30.9759502410888672" lon="-7.0002012252807617">
        <ele>1198.0</ele>
        <time>2018-10-12T08:36:46.000Z</time>
      </trkpt>
      <trkpt lat="30.9759483337402344" lon="-7.0001368522644043">
        <ele>1198.0</ele>
        <time>2018-10-12T08:36:47.000Z</time>
      </trkpt>
      <trkpt lat="30.9759445190429688" lon="-7.0000729560852051">
        <ele>1198.0</ele>
        <time>2018-10-12T08:36:48.000Z</time>
      </trkpt>
      <trkpt lat="30.9759445190429688" lon="-7.0000090599060059">
        <ele>1198.0</ele>
        <time>2018-10-12T08:36:49.000Z</time>
      </trkpt>
      <trkpt lat="30.9759464263916016" lon="-6.9999418258666992">
        <ele>1198.0</ele>
        <time>2018-10-12T08:36:50.000Z</time>
      </trkpt>
      <trkpt lat="30.9759502410888672" lon="-6.9998750686645508">
        <ele>1198.0</ele>
        <time>2018-10-12T08:36:51.000Z</time>
      </trkpt>
      <trkpt lat="30.9759559631347656" lon="-6.9998068809509277">
        <ele>1198.0</ele>
        <time>2018-10-12T08:36:52.000Z</time>
      </trkpt>
      <trkpt lat="30.9759616851806641" lon="-6.9997382164001465">
        <ele>1198.0</ele>
        <time>2018-10-12T08:36:53.000Z</time>
      </trkpt>
      <trkpt lat="30.9759693145751953" lon="-6.9996681213378906">
        <ele>1197.178955078125</ele>
        <time>2018-10-12T08:36:54.000Z</time>
      </trkpt>
      <trkpt lat="30.9759788513183594" lon="-6.9995980262756348">
        <ele>1197.0</ele>
        <time>2018-10-12T08:36:55.000Z</time>
      </trkpt>
      <trkpt lat="30.9759883880615234" lon="-6.9995298385620117">
        <ele>1197.8192138671875</ele>
        <time>2018-10-12T08:36:56.000Z</time>
      </trkpt>
      <trkpt lat="30.9759998321533203" lon="-6.9994649887084961">
        <ele>1198.0</ele>
        <time>2018-10-12T08:36:57.000Z</time>
      </trkpt>
      <trkpt lat="30.9760112762451172" lon="-6.9994077682495117">
        <ele>1198.821044921875</ele>
        <time>2018-10-12T08:36:58.000Z</time>
      </trkpt>
      <trkpt lat="30.9760227203369141" lon="-6.9993591308593750">
        <ele>1199.0</ele>
        <time>2018-10-12T08:36:59.000Z</time>
      </trkpt>
      <trkpt lat="30.9760322570800781" lon="-6.9993171691894531">
        <ele>1199.0</ele>
        <time>2018-10-12T08:37:00.000Z</time>
      </trkpt>
      <trkpt lat="30.9760417938232422" lon="-6.9992780685424805">
        <ele>1199.0</ele>
        <time>2018-10-12T08:37:01.000Z</time>
      </trkpt>
      <trkpt lat="30.9760513305664062" lon="-6.9992389678955078">
        <ele>1199.0</ele>
        <time>2018-10-12T08:37:02.000Z</time>
      </trkpt>
      <trkpt lat="30.9760627746582031" lon="-6.9991989135742188">
        <ele>1199.0</ele>
        <time>2018-10-12T08:37:03.000Z</time>
      </trkpt>
      <trkpt lat="30.9760742187500000" lon="-6.9991550445556641">
        <ele>1199.0</ele>
        <time>2018-10-12T08:37:04.000Z</time>
      </trkpt>
      <trkpt lat="30.9760894775390625" lon="-6.9991087913513184">
        <ele>1199.0</ele>
        <time>2018-10-12T08:37:05.000Z</time>
      </trkpt>
      <trkpt lat="30.9761047363281250" lon="-6.9990601539611816">
        <ele>1199.0</ele>
        <time>2018-10-12T08:37:06.000Z</time>
      </trkpt>
      <trkpt lat="30.9761219024658203" lon="-6.9990091323852539">
        <ele>1199.0</ele>
        <time>2018-10-12T08:37:07.000Z</time>
      </trkpt>
      <trkpt lat="30.9761371612548828" lon="-6.9989562034606934">
        <ele>1199.0</ele>
        <time>2018-10-12T08:37:08.000Z</time>
      </trkpt>
      <trkpt lat="30.9761524200439453" lon="-6.9989008903503418">
        <ele>1199.0</ele>
        <time>2018-10-12T08:37:09.000Z</time>
      </trkpt>
      <trkpt lat="30.9761695861816406" lon="-6.9988441467285156">
        <ele>1199.0</ele>
        <time>2018-10-12T08:37:10.000Z</time>
      </trkpt>
      <trkpt lat="30.9761829376220703" lon="-6.9987850189208984">
        <ele>1199.0</ele>
        <time>2018-10-12T08:37:11.000Z</time>
      </trkpt>
      <trkpt lat="30.9761924743652344" lon="-6.9987220764160156">
        <ele>1199.0</ele>
        <time>2018-10-12T08:37:12.000Z</time>
      </trkpt>
      <trkpt lat="30.9761981964111328" lon="-6.9986548423767090">
        <ele>1199.0</ele>
        <time>2018-10-12T08:37:13.000Z</time>
      </trkpt>
      <trkpt lat="30.9761981964111328" lon="-6.9985880851745605">
        <ele>1199.0</ele>
        <time>2018-10-12T08:37:14.000Z</time>
      </trkpt>
      <trkpt lat="30.9761943817138672" lon="-6.9985232353210449">
        <ele>1199.0</ele>
        <time>2018-10-12T08:37:15.000Z</time>
      </trkpt>
      <trkpt lat="30.9761886596679688" lon="-6.9984607696533203">
        <ele>1199.0</ele>
        <time>2018-10-12T08:37:16.000Z</time>
      </trkpt>
      <trkpt lat="30.9761791229248047" lon="-6.9984002113342285">
        <ele>1199.0</ele>
        <time>2018-10-12T08:37:17.000Z</time>
      </trkpt>
      <trkpt lat="30.9761714935302734" lon="-6.9983391761779785">
        <ele>1199.0</ele>
        <time>2018-10-12T08:37:18.000Z</time>
      </trkpt>
      <trkpt lat="30.9761600494384766" lon="-6.9982790946960449">
        <ele>1199.0</ele>
        <time>2018-10-12T08:37:19.000Z</time>
      </trkpt>
      <trkpt lat="30.9761505126953125" lon="-6.9982161521911621">
        <ele>1199.0</ele>
        <time>2018-10-12T08:37:20.000Z</time>
      </trkpt>
      <trkpt lat="30.9761390686035156" lon="-6.9981498718261719">
        <ele>1199.0</ele>
        <time>2018-10-12T08:37:21.000Z</time>
      </trkpt>
      <trkpt lat="30.9761295318603516" lon="-6.9980821609497070">
        <ele>1199.0</ele>
        <time>2018-10-12T08:37:22.000Z</time>
      </trkpt>
      <trkpt lat="30.9761219024658203" lon="-6.9980158805847168">
        <ele>1199.0</ele>
        <time>2018-10-12T08:37:23.000Z</time>
      </trkpt>
      <trkpt lat="30.9761142730712891" lon="-6.9979529380798340">
        <ele>1199.0</ele>
        <time>2018-10-12T08:37:24.000Z</time>
      </trkpt>
      <trkpt lat="30.9761085510253906" lon="-6.9978880882263184">
        <ele>1199.0</ele>
        <time>2018-10-12T08:37:25.000Z</time>
      </trkpt>
      <trkpt lat="30.9761028289794922" lon="-6.9978208541870117">
        <ele>1198.178955078125</ele>
        <time>2018-10-12T08:37:26.000Z</time>
      </trkpt>
      <trkpt lat="30.9760971069335938" lon="-6.9977550506591797">
        <ele>1198.0</ele>
        <time>2018-10-12T08:37:27.000Z</time>
      </trkpt>
      <trkpt lat="30.9760913848876953" lon="-6.9976930618286133">
        <ele>1198.0</ele>
        <time>2018-10-12T08:37:28.000Z</time>
      </trkpt>
      <trkpt lat="30.9760837554931641" lon="-6.9976339340209961">
        <ele>1198.0</ele>
        <time>2018-10-12T08:37:29.000Z</time>
      </trkpt>
      <trkpt lat="30.9760799407958984" lon="-6.9975790977478027">
        <ele>1198.821044921875</ele>
        <time>2018-10-12T08:37:30.000Z</time>
      </trkpt>
      <trkpt lat="30.9760742187500000" lon="-6.9975261688232422">
        <ele>1199.0</ele>
        <time>2018-10-12T08:37:31.000Z</time>
      </trkpt>
      <trkpt lat="30.9760723114013672" lon="-6.9974727630615234">
        <ele>1199.0</ele>
        <time>2018-10-12T08:37:32.000Z</time>
      </trkpt>
      <trkpt lat="30.9760684967041016" lon="-6.9974198341369629">
        <ele>1199.0</ele>
        <time>2018-10-12T08:37:33.000Z</time>
      </trkpt>
      <trkpt lat="30.9760646820068359" lon="-6.9973669052124023">
        <ele>1199.0</ele>
        <time>2018-10-12T08:37:34.000Z</time>
      </trkpt>
      <trkpt lat="30.9760570526123047" lon="-6.9973130226135254">
        <ele>1199.0</ele>
        <time>2018-10-12T08:37:35.000Z</time>
      </trkpt>
      <trkpt lat="30.9760494232177734" lon="-6.9972600936889648">
        <ele>1199.0</ele>
        <time>2018-10-12T08:37:36.000Z</time>
      </trkpt>
      <trkpt lat="30.9760417938232422" lon="-6.9972062110900879">
        <ele>1199.0</ele>
        <time>2018-10-12T08:37:37.000Z</time>
      </trkpt>
      <trkpt lat="30.9760341644287109" lon="-6.9971508979797363">
        <ele>1199.0</ele>
        <time>2018-10-12T08:37:38.000Z</time>
      </trkpt>
      <trkpt lat="30.9760265350341797" lon="-6.9970970153808594">
        <ele>1199.0</ele>
        <time>2018-10-12T08:37:39.000Z</time>
      </trkpt>
      <trkpt lat="30.9760169982910156" lon="-6.9970440864562988">
        <ele>1199.0</ele>
        <time>2018-10-12T08:37:40.000Z</time>
      </trkpt>
      <trkpt lat="30.9760074615478516" lon="-6.9969930648803711">
        <ele>1199.0</ele>
        <time>2018-10-12T08:37:41.000Z</time>
      </trkpt>
      <trkpt lat="30.9759979248046875" lon="-6.9969429969787598">
        <ele>1199.0</ele>
        <time>2018-10-12T08:37:42.000Z</time>
      </trkpt>
      <trkpt lat="30.9759845733642578" lon="-6.9968929290771484">
        <ele>1199.0</ele>
        <time>2018-10-12T08:37:43.000Z</time>
      </trkpt>
      <trkpt lat="30.9759712219238281" lon="-6.9968409538269043">
        <ele>1199.0</ele>
        <time>2018-10-12T08:37:44.000Z</time>
      </trkpt>
      <trkpt lat="30.9759578704833984" lon="-6.9967861175537109">
        <ele>1199.821044921875</ele>
        <time>2018-10-12T08:37:45.000Z</time>
      </trkpt>
      <trkpt lat="30.9759445190429688" lon="-6.9967288970947266">
        <ele>1200.0</ele>
        <time>2018-10-12T08:37:46.000Z</time>
      </trkpt>
      <trkpt lat="30.9759311676025391" lon="-6.9966711997985840">
        <ele>1200.0</ele>
        <time>2018-10-12T08:37:47.000Z</time>
      </trkpt>
      <trkpt lat="30.9759178161621094" lon="-6.9966111183166504">
        <ele>1200.0</ele>
        <time>2018-10-12T08:37:48.000Z</time>
      </trkpt>
      <trkpt lat="30.9759044647216797" lon="-6.9965519905090332">
        <ele>1200.0</ele>
        <time>2018-10-12T08:37:49.000Z</time>
      </trkpt>
      <trkpt lat="30.9758949279785156" lon="-6.9964928627014160">
        <ele>1200.0</ele>
        <time>2018-10-12T08:37:50.000Z</time>
      </trkpt>
      <trkpt lat="30.9758834838867188" lon="-6.9964351654052734">
        <ele>1200.0</ele>
        <time>2018-10-12T08:37:51.000Z</time>
      </trkpt>
      <trkpt lat="30.9758739471435547" lon="-6.9963788986206055">
        <ele>1200.0</ele>
        <time>2018-10-12T08:37:52.000Z</time>
      </trkpt>
      <trkpt lat="30.9758625030517578" lon="-6.9963259696960449">
        <ele>1200.821044921875</ele>
        <time>2018-10-12T08:37:53.000Z</time>
      </trkpt>
      <trkpt lat="30.9758529663085938" lon="-6.9962739944458008">
        <ele>1201.0</ele>
        <time>2018-10-12T08:37:54.000Z</time>
      </trkpt>
      <trkpt lat="30.9758415222167969" lon="-6.9962248802185059">
        <ele>1201.0</ele>
        <time>2018-10-12T08:37:55.000Z</time>
      </trkpt>
      <trkpt lat="30.9758300781250000" lon="-6.9961771965026855">
        <ele>1201.0</ele>
        <time>2018-10-12T08:37:56.000Z</time>
      </trkpt>
      <trkpt lat="30.9758205413818359" lon="-6.9961290359497070">
        <ele>1201.0</ele>
        <time>2018-10-12T08:37:57.000Z</time>
      </trkpt>
      <trkpt lat="30.9758129119873047" lon="-6.9960789680480957">
        <ele>1201.0</ele>
        <time>2018-10-12T08:37:58.000Z</time>
      </trkpt>
      <trkpt lat="30.9758052825927734" lon="-6.9960289001464844">
        <ele>1201.0</ele>
        <time>2018-10-12T08:37:59.000Z</time>
      </trkpt>
      <trkpt lat="30.9757957458496094" lon="-6.9959797859191895">
        <ele>1201.0</ele>
        <time>2018-10-12T08:38:00.000Z</time>
      </trkpt>
      <trkpt lat="30.9757881164550781" lon="-6.9959311485290527">
        <ele>1201.631591796875</ele>
        <time>2018-10-12T08:38:01.000Z</time>
      </trkpt>
      <trkpt lat="30.9757785797119141" lon="-6.9958820343017578">
        <ele>1202.0</ele>
        <time>2018-10-12T08:38:02.000Z</time>
      </trkpt>
      <trkpt lat="30.9757690429687500" lon="-6.9958319664001465">
        <ele>1202.0</ele>
        <time>2018-10-12T08:38:03.000Z</time>
      </trkpt>
      <trkpt lat="30.9757595062255859" lon="-6.9957828521728516">
        <ele>1202.0</ele>
        <time>2018-10-12T08:38:04.000Z</time>
      </trkpt>
      <trkpt lat="30.9757499694824219" lon="-6.9957327842712402">
        <ele>1202.0</ele>
        <time>2018-10-12T08:38:05.000Z</time>
      </trkpt>
      <trkpt lat="30.9757404327392578" lon="-6.9956808090209961">
        <ele>1202.0</ele>
        <time>2018-10-12T08:38:06.000Z</time>
      </trkpt>
      <trkpt lat="30.9757308959960938" lon="-6.9956278800964355">
        <ele>1202.0</ele>
        <time>2018-10-12T08:38:07.000Z</time>
      </trkpt>
      <trkpt lat="30.9757213592529297" lon="-6.9955739974975586">
        <ele>1202.0</ele>
        <time>2018-10-12T08:38:08.000Z</time>
      </trkpt>
      <trkpt lat="30.9757118225097656" lon="-6.9955201148986816">
        <ele>1202.0</ele>
        <time>2018-10-12T08:38:09.000Z</time>
      </trkpt>
      <trkpt lat="30.9757003784179688" lon="-6.9954662322998047">
        <ele>1202.0</ele>
        <time>2018-10-12T08:38:10.000Z</time>
      </trkpt>
      <trkpt lat="30.9756927490234375" lon="-6.9954109191894531">
        <ele>1202.0</ele>
        <time>2018-10-12T08:38:11.000Z</time>
      </trkpt>
      <trkpt lat="30.9756832122802734" lon="-6.9953551292419434">
        <ele>1202.0</ele>
        <time>2018-10-12T08:38:12.000Z</time>
      </trkpt>
      <trkpt lat="30.9756755828857422" lon="-6.9952979087829590">
        <ele>1202.0</ele>
        <time>2018-10-12T08:38:13.000Z</time>
      </trkpt>
      <trkpt lat="30.9756679534912109" lon="-6.9952430725097656">
        <ele>1202.0</ele>
        <time>2018-10-12T08:38:14.000Z</time>
      </trkpt>
      <trkpt lat="30.9756622314453125" lon="-6.9951891899108887">
        <ele>1202.0</ele>
        <time>2018-10-12T08:38:15.000Z</time>
      </trkpt>
      <trkpt lat="30.9756565093994141" lon="-6.9951329231262207">
        <ele>1202.0</ele>
        <time>2018-10-12T08:38:16.000Z</time>
      </trkpt>
      <trkpt lat="30.9756507873535156" lon="-6.9950761795043945">
        <ele>1202.0</ele>
        <time>2018-10-12T08:38:17.000Z</time>
      </trkpt>
      <trkpt lat="30.9756450653076172" lon="-6.9950170516967773">
        <ele>1202.0</ele>
        <time>2018-10-12T08:38:18.000Z</time>
      </trkpt>
      <trkpt lat="30.9756393432617188" lon="-6.9949560165405273">
        <ele>1202.0</ele>
        <time>2018-10-12T08:38:19.000Z</time>
      </trkpt>
      <trkpt lat="30.9756355285644531" lon="-6.9948940277099609">
        <ele>1202.0</ele>
        <time>2018-10-12T08:38:20.000Z</time>
      </trkpt>
      <trkpt lat="30.9756317138671875" lon="-6.9948329925537109">
        <ele>1202.0</ele>
        <time>2018-10-12T08:38:21.000Z</time>
      </trkpt>
      <trkpt lat="30.9756278991699219" lon="-6.9947719573974609">
        <ele>1202.0</ele>
        <time>2018-10-12T08:38:22.000Z</time>
      </trkpt>
      <trkpt lat="30.9756202697753906" lon="-6.9947118759155273">
        <ele>1202.0</ele>
        <time>2018-10-12T08:38:23.000Z</time>
      </trkpt>
      <trkpt lat="30.9756145477294922" lon="-6.9946541786193848">
        <ele>1202.0</ele>
        <time>2018-10-12T08:38:24.000Z</time>
      </trkpt>
      <trkpt lat="30.9756107330322266" lon="-6.9945969581604004">
        <ele>1202.0</ele>
        <time>2018-10-12T08:38:25.000Z</time>
      </trkpt>
      <trkpt lat="30.9756050109863281" lon="-6.9945402145385742">
        <ele>1202.0</ele>
        <time>2018-10-12T08:38:26.000Z</time>
      </trkpt>
      <trkpt lat="30.9756011962890625" lon="-6.9944829940795898">
        <ele>1202.0</ele>
        <time>2018-10-12T08:38:27.000Z</time>
      </trkpt>
      <trkpt lat="30.9755973815917969" lon="-6.9944257736206055">
        <ele>1202.0</ele>
        <time>2018-10-12T08:38:28.000Z</time>
      </trkpt>
      <trkpt lat="30.9755935668945312" lon="-6.9943690299987793">
        <ele>1202.0</ele>
        <time>2018-10-12T08:38:29.000Z</time>
      </trkpt>
      <trkpt lat="30.9755878448486328" lon="-6.9943141937255859">
        <ele>1202.821044921875</ele>
        <time>2018-10-12T08:38:30.000Z</time>
      </trkpt>
      <trkpt lat="30.9755802154541016" lon="-6.9942622184753418">
        <ele>1203.0</ele>
        <time>2018-10-12T08:38:31.000Z</time>
      </trkpt>
      <trkpt lat="30.9755744934082031" lon="-6.9942150115966797">
        <ele>1203.0</ele>
        <time>2018-10-12T08:38:32.000Z</time>
      </trkpt>
      <trkpt lat="30.9755706787109375" lon="-6.9941720962524414">
        <ele>1203.0</ele>
        <time>2018-10-12T08:38:33.000Z</time>
      </trkpt>
      <trkpt lat="30.9755649566650391" lon="-6.9941267967224121">
        <ele>1203.0</ele>
        <time>2018-10-12T08:38:34.000Z</time>
      </trkpt>
      <trkpt lat="30.9755592346191406" lon="-6.9940819740295410">
        <ele>1203.0</ele>
        <time>2018-10-12T08:38:35.000Z</time>
      </trkpt>
      <trkpt lat="30.9755554199218750" lon="-6.9940371513366699">
        <ele>1203.0</ele>
        <time>2018-10-12T08:38:36.000Z</time>
      </trkpt>
      <trkpt lat="30.9755516052246094" lon="-6.9939928054809570">
        <ele>1203.0</ele>
        <time>2018-10-12T08:38:37.000Z</time>
      </trkpt>
      <trkpt lat="30.9755477905273438" lon="-6.9939541816711426">
        <ele>1203.821044921875</ele>
        <time>2018-10-12T08:38:38.000Z</time>
      </trkpt>
      <trkpt lat="30.9755458831787109" lon="-6.9939298629760742">
        <ele>1204.0</ele>
        <time>2018-10-12T08:38:39.000Z</time>
      </trkpt>
      <trkpt lat="30.9755401611328125" lon="-6.9939041137695312">
        <ele>1203.821044921875</ele>
        <time>2018-10-12T08:41:44.000Z</time>
      </trkpt>
      <trkpt lat="30.9755325317382812" lon="-6.9938840866088867">
        <ele>1204.0</ele>
        <time>2018-10-12T08:41:45.000Z</time>
      </trkpt>
      <trkpt lat="30.9755172729492188" lon="-6.9938650131225586">
        <ele>1204.0</ele>
        <time>2018-10-12T08:41:46.000Z</time>
      </trkpt>
      <trkpt lat="30.9754981994628906" lon="-6.9938530921936035">
        <ele>1204.0</ele>
        <time>2018-10-12T08:41:47.000Z</time>
      </trkpt>
      <trkpt lat="30.9754791259765625" lon="-6.9938478469848633">
        <ele>1204.0</ele>
        <time>2018-10-12T08:41:48.000Z</time>
      </trkpt>
      <trkpt lat="30.9754600524902344" lon="-6.9938459396362305">
        <ele>1204.0</ele>
        <time>2018-10-12T08:41:49.000Z</time>
      </trkpt>
      <trkpt lat="30.9754257202148438" lon="-6.9938430786132812">
        <ele>1204.0</ele>
        <time>2018-10-12T08:41:51.000Z</time>
      </trkpt>
      <trkpt lat="30.9753913879394531" lon="-6.9938421249389648">
        <ele>1204.0</ele>
        <time>2018-10-12T08:41:53.000Z</time>
      </trkpt>
      <trkpt lat="30.9753608703613281" lon="-6.9938359260559082">
        <ele>1204.0</ele>
        <time>2018-10-12T08:41:55.000Z</time>
      </trkpt>
      <trkpt lat="30.9753284454345703" lon="-6.9938149452209473">
        <ele>1204.0</ele>
        <time>2018-10-12T08:41:57.000Z</time>
      </trkpt>
      <trkpt lat="30.9753112792968750" lon="-6.9938020706176758">
        <ele>1204.0</ele>
        <time>2018-10-12T08:41:58.000Z</time>
      </trkpt>
      <trkpt lat="30.9752941131591797" lon="-6.9937911033630371">
        <ele>1204.0</ele>
        <time>2018-10-12T08:41:59.000Z</time>
      </trkpt>
      <trkpt lat="30.9752769470214844" lon="-6.9937801361083984">
        <ele>1204.0</ele>
        <time>2018-10-12T08:42:00.000Z</time>
      </trkpt>
      <trkpt lat="30.9752597808837891" lon="-6.9937710762023926">
        <ele>1204.0</ele>
        <time>2018-10-12T08:42:01.000Z</time>
      </trkpt>
      <trkpt lat="30.9752426147460938" lon="-6.9937620162963867">
        <ele>1204.0</ele>
        <time>2018-10-12T08:42:02.000Z</time>
      </trkpt>
      <trkpt lat="30.9752178192138672" lon="-6.9937491416931152">
        <ele>1204.0</ele>
        <time>2018-10-12T08:42:04.000Z</time>
      </trkpt>
      <trkpt lat="30.9751911163330078" lon="-6.9937419891357422">
        <ele>1204.0</ele>
        <time>2018-10-12T08:42:06.000Z</time>
      </trkpt>
      <trkpt lat="30.9751605987548828" lon="-6.9937348365783691">
        <ele>1204.0</ele>
        <time>2018-10-12T08:42:08.000Z</time>
      </trkpt>
      <trkpt lat="30.9751415252685547" lon="-6.9937281608581543">
        <ele>1204.0</ele>
        <time>2018-10-12T08:42:09.000Z</time>
      </trkpt>
      <trkpt lat="30.9751167297363281" lon="-6.9937219619750977">
        <ele>1204.0</ele>
        <time>2018-10-12T08:42:10.000Z</time>
      </trkpt>
      <trkpt lat="30.9750881195068359" lon="-6.9937181472778320">
        <ele>1204.0</ele>
        <time>2018-10-12T08:42:11.000Z</time>
      </trkpt>
      <trkpt lat="30.9750595092773438" lon="-6.9937138557434082">
        <ele>1204.0</ele>
        <time>2018-10-12T08:42:12.000Z</time>
      </trkpt>
      <trkpt lat="30.9750308990478516" lon="-6.9937109947204590">
        <ele>1204.0</ele>
        <time>2018-10-12T08:42:13.000Z</time>
      </trkpt>
      <trkpt lat="30.9750003814697266" lon="-6.9937081336975098">
        <ele>1204.0</ele>
        <time>2018-10-12T08:42:14.000Z</time>
      </trkpt>
      <trkpt lat="30.9749717712402344" lon="-6.9937071800231934">
        <ele>1204.0</ele>
        <time>2018-10-12T08:42:15.000Z</time>
      </trkpt>
      <trkpt lat="30.9749431610107422" lon="-6.9937071800231934">
        <ele>1204.0</ele>
        <time>2018-10-12T08:42:16.000Z</time>
      </trkpt>
      <trkpt lat="30.9749145507812500" lon="-6.9937081336975098">
        <ele>1204.0</ele>
        <time>2018-10-12T08:42:17.000Z</time>
      </trkpt>
      <trkpt lat="30.9748859405517578" lon="-6.9937090873718262">
        <ele>1204.0</ele>
        <time>2018-10-12T08:42:18.000Z</time>
      </trkpt>
      <trkpt lat="30.9748554229736328" lon="-6.9937119483947754">
        <ele>1204.0</ele>
        <time>2018-10-12T08:42:19.000Z</time>
      </trkpt>
      <trkpt lat="30.9748249053955078" lon="-6.9937148094177246">
        <ele>1204.0</ele>
        <time>2018-10-12T08:42:20.000Z</time>
      </trkpt>
      <trkpt lat="30.9747962951660156" lon="-6.9937191009521484">
        <ele>1204.0</ele>
        <time>2018-10-12T08:42:21.000Z</time>
      </trkpt>
      <trkpt lat="30.9747657775878906" lon="-6.9937229156494141">
        <ele>1204.0</ele>
        <time>2018-10-12T08:42:22.000Z</time>
      </trkpt>
      <trkpt lat="30.9747371673583984" lon="-6.9937291145324707">
        <ele>1204.0</ele>
        <time>2018-10-12T08:42:23.000Z</time>
      </trkpt>
      <trkpt lat="30.9747104644775391" lon="-6.9937372207641602">
        <ele>1204.0</ele>
        <time>2018-10-12T08:42:24.000Z</time>
      </trkpt>
      <trkpt lat="30.9746818542480469" lon="-6.9937448501586914">
        <ele>1204.0</ele>
        <time>2018-10-12T08:42:25.000Z</time>
      </trkpt>
      <trkpt lat="30.9746513366699219" lon="-6.9937548637390137">
        <ele>1204.0</ele>
        <time>2018-10-12T08:42:26.000Z</time>
      </trkpt>
      <trkpt lat="30.9746227264404297" lon="-6.9937667846679688">
        <ele>1204.0</ele>
        <time>2018-10-12T08:42:27.000Z</time>
      </trkpt>
      <trkpt lat="30.9745941162109375" lon="-6.9937820434570312">
        <ele>1204.0</ele>
        <time>2018-10-12T08:42:28.000Z</time>
      </trkpt>
      <trkpt lat="30.9745655059814453" lon="-6.9937992095947266">
        <ele>1204.0</ele>
        <time>2018-10-12T08:42:29.000Z</time>
      </trkpt>
      <trkpt lat="30.9745388031005859" lon="-6.9938192367553711">
        <ele>1204.0</ele>
        <time>2018-10-12T08:42:30.000Z</time>
      </trkpt>
      <trkpt lat="30.9745082855224609" lon="-6.9938421249389648">
        <ele>1204.0</ele>
        <time>2018-10-12T08:42:31.000Z</time>
      </trkpt>
      <trkpt lat="30.9744815826416016" lon="-6.9938659667968750">
        <ele>1204.0</ele>
        <time>2018-10-12T08:42:32.000Z</time>
      </trkpt>
      <trkpt lat="30.9744548797607422" lon="-6.9938921928405762">
        <ele>1204.821044921875</ele>
        <time>2018-10-12T08:42:33.000Z</time>
      </trkpt>
      <trkpt lat="30.9744281768798828" lon="-6.9939198493957520">
        <ele>1205.0</ele>
        <time>2018-10-12T08:42:34.000Z</time>
      </trkpt>
      <trkpt lat="30.9744014739990234" lon="-6.9939479827880859">
        <ele>1205.0</ele>
        <time>2018-10-12T08:42:35.000Z</time>
      </trkpt>
      <trkpt lat="30.9743747711181641" lon="-6.9939751625061035">
        <ele>1205.0</ele>
        <time>2018-10-12T08:42:36.000Z</time>
      </trkpt>
      <trkpt lat="30.9743461608886719" lon="-6.9940028190612793">
        <ele>1205.0</ele>
        <time>2018-10-12T08:42:37.000Z</time>
      </trkpt>
      <trkpt lat="30.9743194580078125" lon="-6.9940319061279297">
        <ele>1205.0</ele>
        <time>2018-10-12T08:42:38.000Z</time>
      </trkpt>
      <trkpt lat="30.9742908477783203" lon="-6.9940619468688965">
        <ele>1205.0</ele>
        <time>2018-10-12T08:42:39.000Z</time>
      </trkpt>
      <trkpt lat="30.9742622375488281" lon="-6.9940900802612305">
        <ele>1205.0</ele>
        <time>2018-10-12T08:42:40.000Z</time>
      </trkpt>
      <trkpt lat="30.9742355346679688" lon="-6.9941167831420898">
        <ele>1205.0</ele>
        <time>2018-10-12T08:42:41.000Z</time>
      </trkpt>
      <trkpt lat="30.9742069244384766" lon="-6.9941458702087402">
        <ele>1205.0</ele>
        <time>2018-10-12T08:42:42.000Z</time>
      </trkpt>
      <trkpt lat="30.9741783142089844" lon="-6.9941749572753906">
        <ele>1205.0</ele>
        <time>2018-10-12T08:42:43.000Z</time>
      </trkpt>
      <trkpt lat="30.9741516113281250" lon="-6.9942049980163574">
        <ele>1205.0</ele>
        <time>2018-10-12T08:42:44.000Z</time>
      </trkpt>
      <trkpt lat="30.9741210937500000" lon="-6.9942350387573242">
        <ele>1205.0</ele>
        <time>2018-10-12T08:42:45.000Z</time>
      </trkpt>
      <trkpt lat="30.9740943908691406" lon="-6.9942650794982910">
        <ele>1205.0</ele>
        <time>2018-10-12T08:42:46.000Z</time>
      </trkpt>
      <trkpt lat="30.9740657806396484" lon="-6.9942960739135742">
        <ele>1205.0</ele>
        <time>2018-10-12T08:42:47.000Z</time>
      </trkpt>
      <trkpt lat="30.9740352630615234" lon="-6.9943270683288574">
        <ele>1205.0</ele>
        <time>2018-10-12T08:42:48.000Z</time>
      </trkpt>
      <trkpt lat="30.9740066528320312" lon="-6.9943590164184570">
        <ele>1205.0</ele>
        <time>2018-10-12T08:42:49.000Z</time>
      </trkpt>
      <trkpt lat="30.9739780426025391" lon="-6.9943890571594238">
        <ele>1205.0</ele>
        <time>2018-10-12T08:42:50.000Z</time>
      </trkpt>
      <trkpt lat="30.9739494323730469" lon="-6.9944200515747070">
        <ele>1205.0</ele>
        <time>2018-10-12T08:42:51.000Z</time>
      </trkpt>
      <trkpt lat="30.9739208221435547" lon="-6.9944481849670410">
        <ele>1205.0</ele>
        <time>2018-10-12T08:42:52.000Z</time>
      </trkpt>
      <trkpt lat="30.9738922119140625" lon="-6.9944758415222168">
        <ele>1205.821044921875</ele>
        <time>2018-10-12T08:42:53.000Z</time>
      </trkpt>
      <trkpt lat="30.9738655090332031" lon="-6.9945039749145508">
        <ele>1206.0</ele>
        <time>2018-10-12T08:42:54.000Z</time>
      </trkpt>
      <trkpt lat="30.9738368988037109" lon="-6.9945321083068848">
        <ele>1206.0</ele>
        <time>2018-10-12T08:42:55.000Z</time>
      </trkpt>
      <trkpt lat="30.9738063812255859" lon="-6.9945588111877441">
        <ele>1206.0</ele>
        <time>2018-10-12T08:42:56.000Z</time>
      </trkpt>
      <trkpt lat="30.9737758636474609" lon="-6.9945850372314453">
        <ele>1206.0</ele>
        <time>2018-10-12T08:42:57.000Z</time>
      </trkpt>
      <trkpt lat="30.9737453460693359" lon="-6.9946098327636719">
        <ele>1206.0</ele>
        <time>2018-10-12T08:42:58.000Z</time>
      </trkpt>
      <trkpt lat="30.9737148284912109" lon="-6.9946351051330566">
        <ele>1206.0</ele>
        <time>2018-10-12T08:42:59.000Z</time>
      </trkpt>
      <trkpt lat="30.9736824035644531" lon="-6.9946589469909668">
        <ele>1206.0</ele>
        <time>2018-10-12T08:43:00.000Z</time>
      </trkpt>
      <trkpt lat="30.9736461639404297" lon="-6.9946818351745605">
        <ele>1206.0</ele>
        <time>2018-10-12T08:43:01.000Z</time>
      </trkpt>
      <trkpt lat="30.9736099243164062" lon="-6.9947061538696289">
        <ele>1205.178955078125</ele>
        <time>2018-10-12T08:43:02.000Z</time>
      </trkpt>
      <trkpt lat="30.9735698699951172" lon="-6.9947290420532227">
        <ele>1204.363525390625</ele>
        <time>2018-10-12T08:43:03.000Z</time>
      </trkpt>
      <trkpt lat="30.9735260009765625" lon="-6.9947500228881836">
        <ele>1204.7479248046875</ele>
        <time>2018-10-12T08:43:04.000Z</time>
      </trkpt>
      <trkpt lat="30.9734783172607422" lon="-6.9947710037231445">
        <ele>1205.0</ele>
        <time>2018-10-12T08:43:05.000Z</time>
      </trkpt>
      <trkpt lat="30.9734306335449219" lon="-6.9947929382324219">
        <ele>1205.0</ele>
        <time>2018-10-12T08:43:06.000Z</time>
      </trkpt>
      <trkpt lat="30.9733829498291016" lon="-6.9948167800903320">
        <ele>1205.0</ele>
        <time>2018-10-12T08:43:07.000Z</time>
      </trkpt>
      <trkpt lat="30.9733333587646484" lon="-6.9948401451110840">
        <ele>1204.178955078125</ele>
        <time>2018-10-12T08:43:08.000Z</time>
      </trkpt>
      <trkpt lat="30.9732837677001953" lon="-6.9948639869689941">
        <ele>1204.0</ele>
        <time>2018-10-12T08:43:09.000Z</time>
      </trkpt>
      <trkpt lat="30.9732322692871094" lon="-6.9948878288269043">
        <ele>1204.0</ele>
        <time>2018-10-12T08:43:10.000Z</time>
      </trkpt>
      <trkpt lat="30.9731807708740234" lon="-6.9949131011962891">
        <ele>1204.0</ele>
        <time>2018-10-12T08:43:11.000Z</time>
      </trkpt>
      <trkpt lat="30.9731292724609375" lon="-6.9949398040771484">
        <ele>1204.0</ele>
        <time>2018-10-12T08:43:12.000Z</time>
      </trkpt>
      <trkpt lat="30.9730758666992188" lon="-6.9949698448181152">
        <ele>1204.0</ele>
        <time>2018-10-12T08:43:13.000Z</time>
      </trkpt>
      <trkpt lat="30.9730186462402344" lon="-6.9950008392333984">
        <ele>1204.0</ele>
        <time>2018-10-12T08:43:14.000Z</time>
      </trkpt>
      <trkpt lat="30.9729614257812500" lon="-6.9950351715087891">
        <ele>1204.0</ele>
        <time>2018-10-12T08:43:15.000Z</time>
      </trkpt>
      <trkpt lat="30.9729061126708984" lon="-6.9950728416442871">
        <ele>1204.0</ele>
        <time>2018-10-12T08:43:16.000Z</time>
      </trkpt>
      <trkpt lat="30.9728488922119141" lon="-6.9951138496398926">
        <ele>1204.0</ele>
        <time>2018-10-12T08:43:17.000Z</time>
      </trkpt>
      <trkpt lat="30.9727916717529297" lon="-6.9951567649841309">
        <ele>1204.0</ele>
        <time>2018-10-12T08:43:18.000Z</time>
      </trkpt>
      <trkpt lat="30.9727363586425781" lon="-6.9952030181884766">
        <ele>1204.0</ele>
        <time>2018-10-12T08:43:19.000Z</time>
      </trkpt>
      <trkpt lat="30.9726810455322266" lon="-6.9952502250671387">
        <ele>1203.373291015625</ele>
        <time>2018-10-12T08:43:20.000Z</time>
      </trkpt>
      <trkpt lat="30.9726276397705078" lon="-6.9952998161315918">
        <ele>1203.0</ele>
        <time>2018-10-12T08:43:21.000Z</time>
      </trkpt>
      <trkpt lat="30.9725761413574219" lon="-6.9953517913818359">
        <ele>1203.0</ele>
        <time>2018-10-12T08:43:22.000Z</time>
      </trkpt>
      <trkpt lat="30.9725284576416016" lon="-6.9954061508178711">
        <ele>1203.0</ele>
        <time>2018-10-12T08:43:23.000Z</time>
      </trkpt>
      <trkpt lat="30.9724788665771484" lon="-6.9954628944396973">
        <ele>1202.363525390625</ele>
        <time>2018-10-12T08:43:24.000Z</time>
      </trkpt>
      <trkpt lat="30.9724311828613281" lon="-6.9955210685729980">
        <ele>1202.0</ele>
        <time>2018-10-12T08:43:25.000Z</time>
      </trkpt>
      <trkpt lat="30.9723854064941406" lon="-6.9955811500549316">
        <ele>1202.0</ele>
        <time>2018-10-12T08:43:26.000Z</time>
      </trkpt>
      <trkpt lat="30.9723415374755859" lon="-6.9956421852111816">
        <ele>1202.0</ele>
        <time>2018-10-12T08:43:27.000Z</time>
      </trkpt>
      <trkpt lat="30.9722995758056641" lon="-6.9957032203674316">
        <ele>1202.0</ele>
        <time>2018-10-12T08:43:28.000Z</time>
      </trkpt>
      <trkpt lat="30.9722557067871094" lon="-6.9957661628723145">
        <ele>1202.0</ele>
        <time>2018-10-12T08:43:29.000Z</time>
      </trkpt>
      <trkpt lat="30.9722137451171875" lon="-6.9958310127258301">
        <ele>1202.0</ele>
        <time>2018-10-12T08:43:30.000Z</time>
      </trkpt>
      <trkpt lat="30.9721679687500000" lon="-6.9958939552307129">
        <ele>1201.178955078125</ele>
        <time>2018-10-12T08:43:31.000Z</time>
      </trkpt>
      <trkpt lat="30.9721221923828125" lon="-6.9959559440612793">
        <ele>1201.0</ele>
        <time>2018-10-12T08:43:32.000Z</time>
      </trkpt>
      <trkpt lat="30.9720783233642578" lon="-6.9960160255432129">
        <ele>1201.0</ele>
        <time>2018-10-12T08:43:33.000Z</time>
      </trkpt>
      <trkpt lat="30.9720344543457031" lon="-6.9960741996765137">
        <ele>1201.0</ele>
        <time>2018-10-12T08:43:34.000Z</time>
      </trkpt>
      <trkpt lat="30.9719905853271484" lon="-6.9961309432983398">
        <ele>1201.0</ele>
        <time>2018-10-12T08:43:35.000Z</time>
      </trkpt>
      <trkpt lat="30.9719486236572266" lon="-6.9961881637573242">
        <ele>1201.0</ele>
        <time>2018-10-12T08:43:36.000Z</time>
      </trkpt>
      <trkpt lat="30.9719047546386719" lon="-6.9962458610534668">
        <ele>1200.178955078125</ele>
        <time>2018-10-12T08:43:37.000Z</time>
      </trkpt>
      <trkpt lat="30.9718589782714844" lon="-6.9963030815124512">
        <ele>1200.0</ele>
        <time>2018-10-12T08:43:38.000Z</time>
      </trkpt>
      <trkpt lat="30.9718151092529297" lon="-6.9963622093200684">
        <ele>1200.0</ele>
        <time>2018-10-12T08:43:39.000Z</time>
      </trkpt>
      <trkpt lat="30.9717693328857422" lon="-6.9964199066162109">
        <ele>1200.0</ele>
        <time>2018-10-12T08:43:40.000Z</time>
      </trkpt>
      <trkpt lat="30.9717235565185547" lon="-6.9964790344238281">
        <ele>1199.1845703125</ele>
        <time>2018-10-12T08:43:41.000Z</time>
      </trkpt>
      <trkpt lat="30.9716777801513672" lon="-6.9965381622314453">
        <ele>1199.0</ele>
        <time>2018-10-12T08:43:42.000Z</time>
      </trkpt>
      <trkpt lat="30.9716300964355469" lon="-6.9965958595275879">
        <ele>1199.0</ele>
        <time>2018-10-12T08:43:43.000Z</time>
      </trkpt>
      <trkpt lat="30.9715805053710938" lon="-6.9966511726379395">
        <ele>1199.0</ele>
        <time>2018-10-12T08:43:44.000Z</time>
      </trkpt>
      <trkpt lat="30.9715309143066406" lon="-6.9967041015625000">
        <ele>1199.0</ele>
        <time>2018-10-12T08:43:45.000Z</time>
      </trkpt>
      <trkpt lat="30.9714794158935547" lon="-6.9967541694641113">
        <ele>1199.0</ele>
        <time>2018-10-12T08:43:46.000Z</time>
      </trkpt>
      <trkpt lat="30.9714279174804688" lon="-6.9968018531799316">
        <ele>1199.0</ele>
        <time>2018-10-12T08:43:47.000Z</time>
      </trkpt>
      <trkpt lat="30.9713726043701172" lon="-6.9968471527099609">
        <ele>1199.0</ele>
        <time>2018-10-12T08:43:48.000Z</time>
      </trkpt>
      <trkpt lat="30.9713172912597656" lon="-6.9968872070312500">
        <ele>1199.0</ele>
        <time>2018-10-12T08:43:49.000Z</time>
      </trkpt>
      <trkpt lat="30.9712600708007812" lon="-6.9969210624694824">
        <ele>1199.0</ele>
        <time>2018-10-12T08:43:50.000Z</time>
      </trkpt>
      <trkpt lat="30.9712066650390625" lon="-6.9969520568847656">
        <ele>1199.0</ele>
        <time>2018-10-12T08:43:51.000Z</time>
      </trkpt>
      <trkpt lat="30.9711513519287109" lon="-6.9969820976257324">
        <ele>1199.0</ele>
        <time>2018-10-12T08:43:52.000Z</time>
      </trkpt>
      <trkpt lat="30.9710960388183594" lon="-6.9970121383666992">
        <ele>1199.0</ele>
        <time>2018-10-12T08:43:53.000Z</time>
      </trkpt>
      <trkpt lat="30.9710388183593750" lon="-6.9970412254333496">
        <ele>1199.0</ele>
        <time>2018-10-12T08:43:54.000Z</time>
      </trkpt>
      <trkpt lat="30.9709815979003906" lon="-6.9970722198486328">
        <ele>1199.0</ele>
        <time>2018-10-12T08:43:55.000Z</time>
      </trkpt>
      <trkpt lat="30.9709243774414062" lon="-6.9971041679382324">
        <ele>1199.0</ele>
        <time>2018-10-12T08:43:56.000Z</time>
      </trkpt>
      <trkpt lat="30.9708633422851562" lon="-6.9971342086791992">
        <ele>1198.3780517578125</ele>
        <time>2018-10-12T08:43:57.000Z</time>
      </trkpt>
      <trkpt lat="30.9708061218261719" lon="-6.9971618652343750">
        <ele>1198.0</ele>
        <time>2018-10-12T08:43:58.000Z</time>
      </trkpt>
      <trkpt lat="30.9707489013671875" lon="-6.9971909523010254">
        <ele>1198.0</ele>
        <time>2018-10-12T08:43:59.000Z</time>
      </trkpt>
      <trkpt lat="30.9706916809082031" lon="-6.9972190856933594">
        <ele>1198.0</ele>
        <time>2018-10-12T08:44:00.000Z</time>
      </trkpt>
      <trkpt lat="30.9706344604492188" lon="-6.9972457885742188">
        <ele>1198.0</ele>
        <time>2018-10-12T08:44:01.000Z</time>
      </trkpt>
      <trkpt lat="30.9705810546875000" lon="-6.9972710609436035">
        <ele>1198.636474609375</ele>
        <time>2018-10-12T08:44:02.000Z</time>
      </trkpt>
      <trkpt lat="30.9705295562744141" lon="-6.9972939491271973">
        <ele>1199.0</ele>
        <time>2018-10-12T08:44:03.000Z</time>
      </trkpt>
      <trkpt lat="30.9704837799072266" lon="-6.9973149299621582">
        <ele>1199.0</ele>
        <time>2018-10-12T08:44:04.000Z</time>
      </trkpt>
      <trkpt lat="30.9704360961914062" lon="-6.9973320960998535">
        <ele>1199.0</ele>
        <time>2018-10-12T08:44:05.000Z</time>
      </trkpt>
      <trkpt lat="30.9703941345214844" lon="-6.9973468780517578">
        <ele>1199.821044921875</ele>
        <time>2018-10-12T08:44:06.000Z</time>
      </trkpt>
      <trkpt lat="30.9703540802001953" lon="-6.9973630905151367">
        <ele>1200.0</ele>
        <time>2018-10-12T08:44:07.000Z</time>
      </trkpt>
      <trkpt lat="30.9703102111816406" lon="-6.9973788261413574">
        <ele>1200.0</ele>
        <time>2018-10-12T08:44:08.000Z</time>
      </trkpt>
      <trkpt lat="30.9702644348144531" lon="-6.9973959922790527">
        <ele>1200.0</ele>
        <time>2018-10-12T08:44:09.000Z</time>
      </trkpt>
      <trkpt lat="30.9702167510986328" lon="-6.9974141120910645">
        <ele>1199.178955078125</ele>
        <time>2018-10-12T08:44:10.000Z</time>
      </trkpt>
      <trkpt lat="30.9701652526855469" lon="-6.9974341392517090">
        <ele>1199.0</ele>
        <time>2018-10-12T08:44:11.000Z</time>
      </trkpt>
      <trkpt lat="30.9701137542724609" lon="-6.9974560737609863">
        <ele>1199.0</ele>
        <time>2018-10-12T08:44:12.000Z</time>
      </trkpt>
      <trkpt lat="30.9700622558593750" lon="-6.9974770545959473">
        <ele>1199.0</ele>
        <time>2018-10-12T08:44:13.000Z</time>
      </trkpt>
      <trkpt lat="30.9700107574462891" lon="-6.9974970817565918">
        <ele>1199.0</ele>
        <time>2018-10-12T08:44:14.000Z</time>
      </trkpt>
      <trkpt lat="30.9699573516845703" lon="-6.9975171089172363">
        <ele>1199.0</ele>
        <time>2018-10-12T08:44:15.000Z</time>
      </trkpt>
      <trkpt lat="30.9699039459228516" lon="-6.9975380897521973">
        <ele>1199.0</ele>
        <time>2018-10-12T08:44:16.000Z</time>
      </trkpt>
      <trkpt lat="30.9698467254638672" lon="-6.9975590705871582">
        <ele>1198.2593994140625</ele>
        <time>2018-10-12T08:44:17.000Z</time>
      </trkpt>
      <trkpt lat="30.9697856903076172" lon="-6.9975819587707520">
        <ele>1198.0</ele>
        <time>2018-10-12T08:44:18.000Z</time>
      </trkpt>
      <trkpt lat="30.9697189331054688" lon="-6.9976072311401367">
        <ele>1198.0</ele>
        <time>2018-10-12T08:44:19.000Z</time>
      </trkpt>
      <trkpt lat="30.9696483612060547" lon="-6.9976320266723633">
        <ele>1197.2520751953125</ele>
        <time>2018-10-12T08:44:20.000Z</time>
      </trkpt>
      <trkpt lat="30.9695777893066406" lon="-6.9976577758789062">
        <ele>1197.0</ele>
        <time>2018-10-12T08:44:21.000Z</time>
      </trkpt>
      <trkpt lat="30.9695053100585938" lon="-6.9976849555969238">
        <ele>1197.0</ele>
        <time>2018-10-12T08:44:22.000Z</time>
      </trkpt>
      <trkpt lat="30.9694328308105469" lon="-6.9977111816406250">
        <ele>1196.3780517578125</ele>
        <time>2018-10-12T08:44:23.000Z</time>
      </trkpt>
      <trkpt lat="30.9693584442138672" lon="-6.9977369308471680">
        <ele>1196.0</ele>
        <time>2018-10-12T08:44:24.000Z</time>
      </trkpt>
      <trkpt lat="30.9692859649658203" lon="-6.9977607727050781">
        <ele>1196.0</ele>
        <time>2018-10-12T08:44:25.000Z</time>
      </trkpt>
      <trkpt lat="30.9692173004150391" lon="-6.9977831840515137">
        <ele>1196.0</ele>
        <time>2018-10-12T08:44:26.000Z</time>
      </trkpt>
      <trkpt lat="30.9691543579101562" lon="-6.9978032112121582">
        <ele>1196.0</ele>
        <time>2018-10-12T08:44:27.000Z</time>
      </trkpt>
      <trkpt lat="30.9690971374511719" lon="-6.9978241920471191">
        <ele>1196.0</ele>
        <time>2018-10-12T08:44:28.000Z</time>
      </trkpt>
      <trkpt lat="30.9690437316894531" lon="-6.9978427886962891">
        <ele>1196.821044921875</ele>
        <time>2018-10-12T08:44:29.000Z</time>
      </trkpt>
      <trkpt lat="30.9689960479736328" lon="-6.9978580474853516">
        <ele>1197.0</ele>
        <time>2018-10-12T08:44:30.000Z</time>
      </trkpt>
      <trkpt lat="30.9689579010009766" lon="-6.9978718757629395">
        <ele>1197.0</ele>
        <time>2018-10-12T08:44:31.000Z</time>
      </trkpt>
      <trkpt lat="30.9689235687255859" lon="-6.9978818893432617">
        <ele>1197.0</ele>
        <time>2018-10-12T08:44:32.000Z</time>
      </trkpt>
      <trkpt lat="30.9688949584960938" lon="-6.9978909492492676">
        <ele>1197.626708984375</ele>
        <time>2018-10-12T08:44:33.000Z</time>
      </trkpt>
      <trkpt lat="30.9688682556152344" lon="-6.9978990554809570">
        <ele>1198.0</ele>
        <time>2018-10-12T08:44:34.000Z</time>
      </trkpt>
      <trkpt lat="30.9688415527343750" lon="-6.9979090690612793">
        <ele>1198.0</ele>
        <time>2018-10-12T08:44:35.000Z</time>
      </trkpt>
      <trkpt lat="30.9688129425048828" lon="-6.9979181289672852">
        <ele>1198.0</ele>
        <time>2018-10-12T08:44:36.000Z</time>
      </trkpt>
      <trkpt lat="30.9687786102294922" lon="-6.9979281425476074">
        <ele>1198.0</ele>
        <time>2018-10-12T08:44:37.000Z</time>
      </trkpt>
      <trkpt lat="30.9687404632568359" lon="-6.9979381561279297">
        <ele>1197.1807861328125</ele>
        <time>2018-10-12T08:44:38.000Z</time>
      </trkpt>
      <trkpt lat="30.9686985015869141" lon="-6.9979500770568848">
        <ele>1197.0</ele>
        <time>2018-10-12T08:44:39.000Z</time>
      </trkpt>
      <trkpt lat="30.9686527252197266" lon="-6.9979610443115234">
        <ele>1197.0</ele>
        <time>2018-10-12T08:44:40.000Z</time>
      </trkpt>
      <trkpt lat="30.9685993194580078" lon="-6.9979710578918457">
        <ele>1197.0</ele>
        <time>2018-10-12T08:44:41.000Z</time>
      </trkpt>
      <trkpt lat="30.9685440063476562" lon="-6.9979801177978516">
        <ele>1197.0</ele>
        <time>2018-10-12T08:44:42.000Z</time>
      </trkpt>
      <trkpt lat="30.9684867858886719" lon="-6.9979910850524902">
        <ele>1196.373291015625</ele>
        <time>2018-10-12T08:44:43.000Z</time>
      </trkpt>
      <trkpt lat="30.9684257507324219" lon="-6.9980001449584961">
        <ele>1196.0</ele>
        <time>2018-10-12T08:44:44.000Z</time>
      </trkpt>
      <trkpt lat="30.9683647155761719" lon="-6.9980092048645020">
        <ele>1196.0</ele>
        <time>2018-10-12T08:44:45.000Z</time>
      </trkpt>
      <trkpt lat="30.9683055877685547" lon="-6.9980168342590332">
        <ele>1196.0</ele>
        <time>2018-10-12T08:44:46.000Z</time>
      </trkpt>
      <trkpt lat="30.9682464599609375" lon="-6.9980268478393555">
        <ele>1196.0</ele>
        <time>2018-10-12T08:44:47.000Z</time>
      </trkpt>
      <trkpt lat="30.9681873321533203" lon="-6.9980368614196777">
        <ele>1195.1807861328125</ele>
        <time>2018-10-12T08:44:48.000Z</time>
      </trkpt>
      <trkpt lat="30.9681282043457031" lon="-6.9980440139770508">
        <ele>1195.0</ele>
        <time>2018-10-12T08:44:49.000Z</time>
      </trkpt>
      <trkpt lat="30.9680671691894531" lon="-6.9980511665344238">
        <ele>1195.0</ele>
        <time>2018-10-12T08:44:50.000Z</time>
      </trkpt>
      <trkpt lat="30.9680080413818359" lon="-6.9980568885803223">
        <ele>1195.0</ele>
        <time>2018-10-12T08:44:51.000Z</time>
      </trkpt>
      <trkpt lat="30.9679470062255859" lon="-6.9980611801147461">
        <ele>1195.0</ele>
        <time>2018-10-12T08:44:52.000Z</time>
      </trkpt>
      <trkpt lat="30.9678878784179688" lon="-6.9980640411376953">
        <ele>1195.0</ele>
        <time>2018-10-12T08:44:53.000Z</time>
      </trkpt>
      <trkpt lat="30.9678268432617188" lon="-6.9980649948120117">
        <ele>1195.0</ele>
        <time>2018-10-12T08:44:54.000Z</time>
      </trkpt>
      <trkpt lat="30.9677658081054688" lon="-6.9980640411376953">
        <ele>1195.0</ele>
        <time>2018-10-12T08:44:55.000Z</time>
      </trkpt>
      <trkpt lat="30.9677047729492188" lon="-6.9980611801147461">
        <ele>1195.0</ele>
        <time>2018-10-12T08:44:56.000Z</time>
      </trkpt>
      <trkpt lat="30.9676418304443359" lon="-6.9980587959289551">
        <ele>1195.0</ele>
        <time>2018-10-12T08:44:57.000Z</time>
      </trkpt>
      <trkpt lat="30.9675750732421875" lon="-6.9980568885803223">
        <ele>1194.178955078125</ele>
        <time>2018-10-12T08:44:58.000Z</time>
      </trkpt>
      <trkpt lat="30.9675121307373047" lon="-6.9980568885803223">
        <ele>1194.0</ele>
        <time>2018-10-12T08:44:59.000Z</time>
      </trkpt>
      <trkpt lat="30.9674491882324219" lon="-6.9980568885803223">
        <ele>1194.0</ele>
        <time>2018-10-12T08:45:00.000Z</time>
      </trkpt>
      <trkpt lat="30.9673862457275391" lon="-6.9980578422546387">
        <ele>1193.2593994140625</ele>
        <time>2018-10-12T08:45:01.000Z</time>
      </trkpt>
      <trkpt lat="30.9673233032226562" lon="-6.9980578422546387">
        <ele>1193.0</ele>
        <time>2018-10-12T08:45:02.000Z</time>
      </trkpt>
      <trkpt lat="30.9672603607177734" lon="-6.9980602264404297">
        <ele>1193.0</ele>
        <time>2018-10-12T08:45:03.000Z</time>
      </trkpt>
      <trkpt lat="30.9671974182128906" lon="-6.9980611801147461">
        <ele>1193.0</ele>
        <time>2018-10-12T08:45:04.000Z</time>
      </trkpt>
      <trkpt lat="30.9671306610107422" lon="-6.9980602264404297">
        <ele>1192.178955078125</ele>
        <time>2018-10-12T08:45:05.000Z</time>
      </trkpt>
      <trkpt lat="30.9670658111572266" lon="-6.9980602264404297">
        <ele>1192.0</ele>
        <time>2018-10-12T08:45:06.000Z</time>
      </trkpt>
      <trkpt lat="30.9669971466064453" lon="-6.9980559349060059">
        <ele>1192.0</ele>
        <time>2018-10-12T08:45:07.000Z</time>
      </trkpt>
      <trkpt lat="30.9669303894042969" lon="-6.9980521202087402">
        <ele>1192.0</ele>
        <time>2018-10-12T08:45:08.000Z</time>
      </trkpt>
      <trkpt lat="30.9668655395507812" lon="-6.9980440139770508">
        <ele>1192.0</ele>
        <time>2018-10-12T08:45:09.000Z</time>
      </trkpt>
      <trkpt lat="30.9668006896972656" lon="-6.9980359077453613">
        <ele>1192.0</ele>
        <time>2018-10-12T08:45:10.000Z</time>
      </trkpt>
      <trkpt lat="30.9667377471923828" lon="-6.9980278015136719">
        <ele>1192.0</ele>
        <time>2018-10-12T08:45:11.000Z</time>
      </trkpt>
      <trkpt lat="30.9666748046875000" lon="-6.9980139732360840">
        <ele>1192.0</ele>
        <time>2018-10-12T08:45:12.000Z</time>
      </trkpt>
      <trkpt lat="30.9666137695312500" lon="-6.9980001449584961">
        <ele>1192.0</ele>
        <time>2018-10-12T08:45:13.000Z</time>
      </trkpt>
      <trkpt lat="30.9665527343750000" lon="-6.9979820251464844">
        <ele>1192.0</ele>
        <time>2018-10-12T08:45:14.000Z</time>
      </trkpt>
      <trkpt lat="30.9664916992187500" lon="-6.9979619979858398">
        <ele>1192.0</ele>
        <time>2018-10-12T08:45:15.000Z</time>
      </trkpt>
      <trkpt lat="30.9664325714111328" lon="-6.9979391098022461">
        <ele>1192.0</ele>
        <time>2018-10-12T08:45:16.000Z</time>
      </trkpt>
      <trkpt lat="30.9663734436035156" lon="-6.9979138374328613">
        <ele>1192.0</ele>
        <time>2018-10-12T08:45:17.000Z</time>
      </trkpt>
      <trkpt lat="30.9663143157958984" lon="-6.9978880882263184">
        <ele>1192.0</ele>
        <time>2018-10-12T08:45:18.000Z</time>
      </trkpt>
      <trkpt lat="30.9662570953369141" lon="-6.9978570938110352">
        <ele>1192.0</ele>
        <time>2018-10-12T08:45:19.000Z</time>
      </trkpt>
      <trkpt lat="30.9662017822265625" lon="-6.9978251457214355">
        <ele>1192.0</ele>
        <time>2018-10-12T08:45:20.000Z</time>
      </trkpt>
      <trkpt lat="30.9661464691162109" lon="-6.9977908134460449">
        <ele>1192.0</ele>
        <time>2018-10-12T08:45:21.000Z</time>
      </trkpt>
      <trkpt lat="30.9660968780517578" lon="-6.9977579116821289">
        <ele>1192.0</ele>
        <time>2018-10-12T08:45:22.000Z</time>
      </trkpt>
      <trkpt lat="30.9660453796386719" lon="-6.9977250099182129">
        <ele>1192.0</ele>
        <time>2018-10-12T08:45:23.000Z</time>
      </trkpt>
      <trkpt lat="30.9659976959228516" lon="-6.9976940155029297">
        <ele>1191.373291015625</ele>
        <time>2018-10-12T08:45:24.000Z</time>
      </trkpt>
      <trkpt lat="30.9659519195556641" lon="-6.9976601600646973">
        <ele>1191.0</ele>
        <time>2018-10-12T08:45:25.000Z</time>
      </trkpt>
      <trkpt lat="30.9659023284912109" lon="-6.9976210594177246">
        <ele>1191.0</ele>
        <time>2018-10-12T08:45:26.000Z</time>
      </trkpt>
      <trkpt lat="30.9658489227294922" lon="-6.9975819587707520">
        <ele>1191.0</ele>
        <time>2018-10-12T08:45:27.000Z</time>
      </trkpt>
      <trkpt lat="30.9657917022705078" lon="-6.9975438117980957">
        <ele>1190.178955078125</ele>
        <time>2018-10-12T08:45:28.000Z</time>
      </trkpt>
      <trkpt lat="30.9657325744628906" lon="-6.9975061416625977">
        <ele>1190.0</ele>
        <time>2018-10-12T08:45:29.000Z</time>
      </trkpt>
      <trkpt lat="30.9656734466552734" lon="-6.9974718093872070">
        <ele>1190.0</ele>
        <time>2018-10-12T08:45:30.000Z</time>
      </trkpt>
      <trkpt lat="30.9656143188476562" lon="-6.9974417686462402">
        <ele>1190.0</ele>
        <time>2018-10-12T08:45:31.000Z</time>
      </trkpt>
      <trkpt lat="30.9655532836914062" lon="-6.9974141120910645">
        <ele>1190.0</ele>
        <time>2018-10-12T08:45:32.000Z</time>
      </trkpt>
      <trkpt lat="30.9654922485351562" lon="-6.9973931312561035">
        <ele>1190.0</ele>
        <time>2018-10-12T08:45:33.000Z</time>
      </trkpt>
      <trkpt lat="30.9654293060302734" lon="-6.9973750114440918">
        <ele>1190.0</ele>
        <time>2018-10-12T08:45:34.000Z</time>
      </trkpt>
      <trkpt lat="30.9653663635253906" lon="-6.9973587989807129">
        <ele>1190.0</ele>
        <time>2018-10-12T08:45:35.000Z</time>
      </trkpt>
      <trkpt lat="30.9653072357177734" lon="-6.9973459243774414">
        <ele>1190.821044921875</ele>
        <time>2018-10-12T08:45:36.000Z</time>
      </trkpt>
      <trkpt lat="30.9652557373046875" lon="-6.9973349571228027">
        <ele>1191.0</ele>
        <time>2018-10-12T08:45:37.000Z</time>
      </trkpt>
      <trkpt lat="30.9652061462402344" lon="-6.9973258972167969">
        <ele>1191.0</ele>
        <time>2018-10-12T08:45:38.000Z</time>
      </trkpt>
      <trkpt lat="30.9651641845703125" lon="-6.9973177909851074">
        <ele>1191.0</ele>
        <time>2018-10-12T08:45:39.000Z</time>
      </trkpt>
      <trkpt lat="30.9651203155517578" lon="-6.9973111152648926">
        <ele>1191.0</ele>
        <time>2018-10-12T08:45:40.000Z</time>
      </trkpt>
      <trkpt lat="30.9650802612304688" lon="-6.9973039627075195">
        <ele>1191.0</ele>
        <time>2018-10-12T08:45:41.000Z</time>
      </trkpt>
      <trkpt lat="30.9650382995605469" lon="-6.9972968101501465">
        <ele>1191.0</ele>
        <time>2018-10-12T08:45:42.000Z</time>
      </trkpt>
      <trkpt lat="30.9649963378906250" lon="-6.9972901344299316">
        <ele>1191.0</ele>
        <time>2018-10-12T08:45:43.000Z</time>
      </trkpt>
      <trkpt lat="30.9649505615234375" lon="-6.9972839355468750">
        <ele>1190.178955078125</ele>
        <time>2018-10-12T08:45:44.000Z</time>
      </trkpt>
      <trkpt lat="30.9649028778076172" lon="-6.9972758293151855">
        <ele>1190.0</ele>
        <time>2018-10-12T08:45:45.000Z</time>
      </trkpt>
      <trkpt lat="30.9648513793945312" lon="-6.9972667694091797">
        <ele>1190.0</ele>
        <time>2018-10-12T08:45:46.000Z</time>
      </trkpt>
      <trkpt lat="30.9648017883300781" lon="-6.9972581863403320">
        <ele>1190.0</ele>
        <time>2018-10-12T08:45:47.000Z</time>
      </trkpt>
      <trkpt lat="30.9647502899169922" lon="-6.9972500801086426">
        <ele>1190.0</ele>
        <time>2018-10-12T08:45:48.000Z</time>
      </trkpt>
      <trkpt lat="30.9647006988525391" lon="-6.9972400665283203">
        <ele>1190.0</ele>
        <time>2018-10-12T08:45:49.000Z</time>
      </trkpt>
      <trkpt lat="30.9646472930908203" lon="-6.9972300529479980">
        <ele>1190.0</ele>
        <time>2018-10-12T08:45:50.000Z</time>
      </trkpt>
      <trkpt lat="30.9645957946777344" lon="-6.9972209930419922">
        <ele>1190.0</ele>
        <time>2018-10-12T08:45:51.000Z</time>
      </trkpt>
      <trkpt lat="30.9645423889160156" lon="-6.9972100257873535">
        <ele>1190.0</ele>
        <time>2018-10-12T08:45:52.000Z</time>
      </trkpt>
      <trkpt lat="30.9644908905029297" lon="-6.9972019195556641">
        <ele>1190.0</ele>
        <time>2018-10-12T08:45:53.000Z</time>
      </trkpt>
      <trkpt lat="30.9644374847412109" lon="-6.9971919059753418">
        <ele>1190.0</ele>
        <time>2018-10-12T08:45:54.000Z</time>
      </trkpt>
      <trkpt lat="30.9643840789794922" lon="-6.9971818923950195">
        <ele>1190.0</ele>
        <time>2018-10-12T08:45:55.000Z</time>
      </trkpt>
      <trkpt lat="30.9643325805664062" lon="-6.9971709251403809">
        <ele>1190.0</ele>
        <time>2018-10-12T08:45:56.000Z</time>
      </trkpt>
      <trkpt lat="30.9642772674560547" lon="-6.9971590042114258">
        <ele>1189.2520751953125</ele>
        <time>2018-10-12T08:45:57.000Z</time>
      </trkpt>
      <trkpt lat="30.9642238616943359" lon="-6.9971480369567871">
        <ele>1189.0</ele>
        <time>2018-10-12T08:45:58.000Z</time>
      </trkpt>
      <trkpt lat="30.9641704559326172" lon="-6.9971361160278320">
        <ele>1188.178955078125</ele>
        <time>2018-10-12T08:45:59.000Z</time>
      </trkpt>
      <trkpt lat="30.9641151428222656" lon="-6.9971241950988770">
        <ele>1188.0</ele>
        <time>2018-10-12T08:46:00.000Z</time>
      </trkpt>
      <trkpt lat="30.9640636444091797" lon="-6.9971132278442383">
        <ele>1188.0</ele>
        <time>2018-10-12T08:46:01.000Z</time>
      </trkpt>
      <trkpt lat="30.9640102386474609" lon="-6.9971032142639160">
        <ele>1188.0</ele>
        <time>2018-10-12T08:46:02.000Z</time>
      </trkpt>
      <trkpt lat="30.9639606475830078" lon="-6.9970951080322266">
        <ele>1188.0</ele>
        <time>2018-10-12T08:46:03.000Z</time>
      </trkpt>
      <trkpt lat="30.9639129638671875" lon="-6.9970831871032715">
        <ele>1188.0</ele>
        <time>2018-10-12T08:46:04.000Z</time>
      </trkpt>
      <trkpt lat="30.9638671875000000" lon="-6.9970698356628418">
        <ele>1188.0</ele>
        <time>2018-10-12T08:46:05.000Z</time>
      </trkpt>
      <trkpt lat="30.9638195037841797" lon="-6.9970607757568359">
        <ele>1188.0</ele>
        <time>2018-10-12T08:46:06.000Z</time>
      </trkpt>
      <trkpt lat="30.9637699127197266" lon="-6.9970541000366211">
        <ele>1188.0</ele>
        <time>2018-10-12T08:46:07.000Z</time>
      </trkpt>
      <trkpt lat="30.9637203216552734" lon="-6.9970450401306152">
        <ele>1188.0</ele>
        <time>2018-10-12T08:46:08.000Z</time>
      </trkpt>
      <trkpt lat="30.9636707305908203" lon="-6.9970359802246094">
        <ele>1188.821044921875</ele>
        <time>2018-10-12T08:46:09.000Z</time>
      </trkpt>
      <trkpt lat="30.9636192321777344" lon="-6.9970269203186035">
        <ele>1189.0</ele>
        <time>2018-10-12T08:46:10.000Z</time>
      </trkpt>
      <trkpt lat="30.9635696411132812" lon="-6.9970188140869141">
        <ele>1189.0</ele>
        <time>2018-10-12T08:46:11.000Z</time>
      </trkpt>
      <trkpt lat="30.9635181427001953" lon="-6.9970130920410156">
        <ele>1189.0</ele>
        <time>2018-10-12T08:46:12.000Z</time>
      </trkpt>
      <trkpt lat="30.9634685516357422" lon="-6.9970111846923828">
        <ele>1188.178955078125</ele>
        <time>2018-10-12T08:46:13.000Z</time>
      </trkpt>
      <trkpt lat="30.9634151458740234" lon="-6.9970130920410156">
        <ele>1188.0</ele>
        <time>2018-10-12T08:46:14.000Z</time>
      </trkpt>
      <trkpt lat="30.9633636474609375" lon="-6.9970188140869141">
        <ele>1188.0</ele>
        <time>2018-10-12T08:46:15.000Z</time>
      </trkpt>
      <trkpt lat="30.9633102416992188" lon="-6.9970259666442871">
        <ele>1188.0</ele>
        <time>2018-10-12T08:46:16.000Z</time>
      </trkpt>
      <trkpt lat="30.9632587432861328" lon="-6.9970340728759766">
        <ele>1188.0</ele>
        <time>2018-10-12T08:46:17.000Z</time>
      </trkpt>
      <trkpt lat="30.9632053375244141" lon="-6.9970431327819824">
        <ele>1188.0</ele>
        <time>2018-10-12T08:46:18.000Z</time>
      </trkpt>
      <trkpt lat="30.9631519317626953" lon="-6.9970521926879883">
        <ele>1188.0</ele>
        <time>2018-10-12T08:46:19.000Z</time>
      </trkpt>
      <trkpt lat="30.9630966186523438" lon="-6.9970631599426270">
        <ele>1187.373291015625</ele>
        <time>2018-10-12T08:46:20.000Z</time>
      </trkpt>
      <trkpt lat="30.9630355834960938" lon="-6.9970779418945312">
        <ele>1187.0</ele>
        <time>2018-10-12T08:46:21.000Z</time>
      </trkpt>
      <trkpt lat="30.9629726409912109" lon="-6.9970908164978027">
        <ele>1186.178955078125</ele>
        <time>2018-10-12T08:46:22.000Z</time>
      </trkpt>
      <trkpt lat="30.9629096984863281" lon="-6.9971008300781250">
        <ele>1186.0</ele>
        <time>2018-10-12T08:46:23.000Z</time>
      </trkpt>
      <trkpt lat="30.9628486633300781" lon="-6.9971051216125488">
        <ele>1186.0</ele>
        <time>2018-10-12T08:46:24.000Z</time>
      </trkpt>
      <trkpt lat="30.9627895355224609" lon="-6.9970989227294922">
        <ele>1186.0</ele>
        <time>2018-10-12T08:46:25.000Z</time>
      </trkpt>
      <trkpt lat="30.9627342224121094" lon="-6.9970788955688477">
        <ele>1186.0</ele>
        <time>2018-10-12T08:46:26.000Z</time>
      </trkpt>
      <trkpt lat="30.9626865386962891" lon="-6.9970469474792480">
        <ele>1186.0</ele>
        <time>2018-10-12T08:46:27.000Z</time>
      </trkpt>
      <trkpt lat="30.9626426696777344" lon="-6.9970049858093262">
        <ele>1186.0</ele>
        <time>2018-10-12T08:46:28.000Z</time>
      </trkpt>
      <trkpt lat="30.9626026153564453" lon="-6.9969568252563477">
        <ele>1186.0</ele>
        <time>2018-10-12T08:46:29.000Z</time>
      </trkpt>
      <trkpt lat="30.9625625610351562" lon="-6.9969091415405273">
        <ele>1186.821044921875</ele>
        <time>2018-10-12T08:46:30.000Z</time>
      </trkpt>
      <trkpt lat="30.9625225067138672" lon="-6.9968647956848145">
        <ele>1187.821044921875</ele>
        <time>2018-10-12T08:46:31.000Z</time>
      </trkpt>
      <trkpt lat="30.9624824523925781" lon="-6.9968280792236328">
        <ele>1188.0</ele>
        <time>2018-10-12T08:46:32.000Z</time>
      </trkpt>
      <trkpt lat="30.9624443054199219" lon="-6.9967999458312988">
        <ele>1188.0</ele>
        <time>2018-10-12T08:46:33.000Z</time>
      </trkpt>
      <trkpt lat="30.9624080657958984" lon="-6.9967770576477051">
        <ele>1188.0</ele>
        <time>2018-10-12T08:46:34.000Z</time>
      </trkpt>
      <trkpt lat="30.9623718261718750" lon="-6.9967560768127441">
        <ele>1188.0</ele>
        <time>2018-10-12T08:46:35.000Z</time>
      </trkpt>
      <trkpt lat="30.9623336791992188" lon="-6.9967331886291504">
        <ele>1188.0</ele>
        <time>2018-10-12T08:46:36.000Z</time>
      </trkpt>
      <trkpt lat="30.9622974395751953" lon="-6.9967079162597656">
        <ele>1188.0</ele>
        <time>2018-10-12T08:46:37.000Z</time>
      </trkpt>
      <trkpt lat="30.9622592926025391" lon="-6.9966821670532227">
        <ele>1188.0</ele>
        <time>2018-10-12T08:46:38.000Z</time>
      </trkpt>
      <trkpt lat="30.9622211456298828" lon="-6.9966540336608887">
        <ele>1188.0</ele>
        <time>2018-10-12T08:46:39.000Z</time>
      </trkpt>
      <trkpt lat="30.9621849060058594" lon="-6.9966249465942383">
        <ele>1188.0</ele>
        <time>2018-10-12T08:46:40.000Z</time>
      </trkpt>
      <trkpt lat="30.9621448516845703" lon="-6.9965968132019043">
        <ele>1188.0</ele>
        <time>2018-10-12T08:46:41.000Z</time>
      </trkpt>
      <trkpt lat="30.9621067047119141" lon="-6.9965682029724121">
        <ele>1188.0</ele>
        <time>2018-10-12T08:46:42.000Z</time>
      </trkpt>
      <trkpt lat="30.9620685577392578" lon="-6.9965391159057617">
        <ele>1188.0</ele>
        <time>2018-10-12T08:46:43.000Z</time>
      </trkpt>
      <trkpt lat="30.9620265960693359" lon="-6.9965109825134277">
        <ele>1188.0</ele>
        <time>2018-10-12T08:46:44.000Z</time>
      </trkpt>
      <trkpt lat="30.9619846343994141" lon="-6.9964852333068848">
        <ele>1188.0</ele>
        <time>2018-10-12T08:46:45.000Z</time>
      </trkpt>
      <trkpt lat="30.9619407653808594" lon="-6.9964590072631836">
        <ele>1188.0</ele>
        <time>2018-10-12T08:46:46.000Z</time>
      </trkpt>
      <trkpt lat="30.9618949890136719" lon="-6.9964342117309570">
        <ele>1188.0</ele>
        <time>2018-10-12T08:46:47.000Z</time>
      </trkpt>
      <trkpt lat="30.9618453979492188" lon="-6.9964132308959961">
        <ele>1188.0</ele>
        <time>2018-10-12T08:46:48.000Z</time>
      </trkpt>
      <trkpt lat="30.9617958068847656" lon="-6.9963979721069336">
        <ele>1188.0</ele>
        <time>2018-10-12T08:46:49.000Z</time>
      </trkpt>
      <trkpt lat="30.9617404937744141" lon="-6.9963879585266113">
        <ele>1188.0</ele>
        <time>2018-10-12T08:46:50.000Z</time>
      </trkpt>
      <trkpt lat="30.9616813659667969" lon="-6.9963850975036621">
        <ele>1188.0</ele>
        <time>2018-10-12T08:46:51.000Z</time>
      </trkpt>
      <trkpt lat="30.9616203308105469" lon="-6.9963870048522949">
        <ele>1188.0</ele>
        <time>2018-10-12T08:46:52.000Z</time>
      </trkpt>
      <trkpt lat="30.9615592956542969" lon="-6.9963908195495605">
        <ele>1187.363525390625</ele>
        <time>2018-10-12T08:46:53.000Z</time>
      </trkpt>
      <trkpt lat="30.9614982604980469" lon="-6.9963979721069336">
        <ele>1187.0</ele>
        <time>2018-10-12T08:46:54.000Z</time>
      </trkpt>
      <trkpt lat="30.9614391326904297" lon="-6.9964070320129395">
        <ele>1187.0</ele>
        <time>2018-10-12T08:46:55.000Z</time>
      </trkpt>
      <trkpt lat="30.9613838195800781" lon="-6.9964189529418945">
        <ele>1187.0</ele>
        <time>2018-10-12T08:46:56.000Z</time>
      </trkpt>
      <trkpt lat="30.9613285064697266" lon="-6.9964361190795898">
        <ele>1187.0</ele>
        <time>2018-10-12T08:46:57.000Z</time>
      </trkpt>
      <trkpt lat="30.9612751007080078" lon="-6.9964561462402344">
        <ele>1187.0</ele>
        <time>2018-10-12T08:46:58.000Z</time>
      </trkpt>
      <trkpt lat="30.9612216949462891" lon="-6.9964790344238281">
        <ele>1186.178955078125</ele>
        <time>2018-10-12T08:46:59.000Z</time>
      </trkpt>
      <trkpt lat="30.9611701965332031" lon="-6.9965071678161621">
        <ele>1186.0</ele>
        <time>2018-10-12T08:47:00.000Z</time>
      </trkpt>
      <trkpt lat="30.9611206054687500" lon="-6.9965357780456543">
        <ele>1186.0</ele>
        <time>2018-10-12T08:47:01.000Z</time>
      </trkpt>
      <trkpt lat="30.9610729217529297" lon="-6.9965658187866211">
        <ele>1186.0</ele>
        <time>2018-10-12T08:47:02.000Z</time>
      </trkpt>
      <trkpt lat="30.9610271453857422" lon="-6.9965939521789551">
        <ele>1186.0</ele>
        <time>2018-10-12T08:47:03.000Z</time>
      </trkpt>
      <trkpt lat="30.9609813690185547" lon="-6.9966158866882324">
        <ele>1186.0</ele>
        <time>2018-10-12T08:47:04.000Z</time>
      </trkpt>
      <trkpt lat="30.9609375000000000" lon="-6.9966320991516113">
        <ele>1186.821044921875</ele>
        <time>2018-10-12T08:47:05.000Z</time>
      </trkpt>
      <trkpt lat="30.9608936309814453" lon="-6.9966440200805664">
        <ele>1187.0</ele>
        <time>2018-10-12T08:47:06.000Z</time>
      </trkpt>
      <trkpt lat="30.9608478546142578" lon="-6.9966530799865723">
        <ele>1187.0</ele>
        <time>2018-10-12T08:47:07.000Z</time>
      </trkpt>
      <trkpt lat="30.9607982635498047" lon="-6.9966559410095215">
        <ele>1187.0</ele>
        <time>2018-10-12T08:47:08.000Z</time>
      </trkpt>
      <trkpt lat="30.9607486724853516" lon="-6.9966521263122559">
        <ele>1187.0</ele>
        <time>2018-10-12T08:47:09.000Z</time>
      </trkpt>
      <trkpt lat="30.9606952667236328" lon="-6.9966430664062500">
        <ele>1187.0</ele>
        <time>2018-10-12T08:47:10.000Z</time>
      </trkpt>
      <trkpt lat="30.9606418609619141" lon="-6.9966301918029785">
        <ele>1187.0</ele>
        <time>2018-10-12T08:47:11.000Z</time>
      </trkpt>
      <trkpt lat="30.9605884552001953" lon="-6.9966149330139160">
        <ele>1187.0</ele>
        <time>2018-10-12T08:47:12.000Z</time>
      </trkpt>
      <trkpt lat="30.9605331420898438" lon="-6.9965977668762207">
        <ele>1187.0</ele>
        <time>2018-10-12T08:47:13.000Z</time>
      </trkpt>
      <trkpt lat="30.9604778289794922" lon="-6.9965801239013672">
        <ele>1187.0</ele>
        <time>2018-10-12T08:47:14.000Z</time>
      </trkpt>
      <trkpt lat="30.9604225158691406" lon="-6.9965610504150391">
        <ele>1187.0</ele>
        <time>2018-10-12T08:47:15.000Z</time>
      </trkpt>
      <trkpt lat="30.9603672027587891" lon="-6.9965429306030273">
        <ele>1187.0</ele>
        <time>2018-10-12T08:47:16.000Z</time>
      </trkpt>
      <trkpt lat="30.9603137969970703" lon="-6.9965257644653320">
        <ele>1187.0</ele>
        <time>2018-10-12T08:47:17.000Z</time>
      </trkpt>
      <trkpt lat="30.9602603912353516" lon="-6.9965090751647949">
        <ele>1187.0</ele>
        <time>2018-10-12T08:47:18.000Z</time>
      </trkpt>
      <trkpt lat="30.9602088928222656" lon="-6.9964909553527832">
        <ele>1187.0</ele>
        <time>2018-10-12T08:47:19.000Z</time>
      </trkpt>
      <trkpt lat="30.9601573944091797" lon="-6.9964728355407715">
        <ele>1187.0</ele>
        <time>2018-10-12T08:47:20.000Z</time>
      </trkpt>
      <trkpt lat="30.9601058959960938" lon="-6.9964551925659180">
        <ele>1187.0</ele>
        <time>2018-10-12T08:47:21.000Z</time>
      </trkpt>
      <trkpt lat="30.9600563049316406" lon="-6.9964361190795898">
        <ele>1187.0</ele>
        <time>2018-10-12T08:47:22.000Z</time>
      </trkpt>
      <trkpt lat="30.9600124359130859" lon="-6.9964141845703125">
        <ele>1187.0</ele>
        <time>2018-10-12T08:47:23.000Z</time>
      </trkpt>
      <trkpt lat="30.9599723815917969" lon="-6.9963908195495605">
        <ele>1187.0</ele>
        <time>2018-10-12T08:47:24.000Z</time>
      </trkpt>
      <trkpt lat="30.9599361419677734" lon="-6.9963679313659668">
        <ele>1187.0</ele>
        <time>2018-10-12T08:47:25.000Z</time>
      </trkpt>
      <trkpt lat="30.9599094390869141" lon="-6.9963450431823730">
        <ele>1187.0</ele>
        <time>2018-10-12T08:47:26.000Z</time>
      </trkpt>
      <trkpt lat="30.9598884582519531" lon="-6.9963221549987793">
        <ele>1187.0</ele>
        <time>2018-10-12T08:47:27.000Z</time>
      </trkpt>
      <trkpt lat="30.9598712921142578" lon="-6.9963049888610840">
        <ele>1187.0</ele>
        <time>2018-10-12T08:47:28.000Z</time>
      </trkpt>
      <trkpt lat="30.9598464965820312" lon="-6.9962801933288574">
        <ele>1187.0</ele>
        <time>2018-10-12T08:47:30.000Z</time>
      </trkpt>
      <trkpt lat="30.9598293304443359" lon="-6.9962511062622070">
        <ele>1187.0</ele>
        <time>2018-10-12T08:47:32.000Z</time>
      </trkpt>
      <trkpt lat="30.9598236083984375" lon="-6.9962310791015625">
        <ele>1187.0</ele>
        <time>2018-10-12T08:47:34.000Z</time>
      </trkpt>
      <trkpt lat="30.9598083496093750" lon="-6.9962167739868164">
        <ele>1186.0</ele>
        <time>2018-10-12T08:48:45.000Z</time>
      </trkpt>
      <trkpt lat="30.9597873687744141" lon="-6.9962129592895508">
        <ele>1186.0</ele>
        <time>2018-10-12T08:48:46.000Z</time>
      </trkpt>
      <trkpt lat="30.9597682952880859" lon="-6.9962139129638672">
        <ele>1186.0</ele>
        <time>2018-10-12T08:48:47.000Z</time>
      </trkpt>
      <trkpt lat="30.9597473144531250" lon="-6.9962167739868164">
        <ele>1186.0</ele>
        <time>2018-10-12T08:48:48.000Z</time>
      </trkpt>
      <trkpt lat="30.9597282409667969" lon="-6.9962220191955566">
        <ele>1186.0</ele>
        <time>2018-10-12T08:48:49.000Z</time>
      </trkpt>
      <trkpt lat="30.9596996307373047" lon="-6.9962291717529297">
        <ele>1186.0</ele>
        <time>2018-10-12T08:48:51.000Z</time>
      </trkpt>
      <trkpt lat="30.9596691131591797" lon="-6.9962368011474609">
        <ele>1186.0</ele>
        <time>2018-10-12T08:48:53.000Z</time>
      </trkpt>
      <trkpt lat="30.9596385955810547" lon="-6.9962592124938965">
        <ele>1186.0</ele>
        <time>2018-10-12T08:48:55.000Z</time>
      </trkpt>
      <trkpt lat="30.9596233367919922" lon="-6.9962711334228516">
        <ele>1186.0</ele>
        <time>2018-10-12T08:48:56.000Z</time>
      </trkpt>
      <trkpt lat="30.9596061706542969" lon="-6.9962830543518066">
        <ele>1186.0</ele>
        <time>2018-10-12T08:48:57.000Z</time>
      </trkpt>
      <trkpt lat="30.9595909118652344" lon="-6.9962921142578125">
        <ele>1186.0</ele>
        <time>2018-10-12T08:48:58.000Z</time>
      </trkpt>
      <trkpt lat="30.9595718383789062" lon="-6.9963011741638184">
        <ele>1186.0</ele>
        <time>2018-10-12T08:48:59.000Z</time>
      </trkpt>
      <trkpt lat="30.9595546722412109" lon="-6.9963102340698242">
        <ele>1186.0</ele>
        <time>2018-10-12T08:49:00.000Z</time>
      </trkpt>
      <trkpt lat="30.9595203399658203" lon="-6.9963169097900391">
        <ele>1186.0</ele>
        <time>2018-10-12T08:49:02.000Z</time>
      </trkpt>
      <trkpt lat="30.9594974517822266" lon="-6.9963130950927734">
        <ele>1186.0</ele>
        <time>2018-10-12T08:49:03.000Z</time>
      </trkpt>
      <trkpt lat="30.9594707489013672" lon="-6.9963068962097168">
        <ele>1186.0</ele>
        <time>2018-10-12T08:49:04.000Z</time>
      </trkpt>
      <trkpt lat="30.9594364166259766" lon="-6.9963011741638184">
        <ele>1186.0</ele>
        <time>2018-10-12T08:49:05.000Z</time>
      </trkpt>
      <trkpt lat="30.9594020843505859" lon="-6.9962959289550781">
        <ele>1186.0</ele>
        <time>2018-10-12T08:49:06.000Z</time>
      </trkpt>
      <trkpt lat="30.9593658447265625" lon="-6.9962911605834961">
        <ele>1186.0</ele>
        <time>2018-10-12T08:49:07.000Z</time>
      </trkpt>
      <trkpt lat="30.9593257904052734" lon="-6.9962868690490723">
        <ele>1186.0</ele>
        <time>2018-10-12T08:49:08.000Z</time>
      </trkpt>
      <trkpt lat="30.9592857360839844" lon="-6.9962849617004395">
        <ele>1186.0</ele>
        <time>2018-10-12T08:49:09.000Z</time>
      </trkpt>
      <trkpt lat="30.9592437744140625" lon="-6.9962821006774902">
        <ele>1186.0</ele>
        <time>2018-10-12T08:49:10.000Z</time>
      </trkpt>
      <trkpt lat="30.9591999053955078" lon="-6.9962787628173828">
        <ele>1186.0</ele>
        <time>2018-10-12T08:49:11.000Z</time>
      </trkpt>
      <trkpt lat="30.9591579437255859" lon="-6.9962768554687500">
        <ele>1185.178955078125</ele>
        <time>2018-10-12T08:49:12.000Z</time>
      </trkpt>
      <trkpt lat="30.9591121673583984" lon="-6.9962759017944336">
        <ele>1185.0</ele>
        <time>2018-10-12T08:49:13.000Z</time>
      </trkpt>
      <trkpt lat="30.9590663909912109" lon="-6.9962759017944336">
        <ele>1185.0</ele>
        <time>2018-10-12T08:49:14.000Z</time>
      </trkpt>
      <trkpt lat="30.9590225219726562" lon="-6.9962759017944336">
        <ele>1185.0</ele>
        <time>2018-10-12T08:49:15.000Z</time>
      </trkpt>
      <trkpt lat="30.9589805603027344" lon="-6.9962739944458008">
        <ele>1185.0</ele>
        <time>2018-10-12T08:49:16.000Z</time>
      </trkpt>
      <trkpt lat="30.9589366912841797" lon="-6.9962701797485352">
        <ele>1185.0</ele>
        <time>2018-10-12T08:49:17.000Z</time>
      </trkpt>
      <trkpt lat="30.9588947296142578" lon="-6.9962668418884277">
        <ele>1185.0</ele>
        <time>2018-10-12T08:49:18.000Z</time>
      </trkpt>
      <trkpt lat="30.9588527679443359" lon="-6.9962658882141113">
        <ele>1185.0</ele>
        <time>2018-10-12T08:49:19.000Z</time>
      </trkpt>
      <trkpt lat="30.9588088989257812" lon="-6.9962649345397949">
        <ele>1185.0</ele>
        <time>2018-10-12T08:49:20.000Z</time>
      </trkpt>
      <trkpt lat="30.9587631225585938" lon="-6.9962639808654785">
        <ele>1185.0</ele>
        <time>2018-10-12T08:49:21.000Z</time>
      </trkpt>
      <trkpt lat="30.9587173461914062" lon="-6.9962649345397949">
        <ele>1185.0</ele>
        <time>2018-10-12T08:49:22.000Z</time>
      </trkpt>
      <trkpt lat="30.9586696624755859" lon="-6.9962649345397949">
        <ele>1185.0</ele>
        <time>2018-10-12T08:49:23.000Z</time>
      </trkpt>
      <trkpt lat="30.9586200714111328" lon="-6.9962658882141113">
        <ele>1185.0</ele>
        <time>2018-10-12T08:49:24.000Z</time>
      </trkpt>
      <trkpt lat="30.9585742950439453" lon="-6.9962692260742188">
        <ele>1185.0</ele>
        <time>2018-10-12T08:49:25.000Z</time>
      </trkpt>
      <trkpt lat="30.9585266113281250" lon="-6.9962730407714844">
        <ele>1185.0</ele>
        <time>2018-10-12T08:49:26.000Z</time>
      </trkpt>
      <trkpt lat="30.9584789276123047" lon="-6.9962768554687500">
        <ele>1185.0</ele>
        <time>2018-10-12T08:49:27.000Z</time>
      </trkpt>
      <trkpt lat="30.9584312438964844" lon="-6.9962840080261230">
        <ele>1185.0</ele>
        <time>2018-10-12T08:49:28.000Z</time>
      </trkpt>
      <trkpt lat="30.9583835601806641" lon="-6.9962959289550781">
        <ele>1185.0</ele>
        <time>2018-10-12T08:49:29.000Z</time>
      </trkpt>
      <trkpt lat="30.9583377838134766" lon="-6.9963150024414062">
        <ele>1185.0</ele>
        <time>2018-10-12T08:49:30.000Z</time>
      </trkpt>
      <trkpt lat="30.9582939147949219" lon="-6.9963369369506836">
        <ele>1185.0</ele>
        <time>2018-10-12T08:49:31.000Z</time>
      </trkpt>
      <trkpt lat="30.9582481384277344" lon="-6.9963579177856445">
        <ele>1185.0</ele>
        <time>2018-10-12T08:49:32.000Z</time>
      </trkpt>
      <trkpt lat="30.9582023620605469" lon="-6.9963760375976562">
        <ele>1184.178955078125</ele>
        <time>2018-10-12T08:49:33.000Z</time>
      </trkpt>
      <trkpt lat="30.9581565856933594" lon="-6.9963908195495605">
        <ele>1184.0</ele>
        <time>2018-10-12T08:49:34.000Z</time>
      </trkpt>
      <trkpt lat="30.9581089019775391" lon="-6.9964032173156738">
        <ele>1184.0</ele>
        <time>2018-10-12T08:49:35.000Z</time>
      </trkpt>
      <trkpt lat="30.9580593109130859" lon="-6.9964118003845215">
        <ele>1184.821044921875</ele>
        <time>2018-10-12T08:49:36.000Z</time>
      </trkpt>
      <trkpt lat="30.9580097198486328" lon="-6.9964179992675781">
        <ele>1185.0</ele>
        <time>2018-10-12T08:49:37.000Z</time>
      </trkpt>
      <trkpt lat="30.9579582214355469" lon="-6.9964241981506348">
        <ele>1184.3780517578125</ele>
        <time>2018-10-12T08:49:38.000Z</time>
      </trkpt>
      <trkpt lat="30.9579086303710938" lon="-6.9964318275451660">
        <ele>1184.0</ele>
        <time>2018-10-12T08:49:39.000Z</time>
      </trkpt>
      <trkpt lat="30.9578609466552734" lon="-6.9964389801025391">
        <ele>1184.0</ele>
        <time>2018-10-12T08:49:40.000Z</time>
      </trkpt>
      <trkpt lat="30.9578094482421875" lon="-6.9964461326599121">
        <ele>1184.0</ele>
        <time>2018-10-12T08:49:41.000Z</time>
      </trkpt>
      <trkpt lat="30.9577598571777344" lon="-6.9964528083801270">
        <ele>1183.178955078125</ele>
        <time>2018-10-12T08:49:42.000Z</time>
      </trkpt>
      <trkpt lat="30.9577083587646484" lon="-6.9964628219604492">
        <ele>1182.178955078125</ele>
        <time>2018-10-12T08:49:43.000Z</time>
      </trkpt>
      <trkpt lat="30.9576606750488281" lon="-6.9964737892150879">
        <ele>1182.0</ele>
        <time>2018-10-12T08:49:44.000Z</time>
      </trkpt>
      <trkpt lat="30.9576110839843750" lon="-6.9964771270751953">
        <ele>1182.0</ele>
        <time>2018-10-12T08:49:45.000Z</time>
      </trkpt>
      <trkpt lat="30.9575634002685547" lon="-6.9964761734008789">
        <ele>1182.0</ele>
        <time>2018-10-12T08:49:46.000Z</time>
      </trkpt>
      <trkpt lat="30.9575138092041016" lon="-6.9964737892150879">
        <ele>1182.0</ele>
        <time>2018-10-12T08:49:47.000Z</time>
      </trkpt>
      <trkpt lat="30.9574623107910156" lon="-6.9964709281921387">
        <ele>1182.0</ele>
        <time>2018-10-12T08:49:48.000Z</time>
      </trkpt>
      <trkpt lat="30.9574089050292969" lon="-6.9964652061462402">
        <ele>1182.0</ele>
        <time>2018-10-12T08:49:49.000Z</time>
      </trkpt>
      <trkpt lat="30.9573554992675781" lon="-6.9964561462402344">
        <ele>1181.202880859375</ele>
        <time>2018-10-12T08:49:50.000Z</time>
      </trkpt>
      <trkpt lat="30.9573001861572266" lon="-6.9964442253112793">
        <ele>1181.0</ele>
        <time>2018-10-12T08:49:51.000Z</time>
      </trkpt>
      <trkpt lat="30.9572448730468750" lon="-6.9964261054992676">
        <ele>1180.178955078125</ele>
        <time>2018-10-12T08:49:52.000Z</time>
      </trkpt>
      <trkpt lat="30.9571895599365234" lon="-6.9964017868041992">
        <ele>1180.0</ele>
        <time>2018-10-12T08:49:53.000Z</time>
      </trkpt>
      <trkpt lat="30.9571304321289062" lon="-6.9963760375976562">
        <ele>1180.0</ele>
        <time>2018-10-12T08:49:54.000Z</time>
      </trkpt>
      <trkpt lat="30.9570713043212891" lon="-6.9963488578796387">
        <ele>1180.0</ele>
        <time>2018-10-12T08:49:55.000Z</time>
      </trkpt>
      <trkpt lat="30.9570102691650391" lon="-6.9963221549987793">
        <ele>1179.373291015625</ele>
        <time>2018-10-12T08:49:56.000Z</time>
      </trkpt>
      <trkpt lat="30.9569530487060547" lon="-6.9962949752807617">
        <ele>1179.0</ele>
        <time>2018-10-12T08:49:57.000Z</time>
      </trkpt>
      <trkpt lat="30.9568977355957031" lon="-6.9962658882141113">
        <ele>1179.0</ele>
        <time>2018-10-12T08:49:58.000Z</time>
      </trkpt>
      <trkpt lat="30.9568443298339844" lon="-6.9962348937988281">
        <ele>1179.0</ele>
        <time>2018-10-12T08:49:59.000Z</time>
      </trkpt>
      <trkpt lat="30.9567928314208984" lon="-6.9962010383605957">
        <ele>1177.3580322265625</ele>
        <time>2018-10-12T08:50:00.000Z</time>
      </trkpt>
      <trkpt lat="30.9567451477050781" lon="-6.9961619377136230">
        <ele>1177.0</ele>
        <time>2018-10-12T08:50:01.000Z</time>
      </trkpt>
      <trkpt lat="30.9567012786865234" lon="-6.9961209297180176">
        <ele>1177.0</ele>
        <time>2018-10-12T08:50:02.000Z</time>
      </trkpt>
      <trkpt lat="30.9566574096679688" lon="-6.9960827827453613">
        <ele>1177.0</ele>
        <time>2018-10-12T08:50:03.000Z</time>
      </trkpt>
      <trkpt lat="30.9566135406494141" lon="-6.9960489273071289">
        <ele>1177.0</ele>
        <time>2018-10-12T08:50:04.000Z</time>
      </trkpt>
      <trkpt lat="30.9565658569335938" lon="-6.9960188865661621">
        <ele>1177.0</ele>
        <time>2018-10-12T08:50:05.000Z</time>
      </trkpt>
      <trkpt lat="30.9565181732177734" lon="-6.9959921836853027">
        <ele>1177.0</ele>
        <time>2018-10-12T08:50:06.000Z</time>
      </trkpt>
      <trkpt lat="30.9564685821533203" lon="-6.9959688186645508">
        <ele>1177.0</ele>
        <time>2018-10-12T08:50:07.000Z</time>
      </trkpt>
      <trkpt lat="30.9564170837402344" lon="-6.9959530830383301">
        <ele>1177.0</ele>
        <time>2018-10-12T08:50:08.000Z</time>
      </trkpt>
      <trkpt lat="30.9563636779785156" lon="-6.9959411621093750">
        <ele>1177.0</ele>
        <time>2018-10-12T08:50:09.000Z</time>
      </trkpt>
      <trkpt lat="30.9563083648681641" lon="-6.9959321022033691">
        <ele>1177.0</ele>
        <time>2018-10-12T08:50:10.000Z</time>
      </trkpt>
      <trkpt lat="30.9562492370605469" lon="-6.9959259033203125">
        <ele>1177.0</ele>
        <time>2018-10-12T08:50:11.000Z</time>
      </trkpt>
      <trkpt lat="30.9561882019042969" lon="-6.9959177970886230">
        <ele>1176.178955078125</ele>
        <time>2018-10-12T08:50:12.000Z</time>
      </trkpt>
      <trkpt lat="30.9561271667480469" lon="-6.9959068298339844">
        <ele>1176.0</ele>
        <time>2018-10-12T08:50:13.000Z</time>
      </trkpt>
      <trkpt lat="30.9560642242431641" lon="-6.9958920478820801">
        <ele>1176.0</ele>
        <time>2018-10-12T08:50:14.000Z</time>
      </trkpt>
      <trkpt lat="30.9560012817382812" lon="-6.9958748817443848">
        <ele>1176.0</ele>
        <time>2018-10-12T08:50:15.000Z</time>
      </trkpt>
      <trkpt lat="30.9559383392333984" lon="-6.9958567619323730">
        <ele>1176.0</ele>
        <time>2018-10-12T08:50:16.000Z</time>
      </trkpt>
      <trkpt lat="30.9558773040771484" lon="-6.9958381652832031">
        <ele>1176.0</ele>
        <time>2018-10-12T08:50:17.000Z</time>
      </trkpt>
      <trkpt lat="30.9558162689208984" lon="-6.9958162307739258">
        <ele>1176.0</ele>
        <time>2018-10-12T08:50:18.000Z</time>
      </trkpt>
      <trkpt lat="30.9557552337646484" lon="-6.9957900047302246">
        <ele>1176.0</ele>
        <time>2018-10-12T08:50:19.000Z</time>
      </trkpt>
      <trkpt lat="30.9556980133056641" lon="-6.9957609176635742">
        <ele>1176.0</ele>
        <time>2018-10-12T08:50:20.000Z</time>
      </trkpt>
      <trkpt lat="30.9556407928466797" lon="-6.9957299232482910">
        <ele>1176.0</ele>
        <time>2018-10-12T08:50:21.000Z</time>
      </trkpt>
      <trkpt lat="30.9555835723876953" lon="-6.9956989288330078">
        <ele>1176.0</ele>
        <time>2018-10-12T08:50:22.000Z</time>
      </trkpt>
      <trkpt lat="30.9555282592773438" lon="-6.9956679344177246">
        <ele>1176.0</ele>
        <time>2018-10-12T08:50:23.000Z</time>
      </trkpt>
      <trkpt lat="30.9554729461669922" lon="-6.9956359863281250">
        <ele>1176.0</ele>
        <time>2018-10-12T08:50:24.000Z</time>
      </trkpt>
      <trkpt lat="30.9554195404052734" lon="-6.9956040382385254">
        <ele>1176.0</ele>
        <time>2018-10-12T08:50:25.000Z</time>
      </trkpt>
      <trkpt lat="30.9553661346435547" lon="-6.9955720901489258">
        <ele>1176.0</ele>
        <time>2018-10-12T08:50:26.000Z</time>
      </trkpt>
      <trkpt lat="30.9553146362304688" lon="-6.9955430030822754">
        <ele>1175.178955078125</ele>
        <time>2018-10-12T08:50:27.000Z</time>
      </trkpt>
      <trkpt lat="30.9552669525146484" lon="-6.9955182075500488">
        <ele>1175.821044921875</ele>
        <time>2018-10-12T08:50:28.000Z</time>
      </trkpt>
      <trkpt lat="30.9552192687988281" lon="-6.9954957962036133">
        <ele>1176.0</ele>
        <time>2018-10-12T08:50:29.000Z</time>
      </trkpt>
      <trkpt lat="30.9551753997802734" lon="-6.9954757690429688">
        <ele>1176.0</ele>
        <time>2018-10-12T08:50:30.000Z</time>
      </trkpt>
      <trkpt lat="30.9551296234130859" lon="-6.9954547882080078">
        <ele>1176.0</ele>
        <time>2018-10-12T08:50:31.000Z</time>
      </trkpt>
      <trkpt lat="30.9550838470458984" lon="-6.9954328536987305">
        <ele>1176.0</ele>
        <time>2018-10-12T08:50:32.000Z</time>
      </trkpt>
      <trkpt lat="30.9550342559814453" lon="-6.9954090118408203">
        <ele>1176.0</ele>
        <time>2018-10-12T08:50:33.000Z</time>
      </trkpt>
      <trkpt lat="30.9549846649169922" lon="-6.9953851699829102">
        <ele>1176.0</ele>
        <time>2018-10-12T08:50:34.000Z</time>
      </trkpt>
      <trkpt lat="30.9549350738525391" lon="-6.9953579902648926">
        <ele>1176.0</ele>
        <time>2018-10-12T08:50:35.000Z</time>
      </trkpt>
      <trkpt lat="30.9548892974853516" lon="-6.9953308105468750">
        <ele>1176.0</ele>
        <time>2018-10-12T08:50:36.000Z</time>
      </trkpt>
      <trkpt lat="30.9548454284667969" lon="-6.9953041076660156">
        <ele>1176.0</ele>
        <time>2018-10-12T08:50:37.000Z</time>
      </trkpt>
      <trkpt lat="30.9548015594482422" lon="-6.9952750205993652">
        <ele>1176.0</ele>
        <time>2018-10-12T08:50:38.000Z</time>
      </trkpt>
      <trkpt lat="30.9547615051269531" lon="-6.9952440261840820">
        <ele>1176.0</ele>
        <time>2018-10-12T08:50:39.000Z</time>
      </trkpt>
      <trkpt lat="30.9547252655029297" lon="-6.9952101707458496">
        <ele>1175.363525390625</ele>
        <time>2018-10-12T08:50:40.000Z</time>
      </trkpt>
      <trkpt lat="30.9546871185302734" lon="-6.9951748847961426">
        <ele>1175.531005859375</ele>
        <time>2018-10-12T08:50:41.000Z</time>
      </trkpt>
      <trkpt lat="30.9546508789062500" lon="-6.9951381683349609">
        <ele>1176.0</ele>
        <time>2018-10-12T08:50:42.000Z</time>
      </trkpt>
      <trkpt lat="30.9546146392822266" lon="-6.9950990676879883">
        <ele>1176.0</ele>
        <time>2018-10-12T08:50:43.000Z</time>
      </trkpt>
      <trkpt lat="30.9545764923095703" lon="-6.9950580596923828">
        <ele>1176.0</ele>
        <time>2018-10-12T08:50:44.000Z</time>
      </trkpt>
      <trkpt lat="30.9545402526855469" lon="-6.9950151443481445">
        <ele>1176.0</ele>
        <time>2018-10-12T08:50:45.000Z</time>
      </trkpt>
      <trkpt lat="30.9545078277587891" lon="-6.9949698448181152">
        <ele>1176.0</ele>
        <time>2018-10-12T08:50:46.000Z</time>
      </trkpt>
      <trkpt lat="30.9544754028320312" lon="-6.9949269294738770">
        <ele>1176.0</ele>
        <time>2018-10-12T08:50:47.000Z</time>
      </trkpt>
      <trkpt lat="30.9544448852539062" lon="-6.9948859214782715">
        <ele>1176.0</ele>
        <time>2018-10-12T08:50:48.000Z</time>
      </trkpt>
      <trkpt lat="30.9544143676757812" lon="-6.9948458671569824">
        <ele>1175.178955078125</ele>
        <time>2018-10-12T08:50:49.000Z</time>
      </trkpt>
      <trkpt lat="30.9543819427490234" lon="-6.9948067665100098">
        <ele>1175.0</ele>
        <time>2018-10-12T08:50:50.000Z</time>
      </trkpt>
      <trkpt lat="30.9543495178222656" lon="-6.9947662353515625">
        <ele>1175.0</ele>
        <time>2018-10-12T08:50:51.000Z</time>
      </trkpt>
      <trkpt lat="30.9543170928955078" lon="-6.9947252273559570">
        <ele>1175.0</ele>
        <time>2018-10-12T08:50:52.000Z</time>
      </trkpt>
      <trkpt lat="30.9542827606201172" lon="-6.9946851730346680">
        <ele>1175.0</ele>
        <time>2018-10-12T08:50:53.000Z</time>
      </trkpt>
      <trkpt lat="30.9542465209960938" lon="-6.9946489334106445">
        <ele>1175.0</ele>
        <time>2018-10-12T08:50:54.000Z</time>
      </trkpt>
      <trkpt lat="30.9542102813720703" lon="-6.9946150779724121">
        <ele>1175.0</ele>
        <time>2018-10-12T08:50:55.000Z</time>
      </trkpt>
      <trkpt lat="30.9541740417480469" lon="-6.9945840835571289">
        <ele>1175.0</ele>
        <time>2018-10-12T08:50:56.000Z</time>
      </trkpt>
      <trkpt lat="30.9541378021240234" lon="-6.9945549964904785">
        <ele>1175.0</ele>
        <time>2018-10-12T08:50:57.000Z</time>
      </trkpt>
      <trkpt lat="30.9541015625000000" lon="-6.9945259094238281">
        <ele>1175.0</ele>
        <time>2018-10-12T08:50:58.000Z</time>
      </trkpt>
      <trkpt lat="30.9540634155273438" lon="-6.9945001602172852">
        <ele>1175.0</ele>
        <time>2018-10-12T08:50:59.000Z</time>
      </trkpt>
      <trkpt lat="30.9540233612060547" lon="-6.9944748878479004">
        <ele>1175.0</ele>
        <time>2018-10-12T08:51:00.000Z</time>
      </trkpt>
      <trkpt lat="30.9539833068847656" lon="-6.9944500923156738">
        <ele>1175.0</ele>
        <time>2018-10-12T08:51:01.000Z</time>
      </trkpt>
      <trkpt lat="30.9539413452148438" lon="-6.9944272041320801">
        <ele>1175.0</ele>
        <time>2018-10-12T08:51:02.000Z</time>
      </trkpt>
      <trkpt lat="30.9538993835449219" lon="-6.9944028854370117">
        <ele>1175.0</ele>
        <time>2018-10-12T08:51:03.000Z</time>
      </trkpt>
      <trkpt lat="30.9538536071777344" lon="-6.9943780899047852">
        <ele>1175.0</ele>
        <time>2018-10-12T08:51:04.000Z</time>
      </trkpt>
      <trkpt lat="30.9538059234619141" lon="-6.9943537712097168">
        <ele>1175.0</ele>
        <time>2018-10-12T08:51:05.000Z</time>
      </trkpt>
      <trkpt lat="30.9537544250488281" lon="-6.9943289756774902">
        <ele>1175.0</ele>
        <time>2018-10-12T08:51:06.000Z</time>
      </trkpt>
      <trkpt lat="30.9537010192871094" lon="-6.9943041801452637">
        <ele>1175.0</ele>
        <time>2018-10-12T08:51:07.000Z</time>
      </trkpt>
      <trkpt lat="30.9536476135253906" lon="-6.9942789077758789">
        <ele>1175.8154296875</ele>
        <time>2018-10-12T08:51:08.000Z</time>
      </trkpt>
      <trkpt lat="30.9535961151123047" lon="-6.9942550659179688">
        <ele>1176.0</ele>
        <time>2018-10-12T08:51:09.000Z</time>
      </trkpt>
      <trkpt lat="30.9535465240478516" lon="-6.9942297935485840">
        <ele>1176.0</ele>
        <time>2018-10-12T08:51:10.000Z</time>
      </trkpt>
      <trkpt lat="30.9534988403320312" lon="-6.9942011833190918">
        <ele>1176.0</ele>
        <time>2018-10-12T08:51:11.000Z</time>
      </trkpt>
      <trkpt lat="30.9534606933593750" lon="-6.9941668510437012">
        <ele>1176.7406005859375</ele>
        <time>2018-10-12T08:51:12.000Z</time>
      </trkpt>
      <trkpt lat="30.9534263610839844" lon="-6.9941310882568359">
        <ele>1177.0</ele>
        <time>2018-10-12T08:51:13.000Z</time>
      </trkpt>
      <trkpt lat="30.9533977508544922" lon="-6.9940948486328125">
        <ele>1177.0</ele>
        <time>2018-10-12T08:51:14.000Z</time>
      </trkpt>
      <trkpt lat="30.9533710479736328" lon="-6.9940619468688965">
        <ele>1177.821044921875</ele>
        <time>2018-10-12T08:51:15.000Z</time>
      </trkpt>
      <trkpt lat="30.9533481597900391" lon="-6.9940319061279297">
        <ele>1178.821044921875</ele>
        <time>2018-10-12T08:51:16.000Z</time>
      </trkpt>
      <trkpt lat="30.9533252716064453" lon="-6.9940037727355957">
        <ele>1179.821044921875</ele>
        <time>2018-10-12T08:51:17.000Z</time>
      </trkpt>
      <trkpt lat="30.9533042907714844" lon="-6.9939789772033691">
        <ele>1180.0</ele>
        <time>2018-10-12T08:51:18.000Z</time>
      </trkpt>
      <trkpt lat="30.9532833099365234" lon="-6.9939551353454590">
        <ele>1180.0</ele>
        <time>2018-10-12T08:51:19.000Z</time>
      </trkpt>
      <trkpt lat="30.9532623291015625" lon="-6.9939279556274414">
        <ele>1180.0</ele>
        <time>2018-10-12T08:51:20.000Z</time>
      </trkpt>
      <trkpt lat="30.9532394409179688" lon="-6.9939007759094238">
        <ele>1180.0</ele>
        <time>2018-10-12T08:51:21.000Z</time>
      </trkpt>
      <trkpt lat="30.9532184600830078" lon="-6.9938759803771973">
        <ele>1180.0</ele>
        <time>2018-10-12T08:51:22.000Z</time>
      </trkpt>
      <trkpt lat="30.9531936645507812" lon="-6.9938540458679199">
        <ele>1180.0</ele>
        <time>2018-10-12T08:51:23.000Z</time>
      </trkpt>
      <trkpt lat="30.9531688690185547" lon="-6.9938359260559082">
        <ele>1179.178955078125</ele>
        <time>2018-10-12T08:51:24.000Z</time>
      </trkpt>
      <trkpt lat="30.9531440734863281" lon="-6.9938178062438965">
        <ele>1179.0</ele>
        <time>2018-10-12T08:51:25.000Z</time>
      </trkpt>
      <trkpt lat="30.9531173706054688" lon="-6.9937992095947266">
        <ele>1179.0</ele>
        <time>2018-10-12T08:51:26.000Z</time>
      </trkpt>
      <trkpt lat="30.9530925750732422" lon="-6.9937791824340820">
        <ele>1179.0</ele>
        <time>2018-10-12T08:51:27.000Z</time>
      </trkpt>
      <trkpt lat="30.9530658721923828" lon="-6.9937582015991211">
        <ele>1179.0</ele>
        <time>2018-10-12T08:51:28.000Z</time>
      </trkpt>
      <trkpt lat="30.9530372619628906" lon="-6.9937357902526855">
        <ele>1179.0</ele>
        <time>2018-10-12T08:51:29.000Z</time>
      </trkpt>
      <trkpt lat="30.9530105590820312" lon="-6.9937138557434082">
        <ele>1179.0</ele>
        <time>2018-10-12T08:51:30.000Z</time>
      </trkpt>
      <trkpt lat="30.9529838562011719" lon="-6.9936919212341309">
        <ele>1179.821044921875</ele>
        <time>2018-10-12T08:51:31.000Z</time>
      </trkpt>
      <trkpt lat="30.9529533386230469" lon="-6.9936699867248535">
        <ele>1180.0</ele>
        <time>2018-10-12T08:51:32.000Z</time>
      </trkpt>
      <trkpt lat="30.9529247283935547" lon="-6.9936451911926270">
        <ele>1180.0</ele>
        <time>2018-10-12T08:51:33.000Z</time>
      </trkpt>
      <trkpt lat="30.9528961181640625" lon="-6.9936199188232422">
        <ele>1180.0</ele>
        <time>2018-10-12T08:51:34.000Z</time>
      </trkpt>
      <trkpt lat="30.9528675079345703" lon="-6.9935960769653320">
        <ele>1180.0</ele>
        <time>2018-10-12T08:51:35.000Z</time>
      </trkpt>
      <trkpt lat="30.9528388977050781" lon="-6.9935708045959473">
        <ele>1180.0</ele>
        <time>2018-10-12T08:51:36.000Z</time>
      </trkpt>
      <trkpt lat="30.9528102874755859" lon="-6.9935469627380371">
        <ele>1180.0</ele>
        <time>2018-10-12T08:51:37.000Z</time>
      </trkpt>
      <trkpt lat="30.9527835845947266" lon="-6.9935231208801270">
        <ele>1180.0</ele>
        <time>2018-10-12T08:51:38.000Z</time>
      </trkpt>
      <trkpt lat="30.9527530670166016" lon="-6.9934978485107422">
        <ele>1180.0</ele>
        <time>2018-10-12T08:51:39.000Z</time>
      </trkpt>
      <trkpt lat="30.9527263641357422" lon="-6.9934730529785156">
        <ele>1180.0</ele>
        <time>2018-10-12T08:51:40.000Z</time>
      </trkpt>
      <trkpt lat="30.9526977539062500" lon="-6.9934458732604980">
        <ele>1180.0</ele>
        <time>2018-10-12T08:51:41.000Z</time>
      </trkpt>
      <trkpt lat="30.9526672363281250" lon="-6.9934210777282715">
        <ele>1180.0</ele>
        <time>2018-10-12T08:51:42.000Z</time>
      </trkpt>
      <trkpt lat="30.9526367187500000" lon="-6.9933948516845703">
        <ele>1180.0</ele>
        <time>2018-10-12T08:51:43.000Z</time>
      </trkpt>
      <trkpt lat="30.9526062011718750" lon="-6.9933691024780273">
        <ele>1180.0</ele>
        <time>2018-10-12T08:51:44.000Z</time>
      </trkpt>
      <trkpt lat="30.9525775909423828" lon="-6.9933428764343262">
        <ele>1180.0</ele>
        <time>2018-10-12T08:51:45.000Z</time>
      </trkpt>
      <trkpt lat="30.9525470733642578" lon="-6.9933171272277832">
        <ele>1180.0</ele>
        <time>2018-10-12T08:51:46.000Z</time>
      </trkpt>
      <trkpt lat="30.9525184631347656" lon="-6.9932918548583984">
        <ele>1180.0</ele>
        <time>2018-10-12T08:51:47.000Z</time>
      </trkpt>
      <trkpt lat="30.9524917602539062" lon="-6.9932680130004883">
        <ele>1180.0</ele>
        <time>2018-10-12T08:51:48.000Z</time>
      </trkpt>
      <trkpt lat="30.9524612426757812" lon="-6.9932432174682617">
        <ele>1180.0</ele>
        <time>2018-10-12T08:51:49.000Z</time>
      </trkpt>
      <trkpt lat="30.9524307250976562" lon="-6.9932198524475098">
        <ele>1180.0</ele>
        <time>2018-10-12T08:51:50.000Z</time>
      </trkpt>
      <trkpt lat="30.9523983001708984" lon="-6.9931950569152832">
        <ele>1180.0</ele>
        <time>2018-10-12T08:51:51.000Z</time>
      </trkpt>
      <trkpt lat="30.9523677825927734" lon="-6.9931678771972656">
        <ele>1180.0</ele>
        <time>2018-10-12T08:51:52.000Z</time>
      </trkpt>
      <trkpt lat="30.9523334503173828" lon="-6.9931411743164062">
        <ele>1180.0</ele>
        <time>2018-10-12T08:51:53.000Z</time>
      </trkpt>
      <trkpt lat="30.9522991180419922" lon="-6.9931130409240723">
        <ele>1179.2593994140625</ele>
        <time>2018-10-12T08:51:54.000Z</time>
      </trkpt>
      <trkpt lat="30.9522666931152344" lon="-6.9930849075317383">
        <ele>1179.0</ele>
        <time>2018-10-12T08:51:55.000Z</time>
      </trkpt>
      <trkpt lat="30.9522342681884766" lon="-6.9930567741394043">
        <ele>1179.0</ele>
        <time>2018-10-12T08:51:56.000Z</time>
      </trkpt>
      <trkpt lat="30.9522037506103516" lon="-6.9930291175842285">
        <ele>1179.0</ele>
        <time>2018-10-12T08:51:57.000Z</time>
      </trkpt>
      <trkpt lat="30.9521694183349609" lon="-6.9930000305175781">
        <ele>1179.0</ele>
        <time>2018-10-12T08:51:58.000Z</time>
      </trkpt>
      <trkpt lat="30.9521369934082031" lon="-6.9929709434509277">
        <ele>1179.0</ele>
        <time>2018-10-12T08:51:59.000Z</time>
      </trkpt>
      <trkpt lat="30.9521045684814453" lon="-6.9929418563842773">
        <ele>1179.0</ele>
        <time>2018-10-12T08:52:00.000Z</time>
      </trkpt>
      <trkpt lat="30.9520702362060547" lon="-6.9929118156433105">
        <ele>1179.0</ele>
        <time>2018-10-12T08:52:01.000Z</time>
      </trkpt>
      <trkpt lat="30.9520378112792969" lon="-6.9928808212280273">
        <ele>1179.0</ele>
        <time>2018-10-12T08:52:02.000Z</time>
      </trkpt>
      <trkpt lat="30.9520053863525391" lon="-6.9928488731384277">
        <ele>1179.0</ele>
        <time>2018-10-12T08:52:03.000Z</time>
      </trkpt>
      <trkpt lat="30.9519729614257812" lon="-6.9928197860717773">
        <ele>1179.0</ele>
        <time>2018-10-12T08:52:04.000Z</time>
      </trkpt>
      <trkpt lat="30.9519405364990234" lon="-6.9927878379821777">
        <ele>1179.0</ele>
        <time>2018-10-12T08:52:05.000Z</time>
      </trkpt>
      <trkpt lat="30.9519081115722656" lon="-6.9927558898925781">
        <ele>1179.0</ele>
        <time>2018-10-12T08:52:06.000Z</time>
      </trkpt>
      <trkpt lat="30.9518775939941406" lon="-6.9927229881286621">
        <ele>1179.0</ele>
        <time>2018-10-12T08:52:07.000Z</time>
      </trkpt>
      <trkpt lat="30.9518432617187500" lon="-6.9926910400390625">
        <ele>1179.0</ele>
        <time>2018-10-12T08:52:08.000Z</time>
      </trkpt>
      <trkpt lat="30.9518108367919922" lon="-6.9926581382751465">
        <ele>1179.0</ele>
        <time>2018-10-12T08:52:09.000Z</time>
      </trkpt>
      <trkpt lat="30.9517765045166016" lon="-6.9926238059997559">
        <ele>1179.0</ele>
        <time>2018-10-12T08:52:10.000Z</time>
      </trkpt>
      <trkpt lat="30.9517440795898438" lon="-6.9925889968872070">
        <ele>1179.0</ele>
        <time>2018-10-12T08:52:11.000Z</time>
      </trkpt>
      <trkpt lat="30.9517116546630859" lon="-6.9925560951232910">
        <ele>1179.0</ele>
        <time>2018-10-12T08:52:12.000Z</time>
      </trkpt>
      <trkpt lat="30.9516773223876953" lon="-6.9925231933593750">
        <ele>1179.0</ele>
        <time>2018-10-12T08:52:13.000Z</time>
      </trkpt>
      <trkpt lat="30.9516410827636719" lon="-6.9924921989440918">
        <ele>1178.178955078125</ele>
        <time>2018-10-12T08:52:14.000Z</time>
      </trkpt>
      <trkpt lat="30.9516067504882812" lon="-6.9924597740173340">
        <ele>1178.0</ele>
        <time>2018-10-12T08:52:15.000Z</time>
      </trkpt>
      <trkpt lat="30.9515724182128906" lon="-6.9924302101135254">
        <ele>1178.0</ele>
        <time>2018-10-12T08:52:16.000Z</time>
      </trkpt>
      <trkpt lat="30.9515361785888672" lon="-6.9923992156982422">
        <ele>1178.0</ele>
        <time>2018-10-12T08:52:17.000Z</time>
      </trkpt>
      <trkpt lat="30.9515018463134766" lon="-6.9923701286315918">
        <ele>1178.0</ele>
        <time>2018-10-12T08:52:18.000Z</time>
      </trkpt>
      <trkpt lat="30.9514656066894531" lon="-6.9923400878906250">
        <ele>1178.0</ele>
        <time>2018-10-12T08:52:19.000Z</time>
      </trkpt>
      <trkpt lat="30.9514312744140625" lon="-6.9923100471496582">
        <ele>1177.178955078125</ele>
        <time>2018-10-12T08:52:20.000Z</time>
      </trkpt>
      <trkpt lat="30.9513969421386719" lon="-6.9922819137573242">
        <ele>1177.0</ele>
        <time>2018-10-12T08:52:21.000Z</time>
      </trkpt>
      <trkpt lat="30.9513607025146484" lon="-6.9922537803649902">
        <ele>1177.0</ele>
        <time>2018-10-12T08:52:22.000Z</time>
      </trkpt>
      <trkpt lat="30.9513263702392578" lon="-6.9922280311584473">
        <ele>1177.821044921875</ele>
        <time>2018-10-12T08:52:23.000Z</time>
      </trkpt>
      <trkpt lat="30.9512920379638672" lon="-6.9921998977661133">
        <ele>1178.0</ele>
        <time>2018-10-12T08:52:24.000Z</time>
      </trkpt>
      <trkpt lat="30.9512557983398438" lon="-6.9921741485595703">
        <ele>1178.0</ele>
        <time>2018-10-12T08:52:25.000Z</time>
      </trkpt>
      <trkpt lat="30.9512214660644531" lon="-6.9921441078186035">
        <ele>1178.0</ele>
        <time>2018-10-12T08:52:26.000Z</time>
      </trkpt>
      <trkpt lat="30.9511852264404297" lon="-6.9921140670776367">
        <ele>1178.0</ele>
        <time>2018-10-12T08:52:27.000Z</time>
      </trkpt>
      <trkpt lat="30.9511489868164062" lon="-6.9920859336853027">
        <ele>1178.0</ele>
        <time>2018-10-12T08:52:28.000Z</time>
      </trkpt>
      <trkpt lat="30.9511146545410156" lon="-6.9920549392700195">
        <ele>1178.0</ele>
        <time>2018-10-12T08:52:29.000Z</time>
      </trkpt>
      <trkpt lat="30.9510822296142578" lon="-6.9920258522033691">
        <ele>1178.0</ele>
        <time>2018-10-12T08:52:30.000Z</time>
      </trkpt>
      <trkpt lat="30.9510478973388672" lon="-6.9919958114624023">
        <ele>1178.0</ele>
        <time>2018-10-12T08:52:31.000Z</time>
      </trkpt>
      <trkpt lat="30.9510154724121094" lon="-6.9919648170471191">
        <ele>1177.178955078125</ele>
        <time>2018-10-12T08:52:32.000Z</time>
      </trkpt>
      <trkpt lat="30.9509811401367188" lon="-6.9919347763061523">
        <ele>1177.0</ele>
        <time>2018-10-12T08:52:33.000Z</time>
      </trkpt>
      <trkpt lat="30.9509468078613281" lon="-6.9919071197509766">
        <ele>1177.0</ele>
        <time>2018-10-12T08:52:34.000Z</time>
      </trkpt>
      <trkpt lat="30.9509105682373047" lon="-6.9918770790100098">
        <ele>1177.0</ele>
        <time>2018-10-12T08:52:35.000Z</time>
      </trkpt>
      <trkpt lat="30.9508762359619141" lon="-6.9918498992919922">
        <ele>1177.0</ele>
        <time>2018-10-12T08:52:36.000Z</time>
      </trkpt>
      <trkpt lat="30.9508399963378906" lon="-6.9918208122253418">
        <ele>1177.0</ele>
        <time>2018-10-12T08:52:37.000Z</time>
      </trkpt>
      <trkpt lat="30.9508037567138672" lon="-6.9917941093444824">
        <ele>1177.0</ele>
        <time>2018-10-12T08:52:38.000Z</time>
      </trkpt>
      <trkpt lat="30.9507675170898438" lon="-6.9917678833007812">
        <ele>1177.0</ele>
        <time>2018-10-12T08:52:39.000Z</time>
      </trkpt>
      <trkpt lat="30.9507312774658203" lon="-6.9917402267456055">
        <ele>1177.0</ele>
        <time>2018-10-12T08:52:40.000Z</time>
      </trkpt>
      <trkpt lat="30.9506988525390625" lon="-6.9917149543762207">
        <ele>1177.0</ele>
        <time>2018-10-12T08:52:41.000Z</time>
      </trkpt>
      <trkpt lat="30.9506664276123047" lon="-6.9916901588439941">
        <ele>1177.0</ele>
        <time>2018-10-12T08:52:42.000Z</time>
      </trkpt>
      <trkpt lat="30.9506359100341797" lon="-6.9916639328002930">
        <ele>1177.0</ele>
        <time>2018-10-12T08:52:43.000Z</time>
      </trkpt>
      <trkpt lat="30.9506053924560547" lon="-6.9916381835937500">
        <ele>1177.0</ele>
        <time>2018-10-12T08:52:44.000Z</time>
      </trkpt>
      <trkpt lat="30.9505786895751953" lon="-6.9916110038757324">
        <ele>1177.0</ele>
        <time>2018-10-12T08:52:45.000Z</time>
      </trkpt>
      <trkpt lat="30.9505500793457031" lon="-6.9915838241577148">
        <ele>1177.0</ele>
        <time>2018-10-12T08:52:46.000Z</time>
      </trkpt>
      <trkpt lat="30.9505233764648438" lon="-6.9915580749511719">
        <ele>1177.0</ele>
        <time>2018-10-12T08:52:47.000Z</time>
      </trkpt>
      <trkpt lat="30.9504985809326172" lon="-6.9915289878845215">
        <ele>1177.0</ele>
        <time>2018-10-12T08:52:48.000Z</time>
      </trkpt>
      <trkpt lat="30.9504718780517578" lon="-6.9914999008178711">
        <ele>1177.0</ele>
        <time>2018-10-12T08:52:49.000Z</time>
      </trkpt>
      <trkpt lat="30.9504413604736328" lon="-6.9914717674255371">
        <ele>1177.0</ele>
        <time>2018-10-12T08:52:50.000Z</time>
      </trkpt>
      <trkpt lat="30.9504127502441406" lon="-6.9914422035217285">
        <ele>1177.0</ele>
        <time>2018-10-12T08:52:51.000Z</time>
      </trkpt>
      <trkpt lat="30.9503841400146484" lon="-6.9914131164550781">
        <ele>1177.0</ele>
        <time>2018-10-12T08:52:52.000Z</time>
      </trkpt>
      <trkpt lat="30.9503536224365234" lon="-6.9913849830627441">
        <ele>1177.0</ele>
        <time>2018-10-12T08:52:53.000Z</time>
      </trkpt>
      <trkpt lat="30.9503231048583984" lon="-6.9913539886474609">
        <ele>1177.0</ele>
        <time>2018-10-12T08:52:54.000Z</time>
      </trkpt>
      <trkpt lat="30.9502925872802734" lon="-6.9913239479064941">
        <ele>1177.0</ele>
        <time>2018-10-12T08:52:55.000Z</time>
      </trkpt>
      <trkpt lat="30.9502620697021484" lon="-6.9912939071655273">
        <ele>1177.0</ele>
        <time>2018-10-12T08:52:56.000Z</time>
      </trkpt>
      <trkpt lat="30.9502296447753906" lon="-6.9912657737731934">
        <ele>1177.0</ele>
        <time>2018-10-12T08:52:57.000Z</time>
      </trkpt>
      <trkpt lat="30.9501972198486328" lon="-6.9912362098693848">
        <ele>1177.0</ele>
        <time>2018-10-12T08:52:58.000Z</time>
      </trkpt>
      <trkpt lat="30.9501667022705078" lon="-6.9912080764770508">
        <ele>1177.0</ele>
        <time>2018-10-12T08:52:59.000Z</time>
      </trkpt>
      <trkpt lat="30.9501342773437500" lon="-6.9911789894104004">
        <ele>1177.0</ele>
        <time>2018-10-12T08:53:00.000Z</time>
      </trkpt>
      <trkpt lat="30.9501018524169922" lon="-6.9911518096923828">
        <ele>1177.0</ele>
        <time>2018-10-12T08:53:01.000Z</time>
      </trkpt>
      <trkpt lat="30.9500694274902344" lon="-6.9911251068115234">
        <ele>1177.0</ele>
        <time>2018-10-12T08:53:02.000Z</time>
      </trkpt>
      <trkpt lat="30.9500389099121094" lon="-6.9910979270935059">
        <ele>1177.0</ele>
        <time>2018-10-12T08:53:03.000Z</time>
      </trkpt>
      <trkpt lat="30.9500083923339844" lon="-6.9910740852355957">
        <ele>1177.0</ele>
        <time>2018-10-12T08:53:04.000Z</time>
      </trkpt>
      <trkpt lat="30.9499797821044922" lon="-6.9910531044006348">
        <ele>1177.0</ele>
        <time>2018-10-12T08:53:05.000Z</time>
      </trkpt>
      <trkpt lat="30.9499530792236328" lon="-6.9910349845886230">
        <ele>1177.0</ele>
        <time>2018-10-12T08:53:06.000Z</time>
      </trkpt>
      <trkpt lat="30.9499263763427734" lon="-6.9910202026367188">
        <ele>1177.0</ele>
        <time>2018-10-12T08:53:07.000Z</time>
      </trkpt>
      <trkpt lat="30.9498977661132812" lon="-6.9910078048706055">
        <ele>1177.0</ele>
        <time>2018-10-12T08:53:08.000Z</time>
      </trkpt>
      <trkpt lat="30.9498653411865234" lon="-6.9910011291503906">
        <ele>1177.0</ele>
        <time>2018-10-12T08:53:09.000Z</time>
      </trkpt>
      <trkpt lat="30.9498348236083984" lon="-6.9910011291503906">
        <ele>1177.0</ele>
        <time>2018-10-12T08:53:10.000Z</time>
      </trkpt>
      <trkpt lat="30.9498004913330078" lon="-6.9910039901733398">
        <ele>1177.0</ele>
        <time>2018-10-12T08:53:11.000Z</time>
      </trkpt>
      <trkpt lat="30.9497661590576172" lon="-6.9910049438476562">
        <ele>1177.0</ele>
        <time>2018-10-12T08:53:12.000Z</time>
      </trkpt>
      <trkpt lat="30.9497280120849609" lon="-6.9910039901733398">
        <ele>1177.0</ele>
        <time>2018-10-12T08:53:13.000Z</time>
      </trkpt>
      <trkpt lat="30.9496879577636719" lon="-6.9910011291503906">
        <ele>1177.0</ele>
        <time>2018-10-12T08:53:14.000Z</time>
      </trkpt>
      <trkpt lat="30.9496479034423828" lon="-6.9910001754760742">
        <ele>1177.0</ele>
        <time>2018-10-12T08:53:15.000Z</time>
      </trkpt>
      <trkpt lat="30.9496040344238281" lon="-6.9910020828247070">
        <ele>1177.0</ele>
        <time>2018-10-12T08:53:16.000Z</time>
      </trkpt>
      <trkpt lat="30.9495601654052734" lon="-6.9910049438476562">
        <ele>1177.0</ele>
        <time>2018-10-12T08:53:17.000Z</time>
      </trkpt>
      <trkpt lat="30.9495162963867188" lon="-6.9910101890563965">
        <ele>1177.0</ele>
        <time>2018-10-12T08:53:18.000Z</time>
      </trkpt>
      <trkpt lat="30.9494743347167969" lon="-6.9910140037536621">
        <ele>1177.0</ele>
        <time>2018-10-12T08:53:19.000Z</time>
      </trkpt>
      <trkpt lat="30.9494342803955078" lon="-6.9910187721252441">
        <ele>1177.0</ele>
        <time>2018-10-12T08:53:20.000Z</time>
      </trkpt>
      <trkpt lat="30.9493923187255859" lon="-6.9910240173339844">
        <ele>1177.0</ele>
        <time>2018-10-12T08:53:21.000Z</time>
      </trkpt>
      <trkpt lat="30.9493503570556641" lon="-6.9910278320312500">
        <ele>1177.0</ele>
        <time>2018-10-12T08:53:22.000Z</time>
      </trkpt>
      <trkpt lat="30.9493083953857422" lon="-6.9910311698913574">
        <ele>1177.0</ele>
        <time>2018-10-12T08:53:23.000Z</time>
      </trkpt>
      <trkpt lat="30.9492683410644531" lon="-6.9910321235656738">
        <ele>1177.0</ele>
        <time>2018-10-12T08:53:24.000Z</time>
      </trkpt>
      <trkpt lat="30.9492263793945312" lon="-6.9910321235656738">
        <ele>1177.0</ele>
        <time>2018-10-12T08:53:25.000Z</time>
      </trkpt>
      <trkpt lat="30.9491825103759766" lon="-6.9910302162170410">
        <ele>1177.0</ele>
        <time>2018-10-12T08:53:26.000Z</time>
      </trkpt>
      <trkpt lat="30.9491405487060547" lon="-6.9910268783569336">
        <ele>1177.0</ele>
        <time>2018-10-12T08:53:27.000Z</time>
      </trkpt>
      <trkpt lat="30.9490966796875000" lon="-6.9910240173339844">
        <ele>1177.0</ele>
        <time>2018-10-12T08:53:28.000Z</time>
      </trkpt>
      <trkpt lat="30.9490528106689453" lon="-6.9910221099853516">
        <ele>1177.0</ele>
        <time>2018-10-12T08:53:29.000Z</time>
      </trkpt>
      <trkpt lat="30.9490051269531250" lon="-6.9910187721252441">
        <ele>1177.0</ele>
        <time>2018-10-12T08:53:30.000Z</time>
      </trkpt>
      <trkpt lat="30.9489593505859375" lon="-6.9910159111022949">
        <ele>1177.0</ele>
        <time>2018-10-12T08:53:31.000Z</time>
      </trkpt>
      <trkpt lat="30.9489116668701172" lon="-6.9910140037536621">
        <ele>1177.0</ele>
        <time>2018-10-12T08:53:32.000Z</time>
      </trkpt>
      <trkpt lat="30.9488658905029297" lon="-6.9910120964050293">
        <ele>1177.0</ele>
        <time>2018-10-12T08:53:33.000Z</time>
      </trkpt>
      <trkpt lat="30.9488182067871094" lon="-6.9910092353820801">
        <ele>1177.0</ele>
        <time>2018-10-12T08:53:34.000Z</time>
      </trkpt>
      <trkpt lat="30.9487705230712891" lon="-6.9910068511962891">
        <ele>1177.0</ele>
        <time>2018-10-12T08:53:35.000Z</time>
      </trkpt>
      <trkpt lat="30.9487247467041016" lon="-6.9910068511962891">
        <ele>1177.0</ele>
        <time>2018-10-12T08:53:36.000Z</time>
      </trkpt>
      <trkpt lat="30.9486751556396484" lon="-6.9910092353820801">
        <ele>1177.0</ele>
        <time>2018-10-12T08:53:37.000Z</time>
      </trkpt>
      <trkpt lat="30.9486293792724609" lon="-6.9910130500793457">
        <ele>1177.0</ele>
        <time>2018-10-12T08:53:38.000Z</time>
      </trkpt>
      <trkpt lat="30.9485816955566406" lon="-6.9910168647766113">
        <ele>1177.0</ele>
        <time>2018-10-12T08:53:39.000Z</time>
      </trkpt>
      <trkpt lat="30.9485359191894531" lon="-6.9910230636596680">
        <ele>1177.0</ele>
        <time>2018-10-12T08:53:40.000Z</time>
      </trkpt>
      <trkpt lat="30.9484863281250000" lon="-6.9910311698913574">
        <ele>1177.0</ele>
        <time>2018-10-12T08:53:41.000Z</time>
      </trkpt>
      <trkpt lat="30.9484386444091797" lon="-6.9910402297973633">
        <ele>1177.0</ele>
        <time>2018-10-12T08:53:42.000Z</time>
      </trkpt>
      <trkpt lat="30.9483890533447266" lon="-6.9910511970520020">
        <ele>1177.0</ele>
        <time>2018-10-12T08:53:43.000Z</time>
      </trkpt>
      <trkpt lat="30.9483413696289062" lon="-6.9910621643066406">
        <ele>1177.0</ele>
        <time>2018-10-12T08:53:44.000Z</time>
      </trkpt>
      <trkpt lat="30.9482936859130859" lon="-6.9910740852355957">
        <ele>1177.0</ele>
        <time>2018-10-12T08:53:45.000Z</time>
      </trkpt>
      <trkpt lat="30.9482460021972656" lon="-6.9910869598388672">
        <ele>1177.0</ele>
        <time>2018-10-12T08:53:46.000Z</time>
      </trkpt>
      <trkpt lat="30.9481983184814453" lon="-6.9911007881164551">
        <ele>1177.0</ele>
        <time>2018-10-12T08:53:47.000Z</time>
      </trkpt>
      <trkpt lat="30.9481487274169922" lon="-6.9911141395568848">
        <ele>1176.202880859375</ele>
        <time>2018-10-12T08:53:48.000Z</time>
      </trkpt>
      <trkpt lat="30.9480991363525391" lon="-6.9911279678344727">
        <ele>1176.0</ele>
        <time>2018-10-12T08:53:49.000Z</time>
      </trkpt>
      <trkpt lat="30.9480495452880859" lon="-6.9911408424377441">
        <ele>1176.0</ele>
        <time>2018-10-12T08:53:50.000Z</time>
      </trkpt>
      <trkpt lat="30.9479980468750000" lon="-6.9911508560180664">
        <ele>1176.0</ele>
        <time>2018-10-12T08:53:51.000Z</time>
      </trkpt>
      <trkpt lat="30.9479465484619141" lon="-6.9911599159240723">
        <ele>1176.0</ele>
        <time>2018-10-12T08:53:52.000Z</time>
      </trkpt>
      <trkpt lat="30.9478950500488281" lon="-6.9911680221557617">
        <ele>1176.0</ele>
        <time>2018-10-12T08:53:53.000Z</time>
      </trkpt>
      <trkpt lat="30.9478435516357422" lon="-6.9911742210388184">
        <ele>1176.0</ele>
        <time>2018-10-12T08:53:54.000Z</time>
      </trkpt>
      <trkpt lat="30.9477920532226562" lon="-6.9911780357360840">
        <ele>1176.0</ele>
        <time>2018-10-12T08:53:55.000Z</time>
      </trkpt>
      <trkpt lat="30.9477424621582031" lon="-6.9911789894104004">
        <ele>1176.0</ele>
        <time>2018-10-12T08:53:56.000Z</time>
      </trkpt>
      <trkpt lat="30.9476909637451172" lon="-6.9911780357360840">
        <ele>1176.0</ele>
        <time>2018-10-12T08:53:57.000Z</time>
      </trkpt>
      <trkpt lat="30.9476413726806641" lon="-6.9911751747131348">
        <ele>1176.0</ele>
        <time>2018-10-12T08:53:58.000Z</time>
      </trkpt>
      <trkpt lat="30.9475917816162109" lon="-6.9911727905273438">
        <ele>1176.0</ele>
        <time>2018-10-12T08:53:59.000Z</time>
      </trkpt>
      <trkpt lat="30.9475421905517578" lon="-6.9911718368530273">
        <ele>1176.0</ele>
        <time>2018-10-12T08:54:00.000Z</time>
      </trkpt>
      <trkpt lat="30.9474945068359375" lon="-6.9911718368530273">
        <ele>1176.0</ele>
        <time>2018-10-12T08:54:01.000Z</time>
      </trkpt>
      <trkpt lat="30.9474468231201172" lon="-6.9911718368530273">
        <ele>1176.0</ele>
        <time>2018-10-12T08:54:02.000Z</time>
      </trkpt>
      <trkpt lat="30.9473991394042969" lon="-6.9911718368530273">
        <ele>1176.0</ele>
        <time>2018-10-12T08:54:03.000Z</time>
      </trkpt>
      <trkpt lat="30.9473514556884766" lon="-6.9911718368530273">
        <ele>1176.0</ele>
        <time>2018-10-12T08:54:04.000Z</time>
      </trkpt>
      <trkpt lat="30.9473075866699219" lon="-6.9911708831787109">
        <ele>1176.0</ele>
        <time>2018-10-12T08:54:05.000Z</time>
      </trkpt>
      <trkpt lat="30.9472618103027344" lon="-6.9911680221557617">
        <ele>1176.0</ele>
        <time>2018-10-12T08:54:06.000Z</time>
      </trkpt>
      <trkpt lat="30.9472160339355469" lon="-6.9911642074584961">
        <ele>1176.0</ele>
        <time>2018-10-12T08:54:07.000Z</time>
      </trkpt>
      <trkpt lat="30.9471721649169922" lon="-6.9911580085754395">
        <ele>1176.0</ele>
        <time>2018-10-12T08:54:08.000Z</time>
      </trkpt>
      <trkpt lat="30.9471282958984375" lon="-6.9911489486694336">
        <ele>1176.0</ele>
        <time>2018-10-12T08:54:09.000Z</time>
      </trkpt>
      <trkpt lat="30.9470825195312500" lon="-6.9911351203918457">
        <ele>1176.0</ele>
        <time>2018-10-12T08:54:10.000Z</time>
      </trkpt>
      <trkpt lat="30.9470386505126953" lon="-6.9911170005798340">
        <ele>1176.0</ele>
        <time>2018-10-12T08:54:11.000Z</time>
      </trkpt>
      <trkpt lat="30.9469928741455078" lon="-6.9910931587219238">
        <ele>1176.0</ele>
        <time>2018-10-12T08:54:12.000Z</time>
      </trkpt>
      <trkpt lat="30.9469470977783203" lon="-6.9910659790039062">
        <ele>1176.0</ele>
        <time>2018-10-12T08:54:13.000Z</time>
      </trkpt>
      <trkpt lat="30.9469070434570312" lon="-6.9910349845886230">
        <ele>1176.0</ele>
        <time>2018-10-12T08:54:14.000Z</time>
      </trkpt>
      <trkpt lat="30.9468688964843750" lon="-6.9910030364990234">
        <ele>1176.0</ele>
        <time>2018-10-12T08:54:15.000Z</time>
      </trkpt>
      <trkpt lat="30.9468326568603516" lon="-6.9909701347351074">
        <ele>1176.0</ele>
        <time>2018-10-12T08:54:16.000Z</time>
      </trkpt>
      <trkpt lat="30.9467964172363281" lon="-6.9909338951110840">
        <ele>1176.0</ele>
        <time>2018-10-12T08:54:17.000Z</time>
      </trkpt>
      <trkpt lat="30.9467601776123047" lon="-6.9908981323242188">
        <ele>1176.0</ele>
        <time>2018-10-12T08:54:18.000Z</time>
      </trkpt>
      <trkpt lat="30.9467258453369141" lon="-6.9908628463745117">
        <ele>1176.0</ele>
        <time>2018-10-12T08:54:19.000Z</time>
      </trkpt>
      <trkpt lat="30.9466876983642578" lon="-6.9908289909362793">
        <ele>1176.0</ele>
        <time>2018-10-12T08:54:20.000Z</time>
      </trkpt>
      <trkpt lat="30.9466495513916016" lon="-6.9907970428466797">
        <ele>1176.0</ele>
        <time>2018-10-12T08:54:21.000Z</time>
      </trkpt>
      <trkpt lat="30.9466114044189453" lon="-6.9907641410827637">
        <ele>1176.0</ele>
        <time>2018-10-12T08:54:22.000Z</time>
      </trkpt>
      <trkpt lat="30.9465713500976562" lon="-6.9907307624816895">
        <ele>1176.0</ele>
        <time>2018-10-12T08:54:23.000Z</time>
      </trkpt>
      <trkpt lat="30.9465312957763672" lon="-6.9906988143920898">
        <ele>1176.0</ele>
        <time>2018-10-12T08:54:24.000Z</time>
      </trkpt>
      <trkpt lat="30.9464931488037109" lon="-6.9906687736511230">
        <ele>1176.0</ele>
        <time>2018-10-12T08:54:25.000Z</time>
      </trkpt>
      <trkpt lat="30.9464530944824219" lon="-6.9906392097473145">
        <ele>1176.0</ele>
        <time>2018-10-12T08:54:26.000Z</time>
      </trkpt>
      <trkpt lat="30.9464168548583984" lon="-6.9906091690063477">
        <ele>1176.0</ele>
        <time>2018-10-12T08:54:27.000Z</time>
      </trkpt>
      <trkpt lat="30.9463806152343750" lon="-6.9905772209167480">
        <ele>1176.0</ele>
        <time>2018-10-12T08:54:28.000Z</time>
      </trkpt>
      <trkpt lat="30.9463481903076172" lon="-6.9905400276184082">
        <ele>1176.0</ele>
        <time>2018-10-12T08:54:29.000Z</time>
      </trkpt>
      <trkpt lat="30.9463176727294922" lon="-6.9904980659484863">
        <ele>1176.0</ele>
        <time>2018-10-12T08:54:30.000Z</time>
      </trkpt>
      <trkpt lat="30.9462871551513672" lon="-6.9904518127441406">
        <ele>1176.0</ele>
        <time>2018-10-12T08:54:31.000Z</time>
      </trkpt>
      <trkpt lat="30.9462528228759766" lon="-6.9904060363769531">
        <ele>1176.0</ele>
        <time>2018-10-12T08:54:32.000Z</time>
      </trkpt>
      <trkpt lat="30.9462165832519531" lon="-6.9903612136840820">
        <ele>1176.0</ele>
        <time>2018-10-12T08:54:33.000Z</time>
      </trkpt>
      <trkpt lat="30.9461803436279297" lon="-6.9903187751770020">
        <ele>1176.0</ele>
        <time>2018-10-12T08:54:34.000Z</time>
      </trkpt>
      <trkpt lat="30.9461383819580078" lon="-6.9902830123901367">
        <ele>1176.0</ele>
        <time>2018-10-12T08:54:35.000Z</time>
      </trkpt>
      <trkpt lat="30.9460926055908203" lon="-6.9902529716491699">
        <ele>1175.178955078125</ele>
        <time>2018-10-12T08:54:36.000Z</time>
      </trkpt>
      <trkpt lat="30.9460430145263672" lon="-6.9902272224426270">
        <ele>1175.0</ele>
        <time>2018-10-12T08:54:37.000Z</time>
      </trkpt>
      <trkpt lat="30.9459934234619141" lon="-6.9902081489562988">
        <ele>1175.0</ele>
        <time>2018-10-12T08:54:38.000Z</time>
      </trkpt>
      <trkpt lat="30.9459495544433594" lon="-6.9901938438415527">
        <ele>1175.0</ele>
        <time>2018-10-12T08:54:39.000Z</time>
      </trkpt>
      <trkpt lat="30.9459075927734375" lon="-6.9901847839355469">
        <ele>1175.0</ele>
        <time>2018-10-12T08:54:40.000Z</time>
      </trkpt>
      <trkpt lat="30.9458713531494141" lon="-6.9901771545410156">
        <ele>1175.0</ele>
        <time>2018-10-12T08:54:41.000Z</time>
      </trkpt>
      <trkpt lat="30.9458370208740234" lon="-6.9901700019836426">
        <ele>1175.0</ele>
        <time>2018-10-12T08:54:42.000Z</time>
      </trkpt>
      <trkpt lat="30.9458045959472656" lon="-6.9901618957519531">
        <ele>1175.0</ele>
        <time>2018-10-12T08:54:43.000Z</time>
      </trkpt>
      <trkpt lat="30.9457740783691406" lon="-6.9901528358459473">
        <ele>1175.0</ele>
        <time>2018-10-12T08:54:44.000Z</time>
      </trkpt>
      <trkpt lat="30.9457492828369141" lon="-6.9901461601257324">
        <ele>1175.0</ele>
        <time>2018-10-12T08:54:45.000Z</time>
      </trkpt>
      <trkpt lat="30.9457244873046875" lon="-6.9901380538940430">
        <ele>1175.0</ele>
        <time>2018-10-12T08:54:46.000Z</time>
      </trkpt>
      <trkpt lat="30.9457015991210938" lon="-6.9901309013366699">
        <ele>1175.0</ele>
        <time>2018-10-12T08:54:47.000Z</time>
      </trkpt>
      <trkpt lat="30.9456768035888672" lon="-6.9901242256164551">
        <ele>1175.0</ele>
        <time>2018-10-12T08:54:48.000Z</time>
      </trkpt>
      <trkpt lat="30.9456481933593750" lon="-6.9901151657104492">
        <ele>1175.0</ele>
        <time>2018-10-12T08:54:49.000Z</time>
      </trkpt>
      <trkpt lat="30.9456195831298828" lon="-6.9901070594787598">
        <ele>1175.0</ele>
        <time>2018-10-12T08:54:50.000Z</time>
      </trkpt>
      <trkpt lat="30.9455871582031250" lon="-6.9900979995727539">
        <ele>1175.0</ele>
        <time>2018-10-12T08:54:51.000Z</time>
      </trkpt>
      <trkpt lat="30.9455566406250000" lon="-6.9900889396667480">
        <ele>1175.0</ele>
        <time>2018-10-12T08:54:52.000Z</time>
      </trkpt>
      <trkpt lat="30.9455204010009766" lon="-6.9900770187377930">
        <ele>1175.0</ele>
        <time>2018-10-12T08:54:53.000Z</time>
      </trkpt>
      <trkpt lat="30.9454860687255859" lon="-6.9900631904602051">
        <ele>1175.0</ele>
        <time>2018-10-12T08:54:54.000Z</time>
      </trkpt>
      <trkpt lat="30.9454498291015625" lon="-6.9900460243225098">
        <ele>1175.0</ele>
        <time>2018-10-12T08:54:55.000Z</time>
      </trkpt>
      <trkpt lat="30.9454135894775391" lon="-6.9900288581848145">
        <ele>1175.0</ele>
        <time>2018-10-12T08:54:56.000Z</time>
      </trkpt>
      <trkpt lat="30.9453773498535156" lon="-6.9900112152099609">
        <ele>1175.0</ele>
        <time>2018-10-12T08:54:57.000Z</time>
      </trkpt>
      <trkpt lat="30.9453411102294922" lon="-6.9899911880493164">
        <ele>1175.0</ele>
        <time>2018-10-12T08:54:58.000Z</time>
      </trkpt>
      <trkpt lat="30.9453048706054688" lon="-6.9899711608886719">
        <ele>1175.0</ele>
        <time>2018-10-12T08:54:59.000Z</time>
      </trkpt>
      <trkpt lat="30.9452667236328125" lon="-6.9899530410766602">
        <ele>1175.0</ele>
        <time>2018-10-12T08:55:00.000Z</time>
      </trkpt>
      <trkpt lat="30.9452266693115234" lon="-6.9899320602416992">
        <ele>1175.0</ele>
        <time>2018-10-12T08:55:01.000Z</time>
      </trkpt>
      <trkpt lat="30.9451885223388672" lon="-6.9899120330810547">
        <ele>1175.0</ele>
        <time>2018-10-12T08:55:02.000Z</time>
      </trkpt>
      <trkpt lat="30.9451484680175781" lon="-6.9898920059204102">
        <ele>1175.0</ele>
        <time>2018-10-12T08:55:03.000Z</time>
      </trkpt>
      <trkpt lat="30.9451065063476562" lon="-6.9898700714111328">
        <ele>1175.0</ele>
        <time>2018-10-12T08:55:04.000Z</time>
      </trkpt>
      <trkpt lat="30.9450664520263672" lon="-6.9898500442504883">
        <ele>1175.0</ele>
        <time>2018-10-12T08:55:05.000Z</time>
      </trkpt>
      <trkpt lat="30.9450263977050781" lon="-6.9898262023925781">
        <ele>1175.0</ele>
        <time>2018-10-12T08:55:06.000Z</time>
      </trkpt>
      <trkpt lat="30.9449844360351562" lon="-6.9898061752319336">
        <ele>1175.0</ele>
        <time>2018-10-12T08:55:07.000Z</time>
      </trkpt>
      <trkpt lat="30.9449443817138672" lon="-6.9897837638854980">
        <ele>1175.0</ele>
        <time>2018-10-12T08:55:08.000Z</time>
      </trkpt>
      <trkpt lat="30.9449024200439453" lon="-6.9897618293762207">
        <ele>1175.0</ele>
        <time>2018-10-12T08:55:09.000Z</time>
      </trkpt>
      <trkpt lat="30.9448604583740234" lon="-6.9897398948669434">
        <ele>1175.0</ele>
        <time>2018-10-12T08:55:10.000Z</time>
      </trkpt>
      <trkpt lat="30.9448165893554688" lon="-6.9897179603576660">
        <ele>1175.0</ele>
        <time>2018-10-12T08:55:11.000Z</time>
      </trkpt>
      <trkpt lat="30.9447746276855469" lon="-6.9896960258483887">
        <ele>1175.0</ele>
        <time>2018-10-12T08:55:12.000Z</time>
      </trkpt>
      <trkpt lat="30.9447326660156250" lon="-6.9896721839904785">
        <ele>1175.0</ele>
        <time>2018-10-12T08:55:13.000Z</time>
      </trkpt>
      <trkpt lat="30.9446907043457031" lon="-6.9896478652954102">
        <ele>1175.0</ele>
        <time>2018-10-12T08:55:14.000Z</time>
      </trkpt>
      <trkpt lat="30.9446487426757812" lon="-6.9896240234375000">
        <ele>1175.0</ele>
        <time>2018-10-12T08:55:15.000Z</time>
      </trkpt>
      <trkpt lat="30.9446086883544922" lon="-6.9895977973937988">
        <ele>1174.178955078125</ele>
        <time>2018-10-12T08:55:16.000Z</time>
      </trkpt>
      <trkpt lat="30.9445686340332031" lon="-6.9895720481872559">
        <ele>1174.0</ele>
        <time>2018-10-12T08:55:17.000Z</time>
      </trkpt>
      <trkpt lat="30.9445266723632812" lon="-6.9895482063293457">
        <ele>1174.0</ele>
        <time>2018-10-12T08:55:18.000Z</time>
      </trkpt>
      <trkpt lat="30.9444885253906250" lon="-6.9895210266113281">
        <ele>1174.0</ele>
        <time>2018-10-12T08:55:19.000Z</time>
      </trkpt>
      <trkpt lat="30.9444484710693359" lon="-6.9894938468933105">
        <ele>1174.0</ele>
        <time>2018-10-12T08:55:20.000Z</time>
      </trkpt>
      <trkpt lat="30.9444103240966797" lon="-6.9894680976867676">
        <ele>1174.0</ele>
        <time>2018-10-12T08:55:21.000Z</time>
      </trkpt>
      <trkpt lat="30.9443702697753906" lon="-6.9894418716430664">
        <ele>1174.0</ele>
        <time>2018-10-12T08:55:22.000Z</time>
      </trkpt>
      <trkpt lat="30.9443321228027344" lon="-6.9894180297851562">
        <ele>1174.0</ele>
        <time>2018-10-12T08:55:23.000Z</time>
      </trkpt>
      <trkpt lat="30.9442901611328125" lon="-6.9893960952758789">
        <ele>1174.0</ele>
        <time>2018-10-12T08:55:24.000Z</time>
      </trkpt>
      <trkpt lat="30.9442481994628906" lon="-6.9893751144409180">
        <ele>1174.0</ele>
        <time>2018-10-12T08:55:25.000Z</time>
      </trkpt>
      <trkpt lat="30.9442062377929688" lon="-6.9893560409545898">
        <ele>1174.0</ele>
        <time>2018-10-12T08:55:26.000Z</time>
      </trkpt>
      <trkpt lat="30.9441623687744141" lon="-6.9893398284912109">
        <ele>1174.0</ele>
        <time>2018-10-12T08:55:27.000Z</time>
      </trkpt>
      <trkpt lat="30.9441184997558594" lon="-6.9893260002136230">
        <ele>1174.0</ele>
        <time>2018-10-12T08:55:28.000Z</time>
      </trkpt>
      <trkpt lat="30.9440727233886719" lon="-6.9893140792846680">
        <ele>1174.0</ele>
        <time>2018-10-12T08:55:29.000Z</time>
      </trkpt>
      <trkpt lat="30.9440288543701172" lon="-6.9892997741699219">
        <ele>1174.0</ele>
        <time>2018-10-12T08:55:30.000Z</time>
      </trkpt>
      <trkpt lat="30.9439830780029297" lon="-6.9892849922180176">
        <ele>1174.0</ele>
        <time>2018-10-12T08:55:31.000Z</time>
      </trkpt>
      <trkpt lat="30.9439373016357422" lon="-6.9892702102661133">
        <ele>1174.0</ele>
        <time>2018-10-12T08:55:32.000Z</time>
      </trkpt>
      <trkpt lat="30.9438934326171875" lon="-6.9892559051513672">
        <ele>1174.0</ele>
        <time>2018-10-12T08:55:33.000Z</time>
      </trkpt>
      <trkpt lat="30.9438495635986328" lon="-6.9892401695251465">
        <ele>1174.0</ele>
        <time>2018-10-12T08:55:34.000Z</time>
      </trkpt>
      <trkpt lat="30.9438076019287109" lon="-6.9892210960388184">
        <ele>1174.0</ele>
        <time>2018-10-12T08:55:35.000Z</time>
      </trkpt>
      <trkpt lat="30.9437637329101562" lon="-6.9892020225524902">
        <ele>1174.0</ele>
        <time>2018-10-12T08:55:36.000Z</time>
      </trkpt>
      <trkpt lat="30.9437198638916016" lon="-6.9891829490661621">
        <ele>1174.0</ele>
        <time>2018-10-12T08:55:37.000Z</time>
      </trkpt>
      <trkpt lat="30.9436721801757812" lon="-6.9891638755798340">
        <ele>1174.8128662109375</ele>
        <time>2018-10-12T08:55:38.000Z</time>
      </trkpt>
      <trkpt lat="30.9436244964599609" lon="-6.9891438484191895">
        <ele>1175.0</ele>
        <time>2018-10-12T08:55:39.000Z</time>
      </trkpt>
      <trkpt lat="30.9435729980468750" lon="-6.9891238212585449">
        <ele>1175.0</ele>
        <time>2018-10-12T08:55:40.000Z</time>
      </trkpt>
      <trkpt lat="30.9435195922851562" lon="-6.9891009330749512">
        <ele>1175.0</ele>
        <time>2018-10-12T08:55:41.000Z</time>
      </trkpt>
      <trkpt lat="30.9434661865234375" lon="-6.9890761375427246">
        <ele>1175.0</ele>
        <time>2018-10-12T08:55:42.000Z</time>
      </trkpt>
      <trkpt lat="30.9434108734130859" lon="-6.9890518188476562">
        <ele>1175.0</ele>
        <time>2018-10-12T08:55:43.000Z</time>
      </trkpt>
      <trkpt lat="30.9433555603027344" lon="-6.9890279769897461">
        <ele>1175.821044921875</ele>
        <time>2018-10-12T08:55:44.000Z</time>
      </trkpt>
      <trkpt lat="30.9433002471923828" lon="-6.9890041351318359">
        <ele>1176.0</ele>
        <time>2018-10-12T08:55:45.000Z</time>
      </trkpt>
      <trkpt lat="30.9432449340820312" lon="-6.9889807701110840">
        <ele>1176.0</ele>
        <time>2018-10-12T08:55:46.000Z</time>
      </trkpt>
      <trkpt lat="30.9431896209716797" lon="-6.9889597892761230">
        <ele>1176.0</ele>
        <time>2018-10-12T08:55:47.000Z</time>
      </trkpt>
      <trkpt lat="30.9431343078613281" lon="-6.9889397621154785">
        <ele>1176.0</ele>
        <time>2018-10-12T08:55:48.000Z</time>
      </trkpt>
      <trkpt lat="30.9430809020996094" lon="-6.9889168739318848">
        <ele>1176.0</ele>
        <time>2018-10-12T08:55:49.000Z</time>
      </trkpt>
      <trkpt lat="30.9430294036865234" lon="-6.9888968467712402">
        <ele>1176.0</ele>
        <time>2018-10-12T08:55:50.000Z</time>
      </trkpt>
      <trkpt lat="30.9429779052734375" lon="-6.9888758659362793">
        <ele>1176.0</ele>
        <time>2018-10-12T08:55:51.000Z</time>
      </trkpt>
      <trkpt lat="30.9429283142089844" lon="-6.9888558387756348">
        <ele>1176.0</ele>
        <time>2018-10-12T08:55:52.000Z</time>
      </trkpt>
      <trkpt lat="30.9428787231445312" lon="-6.9888339042663574">
        <ele>1176.0</ele>
        <time>2018-10-12T08:55:53.000Z</time>
      </trkpt>
      <trkpt lat="30.9428291320800781" lon="-6.9888138771057129">
        <ele>1176.0</ele>
        <time>2018-10-12T08:55:54.000Z</time>
      </trkpt>
      <trkpt lat="30.9427814483642578" lon="-6.9887938499450684">
        <ele>1176.0</ele>
        <time>2018-10-12T08:55:55.000Z</time>
      </trkpt>
      <trkpt lat="30.9427356719970703" lon="-6.9887738227844238">
        <ele>1176.0</ele>
        <time>2018-10-12T08:55:56.000Z</time>
      </trkpt>
      <trkpt lat="30.9426918029785156" lon="-6.9887552261352539">
        <ele>1176.0</ele>
        <time>2018-10-12T08:55:57.000Z</time>
      </trkpt>
      <trkpt lat="30.9426517486572266" lon="-6.9887361526489258">
        <ele>1176.821044921875</ele>
        <time>2018-10-12T08:55:58.000Z</time>
      </trkpt>
      <trkpt lat="30.9426116943359375" lon="-6.9887180328369141">
        <ele>1177.0</ele>
        <time>2018-10-12T08:55:59.000Z</time>
      </trkpt>
      <trkpt lat="30.9425735473632812" lon="-6.9886989593505859">
        <ele>1177.0</ele>
        <time>2018-10-12T08:56:00.000Z</time>
      </trkpt>
      <trkpt lat="30.9425354003906250" lon="-6.9886798858642578">
        <ele>1177.0</ele>
        <time>2018-10-12T08:56:01.000Z</time>
      </trkpt>
      <trkpt lat="30.9424991607666016" lon="-6.9886608123779297">
        <ele>1177.0</ele>
        <time>2018-10-12T08:56:02.000Z</time>
      </trkpt>
      <trkpt lat="30.9424629211425781" lon="-6.9886422157287598">
        <ele>1177.0</ele>
        <time>2018-10-12T08:56:03.000Z</time>
      </trkpt>
      <trkpt lat="30.9424304962158203" lon="-6.9886212348937988">
        <ele>1177.0</ele>
        <time>2018-10-12T08:56:04.000Z</time>
      </trkpt>
      <trkpt lat="30.9423980712890625" lon="-6.9885988235473633">
        <ele>1177.0</ele>
        <time>2018-10-12T08:56:05.000Z</time>
      </trkpt>
      <trkpt lat="30.9423656463623047" lon="-6.9885778427124023">
        <ele>1177.0</ele>
        <time>2018-10-12T08:56:06.000Z</time>
      </trkpt>
      <trkpt lat="30.9423313140869141" lon="-6.9885578155517578">
        <ele>1177.0</ele>
        <time>2018-10-12T08:56:07.000Z</time>
      </trkpt>
      <trkpt lat="30.9422950744628906" lon="-6.9885411262512207">
        <ele>1177.0</ele>
        <time>2018-10-12T08:56:08.000Z</time>
      </trkpt>
      <trkpt lat="30.9422607421875000" lon="-6.9885258674621582">
        <ele>1177.0</ele>
        <time>2018-10-12T08:56:09.000Z</time>
      </trkpt>
      <trkpt lat="30.9422264099121094" lon="-6.9885101318359375">
        <ele>1177.0</ele>
        <time>2018-10-12T08:56:10.000Z</time>
      </trkpt>
      <trkpt lat="30.9421901702880859" lon="-6.9884939193725586">
        <ele>1177.0</ele>
        <time>2018-10-12T08:56:11.000Z</time>
      </trkpt>
      <trkpt lat="30.9421558380126953" lon="-6.9884791374206543">
        <ele>1177.0</ele>
        <time>2018-10-12T08:56:12.000Z</time>
      </trkpt>
      <trkpt lat="30.9421195983886719" lon="-6.9884657859802246">
        <ele>1177.0</ele>
        <time>2018-10-12T08:56:13.000Z</time>
      </trkpt>
      <trkpt lat="30.9420833587646484" lon="-6.9884519577026367">
        <ele>1177.0</ele>
        <time>2018-10-12T08:56:14.000Z</time>
      </trkpt>
      <trkpt lat="30.9420452117919922" lon="-6.9884390830993652">
        <ele>1177.0</ele>
        <time>2018-10-12T08:56:15.000Z</time>
      </trkpt>
      <trkpt lat="30.9420070648193359" lon="-6.9884262084960938">
        <ele>1177.0</ele>
        <time>2018-10-12T08:56:16.000Z</time>
      </trkpt>
      <trkpt lat="30.9419708251953125" lon="-6.9884138107299805">
        <ele>1177.0</ele>
        <time>2018-10-12T08:56:17.000Z</time>
      </trkpt>
      <trkpt lat="30.9419345855712891" lon="-6.9884018898010254">
        <ele>1177.0</ele>
        <time>2018-10-12T08:56:18.000Z</time>
      </trkpt>
      <trkpt lat="30.9418983459472656" lon="-6.9883890151977539">
        <ele>1177.0</ele>
        <time>2018-10-12T08:56:19.000Z</time>
      </trkpt>
      <trkpt lat="30.9418621063232422" lon="-6.9883751869201660">
        <ele>1177.0</ele>
        <time>2018-10-12T08:56:20.000Z</time>
      </trkpt>
      <trkpt lat="30.9418277740478516" lon="-6.9883618354797363">
        <ele>1177.0</ele>
        <time>2018-10-12T08:56:21.000Z</time>
      </trkpt>
      <trkpt lat="30.9417972564697266" lon="-6.9883480072021484">
        <ele>1177.0</ele>
        <time>2018-10-12T08:56:22.000Z</time>
      </trkpt>
      <trkpt lat="30.9417705535888672" lon="-6.9883308410644531">
        <ele>1177.0</ele>
        <time>2018-10-12T08:56:23.000Z</time>
      </trkpt>
      <trkpt lat="30.9417457580566406" lon="-6.9883151054382324">
        <ele>1176.2520751953125</ele>
        <time>2018-10-12T08:56:24.000Z</time>
      </trkpt>
      <trkpt lat="30.9417190551757812" lon="-6.9883022308349609">
        <ele>1176.0</ele>
        <time>2018-10-12T08:56:25.000Z</time>
      </trkpt>
      <trkpt lat="30.9416942596435547" lon="-6.9882898330688477">
        <ele>1176.0</ele>
        <time>2018-10-12T08:56:26.000Z</time>
      </trkpt>
      <trkpt lat="30.9416694641113281" lon="-6.9882798194885254">
        <ele>1176.0</ele>
        <time>2018-10-12T08:56:27.000Z</time>
      </trkpt>
      <trkpt lat="30.9416446685791016" lon="-6.9882698059082031">
        <ele>1176.0</ele>
        <time>2018-10-12T08:56:28.000Z</time>
      </trkpt>
      <trkpt lat="30.9416217803955078" lon="-6.9882621765136719">
        <ele>1176.0</ele>
        <time>2018-10-12T08:56:29.000Z</time>
      </trkpt>
      <trkpt lat="30.9415969848632812" lon="-6.9882559776306152">
        <ele>1176.0</ele>
        <time>2018-10-12T08:56:30.000Z</time>
      </trkpt>
      <trkpt lat="30.9415721893310547" lon="-6.9882488250732422">
        <ele>1176.0</ele>
        <time>2018-10-12T08:56:31.000Z</time>
      </trkpt>
      <trkpt lat="30.9415473937988281" lon="-6.9882440567016602">
        <ele>1176.0</ele>
        <time>2018-10-12T08:56:32.000Z</time>
      </trkpt>
      <trkpt lat="30.9415206909179688" lon="-6.9882369041442871">
        <ele>1176.0</ele>
        <time>2018-10-12T08:56:33.000Z</time>
      </trkpt>
      <trkpt lat="30.9414882659912109" lon="-6.9882268905639648">
        <ele>1175.178955078125</ele>
        <time>2018-10-12T08:56:34.000Z</time>
      </trkpt>
      <trkpt lat="30.9414501190185547" lon="-6.9882140159606934">
        <ele>1175.0</ele>
        <time>2018-10-12T08:56:35.000Z</time>
      </trkpt>
      <trkpt lat="30.9414157867431641" lon="-6.9881978034973145">
        <ele>1175.0</ele>
        <time>2018-10-12T08:56:36.000Z</time>
      </trkpt>
      <trkpt lat="30.9413795471191406" lon="-6.9881777763366699">
        <ele>1175.0</ele>
        <time>2018-10-12T08:56:37.000Z</time>
      </trkpt>
      <trkpt lat="30.9413394927978516" lon="-6.9881582260131836">
        <ele>1175.0</ele>
        <time>2018-10-12T08:56:38.000Z</time>
      </trkpt>
      <trkpt lat="30.9412975311279297" lon="-6.9881381988525391">
        <ele>1175.0</ele>
        <time>2018-10-12T08:56:39.000Z</time>
      </trkpt>
      <trkpt lat="30.9412517547607422" lon="-6.9881148338317871">
        <ele>1175.0</ele>
        <time>2018-10-12T08:56:40.000Z</time>
      </trkpt>
      <trkpt lat="30.9412040710449219" lon="-6.9880928993225098">
        <ele>1174.178955078125</ele>
        <time>2018-10-12T08:56:41.000Z</time>
      </trkpt>
      <trkpt lat="30.9411602020263672" lon="-6.9880647659301758">
        <ele>1174.0</ele>
        <time>2018-10-12T08:56:42.000Z</time>
      </trkpt>
      <trkpt lat="30.9411163330078125" lon="-6.9880299568176270">
        <ele>1173.4793701171875</ele>
        <time>2018-10-12T08:56:43.000Z</time>
      </trkpt>
      <trkpt lat="30.9410762786865234" lon="-6.9879870414733887">
        <ele>1173.0</ele>
        <time>2018-10-12T08:56:44.000Z</time>
      </trkpt>
      <trkpt lat="30.9410438537597656" lon="-6.9879350662231445">
        <ele>1173.0</ele>
        <time>2018-10-12T08:56:45.000Z</time>
      </trkpt>
      <trkpt lat="30.9410228729248047" lon="-6.9878740310668945">
        <ele>1172.178955078125</ele>
        <time>2018-10-12T08:56:46.000Z</time>
      </trkpt>
      <trkpt lat="30.9410076141357422" lon="-6.9878120422363281">
        <ele>1172.0</ele>
        <time>2018-10-12T08:56:47.000Z</time>
      </trkpt>
      <trkpt lat="30.9409961700439453" lon="-6.9877510070800781">
        <ele>1172.0</ele>
        <time>2018-10-12T08:56:48.000Z</time>
      </trkpt>
      <trkpt lat="30.9409866333007812" lon="-6.9876909255981445">
        <ele>1172.0</ele>
        <time>2018-10-12T08:56:49.000Z</time>
      </trkpt>
      <trkpt lat="30.9409770965576172" lon="-6.9876341819763184">
        <ele>1172.0</ele>
        <time>2018-10-12T08:56:50.000Z</time>
      </trkpt>
      <trkpt lat="30.9409713745117188" lon="-6.9875788688659668">
        <ele>1172.0</ele>
        <time>2018-10-12T08:56:51.000Z</time>
      </trkpt>
      <trkpt lat="30.9409656524658203" lon="-6.9875240325927734">
        <ele>1172.0</ele>
        <time>2018-10-12T08:56:52.000Z</time>
      </trkpt>
      <trkpt lat="30.9409618377685547" lon="-6.9874711036682129">
        <ele>1172.0</ele>
        <time>2018-10-12T08:56:53.000Z</time>
      </trkpt>
      <trkpt lat="30.9409580230712891" lon="-6.9874181747436523">
        <ele>1172.0</ele>
        <time>2018-10-12T08:56:54.000Z</time>
      </trkpt>
      <trkpt lat="30.9409542083740234" lon="-6.9873638153076172">
        <ele>1172.0</ele>
        <time>2018-10-12T08:56:55.000Z</time>
      </trkpt>
      <trkpt lat="30.9409503936767578" lon="-6.9873108863830566">
        <ele>1172.0</ele>
        <time>2018-10-12T08:56:56.000Z</time>
      </trkpt>
      <trkpt lat="30.9409465789794922" lon="-6.9872589111328125">
        <ele>1172.0</ele>
        <time>2018-10-12T08:56:57.000Z</time>
      </trkpt>
      <trkpt lat="30.9409408569335938" lon="-6.9872059822082520">
        <ele>1172.0</ele>
        <time>2018-10-12T08:56:58.000Z</time>
      </trkpt>
      <trkpt lat="30.9409351348876953" lon="-6.9871530532836914">
        <ele>1172.0</ele>
        <time>2018-10-12T08:56:59.000Z</time>
      </trkpt>
      <trkpt lat="30.9409313201904297" lon="-6.9871001243591309">
        <ele>1172.0</ele>
        <time>2018-10-12T08:57:00.000Z</time>
      </trkpt>
      <trkpt lat="30.9409275054931641" lon="-6.9870481491088867">
        <ele>1172.0</ele>
        <time>2018-10-12T08:57:01.000Z</time>
      </trkpt>
      <trkpt lat="30.9409236907958984" lon="-6.9869971275329590">
        <ele>1172.0</ele>
        <time>2018-10-12T08:57:02.000Z</time>
      </trkpt>
      <trkpt lat="30.9409179687500000" lon="-6.9869480133056641">
        <ele>1172.0</ele>
        <time>2018-10-12T08:57:03.000Z</time>
      </trkpt>
      <trkpt lat="30.9409103393554688" lon="-6.9869008064270020">
        <ele>1172.0</ele>
        <time>2018-10-12T08:57:04.000Z</time>
      </trkpt>
      <trkpt lat="30.9409046173095703" lon="-6.9868569374084473">
        <ele>1172.0</ele>
        <time>2018-10-12T08:57:05.000Z</time>
      </trkpt>
      <trkpt lat="30.9408988952636719" lon="-6.9868149757385254">
        <ele>1172.0</ele>
        <time>2018-10-12T08:57:06.000Z</time>
      </trkpt>
      <trkpt lat="30.9408950805664062" lon="-6.9867739677429199">
        <ele>1172.0</ele>
        <time>2018-10-12T08:57:07.000Z</time>
      </trkpt>
      <trkpt lat="30.9408931732177734" lon="-6.9867348670959473">
        <ele>1172.0</ele>
        <time>2018-10-12T08:57:08.000Z</time>
      </trkpt>
      <trkpt lat="30.9408893585205078" lon="-6.9866971969604492">
        <ele>1172.0</ele>
        <time>2018-10-12T08:57:09.000Z</time>
      </trkpt>
      <trkpt lat="30.9408855438232422" lon="-6.9866619110107422">
        <ele>1172.0</ele>
        <time>2018-10-12T08:57:10.000Z</time>
      </trkpt>
      <trkpt lat="30.9408836364746094" lon="-6.9866328239440918">
        <ele>1172.0</ele>
        <time>2018-10-12T08:57:11.000Z</time>
      </trkpt>
      <trkpt lat="30.9408836364746094" lon="-6.9866070747375488">
        <ele>1172.0</ele>
        <time>2018-10-12T08:57:12.000Z</time>
      </trkpt>
      <trkpt lat="30.9408817291259766" lon="-6.9865841865539551">
        <ele>1172.0</ele>
        <time>2018-10-12T08:57:13.000Z</time>
      </trkpt>
      <trkpt lat="30.9408817291259766" lon="-6.9865617752075195">
        <ele>1172.0</ele>
        <time>2018-10-12T08:57:14.000Z</time>
      </trkpt>
      <trkpt lat="30.9408817291259766" lon="-6.9865207672119141">
        <ele>1172.0</ele>
        <time>2018-10-12T08:57:16.000Z</time>
      </trkpt>
      <trkpt lat="30.9408645629882812" lon="-6.9864897727966309">
        <ele>1172.0</ele>
        <time>2018-10-12T08:57:18.000Z</time>
      </trkpt>
      <trkpt lat="30.9408378601074219" lon="-6.9864802360534668">
        <ele>1172.0</ele>
        <time>2018-10-12T08:57:20.000Z</time>
      </trkpt>
      <trkpt lat="30.9408130645751953" lon="-6.9864668846130371">
        <ele>1172.0</ele>
        <time>2018-10-12T08:57:22.000Z</time>
      </trkpt>
      <trkpt lat="30.9408016204833984" lon="-6.9864449501037598">
        <ele>1172.0</ele>
        <time>2018-10-12T08:57:24.000Z</time>
      </trkpt>
      <trkpt lat="30.9407958984375000" lon="-6.9864239692687988">
        <ele>1172.0</ele>
        <time>2018-10-12T08:57:26.000Z</time>
      </trkpt>
      <trkpt lat="30.9407615661621094" lon="-6.9863791465759277">
        <ele>1172.0</ele>
        <time>2018-10-12T08:57:34.000Z</time>
      </trkpt>
      <trkpt lat="30.9407424926757812" lon="-6.9863958358764648">
        <ele>1172.0</ele>
        <time>2018-10-12T08:57:36.000Z</time>
      </trkpt>
      <trkpt lat="30.9407386779785156" lon="-6.9864258766174316">
        <ele>1172.0</ele>
        <time>2018-10-12T08:57:38.000Z</time>
      </trkpt>
      <trkpt lat="30.9407405853271484" lon="-6.9864530563354492">
        <ele>1172.0</ele>
        <time>2018-10-12T08:57:40.000Z</time>
      </trkpt>
      <trkpt lat="30.9407310485839844" lon="-6.9864740371704102">
        <ele>1172.0</ele>
        <time>2018-10-12T08:57:42.000Z</time>
      </trkpt>
      <trkpt lat="30.9407157897949219" lon="-6.9865059852600098">
        <ele>1172.0</ele>
        <time>2018-10-12T08:57:44.000Z</time>
      </trkpt>
      <trkpt lat="30.9407043457031250" lon="-6.9865379333496094">
        <ele>1172.0</ele>
        <time>2018-10-12T08:57:46.000Z</time>
      </trkpt>
      <trkpt lat="30.9406986236572266" lon="-6.9865717887878418">
        <ele>1172.0</ele>
        <time>2018-10-12T08:57:48.000Z</time>
      </trkpt>
      <trkpt lat="30.9406719207763672" lon="-6.9866399765014648">
        <ele>1172.0</ele>
        <time>2018-10-12T08:58:33.000Z</time>
      </trkpt>
      <trkpt lat="30.9406967163085938" lon="-6.9866437911987305">
        <ele>1172.0</ele>
        <time>2018-10-12T08:58:35.000Z</time>
      </trkpt>
      <trkpt lat="30.9407043457031250" lon="-6.9866061210632324">
        <ele>1172.0</ele>
        <time>2018-10-12T08:58:37.000Z</time>
      </trkpt>
      <trkpt lat="30.9406890869140625" lon="-6.9865860939025879">
        <ele>1172.0</ele>
        <time>2018-10-12T08:58:38.000Z</time>
      </trkpt>
      <trkpt lat="30.9406681060791016" lon="-6.9865717887878418">
        <ele>1172.0</ele>
        <time>2018-10-12T08:58:39.000Z</time>
      </trkpt>
      <trkpt lat="30.9406509399414062" lon="-6.9865570068359375">
        <ele>1172.0</ele>
        <time>2018-10-12T08:58:40.000Z</time>
      </trkpt>
      <trkpt lat="30.9406337738037109" lon="-6.9865369796752930">
        <ele>1172.0</ele>
        <time>2018-10-12T08:58:41.000Z</time>
      </trkpt>
      <trkpt lat="30.9406185150146484" lon="-6.9865121841430664">
        <ele>1172.0</ele>
        <time>2018-10-12T08:58:42.000Z</time>
      </trkpt>
      <trkpt lat="30.9406051635742188" lon="-6.9864821434020996">
        <ele>1172.0</ele>
        <time>2018-10-12T08:58:43.000Z</time>
      </trkpt>
      <trkpt lat="30.9405956268310547" lon="-6.9864478111267090">
        <ele>1172.0</ele>
        <time>2018-10-12T08:58:44.000Z</time>
      </trkpt>
      <trkpt lat="30.9405899047851562" lon="-6.9864110946655273">
        <ele>1172.0</ele>
        <time>2018-10-12T08:58:45.000Z</time>
      </trkpt>
      <trkpt lat="30.9405803680419922" lon="-6.9863729476928711">
        <ele>1172.0</ele>
        <time>2018-10-12T08:58:46.000Z</time>
      </trkpt>
      <trkpt lat="30.9405727386474609" lon="-6.9863348007202148">
        <ele>1172.0</ele>
        <time>2018-10-12T08:58:47.000Z</time>
      </trkpt>
      <trkpt lat="30.9405651092529297" lon="-6.9862971305847168">
        <ele>1172.0</ele>
        <time>2018-10-12T08:58:48.000Z</time>
      </trkpt>
      <trkpt lat="30.9405574798583984" lon="-6.9862599372863770">
        <ele>1172.0</ele>
        <time>2018-10-12T08:58:49.000Z</time>
      </trkpt>
      <trkpt lat="30.9405479431152344" lon="-6.9862241744995117">
        <ele>1172.0</ele>
        <time>2018-10-12T08:58:50.000Z</time>
      </trkpt>
      <trkpt lat="30.9405403137207031" lon="-6.9861869812011719">
        <ele>1172.0</ele>
        <time>2018-10-12T08:58:51.000Z</time>
      </trkpt>
      <trkpt lat="30.9405364990234375" lon="-6.9861497879028320">
        <ele>1172.0</ele>
        <time>2018-10-12T08:58:52.000Z</time>
      </trkpt>
      <trkpt lat="30.9405326843261719" lon="-6.9861111640930176">
        <ele>1172.0</ele>
        <time>2018-10-12T08:58:53.000Z</time>
      </trkpt>
      <trkpt lat="30.9405250549316406" lon="-6.9860701560974121">
        <ele>1172.0</ele>
        <time>2018-10-12T08:58:54.000Z</time>
      </trkpt>
      <trkpt lat="30.9405174255371094" lon="-6.9860281944274902">
        <ele>1172.0</ele>
        <time>2018-10-12T08:58:55.000Z</time>
      </trkpt>
      <trkpt lat="30.9405078887939453" lon="-6.9859819412231445">
        <ele>1172.0</ele>
        <time>2018-10-12T08:58:56.000Z</time>
      </trkpt>
      <trkpt lat="30.9404983520507812" lon="-6.9859328269958496">
        <ele>1172.0</ele>
        <time>2018-10-12T08:58:57.000Z</time>
      </trkpt>
      <trkpt lat="30.9404888153076172" lon="-6.9858808517456055">
        <ele>1172.0</ele>
        <time>2018-10-12T08:58:58.000Z</time>
      </trkpt>
      <trkpt lat="30.9404697418212891" lon="-6.9858288764953613">
        <ele>1172.0</ele>
        <time>2018-10-12T08:58:59.000Z</time>
      </trkpt>
      <trkpt lat="30.9404430389404297" lon="-6.9857811927795410">
        <ele>1172.0</ele>
        <time>2018-10-12T08:59:00.000Z</time>
      </trkpt>
      <trkpt lat="30.9404144287109375" lon="-6.9857330322265625">
        <ele>1172.0</ele>
        <time>2018-10-12T08:59:01.000Z</time>
      </trkpt>
      <trkpt lat="30.9403896331787109" lon="-6.9856801033020020">
        <ele>1172.0</ele>
        <time>2018-10-12T08:59:02.000Z</time>
      </trkpt>
      <trkpt lat="30.9403705596923828" lon="-6.9856219291687012">
        <ele>1172.0</ele>
        <time>2018-10-12T08:59:03.000Z</time>
      </trkpt>
      <trkpt lat="30.9403648376464844" lon="-6.9855589866638184">
        <ele>1172.0</ele>
        <time>2018-10-12T08:59:04.000Z</time>
      </trkpt>
      <trkpt lat="30.9403667449951172" lon="-6.9854907989501953">
        <ele>1171.178955078125</ele>
        <time>2018-10-12T08:59:05.000Z</time>
      </trkpt>
      <trkpt lat="30.9403781890869141" lon="-6.9854240417480469">
        <ele>1171.821044921875</ele>
        <time>2018-10-12T08:59:06.000Z</time>
      </trkpt>
      <trkpt lat="30.9403915405273438" lon="-6.9853558540344238">
        <ele>1172.0</ele>
        <time>2018-10-12T08:59:07.000Z</time>
      </trkpt>
      <trkpt lat="30.9404029846191406" lon="-6.9852881431579590">
        <ele>1172.0</ele>
        <time>2018-10-12T08:59:08.000Z</time>
      </trkpt>
      <trkpt lat="30.9404067993164062" lon="-6.9852180480957031">
        <ele>1172.0</ele>
        <time>2018-10-12T08:59:09.000Z</time>
      </trkpt>
      <trkpt lat="30.9404048919677734" lon="-6.9851469993591309">
        <ele>1172.0</ele>
        <time>2018-10-12T08:59:10.000Z</time>
      </trkpt>
      <trkpt lat="30.9404010772705078" lon="-6.9850759506225586">
        <ele>1172.0</ele>
        <time>2018-10-12T08:59:11.000Z</time>
      </trkpt>
      <trkpt lat="30.9403972625732422" lon="-6.9850058555603027">
        <ele>1172.0</ele>
        <time>2018-10-12T08:59:12.000Z</time>
      </trkpt>
      <trkpt lat="30.9403915405273438" lon="-6.9849362373352051">
        <ele>1172.0</ele>
        <time>2018-10-12T08:59:13.000Z</time>
      </trkpt>
      <trkpt lat="30.9403839111328125" lon="-6.9848670959472656">
        <ele>1172.0</ele>
        <time>2018-10-12T08:59:14.000Z</time>
      </trkpt>
      <trkpt lat="30.9403743743896484" lon="-6.9847998619079590">
        <ele>1172.0</ele>
        <time>2018-10-12T08:59:15.000Z</time>
      </trkpt>
      <trkpt lat="30.9403686523437500" lon="-6.9847350120544434">
        <ele>1171.27001953125</ele>
        <time>2018-10-12T08:59:16.000Z</time>
      </trkpt>
      <trkpt lat="30.9403610229492188" lon="-6.9846701622009277">
        <ele>1171.0</ele>
        <time>2018-10-12T08:59:17.000Z</time>
      </trkpt>
      <trkpt lat="30.9403533935546875" lon="-6.9846057891845703">
        <ele>1171.0</ele>
        <time>2018-10-12T08:59:18.000Z</time>
      </trkpt>
      <trkpt lat="30.9403457641601562" lon="-6.9845409393310547">
        <ele>1171.0</ele>
        <time>2018-10-12T08:59:19.000Z</time>
      </trkpt>
      <trkpt lat="30.9403381347656250" lon="-6.9844760894775391">
        <ele>1171.0</ele>
        <time>2018-10-12T08:59:20.000Z</time>
      </trkpt>
      <trkpt lat="30.9403305053710938" lon="-6.9844098091125488">
        <ele>1171.0</ele>
        <time>2018-10-12T08:59:21.000Z</time>
      </trkpt>
      <trkpt lat="30.9403228759765625" lon="-6.9843449592590332">
        <ele>1171.0</ele>
        <time>2018-10-12T08:59:22.000Z</time>
      </trkpt>
      <trkpt lat="30.9403171539306641" lon="-6.9842801094055176">
        <ele>1171.0</ele>
        <time>2018-10-12T08:59:23.000Z</time>
      </trkpt>
      <trkpt lat="30.9403095245361328" lon="-6.9842138290405273">
        <ele>1171.0</ele>
        <time>2018-10-12T08:59:24.000Z</time>
      </trkpt>
      <trkpt lat="30.9403038024902344" lon="-6.9841489791870117">
        <ele>1171.0</ele>
        <time>2018-10-12T08:59:25.000Z</time>
      </trkpt>
      <trkpt lat="30.9402961730957031" lon="-6.9840860366821289">
        <ele>1171.0</ele>
        <time>2018-10-12T08:59:26.000Z</time>
      </trkpt>
      <trkpt lat="30.9402885437011719" lon="-6.9840250015258789">
        <ele>1171.0</ele>
        <time>2018-10-12T08:59:27.000Z</time>
      </trkpt>
      <trkpt lat="30.9402809143066406" lon="-6.9839649200439453">
        <ele>1171.0</ele>
        <time>2018-10-12T08:59:28.000Z</time>
      </trkpt>
      <trkpt lat="30.9402732849121094" lon="-6.9839048385620117">
        <ele>1171.0</ele>
        <time>2018-10-12T08:59:29.000Z</time>
      </trkpt>
      <trkpt lat="30.9402675628662109" lon="-6.9838452339172363">
        <ele>1171.0</ele>
        <time>2018-10-12T08:59:30.000Z</time>
      </trkpt>
      <trkpt lat="30.9402599334716797" lon="-6.9837851524353027">
        <ele>1171.0</ele>
        <time>2018-10-12T08:59:31.000Z</time>
      </trkpt>
      <trkpt lat="30.9402542114257812" lon="-6.9837241172790527">
        <ele>1171.0</ele>
        <time>2018-10-12T08:59:32.000Z</time>
      </trkpt>
      <trkpt lat="30.9402465820312500" lon="-6.9836621284484863">
        <ele>1171.0</ele>
        <time>2018-10-12T08:59:33.000Z</time>
      </trkpt>
      <trkpt lat="30.9402408599853516" lon="-6.9836010932922363">
        <ele>1171.0</ele>
        <time>2018-10-12T08:59:34.000Z</time>
      </trkpt>
      <trkpt lat="30.9402332305908203" lon="-6.9835400581359863">
        <ele>1171.0</ele>
        <time>2018-10-12T08:59:35.000Z</time>
      </trkpt>
      <trkpt lat="30.9402275085449219" lon="-6.9834790229797363">
        <ele>1171.0</ele>
        <time>2018-10-12T08:59:36.000Z</time>
      </trkpt>
      <trkpt lat="30.9402198791503906" lon="-6.9834189414978027">
        <ele>1171.0</ele>
        <time>2018-10-12T08:59:37.000Z</time>
      </trkpt>
      <trkpt lat="30.9402122497558594" lon="-6.9833588600158691">
        <ele>1171.0</ele>
        <time>2018-10-12T08:59:38.000Z</time>
      </trkpt>
      <trkpt lat="30.9402046203613281" lon="-6.9832987785339355">
        <ele>1171.0</ele>
        <time>2018-10-12T08:59:39.000Z</time>
      </trkpt>
      <trkpt lat="30.9401969909667969" lon="-6.9832382202148438">
        <ele>1171.0</ele>
        <time>2018-10-12T08:59:40.000Z</time>
      </trkpt>
      <trkpt lat="30.9401893615722656" lon="-6.9831748008728027">
        <ele>1171.0</ele>
        <time>2018-10-12T08:59:41.000Z</time>
      </trkpt>
      <trkpt lat="30.9401836395263672" lon="-6.9831128120422363">
        <ele>1171.0</ele>
        <time>2018-10-12T08:59:42.000Z</time>
      </trkpt>
      <trkpt lat="30.9401741027832031" lon="-6.9830498695373535">
        <ele>1171.0</ele>
        <time>2018-10-12T08:59:43.000Z</time>
      </trkpt>
      <trkpt lat="30.9401683807373047" lon="-6.9829878807067871">
        <ele>1171.0</ele>
        <time>2018-10-12T08:59:44.000Z</time>
      </trkpt>
      <trkpt lat="30.9401607513427734" lon="-6.9829249382019043">
        <ele>1171.0</ele>
        <time>2018-10-12T08:59:45.000Z</time>
      </trkpt>
      <trkpt lat="30.9401531219482422" lon="-6.9828619956970215">
        <ele>1171.0</ele>
        <time>2018-10-12T08:59:46.000Z</time>
      </trkpt>
      <trkpt lat="30.9401473999023438" lon="-6.9827990531921387">
        <ele>1171.0</ele>
        <time>2018-10-12T08:59:47.000Z</time>
      </trkpt>
      <trkpt lat="30.9401397705078125" lon="-6.9827361106872559">
        <ele>1171.0</ele>
        <time>2018-10-12T08:59:48.000Z</time>
      </trkpt>
      <trkpt lat="30.9401302337646484" lon="-6.9826722145080566">
        <ele>1171.0</ele>
        <time>2018-10-12T08:59:49.000Z</time>
      </trkpt>
      <trkpt lat="30.9401226043701172" lon="-6.9826068878173828">
        <ele>1171.0</ele>
        <time>2018-10-12T08:59:50.000Z</time>
      </trkpt>
      <trkpt lat="30.9401149749755859" lon="-6.9825410842895508">
        <ele>1171.0</ele>
        <time>2018-10-12T08:59:51.000Z</time>
      </trkpt>
      <trkpt lat="30.9401073455810547" lon="-6.9824738502502441">
        <ele>1171.0</ele>
        <time>2018-10-12T08:59:52.000Z</time>
      </trkpt>
      <trkpt lat="30.9400997161865234" lon="-6.9824061393737793">
        <ele>1171.0</ele>
        <time>2018-10-12T08:59:53.000Z</time>
      </trkpt>
      <trkpt lat="30.9400920867919922" lon="-6.9823389053344727">
        <ele>1171.0</ele>
        <time>2018-10-12T08:59:54.000Z</time>
      </trkpt>
      <trkpt lat="30.9400844573974609" lon="-6.9822721481323242">
        <ele>1171.0</ele>
        <time>2018-10-12T08:59:55.000Z</time>
      </trkpt>
      <trkpt lat="30.9400787353515625" lon="-6.9822058677673340">
        <ele>1171.0</ele>
        <time>2018-10-12T08:59:56.000Z</time>
      </trkpt>
      <trkpt lat="30.9400691986083984" lon="-6.9821400642395020">
        <ele>1171.0</ele>
        <time>2018-10-12T08:59:57.000Z</time>
      </trkpt>
      <trkpt lat="30.9400596618652344" lon="-6.9820718765258789">
        <ele>1171.0</ele>
        <time>2018-10-12T08:59:58.000Z</time>
      </trkpt>
      <trkpt lat="30.9400520324707031" lon="-6.9820017814636230">
        <ele>1171.0</ele>
        <time>2018-10-12T08:59:59.000Z</time>
      </trkpt>
      <trkpt lat="30.9400424957275391" lon="-6.9819331169128418">
        <ele>1171.0</ele>
        <time>2018-10-12T09:00:00.000Z</time>
      </trkpt>
      <trkpt lat="30.9400367736816406" lon="-6.9818649291992188">
        <ele>1171.0</ele>
        <time>2018-10-12T09:00:01.000Z</time>
      </trkpt>
      <trkpt lat="30.9400291442871094" lon="-6.9817991256713867">
        <ele>1171.0</ele>
        <time>2018-10-12T09:00:02.000Z</time>
      </trkpt>
      <trkpt lat="30.9400234222412109" lon="-6.9817328453063965">
        <ele>1171.0</ele>
        <time>2018-10-12T09:00:03.000Z</time>
      </trkpt>
      <trkpt lat="30.9400157928466797" lon="-6.9816699028015137">
        <ele>1171.0</ele>
        <time>2018-10-12T09:00:04.000Z</time>
      </trkpt>
      <trkpt lat="30.9400081634521484" lon="-6.9816069602966309">
        <ele>1171.821044921875</ele>
        <time>2018-10-12T09:00:05.000Z</time>
      </trkpt>
      <trkpt lat="30.9400005340576172" lon="-6.9815440177917480">
        <ele>1172.0</ele>
        <time>2018-10-12T09:00:06.000Z</time>
      </trkpt>
      <trkpt lat="30.9399929046630859" lon="-6.9814820289611816">
        <ele>1172.0</ele>
        <time>2018-10-12T09:00:07.000Z</time>
      </trkpt>
      <trkpt lat="30.9399833679199219" lon="-6.9814209938049316">
        <ele>1172.0</ele>
        <time>2018-10-12T09:00:08.000Z</time>
      </trkpt>
      <trkpt lat="30.9399757385253906" lon="-6.9813609123229980">
        <ele>1172.0</ele>
        <time>2018-10-12T09:00:09.000Z</time>
      </trkpt>
      <trkpt lat="30.9399681091308594" lon="-6.9812998771667480">
        <ele>1172.0</ele>
        <time>2018-10-12T09:00:10.000Z</time>
      </trkpt>
      <trkpt lat="30.9399604797363281" lon="-6.9812397956848145">
        <ele>1171.468994140625</ele>
        <time>2018-10-12T09:00:11.000Z</time>
      </trkpt>
      <trkpt lat="30.9399547576904297" lon="-6.9811768531799316">
        <ele>1171.0</ele>
        <time>2018-10-12T09:00:12.000Z</time>
      </trkpt>
      <trkpt lat="30.9399471282958984" lon="-6.9811110496520996">
        <ele>1171.0</ele>
        <time>2018-10-12T09:00:13.000Z</time>
      </trkpt>
      <trkpt lat="30.9399394989013672" lon="-6.9810428619384766">
        <ele>1171.0</ele>
        <time>2018-10-12T09:00:14.000Z</time>
      </trkpt>
      <trkpt lat="30.9399318695068359" lon="-6.9809751510620117">
        <ele>1171.0</ele>
        <time>2018-10-12T09:00:15.000Z</time>
      </trkpt>
      <trkpt lat="30.9399242401123047" lon="-6.9809060096740723">
        <ele>1171.0</ele>
        <time>2018-10-12T09:00:16.000Z</time>
      </trkpt>
      <trkpt lat="30.9399147033691406" lon="-6.9808378219604492">
        <ele>1171.0</ele>
        <time>2018-10-12T09:00:17.000Z</time>
      </trkpt>
      <trkpt lat="30.9399051666259766" lon="-6.9807710647583008">
        <ele>1171.0</ele>
        <time>2018-10-12T09:00:18.000Z</time>
      </trkpt>
      <trkpt lat="30.9398975372314453" lon="-6.9807038307189941">
        <ele>1171.0</ele>
        <time>2018-10-12T09:00:19.000Z</time>
      </trkpt>
      <trkpt lat="30.9398899078369141" lon="-6.9806370735168457">
        <ele>1171.0</ele>
        <time>2018-10-12T09:00:20.000Z</time>
      </trkpt>
      <trkpt lat="30.9398822784423828" lon="-6.9805688858032227">
        <ele>1171.0</ele>
        <time>2018-10-12T09:00:21.000Z</time>
      </trkpt>
      <trkpt lat="30.9398746490478516" lon="-6.9804987907409668">
        <ele>1170.178955078125</ele>
        <time>2018-10-12T09:00:22.000Z</time>
      </trkpt>
      <trkpt lat="30.9398632049560547" lon="-6.9804248809814453">
        <ele>1170.0</ele>
        <time>2018-10-12T09:00:23.000Z</time>
      </trkpt>
      <trkpt lat="30.9398555755615234" lon="-6.9803471565246582">
        <ele>1170.821044921875</ele>
        <time>2018-10-12T09:00:24.000Z</time>
      </trkpt>
      <trkpt lat="30.9398460388183594" lon="-6.9802670478820801">
        <ele>1171.0</ele>
        <time>2018-10-12T09:00:25.000Z</time>
      </trkpt>
      <trkpt lat="30.9398365020751953" lon="-6.9801850318908691">
        <ele>1170.373291015625</ele>
        <time>2018-10-12T09:00:26.000Z</time>
      </trkpt>
      <trkpt lat="30.9398250579833984" lon="-6.9801030158996582">
        <ele>1169.2593994140625</ele>
        <time>2018-10-12T09:00:27.000Z</time>
      </trkpt>
      <trkpt lat="30.9398155212402344" lon="-6.9800209999084473">
        <ele>1169.0</ele>
        <time>2018-10-12T09:00:28.000Z</time>
      </trkpt>
      <trkpt lat="30.9398078918457031" lon="-6.9799380302429199">
        <ele>1169.0</ele>
        <time>2018-10-12T09:00:29.000Z</time>
      </trkpt>
      <trkpt lat="30.9397964477539062" lon="-6.9798550605773926">
        <ele>1169.0</ele>
        <time>2018-10-12T09:00:30.000Z</time>
      </trkpt>
      <trkpt lat="30.9397869110107422" lon="-6.9797711372375488">
        <ele>1169.0</ele>
        <time>2018-10-12T09:00:31.000Z</time>
      </trkpt>
      <trkpt lat="30.9397773742675781" lon="-6.9796857833862305">
        <ele>1169.0</ele>
        <time>2018-10-12T09:00:32.000Z</time>
      </trkpt>
      <trkpt lat="30.9397678375244141" lon="-6.9796009063720703">
        <ele>1169.0</ele>
        <time>2018-10-12T09:00:33.000Z</time>
      </trkpt>
      <trkpt lat="30.9397563934326172" lon="-6.9795160293579102">
        <ele>1168.2520751953125</ele>
        <time>2018-10-12T09:00:34.000Z</time>
      </trkpt>
      <trkpt lat="30.9397468566894531" lon="-6.9794311523437500">
        <ele>1168.0</ele>
        <time>2018-10-12T09:00:35.000Z</time>
      </trkpt>
      <trkpt lat="30.9397373199462891" lon="-6.9793472290039062">
        <ele>1168.0</ele>
        <time>2018-10-12T09:00:36.000Z</time>
      </trkpt>
      <trkpt lat="30.9397277832031250" lon="-6.9792637825012207">
        <ele>1168.0</ele>
        <time>2018-10-12T09:00:37.000Z</time>
      </trkpt>
      <trkpt lat="30.9397182464599609" lon="-6.9791817665100098">
        <ele>1168.0</ele>
        <time>2018-10-12T09:00:38.000Z</time>
      </trkpt>
      <trkpt lat="30.9397087097167969" lon="-6.9791002273559570">
        <ele>1168.0</ele>
        <time>2018-10-12T09:00:39.000Z</time>
      </trkpt>
      <trkpt lat="30.9396991729736328" lon="-6.9790191650390625">
        <ele>1168.0</ele>
        <time>2018-10-12T09:00:40.000Z</time>
      </trkpt>
      <trkpt lat="30.9396896362304688" lon="-6.9789381027221680">
        <ele>1167.2593994140625</ele>
        <time>2018-10-12T09:00:41.000Z</time>
      </trkpt>
      <trkpt lat="30.9396800994873047" lon="-6.9788589477539062">
        <ele>1167.0</ele>
        <time>2018-10-12T09:00:42.000Z</time>
      </trkpt>
      <trkpt lat="30.9396724700927734" lon="-6.9787812232971191">
        <ele>1167.0</ele>
        <time>2018-10-12T09:00:43.000Z</time>
      </trkpt>
      <trkpt lat="30.9396648406982422" lon="-6.9787039756774902">
        <ele>1167.0</ele>
        <time>2018-10-12T09:00:44.000Z</time>
      </trkpt>
      <trkpt lat="30.9396553039550781" lon="-6.9786272048950195">
        <ele>1167.0</ele>
        <time>2018-10-12T09:00:45.000Z</time>
      </trkpt>
      <trkpt lat="30.9396457672119141" lon="-6.9785499572753906">
        <ele>1167.0</ele>
        <time>2018-10-12T09:00:46.000Z</time>
      </trkpt>
      <trkpt lat="30.9396343231201172" lon="-6.9784731864929199">
        <ele>1167.0</ele>
        <time>2018-10-12T09:00:47.000Z</time>
      </trkpt>
      <trkpt lat="30.9396247863769531" lon="-6.9783949851989746">
        <ele>1167.0</ele>
        <time>2018-10-12T09:00:48.000Z</time>
      </trkpt>
      <trkpt lat="30.9396152496337891" lon="-6.9783182144165039">
        <ele>1167.0</ele>
        <time>2018-10-12T09:00:49.000Z</time>
      </trkpt>
      <trkpt lat="30.9396076202392578" lon="-6.9782400131225586">
        <ele>1167.0</ele>
        <time>2018-10-12T09:00:50.000Z</time>
      </trkpt>
      <trkpt lat="30.9395980834960938" lon="-6.9781641960144043">
        <ele>1167.0</ele>
        <time>2018-10-12T09:00:51.000Z</time>
      </trkpt>
      <trkpt lat="30.9395904541015625" lon="-6.9780869483947754">
        <ele>1167.0</ele>
        <time>2018-10-12T09:00:52.000Z</time>
      </trkpt>
      <trkpt lat="30.9395809173583984" lon="-6.9780101776123047">
        <ele>1167.0</ele>
        <time>2018-10-12T09:00:53.000Z</time>
      </trkpt>
      <trkpt lat="30.9395713806152344" lon="-6.9779329299926758">
        <ele>1167.0</ele>
        <time>2018-10-12T09:00:54.000Z</time>
      </trkpt>
      <trkpt lat="30.9395618438720703" lon="-6.9778537750244141">
        <ele>1167.0</ele>
        <time>2018-10-12T09:00:55.000Z</time>
      </trkpt>
      <trkpt lat="30.9395503997802734" lon="-6.9777750968933105">
        <ele>1167.0</ele>
        <time>2018-10-12T09:00:56.000Z</time>
      </trkpt>
      <trkpt lat="30.9395408630371094" lon="-6.9776959419250488">
        <ele>1167.0</ele>
        <time>2018-10-12T09:00:57.000Z</time>
      </trkpt>
      <trkpt lat="30.9395313262939453" lon="-6.9776167869567871">
        <ele>1167.0</ele>
        <time>2018-10-12T09:00:58.000Z</time>
      </trkpt>
      <trkpt lat="30.9395236968994141" lon="-6.9775390625000000">
        <ele>1167.0</ele>
        <time>2018-10-12T09:00:59.000Z</time>
      </trkpt>
      <trkpt lat="30.9395160675048828" lon="-6.9774608612060547">
        <ele>1167.0</ele>
        <time>2018-10-12T09:01:00.000Z</time>
      </trkpt>
      <trkpt lat="30.9395065307617188" lon="-6.9773840904235840">
        <ele>1167.0</ele>
        <time>2018-10-12T09:01:01.000Z</time>
      </trkpt>
      <trkpt lat="30.9394950866699219" lon="-6.9773068428039551">
        <ele>1167.0</ele>
        <time>2018-10-12T09:01:02.000Z</time>
      </trkpt>
      <trkpt lat="30.9394874572753906" lon="-6.9772310256958008">
        <ele>1167.0</ele>
        <time>2018-10-12T09:01:03.000Z</time>
      </trkpt>
      <trkpt lat="30.9394779205322266" lon="-6.9771552085876465">
        <ele>1167.0</ele>
        <time>2018-10-12T09:01:04.000Z</time>
      </trkpt>
      <trkpt lat="30.9394683837890625" lon="-6.9770789146423340">
        <ele>1167.0</ele>
        <time>2018-10-12T09:01:05.000Z</time>
      </trkpt>
      <trkpt lat="30.9394607543945312" lon="-6.9770040512084961">
        <ele>1167.0</ele>
        <time>2018-10-12T09:01:06.000Z</time>
      </trkpt>
      <trkpt lat="30.9394512176513672" lon="-6.9769301414489746">
        <ele>1167.0</ele>
        <time>2018-10-12T09:01:07.000Z</time>
      </trkpt>
      <trkpt lat="30.9394435882568359" lon="-6.9768562316894531">
        <ele>1167.0</ele>
        <time>2018-10-12T09:01:08.000Z</time>
      </trkpt>
      <trkpt lat="30.9394340515136719" lon="-6.9767808914184570">
        <ele>1167.0</ele>
        <time>2018-10-12T09:01:09.000Z</time>
      </trkpt>
      <trkpt lat="30.9394245147705078" lon="-6.9767079353332520">
        <ele>1167.0</ele>
        <time>2018-10-12T09:01:10.000Z</time>
      </trkpt>
      <trkpt lat="30.9394168853759766" lon="-6.9766340255737305">
        <ele>1167.0</ele>
        <time>2018-10-12T09:01:11.000Z</time>
      </trkpt>
      <trkpt lat="30.9394073486328125" lon="-6.9765610694885254">
        <ele>1167.0</ele>
        <time>2018-10-12T09:01:12.000Z</time>
      </trkpt>
      <trkpt lat="30.9393997192382812" lon="-6.9764871597290039">
        <ele>1167.0</ele>
        <time>2018-10-12T09:01:13.000Z</time>
      </trkpt>
      <trkpt lat="30.9393901824951172" lon="-6.9764118194580078">
        <ele>1167.0</ele>
        <time>2018-10-12T09:01:14.000Z</time>
      </trkpt>
      <trkpt lat="30.9393806457519531" lon="-6.9763360023498535">
        <ele>1167.0</ele>
        <time>2018-10-12T09:01:15.000Z</time>
      </trkpt>
      <trkpt lat="30.9393711090087891" lon="-6.9762592315673828">
        <ele>1167.0</ele>
        <time>2018-10-12T09:01:16.000Z</time>
      </trkpt>
      <trkpt lat="30.9393615722656250" lon="-6.9761829376220703">
        <ele>1167.0</ele>
        <time>2018-10-12T09:01:17.000Z</time>
      </trkpt>
      <trkpt lat="30.9393539428710938" lon="-6.9761071205139160">
        <ele>1167.0</ele>
        <time>2018-10-12T09:01:18.000Z</time>
      </trkpt>
      <trkpt lat="30.9393444061279297" lon="-6.9760317802429199">
        <ele>1167.0</ele>
        <time>2018-10-12T09:01:19.000Z</time>
      </trkpt>
      <trkpt lat="30.9393367767333984" lon="-6.9759578704833984">
        <ele>1167.0</ele>
        <time>2018-10-12T09:01:20.000Z</time>
      </trkpt>
      <trkpt lat="30.9393272399902344" lon="-6.9758839607238770">
        <ele>1167.0</ele>
        <time>2018-10-12T09:01:21.000Z</time>
      </trkpt>
      <trkpt lat="30.9393177032470703" lon="-6.9758100509643555">
        <ele>1167.0</ele>
        <time>2018-10-12T09:01:22.000Z</time>
      </trkpt>
      <trkpt lat="30.9393081665039062" lon="-6.9757351875305176">
        <ele>1166.178955078125</ele>
        <time>2018-10-12T09:01:23.000Z</time>
      </trkpt>
      <trkpt lat="30.9393005371093750" lon="-6.9756608009338379">
        <ele>1166.0</ele>
        <time>2018-10-12T09:01:24.000Z</time>
      </trkpt>
      <trkpt lat="30.9392929077148438" lon="-6.9755859375000000">
        <ele>1166.0</ele>
        <time>2018-10-12T09:01:25.000Z</time>
      </trkpt>
      <trkpt lat="30.9392833709716797" lon="-6.9755120277404785">
        <ele>1166.0</ele>
        <time>2018-10-12T09:01:26.000Z</time>
      </trkpt>
      <trkpt lat="30.9392757415771484" lon="-6.9754371643066406">
        <ele>1166.0</ele>
        <time>2018-10-12T09:01:27.000Z</time>
      </trkpt>
      <trkpt lat="30.9392662048339844" lon="-6.9753627777099609">
        <ele>1166.0</ele>
        <time>2018-10-12T09:01:28.000Z</time>
      </trkpt>
      <trkpt lat="30.9392566680908203" lon="-6.9752888679504395">
        <ele>1166.0</ele>
        <time>2018-10-12T09:01:29.000Z</time>
      </trkpt>
      <trkpt lat="30.9392490386962891" lon="-6.9752149581909180">
        <ele>1166.0</ele>
        <time>2018-10-12T09:01:30.000Z</time>
      </trkpt>
      <trkpt lat="30.9392414093017578" lon="-6.9751420021057129">
        <ele>1166.0</ele>
        <time>2018-10-12T09:01:31.000Z</time>
      </trkpt>
      <trkpt lat="30.9392318725585938" lon="-6.9750690460205078">
        <ele>1166.0</ele>
        <time>2018-10-12T09:01:32.000Z</time>
      </trkpt>
      <trkpt lat="30.9392223358154297" lon="-6.9749960899353027">
        <ele>1166.0</ele>
        <time>2018-10-12T09:01:33.000Z</time>
      </trkpt>
      <trkpt lat="30.9392127990722656" lon="-6.9749231338500977">
        <ele>1166.0</ele>
        <time>2018-10-12T09:01:34.000Z</time>
      </trkpt>
      <trkpt lat="30.9392032623291016" lon="-6.9748501777648926">
        <ele>1166.0</ele>
        <time>2018-10-12T09:01:35.000Z</time>
      </trkpt>
      <trkpt lat="30.9391956329345703" lon="-6.9747772216796875">
        <ele>1166.0</ele>
        <time>2018-10-12T09:01:36.000Z</time>
      </trkpt>
      <trkpt lat="30.9391860961914062" lon="-6.9747037887573242">
        <ele>1166.0</ele>
        <time>2018-10-12T09:01:37.000Z</time>
      </trkpt>
      <trkpt lat="30.9391784667968750" lon="-6.9746317863464355">
        <ele>1166.0</ele>
        <time>2018-10-12T09:01:38.000Z</time>
      </trkpt>
      <trkpt lat="30.9391708374023438" lon="-6.9745588302612305">
        <ele>1166.0</ele>
        <time>2018-10-12T09:01:39.000Z</time>
      </trkpt>
      <trkpt lat="30.9391613006591797" lon="-6.9744868278503418">
        <ele>1166.821044921875</ele>
        <time>2018-10-12T09:01:40.000Z</time>
      </trkpt>
      <trkpt lat="30.9391536712646484" lon="-6.9744148254394531">
        <ele>1167.0</ele>
        <time>2018-10-12T09:01:41.000Z</time>
      </trkpt>
      <trkpt lat="30.9391460418701172" lon="-6.9743437767028809">
        <ele>1167.0</ele>
        <time>2018-10-12T09:01:42.000Z</time>
      </trkpt>
      <trkpt lat="30.9391384124755859" lon="-6.9742732048034668">
        <ele>1167.0</ele>
        <time>2018-10-12T09:01:43.000Z</time>
      </trkpt>
      <trkpt lat="30.9391307830810547" lon="-6.9742040634155273">
        <ele>1167.0</ele>
        <time>2018-10-12T09:01:44.000Z</time>
      </trkpt>
      <trkpt lat="30.9391212463378906" lon="-6.9741339683532715">
        <ele>1167.0</ele>
        <time>2018-10-12T09:01:45.000Z</time>
      </trkpt>
      <trkpt lat="30.9391136169433594" lon="-6.9740648269653320">
        <ele>1167.0</ele>
        <time>2018-10-12T09:01:46.000Z</time>
      </trkpt>
      <trkpt lat="30.9391040802001953" lon="-6.9739952087402344">
        <ele>1167.0</ele>
        <time>2018-10-12T09:01:47.000Z</time>
      </trkpt>
      <trkpt lat="30.9390964508056641" lon="-6.9739251136779785">
        <ele>1167.0</ele>
        <time>2018-10-12T09:01:48.000Z</time>
      </trkpt>
      <trkpt lat="30.9390907287597656" lon="-6.9738550186157227">
        <ele>1167.0</ele>
        <time>2018-10-12T09:01:49.000Z</time>
      </trkpt>
      <trkpt lat="30.9390811920166016" lon="-6.9737858772277832">
        <ele>1167.0</ele>
        <time>2018-10-12T09:01:50.000Z</time>
      </trkpt>
      <trkpt lat="30.9390735626220703" lon="-6.9737157821655273">
        <ele>1167.0</ele>
        <time>2018-10-12T09:01:51.000Z</time>
      </trkpt>
      <trkpt lat="30.9390640258789062" lon="-6.9736471176147461">
        <ele>1167.0</ele>
        <time>2018-10-12T09:01:52.000Z</time>
      </trkpt>
      <trkpt lat="30.9390544891357422" lon="-6.9735760688781738">
        <ele>1167.0</ele>
        <time>2018-10-12T09:01:53.000Z</time>
      </trkpt>
      <trkpt lat="30.9390468597412109" lon="-6.9735050201416016">
        <ele>1167.0</ele>
        <time>2018-10-12T09:01:54.000Z</time>
      </trkpt>
      <trkpt lat="30.9390373229980469" lon="-6.9734320640563965">
        <ele>1167.0</ele>
        <time>2018-10-12T09:01:55.000Z</time>
      </trkpt>
      <trkpt lat="30.9390296936035156" lon="-6.9733581542968750">
        <ele>1167.0</ele>
        <time>2018-10-12T09:01:56.000Z</time>
      </trkpt>
      <trkpt lat="30.9390201568603516" lon="-6.9732828140258789">
        <ele>1167.0</ele>
        <time>2018-10-12T09:01:57.000Z</time>
      </trkpt>
      <trkpt lat="30.9390125274658203" lon="-6.9732089042663574">
        <ele>1167.0</ele>
        <time>2018-10-12T09:01:58.000Z</time>
      </trkpt>
      <trkpt lat="30.9390048980712891" lon="-6.9731349945068359">
        <ele>1167.0</ele>
        <time>2018-10-12T09:01:59.000Z</time>
      </trkpt>
      <trkpt lat="30.9389953613281250" lon="-6.9730601310729980">
        <ele>1167.0</ele>
        <time>2018-10-12T09:02:00.000Z</time>
      </trkpt>
      <trkpt lat="30.9389877319335938" lon="-6.9729838371276855">
        <ele>1167.0</ele>
        <time>2018-10-12T09:02:01.000Z</time>
      </trkpt>
      <trkpt lat="30.9389801025390625" lon="-6.9729099273681641">
        <ele>1167.0</ele>
        <time>2018-10-12T09:02:02.000Z</time>
      </trkpt>
      <trkpt lat="30.9389724731445312" lon="-6.9728350639343262">
        <ele>1167.0</ele>
        <time>2018-10-12T09:02:03.000Z</time>
      </trkpt>
      <trkpt lat="30.9389648437500000" lon="-6.9727621078491211">
        <ele>1167.0</ele>
        <time>2018-10-12T09:02:04.000Z</time>
      </trkpt>
      <trkpt lat="30.9389553070068359" lon="-6.9726901054382324">
        <ele>1167.0</ele>
        <time>2018-10-12T09:02:05.000Z</time>
      </trkpt>
      <trkpt lat="30.9389476776123047" lon="-6.9726171493530273">
        <ele>1167.0</ele>
        <time>2018-10-12T09:02:06.000Z</time>
      </trkpt>
      <trkpt lat="30.9389381408691406" lon="-6.9725461006164551">
        <ele>1167.0</ele>
        <time>2018-10-12T09:02:07.000Z</time>
      </trkpt>
      <trkpt lat="30.9389324188232422" lon="-6.9724721908569336">
        <ele>1167.0</ele>
        <time>2018-10-12T09:02:08.000Z</time>
      </trkpt>
      <trkpt lat="30.9389286041259766" lon="-6.9724011421203613">
        <ele>1167.0</ele>
        <time>2018-10-12T09:02:09.000Z</time>
      </trkpt>
      <trkpt lat="30.9389228820800781" lon="-6.9723258018493652">
        <ele>1167.0</ele>
        <time>2018-10-12T09:02:10.000Z</time>
      </trkpt>
      <trkpt lat="30.9389171600341797" lon="-6.9722518920898438">
        <ele>1167.0</ele>
        <time>2018-10-12T09:02:11.000Z</time>
      </trkpt>
      <trkpt lat="30.9389095306396484" lon="-6.9721760749816895">
        <ele>1167.0</ele>
        <time>2018-10-12T09:02:12.000Z</time>
      </trkpt>
      <trkpt lat="30.9389019012451172" lon="-6.9721021652221680">
        <ele>1167.0</ele>
        <time>2018-10-12T09:02:13.000Z</time>
      </trkpt>
      <trkpt lat="30.9388904571533203" lon="-6.9720258712768555">
        <ele>1167.0</ele>
        <time>2018-10-12T09:02:14.000Z</time>
      </trkpt>
      <trkpt lat="30.9388771057128906" lon="-6.9719519615173340">
        <ele>1167.0</ele>
        <time>2018-10-12T09:02:15.000Z</time>
      </trkpt>
      <trkpt lat="30.9388675689697266" lon="-6.9718780517578125">
        <ele>1167.0</ele>
        <time>2018-10-12T09:02:16.000Z</time>
      </trkpt>
      <trkpt lat="30.9388561248779297" lon="-6.9718041419982910">
        <ele>1167.0</ele>
        <time>2018-10-12T09:02:17.000Z</time>
      </trkpt>
      <trkpt lat="30.9388465881347656" lon="-6.9717321395874023">
        <ele>1167.0</ele>
        <time>2018-10-12T09:02:18.000Z</time>
      </trkpt>
      <trkpt lat="30.9388351440429688" lon="-6.9716620445251465">
        <ele>1167.0</ele>
        <time>2018-10-12T09:02:19.000Z</time>
      </trkpt>
      <trkpt lat="30.9388275146484375" lon="-6.9715919494628906">
        <ele>1167.0</ele>
        <time>2018-10-12T09:02:20.000Z</time>
      </trkpt>
      <trkpt lat="30.9388198852539062" lon="-6.9715218544006348">
        <ele>1166.3780517578125</ele>
        <time>2018-10-12T09:02:21.000Z</time>
      </trkpt>
      <trkpt lat="30.9388122558593750" lon="-6.9714541435241699">
        <ele>1166.0</ele>
        <time>2018-10-12T09:02:22.000Z</time>
      </trkpt>
      <trkpt lat="30.9388046264648438" lon="-6.9713840484619141">
        <ele>1166.0</ele>
        <time>2018-10-12T09:02:23.000Z</time>
      </trkpt>
      <trkpt lat="30.9387950897216797" lon="-6.9713110923767090">
        <ele>1166.0</ele>
        <time>2018-10-12T09:02:24.000Z</time>
      </trkpt>
      <trkpt lat="30.9387855529785156" lon="-6.9712362289428711">
        <ele>1166.0</ele>
        <time>2018-10-12T09:02:25.000Z</time>
      </trkpt>
      <trkpt lat="30.9387741088867188" lon="-6.9711570739746094">
        <ele>1166.0</ele>
        <time>2018-10-12T09:02:26.000Z</time>
      </trkpt>
      <trkpt lat="30.9387626647949219" lon="-6.9710779190063477">
        <ele>1166.0</ele>
        <time>2018-10-12T09:02:27.000Z</time>
      </trkpt>
      <trkpt lat="30.9387512207031250" lon="-6.9709939956665039">
        <ele>1166.0</ele>
        <time>2018-10-12T09:02:28.000Z</time>
      </trkpt>
      <trkpt lat="30.9387416839599609" lon="-6.9709091186523438">
        <ele>1166.0</ele>
        <time>2018-10-12T09:02:29.000Z</time>
      </trkpt>
      <trkpt lat="30.9387321472167969" lon="-6.9708237648010254">
        <ele>1166.0</ele>
        <time>2018-10-12T09:02:30.000Z</time>
      </trkpt>
      <trkpt lat="30.9387226104736328" lon="-6.9707379341125488">
        <ele>1166.0</ele>
        <time>2018-10-12T09:02:31.000Z</time>
      </trkpt>
      <trkpt lat="30.9387130737304688" lon="-6.9706521034240723">
        <ele>1166.0</ele>
        <time>2018-10-12T09:02:32.000Z</time>
      </trkpt>
      <trkpt lat="30.9387054443359375" lon="-6.9705657958984375">
        <ele>1166.0</ele>
        <time>2018-10-12T09:02:33.000Z</time>
      </trkpt>
      <trkpt lat="30.9386940002441406" lon="-6.9704818725585938">
        <ele>1166.0</ele>
        <time>2018-10-12T09:02:34.000Z</time>
      </trkpt>
      <trkpt lat="30.9386844635009766" lon="-6.9703960418701172">
        <ele>1166.0</ele>
        <time>2018-10-12T09:02:35.000Z</time>
      </trkpt>
      <trkpt lat="30.9386749267578125" lon="-6.9703140258789062">
        <ele>1166.0</ele>
        <time>2018-10-12T09:02:36.000Z</time>
      </trkpt>
      <trkpt lat="30.9386653900146484" lon="-6.9702301025390625">
        <ele>1166.0</ele>
        <time>2018-10-12T09:02:37.000Z</time>
      </trkpt>
      <trkpt lat="30.9386577606201172" lon="-6.9701490402221680">
        <ele>1166.0</ele>
        <time>2018-10-12T09:02:38.000Z</time>
      </trkpt>
      <trkpt lat="30.9386501312255859" lon="-6.9700698852539062">
        <ele>1166.0</ele>
        <time>2018-10-12T09:02:39.000Z</time>
      </trkpt>
      <trkpt lat="30.9386425018310547" lon="-6.9699921607971191">
        <ele>1166.0</ele>
        <time>2018-10-12T09:02:40.000Z</time>
      </trkpt>
      <trkpt lat="30.9386348724365234" lon="-6.9699168205261230">
        <ele>1166.0</ele>
        <time>2018-10-12T09:02:41.000Z</time>
      </trkpt>
      <trkpt lat="30.9386253356933594" lon="-6.9698419570922852">
        <ele>1166.0</ele>
        <time>2018-10-12T09:02:42.000Z</time>
      </trkpt>
      <trkpt lat="30.9386157989501953" lon="-6.9697699546813965">
        <ele>1166.0</ele>
        <time>2018-10-12T09:02:43.000Z</time>
      </trkpt>
      <trkpt lat="30.9386062622070312" lon="-6.9696979522705078">
        <ele>1166.0</ele>
        <time>2018-10-12T09:02:44.000Z</time>
      </trkpt>
      <trkpt lat="30.9385986328125000" lon="-6.9696278572082520">
        <ele>1166.0</ele>
        <time>2018-10-12T09:02:45.000Z</time>
      </trkpt>
      <trkpt lat="30.9385890960693359" lon="-6.9695601463317871">
        <ele>1166.0</ele>
        <time>2018-10-12T09:02:46.000Z</time>
      </trkpt>
      <trkpt lat="30.9385833740234375" lon="-6.9694919586181641">
        <ele>1165.178955078125</ele>
        <time>2018-10-12T09:02:47.000Z</time>
      </trkpt>
      <trkpt lat="30.9385757446289062" lon="-6.9694261550903320">
        <ele>1165.0</ele>
        <time>2018-10-12T09:02:48.000Z</time>
      </trkpt>
      <trkpt lat="30.9385700225830078" lon="-6.9693617820739746">
        <ele>1165.0</ele>
        <time>2018-10-12T09:02:49.000Z</time>
      </trkpt>
      <trkpt lat="30.9385623931884766" lon="-6.9692978858947754">
        <ele>1165.0</ele>
        <time>2018-10-12T09:02:50.000Z</time>
      </trkpt>
      <trkpt lat="30.9385566711425781" lon="-6.9692358970642090">
        <ele>1165.0</ele>
        <time>2018-10-12T09:02:51.000Z</time>
      </trkpt>
      <trkpt lat="30.9385509490966797" lon="-6.9691748619079590">
        <ele>1165.626708984375</ele>
        <time>2018-10-12T09:02:52.000Z</time>
      </trkpt>
      <trkpt lat="30.9385433197021484" lon="-6.9691171646118164">
        <ele>1166.0</ele>
        <time>2018-10-12T09:02:53.000Z</time>
      </trkpt>
      <trkpt lat="30.9385414123535156" lon="-6.9690618515014648">
        <ele>1166.0</ele>
        <time>2018-10-12T09:02:54.000Z</time>
      </trkpt>
      <trkpt lat="30.9385375976562500" lon="-6.9690060615539551">
        <ele>1166.0</ele>
        <time>2018-10-12T09:02:55.000Z</time>
      </trkpt>
      <trkpt lat="30.9385375976562500" lon="-6.9689497947692871">
        <ele>1166.0</ele>
        <time>2018-10-12T09:02:56.000Z</time>
      </trkpt>
      <trkpt lat="30.9385356903076172" lon="-6.9688940048217773">
        <ele>1166.0</ele>
        <time>2018-10-12T09:02:57.000Z</time>
      </trkpt>
      <trkpt lat="30.9385318756103516" lon="-6.9688339233398438">
        <ele>1166.0</ele>
        <time>2018-10-12T09:02:58.000Z</time>
      </trkpt>
      <trkpt lat="30.9385261535644531" lon="-6.9687738418579102">
        <ele>1166.0</ele>
        <time>2018-10-12T09:02:59.000Z</time>
      </trkpt>
      <trkpt lat="30.9385204315185547" lon="-6.9687161445617676">
        <ele>1166.0</ele>
        <time>2018-10-12T09:03:00.000Z</time>
      </trkpt>
      <trkpt lat="30.9385147094726562" lon="-6.9686579704284668">
        <ele>1166.0</ele>
        <time>2018-10-12T09:03:01.000Z</time>
      </trkpt>
      <trkpt lat="30.9385070800781250" lon="-6.9686021804809570">
        <ele>1166.0</ele>
        <time>2018-10-12T09:03:02.000Z</time>
      </trkpt>
      <trkpt lat="30.9384994506835938" lon="-6.9685468673706055">
        <ele>1166.0</ele>
        <time>2018-10-12T09:03:03.000Z</time>
      </trkpt>
      <trkpt lat="30.9384899139404297" lon="-6.9684939384460449">
        <ele>1166.0</ele>
        <time>2018-10-12T09:03:04.000Z</time>
      </trkpt>
      <trkpt lat="30.9384803771972656" lon="-6.9684419631958008">
        <ele>1166.0</ele>
        <time>2018-10-12T09:03:05.000Z</time>
      </trkpt>
      <trkpt lat="30.9384727478027344" lon="-6.9683909416198730">
        <ele>1165.1807861328125</ele>
        <time>2018-10-12T09:03:06.000Z</time>
      </trkpt>
      <trkpt lat="30.9384632110595703" lon="-6.9683399200439453">
        <ele>1165.0</ele>
        <time>2018-10-12T09:03:07.000Z</time>
      </trkpt>
      <trkpt lat="30.9384555816650391" lon="-6.9682898521423340">
        <ele>1165.0</ele>
        <time>2018-10-12T09:03:08.000Z</time>
      </trkpt>
      <trkpt lat="30.9384517669677734" lon="-6.9682388305664062">
        <ele>1165.0</ele>
        <time>2018-10-12T09:03:09.000Z</time>
      </trkpt>
      <trkpt lat="30.9384460449218750" lon="-6.9681878089904785">
        <ele>1165.0</ele>
        <time>2018-10-12T09:03:10.000Z</time>
      </trkpt>
      <trkpt lat="30.9384441375732422" lon="-6.9681391716003418">
        <ele>1165.821044921875</ele>
        <time>2018-10-12T09:03:11.000Z</time>
      </trkpt>
      <trkpt lat="30.9384460449218750" lon="-6.9680910110473633">
        <ele>1166.0</ele>
        <time>2018-10-12T09:03:12.000Z</time>
      </trkpt>
      <trkpt lat="30.9384441375732422" lon="-6.9680428504943848">
        <ele>1166.0</ele>
        <time>2018-10-12T09:03:13.000Z</time>
      </trkpt>
      <trkpt lat="30.9384403228759766" lon="-6.9679927825927734">
        <ele>1166.0</ele>
        <time>2018-10-12T09:03:14.000Z</time>
      </trkpt>
      <trkpt lat="30.9384346008300781" lon="-6.9679441452026367">
        <ele>1166.0</ele>
        <time>2018-10-12T09:03:15.000Z</time>
      </trkpt>
      <trkpt lat="30.9384307861328125" lon="-6.9678931236267090">
        <ele>1166.0</ele>
        <time>2018-10-12T09:03:16.000Z</time>
      </trkpt>
      <trkpt lat="30.9384269714355469" lon="-6.9678411483764648">
        <ele>1166.0</ele>
        <time>2018-10-12T09:03:17.000Z</time>
      </trkpt>
      <trkpt lat="30.9384212493896484" lon="-6.9677858352661133">
        <ele>1165.178955078125</ele>
        <time>2018-10-12T09:03:18.000Z</time>
      </trkpt>
      <trkpt lat="30.9384155273437500" lon="-6.9677290916442871">
        <ele>1164.178955078125</ele>
        <time>2018-10-12T09:03:19.000Z</time>
      </trkpt>
      <trkpt lat="30.9384117126464844" lon="-6.9676709175109863">
        <ele>1163.178955078125</ele>
        <time>2018-10-12T09:03:20.000Z</time>
      </trkpt>
      <trkpt lat="30.9384098052978516" lon="-6.9676132202148438">
        <ele>1163.0</ele>
        <time>2018-10-12T09:03:21.000Z</time>
      </trkpt>
      <trkpt lat="30.9384098052978516" lon="-6.9675531387329102">
        <ele>1163.0</ele>
        <time>2018-10-12T09:03:22.000Z</time>
      </trkpt>
      <trkpt lat="30.9384136199951172" lon="-6.9674921035766602">
        <ele>1163.0</ele>
        <time>2018-10-12T09:03:23.000Z</time>
      </trkpt>
      <trkpt lat="30.9384231567382812" lon="-6.9674291610717773">
        <ele>1162.2633056640625</ele>
        <time>2018-10-12T09:03:24.000Z</time>
      </trkpt>
      <trkpt lat="30.9384479522705078" lon="-6.9673700332641602">
        <ele>1162.0</ele>
        <time>2018-10-12T09:03:25.000Z</time>
      </trkpt>
      <trkpt lat="30.9384880065917969" lon="-6.9673190116882324">
        <ele>1162.0</ele>
        <time>2018-10-12T09:03:26.000Z</time>
      </trkpt>
      <trkpt lat="30.9385452270507812" lon="-6.9672799110412598">
        <ele>1162.0</ele>
        <time>2018-10-12T09:03:27.000Z</time>
      </trkpt>
      <trkpt lat="30.9386215209960938" lon="-6.9672532081604004">
        <ele>1161.178955078125</ele>
        <time>2018-10-12T09:03:28.000Z</time>
      </trkpt>
      <trkpt lat="30.9387035369873047" lon="-6.9672341346740723">
        <ele>1160.178955078125</ele>
        <time>2018-10-12T09:03:29.000Z</time>
      </trkpt>
      <trkpt lat="30.9387931823730469" lon="-6.9672207832336426">
        <ele>1159.3780517578125</ele>
        <time>2018-10-12T09:03:30.000Z</time>
      </trkpt>
      <trkpt lat="30.9388885498046875" lon="-6.9672098159790039">
        <ele>1159.0</ele>
        <time>2018-10-12T09:03:31.000Z</time>
      </trkpt>
      <trkpt lat="30.9389801025390625" lon="-6.9671998023986816">
        <ele>1159.0</ele>
        <time>2018-10-12T09:03:32.000Z</time>
      </trkpt>
      <trkpt lat="30.9390735626220703" lon="-6.9671897888183594">
        <ele>1158.178955078125</ele>
        <time>2018-10-12T09:03:33.000Z</time>
      </trkpt>
      <trkpt lat="30.9391632080078125" lon="-6.9671797752380371">
        <ele>1158.0</ele>
        <time>2018-10-12T09:03:34.000Z</time>
      </trkpt>
      <trkpt lat="30.9392509460449219" lon="-6.9671711921691895">
        <ele>1158.0</ele>
        <time>2018-10-12T09:03:35.000Z</time>
      </trkpt>
      <trkpt lat="30.9393348693847656" lon="-6.9671621322631836">
        <ele>1158.0</ele>
        <time>2018-10-12T09:03:36.000Z</time>
      </trkpt>
      <trkpt lat="30.9394168853759766" lon="-6.9671521186828613">
        <ele>1157.178955078125</ele>
        <time>2018-10-12T09:03:37.000Z</time>
      </trkpt>
      <trkpt lat="30.9394950866699219" lon="-6.9671411514282227">
        <ele>1157.0</ele>
        <time>2018-10-12T09:03:38.000Z</time>
      </trkpt>
      <trkpt lat="30.9395732879638672" lon="-6.9671301841735840">
        <ele>1157.0</ele>
        <time>2018-10-12T09:03:39.000Z</time>
      </trkpt>
      <trkpt lat="30.9396476745605469" lon="-6.9671192169189453">
        <ele>1157.0</ele>
        <time>2018-10-12T09:03:40.000Z</time>
      </trkpt>
      <trkpt lat="30.9397182464599609" lon="-6.9671077728271484">
        <ele>1157.0</ele>
        <time>2018-10-12T09:03:41.000Z</time>
      </trkpt>
      <trkpt lat="30.9397888183593750" lon="-6.9670968055725098">
        <ele>1157.0</ele>
        <time>2018-10-12T09:03:42.000Z</time>
      </trkpt>
      <trkpt lat="30.9398536682128906" lon="-6.9670867919921875">
        <ele>1157.0</ele>
        <time>2018-10-12T09:03:43.000Z</time>
      </trkpt>
      <trkpt lat="30.9399185180664062" lon="-6.9670767784118652">
        <ele>1157.0</ele>
        <time>2018-10-12T09:03:44.000Z</time>
      </trkpt>
      <trkpt lat="30.9399776458740234" lon="-6.9670691490173340">
        <ele>1157.0</ele>
        <time>2018-10-12T09:03:45.000Z</time>
      </trkpt>
      <trkpt lat="30.9400348663330078" lon="-6.9670610427856445">
        <ele>1157.0</ele>
        <time>2018-10-12T09:03:46.000Z</time>
      </trkpt>
      <trkpt lat="30.9400901794433594" lon="-6.9670548439025879">
        <ele>1157.0</ele>
        <time>2018-10-12T09:03:47.000Z</time>
      </trkpt>
      <trkpt lat="30.9401416778564453" lon="-6.9670491218566895">
        <ele>1157.0</ele>
        <time>2018-10-12T09:03:48.000Z</time>
      </trkpt>
      <trkpt lat="30.9401912689208984" lon="-6.9670429229736328">
        <ele>1157.0</ele>
        <time>2018-10-12T09:03:49.000Z</time>
      </trkpt>
      <trkpt lat="30.9402351379394531" lon="-6.9670348167419434">
        <ele>1157.0</ele>
        <time>2018-10-12T09:03:50.000Z</time>
      </trkpt>
      <trkpt lat="30.9402790069580078" lon="-6.9670248031616211">
        <ele>1157.0</ele>
        <time>2018-10-12T09:03:51.000Z</time>
      </trkpt>
      <trkpt lat="30.9403152465820312" lon="-6.9670162200927734">
        <ele>1157.0</ele>
        <time>2018-10-12T09:03:52.000Z</time>
      </trkpt>
      <trkpt lat="30.9403457641601562" lon="-6.9670100212097168">
        <ele>1157.0</ele>
        <time>2018-10-12T09:03:53.000Z</time>
      </trkpt>
      <trkpt lat="30.9403705596923828" lon="-6.9670062065124512">
        <ele>1157.0</ele>
        <time>2018-10-12T09:03:54.000Z</time>
      </trkpt>
      <trkpt lat="30.9403953552246094" lon="-6.9670000076293945">
        <ele>1157.0</ele>
        <time>2018-10-12T09:03:55.000Z</time>
      </trkpt>
      <trkpt lat="30.9404182434082031" lon="-6.9669938087463379">
        <ele>1157.0</ele>
        <time>2018-10-12T09:03:56.000Z</time>
      </trkpt>
      <trkpt lat="30.9404392242431641" lon="-6.9669938087463379">
        <ele>1157.0</ele>
        <time>2018-10-12T09:03:57.000Z</time>
      </trkpt>
      <trkpt lat="30.9404602050781250" lon="-6.9669971466064453">
        <ele>1156.178955078125</ele>
        <time>2018-10-12T09:03:58.000Z</time>
      </trkpt>
      <trkpt lat="30.9404811859130859" lon="-6.9670000076293945">
        <ele>1156.0</ele>
        <time>2018-10-12T09:03:59.000Z</time>
      </trkpt>
      <trkpt lat="30.9405002593994141" lon="-6.9669990539550781">
        <ele>1156.0</ele>
        <time>2018-10-12T09:04:00.000Z</time>
      </trkpt>
      <trkpt lat="30.9405326843261719" lon="-6.9669938087463379">
        <ele>1157.0</ele>
        <time>2018-10-12T09:04:02.000Z</time>
      </trkpt>
      <trkpt lat="30.9405632019042969" lon="-6.9669880867004395">
        <ele>1157.0</ele>
        <time>2018-10-12T09:04:04.000Z</time>
      </trkpt>
      <trkpt lat="30.9405918121337891" lon="-6.9669718742370605">
        <ele>1157.0</ele>
        <time>2018-10-12T09:04:06.000Z</time>
      </trkpt>
      <trkpt lat="30.9406147003173828" lon="-6.9669489860534668">
        <ele>1157.0</ele>
        <time>2018-10-12T09:04:08.000Z</time>
      </trkpt>
      <trkpt lat="30.9406204223632812" lon="-6.9669418334960938">
        <ele>1156.9854736328125</ele>
        <time>2018-10-12T09:04:14.000Z</time>
      </trkpt>
      <trkpt lat="30.9405498504638672" lon="-6.9669618606567383">
        <ele>1156.0</ele>
        <time>2018-10-12T09:07:04.000Z</time>
      </trkpt>
      <trkpt lat="30.9405384063720703" lon="-6.9669718742370605">
        <ele>1156.0</ele>
        <time>2018-10-12T09:07:05.000Z</time>
      </trkpt>
      <trkpt lat="30.9405212402343750" lon="-6.9669919013977051">
        <ele>1157.0</ele>
        <time>2018-10-12T09:07:07.000Z</time>
      </trkpt>
      <trkpt lat="30.9405021667480469" lon="-6.9670162200927734">
        <ele>1157.0</ele>
        <time>2018-10-12T09:07:09.000Z</time>
      </trkpt>
      <trkpt lat="30.9404850006103516" lon="-6.9670400619506836">
        <ele>1157.0</ele>
        <time>2018-10-12T09:07:11.000Z</time>
      </trkpt>
      <trkpt lat="30.9404754638671875" lon="-6.9670581817626953">
        <ele>1157.0</ele>
        <time>2018-10-12T09:07:13.000Z</time>
      </trkpt>
      <trkpt lat="30.9404239654541016" lon="-6.9670538902282715">
        <ele>1156.0</ele>
        <time>2018-10-12T09:08:16.000Z</time>
      </trkpt>
      <trkpt lat="30.9403991699218750" lon="-6.9670438766479492">
        <ele>1156.821044921875</ele>
        <time>2018-10-12T09:08:18.000Z</time>
      </trkpt>
      <trkpt lat="30.9403686523437500" lon="-6.9670419692993164">
        <ele>1157.0</ele>
        <time>2018-10-12T09:08:20.000Z</time>
      </trkpt>
      <trkpt lat="30.9403419494628906" lon="-6.9670457839965820">
        <ele>1157.0</ele>
        <time>2018-10-12T09:08:22.000Z</time>
      </trkpt>
      <trkpt lat="30.9403076171875000" lon="-6.9670529365539551">
        <ele>1157.0</ele>
        <time>2018-10-12T09:08:24.000Z</time>
      </trkpt>
      <trkpt lat="30.9402866363525391" lon="-6.9670581817626953">
        <ele>1156.178955078125</ele>
        <time>2018-10-12T09:08:25.000Z</time>
      </trkpt>
      <trkpt lat="30.9402656555175781" lon="-6.9670639038085938">
        <ele>1156.0</ele>
        <time>2018-10-12T09:08:26.000Z</time>
      </trkpt>
      <trkpt lat="30.9402408599853516" lon="-6.9670691490173340">
        <ele>1156.0</ele>
        <time>2018-10-12T09:08:27.000Z</time>
      </trkpt>
      <trkpt lat="30.9402141571044922" lon="-6.9670739173889160">
        <ele>1156.0</ele>
        <time>2018-10-12T09:08:28.000Z</time>
      </trkpt>
      <trkpt lat="30.9401855468750000" lon="-6.9670782089233398">
        <ele>1156.0</ele>
        <time>2018-10-12T09:08:29.000Z</time>
      </trkpt>
      <trkpt lat="30.9401569366455078" lon="-6.9670820236206055">
        <ele>1156.0</ele>
        <time>2018-10-12T09:08:30.000Z</time>
      </trkpt>
      <trkpt lat="30.9401245117187500" lon="-6.9670848846435547">
        <ele>1156.0</ele>
        <time>2018-10-12T09:08:31.000Z</time>
      </trkpt>
      <trkpt lat="30.9400920867919922" lon="-6.9670910835266113">
        <ele>1156.0</ele>
        <time>2018-10-12T09:08:32.000Z</time>
      </trkpt>
      <trkpt lat="30.9400596618652344" lon="-6.9670982360839844">
        <ele>1156.0</ele>
        <time>2018-10-12T09:08:33.000Z</time>
      </trkpt>
      <trkpt lat="30.9400196075439453" lon="-6.9671058654785156">
        <ele>1156.0</ele>
        <time>2018-10-12T09:08:34.000Z</time>
      </trkpt>
      <trkpt lat="30.9399776458740234" lon="-6.9671149253845215">
        <ele>1156.0</ele>
        <time>2018-10-12T09:08:35.000Z</time>
      </trkpt>
      <trkpt lat="30.9399299621582031" lon="-6.9671249389648438">
        <ele>1156.0</ele>
        <time>2018-10-12T09:08:36.000Z</time>
      </trkpt>
      <trkpt lat="30.9398822784423828" lon="-6.9671349525451660">
        <ele>1156.0</ele>
        <time>2018-10-12T09:08:37.000Z</time>
      </trkpt>
      <trkpt lat="30.9398326873779297" lon="-6.9671449661254883">
        <ele>1156.0</ele>
        <time>2018-10-12T09:08:38.000Z</time>
      </trkpt>
      <trkpt lat="30.9397811889648438" lon="-6.9671521186828613">
        <ele>1156.7479248046875</ele>
        <time>2018-10-12T09:08:39.000Z</time>
      </trkpt>
      <trkpt lat="30.9397296905517578" lon="-6.9671587944030762">
        <ele>1157.0</ele>
        <time>2018-10-12T09:08:40.000Z</time>
      </trkpt>
      <trkpt lat="30.9396781921386719" lon="-6.9671659469604492">
        <ele>1156.178955078125</ele>
        <time>2018-10-12T09:08:41.000Z</time>
      </trkpt>
      <trkpt lat="30.9396266937255859" lon="-6.9671740531921387">
        <ele>1156.0</ele>
        <time>2018-10-12T09:08:42.000Z</time>
      </trkpt>
      <trkpt lat="30.9395732879638672" lon="-6.9671812057495117">
        <ele>1156.0</ele>
        <time>2018-10-12T09:08:43.000Z</time>
      </trkpt>
      <trkpt lat="30.9395198822021484" lon="-6.9671878814697266">
        <ele>1156.0</ele>
        <time>2018-10-12T09:08:44.000Z</time>
      </trkpt>
      <trkpt lat="30.9394664764404297" lon="-6.9671959877014160">
        <ele>1156.0</ele>
        <time>2018-10-12T09:08:45.000Z</time>
      </trkpt>
      <trkpt lat="30.9394111633300781" lon="-6.9672040939331055">
        <ele>1156.0</ele>
        <time>2018-10-12T09:08:46.000Z</time>
      </trkpt>
      <trkpt lat="30.9393596649169922" lon="-6.9672107696533203">
        <ele>1156.0</ele>
        <time>2018-10-12T09:08:47.000Z</time>
      </trkpt>
      <trkpt lat="30.9393062591552734" lon="-6.9672179222106934">
        <ele>1156.0</ele>
        <time>2018-10-12T09:08:48.000Z</time>
      </trkpt>
      <trkpt lat="30.9392566680908203" lon="-6.9672250747680664">
        <ele>1156.0</ele>
        <time>2018-10-12T09:08:49.000Z</time>
      </trkpt>
      <trkpt lat="30.9392051696777344" lon="-6.9672307968139648">
        <ele>1156.0</ele>
        <time>2018-10-12T09:08:50.000Z</time>
      </trkpt>
      <trkpt lat="30.9391536712646484" lon="-6.9672369956970215">
        <ele>1156.0</ele>
        <time>2018-10-12T09:08:51.000Z</time>
      </trkpt>
      <trkpt lat="30.9391002655029297" lon="-6.9672431945800781">
        <ele>1156.0</ele>
        <time>2018-10-12T09:08:52.000Z</time>
      </trkpt>
      <trkpt lat="30.9390506744384766" lon="-6.9672489166259766">
        <ele>1156.0</ele>
        <time>2018-10-12T09:08:53.000Z</time>
      </trkpt>
      <trkpt lat="30.9389972686767578" lon="-6.9672560691833496">
        <ele>1156.0</ele>
        <time>2018-10-12T09:08:54.000Z</time>
      </trkpt>
      <trkpt lat="30.9389495849609375" lon="-6.9672632217407227">
        <ele>1156.821044921875</ele>
        <time>2018-10-12T09:08:55.000Z</time>
      </trkpt>
      <trkpt lat="30.9389019012451172" lon="-6.9672689437866211">
        <ele>1157.0</ele>
        <time>2018-10-12T09:08:56.000Z</time>
      </trkpt>
      <trkpt lat="30.9388542175292969" lon="-6.9672741889953613">
        <ele>1157.0</ele>
        <time>2018-10-12T09:08:57.000Z</time>
      </trkpt>
      <trkpt lat="30.9388103485107422" lon="-6.9672780036926270">
        <ele>1157.0</ele>
        <time>2018-10-12T09:08:58.000Z</time>
      </trkpt>
      <trkpt lat="30.9387722015380859" lon="-6.9672808647155762">
        <ele>1157.821044921875</ele>
        <time>2018-10-12T09:08:59.000Z</time>
      </trkpt>
      <trkpt lat="30.9387359619140625" lon="-6.9672799110412598">
        <ele>1158.0</ele>
        <time>2018-10-12T09:09:00.000Z</time>
      </trkpt>
      <trkpt lat="30.9386997222900391" lon="-6.9672799110412598">
        <ele>1158.821044921875</ele>
        <time>2018-10-12T09:09:01.000Z</time>
      </trkpt>
      <trkpt lat="30.9386634826660156" lon="-6.9672851562500000">
        <ele>1159.0</ele>
        <time>2018-10-12T09:09:02.000Z</time>
      </trkpt>
      <trkpt lat="30.9386291503906250" lon="-6.9672927856445312">
        <ele>1159.0</ele>
        <time>2018-10-12T09:09:03.000Z</time>
      </trkpt>
      <trkpt lat="30.9385948181152344" lon="-6.9672999382019043">
        <ele>1159.0</ele>
        <time>2018-10-12T09:09:04.000Z</time>
      </trkpt>
      <trkpt lat="30.9385623931884766" lon="-6.9673099517822266">
        <ele>1159.821044921875</ele>
        <time>2018-10-12T09:09:05.000Z</time>
      </trkpt>
      <trkpt lat="30.9385280609130859" lon="-6.9673199653625488">
        <ele>1160.0</ele>
        <time>2018-10-12T09:09:06.000Z</time>
      </trkpt>
      <trkpt lat="30.9384975433349609" lon="-6.9673271179199219">
        <ele>1160.821044921875</ele>
        <time>2018-10-12T09:09:07.000Z</time>
      </trkpt>
      <trkpt lat="30.9384727478027344" lon="-6.9673290252685547">
        <ele>1161.0</ele>
        <time>2018-10-12T09:09:08.000Z</time>
      </trkpt>
      <trkpt lat="30.9384517669677734" lon="-6.9673237800598145">
        <ele>1161.8173828125</ele>
        <time>2018-10-12T09:09:09.000Z</time>
      </trkpt>
      <trkpt lat="30.9384346008300781" lon="-6.9673118591308594">
        <ele>1162.0</ele>
        <time>2018-10-12T09:09:10.000Z</time>
      </trkpt>
      <trkpt lat="30.9384193420410156" lon="-6.9672961235046387">
        <ele>1161.178955078125</ele>
        <time>2018-10-12T09:09:11.000Z</time>
      </trkpt>
      <trkpt lat="30.9384117126464844" lon="-6.9672770500183105">
        <ele>1161.0</ele>
        <time>2018-10-12T09:09:12.000Z</time>
      </trkpt>
      <trkpt lat="30.9384040832519531" lon="-6.9672551155090332">
        <ele>1161.0</ele>
        <time>2018-10-12T09:09:13.000Z</time>
      </trkpt>
      <trkpt lat="30.9384021759033203" lon="-6.9672341346740723">
        <ele>1161.0</ele>
        <time>2018-10-12T09:09:14.000Z</time>
      </trkpt>
      <trkpt lat="30.9383983612060547" lon="-6.9672107696533203">
        <ele>1161.0</ele>
        <time>2018-10-12T09:09:15.000Z</time>
      </trkpt>
      <trkpt lat="30.9383964538574219" lon="-6.9671869277954102">
        <ele>1161.0</ele>
        <time>2018-10-12T09:09:16.000Z</time>
      </trkpt>
      <trkpt lat="30.9383964538574219" lon="-6.9671602249145508">
        <ele>1161.0</ele>
        <time>2018-10-12T09:09:17.000Z</time>
      </trkpt>
      <trkpt lat="30.9383907318115234" lon="-6.9671311378479004">
        <ele>1161.0</ele>
        <time>2018-10-12T09:09:18.000Z</time>
      </trkpt>
      <trkpt lat="30.9383831024169922" lon="-6.9671020507812500">
        <ele>1161.0</ele>
        <time>2018-10-12T09:09:19.000Z</time>
      </trkpt>
      <trkpt lat="30.9383659362792969" lon="-6.9670748710632324">
        <ele>1161.0</ele>
        <time>2018-10-12T09:09:20.000Z</time>
      </trkpt>
      <trkpt lat="30.9383449554443359" lon="-6.9670510292053223">
        <ele>1161.0</ele>
        <time>2018-10-12T09:09:21.000Z</time>
      </trkpt>
      <trkpt lat="30.9383258819580078" lon="-6.9670248031616211">
        <ele>1161.0</ele>
        <time>2018-10-12T09:09:22.000Z</time>
      </trkpt>
      <trkpt lat="30.9383087158203125" lon="-6.9669909477233887">
        <ele>1161.0</ele>
        <time>2018-10-12T09:09:23.000Z</time>
      </trkpt>
      <trkpt lat="30.9382915496826172" lon="-6.9669499397277832">
        <ele>1161.0</ele>
        <time>2018-10-12T09:09:24.000Z</time>
      </trkpt>
      <trkpt lat="30.9382781982421875" lon="-6.9669017791748047">
        <ele>1161.0</ele>
        <time>2018-10-12T09:09:25.000Z</time>
      </trkpt>
      <trkpt lat="30.9382686614990234" lon="-6.9668512344360352">
        <ele>1161.0</ele>
        <time>2018-10-12T09:09:26.000Z</time>
      </trkpt>
      <trkpt lat="30.9382591247558594" lon="-6.9667949676513672">
        <ele>1161.0</ele>
        <time>2018-10-12T09:09:27.000Z</time>
      </trkpt>
      <trkpt lat="30.9382495880126953" lon="-6.9667367935180664">
        <ele>1161.0</ele>
        <time>2018-10-12T09:09:28.000Z</time>
      </trkpt>
      <trkpt lat="30.9382419586181641" lon="-6.9666762351989746">
        <ele>1161.0</ele>
        <time>2018-10-12T09:09:29.000Z</time>
      </trkpt>
      <trkpt lat="30.9382343292236328" lon="-6.9666109085083008">
        <ele>1160.178955078125</ele>
        <time>2018-10-12T09:09:30.000Z</time>
      </trkpt>
      <trkpt lat="30.9382266998291016" lon="-6.9665431976318359">
        <ele>1160.0</ele>
        <time>2018-10-12T09:09:31.000Z</time>
      </trkpt>
      <trkpt lat="30.9382209777832031" lon="-6.9664721488952637">
        <ele>1160.0</ele>
        <time>2018-10-12T09:09:32.000Z</time>
      </trkpt>
      <trkpt lat="30.9382133483886719" lon="-6.9664001464843750">
        <ele>1159.178955078125</ele>
        <time>2018-10-12T09:09:33.000Z</time>
      </trkpt>
      <trkpt lat="30.9382076263427734" lon="-6.9663262367248535">
        <ele>1159.0</ele>
        <time>2018-10-12T09:09:34.000Z</time>
      </trkpt>
      <trkpt lat="30.9382019042968750" lon="-6.9662508964538574">
        <ele>1159.0</ele>
        <time>2018-10-12T09:09:35.000Z</time>
      </trkpt>
      <trkpt lat="30.9381942749023438" lon="-6.9661750793457031">
        <ele>1159.0</ele>
        <time>2018-10-12T09:09:36.000Z</time>
      </trkpt>
      <trkpt lat="30.9381847381591797" lon="-6.9660968780517578">
        <ele>1158.2593994140625</ele>
        <time>2018-10-12T09:09:37.000Z</time>
      </trkpt>
      <trkpt lat="30.9381732940673828" lon="-6.9660191535949707">
        <ele>1158.0</ele>
        <time>2018-10-12T09:09:38.000Z</time>
      </trkpt>
      <trkpt lat="30.9381599426269531" lon="-6.9659399986267090">
        <ele>1158.0</ele>
        <time>2018-10-12T09:09:39.000Z</time>
      </trkpt>
      <trkpt lat="30.9381484985351562" lon="-6.9658598899841309">
        <ele>1158.0</ele>
        <time>2018-10-12T09:09:40.000Z</time>
      </trkpt>
      <trkpt lat="30.9381370544433594" lon="-6.9657797813415527">
        <ele>1158.0</ele>
        <time>2018-10-12T09:09:41.000Z</time>
      </trkpt>
      <trkpt lat="30.9381275177001953" lon="-6.9656977653503418">
        <ele>1158.0</ele>
        <time>2018-10-12T09:09:42.000Z</time>
      </trkpt>
      <trkpt lat="30.9381179809570312" lon="-6.9656171798706055">
        <ele>1158.0</ele>
        <time>2018-10-12T09:09:43.000Z</time>
      </trkpt>
      <trkpt lat="30.9381103515625000" lon="-6.9655361175537109">
        <ele>1158.0</ele>
        <time>2018-10-12T09:09:44.000Z</time>
      </trkpt>
      <trkpt lat="30.9381027221679688" lon="-6.9654550552368164">
        <ele>1157.178955078125</ele>
        <time>2018-10-12T09:09:45.000Z</time>
      </trkpt>
      <trkpt lat="30.9380912780761719" lon="-6.9653749465942383">
        <ele>1157.0</ele>
        <time>2018-10-12T09:09:46.000Z</time>
      </trkpt>
      <trkpt lat="30.9380855560302734" lon="-6.9652948379516602">
        <ele>1157.0</ele>
        <time>2018-10-12T09:09:47.000Z</time>
      </trkpt>
      <trkpt lat="30.9380760192871094" lon="-6.9652152061462402">
        <ele>1157.0</ele>
        <time>2018-10-12T09:09:48.000Z</time>
      </trkpt>
      <trkpt lat="30.9380664825439453" lon="-6.9651350975036621">
        <ele>1157.0</ele>
        <time>2018-10-12T09:09:49.000Z</time>
      </trkpt>
      <trkpt lat="30.9380588531494141" lon="-6.9650540351867676">
        <ele>1157.0</ele>
        <time>2018-10-12T09:09:50.000Z</time>
      </trkpt>
      <trkpt lat="30.9380493164062500" lon="-6.9649739265441895">
        <ele>1157.0</ele>
        <time>2018-10-12T09:09:51.000Z</time>
      </trkpt>
      <trkpt lat="30.9380378723144531" lon="-6.9648938179016113">
        <ele>1156.178955078125</ele>
        <time>2018-10-12T09:09:52.000Z</time>
      </trkpt>
      <trkpt lat="30.9380264282226562" lon="-6.9648160934448242">
        <ele>1156.0</ele>
        <time>2018-10-12T09:09:53.000Z</time>
      </trkpt>
      <trkpt lat="30.9380187988281250" lon="-6.9647369384765625">
        <ele>1156.0</ele>
        <time>2018-10-12T09:09:54.000Z</time>
      </trkpt>
      <trkpt lat="30.9380092620849609" lon="-6.9646577835083008">
        <ele>1156.0</ele>
        <time>2018-10-12T09:09:55.000Z</time>
      </trkpt>
      <trkpt lat="30.9380016326904297" lon="-6.9645771980285645">
        <ele>1156.0</ele>
        <time>2018-10-12T09:09:56.000Z</time>
      </trkpt>
      <trkpt lat="30.9379920959472656" lon="-6.9644951820373535">
        <ele>1156.0</ele>
        <time>2018-10-12T09:09:57.000Z</time>
      </trkpt>
      <trkpt lat="30.9379825592041016" lon="-6.9644122123718262">
        <ele>1156.0</ele>
        <time>2018-10-12T09:09:58.000Z</time>
      </trkpt>
      <trkpt lat="30.9379749298095703" lon="-6.9643287658691406">
        <ele>1156.0</ele>
        <time>2018-10-12T09:09:59.000Z</time>
      </trkpt>
      <trkpt lat="30.9379615783691406" lon="-6.9642481803894043">
        <ele>1156.0</ele>
        <time>2018-10-12T09:10:00.000Z</time>
      </trkpt>
      <trkpt lat="30.9379482269287109" lon="-6.9641661643981934">
        <ele>1156.0</ele>
        <time>2018-10-12T09:10:01.000Z</time>
      </trkpt>
      <trkpt lat="30.9379329681396484" lon="-6.9640841484069824">
        <ele>1156.0</ele>
        <time>2018-10-12T09:10:02.000Z</time>
      </trkpt>
      <trkpt lat="30.9379158020019531" lon="-6.9640011787414551">
        <ele>1156.0</ele>
        <time>2018-10-12T09:10:03.000Z</time>
      </trkpt>
      <trkpt lat="30.9378986358642578" lon="-6.9639167785644531">
        <ele>1156.0</ele>
        <time>2018-10-12T09:10:04.000Z</time>
      </trkpt>
      <trkpt lat="30.9378795623779297" lon="-6.9638328552246094">
        <ele>1156.0</ele>
        <time>2018-10-12T09:10:05.000Z</time>
      </trkpt>
      <trkpt lat="30.9378585815429688" lon="-6.9637508392333984">
        <ele>1156.0</ele>
        <time>2018-10-12T09:10:06.000Z</time>
      </trkpt>
      <trkpt lat="30.9378376007080078" lon="-6.9636712074279785">
        <ele>1156.0</ele>
        <time>2018-10-12T09:10:07.000Z</time>
      </trkpt>
      <trkpt lat="30.9378166198730469" lon="-6.9635910987854004">
        <ele>1156.0</ele>
        <time>2018-10-12T09:10:08.000Z</time>
      </trkpt>
      <trkpt lat="30.9377937316894531" lon="-6.9635138511657715">
        <ele>1155.178955078125</ele>
        <time>2018-10-12T09:10:09.000Z</time>
      </trkpt>
      <trkpt lat="30.9377708435058594" lon="-6.9634389877319336">
        <ele>1155.0</ele>
        <time>2018-10-12T09:10:10.000Z</time>
      </trkpt>
      <trkpt lat="30.9377498626708984" lon="-6.9633669853210449">
        <ele>1155.0</ele>
        <time>2018-10-12T09:10:11.000Z</time>
      </trkpt>
      <trkpt lat="30.9377288818359375" lon="-6.9633002281188965">
        <ele>1155.0</ele>
        <time>2018-10-12T09:10:12.000Z</time>
      </trkpt>
      <trkpt lat="30.9377079010009766" lon="-6.9632358551025391">
        <ele>1155.0</ele>
        <time>2018-10-12T09:10:13.000Z</time>
      </trkpt>
      <trkpt lat="30.9376850128173828" lon="-6.9631729125976562">
        <ele>1155.0</ele>
        <time>2018-10-12T09:10:14.000Z</time>
      </trkpt>
      <trkpt lat="30.9376621246337891" lon="-6.9631109237670898">
        <ele>1155.0</ele>
        <time>2018-10-12T09:10:15.000Z</time>
      </trkpt>
      <trkpt lat="30.9376373291015625" lon="-6.9630489349365234">
        <ele>1154.178955078125</ele>
        <time>2018-10-12T09:10:16.000Z</time>
      </trkpt>
      <trkpt lat="30.9376144409179688" lon="-6.9629869461059570">
        <ele>1154.0</ele>
        <time>2018-10-12T09:10:17.000Z</time>
      </trkpt>
      <trkpt lat="30.9375915527343750" lon="-6.9629259109497070">
        <ele>1154.0</ele>
        <time>2018-10-12T09:10:18.000Z</time>
      </trkpt>
      <trkpt lat="30.9375648498535156" lon="-6.9628629684448242">
        <ele>1154.821044921875</ele>
        <time>2018-10-12T09:10:19.000Z</time>
      </trkpt>
      <trkpt lat="30.9375381469726562" lon="-6.9627990722656250">
        <ele>1155.0</ele>
        <time>2018-10-12T09:10:20.000Z</time>
      </trkpt>
      <trkpt lat="30.9375076293945312" lon="-6.9627351760864258">
        <ele>1155.0</ele>
        <time>2018-10-12T09:10:21.000Z</time>
      </trkpt>
      <trkpt lat="30.9374771118164062" lon="-6.9626698493957520">
        <ele>1155.0</ele>
        <time>2018-10-12T09:10:22.000Z</time>
      </trkpt>
      <trkpt lat="30.9374446868896484" lon="-6.9626049995422363">
        <ele>1155.0</ele>
        <time>2018-10-12T09:10:23.000Z</time>
      </trkpt>
      <trkpt lat="30.9374103546142578" lon="-6.9625391960144043">
        <ele>1155.0</ele>
        <time>2018-10-12T09:10:24.000Z</time>
      </trkpt>
      <trkpt lat="30.9373741149902344" lon="-6.9624719619750977">
        <ele>1154.178955078125</ele>
        <time>2018-10-12T09:10:25.000Z</time>
      </trkpt>
      <trkpt lat="30.9373397827148438" lon="-6.9624061584472656">
        <ele>1154.0</ele>
        <time>2018-10-12T09:10:26.000Z</time>
      </trkpt>
      <trkpt lat="30.9373016357421875" lon="-6.9623389244079590">
        <ele>1154.0</ele>
        <time>2018-10-12T09:10:27.000Z</time>
      </trkpt>
      <trkpt lat="30.9372653961181641" lon="-6.9622731208801270">
        <ele>1154.0</ele>
        <time>2018-10-12T09:10:28.000Z</time>
      </trkpt>
      <trkpt lat="30.9372253417968750" lon="-6.9622077941894531">
        <ele>1154.0</ele>
        <time>2018-10-12T09:10:29.000Z</time>
      </trkpt>
      <trkpt lat="30.9371852874755859" lon="-6.9621438980102539">
        <ele>1153.178955078125</ele>
        <time>2018-10-12T09:10:30.000Z</time>
      </trkpt>
      <trkpt lat="30.9371471405029297" lon="-6.9620790481567383">
        <ele>1153.0</ele>
        <time>2018-10-12T09:10:31.000Z</time>
      </trkpt>
      <trkpt lat="30.9371051788330078" lon="-6.9620161056518555">
        <ele>1153.0</ele>
        <time>2018-10-12T09:10:32.000Z</time>
      </trkpt>
      <trkpt lat="30.9370651245117188" lon="-6.9619507789611816">
        <ele>1152.2486572265625</ele>
        <time>2018-10-12T09:10:33.000Z</time>
      </trkpt>
      <trkpt lat="30.9370250701904297" lon="-6.9618868827819824">
        <ele>1152.0</ele>
        <time>2018-10-12T09:10:34.000Z</time>
      </trkpt>
      <trkpt lat="30.9369831085205078" lon="-6.9618220329284668">
        <ele>1152.0</ele>
        <time>2018-10-12T09:10:35.000Z</time>
      </trkpt>
      <trkpt lat="30.9369430541992188" lon="-6.9617581367492676">
        <ele>1152.0</ele>
        <time>2018-10-12T09:10:36.000Z</time>
      </trkpt>
      <trkpt lat="30.9369010925292969" lon="-6.9616928100585938">
        <ele>1152.0</ele>
        <time>2018-10-12T09:10:37.000Z</time>
      </trkpt>
      <trkpt lat="30.9368610382080078" lon="-6.9616289138793945">
        <ele>1152.0</ele>
        <time>2018-10-12T09:10:38.000Z</time>
      </trkpt>
      <trkpt lat="30.9368209838867188" lon="-6.9615640640258789">
        <ele>1152.0</ele>
        <time>2018-10-12T09:10:39.000Z</time>
      </trkpt>
      <trkpt lat="30.9367828369140625" lon="-6.9615011215209961">
        <ele>1152.0</ele>
        <time>2018-10-12T09:10:40.000Z</time>
      </trkpt>
      <trkpt lat="30.9367427825927734" lon="-6.9614400863647461">
        <ele>1152.0</ele>
        <time>2018-10-12T09:10:41.000Z</time>
      </trkpt>
      <trkpt lat="30.9367027282714844" lon="-6.9613809585571289">
        <ele>1152.0</ele>
        <time>2018-10-12T09:10:42.000Z</time>
      </trkpt>
      <trkpt lat="30.9366626739501953" lon="-6.9613218307495117">
        <ele>1152.0</ele>
        <time>2018-10-12T09:10:43.000Z</time>
      </trkpt>
      <trkpt lat="30.9366226196289062" lon="-6.9612631797790527">
        <ele>1151.178955078125</ele>
        <time>2018-10-12T09:10:44.000Z</time>
      </trkpt>
      <trkpt lat="30.9365844726562500" lon="-6.9612040519714355">
        <ele>1151.0</ele>
        <time>2018-10-12T09:10:45.000Z</time>
      </trkpt>
      <trkpt lat="30.9365463256835938" lon="-6.9611449241638184">
        <ele>1151.0</ele>
        <time>2018-10-12T09:10:46.000Z</time>
      </trkpt>
      <trkpt lat="30.9365100860595703" lon="-6.9610857963562012">
        <ele>1150.178955078125</ele>
        <time>2018-10-12T09:10:47.000Z</time>
      </trkpt>
      <trkpt lat="30.9364776611328125" lon="-6.9610261917114258">
        <ele>1150.0</ele>
        <time>2018-10-12T09:10:48.000Z</time>
      </trkpt>
      <trkpt lat="30.9364433288574219" lon="-6.9609661102294922">
        <ele>1150.0</ele>
        <time>2018-10-12T09:10:49.000Z</time>
      </trkpt>
      <trkpt lat="30.9364109039306641" lon="-6.9609060287475586">
        <ele>1150.0</ele>
        <time>2018-10-12T09:10:50.000Z</time>
      </trkpt>
      <trkpt lat="30.9363727569580078" lon="-6.9608478546142578">
        <ele>1150.0</ele>
        <time>2018-10-12T09:10:51.000Z</time>
      </trkpt>
      <trkpt lat="30.9363288879394531" lon="-6.9607920646667480">
        <ele>1150.0</ele>
        <time>2018-10-12T09:10:52.000Z</time>
      </trkpt>
      <trkpt lat="30.9362812042236328" lon="-6.9607372283935547">
        <ele>1150.0</ele>
        <time>2018-10-12T09:10:53.000Z</time>
      </trkpt>
      <trkpt lat="30.9362373352050781" lon="-6.9606790542602539">
        <ele>1150.0</ele>
        <time>2018-10-12T09:10:54.000Z</time>
      </trkpt>
      <trkpt lat="30.9361934661865234" lon="-6.9606180191040039">
        <ele>1150.0</ele>
        <time>2018-10-12T09:10:55.000Z</time>
      </trkpt>
      <trkpt lat="30.9361515045166016" lon="-6.9605550765991211">
        <ele>1150.0</ele>
        <time>2018-10-12T09:10:56.000Z</time>
      </trkpt>
      <trkpt lat="30.9361076354980469" lon="-6.9604921340942383">
        <ele>1150.0</ele>
        <time>2018-10-12T09:10:57.000Z</time>
      </trkpt>
      <trkpt lat="30.9360637664794922" lon="-6.9604282379150391">
        <ele>1150.0</ele>
        <time>2018-10-12T09:10:58.000Z</time>
      </trkpt>
      <trkpt lat="30.9360218048095703" lon="-6.9603629112243652">
        <ele>1150.0</ele>
        <time>2018-10-12T09:10:59.000Z</time>
      </trkpt>
      <trkpt lat="30.9359779357910156" lon="-6.9602971076965332">
        <ele>1150.0</ele>
        <time>2018-10-12T09:11:00.000Z</time>
      </trkpt>
      <trkpt lat="30.9359340667724609" lon="-6.9602317810058594">
        <ele>1150.0</ele>
        <time>2018-10-12T09:11:01.000Z</time>
      </trkpt>
      <trkpt lat="30.9358921051025391" lon="-6.9601669311523438">
        <ele>1150.0</ele>
        <time>2018-10-12T09:11:02.000Z</time>
      </trkpt>
      <trkpt lat="30.9358501434326172" lon="-6.9601020812988281">
        <ele>1150.0</ele>
        <time>2018-10-12T09:11:03.000Z</time>
      </trkpt>
      <trkpt lat="30.9358081817626953" lon="-6.9600391387939453">
        <ele>1150.0</ele>
        <time>2018-10-12T09:11:04.000Z</time>
      </trkpt>
      <trkpt lat="30.9357681274414062" lon="-6.9599761962890625">
        <ele>1150.0</ele>
        <time>2018-10-12T09:11:05.000Z</time>
      </trkpt>
      <trkpt lat="30.9357280731201172" lon="-6.9599142074584961">
        <ele>1150.0</ele>
        <time>2018-10-12T09:11:06.000Z</time>
      </trkpt>
      <trkpt lat="30.9356899261474609" lon="-6.9598522186279297">
        <ele>1150.0</ele>
        <time>2018-10-12T09:11:07.000Z</time>
      </trkpt>
      <trkpt lat="30.9356498718261719" lon="-6.9597930908203125">
        <ele>1150.0</ele>
        <time>2018-10-12T09:11:08.000Z</time>
      </trkpt>
      <trkpt lat="30.9356117248535156" lon="-6.9597339630126953">
        <ele>1150.0</ele>
        <time>2018-10-12T09:11:09.000Z</time>
      </trkpt>
      <trkpt lat="30.9355716705322266" lon="-6.9596738815307617">
        <ele>1150.0</ele>
        <time>2018-10-12T09:11:10.000Z</time>
      </trkpt>
      <trkpt lat="30.9355316162109375" lon="-6.9596138000488281">
        <ele>1149.2520751953125</ele>
        <time>2018-10-12T09:11:11.000Z</time>
      </trkpt>
      <trkpt lat="30.9354915618896484" lon="-6.9595541954040527">
        <ele>1149.0</ele>
        <time>2018-10-12T09:11:12.000Z</time>
      </trkpt>
      <trkpt lat="30.9354515075683594" lon="-6.9594941139221191">
        <ele>1149.0</ele>
        <time>2018-10-12T09:11:13.000Z</time>
      </trkpt>
      <trkpt lat="30.9354114532470703" lon="-6.9594321250915527">
        <ele>1149.0</ele>
        <time>2018-10-12T09:11:14.000Z</time>
      </trkpt>
      <trkpt lat="30.9353694915771484" lon="-6.9593701362609863">
        <ele>1149.0</ele>
        <time>2018-10-12T09:11:15.000Z</time>
      </trkpt>
      <trkpt lat="30.9353294372558594" lon="-6.9593071937561035">
        <ele>1149.0</ele>
        <time>2018-10-12T09:11:16.000Z</time>
      </trkpt>
      <trkpt lat="30.9352874755859375" lon="-6.9592428207397461">
        <ele>1149.0</ele>
        <time>2018-10-12T09:11:17.000Z</time>
      </trkpt>
      <trkpt lat="30.9352455139160156" lon="-6.9591789245605469">
        <ele>1149.0</ele>
        <time>2018-10-12T09:11:18.000Z</time>
      </trkpt>
      <trkpt lat="30.9352035522460938" lon="-6.9591159820556641">
        <ele>1149.0</ele>
        <time>2018-10-12T09:11:19.000Z</time>
      </trkpt>
      <trkpt lat="30.9351634979248047" lon="-6.9590530395507812">
        <ele>1149.0</ele>
        <time>2018-10-12T09:11:20.000Z</time>
      </trkpt>
      <trkpt lat="30.9351215362548828" lon="-6.9589910507202148">
        <ele>1149.0</ele>
        <time>2018-10-12T09:11:21.000Z</time>
      </trkpt>
      <trkpt lat="30.9350814819335938" lon="-6.9589309692382812">
        <ele>1149.0</ele>
        <time>2018-10-12T09:11:22.000Z</time>
      </trkpt>
      <trkpt lat="30.9350414276123047" lon="-6.9588718414306641">
        <ele>1149.0</ele>
        <time>2018-10-12T09:11:23.000Z</time>
      </trkpt>
      <trkpt lat="30.9350013732910156" lon="-6.9588108062744141">
        <ele>1149.0</ele>
        <time>2018-10-12T09:11:24.000Z</time>
      </trkpt>
      <trkpt lat="30.9349632263183594" lon="-6.9587512016296387">
        <ele>1149.0</ele>
        <time>2018-10-12T09:11:25.000Z</time>
      </trkpt>
      <trkpt lat="30.9349231719970703" lon="-6.9586911201477051">
        <ele>1149.0</ele>
        <time>2018-10-12T09:11:26.000Z</time>
      </trkpt>
      <trkpt lat="30.9348831176757812" lon="-6.9586310386657715">
        <ele>1149.0</ele>
        <time>2018-10-12T09:11:27.000Z</time>
      </trkpt>
      <trkpt lat="30.9348449707031250" lon="-6.9585709571838379">
        <ele>1149.0</ele>
        <time>2018-10-12T09:11:28.000Z</time>
      </trkpt>
      <trkpt lat="30.9348068237304688" lon="-6.9585108757019043">
        <ele>1149.0</ele>
        <time>2018-10-12T09:11:29.000Z</time>
      </trkpt>
      <trkpt lat="30.9347686767578125" lon="-6.9584531784057617">
        <ele>1149.0</ele>
        <time>2018-10-12T09:11:30.000Z</time>
      </trkpt>
      <trkpt lat="30.9347286224365234" lon="-6.9583940505981445">
        <ele>1149.0</ele>
        <time>2018-10-12T09:11:31.000Z</time>
      </trkpt>
      <trkpt lat="30.9346904754638672" lon="-6.9583349227905273">
        <ele>1149.0</ele>
        <time>2018-10-12T09:11:32.000Z</time>
      </trkpt>
      <trkpt lat="30.9346523284912109" lon="-6.9582748413085938">
        <ele>1149.0</ele>
        <time>2018-10-12T09:11:33.000Z</time>
      </trkpt>
      <trkpt lat="30.9346122741699219" lon="-6.9582152366638184">
        <ele>1149.0</ele>
        <time>2018-10-12T09:11:34.000Z</time>
      </trkpt>
      <trkpt lat="30.9345722198486328" lon="-6.9581561088562012">
        <ele>1149.0</ele>
        <time>2018-10-12T09:11:35.000Z</time>
      </trkpt>
      <trkpt lat="30.9345340728759766" lon="-6.9580960273742676">
        <ele>1148.2593994140625</ele>
        <time>2018-10-12T09:11:36.000Z</time>
      </trkpt>
      <trkpt lat="30.9344959259033203" lon="-6.9580368995666504">
        <ele>1148.0</ele>
        <time>2018-10-12T09:11:37.000Z</time>
      </trkpt>
      <trkpt lat="30.9344577789306641" lon="-6.9579792022705078">
        <ele>1148.0</ele>
        <time>2018-10-12T09:11:38.000Z</time>
      </trkpt>
      <trkpt lat="30.9344215393066406" lon="-6.9579219818115234">
        <ele>1148.0</ele>
        <time>2018-10-12T09:11:39.000Z</time>
      </trkpt>
      <trkpt lat="30.9343833923339844" lon="-6.9578652381896973">
        <ele>1148.0</ele>
        <time>2018-10-12T09:11:40.000Z</time>
      </trkpt>
      <trkpt lat="30.9343452453613281" lon="-6.9578070640563965">
        <ele>1148.0</ele>
        <time>2018-10-12T09:11:41.000Z</time>
      </trkpt>
      <trkpt lat="30.9343090057373047" lon="-6.9577498435974121">
        <ele>1148.0</ele>
        <time>2018-10-12T09:11:42.000Z</time>
      </trkpt>
      <trkpt lat="30.9342708587646484" lon="-6.9576921463012695">
        <ele>1148.0</ele>
        <time>2018-10-12T09:11:43.000Z</time>
      </trkpt>
      <trkpt lat="30.9342308044433594" lon="-6.9576320648193359">
        <ele>1148.0</ele>
        <time>2018-10-12T09:11:44.000Z</time>
      </trkpt>
      <trkpt lat="30.9341926574707031" lon="-6.9575719833374023">
        <ele>1148.0</ele>
        <time>2018-10-12T09:11:45.000Z</time>
      </trkpt>
      <trkpt lat="30.9341545104980469" lon="-6.9575119018554688">
        <ele>1148.0</ele>
        <time>2018-10-12T09:11:46.000Z</time>
      </trkpt>
      <trkpt lat="30.9341163635253906" lon="-6.9574527740478516">
        <ele>1148.0</ele>
        <time>2018-10-12T09:11:47.000Z</time>
      </trkpt>
      <trkpt lat="30.9340782165527344" lon="-6.9573950767517090">
        <ele>1148.0</ele>
        <time>2018-10-12T09:11:48.000Z</time>
      </trkpt>
      <trkpt lat="30.9340400695800781" lon="-6.9573378562927246">
        <ele>1148.0</ele>
        <time>2018-10-12T09:11:49.000Z</time>
      </trkpt>
      <trkpt lat="30.9340057373046875" lon="-6.9572811126708984">
        <ele>1148.0</ele>
        <time>2018-10-12T09:11:50.000Z</time>
      </trkpt>
      <trkpt lat="30.9339694976806641" lon="-6.9572238922119141">
        <ele>1148.0</ele>
        <time>2018-10-12T09:11:51.000Z</time>
      </trkpt>
      <trkpt lat="30.9339313507080078" lon="-6.9571681022644043">
        <ele>1148.0</ele>
        <time>2018-10-12T09:11:52.000Z</time>
      </trkpt>
      <trkpt lat="30.9338951110839844" lon="-6.9571118354797363">
        <ele>1148.0</ele>
        <time>2018-10-12T09:11:53.000Z</time>
      </trkpt>
      <trkpt lat="30.9338607788085938" lon="-6.9570569992065430">
        <ele>1148.0</ele>
        <time>2018-10-12T09:11:54.000Z</time>
      </trkpt>
      <trkpt lat="30.9338245391845703" lon="-6.9570021629333496">
        <ele>1148.0</ele>
        <time>2018-10-12T09:11:55.000Z</time>
      </trkpt>
      <trkpt lat="30.9337863922119141" lon="-6.9569468498229980">
        <ele>1148.0</ele>
        <time>2018-10-12T09:11:56.000Z</time>
      </trkpt>
      <trkpt lat="30.9337520599365234" lon="-6.9568920135498047">
        <ele>1148.0</ele>
        <time>2018-10-12T09:11:57.000Z</time>
      </trkpt>
      <trkpt lat="30.9337177276611328" lon="-6.9568390846252441">
        <ele>1148.0</ele>
        <time>2018-10-12T09:11:58.000Z</time>
      </trkpt>
      <trkpt lat="30.9336814880371094" lon="-6.9567861557006836">
        <ele>1148.0</ele>
        <time>2018-10-12T09:11:59.000Z</time>
      </trkpt>
      <trkpt lat="30.9336452484130859" lon="-6.9567308425903320">
        <ele>1148.0</ele>
        <time>2018-10-12T09:12:00.000Z</time>
      </trkpt>
      <trkpt lat="30.9336090087890625" lon="-6.9566750526428223">
        <ele>1148.0</ele>
        <time>2018-10-12T09:12:01.000Z</time>
      </trkpt>
      <trkpt lat="30.9335708618164062" lon="-6.9566168785095215">
        <ele>1148.0</ele>
        <time>2018-10-12T09:12:02.000Z</time>
      </trkpt>
      <trkpt lat="30.9335346221923828" lon="-6.9565601348876953">
        <ele>1148.0</ele>
        <time>2018-10-12T09:12:03.000Z</time>
      </trkpt>
      <trkpt lat="30.9334983825683594" lon="-6.9565019607543945">
        <ele>1148.0</ele>
        <time>2018-10-12T09:12:04.000Z</time>
      </trkpt>
      <trkpt lat="30.9334602355957031" lon="-6.9564452171325684">
        <ele>1148.0</ele>
        <time>2018-10-12T09:12:05.000Z</time>
      </trkpt>
      <trkpt lat="30.9334259033203125" lon="-6.9563889503479004">
        <ele>1148.0</ele>
        <time>2018-10-12T09:12:06.000Z</time>
      </trkpt>
      <trkpt lat="30.9333877563476562" lon="-6.9563341140747070">
        <ele>1148.0</ele>
        <time>2018-10-12T09:12:07.000Z</time>
      </trkpt>
      <trkpt lat="30.9333515167236328" lon="-6.9562778472900391">
        <ele>1148.0</ele>
        <time>2018-10-12T09:12:08.000Z</time>
      </trkpt>
      <trkpt lat="30.9333152770996094" lon="-6.9562211036682129">
        <ele>1148.0</ele>
        <time>2018-10-12T09:12:09.000Z</time>
      </trkpt>
      <trkpt lat="30.9332771301269531" lon="-6.9561638832092285">
        <ele>1148.0</ele>
        <time>2018-10-12T09:12:10.000Z</time>
      </trkpt>
      <trkpt lat="30.9332408905029297" lon="-6.9561071395874023">
        <ele>1148.0</ele>
        <time>2018-10-12T09:12:11.000Z</time>
      </trkpt>
      <trkpt lat="30.9332027435302734" lon="-6.9560489654541016">
        <ele>1148.0</ele>
        <time>2018-10-12T09:12:12.000Z</time>
      </trkpt>
      <trkpt lat="30.9331665039062500" lon="-6.9559898376464844">
        <ele>1148.0</ele>
        <time>2018-10-12T09:12:13.000Z</time>
      </trkpt>
      <trkpt lat="30.9331321716308594" lon="-6.9559321403503418">
        <ele>1148.0</ele>
        <time>2018-10-12T09:12:14.000Z</time>
      </trkpt>
      <trkpt lat="30.9330978393554688" lon="-6.9558749198913574">
        <ele>1148.0</ele>
        <time>2018-10-12T09:12:15.000Z</time>
      </trkpt>
      <trkpt lat="30.9330635070800781" lon="-6.9558191299438477">
        <ele>1147.366455078125</ele>
        <time>2018-10-12T09:12:16.000Z</time>
      </trkpt>
      <trkpt lat="30.9330291748046875" lon="-6.9557619094848633">
        <ele>1147.0</ele>
        <time>2018-10-12T09:12:17.000Z</time>
      </trkpt>
      <trkpt lat="30.9329948425292969" lon="-6.9557027816772461">
        <ele>1147.0</ele>
        <time>2018-10-12T09:12:18.000Z</time>
      </trkpt>
      <trkpt lat="30.9329605102539062" lon="-6.9556431770324707">
        <ele>1147.8192138671875</ele>
        <time>2018-10-12T09:12:19.000Z</time>
      </trkpt>
      <trkpt lat="30.9329242706298828" lon="-6.9555821418762207">
        <ele>1148.0</ele>
        <time>2018-10-12T09:12:20.000Z</time>
      </trkpt>
      <trkpt lat="30.9328918457031250" lon="-6.9555201530456543">
        <ele>1148.0</ele>
        <time>2018-10-12T09:12:21.000Z</time>
      </trkpt>
      <trkpt lat="30.9328575134277344" lon="-6.9554557800292969">
        <ele>1148.0</ele>
        <time>2018-10-12T09:12:22.000Z</time>
      </trkpt>
      <trkpt lat="30.9328231811523438" lon="-6.9553909301757812">
        <ele>1148.0</ele>
        <time>2018-10-12T09:12:23.000Z</time>
      </trkpt>
      <trkpt lat="30.9327888488769531" lon="-6.9553241729736328">
        <ele>1148.0</ele>
        <time>2018-10-12T09:12:24.000Z</time>
      </trkpt>
      <trkpt lat="30.9327545166015625" lon="-6.9552578926086426">
        <ele>1148.0</ele>
        <time>2018-10-12T09:12:25.000Z</time>
      </trkpt>
      <trkpt lat="30.9327220916748047" lon="-6.9551920890808105">
        <ele>1148.0</ele>
        <time>2018-10-12T09:12:26.000Z</time>
      </trkpt>
      <trkpt lat="30.9326896667480469" lon="-6.9551267623901367">
        <ele>1148.0</ele>
        <time>2018-10-12T09:12:27.000Z</time>
      </trkpt>
      <trkpt lat="30.9326572418212891" lon="-6.9550600051879883">
        <ele>1148.0</ele>
        <time>2018-10-12T09:12:28.000Z</time>
      </trkpt>
      <trkpt lat="30.9326248168945312" lon="-6.9549927711486816">
        <ele>1148.0</ele>
        <time>2018-10-12T09:12:29.000Z</time>
      </trkpt>
      <trkpt lat="30.9325923919677734" lon="-6.9549250602722168">
        <ele>1147.178955078125</ele>
        <time>2018-10-12T09:12:30.000Z</time>
      </trkpt>
      <trkpt lat="30.9325618743896484" lon="-6.9548578262329102">
        <ele>1147.0</ele>
        <time>2018-10-12T09:12:31.000Z</time>
      </trkpt>
      <trkpt lat="30.9325313568115234" lon="-6.9547910690307617">
        <ele>1147.0</ele>
        <time>2018-10-12T09:12:32.000Z</time>
      </trkpt>
      <trkpt lat="30.9325008392333984" lon="-6.9547262191772461">
        <ele>1147.0</ele>
        <time>2018-10-12T09:12:33.000Z</time>
      </trkpt>
      <trkpt lat="30.9324722290039062" lon="-6.9546608924865723">
        <ele>1147.0</ele>
        <time>2018-10-12T09:12:34.000Z</time>
      </trkpt>
      <trkpt lat="30.9324436187744141" lon="-6.9545941352844238">
        <ele>1147.0</ele>
        <time>2018-10-12T09:12:35.000Z</time>
      </trkpt>
      <trkpt lat="30.9324131011962891" lon="-6.9545269012451172">
        <ele>1147.0</ele>
        <time>2018-10-12T09:12:36.000Z</time>
      </trkpt>
      <trkpt lat="30.9323844909667969" lon="-6.9544601440429688">
        <ele>1147.0</ele>
        <time>2018-10-12T09:12:37.000Z</time>
      </trkpt>
      <trkpt lat="30.9323577880859375" lon="-6.9543919563293457">
        <ele>1147.0</ele>
        <time>2018-10-12T09:12:38.000Z</time>
      </trkpt>
      <trkpt lat="30.9323291778564453" lon="-6.9543251991271973">
        <ele>1147.0</ele>
        <time>2018-10-12T09:12:39.000Z</time>
      </trkpt>
      <trkpt lat="30.9323043823242188" lon="-6.9542560577392578">
        <ele>1147.0</ele>
        <time>2018-10-12T09:12:40.000Z</time>
      </trkpt>
      <trkpt lat="30.9322776794433594" lon="-6.9541878700256348">
        <ele>1147.0</ele>
        <time>2018-10-12T09:12:41.000Z</time>
      </trkpt>
      <trkpt lat="30.9322528839111328" lon="-6.9541192054748535">
        <ele>1147.0</ele>
        <time>2018-10-12T09:12:42.000Z</time>
      </trkpt>
      <trkpt lat="30.9322261810302734" lon="-6.9540510177612305">
        <ele>1147.0</ele>
        <time>2018-10-12T09:12:43.000Z</time>
      </trkpt>
      <trkpt lat="30.9322013854980469" lon="-6.9539818763732910">
        <ele>1147.0</ele>
        <time>2018-10-12T09:12:44.000Z</time>
      </trkpt>
      <trkpt lat="30.9321746826171875" lon="-6.9539117813110352">
        <ele>1147.0</ele>
        <time>2018-10-12T09:12:45.000Z</time>
      </trkpt>
      <trkpt lat="30.9321498870849609" lon="-6.9538421630859375">
        <ele>1147.0</ele>
        <time>2018-10-12T09:12:46.000Z</time>
      </trkpt>
      <trkpt lat="30.9321250915527344" lon="-6.9537730216979980">
        <ele>1147.0</ele>
        <time>2018-10-12T09:12:47.000Z</time>
      </trkpt>
      <trkpt lat="30.9321002960205078" lon="-6.9537029266357422">
        <ele>1147.0</ele>
        <time>2018-10-12T09:12:48.000Z</time>
      </trkpt>
      <trkpt lat="30.9320755004882812" lon="-6.9536328315734863">
        <ele>1147.0</ele>
        <time>2018-10-12T09:12:49.000Z</time>
      </trkpt>
      <trkpt lat="30.9320507049560547" lon="-6.9535632133483887">
        <ele>1147.0</ele>
        <time>2018-10-12T09:12:50.000Z</time>
      </trkpt>
      <trkpt lat="30.9320259094238281" lon="-6.9534940719604492">
        <ele>1147.0</ele>
        <time>2018-10-12T09:12:51.000Z</time>
      </trkpt>
      <trkpt lat="30.9320030212402344" lon="-6.9534249305725098">
        <ele>1147.0</ele>
        <time>2018-10-12T09:12:52.000Z</time>
      </trkpt>
      <trkpt lat="30.9319782257080078" lon="-6.9533557891845703">
        <ele>1147.0</ele>
        <time>2018-10-12T09:12:53.000Z</time>
      </trkpt>
      <trkpt lat="30.9319534301757812" lon="-6.9532861709594727">
        <ele>1147.0</ele>
        <time>2018-10-12T09:12:54.000Z</time>
      </trkpt>
      <trkpt lat="30.9319286346435547" lon="-6.9532170295715332">
        <ele>1147.0</ele>
        <time>2018-10-12T09:12:55.000Z</time>
      </trkpt>
      <trkpt lat="30.9319038391113281" lon="-6.9531497955322266">
        <ele>1147.7406005859375</ele>
        <time>2018-10-12T09:12:56.000Z</time>
      </trkpt>
      <trkpt lat="30.9318790435791016" lon="-6.9530830383300781">
        <ele>1148.0</ele>
        <time>2018-10-12T09:12:57.000Z</time>
      </trkpt>
      <trkpt lat="30.9318542480468750" lon="-6.9530138969421387">
        <ele>1148.0</ele>
        <time>2018-10-12T09:12:58.000Z</time>
      </trkpt>
      <trkpt lat="30.9318313598632812" lon="-6.9529452323913574">
        <ele>1147.178955078125</ele>
        <time>2018-10-12T09:12:59.000Z</time>
      </trkpt>
      <trkpt lat="30.9318084716796875" lon="-6.9528770446777344">
        <ele>1147.0</ele>
        <time>2018-10-12T09:13:00.000Z</time>
      </trkpt>
      <trkpt lat="30.9317855834960938" lon="-6.9528079032897949">
        <ele>1147.0</ele>
        <time>2018-10-12T09:13:01.000Z</time>
      </trkpt>
      <trkpt lat="30.9317626953125000" lon="-6.9527401924133301">
        <ele>1147.0</ele>
        <time>2018-10-12T09:13:02.000Z</time>
      </trkpt>
      <trkpt lat="30.9317378997802734" lon="-6.9526700973510742">
        <ele>1147.0</ele>
        <time>2018-10-12T09:13:03.000Z</time>
      </trkpt>
      <trkpt lat="30.9317131042480469" lon="-6.9526000022888184">
        <ele>1147.0</ele>
        <time>2018-10-12T09:13:04.000Z</time>
      </trkpt>
      <trkpt lat="30.9316883087158203" lon="-6.9525308609008789">
        <ele>1147.0</ele>
        <time>2018-10-12T09:13:05.000Z</time>
      </trkpt>
      <trkpt lat="30.9316635131835938" lon="-6.9524621963500977">
        <ele>1147.0</ele>
        <time>2018-10-12T09:13:06.000Z</time>
      </trkpt>
      <trkpt lat="30.9316387176513672" lon="-6.9523921012878418">
        <ele>1147.0</ele>
        <time>2018-10-12T09:13:07.000Z</time>
      </trkpt>
      <trkpt lat="30.9316139221191406" lon="-6.9523220062255859">
        <ele>1147.0</ele>
        <time>2018-10-12T09:13:08.000Z</time>
      </trkpt>
      <trkpt lat="30.9315891265869141" lon="-6.9522500038146973">
        <ele>1147.0</ele>
        <time>2018-10-12T09:13:09.000Z</time>
      </trkpt>
      <trkpt lat="30.9315643310546875" lon="-6.9521789550781250">
        <ele>1147.0</ele>
        <time>2018-10-12T09:13:10.000Z</time>
      </trkpt>
      <trkpt lat="30.9315395355224609" lon="-6.9521069526672363">
        <ele>1147.0</ele>
        <time>2018-10-12T09:13:11.000Z</time>
      </trkpt>
      <trkpt lat="30.9315128326416016" lon="-6.9520368576049805">
        <ele>1147.0</ele>
        <time>2018-10-12T09:13:12.000Z</time>
      </trkpt>
      <trkpt lat="30.9314880371093750" lon="-6.9519681930541992">
        <ele>1147.0</ele>
        <time>2018-10-12T09:13:13.000Z</time>
      </trkpt>
      <trkpt lat="30.9314632415771484" lon="-6.9518980979919434">
        <ele>1147.0</ele>
        <time>2018-10-12T09:13:14.000Z</time>
      </trkpt>
      <trkpt lat="30.9314384460449219" lon="-6.9518270492553711">
        <ele>1147.0</ele>
        <time>2018-10-12T09:13:15.000Z</time>
      </trkpt>
      <trkpt lat="30.9314117431640625" lon="-6.9517569541931152">
        <ele>1147.0</ele>
        <time>2018-10-12T09:13:16.000Z</time>
      </trkpt>
      <trkpt lat="30.9313869476318359" lon="-6.9516878128051758">
        <ele>1147.0</ele>
        <time>2018-10-12T09:13:17.000Z</time>
      </trkpt>
      <trkpt lat="30.9313640594482422" lon="-6.9516201019287109">
        <ele>1147.0</ele>
        <time>2018-10-12T09:13:18.000Z</time>
      </trkpt>
      <trkpt lat="30.9313392639160156" lon="-6.9515519142150879">
        <ele>1147.0</ele>
        <time>2018-10-12T09:13:19.000Z</time>
      </trkpt>
      <trkpt lat="30.9313163757324219" lon="-6.9514827728271484">
        <ele>1147.0</ele>
        <time>2018-10-12T09:13:20.000Z</time>
      </trkpt>
      <trkpt lat="30.9312934875488281" lon="-6.9514169692993164">
        <ele>1147.0</ele>
        <time>2018-10-12T09:13:21.000Z</time>
      </trkpt>
      <trkpt lat="30.9312705993652344" lon="-6.9513502120971680">
        <ele>1147.0</ele>
        <time>2018-10-12T09:13:22.000Z</time>
      </trkpt>
      <trkpt lat="30.9312477111816406" lon="-6.9512839317321777">
        <ele>1147.0</ele>
        <time>2018-10-12T09:13:23.000Z</time>
      </trkpt>
      <trkpt lat="30.9312229156494141" lon="-6.9512200355529785">
        <ele>1147.0</ele>
        <time>2018-10-12T09:13:24.000Z</time>
      </trkpt>
      <trkpt lat="30.9312000274658203" lon="-6.9511542320251465">
        <ele>1147.0</ele>
        <time>2018-10-12T09:13:25.000Z</time>
      </trkpt>
      <trkpt lat="30.9311771392822266" lon="-6.9510917663574219">
        <ele>1147.0</ele>
        <time>2018-10-12T09:13:26.000Z</time>
      </trkpt>
      <trkpt lat="30.9311561584472656" lon="-6.9510321617126465">
        <ele>1147.0</ele>
        <time>2018-10-12T09:13:27.000Z</time>
      </trkpt>
      <trkpt lat="30.9311351776123047" lon="-6.9509720802307129">
        <ele>1147.0</ele>
        <time>2018-10-12T09:13:28.000Z</time>
      </trkpt>
      <trkpt lat="30.9311122894287109" lon="-6.9509110450744629">
        <ele>1147.0</ele>
        <time>2018-10-12T09:13:29.000Z</time>
      </trkpt>
      <trkpt lat="30.9310913085937500" lon="-6.9508519172668457">
        <ele>1147.0</ele>
        <time>2018-10-12T09:13:30.000Z</time>
      </trkpt>
      <trkpt lat="30.9310703277587891" lon="-6.9507899284362793">
        <ele>1147.0</ele>
        <time>2018-10-12T09:13:31.000Z</time>
      </trkpt>
      <trkpt lat="30.9310493469238281" lon="-6.9507269859313965">
        <ele>1147.0</ele>
        <time>2018-10-12T09:13:32.000Z</time>
      </trkpt>
      <trkpt lat="30.9310264587402344" lon="-6.9506640434265137">
        <ele>1147.0</ele>
        <time>2018-10-12T09:13:33.000Z</time>
      </trkpt>
      <trkpt lat="30.9310035705566406" lon="-6.9506011009216309">
        <ele>1147.0</ele>
        <time>2018-10-12T09:13:34.000Z</time>
      </trkpt>
      <trkpt lat="30.9309787750244141" lon="-6.9505400657653809">
        <ele>1147.0</ele>
        <time>2018-10-12T09:13:35.000Z</time>
      </trkpt>
      <trkpt lat="30.9309501647949219" lon="-6.9504799842834473">
        <ele>1147.0</ele>
        <time>2018-10-12T09:13:36.000Z</time>
      </trkpt>
      <trkpt lat="30.9309177398681641" lon="-6.9504218101501465">
        <ele>1146.178955078125</ele>
        <time>2018-10-12T09:13:37.000Z</time>
      </trkpt>
      <trkpt lat="30.9308815002441406" lon="-6.9503688812255859">
        <ele>1146.0</ele>
        <time>2018-10-12T09:13:38.000Z</time>
      </trkpt>
      <trkpt lat="30.9308414459228516" lon="-6.9503221511840820">
        <ele>1146.0</ele>
        <time>2018-10-12T09:13:39.000Z</time>
      </trkpt>
      <trkpt lat="30.9307994842529297" lon="-6.9502758979797363">
        <ele>1146.0</ele>
        <time>2018-10-12T09:13:40.000Z</time>
      </trkpt>
      <trkpt lat="30.9307651519775391" lon="-6.9502201080322266">
        <ele>1146.0</ele>
        <time>2018-10-12T09:13:41.000Z</time>
      </trkpt>
      <trkpt lat="30.9307422637939453" lon="-6.9501581192016602">
        <ele>1146.0</ele>
        <time>2018-10-12T09:13:42.000Z</time>
      </trkpt>
      <trkpt lat="30.9307327270507812" lon="-6.9500899314880371">
        <ele>1146.0</ele>
        <time>2018-10-12T09:13:43.000Z</time>
      </trkpt>
      <trkpt lat="30.9307308197021484" lon="-6.9500179290771484">
        <ele>1146.0</ele>
        <time>2018-10-12T09:13:44.000Z</time>
      </trkpt>
      <trkpt lat="30.9307289123535156" lon="-6.9499459266662598">
        <ele>1146.0</ele>
        <time>2018-10-12T09:13:45.000Z</time>
      </trkpt>
      <trkpt lat="30.9307193756103516" lon="-6.9498758316040039">
        <ele>1146.0</ele>
        <time>2018-10-12T09:13:46.000Z</time>
      </trkpt>
      <trkpt lat="30.9307060241699219" lon="-6.9498062133789062">
        <ele>1146.0</ele>
        <time>2018-10-12T09:13:47.000Z</time>
      </trkpt>
      <trkpt lat="30.9306907653808594" lon="-6.9497361183166504">
        <ele>1146.0</ele>
        <time>2018-10-12T09:13:48.000Z</time>
      </trkpt>
      <trkpt lat="30.9306716918945312" lon="-6.9496669769287109">
        <ele>1146.0</ele>
        <time>2018-10-12T09:13:49.000Z</time>
      </trkpt>
      <trkpt lat="30.9306507110595703" lon="-6.9496002197265625">
        <ele>1146.0</ele>
        <time>2018-10-12T09:13:50.000Z</time>
      </trkpt>
      <trkpt lat="30.9306297302246094" lon="-6.9495320320129395">
        <ele>1146.0</ele>
        <time>2018-10-12T09:13:51.000Z</time>
      </trkpt>
      <trkpt lat="30.9306068420410156" lon="-6.9494681358337402">
        <ele>1146.0</ele>
        <time>2018-10-12T09:13:52.000Z</time>
      </trkpt>
      <trkpt lat="30.9305839538574219" lon="-6.9494018554687500">
        <ele>1145.2520751953125</ele>
        <time>2018-10-12T09:13:53.000Z</time>
      </trkpt>
      <trkpt lat="30.9305610656738281" lon="-6.9493379592895508">
        <ele>1145.0</ele>
        <time>2018-10-12T09:13:54.000Z</time>
      </trkpt>
      <trkpt lat="30.9305381774902344" lon="-6.9492740631103516">
        <ele>1145.821044921875</ele>
        <time>2018-10-12T09:13:55.000Z</time>
      </trkpt>
      <trkpt lat="30.9305171966552734" lon="-6.9492101669311523">
        <ele>1146.0</ele>
        <time>2018-10-12T09:13:56.000Z</time>
      </trkpt>
      <trkpt lat="30.9304943084716797" lon="-6.9491457939147949">
        <ele>1146.0</ele>
        <time>2018-10-12T09:13:57.000Z</time>
      </trkpt>
      <trkpt lat="30.9304733276367188" lon="-6.9490818977355957">
        <ele>1146.0</ele>
        <time>2018-10-12T09:13:58.000Z</time>
      </trkpt>
      <trkpt lat="30.9304485321044922" lon="-6.9490180015563965">
        <ele>1146.0</ele>
        <time>2018-10-12T09:13:59.000Z</time>
      </trkpt>
      <trkpt lat="30.9304256439208984" lon="-6.9489521980285645">
        <ele>1146.0</ele>
        <time>2018-10-12T09:14:00.000Z</time>
      </trkpt>
      <trkpt lat="30.9304008483886719" lon="-6.9488859176635742">
        <ele>1146.0</ele>
        <time>2018-10-12T09:14:01.000Z</time>
      </trkpt>
      <trkpt lat="30.9303779602050781" lon="-6.9488201141357422">
        <ele>1146.0</ele>
        <time>2018-10-12T09:14:02.000Z</time>
      </trkpt>
      <trkpt lat="30.9303531646728516" lon="-6.9487528800964355">
        <ele>1146.0</ele>
        <time>2018-10-12T09:14:03.000Z</time>
      </trkpt>
      <trkpt lat="30.9303302764892578" lon="-6.9486870765686035">
        <ele>1146.0</ele>
        <time>2018-10-12T09:14:04.000Z</time>
      </trkpt>
      <trkpt lat="30.9303054809570312" lon="-6.9486198425292969">
        <ele>1146.0</ele>
        <time>2018-10-12T09:14:05.000Z</time>
      </trkpt>
      <trkpt lat="30.9302825927734375" lon="-6.9485530853271484">
        <ele>1146.0</ele>
        <time>2018-10-12T09:14:06.000Z</time>
      </trkpt>
      <trkpt lat="30.9302597045898438" lon="-6.9484848976135254">
        <ele>1146.0</ele>
        <time>2018-10-12T09:14:07.000Z</time>
      </trkpt>
      <trkpt lat="30.9302368164062500" lon="-6.9484181404113770">
        <ele>1146.0</ele>
        <time>2018-10-12T09:14:08.000Z</time>
      </trkpt>
      <trkpt lat="30.9302139282226562" lon="-6.9483518600463867">
        <ele>1146.0</ele>
        <time>2018-10-12T09:14:09.000Z</time>
      </trkpt>
      <trkpt lat="30.9301891326904297" lon="-6.9482860565185547">
        <ele>1146.0</ele>
        <time>2018-10-12T09:14:10.000Z</time>
      </trkpt>
      <trkpt lat="30.9301662445068359" lon="-6.9482212066650391">
        <ele>1146.0</ele>
        <time>2018-10-12T09:14:11.000Z</time>
      </trkpt>
      <trkpt lat="30.9301433563232422" lon="-6.9481558799743652">
        <ele>1145.178955078125</ele>
        <time>2018-10-12T09:14:12.000Z</time>
      </trkpt>
      <trkpt lat="30.9301204681396484" lon="-6.9480910301208496">
        <ele>1145.0</ele>
        <time>2018-10-12T09:14:13.000Z</time>
      </trkpt>
      <trkpt lat="30.9300975799560547" lon="-6.9480261802673340">
        <ele>1145.0</ele>
        <time>2018-10-12T09:14:14.000Z</time>
      </trkpt>
      <trkpt lat="30.9300746917724609" lon="-6.9479608535766602">
        <ele>1145.0</ele>
        <time>2018-10-12T09:14:15.000Z</time>
      </trkpt>
      <trkpt lat="30.9300518035888672" lon="-6.9478950500488281">
        <ele>1145.628662109375</ele>
        <time>2018-10-12T09:14:16.000Z</time>
      </trkpt>
      <trkpt lat="30.9300289154052734" lon="-6.9478287696838379">
        <ele>1146.0</ele>
        <time>2018-10-12T09:14:17.000Z</time>
      </trkpt>
      <trkpt lat="30.9300041198730469" lon="-6.9477629661560059">
        <ele>1146.0</ele>
        <time>2018-10-12T09:14:18.000Z</time>
      </trkpt>
      <trkpt lat="30.9299812316894531" lon="-6.9476981163024902">
        <ele>1146.0</ele>
        <time>2018-10-12T09:14:19.000Z</time>
      </trkpt>
      <trkpt lat="30.9299583435058594" lon="-6.9476327896118164">
        <ele>1146.0</ele>
        <time>2018-10-12T09:14:20.000Z</time>
      </trkpt>
      <trkpt lat="30.9299354553222656" lon="-6.9475698471069336">
        <ele>1146.0</ele>
        <time>2018-10-12T09:14:21.000Z</time>
      </trkpt>
      <trkpt lat="30.9298896789550781" lon="-6.9474468231201172">
        <ele>1144.18896484375</ele>
        <time>2018-10-12T09:14:23.000Z</time>
      </trkpt>
      <trkpt lat="30.9298686981201172" lon="-6.9473838806152344">
        <ele>1144.0</ele>
        <time>2018-10-12T09:14:24.000Z</time>
      </trkpt>
      <trkpt lat="30.9298458099365234" lon="-6.9473218917846680">
        <ele>1144.6239013671875</ele>
        <time>2018-10-12T09:14:25.000Z</time>
      </trkpt>
      <trkpt lat="30.9298229217529297" lon="-6.9472589492797852">
        <ele>1145.0</ele>
        <time>2018-10-12T09:14:26.000Z</time>
      </trkpt>
      <trkpt lat="30.9298019409179688" lon="-6.9471960067749023">
        <ele>1145.0</ele>
        <time>2018-10-12T09:14:27.000Z</time>
      </trkpt>
      <trkpt lat="30.9297771453857422" lon="-6.9471340179443359">
        <ele>1145.0</ele>
        <time>2018-10-12T09:14:28.000Z</time>
      </trkpt>
      <trkpt lat="30.9297561645507812" lon="-6.9470710754394531">
        <ele>1145.0</ele>
        <time>2018-10-12T09:14:29.000Z</time>
      </trkpt>
      <trkpt lat="30.9297351837158203" lon="-6.9470081329345703">
        <ele>1145.0</ele>
        <time>2018-10-12T09:14:30.000Z</time>
      </trkpt>
      <trkpt lat="30.9297122955322266" lon="-6.9469451904296875">
        <ele>1145.0</ele>
        <time>2018-10-12T09:14:31.000Z</time>
      </trkpt>
      <trkpt lat="30.9296894073486328" lon="-6.9468817710876465">
        <ele>1145.0</ele>
        <time>2018-10-12T09:14:32.000Z</time>
      </trkpt>
      <trkpt lat="30.9296665191650391" lon="-6.9468178749084473">
        <ele>1145.0</ele>
        <time>2018-10-12T09:14:33.000Z</time>
      </trkpt>
      <trkpt lat="30.9296455383300781" lon="-6.9467530250549316">
        <ele>1145.0</ele>
        <time>2018-10-12T09:14:34.000Z</time>
      </trkpt>
      <trkpt lat="30.9296226501464844" lon="-6.9466891288757324">
        <ele>1145.0</ele>
        <time>2018-10-12T09:14:35.000Z</time>
      </trkpt>
      <trkpt lat="30.9295978546142578" lon="-6.9466228485107422">
        <ele>1145.0</ele>
        <time>2018-10-12T09:14:36.000Z</time>
      </trkpt>
      <trkpt lat="30.9295768737792969" lon="-6.9465560913085938">
        <ele>1145.0</ele>
        <time>2018-10-12T09:14:37.000Z</time>
      </trkpt>
      <trkpt lat="30.9295520782470703" lon="-6.9464879035949707">
        <ele>1145.0</ele>
        <time>2018-10-12T09:14:38.000Z</time>
      </trkpt>
      <trkpt lat="30.9295253753662109" lon="-6.9464168548583984">
        <ele>1145.0</ele>
        <time>2018-10-12T09:14:39.000Z</time>
      </trkpt>
      <trkpt lat="30.9295005798339844" lon="-6.9463472366333008">
        <ele>1145.0</ele>
        <time>2018-10-12T09:14:40.000Z</time>
      </trkpt>
      <trkpt lat="30.9294757843017578" lon="-6.9462761878967285">
        <ele>1145.0</ele>
        <time>2018-10-12T09:14:41.000Z</time>
      </trkpt>
      <trkpt lat="30.9294490814208984" lon="-6.9462041854858398">
        <ele>1145.0</ele>
        <time>2018-10-12T09:14:42.000Z</time>
      </trkpt>
      <trkpt lat="30.9294242858886719" lon="-6.9461331367492676">
        <ele>1145.0</ele>
        <time>2018-10-12T09:14:43.000Z</time>
      </trkpt>
      <trkpt lat="30.9294013977050781" lon="-6.9460611343383789">
        <ele>1145.0</ele>
        <time>2018-10-12T09:14:44.000Z</time>
      </trkpt>
      <trkpt lat="30.9293766021728516" lon="-6.9459910392761230">
        <ele>1145.0</ele>
        <time>2018-10-12T09:14:45.000Z</time>
      </trkpt>
      <trkpt lat="30.9293518066406250" lon="-6.9459209442138672">
        <ele>1145.0</ele>
        <time>2018-10-12T09:14:46.000Z</time>
      </trkpt>
      <trkpt lat="30.9293270111083984" lon="-6.9458518028259277">
        <ele>1145.0</ele>
        <time>2018-10-12T09:14:47.000Z</time>
      </trkpt>
      <trkpt lat="30.9293003082275391" lon="-6.9457812309265137">
        <ele>1145.0</ele>
        <time>2018-10-12T09:14:48.000Z</time>
      </trkpt>
      <trkpt lat="30.9292755126953125" lon="-6.9457101821899414">
        <ele>1145.0</ele>
        <time>2018-10-12T09:14:49.000Z</time>
      </trkpt>
      <trkpt lat="30.9292526245117188" lon="-6.9456391334533691">
        <ele>1145.0</ele>
        <time>2018-10-12T09:14:50.000Z</time>
      </trkpt>
      <trkpt lat="30.9292259216308594" lon="-6.9455680847167969">
        <ele>1145.0</ele>
        <time>2018-10-12T09:14:51.000Z</time>
      </trkpt>
      <trkpt lat="30.9291992187500000" lon="-6.9454960823059082">
        <ele>1144.178955078125</ele>
        <time>2018-10-12T09:14:52.000Z</time>
      </trkpt>
      <trkpt lat="30.9291744232177734" lon="-6.9454240798950195">
        <ele>1144.0</ele>
        <time>2018-10-12T09:14:53.000Z</time>
      </trkpt>
      <trkpt lat="30.9291496276855469" lon="-6.9453520774841309">
        <ele>1144.821044921875</ele>
        <time>2018-10-12T09:14:54.000Z</time>
      </trkpt>
      <trkpt lat="30.9291248321533203" lon="-6.9452791213989258">
        <ele>1145.0</ele>
        <time>2018-10-12T09:14:55.000Z</time>
      </trkpt>
      <trkpt lat="30.9290981292724609" lon="-6.9452071189880371">
        <ele>1145.0</ele>
        <time>2018-10-12T09:14:56.000Z</time>
      </trkpt>
      <trkpt lat="30.9290733337402344" lon="-6.9451360702514648">
        <ele>1145.0</ele>
        <time>2018-10-12T09:14:57.000Z</time>
      </trkpt>
      <trkpt lat="30.9290485382080078" lon="-6.9450659751892090">
        <ele>1145.0</ele>
        <time>2018-10-12T09:14:58.000Z</time>
      </trkpt>
      <trkpt lat="30.9290256500244141" lon="-6.9449977874755859">
        <ele>1145.0</ele>
        <time>2018-10-12T09:14:59.000Z</time>
      </trkpt>
      <trkpt lat="30.9290008544921875" lon="-6.9449300765991211">
        <ele>1145.0</ele>
        <time>2018-10-12T09:15:00.000Z</time>
      </trkpt>
      <trkpt lat="30.9289779663085938" lon="-6.9448637962341309">
        <ele>1144.178955078125</ele>
        <time>2018-10-12T09:15:01.000Z</time>
      </trkpt>
      <trkpt lat="30.9289550781250000" lon="-6.9447979927062988">
        <ele>1144.0</ele>
        <time>2018-10-12T09:15:02.000Z</time>
      </trkpt>
      <trkpt lat="30.9289302825927734" lon="-6.9447321891784668">
        <ele>1144.0</ele>
        <time>2018-10-12T09:15:03.000Z</time>
      </trkpt>
      <trkpt lat="30.9289073944091797" lon="-6.9446640014648438">
        <ele>1144.0</ele>
        <time>2018-10-12T09:15:04.000Z</time>
      </trkpt>
      <trkpt lat="30.9288825988769531" lon="-6.9445939064025879">
        <ele>1144.0</ele>
        <time>2018-10-12T09:15:05.000Z</time>
      </trkpt>
      <trkpt lat="30.9288558959960938" lon="-6.9445228576660156">
        <ele>1144.821044921875</ele>
        <time>2018-10-12T09:15:06.000Z</time>
      </trkpt>
      <trkpt lat="30.9288311004638672" lon="-6.9444499015808105">
        <ele>1145.0</ele>
        <time>2018-10-12T09:15:07.000Z</time>
      </trkpt>
      <trkpt lat="30.9288043975830078" lon="-6.9443759918212891">
        <ele>1145.0</ele>
        <time>2018-10-12T09:15:08.000Z</time>
      </trkpt>
      <trkpt lat="30.9287796020507812" lon="-6.9443011283874512">
        <ele>1145.0</ele>
        <time>2018-10-12T09:15:09.000Z</time>
      </trkpt>
      <trkpt lat="30.9287509918212891" lon="-6.9442257881164551">
        <ele>1145.0</ele>
        <time>2018-10-12T09:15:10.000Z</time>
      </trkpt>
      <trkpt lat="30.9287242889404297" lon="-6.9441499710083008">
        <ele>1145.0</ele>
        <time>2018-10-12T09:15:11.000Z</time>
      </trkpt>
      <trkpt lat="30.9286975860595703" lon="-6.9440732002258301">
        <ele>1145.0</ele>
        <time>2018-10-12T09:15:12.000Z</time>
      </trkpt>
      <trkpt lat="30.9286708831787109" lon="-6.9439969062805176">
        <ele>1145.0</ele>
        <time>2018-10-12T09:15:13.000Z</time>
      </trkpt>
      <trkpt lat="30.9286422729492188" lon="-6.9439220428466797">
        <ele>1145.0</ele>
        <time>2018-10-12T09:15:14.000Z</time>
      </trkpt>
      <trkpt lat="30.9286174774169922" lon="-6.9438462257385254">
        <ele>1145.0</ele>
        <time>2018-10-12T09:15:15.000Z</time>
      </trkpt>
      <trkpt lat="30.9285907745361328" lon="-6.9437708854675293">
        <ele>1145.0</ele>
        <time>2018-10-12T09:15:16.000Z</time>
      </trkpt>
      <trkpt lat="30.9285640716552734" lon="-6.9436960220336914">
        <ele>1145.0</ele>
        <time>2018-10-12T09:15:17.000Z</time>
      </trkpt>
      <trkpt lat="30.9285373687744141" lon="-6.9436221122741699">
        <ele>1145.0</ele>
        <time>2018-10-12T09:15:18.000Z</time>
      </trkpt>
      <trkpt lat="30.9285125732421875" lon="-6.9435482025146484">
        <ele>1145.0</ele>
        <time>2018-10-12T09:15:19.000Z</time>
      </trkpt>
      <trkpt lat="30.9284858703613281" lon="-6.9434738159179688">
        <ele>1144.2486572265625</ele>
        <time>2018-10-12T09:15:20.000Z</time>
      </trkpt>
      <trkpt lat="30.9284610748291016" lon="-6.9433999061584473">
        <ele>1144.0</ele>
        <time>2018-10-12T09:15:21.000Z</time>
      </trkpt>
      <trkpt lat="30.9284343719482422" lon="-6.9433259963989258">
        <ele>1144.0</ele>
        <time>2018-10-12T09:15:22.000Z</time>
      </trkpt>
      <trkpt lat="30.9284076690673828" lon="-6.9432520866394043">
        <ele>1144.0</ele>
        <time>2018-10-12T09:15:23.000Z</time>
      </trkpt>
      <trkpt lat="30.9283809661865234" lon="-6.9431772232055664">
        <ele>1144.0</ele>
        <time>2018-10-12T09:15:24.000Z</time>
      </trkpt>
      <trkpt lat="30.9283542633056641" lon="-6.9431018829345703">
        <ele>1144.0</ele>
        <time>2018-10-12T09:15:25.000Z</time>
      </trkpt>
      <trkpt lat="30.9283294677734375" lon="-6.9430279731750488">
        <ele>1144.0</ele>
        <time>2018-10-12T09:15:26.000Z</time>
      </trkpt>
      <trkpt lat="30.9283027648925781" lon="-6.9429540634155273">
        <ele>1144.0</ele>
        <time>2018-10-12T09:15:27.000Z</time>
      </trkpt>
      <trkpt lat="30.9282779693603516" lon="-6.9428811073303223">
        <ele>1144.0</ele>
        <time>2018-10-12T09:15:28.000Z</time>
      </trkpt>
      <trkpt lat="30.9282531738281250" lon="-6.9428091049194336">
        <ele>1144.0</ele>
        <time>2018-10-12T09:15:29.000Z</time>
      </trkpt>
      <trkpt lat="30.9282264709472656" lon="-6.9427390098571777">
        <ele>1144.0</ele>
        <time>2018-10-12T09:15:30.000Z</time>
      </trkpt>
      <trkpt lat="30.9282035827636719" lon="-6.9426689147949219">
        <ele>1144.0</ele>
        <time>2018-10-12T09:15:31.000Z</time>
      </trkpt>
      <trkpt lat="30.9281787872314453" lon="-6.9425997734069824">
        <ele>1144.0</ele>
        <time>2018-10-12T09:15:32.000Z</time>
      </trkpt>
      <trkpt lat="30.9281539916992188" lon="-6.9425320625305176">
        <ele>1144.0</ele>
        <time>2018-10-12T09:15:33.000Z</time>
      </trkpt>
      <trkpt lat="30.9281291961669922" lon="-6.9424648284912109">
        <ele>1144.0</ele>
        <time>2018-10-12T09:15:34.000Z</time>
      </trkpt>
      <trkpt lat="30.9281063079833984" lon="-6.9423990249633789">
        <ele>1144.0</ele>
        <time>2018-10-12T09:15:35.000Z</time>
      </trkpt>
      <trkpt lat="30.9280834197998047" lon="-6.9423341751098633">
        <ele>1144.0</ele>
        <time>2018-10-12T09:15:36.000Z</time>
      </trkpt>
      <trkpt lat="30.9280605316162109" lon="-6.9422712326049805">
        <ele>1144.0</ele>
        <time>2018-10-12T09:15:37.000Z</time>
      </trkpt>
      <trkpt lat="30.9280395507812500" lon="-6.9422078132629395">
        <ele>1144.0</ele>
        <time>2018-10-12T09:15:38.000Z</time>
      </trkpt>
      <trkpt lat="30.9280185699462891" lon="-6.9421458244323730">
        <ele>1144.0</ele>
        <time>2018-10-12T09:15:39.000Z</time>
      </trkpt>
      <trkpt lat="30.9279975891113281" lon="-6.9420862197875977">
        <ele>1144.0</ele>
        <time>2018-10-12T09:15:40.000Z</time>
      </trkpt>
      <trkpt lat="30.9279766082763672" lon="-6.9420261383056641">
        <ele>1144.0</ele>
        <time>2018-10-12T09:15:41.000Z</time>
      </trkpt>
      <trkpt lat="30.9279575347900391" lon="-6.9419670104980469">
        <ele>1144.0</ele>
        <time>2018-10-12T09:15:42.000Z</time>
      </trkpt>
      <trkpt lat="30.9279365539550781" lon="-6.9419097900390625">
        <ele>1143.373291015625</ele>
        <time>2018-10-12T09:15:43.000Z</time>
      </trkpt>
      <trkpt lat="30.9279174804687500" lon="-6.9418520927429199">
        <ele>1143.0</ele>
        <time>2018-10-12T09:15:44.000Z</time>
      </trkpt>
      <trkpt lat="30.9278945922851562" lon="-6.9417891502380371">
        <ele>1143.821044921875</ele>
        <time>2018-10-12T09:15:45.000Z</time>
      </trkpt>
      <trkpt lat="30.9278717041015625" lon="-6.9417219161987305">
        <ele>1144.0</ele>
        <time>2018-10-12T09:15:46.000Z</time>
      </trkpt>
      <trkpt lat="30.9278469085693359" lon="-6.9416518211364746">
        <ele>1144.0</ele>
        <time>2018-10-12T09:15:47.000Z</time>
      </trkpt>
      <trkpt lat="30.9278182983398438" lon="-6.9415779113769531">
        <ele>1144.0</ele>
        <time>2018-10-12T09:15:48.000Z</time>
      </trkpt>
      <trkpt lat="30.9277935028076172" lon="-6.9415030479431152">
        <ele>1144.0</ele>
        <time>2018-10-12T09:15:49.000Z</time>
      </trkpt>
      <trkpt lat="30.9277687072753906" lon="-6.9414300918579102">
        <ele>1144.0</ele>
        <time>2018-10-12T09:15:50.000Z</time>
      </trkpt>
      <trkpt lat="30.9277439117431641" lon="-6.9413599967956543">
        <ele>1144.0</ele>
        <time>2018-10-12T09:15:51.000Z</time>
      </trkpt>
      <trkpt lat="30.9277191162109375" lon="-6.9412918090820312">
        <ele>1144.0</ele>
        <time>2018-10-12T09:15:52.000Z</time>
      </trkpt>
      <trkpt lat="30.9276943206787109" lon="-6.9412260055541992">
        <ele>1144.0</ele>
        <time>2018-10-12T09:15:53.000Z</time>
      </trkpt>
      <trkpt lat="30.9276714324951172" lon="-6.9411611557006836">
        <ele>1143.178955078125</ele>
        <time>2018-10-12T09:15:54.000Z</time>
      </trkpt>
      <trkpt lat="30.9276485443115234" lon="-6.9410982131958008">
        <ele>1143.0</ele>
        <time>2018-10-12T09:15:55.000Z</time>
      </trkpt>
      <trkpt lat="30.9276275634765625" lon="-6.9410338401794434">
        <ele>1143.0</ele>
        <time>2018-10-12T09:15:56.000Z</time>
      </trkpt>
      <trkpt lat="30.9276046752929688" lon="-6.9409670829772949">
        <ele>1143.0</ele>
        <time>2018-10-12T09:15:57.000Z</time>
      </trkpt>
      <trkpt lat="30.9275779724121094" lon="-6.9408960342407227">
        <ele>1143.0</ele>
        <time>2018-10-12T09:15:58.000Z</time>
      </trkpt>
      <trkpt lat="30.9275512695312500" lon="-6.9408202171325684">
        <ele>1143.0</ele>
        <time>2018-10-12T09:15:59.000Z</time>
      </trkpt>
      <trkpt lat="30.9275245666503906" lon="-6.9407429695129395">
        <ele>1143.0</ele>
        <time>2018-10-12T09:16:00.000Z</time>
      </trkpt>
      <trkpt lat="30.9274997711181641" lon="-6.9406690597534180">
        <ele>1143.0</ele>
        <time>2018-10-12T09:16:01.000Z</time>
      </trkpt>
      <trkpt lat="30.9274730682373047" lon="-6.9405961036682129">
        <ele>1143.0</ele>
        <time>2018-10-12T09:16:02.000Z</time>
      </trkpt>
      <trkpt lat="30.9274482727050781" lon="-6.9405260086059570">
        <ele>1143.0</ele>
        <time>2018-10-12T09:16:03.000Z</time>
      </trkpt>
      <trkpt lat="30.9274234771728516" lon="-6.9404559135437012">
        <ele>1143.0</ele>
        <time>2018-10-12T09:16:04.000Z</time>
      </trkpt>
      <trkpt lat="30.9273986816406250" lon="-6.9403882026672363">
        <ele>1143.0</ele>
        <time>2018-10-12T09:16:05.000Z</time>
      </trkpt>
      <trkpt lat="30.9273757934570312" lon="-6.9403209686279297">
        <ele>1143.0</ele>
        <time>2018-10-12T09:16:06.000Z</time>
      </trkpt>
      <trkpt lat="30.9273529052734375" lon="-6.9402561187744141">
        <ele>1143.0</ele>
        <time>2018-10-12T09:16:07.000Z</time>
      </trkpt>
      <trkpt lat="30.9273300170898438" lon="-6.9401907920837402">
        <ele>1143.0</ele>
        <time>2018-10-12T09:16:08.000Z</time>
      </trkpt>
      <trkpt lat="30.9273090362548828" lon="-6.9401249885559082">
        <ele>1143.0</ele>
        <time>2018-10-12T09:16:09.000Z</time>
      </trkpt>
      <trkpt lat="30.9272880554199219" lon="-6.9400568008422852">
        <ele>1143.0</ele>
        <time>2018-10-12T09:16:10.000Z</time>
      </trkpt>
      <trkpt lat="30.9272708892822266" lon="-6.9399881362915039">
        <ele>1143.0</ele>
        <time>2018-10-12T09:16:11.000Z</time>
      </trkpt>
      <trkpt lat="30.9272518157958984" lon="-6.9399180412292480">
        <ele>1143.0</ele>
        <time>2018-10-12T09:16:12.000Z</time>
      </trkpt>
      <trkpt lat="30.9272308349609375" lon="-6.9398479461669922">
        <ele>1143.0</ele>
        <time>2018-10-12T09:16:13.000Z</time>
      </trkpt>
      <trkpt lat="30.9272079467773438" lon="-6.9397802352905273">
        <ele>1143.0</ele>
        <time>2018-10-12T09:16:14.000Z</time>
      </trkpt>
      <trkpt lat="30.9271793365478516" lon="-6.9397130012512207">
        <ele>1143.0</ele>
        <time>2018-10-12T09:16:15.000Z</time>
      </trkpt>
      <trkpt lat="30.9271507263183594" lon="-6.9396481513977051">
        <ele>1143.0</ele>
        <time>2018-10-12T09:16:16.000Z</time>
      </trkpt>
      <trkpt lat="30.9271221160888672" lon="-6.9395818710327148">
        <ele>1143.0</ele>
        <time>2018-10-12T09:16:17.000Z</time>
      </trkpt>
      <trkpt lat="30.9270935058593750" lon="-6.9395151138305664">
        <ele>1143.0</ele>
        <time>2018-10-12T09:16:18.000Z</time>
      </trkpt>
      <trkpt lat="30.9270687103271484" lon="-6.9394469261169434">
        <ele>1143.0</ele>
        <time>2018-10-12T09:16:19.000Z</time>
      </trkpt>
      <trkpt lat="30.9270420074462891" lon="-6.9393768310546875">
        <ele>1143.0</ele>
        <time>2018-10-12T09:16:20.000Z</time>
      </trkpt>
      <trkpt lat="30.9270172119140625" lon="-6.9393081665039062">
        <ele>1143.0</ele>
        <time>2018-10-12T09:16:21.000Z</time>
      </trkpt>
      <trkpt lat="30.9269943237304688" lon="-6.9392390251159668">
        <ele>1143.0</ele>
        <time>2018-10-12T09:16:22.000Z</time>
      </trkpt>
      <trkpt lat="30.9269695281982422" lon="-6.9391698837280273">
        <ele>1143.0</ele>
        <time>2018-10-12T09:16:23.000Z</time>
      </trkpt>
      <trkpt lat="30.9269466400146484" lon="-6.9391012191772461">
        <ele>1143.0</ele>
        <time>2018-10-12T09:16:24.000Z</time>
      </trkpt>
      <trkpt lat="30.9269218444824219" lon="-6.9390330314636230">
        <ele>1143.0</ele>
        <time>2018-10-12T09:16:25.000Z</time>
      </trkpt>
      <trkpt lat="30.9268970489501953" lon="-6.9389648437500000">
        <ele>1143.0</ele>
        <time>2018-10-12T09:16:26.000Z</time>
      </trkpt>
      <trkpt lat="30.9268741607666016" lon="-6.9388980865478516">
        <ele>1143.0</ele>
        <time>2018-10-12T09:16:27.000Z</time>
      </trkpt>
      <trkpt lat="30.9268512725830078" lon="-6.9388318061828613">
        <ele>1143.0</ele>
        <time>2018-10-12T09:16:28.000Z</time>
      </trkpt>
      <trkpt lat="30.9268264770507812" lon="-6.9387660026550293">
        <ele>1143.0</ele>
        <time>2018-10-12T09:16:29.000Z</time>
      </trkpt>
      <trkpt lat="30.9268035888671875" lon="-6.9386987686157227">
        <ele>1143.0</ele>
        <time>2018-10-12T09:16:30.000Z</time>
      </trkpt>
      <trkpt lat="30.9267768859863281" lon="-6.9386301040649414">
        <ele>1142.2593994140625</ele>
        <time>2018-10-12T09:16:31.000Z</time>
      </trkpt>
      <trkpt lat="30.9267520904541016" lon="-6.9385609626770020">
        <ele>1142.8128662109375</ele>
        <time>2018-10-12T09:16:32.000Z</time>
      </trkpt>
      <trkpt lat="30.9267272949218750" lon="-6.9384908676147461">
        <ele>1143.0</ele>
        <time>2018-10-12T09:16:33.000Z</time>
      </trkpt>
      <trkpt lat="30.9267024993896484" lon="-6.9384198188781738">
        <ele>1143.0</ele>
        <time>2018-10-12T09:16:34.000Z</time>
      </trkpt>
      <trkpt lat="30.9266777038574219" lon="-6.9383487701416016">
        <ele>1143.0</ele>
        <time>2018-10-12T09:16:35.000Z</time>
      </trkpt>
      <trkpt lat="30.9266529083251953" lon="-6.9382791519165039">
        <ele>1143.0</ele>
        <time>2018-10-12T09:16:36.000Z</time>
      </trkpt>
      <trkpt lat="30.9266262054443359" lon="-6.9382090568542480">
        <ele>1143.0</ele>
        <time>2018-10-12T09:16:37.000Z</time>
      </trkpt>
      <trkpt lat="30.9266033172607422" lon="-6.9381389617919922">
        <ele>1142.262451171875</ele>
        <time>2018-10-12T09:16:38.000Z</time>
      </trkpt>
      <trkpt lat="30.9265804290771484" lon="-6.9380698204040527">
        <ele>1142.81103515625</ele>
        <time>2018-10-12T09:16:39.000Z</time>
      </trkpt>
      <trkpt lat="30.9265556335449219" lon="-6.9380011558532715">
        <ele>1143.0</ele>
        <time>2018-10-12T09:16:40.000Z</time>
      </trkpt>
      <trkpt lat="30.9265308380126953" lon="-6.9379320144653320">
        <ele>1143.0</ele>
        <time>2018-10-12T09:16:41.000Z</time>
      </trkpt>
      <trkpt lat="30.9265041351318359" lon="-6.9378619194030762">
        <ele>1143.0</ele>
        <time>2018-10-12T09:16:42.000Z</time>
      </trkpt>
      <trkpt lat="30.9264793395996094" lon="-6.9377908706665039">
        <ele>1142.178955078125</ele>
        <time>2018-10-12T09:16:43.000Z</time>
      </trkpt>
      <trkpt lat="30.9264545440673828" lon="-6.9377188682556152">
        <ele>1142.0</ele>
        <time>2018-10-12T09:16:44.000Z</time>
      </trkpt>
      <trkpt lat="30.9264297485351562" lon="-6.9376468658447266">
        <ele>1142.0</ele>
        <time>2018-10-12T09:16:45.000Z</time>
      </trkpt>
      <trkpt lat="30.9264049530029297" lon="-6.9375758171081543">
        <ele>1142.7406005859375</ele>
        <time>2018-10-12T09:16:46.000Z</time>
      </trkpt>
      <trkpt lat="30.9263782501220703" lon="-6.9375047683715820">
        <ele>1143.0</ele>
        <time>2018-10-12T09:16:47.000Z</time>
      </trkpt>
      <trkpt lat="30.9263534545898438" lon="-6.9374351501464844">
        <ele>1142.18896484375</ele>
        <time>2018-10-12T09:16:48.000Z</time>
      </trkpt>
      <trkpt lat="30.9263305664062500" lon="-6.9373660087585449">
        <ele>1142.0</ele>
        <time>2018-10-12T09:16:49.000Z</time>
      </trkpt>
      <trkpt lat="30.9263057708740234" lon="-6.9372987747192383">
        <ele>1142.0</ele>
        <time>2018-10-12T09:16:50.000Z</time>
      </trkpt>
      <trkpt lat="30.9262809753417969" lon="-6.9372329711914062">
        <ele>1142.0</ele>
        <time>2018-10-12T09:16:51.000Z</time>
      </trkpt>
      <trkpt lat="30.9262580871582031" lon="-6.9371690750122070">
        <ele>1142.0</ele>
        <time>2018-10-12T09:16:52.000Z</time>
      </trkpt>
      <trkpt lat="30.9262351989746094" lon="-6.9371051788330078">
        <ele>1142.0</ele>
        <time>2018-10-12T09:16:53.000Z</time>
      </trkpt>
      <trkpt lat="30.9262123107910156" lon="-6.9370431900024414">
        <ele>1142.0</ele>
        <time>2018-10-12T09:16:54.000Z</time>
      </trkpt>
      <trkpt lat="30.9261894226074219" lon="-6.9369812011718750">
        <ele>1142.0</ele>
        <time>2018-10-12T09:16:55.000Z</time>
      </trkpt>
      <trkpt lat="30.9261684417724609" lon="-6.9369177818298340">
        <ele>1142.0</ele>
        <time>2018-10-12T09:16:56.000Z</time>
      </trkpt>
      <trkpt lat="30.9261474609375000" lon="-6.9368538856506348">
        <ele>1142.0</ele>
        <time>2018-10-12T09:16:57.000Z</time>
      </trkpt>
      <trkpt lat="30.9261264801025391" lon="-6.9367899894714355">
        <ele>1142.0</ele>
        <time>2018-10-12T09:16:58.000Z</time>
      </trkpt>
      <trkpt lat="30.9261074066162109" lon="-6.9367251396179199">
        <ele>1142.0</ele>
        <time>2018-10-12T09:16:59.000Z</time>
      </trkpt>
      <trkpt lat="30.9260864257812500" lon="-6.9366579055786133">
        <ele>1142.0</ele>
        <time>2018-10-12T09:17:00.000Z</time>
      </trkpt>
      <trkpt lat="30.9260673522949219" lon="-6.9365911483764648">
        <ele>1142.0</ele>
        <time>2018-10-12T09:17:01.000Z</time>
      </trkpt>
      <trkpt lat="30.9260463714599609" lon="-6.9365229606628418">
        <ele>1142.0</ele>
        <time>2018-10-12T09:17:02.000Z</time>
      </trkpt>
      <trkpt lat="30.9260234832763672" lon="-6.9364562034606934">
        <ele>1142.0</ele>
        <time>2018-10-12T09:17:03.000Z</time>
      </trkpt>
      <trkpt lat="30.9259967803955078" lon="-6.9363899230957031">
        <ele>1142.0</ele>
        <time>2018-10-12T09:17:04.000Z</time>
      </trkpt>
      <trkpt lat="30.9259662628173828" lon="-6.9363260269165039">
        <ele>1142.0</ele>
        <time>2018-10-12T09:17:05.000Z</time>
      </trkpt>
      <trkpt lat="30.9259376525878906" lon="-6.9362611770629883">
        <ele>1142.0</ele>
        <time>2018-10-12T09:17:06.000Z</time>
      </trkpt>
      <trkpt lat="30.9259109497070312" lon="-6.9361920356750488">
        <ele>1142.0</ele>
        <time>2018-10-12T09:17:07.000Z</time>
      </trkpt>
      <trkpt lat="30.9258842468261719" lon="-6.9361219406127930">
        <ele>1142.0</ele>
        <time>2018-10-12T09:17:08.000Z</time>
      </trkpt>
      <trkpt lat="30.9258575439453125" lon="-6.9360527992248535">
        <ele>1142.0</ele>
        <time>2018-10-12T09:17:09.000Z</time>
      </trkpt>
      <trkpt lat="30.9258327484130859" lon="-6.9359831809997559">
        <ele>1142.0</ele>
        <time>2018-10-12T09:17:10.000Z</time>
      </trkpt>
      <trkpt lat="30.9258060455322266" lon="-6.9359140396118164">
        <ele>1142.0</ele>
        <time>2018-10-12T09:17:11.000Z</time>
      </trkpt>
      <trkpt lat="30.9257812500000000" lon="-6.9358448982238770">
        <ele>1142.0</ele>
        <time>2018-10-12T09:17:12.000Z</time>
      </trkpt>
      <trkpt lat="30.9257564544677734" lon="-6.9357762336730957">
        <ele>1142.0</ele>
        <time>2018-10-12T09:17:13.000Z</time>
      </trkpt>
      <trkpt lat="30.9257335662841797" lon="-6.9357080459594727">
        <ele>1142.0</ele>
        <time>2018-10-12T09:17:14.000Z</time>
      </trkpt>
      <trkpt lat="30.9257106781005859" lon="-6.9356417655944824">
        <ele>1142.0</ele>
        <time>2018-10-12T09:17:15.000Z</time>
      </trkpt>
      <trkpt lat="30.9256858825683594" lon="-6.9355778694152832">
        <ele>1142.0</ele>
        <time>2018-10-12T09:17:16.000Z</time>
      </trkpt>
      <trkpt lat="30.9256649017333984" lon="-6.9355149269104004">
        <ele>1142.0</ele>
        <time>2018-10-12T09:17:17.000Z</time>
      </trkpt>
      <trkpt lat="30.9256401062011719" lon="-6.9354510307312012">
        <ele>1142.0</ele>
        <time>2018-10-12T09:17:18.000Z</time>
      </trkpt>
      <trkpt lat="30.9256172180175781" lon="-6.9353861808776855">
        <ele>1142.0</ele>
        <time>2018-10-12T09:17:19.000Z</time>
      </trkpt>
      <trkpt lat="30.9255943298339844" lon="-6.9353189468383789">
        <ele>1142.0</ele>
        <time>2018-10-12T09:17:20.000Z</time>
      </trkpt>
      <trkpt lat="30.9255695343017578" lon="-6.9352512359619141">
        <ele>1142.0</ele>
        <time>2018-10-12T09:17:21.000Z</time>
      </trkpt>
      <trkpt lat="30.9255447387695312" lon="-6.9351830482482910">
        <ele>1142.0</ele>
        <time>2018-10-12T09:17:22.000Z</time>
      </trkpt>
      <trkpt lat="30.9255199432373047" lon="-6.9351158142089844">
        <ele>1142.0</ele>
        <time>2018-10-12T09:17:23.000Z</time>
      </trkpt>
      <trkpt lat="30.9254951477050781" lon="-6.9350490570068359">
        <ele>1142.0</ele>
        <time>2018-10-12T09:17:24.000Z</time>
      </trkpt>
      <trkpt lat="30.9254703521728516" lon="-6.9349818229675293">
        <ele>1142.0</ele>
        <time>2018-10-12T09:17:25.000Z</time>
      </trkpt>
      <trkpt lat="30.9254474639892578" lon="-6.9349150657653809">
        <ele>1142.0</ele>
        <time>2018-10-12T09:17:26.000Z</time>
      </trkpt>
      <trkpt lat="30.9254226684570312" lon="-6.9348478317260742">
        <ele>1142.0</ele>
        <time>2018-10-12T09:17:27.000Z</time>
      </trkpt>
      <trkpt lat="30.9253997802734375" lon="-6.9347810745239258">
        <ele>1142.0</ele>
        <time>2018-10-12T09:17:28.000Z</time>
      </trkpt>
      <trkpt lat="30.9253749847412109" lon="-6.9347128868103027">
        <ele>1142.0</ele>
        <time>2018-10-12T09:17:29.000Z</time>
      </trkpt>
      <trkpt lat="30.9253501892089844" lon="-6.9346427917480469">
        <ele>1142.0</ele>
        <time>2018-10-12T09:17:30.000Z</time>
      </trkpt>
      <trkpt lat="30.9253253936767578" lon="-6.9345741271972656">
        <ele>1142.0</ele>
        <time>2018-10-12T09:17:31.000Z</time>
      </trkpt>
      <trkpt lat="30.9253005981445312" lon="-6.9345049858093262">
        <ele>1142.0</ele>
        <time>2018-10-12T09:17:32.000Z</time>
      </trkpt>
      <trkpt lat="30.9252758026123047" lon="-6.9344339370727539">
        <ele>1142.0</ele>
        <time>2018-10-12T09:17:33.000Z</time>
      </trkpt>
      <trkpt lat="30.9252529144287109" lon="-6.9343628883361816">
        <ele>1142.0</ele>
        <time>2018-10-12T09:17:34.000Z</time>
      </trkpt>
      <trkpt lat="30.9252281188964844" lon="-6.9342927932739258">
        <ele>1142.0</ele>
        <time>2018-10-12T09:17:35.000Z</time>
      </trkpt>
      <trkpt lat="30.9252033233642578" lon="-6.9342241287231445">
        <ele>1142.0</ele>
        <time>2018-10-12T09:17:36.000Z</time>
      </trkpt>
      <trkpt lat="30.9251766204833984" lon="-6.9341578483581543">
        <ele>1142.0</ele>
        <time>2018-10-12T09:17:37.000Z</time>
      </trkpt>
      <trkpt lat="30.9251461029052734" lon="-6.9340949058532715">
        <ele>1142.0</ele>
        <time>2018-10-12T09:17:38.000Z</time>
      </trkpt>
      <trkpt lat="30.9251136779785156" lon="-6.9340338706970215">
        <ele>1142.0</ele>
        <time>2018-10-12T09:17:39.000Z</time>
      </trkpt>
      <trkpt lat="30.9250793457031250" lon="-6.9339761734008789">
        <ele>1142.0</ele>
        <time>2018-10-12T09:17:40.000Z</time>
      </trkpt>
      <trkpt lat="30.9250450134277344" lon="-6.9339179992675781">
        <ele>1142.0</ele>
        <time>2018-10-12T09:17:41.000Z</time>
      </trkpt>
      <trkpt lat="30.9250125885009766" lon="-6.9338622093200684">
        <ele>1142.0</ele>
        <time>2018-10-12T09:17:42.000Z</time>
      </trkpt>
      <trkpt lat="30.9249782562255859" lon="-6.9338088035583496">
        <ele>1142.0</ele>
        <time>2018-10-12T09:17:43.000Z</time>
      </trkpt>
      <trkpt lat="30.9249458312988281" lon="-6.9337601661682129">
        <ele>1142.0</ele>
        <time>2018-10-12T09:17:44.000Z</time>
      </trkpt>
      <trkpt lat="30.9249114990234375" lon="-6.9337139129638672">
        <ele>1142.0</ele>
        <time>2018-10-12T09:17:45.000Z</time>
      </trkpt>
      <trkpt lat="30.9248809814453125" lon="-6.9336681365966797">
        <ele>1142.0</ele>
        <time>2018-10-12T09:17:46.000Z</time>
      </trkpt>
      <trkpt lat="30.9248504638671875" lon="-6.9336209297180176">
        <ele>1142.0</ele>
        <time>2018-10-12T09:17:47.000Z</time>
      </trkpt>
      <trkpt lat="30.9248237609863281" lon="-6.9335689544677734">
        <ele>1142.0</ele>
        <time>2018-10-12T09:17:48.000Z</time>
      </trkpt>
      <trkpt lat="30.9248027801513672" lon="-6.9335122108459473">
        <ele>1142.0</ele>
        <time>2018-10-12T09:17:49.000Z</time>
      </trkpt>
      <trkpt lat="30.9247837066650391" lon="-6.9334502220153809">
        <ele>1142.0</ele>
        <time>2018-10-12T09:17:50.000Z</time>
      </trkpt>
      <trkpt lat="30.9247703552246094" lon="-6.9333858489990234">
        <ele>1142.0</ele>
        <time>2018-10-12T09:17:51.000Z</time>
      </trkpt>
      <trkpt lat="30.9247608184814453" lon="-6.9333171844482422">
        <ele>1142.0</ele>
        <time>2018-10-12T09:17:52.000Z</time>
      </trkpt>
      <trkpt lat="30.9247512817382812" lon="-6.9332451820373535">
        <ele>1142.0</ele>
        <time>2018-10-12T09:17:53.000Z</time>
      </trkpt>
      <trkpt lat="30.9247455596923828" lon="-6.9331698417663574">
        <ele>1142.0</ele>
        <time>2018-10-12T09:17:54.000Z</time>
      </trkpt>
      <trkpt lat="30.9247398376464844" lon="-6.9330921173095703">
        <ele>1142.0</ele>
        <time>2018-10-12T09:17:55.000Z</time>
      </trkpt>
      <trkpt lat="30.9247341156005859" lon="-6.9330120086669922">
        <ele>1142.821044921875</ele>
        <time>2018-10-12T09:17:56.000Z</time>
      </trkpt>
      <trkpt lat="30.9247264862060547" lon="-6.9329290390014648">
        <ele>1143.0</ele>
        <time>2018-10-12T09:17:57.000Z</time>
      </trkpt>
      <trkpt lat="30.9247093200683594" lon="-6.9328460693359375">
        <ele>1143.0</ele>
        <time>2018-10-12T09:17:58.000Z</time>
      </trkpt>
      <trkpt lat="30.9246864318847656" lon="-6.9327659606933594">
        <ele>1143.0</ele>
        <time>2018-10-12T09:17:59.000Z</time>
      </trkpt>
      <trkpt lat="30.9246616363525391" lon="-6.9326901435852051">
        <ele>1143.0</ele>
        <time>2018-10-12T09:18:00.000Z</time>
      </trkpt>
      <trkpt lat="30.9246368408203125" lon="-6.9326181411743164">
        <ele>1143.0</ele>
        <time>2018-10-12T09:18:01.000Z</time>
      </trkpt>
      <trkpt lat="30.9246139526367188" lon="-6.9325489997863770">
        <ele>1143.0</ele>
        <time>2018-10-12T09:18:02.000Z</time>
      </trkpt>
      <trkpt lat="30.9245910644531250" lon="-6.9324841499328613">
        <ele>1143.0</ele>
        <time>2018-10-12T09:18:03.000Z</time>
      </trkpt>
      <trkpt lat="30.9245719909667969" lon="-6.9324231147766113">
        <ele>1143.821044921875</ele>
        <time>2018-10-12T09:18:04.000Z</time>
      </trkpt>
      <trkpt lat="30.9245529174804688" lon="-6.9323639869689941">
        <ele>1144.0</ele>
        <time>2018-10-12T09:18:05.000Z</time>
      </trkpt>
      <trkpt lat="30.9245319366455078" lon="-6.9323058128356934">
        <ele>1144.0</ele>
        <time>2018-10-12T09:18:06.000Z</time>
      </trkpt>
      <trkpt lat="30.9245090484619141" lon="-6.9322462081909180">
        <ele>1144.0</ele>
        <time>2018-10-12T09:18:07.000Z</time>
      </trkpt>
      <trkpt lat="30.9244880676269531" lon="-6.9321861267089844">
        <ele>1144.641357421875</ele>
        <time>2018-10-12T09:18:08.000Z</time>
      </trkpt>
      <trkpt lat="30.9244670867919922" lon="-6.9321260452270508">
        <ele>1145.0</ele>
        <time>2018-10-12T09:18:09.000Z</time>
      </trkpt>
      <trkpt lat="30.9244461059570312" lon="-6.9320659637451172">
        <ele>1145.0</ele>
        <time>2018-10-12T09:18:10.000Z</time>
      </trkpt>
      <trkpt lat="30.9244270324707031" lon="-6.9320058822631836">
        <ele>1145.0</ele>
        <time>2018-10-12T09:18:11.000Z</time>
      </trkpt>
      <trkpt lat="30.9244060516357422" lon="-6.9319458007812500">
        <ele>1145.0</ele>
        <time>2018-10-12T09:18:12.000Z</time>
      </trkpt>
      <trkpt lat="30.9243869781494141" lon="-6.9318881034851074">
        <ele>1145.0</ele>
        <time>2018-10-12T09:18:13.000Z</time>
      </trkpt>
      <trkpt lat="30.9243679046630859" lon="-6.9318289756774902">
        <ele>1145.0</ele>
        <time>2018-10-12T09:18:14.000Z</time>
      </trkpt>
      <trkpt lat="30.9243488311767578" lon="-6.9317708015441895">
        <ele>1145.0</ele>
        <time>2018-10-12T09:18:15.000Z</time>
      </trkpt>
      <trkpt lat="30.9243297576904297" lon="-6.9317121505737305">
        <ele>1145.0</ele>
        <time>2018-10-12T09:18:16.000Z</time>
      </trkpt>
      <trkpt lat="30.9243087768554688" lon="-6.9316520690917969">
        <ele>1145.0</ele>
        <time>2018-10-12T09:18:17.000Z</time>
      </trkpt>
      <trkpt lat="30.9242858886718750" lon="-6.9315900802612305">
        <ele>1145.0</ele>
        <time>2018-10-12T09:18:18.000Z</time>
      </trkpt>
      <trkpt lat="30.9242591857910156" lon="-6.9315271377563477">
        <ele>1145.0</ele>
        <time>2018-10-12T09:18:19.000Z</time>
      </trkpt>
      <trkpt lat="30.9242362976074219" lon="-6.9314627647399902">
        <ele>1145.0</ele>
        <time>2018-10-12T09:18:20.000Z</time>
      </trkpt>
      <trkpt lat="30.9242153167724609" lon="-6.9313998222351074">
        <ele>1145.0</ele>
        <time>2018-10-12T09:18:21.000Z</time>
      </trkpt>
      <trkpt lat="30.9241962432861328" lon="-6.9313368797302246">
        <ele>1145.0</ele>
        <time>2018-10-12T09:18:22.000Z</time>
      </trkpt>
      <trkpt lat="30.9241771697998047" lon="-6.9312758445739746">
        <ele>1145.0</ele>
        <time>2018-10-12T09:18:23.000Z</time>
      </trkpt>
      <trkpt lat="30.9241580963134766" lon="-6.9312148094177246">
        <ele>1145.0</ele>
        <time>2018-10-12T09:18:24.000Z</time>
      </trkpt>
      <trkpt lat="30.9241390228271484" lon="-6.9311518669128418">
        <ele>1145.0</ele>
        <time>2018-10-12T09:18:25.000Z</time>
      </trkpt>
      <trkpt lat="30.9241161346435547" lon="-6.9310879707336426">
        <ele>1145.0</ele>
        <time>2018-10-12T09:18:26.000Z</time>
      </trkpt>
      <trkpt lat="30.9240932464599609" lon="-6.9310221672058105">
        <ele>1145.0</ele>
        <time>2018-10-12T09:18:27.000Z</time>
      </trkpt>
      <trkpt lat="30.9240703582763672" lon="-6.9309549331665039">
        <ele>1145.0</ele>
        <time>2018-10-12T09:18:28.000Z</time>
      </trkpt>
      <trkpt lat="30.9240474700927734" lon="-6.9308881759643555">
        <ele>1145.0</ele>
        <time>2018-10-12T09:18:29.000Z</time>
      </trkpt>
      <trkpt lat="30.9240245819091797" lon="-6.9308199882507324">
        <ele>1145.0</ele>
        <time>2018-10-12T09:18:30.000Z</time>
      </trkpt>
      <trkpt lat="30.9239997863769531" lon="-6.9307532310485840">
        <ele>1145.0</ele>
        <time>2018-10-12T09:18:31.000Z</time>
      </trkpt>
      <trkpt lat="30.9239749908447266" lon="-6.9306859970092773">
        <ele>1145.0</ele>
        <time>2018-10-12T09:18:32.000Z</time>
      </trkpt>
      <trkpt lat="30.9239501953125000" lon="-6.9306211471557617">
        <ele>1145.0</ele>
        <time>2018-10-12T09:18:33.000Z</time>
      </trkpt>
      <trkpt lat="30.9239273071289062" lon="-6.9305558204650879">
        <ele>1145.0</ele>
        <time>2018-10-12T09:18:34.000Z</time>
      </trkpt>
      <trkpt lat="30.9239063262939453" lon="-6.9304919242858887">
        <ele>1145.0</ele>
        <time>2018-10-12T09:18:35.000Z</time>
      </trkpt>
      <trkpt lat="30.9238853454589844" lon="-6.9304280281066895">
        <ele>1145.0</ele>
        <time>2018-10-12T09:18:36.000Z</time>
      </trkpt>
      <trkpt lat="30.9238643646240234" lon="-6.9303641319274902">
        <ele>1145.0</ele>
        <time>2018-10-12T09:18:37.000Z</time>
      </trkpt>
      <trkpt lat="30.9238433837890625" lon="-6.9303002357482910">
        <ele>1145.0</ele>
        <time>2018-10-12T09:18:38.000Z</time>
      </trkpt>
      <trkpt lat="30.9238185882568359" lon="-6.9302349090576172">
        <ele>1145.0</ele>
        <time>2018-10-12T09:18:39.000Z</time>
      </trkpt>
      <trkpt lat="30.9237937927246094" lon="-6.9301691055297852">
        <ele>1145.0</ele>
        <time>2018-10-12T09:18:40.000Z</time>
      </trkpt>
      <trkpt lat="30.9237670898437500" lon="-6.9301009178161621">
        <ele>1145.0</ele>
        <time>2018-10-12T09:18:41.000Z</time>
      </trkpt>
      <trkpt lat="30.9237403869628906" lon="-6.9300317764282227">
        <ele>1145.0</ele>
        <time>2018-10-12T09:18:42.000Z</time>
      </trkpt>
      <trkpt lat="30.9237155914306641" lon="-6.9299597740173340">
        <ele>1145.0</ele>
        <time>2018-10-12T09:18:43.000Z</time>
      </trkpt>
      <trkpt lat="30.9236907958984375" lon="-6.9298877716064453">
        <ele>1145.0</ele>
        <time>2018-10-12T09:18:44.000Z</time>
      </trkpt>
      <trkpt lat="30.9236640930175781" lon="-6.9298157691955566">
        <ele>1145.0</ele>
        <time>2018-10-12T09:18:45.000Z</time>
      </trkpt>
      <trkpt lat="30.9236392974853516" lon="-6.9297461509704590">
        <ele>1144.366455078125</ele>
        <time>2018-10-12T09:18:46.000Z</time>
      </trkpt>
      <trkpt lat="30.9236145019531250" lon="-6.9296741485595703">
        <ele>1144.0</ele>
        <time>2018-10-12T09:18:47.000Z</time>
      </trkpt>
      <trkpt lat="30.9235916137695312" lon="-6.9296011924743652">
        <ele>1144.0</ele>
        <time>2018-10-12T09:18:48.000Z</time>
      </trkpt>
      <trkpt lat="30.9235687255859375" lon="-6.9295282363891602">
        <ele>1144.0</ele>
        <time>2018-10-12T09:18:49.000Z</time>
      </trkpt>
      <trkpt lat="30.9235439300537109" lon="-6.9294548034667969">
        <ele>1144.0</ele>
        <time>2018-10-12T09:18:50.000Z</time>
      </trkpt>
      <trkpt lat="30.9235191345214844" lon="-6.9293828010559082">
        <ele>1144.0</ele>
        <time>2018-10-12T09:18:51.000Z</time>
      </trkpt>
      <trkpt lat="30.9234943389892578" lon="-6.9293098449707031">
        <ele>1144.0</ele>
        <time>2018-10-12T09:18:52.000Z</time>
      </trkpt>
      <trkpt lat="30.9234676361083984" lon="-6.9292378425598145">
        <ele>1144.0</ele>
        <time>2018-10-12T09:18:53.000Z</time>
      </trkpt>
      <trkpt lat="30.9234428405761719" lon="-6.9291648864746094">
        <ele>1144.0</ele>
        <time>2018-10-12T09:18:54.000Z</time>
      </trkpt>
      <trkpt lat="30.9234161376953125" lon="-6.9290919303894043">
        <ele>1144.0</ele>
        <time>2018-10-12T09:18:55.000Z</time>
      </trkpt>
      <trkpt lat="30.9233913421630859" lon="-6.9290199279785156">
        <ele>1144.0</ele>
        <time>2018-10-12T09:18:56.000Z</time>
      </trkpt>
      <trkpt lat="30.9233665466308594" lon="-6.9289469718933105">
        <ele>1144.0</ele>
        <time>2018-10-12T09:18:57.000Z</time>
      </trkpt>
      <trkpt lat="30.9233417510986328" lon="-6.9288749694824219">
        <ele>1144.0</ele>
        <time>2018-10-12T09:18:58.000Z</time>
      </trkpt>
      <trkpt lat="30.9233169555664062" lon="-6.9288048744201660">
        <ele>1144.0</ele>
        <time>2018-10-12T09:18:59.000Z</time>
      </trkpt>
      <trkpt lat="30.9232902526855469" lon="-6.9287347793579102">
        <ele>1143.178955078125</ele>
        <time>2018-10-12T09:19:00.000Z</time>
      </trkpt>
      <trkpt lat="30.9232654571533203" lon="-6.9286661148071289">
        <ele>1143.0</ele>
        <time>2018-10-12T09:19:01.000Z</time>
      </trkpt>
      <trkpt lat="30.9232387542724609" lon="-6.9285960197448730">
        <ele>1143.0</ele>
        <time>2018-10-12T09:19:02.000Z</time>
      </trkpt>
      <trkpt lat="30.9232101440429688" lon="-6.9285230636596680">
        <ele>1143.0</ele>
        <time>2018-10-12T09:19:03.000Z</time>
      </trkpt>
      <trkpt lat="30.9231834411621094" lon="-6.9284458160400391">
        <ele>1143.0</ele>
        <time>2018-10-12T09:19:04.000Z</time>
      </trkpt>
      <trkpt lat="30.9231567382812500" lon="-6.9283671379089355">
        <ele>1143.0</ele>
        <time>2018-10-12T09:19:05.000Z</time>
      </trkpt>
      <trkpt lat="30.9231300354003906" lon="-6.9282870292663574">
        <ele>1143.0</ele>
        <time>2018-10-12T09:19:06.000Z</time>
      </trkpt>
      <trkpt lat="30.9231014251708984" lon="-6.9282050132751465">
        <ele>1142.178955078125</ele>
        <time>2018-10-12T09:19:07.000Z</time>
      </trkpt>
      <trkpt lat="30.9230728149414062" lon="-6.9281210899353027">
        <ele>1142.0</ele>
        <time>2018-10-12T09:19:08.000Z</time>
      </trkpt>
      <trkpt lat="30.9230422973632812" lon="-6.9280371665954590">
        <ele>1142.0</ele>
        <time>2018-10-12T09:19:09.000Z</time>
      </trkpt>
      <trkpt lat="30.9230098724365234" lon="-6.9279508590698242">
        <ele>1142.0</ele>
        <time>2018-10-12T09:19:10.000Z</time>
      </trkpt>
      <trkpt lat="30.9229774475097656" lon="-6.9278640747070312">
        <ele>1142.0</ele>
        <time>2018-10-12T09:19:11.000Z</time>
      </trkpt>
      <trkpt lat="30.9229431152343750" lon="-6.9277768135070801">
        <ele>1142.0</ele>
        <time>2018-10-12T09:19:12.000Z</time>
      </trkpt>
      <trkpt lat="30.9229106903076172" lon="-6.9276890754699707">
        <ele>1141.178955078125</ele>
        <time>2018-10-12T09:19:13.000Z</time>
      </trkpt>
      <trkpt lat="30.9228763580322266" lon="-6.9275989532470703">
        <ele>1141.0</ele>
        <time>2018-10-12T09:19:14.000Z</time>
      </trkpt>
      <trkpt lat="30.9228439331054688" lon="-6.9275088310241699">
        <ele>1141.0</ele>
        <time>2018-10-12T09:19:15.000Z</time>
      </trkpt>
      <trkpt lat="30.9228096008300781" lon="-6.9274191856384277">
        <ele>1141.0</ele>
        <time>2018-10-12T09:19:16.000Z</time>
      </trkpt>
      <trkpt lat="30.9227752685546875" lon="-6.9273290634155273">
        <ele>1141.821044921875</ele>
        <time>2018-10-12T09:19:17.000Z</time>
      </trkpt>
      <trkpt lat="30.9227447509765625" lon="-6.9272379875183105">
        <ele>1142.0</ele>
        <time>2018-10-12T09:19:18.000Z</time>
      </trkpt>
      <trkpt lat="30.9227104187011719" lon="-6.9271469116210938">
        <ele>1142.0</ele>
        <time>2018-10-12T09:19:19.000Z</time>
      </trkpt>
      <trkpt lat="30.9226799011230469" lon="-6.9270558357238770">
        <ele>1142.0</ele>
        <time>2018-10-12T09:19:20.000Z</time>
      </trkpt>
      <trkpt lat="30.9226493835449219" lon="-6.9269661903381348">
        <ele>1142.0</ele>
        <time>2018-10-12T09:19:21.000Z</time>
      </trkpt>
      <trkpt lat="30.9226188659667969" lon="-6.9268770217895508">
        <ele>1142.0</ele>
        <time>2018-10-12T09:19:22.000Z</time>
      </trkpt>
      <trkpt lat="30.9225883483886719" lon="-6.9267911911010742">
        <ele>1142.0</ele>
        <time>2018-10-12T09:19:23.000Z</time>
      </trkpt>
      <trkpt lat="30.9225597381591797" lon="-6.9267067909240723">
        <ele>1142.0</ele>
        <time>2018-10-12T09:19:24.000Z</time>
      </trkpt>
      <trkpt lat="30.9225292205810547" lon="-6.9266247749328613">
        <ele>1142.0</ele>
        <time>2018-10-12T09:19:25.000Z</time>
      </trkpt>
      <trkpt lat="30.9225025177001953" lon="-6.9265441894531250">
        <ele>1142.0</ele>
        <time>2018-10-12T09:19:26.000Z</time>
      </trkpt>
      <trkpt lat="30.9224758148193359" lon="-6.9264659881591797">
        <ele>1142.0</ele>
        <time>2018-10-12T09:19:27.000Z</time>
      </trkpt>
      <trkpt lat="30.9224472045898438" lon="-6.9263911247253418">
        <ele>1142.0</ele>
        <time>2018-10-12T09:19:28.000Z</time>
      </trkpt>
      <trkpt lat="30.9224205017089844" lon="-6.9263181686401367">
        <ele>1142.0</ele>
        <time>2018-10-12T09:19:29.000Z</time>
      </trkpt>
      <trkpt lat="30.9223937988281250" lon="-6.9262471199035645">
        <ele>1142.0</ele>
        <time>2018-10-12T09:19:30.000Z</time>
      </trkpt>
      <trkpt lat="30.9223670959472656" lon="-6.9261760711669922">
        <ele>1142.0</ele>
        <time>2018-10-12T09:19:31.000Z</time>
      </trkpt>
      <trkpt lat="30.9223423004150391" lon="-6.9261050224304199">
        <ele>1142.0</ele>
        <time>2018-10-12T09:19:32.000Z</time>
      </trkpt>
      <trkpt lat="30.9223175048828125" lon="-6.9260339736938477">
        <ele>1142.0</ele>
        <time>2018-10-12T09:19:33.000Z</time>
      </trkpt>
      <trkpt lat="30.9222927093505859" lon="-6.9259629249572754">
        <ele>1142.0</ele>
        <time>2018-10-12T09:19:34.000Z</time>
      </trkpt>
      <trkpt lat="30.9222679138183594" lon="-6.9258918762207031">
        <ele>1142.0</ele>
        <time>2018-10-12T09:19:35.000Z</time>
      </trkpt>
      <trkpt lat="30.9222412109375000" lon="-6.9258198738098145">
        <ele>1141.2593994140625</ele>
        <time>2018-10-12T09:19:36.000Z</time>
      </trkpt>
      <trkpt lat="30.9222126007080078" lon="-6.9257478713989258">
        <ele>1141.0</ele>
        <time>2018-10-12T09:19:37.000Z</time>
      </trkpt>
      <trkpt lat="30.9221820831298828" lon="-6.9256768226623535">
        <ele>1141.0</ele>
        <time>2018-10-12T09:19:38.000Z</time>
      </trkpt>
      <trkpt lat="30.9221534729003906" lon="-6.9256057739257812">
        <ele>1141.0</ele>
        <time>2018-10-12T09:19:39.000Z</time>
      </trkpt>
      <trkpt lat="30.9221267700195312" lon="-6.9255337715148926">
        <ele>1141.0</ele>
        <time>2018-10-12T09:19:40.000Z</time>
      </trkpt>
      <trkpt lat="30.9220981597900391" lon="-6.9254617691040039">
        <ele>1141.0</ele>
        <time>2018-10-12T09:19:41.000Z</time>
      </trkpt>
      <trkpt lat="30.9220714569091797" lon="-6.9253911972045898">
        <ele>1141.0</ele>
        <time>2018-10-12T09:19:42.000Z</time>
      </trkpt>
      <trkpt lat="30.9220466613769531" lon="-6.9253191947937012">
        <ele>1141.0</ele>
        <time>2018-10-12T09:19:43.000Z</time>
      </trkpt>
      <trkpt lat="30.9220199584960938" lon="-6.9252471923828125">
        <ele>1141.0</ele>
        <time>2018-10-12T09:19:44.000Z</time>
      </trkpt>
      <trkpt lat="30.9219932556152344" lon="-6.9251742362976074">
        <ele>1141.0</ele>
        <time>2018-10-12T09:19:45.000Z</time>
      </trkpt>
      <trkpt lat="30.9219684600830078" lon="-6.9251008033752441">
        <ele>1141.0</ele>
        <time>2018-10-12T09:19:46.000Z</time>
      </trkpt>
      <trkpt lat="30.9219436645507812" lon="-6.9250288009643555">
        <ele>1140.178955078125</ele>
        <time>2018-10-12T09:19:47.000Z</time>
      </trkpt>
      <trkpt lat="30.9219169616699219" lon="-6.9249558448791504">
        <ele>1140.821044921875</ele>
        <time>2018-10-12T09:19:48.000Z</time>
      </trkpt>
      <trkpt lat="30.9218921661376953" lon="-6.9248828887939453">
        <ele>1141.0</ele>
        <time>2018-10-12T09:19:49.000Z</time>
      </trkpt>
      <trkpt lat="30.9218711853027344" lon="-6.9248099327087402">
        <ele>1141.0</ele>
        <time>2018-10-12T09:19:50.000Z</time>
      </trkpt>
      <trkpt lat="30.9218521118164062" lon="-6.9247379302978516">
        <ele>1141.0</ele>
        <time>2018-10-12T09:19:51.000Z</time>
      </trkpt>
      <trkpt lat="30.9218292236328125" lon="-6.9246659278869629">
        <ele>1141.0</ele>
        <time>2018-10-12T09:19:52.000Z</time>
      </trkpt>
      <trkpt lat="30.9218082427978516" lon="-6.9245939254760742">
        <ele>1141.0</ele>
        <time>2018-10-12T09:19:53.000Z</time>
      </trkpt>
      <trkpt lat="30.9217853546142578" lon="-6.9245219230651855">
        <ele>1141.0</ele>
        <time>2018-10-12T09:19:54.000Z</time>
      </trkpt>
      <trkpt lat="30.9217605590820312" lon="-6.9244508743286133">
        <ele>1141.0</ele>
        <time>2018-10-12T09:19:55.000Z</time>
      </trkpt>
      <trkpt lat="30.9217319488525391" lon="-6.9243807792663574">
        <ele>1141.0</ele>
        <time>2018-10-12T09:19:56.000Z</time>
      </trkpt>
      <trkpt lat="30.9217014312744141" lon="-6.9243121147155762">
        <ele>1141.0</ele>
        <time>2018-10-12T09:19:57.000Z</time>
      </trkpt>
      <trkpt lat="30.9216728210449219" lon="-6.9242420196533203">
        <ele>1141.0</ele>
        <time>2018-10-12T09:19:58.000Z</time>
      </trkpt>
      <trkpt lat="30.9216442108154297" lon="-6.9241719245910645">
        <ele>1141.0</ele>
        <time>2018-10-12T09:19:59.000Z</time>
      </trkpt>
      <trkpt lat="30.9216175079345703" lon="-6.9241018295288086">
        <ele>1141.0</ele>
        <time>2018-10-12T09:20:00.000Z</time>
      </trkpt>
      <trkpt lat="30.9215927124023438" lon="-6.9240322113037109">
        <ele>1141.0</ele>
        <time>2018-10-12T09:20:01.000Z</time>
      </trkpt>
      <trkpt lat="30.9215679168701172" lon="-6.9239611625671387">
        <ele>1141.0</ele>
        <time>2018-10-12T09:20:02.000Z</time>
      </trkpt>
      <trkpt lat="30.9215431213378906" lon="-6.9238910675048828">
        <ele>1141.0</ele>
        <time>2018-10-12T09:20:03.000Z</time>
      </trkpt>
      <trkpt lat="30.9215183258056641" lon="-6.9238200187683105">
        <ele>1141.0</ele>
        <time>2018-10-12T09:20:04.000Z</time>
      </trkpt>
      <trkpt lat="30.9214954376220703" lon="-6.9237480163574219">
        <ele>1141.0</ele>
        <time>2018-10-12T09:20:05.000Z</time>
      </trkpt>
      <trkpt lat="30.9214706420898438" lon="-6.9236769676208496">
        <ele>1141.0</ele>
        <time>2018-10-12T09:20:06.000Z</time>
      </trkpt>
      <trkpt lat="30.9214458465576172" lon="-6.9236068725585938">
        <ele>1141.0</ele>
        <time>2018-10-12T09:20:07.000Z</time>
      </trkpt>
      <trkpt lat="30.9214210510253906" lon="-6.9235367774963379">
        <ele>1141.0</ele>
        <time>2018-10-12T09:20:08.000Z</time>
      </trkpt>
      <trkpt lat="30.9213962554931641" lon="-6.9234662055969238">
        <ele>1141.0</ele>
        <time>2018-10-12T09:20:09.000Z</time>
      </trkpt>
      <trkpt lat="30.9213714599609375" lon="-6.9233951568603516">
        <ele>1141.821044921875</ele>
        <time>2018-10-12T09:20:10.000Z</time>
      </trkpt>
      <trkpt lat="30.9213466644287109" lon="-6.9233260154724121">
        <ele>1142.0</ele>
        <time>2018-10-12T09:20:11.000Z</time>
      </trkpt>
      <trkpt lat="30.9213218688964844" lon="-6.9232578277587891">
        <ele>1142.0</ele>
        <time>2018-10-12T09:20:12.000Z</time>
      </trkpt>
      <trkpt lat="30.9212970733642578" lon="-6.9231891632080078">
        <ele>1142.0</ele>
        <time>2018-10-12T09:20:13.000Z</time>
      </trkpt>
      <trkpt lat="30.9212722778320312" lon="-6.9231209754943848">
        <ele>1142.0</ele>
        <time>2018-10-12T09:20:14.000Z</time>
      </trkpt>
      <trkpt lat="30.9212474822998047" lon="-6.9230527877807617">
        <ele>1142.0</ele>
        <time>2018-10-12T09:20:15.000Z</time>
      </trkpt>
      <trkpt lat="30.9212226867675781" lon="-6.9229850769042969">
        <ele>1142.0</ele>
        <time>2018-10-12T09:20:16.000Z</time>
      </trkpt>
      <trkpt lat="30.9211997985839844" lon="-6.9229178428649902">
        <ele>1142.0</ele>
        <time>2018-10-12T09:20:17.000Z</time>
      </trkpt>
      <trkpt lat="30.9211769104003906" lon="-6.9228501319885254">
        <ele>1142.0</ele>
        <time>2018-10-12T09:20:18.000Z</time>
      </trkpt>
      <trkpt lat="30.9211521148681641" lon="-6.9227828979492188">
        <ele>1142.0</ele>
        <time>2018-10-12T09:20:19.000Z</time>
      </trkpt>
      <trkpt lat="30.9211292266845703" lon="-6.9227161407470703">
        <ele>1142.0</ele>
        <time>2018-10-12T09:20:20.000Z</time>
      </trkpt>
      <trkpt lat="30.9211044311523438" lon="-6.9226479530334473">
        <ele>1142.0</ele>
        <time>2018-10-12T09:20:21.000Z</time>
      </trkpt>
      <trkpt lat="30.9210796356201172" lon="-6.9225797653198242">
        <ele>1141.49755859375</ele>
        <time>2018-10-12T09:20:22.000Z</time>
      </trkpt>
      <trkpt lat="30.9210529327392578" lon="-6.9225120544433594">
        <ele>1141.0</ele>
        <time>2018-10-12T09:20:23.000Z</time>
      </trkpt>
      <trkpt lat="30.9210262298583984" lon="-6.9224419593811035">
        <ele>1141.0</ele>
        <time>2018-10-12T09:20:24.000Z</time>
      </trkpt>
      <trkpt lat="30.9210014343261719" lon="-6.9223709106445312">
        <ele>1140.178955078125</ele>
        <time>2018-10-12T09:20:25.000Z</time>
      </trkpt>
      <trkpt lat="30.9209766387939453" lon="-6.9222979545593262">
        <ele>1140.0</ele>
        <time>2018-10-12T09:20:26.000Z</time>
      </trkpt>
      <trkpt lat="30.9209518432617188" lon="-6.9222240447998047">
        <ele>1140.0</ele>
        <time>2018-10-12T09:20:27.000Z</time>
      </trkpt>
      <trkpt lat="30.9209232330322266" lon="-6.9221491813659668">
        <ele>1140.0</ele>
        <time>2018-10-12T09:20:28.000Z</time>
      </trkpt>
      <trkpt lat="30.9208984375000000" lon="-6.9220738410949707">
        <ele>1140.0</ele>
        <time>2018-10-12T09:20:29.000Z</time>
      </trkpt>
      <trkpt lat="30.9208717346191406" lon="-6.9219989776611328">
        <ele>1140.0</ele>
        <time>2018-10-12T09:20:30.000Z</time>
      </trkpt>
      <trkpt lat="30.9208469390869141" lon="-6.9219231605529785">
        <ele>1140.0</ele>
        <time>2018-10-12T09:20:31.000Z</time>
      </trkpt>
      <trkpt lat="30.9208183288574219" lon="-6.9218459129333496">
        <ele>1140.0</ele>
        <time>2018-10-12T09:20:32.000Z</time>
      </trkpt>
      <trkpt lat="30.9207935333251953" lon="-6.9217691421508789">
        <ele>1140.0</ele>
        <time>2018-10-12T09:20:33.000Z</time>
      </trkpt>
      <trkpt lat="30.9207668304443359" lon="-6.9216938018798828">
        <ele>1140.0</ele>
        <time>2018-10-12T09:20:34.000Z</time>
      </trkpt>
      <trkpt lat="30.9207401275634766" lon="-6.9216198921203613">
        <ele>1140.0</ele>
        <time>2018-10-12T09:20:35.000Z</time>
      </trkpt>
      <trkpt lat="30.9207134246826172" lon="-6.9215459823608398">
        <ele>1140.0</ele>
        <time>2018-10-12T09:20:36.000Z</time>
      </trkpt>
      <trkpt lat="30.9206886291503906" lon="-6.9214730262756348">
        <ele>1140.0</ele>
        <time>2018-10-12T09:20:37.000Z</time>
      </trkpt>
      <trkpt lat="30.9206619262695312" lon="-6.9214019775390625">
        <ele>1140.0</ele>
        <time>2018-10-12T09:20:38.000Z</time>
      </trkpt>
      <trkpt lat="30.9206371307373047" lon="-6.9213309288024902">
        <ele>1139.178955078125</ele>
        <time>2018-10-12T09:20:39.000Z</time>
      </trkpt>
      <trkpt lat="30.9206123352050781" lon="-6.9212598800659180">
        <ele>1139.0</ele>
        <time>2018-10-12T09:20:40.000Z</time>
      </trkpt>
      <trkpt lat="30.9205894470214844" lon="-6.9211897850036621">
        <ele>1139.0</ele>
        <time>2018-10-12T09:20:41.000Z</time>
      </trkpt>
      <trkpt lat="30.9205646514892578" lon="-6.9211192131042480">
        <ele>1139.0</ele>
        <time>2018-10-12T09:20:42.000Z</time>
      </trkpt>
      <trkpt lat="30.9205360412597656" lon="-6.9210491180419922">
        <ele>1139.0</ele>
        <time>2018-10-12T09:20:43.000Z</time>
      </trkpt>
      <trkpt lat="30.9205074310302734" lon="-6.9209790229797363">
        <ele>1139.0</ele>
        <time>2018-10-12T09:20:44.000Z</time>
      </trkpt>
      <trkpt lat="30.9204807281494141" lon="-6.9209070205688477">
        <ele>1139.821044921875</ele>
        <time>2018-10-12T09:20:45.000Z</time>
      </trkpt>
      <trkpt lat="30.9204559326171875" lon="-6.9208350181579590">
        <ele>1140.0</ele>
        <time>2018-10-12T09:20:46.000Z</time>
      </trkpt>
      <trkpt lat="30.9204311370849609" lon="-6.9207620620727539">
        <ele>1140.0</ele>
        <time>2018-10-12T09:20:47.000Z</time>
      </trkpt>
      <trkpt lat="30.9204082489013672" lon="-6.9206891059875488">
        <ele>1140.0</ele>
        <time>2018-10-12T09:20:48.000Z</time>
      </trkpt>
      <trkpt lat="30.9203853607177734" lon="-6.9206161499023438">
        <ele>1140.0</ele>
        <time>2018-10-12T09:20:49.000Z</time>
      </trkpt>
      <trkpt lat="30.9203624725341797" lon="-6.9205441474914551">
        <ele>1140.0</ele>
        <time>2018-10-12T09:20:50.000Z</time>
      </trkpt>
      <trkpt lat="30.9203395843505859" lon="-6.9204730987548828">
        <ele>1140.0</ele>
        <time>2018-10-12T09:20:51.000Z</time>
      </trkpt>
      <trkpt lat="30.9203147888183594" lon="-6.9204030036926270">
        <ele>1140.0</ele>
        <time>2018-10-12T09:20:52.000Z</time>
      </trkpt>
      <trkpt lat="30.9202880859375000" lon="-6.9203348159790039">
        <ele>1140.0</ele>
        <time>2018-10-12T09:20:53.000Z</time>
      </trkpt>
      <trkpt lat="30.9202632904052734" lon="-6.9202661514282227">
        <ele>1140.0</ele>
        <time>2018-10-12T09:20:54.000Z</time>
      </trkpt>
      <trkpt lat="30.9202404022216797" lon="-6.9201989173889160">
        <ele>1140.0</ele>
        <time>2018-10-12T09:20:55.000Z</time>
      </trkpt>
      <trkpt lat="30.9202156066894531" lon="-6.9201312065124512">
        <ele>1140.0</ele>
        <time>2018-10-12T09:20:56.000Z</time>
      </trkpt>
      <trkpt lat="30.9201946258544922" lon="-6.9200630187988281">
        <ele>1140.0</ele>
        <time>2018-10-12T09:20:57.000Z</time>
      </trkpt>
      <trkpt lat="30.9201736450195312" lon="-6.9199938774108887">
        <ele>1140.0</ele>
        <time>2018-10-12T09:20:58.000Z</time>
      </trkpt>
      <trkpt lat="30.9201564788818359" lon="-6.9199252128601074">
        <ele>1140.0</ele>
        <time>2018-10-12T09:20:59.000Z</time>
      </trkpt>
      <trkpt lat="30.9201393127441406" lon="-6.9198541641235352">
        <ele>1140.0</ele>
        <time>2018-10-12T09:21:00.000Z</time>
      </trkpt>
      <trkpt lat="30.9201221466064453" lon="-6.9197821617126465">
        <ele>1140.0</ele>
        <time>2018-10-12T09:21:01.000Z</time>
      </trkpt>
      <trkpt lat="30.9201087951660156" lon="-6.9197092056274414">
        <ele>1140.0</ele>
        <time>2018-10-12T09:21:02.000Z</time>
      </trkpt>
      <trkpt lat="30.9200954437255859" lon="-6.9196357727050781">
        <ele>1140.0</ele>
        <time>2018-10-12T09:21:03.000Z</time>
      </trkpt>
      <trkpt lat="30.9200859069824219" lon="-6.9195628166198730">
        <ele>1140.0</ele>
        <time>2018-10-12T09:21:04.000Z</time>
      </trkpt>
      <trkpt lat="30.9200782775878906" lon="-6.9194889068603516">
        <ele>1140.0</ele>
        <time>2018-10-12T09:21:05.000Z</time>
      </trkpt>
      <trkpt lat="30.9200725555419922" lon="-6.9194159507751465">
        <ele>1140.0</ele>
        <time>2018-10-12T09:21:06.000Z</time>
      </trkpt>
      <trkpt lat="30.9200706481933594" lon="-6.9193420410156250">
        <ele>1140.0</ele>
        <time>2018-10-12T09:21:07.000Z</time>
      </trkpt>
      <trkpt lat="30.9200687408447266" lon="-6.9192681312561035">
        <ele>1140.7366943359375</ele>
        <time>2018-10-12T09:21:08.000Z</time>
      </trkpt>
      <trkpt lat="30.9200668334960938" lon="-6.9191942214965820">
        <ele>1141.0</ele>
        <time>2018-10-12T09:21:09.000Z</time>
      </trkpt>
      <trkpt lat="30.9200687408447266" lon="-6.9191188812255859">
        <ele>1141.0</ele>
        <time>2018-10-12T09:21:10.000Z</time>
      </trkpt>
      <trkpt lat="30.9200706481933594" lon="-6.9190440177917480">
        <ele>1141.0</ele>
        <time>2018-10-12T09:21:11.000Z</time>
      </trkpt>
      <trkpt lat="30.9200706481933594" lon="-6.9189682006835938">
        <ele>1141.0</ele>
        <time>2018-10-12T09:21:12.000Z</time>
      </trkpt>
      <trkpt lat="30.9200763702392578" lon="-6.9188919067382812">
        <ele>1141.0</ele>
        <time>2018-10-12T09:21:13.000Z</time>
      </trkpt>
      <trkpt lat="30.9200801849365234" lon="-6.9188189506530762">
        <ele>1141.0</ele>
        <time>2018-10-12T09:21:14.000Z</time>
      </trkpt>
      <trkpt lat="30.9200878143310547" lon="-6.9187479019165039">
        <ele>1141.0</ele>
        <time>2018-10-12T09:21:15.000Z</time>
      </trkpt>
      <trkpt lat="30.9200916290283203" lon="-6.9186778068542480">
        <ele>1141.0</ele>
        <time>2018-10-12T09:21:16.000Z</time>
      </trkpt>
      <trkpt lat="30.9200935363769531" lon="-6.9186100959777832">
        <ele>1141.0</ele>
        <time>2018-10-12T09:21:17.000Z</time>
      </trkpt>
      <trkpt lat="30.9200954437255859" lon="-6.9185419082641602">
        <ele>1141.0</ele>
        <time>2018-10-12T09:21:18.000Z</time>
      </trkpt>
      <trkpt lat="30.9200973510742188" lon="-6.9184761047363281">
        <ele>1141.0</ele>
        <time>2018-10-12T09:21:19.000Z</time>
      </trkpt>
      <trkpt lat="30.9200992584228516" lon="-6.9184131622314453">
        <ele>1141.0</ele>
        <time>2018-10-12T09:21:20.000Z</time>
      </trkpt>
      <trkpt lat="30.9200992584228516" lon="-6.9183530807495117">
        <ele>1141.0</ele>
        <time>2018-10-12T09:21:21.000Z</time>
      </trkpt>
      <trkpt lat="30.9200973510742188" lon="-6.9182977676391602">
        <ele>1141.0</ele>
        <time>2018-10-12T09:21:22.000Z</time>
      </trkpt>
      <trkpt lat="30.9200973510742188" lon="-6.9182448387145996">
        <ele>1141.0</ele>
        <time>2018-10-12T09:21:23.000Z</time>
      </trkpt>
      <trkpt lat="30.9201011657714844" lon="-6.9181900024414062">
        <ele>1141.0</ele>
        <time>2018-10-12T09:21:24.000Z</time>
      </trkpt>
      <trkpt lat="30.9201049804687500" lon="-6.9181308746337891">
        <ele>1141.7406005859375</ele>
        <time>2018-10-12T09:21:25.000Z</time>
      </trkpt>
      <trkpt lat="30.9201030731201172" lon="-6.9180731773376465">
        <ele>1142.821044921875</ele>
        <time>2018-10-12T09:21:26.000Z</time>
      </trkpt>
      <trkpt lat="30.9201011657714844" lon="-6.9180130958557129">
        <ele>1143.0</ele>
        <time>2018-10-12T09:21:27.000Z</time>
      </trkpt>
      <trkpt lat="30.9201011657714844" lon="-6.9179511070251465">
        <ele>1143.0</ele>
        <time>2018-10-12T09:21:28.000Z</time>
      </trkpt>
      <trkpt lat="30.9201068878173828" lon="-6.9178872108459473">
        <ele>1143.0</ele>
        <time>2018-10-12T09:21:29.000Z</time>
      </trkpt>
      <trkpt lat="30.9201107025146484" lon="-6.9178218841552734">
        <ele>1143.0</ele>
        <time>2018-10-12T09:21:30.000Z</time>
      </trkpt>
      <trkpt lat="30.9201164245605469" lon="-6.9177570343017578">
        <ele>1143.0</ele>
        <time>2018-10-12T09:21:31.000Z</time>
      </trkpt>
      <trkpt lat="30.9201240539550781" lon="-6.9176940917968750">
        <ele>1143.0</ele>
        <time>2018-10-12T09:21:32.000Z</time>
      </trkpt>
      <trkpt lat="30.9201297760009766" lon="-6.9176349639892578">
        <ele>1143.821044921875</ele>
        <time>2018-10-12T09:21:33.000Z</time>
      </trkpt>
      <trkpt lat="30.9201354980468750" lon="-6.9175767898559570">
        <ele>1144.0</ele>
        <time>2018-10-12T09:21:34.000Z</time>
      </trkpt>
      <trkpt lat="30.9201431274414062" lon="-6.9175181388854980">
        <ele>1144.0</ele>
        <time>2018-10-12T09:21:35.000Z</time>
      </trkpt>
      <trkpt lat="30.9201507568359375" lon="-6.9174599647521973">
        <ele>1144.0</ele>
        <time>2018-10-12T09:21:36.000Z</time>
      </trkpt>
      <trkpt lat="30.9201545715332031" lon="-6.9174017906188965">
        <ele>1144.0</ele>
        <time>2018-10-12T09:21:37.000Z</time>
      </trkpt>
      <trkpt lat="30.9201564788818359" lon="-6.9173450469970703">
        <ele>1144.0</ele>
        <time>2018-10-12T09:21:38.000Z</time>
      </trkpt>
      <trkpt lat="30.9201564788818359" lon="-6.9172902107238770">
        <ele>1144.0</ele>
        <time>2018-10-12T09:21:39.000Z</time>
      </trkpt>
      <trkpt lat="30.9201602935791016" lon="-6.9172339439392090">
        <ele>1144.0</ele>
        <time>2018-10-12T09:21:40.000Z</time>
      </trkpt>
      <trkpt lat="30.9201679229736328" lon="-6.9171772003173828">
        <ele>1144.0</ele>
        <time>2018-10-12T09:21:41.000Z</time>
      </trkpt>
      <trkpt lat="30.9201736450195312" lon="-6.9171209335327148">
        <ele>1144.0</ele>
        <time>2018-10-12T09:21:42.000Z</time>
      </trkpt>
      <trkpt lat="30.9201774597167969" lon="-6.9170670509338379">
        <ele>1144.0</ele>
        <time>2018-10-12T09:21:43.000Z</time>
      </trkpt>
      <trkpt lat="30.9201812744140625" lon="-6.9170179367065430">
        <ele>1144.0</ele>
        <time>2018-10-12T09:21:44.000Z</time>
      </trkpt>
      <trkpt lat="30.9201831817626953" lon="-6.9169731140136719">
        <ele>1144.0</ele>
        <time>2018-10-12T09:21:45.000Z</time>
      </trkpt>
      <trkpt lat="30.9201850891113281" lon="-6.9169321060180664">
        <ele>1144.0</ele>
        <time>2018-10-12T09:21:46.000Z</time>
      </trkpt>
      <trkpt lat="30.9201889038085938" lon="-6.9168930053710938">
        <ele>1144.821044921875</ele>
        <time>2018-10-12T09:21:47.000Z</time>
      </trkpt>
      <trkpt lat="30.9201927185058594" lon="-6.9168567657470703">
        <ele>1145.0</ele>
        <time>2018-10-12T09:21:48.000Z</time>
      </trkpt>
      <trkpt lat="30.9201946258544922" lon="-6.9168229103088379">
        <ele>1145.0</ele>
        <time>2018-10-12T09:21:49.000Z</time>
      </trkpt>
      <trkpt lat="30.9201984405517578" lon="-6.9167900085449219">
        <ele>1145.7337646484375</ele>
        <time>2018-10-12T09:21:50.000Z</time>
      </trkpt>
      <trkpt lat="30.9202022552490234" lon="-6.9167590141296387">
        <ele>1146.0</ele>
        <time>2018-10-12T09:21:51.000Z</time>
      </trkpt>
      <trkpt lat="30.9202060699462891" lon="-6.9167270660400391">
        <ele>1146.0</ele>
        <time>2018-10-12T09:21:52.000Z</time>
      </trkpt>
      <trkpt lat="30.9202079772949219" lon="-6.9166951179504395">
        <ele>1146.0</ele>
        <time>2018-10-12T09:21:53.000Z</time>
      </trkpt>
      <trkpt lat="30.9202117919921875" lon="-6.9166631698608398">
        <ele>1146.0</ele>
        <time>2018-10-12T09:21:54.000Z</time>
      </trkpt>
      <trkpt lat="30.9202098846435547" lon="-6.9166331291198730">
        <ele>1146.0</ele>
        <time>2018-10-12T09:21:55.000Z</time>
      </trkpt>
      <trkpt lat="30.9202060699462891" lon="-6.9166069030761719">
        <ele>1146.0</ele>
        <time>2018-10-12T09:21:56.000Z</time>
      </trkpt>
      <trkpt lat="30.9202041625976562" lon="-6.9165830612182617">
        <ele>1146.0</ele>
        <time>2018-10-12T09:21:57.000Z</time>
      </trkpt>
      <trkpt lat="30.9201984405517578" lon="-6.9165477752685547">
        <ele>1146.0</ele>
        <time>2018-10-12T09:21:59.000Z</time>
      </trkpt>
      <trkpt lat="30.9201984405517578" lon="-6.9165210723876953">
        <ele>1146.0</ele>
        <time>2018-10-12T09:22:02.000Z</time>
      </trkpt>
      <trkpt lat="30.9202041625976562" lon="-6.9164571762084961">
        <ele>1146.0</ele>
        <time>2018-10-12T09:22:09.000Z</time>
      </trkpt>
      <trkpt lat="30.9202041625976562" lon="-6.9164319038391113">
        <ele>1146.821044921875</ele>
        <time>2018-10-12T09:22:10.000Z</time>
      </trkpt>
      <trkpt lat="30.9202041625976562" lon="-6.9164052009582520">
        <ele>1147.0</ele>
        <time>2018-10-12T09:22:11.000Z</time>
      </trkpt>
      <trkpt lat="30.9202079772949219" lon="-6.9163742065429688">
        <ele>1147.0</ele>
        <time>2018-10-12T09:22:12.000Z</time>
      </trkpt>
      <trkpt lat="30.9202098846435547" lon="-6.9163408279418945">
        <ele>1147.0</ele>
        <time>2018-10-12T09:22:13.000Z</time>
      </trkpt>
      <trkpt lat="30.9202136993408203" lon="-6.9163098335266113">
        <ele>1147.0</ele>
        <time>2018-10-12T09:22:14.000Z</time>
      </trkpt>
      <trkpt lat="30.9202194213867188" lon="-6.9162778854370117">
        <ele>1147.636474609375</ele>
        <time>2018-10-12T09:22:15.000Z</time>
      </trkpt>
      <trkpt lat="30.9202251434326172" lon="-6.9162440299987793">
        <ele>1148.0</ele>
        <time>2018-10-12T09:22:16.000Z</time>
      </trkpt>
      <trkpt lat="30.9202308654785156" lon="-6.9162068367004395">
        <ele>1148.0</ele>
        <time>2018-10-12T09:22:17.000Z</time>
      </trkpt>
      <trkpt lat="30.9202365875244141" lon="-6.9161667823791504">
        <ele>1148.0</ele>
        <time>2018-10-12T09:22:18.000Z</time>
      </trkpt>
      <trkpt lat="30.9202404022216797" lon="-6.9161238670349121">
        <ele>1148.0</ele>
        <time>2018-10-12T09:22:19.000Z</time>
      </trkpt>
      <trkpt lat="30.9202442169189453" lon="-6.9160771369934082">
        <ele>1148.0</ele>
        <time>2018-10-12T09:22:20.000Z</time>
      </trkpt>
      <trkpt lat="30.9202499389648438" lon="-6.9160308837890625">
        <ele>1148.0</ele>
        <time>2018-10-12T09:22:21.000Z</time>
      </trkpt>
      <trkpt lat="30.9202556610107422" lon="-6.9159908294677734">
        <ele>1148.0</ele>
        <time>2018-10-12T09:22:22.000Z</time>
      </trkpt>
      <trkpt lat="30.9202594757080078" lon="-6.9159550666809082">
        <ele>1148.0</ele>
        <time>2018-10-12T09:22:23.000Z</time>
      </trkpt>
      <trkpt lat="30.9202613830566406" lon="-6.9159231185913086">
        <ele>1148.0</ele>
        <time>2018-10-12T09:22:24.000Z</time>
      </trkpt>
      <trkpt lat="30.9202632904052734" lon="-6.9158968925476074">
        <ele>1148.0</ele>
        <time>2018-10-12T09:22:25.000Z</time>
      </trkpt>
      <trkpt lat="30.9202651977539062" lon="-6.9158759117126465">
        <ele>1148.0</ele>
        <time>2018-10-12T09:22:26.000Z</time>
      </trkpt>
      <trkpt lat="30.9202728271484375" lon="-6.9158430099487305">
        <ele>1148.0</ele>
        <time>2018-10-12T09:22:28.000Z</time>
      </trkpt>
      <trkpt lat="30.9202804565429688" lon="-6.9158010482788086">
        <ele>1148.0</ele>
        <time>2018-10-12T09:22:30.000Z</time>
      </trkpt>
      <trkpt lat="30.9202861785888672" lon="-6.9157671928405762">
        <ele>1148.0</ele>
        <time>2018-10-12T09:22:31.000Z</time>
      </trkpt>
      <trkpt lat="30.9202919006347656" lon="-6.9157280921936035">
        <ele>1148.0</ele>
        <time>2018-10-12T09:22:32.000Z</time>
      </trkpt>
      <trkpt lat="30.9202919006347656" lon="-6.9156870841979980">
        <ele>1148.0</ele>
        <time>2018-10-12T09:22:33.000Z</time>
      </trkpt>
      <trkpt lat="30.9202880859375000" lon="-6.9156460762023926">
        <ele>1148.0</ele>
        <time>2018-10-12T09:22:34.000Z</time>
      </trkpt>
      <trkpt lat="30.9202842712402344" lon="-6.9156050682067871">
        <ele>1148.0</ele>
        <time>2018-10-12T09:22:35.000Z</time>
      </trkpt>
      <trkpt lat="30.9202823638916016" lon="-6.9155678749084473">
        <ele>1148.0</ele>
        <time>2018-10-12T09:22:36.000Z</time>
      </trkpt>
      <trkpt lat="30.9202823638916016" lon="-6.9155359268188477">
        <ele>1148.821044921875</ele>
        <time>2018-10-12T09:22:37.000Z</time>
      </trkpt>
      <trkpt lat="30.9202823638916016" lon="-6.9155092239379883">
        <ele>1149.0</ele>
        <time>2018-10-12T09:22:38.000Z</time>
      </trkpt>
      <trkpt lat="30.9202804565429688" lon="-6.9154868125915527">
        <ele>1149.0</ele>
        <time>2018-10-12T09:22:39.000Z</time>
      </trkpt>
      <trkpt lat="30.9202804565429688" lon="-6.9154520034790039">
        <ele>1149.0</ele>
        <time>2018-10-12T09:22:41.000Z</time>
      </trkpt>
      <trkpt lat="30.9202766418457031" lon="-6.9154300689697266">
        <ele>1149.0</ele>
        <time>2018-10-12T09:22:42.000Z</time>
      </trkpt>
      <trkpt lat="30.9202728271484375" lon="-6.9154062271118164">
        <ele>1149.0</ele>
        <time>2018-10-12T09:22:43.000Z</time>
      </trkpt>
      <trkpt lat="30.9202613830566406" lon="-6.9153838157653809">
        <ele>1149.0</ele>
        <time>2018-10-12T09:22:44.000Z</time>
      </trkpt>
      <trkpt lat="30.9202480316162109" lon="-6.9153661727905273">
        <ele>1149.0</ele>
        <time>2018-10-12T09:22:45.000Z</time>
      </trkpt>
      <trkpt lat="30.9202308654785156" lon="-6.9153428077697754">
        <ele>1149.0</ele>
        <time>2018-10-12T09:22:47.000Z</time>
      </trkpt>
      <trkpt lat="30.9202270507812500" lon="-6.9153208732604980">
        <ele>1150.0</ele>
        <time>2018-10-12T09:22:49.000Z</time>
      </trkpt>
      <trkpt lat="30.9202423095703125" lon="-6.9152779579162598">
        <ele>1150.2520751953125</ele>
        <time>2018-10-12T09:24:10.000Z</time>
      </trkpt>
      <trkpt lat="30.9202480316162109" lon="-6.9152488708496094">
        <ele>1150.0</ele>
        <time>2018-10-12T09:24:12.000Z</time>
      </trkpt>
      <trkpt lat="30.9202518463134766" lon="-6.9152121543884277">
        <ele>1150.0</ele>
        <time>2018-10-12T09:24:14.000Z</time>
      </trkpt>
      <trkpt lat="30.9202594757080078" lon="-6.9151759147644043">
        <ele>1150.821044921875</ele>
        <time>2018-10-12T09:24:16.000Z</time>
      </trkpt>
      <trkpt lat="30.9202728271484375" lon="-6.9151558876037598">
        <ele>1151.0</ele>
        <time>2018-10-12T09:24:17.000Z</time>
      </trkpt>
      <trkpt lat="30.9202823638916016" lon="-6.9151358604431152">
        <ele>1151.0</ele>
        <time>2018-10-12T09:24:18.000Z</time>
      </trkpt>
      <trkpt lat="30.9202957153320312" lon="-6.9151191711425781">
        <ele>1151.0</ele>
        <time>2018-10-12T09:24:19.000Z</time>
      </trkpt>
      <trkpt lat="30.9203071594238281" lon="-6.9151029586791992">
        <ele>1151.0</ele>
        <time>2018-10-12T09:24:20.000Z</time>
      </trkpt>
      <trkpt lat="30.9203166961669922" lon="-6.9150829315185547">
        <ele>1151.0</ele>
        <time>2018-10-12T09:24:21.000Z</time>
      </trkpt>
      <trkpt lat="30.9203262329101562" lon="-6.9150547981262207">
        <ele>1151.0</ele>
        <time>2018-10-12T09:24:22.000Z</time>
      </trkpt>
      <trkpt lat="30.9203300476074219" lon="-6.9150218963623047">
        <ele>1151.0</ele>
        <time>2018-10-12T09:24:23.000Z</time>
      </trkpt>
      <trkpt lat="30.9203338623046875" lon="-6.9149899482727051">
        <ele>1151.0</ele>
        <time>2018-10-12T09:24:24.000Z</time>
      </trkpt>
      <trkpt lat="30.9203376770019531" lon="-6.9149589538574219">
        <ele>1151.0</ele>
        <time>2018-10-12T09:24:25.000Z</time>
      </trkpt>
      <trkpt lat="30.9203395843505859" lon="-6.9149289131164551">
        <ele>1151.0</ele>
        <time>2018-10-12T09:24:26.000Z</time>
      </trkpt>
      <trkpt lat="30.9203433990478516" lon="-6.9149022102355957">
        <ele>1151.0</ele>
        <time>2018-10-12T09:24:27.000Z</time>
      </trkpt>
      <trkpt lat="30.9203472137451172" lon="-6.9148740768432617">
        <ele>1151.0</ele>
        <time>2018-10-12T09:24:28.000Z</time>
      </trkpt>
      <trkpt lat="30.9203510284423828" lon="-6.9148440361022949">
        <ele>1151.0</ele>
        <time>2018-10-12T09:24:29.000Z</time>
      </trkpt>
      <trkpt lat="30.9203510284423828" lon="-6.9148111343383789">
        <ele>1151.0</ele>
        <time>2018-10-12T09:24:30.000Z</time>
      </trkpt>
      <trkpt lat="30.9203491210937500" lon="-6.9147791862487793">
        <ele>1151.0</ele>
        <time>2018-10-12T09:24:31.000Z</time>
      </trkpt>
      <trkpt lat="30.9203510284423828" lon="-6.9147491455078125">
        <ele>1151.8128662109375</ele>
        <time>2018-10-12T09:24:32.000Z</time>
      </trkpt>
      <trkpt lat="30.9203548431396484" lon="-6.9147181510925293">
        <ele>1152.0</ele>
        <time>2018-10-12T09:24:33.000Z</time>
      </trkpt>
      <trkpt lat="30.9203567504882812" lon="-6.9146871566772461">
        <ele>1151.2520751953125</ele>
        <time>2018-10-12T09:24:34.000Z</time>
      </trkpt>
      <trkpt lat="30.9203586578369141" lon="-6.9146528244018555">
        <ele>1151.0</ele>
        <time>2018-10-12T09:24:35.000Z</time>
      </trkpt>
      <trkpt lat="30.9203548431396484" lon="-6.9146199226379395">
        <ele>1150.178955078125</ele>
        <time>2018-10-12T09:24:36.000Z</time>
      </trkpt>
      <trkpt lat="30.9203548431396484" lon="-6.9145841598510742">
        <ele>1150.0</ele>
        <time>2018-10-12T09:24:37.000Z</time>
      </trkpt>
      <trkpt lat="30.9203548431396484" lon="-6.9145441055297852">
        <ele>1150.0</ele>
        <time>2018-10-12T09:24:38.000Z</time>
      </trkpt>
      <trkpt lat="30.9203548431396484" lon="-6.9145030975341797">
        <ele>1150.0</ele>
        <time>2018-10-12T09:24:39.000Z</time>
      </trkpt>
      <trkpt lat="30.9203567504882812" lon="-6.9144601821899414">
        <ele>1150.0</ele>
        <time>2018-10-12T09:24:40.000Z</time>
      </trkpt>
      <trkpt lat="30.9203605651855469" lon="-6.9144139289855957">
        <ele>1150.0</ele>
        <time>2018-10-12T09:24:41.000Z</time>
      </trkpt>
      <trkpt lat="30.9203643798828125" lon="-6.9143671989440918">
        <ele>1150.0</ele>
        <time>2018-10-12T09:24:42.000Z</time>
      </trkpt>
      <trkpt lat="30.9203662872314453" lon="-6.9143171310424805">
        <ele>1150.0</ele>
        <time>2018-10-12T09:24:43.000Z</time>
      </trkpt>
      <trkpt lat="30.9203720092773438" lon="-6.9142642021179199">
        <ele>1150.0</ele>
        <time>2018-10-12T09:24:44.000Z</time>
      </trkpt>
      <trkpt lat="30.9203758239746094" lon="-6.9142079353332520">
        <ele>1150.0</ele>
        <time>2018-10-12T09:24:45.000Z</time>
      </trkpt>
      <trkpt lat="30.9203796386718750" lon="-6.9141511917114258">
        <ele>1150.0</ele>
        <time>2018-10-12T09:24:46.000Z</time>
      </trkpt>
      <trkpt lat="30.9203834533691406" lon="-6.9140920639038086">
        <ele>1149.4786376953125</ele>
        <time>2018-10-12T09:24:47.000Z</time>
      </trkpt>
      <trkpt lat="30.9203891754150391" lon="-6.9140310287475586">
        <ele>1149.0</ele>
        <time>2018-10-12T09:24:48.000Z</time>
      </trkpt>
      <trkpt lat="30.9203968048095703" lon="-6.9139680862426758">
        <ele>1149.0</ele>
        <time>2018-10-12T09:24:49.000Z</time>
      </trkpt>
      <trkpt lat="30.9204025268554688" lon="-6.9139041900634766">
        <ele>1148.178955078125</ele>
        <time>2018-10-12T09:24:50.000Z</time>
      </trkpt>
      <trkpt lat="30.9204063415527344" lon="-6.9138369560241699">
        <ele>1148.0</ele>
        <time>2018-10-12T09:24:51.000Z</time>
      </trkpt>
      <trkpt lat="30.9204120635986328" lon="-6.9137721061706543">
        <ele>1148.0</ele>
        <time>2018-10-12T09:24:52.000Z</time>
      </trkpt>
      <trkpt lat="30.9204177856445312" lon="-6.9137229919433594">
        <ele>1148.0</ele>
        <time>2018-10-12T09:24:53.000Z</time>
      </trkpt>
      <trkpt lat="30.9204196929931641" lon="-6.9136881828308105">
        <ele>1148.0</ele>
        <time>2018-10-12T09:24:54.000Z</time>
      </trkpt>
      <trkpt lat="30.9204273223876953" lon="-6.9136548042297363">
        <ele>1148.0</ele>
        <time>2018-10-12T09:24:55.000Z</time>
      </trkpt>
      <trkpt lat="30.9204368591308594" lon="-6.9136180877685547">
        <ele>1148.0</ele>
        <time>2018-10-12T09:24:56.000Z</time>
      </trkpt>
      <trkpt lat="30.9204406738281250" lon="-6.9135742187500000">
        <ele>1148.0</ele>
        <time>2018-10-12T09:24:57.000Z</time>
      </trkpt>
      <trkpt lat="30.9204387664794922" lon="-6.9135231971740723">
        <ele>1148.0</ele>
        <time>2018-10-12T09:24:58.000Z</time>
      </trkpt>
      <trkpt lat="30.9204368591308594" lon="-6.9134669303894043">
        <ele>1148.0</ele>
        <time>2018-10-12T09:24:59.000Z</time>
      </trkpt>
      <trkpt lat="30.9204368591308594" lon="-6.9134068489074707">
        <ele>1147.18896484375</ele>
        <time>2018-10-12T09:25:00.000Z</time>
      </trkpt>
      <trkpt lat="30.9204406738281250" lon="-6.9133419990539551">
        <ele>1147.0</ele>
        <time>2018-10-12T09:25:01.000Z</time>
      </trkpt>
      <trkpt lat="30.9204444885253906" lon="-6.9132709503173828">
        <ele>1147.0</ele>
        <time>2018-10-12T09:25:02.000Z</time>
      </trkpt>
      <trkpt lat="30.9204483032226562" lon="-6.9131960868835449">
        <ele>1146.178955078125</ele>
        <time>2018-10-12T09:25:03.000Z</time>
      </trkpt>
      <trkpt lat="30.9204521179199219" lon="-6.9131169319152832">
        <ele>1146.0</ele>
        <time>2018-10-12T09:25:04.000Z</time>
      </trkpt>
      <trkpt lat="30.9204578399658203" lon="-6.9130339622497559">
        <ele>1145.373291015625</ele>
        <time>2018-10-12T09:25:05.000Z</time>
      </trkpt>
      <trkpt lat="30.9204635620117188" lon="-6.9129490852355957">
        <ele>1144.47314453125</ele>
        <time>2018-10-12T09:25:06.000Z</time>
      </trkpt>
      <trkpt lat="30.9204692840576172" lon="-6.9128618240356445">
        <ele>1144.0</ele>
        <time>2018-10-12T09:25:07.000Z</time>
      </trkpt>
      <trkpt lat="30.9204750061035156" lon="-6.9127721786499023">
        <ele>1144.0</ele>
        <time>2018-10-12T09:25:08.000Z</time>
      </trkpt>
      <trkpt lat="30.9204807281494141" lon="-6.9126811027526855">
        <ele>1144.0</ele>
        <time>2018-10-12T09:25:09.000Z</time>
      </trkpt>
      <trkpt lat="30.9204864501953125" lon="-6.9125871658325195">
        <ele>1144.0</ele>
        <time>2018-10-12T09:25:10.000Z</time>
      </trkpt>
      <trkpt lat="30.9204883575439453" lon="-6.9124917984008789">
        <ele>1144.0</ele>
        <time>2018-10-12T09:25:11.000Z</time>
      </trkpt>
      <trkpt lat="30.9204902648925781" lon="-6.9123940467834473">
        <ele>1143.2593994140625</ele>
        <time>2018-10-12T09:25:12.000Z</time>
      </trkpt>
      <trkpt lat="30.9204864501953125" lon="-6.9122958183288574">
        <ele>1143.0</ele>
        <time>2018-10-12T09:25:13.000Z</time>
      </trkpt>
      <trkpt lat="30.9204807281494141" lon="-6.9121971130371094">
        <ele>1143.0</ele>
        <time>2018-10-12T09:25:14.000Z</time>
      </trkpt>
      <trkpt lat="30.9204692840576172" lon="-6.9120979309082031">
        <ele>1143.0</ele>
        <time>2018-10-12T09:25:15.000Z</time>
      </trkpt>
      <trkpt lat="30.9204540252685547" lon="-6.9120030403137207">
        <ele>1142.178955078125</ele>
        <time>2018-10-12T09:25:16.000Z</time>
      </trkpt>
      <trkpt lat="30.9204349517822266" lon="-6.9119119644165039">
        <ele>1141.3873291015625</ele>
        <time>2018-10-12T09:25:17.000Z</time>
      </trkpt>
      <trkpt lat="30.9204101562500000" lon="-6.9118242263793945">
        <ele>1140.271240234375</ele>
        <time>2018-10-12T09:25:18.000Z</time>
      </trkpt>
      <trkpt lat="30.9203834533691406" lon="-6.9117379188537598">
        <ele>1140.0</ele>
        <time>2018-10-12T09:25:19.000Z</time>
      </trkpt>
      <trkpt lat="30.9203529357910156" lon="-6.9116549491882324">
        <ele>1140.0</ele>
        <time>2018-10-12T09:25:20.000Z</time>
      </trkpt>
      <trkpt lat="30.9203224182128906" lon="-6.9115729331970215">
        <ele>1140.0</ele>
        <time>2018-10-12T09:25:21.000Z</time>
      </trkpt>
      <trkpt lat="30.9202919006347656" lon="-6.9114928245544434">
        <ele>1140.0</ele>
        <time>2018-10-12T09:25:22.000Z</time>
      </trkpt>
      <trkpt lat="30.9202632904052734" lon="-6.9114151000976562">
        <ele>1140.0</ele>
        <time>2018-10-12T09:25:23.000Z</time>
      </trkpt>
      <trkpt lat="30.9202384948730469" lon="-6.9113421440124512">
        <ele>1140.0</ele>
        <time>2018-10-12T09:25:24.000Z</time>
      </trkpt>
      <trkpt lat="30.9202156066894531" lon="-6.9112739562988281">
        <ele>1140.0</ele>
        <time>2018-10-12T09:25:25.000Z</time>
      </trkpt>
      <trkpt lat="30.9201946258544922" lon="-6.9112100601196289">
        <ele>1139.2662353515625</ele>
        <time>2018-10-12T09:25:26.000Z</time>
      </trkpt>
      <trkpt lat="30.9201736450195312" lon="-6.9111471176147461">
        <ele>1138.1807861328125</ele>
        <time>2018-10-12T09:25:27.000Z</time>
      </trkpt>
      <trkpt lat="30.9201545715332031" lon="-6.9110841751098633">
        <ele>1138.0</ele>
        <time>2018-10-12T09:25:28.000Z</time>
      </trkpt>
      <trkpt lat="30.9201354980468750" lon="-6.9110212326049805">
        <ele>1138.0</ele>
        <time>2018-10-12T09:25:29.000Z</time>
      </trkpt>
      <trkpt lat="30.9201183319091797" lon="-6.9109587669372559">
        <ele>1138.0</ele>
        <time>2018-10-12T09:25:30.000Z</time>
      </trkpt>
      <trkpt lat="30.9200973510742188" lon="-6.9108982086181641">
        <ele>1138.0</ele>
        <time>2018-10-12T09:25:31.000Z</time>
      </trkpt>
      <trkpt lat="30.9200763702392578" lon="-6.9108371734619141">
        <ele>1138.0</ele>
        <time>2018-10-12T09:25:32.000Z</time>
      </trkpt>
      <trkpt lat="30.9200534820556641" lon="-6.9107780456542969">
        <ele>1138.0</ele>
        <time>2018-10-12T09:25:33.000Z</time>
      </trkpt>
      <trkpt lat="30.9200344085693359" lon="-6.9107170104980469">
        <ele>1138.0</ele>
        <time>2018-10-12T09:25:34.000Z</time>
      </trkpt>
      <trkpt lat="30.9200134277343750" lon="-6.9106550216674805">
        <ele>1138.0</ele>
        <time>2018-10-12T09:25:35.000Z</time>
      </trkpt>
      <trkpt lat="30.9199924468994141" lon="-6.9105920791625977">
        <ele>1138.0</ele>
        <time>2018-10-12T09:25:36.000Z</time>
      </trkpt>
      <trkpt lat="30.9199752807617188" lon="-6.9105272293090820">
        <ele>1138.0</ele>
        <time>2018-10-12T09:25:37.000Z</time>
      </trkpt>
      <trkpt lat="30.9199562072753906" lon="-6.9104599952697754">
        <ele>1138.0</ele>
        <time>2018-10-12T09:25:38.000Z</time>
      </trkpt>
      <trkpt lat="30.9199371337890625" lon="-6.9103918075561523">
        <ele>1138.0</ele>
        <time>2018-10-12T09:25:39.000Z</time>
      </trkpt>
      <trkpt lat="30.9199161529541016" lon="-6.9103221893310547">
        <ele>1138.0</ele>
        <time>2018-10-12T09:25:40.000Z</time>
      </trkpt>
      <trkpt lat="30.9198989868164062" lon="-6.9102501869201660">
        <ele>1138.0</ele>
        <time>2018-10-12T09:25:41.000Z</time>
      </trkpt>
      <trkpt lat="30.9198799133300781" lon="-6.9101781845092773">
        <ele>1137.2593994140625</ele>
        <time>2018-10-12T09:25:42.000Z</time>
      </trkpt>
      <trkpt lat="30.9198589324951172" lon="-6.9101080894470215">
        <ele>1137.0</ele>
        <time>2018-10-12T09:25:43.000Z</time>
      </trkpt>
      <trkpt lat="30.9198341369628906" lon="-6.9100370407104492">
        <ele>1137.0</ele>
        <time>2018-10-12T09:25:44.000Z</time>
      </trkpt>
      <trkpt lat="30.9198093414306641" lon="-6.9099659919738770">
        <ele>1137.0</ele>
        <time>2018-10-12T09:25:45.000Z</time>
      </trkpt>
      <trkpt lat="30.9197883605957031" lon="-6.9098939895629883">
        <ele>1137.0</ele>
        <time>2018-10-12T09:25:46.000Z</time>
      </trkpt>
      <trkpt lat="30.9197654724121094" lon="-6.9098219871520996">
        <ele>1137.0</ele>
        <time>2018-10-12T09:25:47.000Z</time>
      </trkpt>
      <trkpt lat="30.9197444915771484" lon="-6.9097509384155273">
        <ele>1137.0</ele>
        <time>2018-10-12T09:25:48.000Z</time>
      </trkpt>
      <trkpt lat="30.9197216033935547" lon="-6.9096798896789551">
        <ele>1137.0</ele>
        <time>2018-10-12T09:25:49.000Z</time>
      </trkpt>
      <trkpt lat="30.9196987152099609" lon="-6.9096112251281738">
        <ele>1137.0</ele>
        <time>2018-10-12T09:25:50.000Z</time>
      </trkpt>
      <trkpt lat="30.9196739196777344" lon="-6.9095420837402344">
        <ele>1137.0</ele>
        <time>2018-10-12T09:25:51.000Z</time>
      </trkpt>
      <trkpt lat="30.9196510314941406" lon="-6.9094738960266113">
        <ele>1137.0</ele>
        <time>2018-10-12T09:25:52.000Z</time>
      </trkpt>
      <trkpt lat="30.9196300506591797" lon="-6.9094071388244629">
        <ele>1137.0</ele>
        <time>2018-10-12T09:25:53.000Z</time>
      </trkpt>
      <trkpt lat="30.9196071624755859" lon="-6.9093399047851562">
        <ele>1137.0</ele>
        <time>2018-10-12T09:25:54.000Z</time>
      </trkpt>
      <trkpt lat="30.9195861816406250" lon="-6.9092741012573242">
        <ele>1137.0</ele>
        <time>2018-10-12T09:25:55.000Z</time>
      </trkpt>
      <trkpt lat="30.9195652008056641" lon="-6.9092087745666504">
        <ele>1136.19482421875</ele>
        <time>2018-10-12T09:25:56.000Z</time>
      </trkpt>
      <trkpt lat="30.9195423126220703" lon="-6.9091448783874512">
        <ele>1136.0</ele>
        <time>2018-10-12T09:25:57.000Z</time>
      </trkpt>
      <trkpt lat="30.9195175170898438" lon="-6.9090847969055176">
        <ele>1136.0</ele>
        <time>2018-10-12T09:25:58.000Z</time>
      </trkpt>
      <trkpt lat="30.9194927215576172" lon="-6.9090251922607422">
        <ele>1136.0</ele>
        <time>2018-10-12T09:25:59.000Z</time>
      </trkpt>
      <trkpt lat="30.9194679260253906" lon="-6.9089641571044922">
        <ele>1136.0</ele>
        <time>2018-10-12T09:26:00.000Z</time>
      </trkpt>
      <trkpt lat="30.9194469451904297" lon="-6.9089040756225586">
        <ele>1136.0</ele>
        <time>2018-10-12T09:26:01.000Z</time>
      </trkpt>
      <trkpt lat="30.9194278717041016" lon="-6.9088439941406250">
        <ele>1136.0</ele>
        <time>2018-10-12T09:26:02.000Z</time>
      </trkpt>
      <trkpt lat="30.9194068908691406" lon="-6.9087839126586914">
        <ele>1136.0</ele>
        <time>2018-10-12T09:26:03.000Z</time>
      </trkpt>
      <trkpt lat="30.9193878173828125" lon="-6.9087219238281250">
        <ele>1136.0</ele>
        <time>2018-10-12T09:26:04.000Z</time>
      </trkpt>
      <trkpt lat="30.9193706512451172" lon="-6.9086589813232422">
        <ele>1136.0</ele>
        <time>2018-10-12T09:26:05.000Z</time>
      </trkpt>
      <trkpt lat="30.9193534851074219" lon="-6.9085941314697266">
        <ele>1135.373291015625</ele>
        <time>2018-10-12T09:26:06.000Z</time>
      </trkpt>
      <trkpt lat="30.9193363189697266" lon="-6.9085288047790527">
        <ele>1135.0</ele>
        <time>2018-10-12T09:26:07.000Z</time>
      </trkpt>
      <trkpt lat="30.9193172454833984" lon="-6.9084630012512207">
        <ele>1135.0</ele>
        <time>2018-10-12T09:26:08.000Z</time>
      </trkpt>
      <trkpt lat="30.9192943572998047" lon="-6.9083991050720215">
        <ele>1135.0</ele>
        <time>2018-10-12T09:26:09.000Z</time>
      </trkpt>
      <trkpt lat="30.9192733764648438" lon="-6.9083352088928223">
        <ele>1135.0</ele>
        <time>2018-10-12T09:26:10.000Z</time>
      </trkpt>
      <trkpt lat="30.9192523956298828" lon="-6.9082698822021484">
        <ele>1135.0</ele>
        <time>2018-10-12T09:26:11.000Z</time>
      </trkpt>
      <trkpt lat="30.9192295074462891" lon="-6.9082050323486328">
        <ele>1135.0</ele>
        <time>2018-10-12T09:26:12.000Z</time>
      </trkpt>
      <trkpt lat="30.9192085266113281" lon="-6.9081401824951172">
        <ele>1135.0</ele>
        <time>2018-10-12T09:26:13.000Z</time>
      </trkpt>
      <trkpt lat="30.9191894531250000" lon="-6.9080729484558105">
        <ele>1135.0</ele>
        <time>2018-10-12T09:26:14.000Z</time>
      </trkpt>
      <trkpt lat="30.9191722869873047" lon="-6.9080052375793457">
        <ele>1135.0</ele>
        <time>2018-10-12T09:26:15.000Z</time>
      </trkpt>
      <trkpt lat="30.9191532135009766" lon="-6.9079360961914062">
        <ele>1135.0</ele>
        <time>2018-10-12T09:26:16.000Z</time>
      </trkpt>
      <trkpt lat="30.9191341400146484" lon="-6.9078669548034668">
        <ele>1135.0</ele>
        <time>2018-10-12T09:26:17.000Z</time>
      </trkpt>
      <trkpt lat="30.9191112518310547" lon="-6.9077968597412109">
        <ele>1135.0</ele>
        <time>2018-10-12T09:26:18.000Z</time>
      </trkpt>
      <trkpt lat="30.9190883636474609" lon="-6.9077267646789551">
        <ele>1135.0</ele>
        <time>2018-10-12T09:26:19.000Z</time>
      </trkpt>
      <trkpt lat="30.9190654754638672" lon="-6.9076538085937500">
        <ele>1135.0</ele>
        <time>2018-10-12T09:26:20.000Z</time>
      </trkpt>
      <trkpt lat="30.9190444946289062" lon="-6.9075798988342285">
        <ele>1134.178955078125</ele>
        <time>2018-10-12T09:26:21.000Z</time>
      </trkpt>
      <trkpt lat="30.9190254211425781" lon="-6.9075031280517578">
        <ele>1133.4993896484375</ele>
        <time>2018-10-12T09:26:22.000Z</time>
      </trkpt>
      <trkpt lat="30.9190120697021484" lon="-6.9074230194091797">
        <ele>1133.0</ele>
        <time>2018-10-12T09:26:23.000Z</time>
      </trkpt>
      <trkpt lat="30.9190044403076172" lon="-6.9073390960693359">
        <ele>1133.0</ele>
        <time>2018-10-12T09:26:24.000Z</time>
      </trkpt>
      <trkpt lat="30.9189968109130859" lon="-6.9072542190551758">
        <ele>1132.178955078125</ele>
        <time>2018-10-12T09:26:25.000Z</time>
      </trkpt>
      <trkpt lat="30.9189929962158203" lon="-6.9071669578552246">
        <ele>1132.0</ele>
        <time>2018-10-12T09:26:26.000Z</time>
      </trkpt>
      <trkpt lat="30.9189891815185547" lon="-6.9070777893066406">
        <ele>1132.0</ele>
        <time>2018-10-12T09:26:27.000Z</time>
      </trkpt>
      <trkpt lat="30.9189891815185547" lon="-6.9069900512695312">
        <ele>1132.0</ele>
        <time>2018-10-12T09:26:28.000Z</time>
      </trkpt>
      <trkpt lat="30.9189929962158203" lon="-6.9069018363952637">
        <ele>1132.0</ele>
        <time>2018-10-12T09:26:29.000Z</time>
      </trkpt>
      <trkpt lat="30.9189968109130859" lon="-6.9068140983581543">
        <ele>1132.0</ele>
        <time>2018-10-12T09:26:30.000Z</time>
      </trkpt>
      <trkpt lat="30.9189987182617188" lon="-6.9067258834838867">
        <ele>1132.0</ele>
        <time>2018-10-12T09:26:31.000Z</time>
      </trkpt>
      <trkpt lat="30.9190006256103516" lon="-6.9066371917724609">
        <ele>1132.0</ele>
        <time>2018-10-12T09:26:32.000Z</time>
      </trkpt>
      <trkpt lat="30.9190025329589844" lon="-6.9065470695495605">
        <ele>1132.0</ele>
        <time>2018-10-12T09:26:33.000Z</time>
      </trkpt>
      <trkpt lat="30.9190006256103516" lon="-6.9064569473266602">
        <ele>1132.0</ele>
        <time>2018-10-12T09:26:34.000Z</time>
      </trkpt>
      <trkpt lat="30.9189987182617188" lon="-6.9063701629638672">
        <ele>1132.0</ele>
        <time>2018-10-12T09:26:35.000Z</time>
      </trkpt>
      <trkpt lat="30.9189949035644531" lon="-6.9062829017639160">
        <ele>1132.0</ele>
        <time>2018-10-12T09:26:36.000Z</time>
      </trkpt>
      <trkpt lat="30.9189949035644531" lon="-6.9061961174011230">
        <ele>1132.0</ele>
        <time>2018-10-12T09:26:37.000Z</time>
      </trkpt>
      <trkpt lat="30.9189968109130859" lon="-6.9061088562011719">
        <ele>1132.0</ele>
        <time>2018-10-12T09:26:38.000Z</time>
      </trkpt>
      <trkpt lat="30.9190006256103516" lon="-6.9060239791870117">
        <ele>1132.0</ele>
        <time>2018-10-12T09:26:39.000Z</time>
      </trkpt>
      <trkpt lat="30.9190025329589844" lon="-6.9059400558471680">
        <ele>1132.0</ele>
        <time>2018-10-12T09:26:40.000Z</time>
      </trkpt>
      <trkpt lat="30.9190044403076172" lon="-6.9058570861816406">
        <ele>1132.0</ele>
        <time>2018-10-12T09:26:41.000Z</time>
      </trkpt>
      <trkpt lat="30.9190044403076172" lon="-6.9057741165161133">
        <ele>1132.0</ele>
        <time>2018-10-12T09:26:42.000Z</time>
      </trkpt>
      <trkpt lat="30.9190044403076172" lon="-6.9056921005249023">
        <ele>1132.0</ele>
        <time>2018-10-12T09:26:43.000Z</time>
      </trkpt>
      <trkpt lat="30.9190082550048828" lon="-6.9056100845336914">
        <ele>1132.0</ele>
        <time>2018-10-12T09:26:44.000Z</time>
      </trkpt>
      <trkpt lat="30.9190101623535156" lon="-6.9055271148681641">
        <ele>1132.0</ele>
        <time>2018-10-12T09:26:45.000Z</time>
      </trkpt>
      <trkpt lat="30.9190120697021484" lon="-6.9054450988769531">
        <ele>1132.0</ele>
        <time>2018-10-12T09:26:46.000Z</time>
      </trkpt>
      <trkpt lat="30.9190101623535156" lon="-6.9053649902343750">
        <ele>1132.0</ele>
        <time>2018-10-12T09:26:47.000Z</time>
      </trkpt>
      <trkpt lat="30.9190063476562500" lon="-6.9052848815917969">
        <ele>1132.0</ele>
        <time>2018-10-12T09:26:48.000Z</time>
      </trkpt>
      <trkpt lat="30.9190044403076172" lon="-6.9052047729492188">
        <ele>1132.0</ele>
        <time>2018-10-12T09:26:49.000Z</time>
      </trkpt>
      <trkpt lat="30.9190025329589844" lon="-6.9051260948181152">
        <ele>1132.0</ele>
        <time>2018-10-12T09:26:50.000Z</time>
      </trkpt>
      <trkpt lat="30.9190006256103516" lon="-6.9050478935241699">
        <ele>1132.0</ele>
        <time>2018-10-12T09:26:51.000Z</time>
      </trkpt>
      <trkpt lat="30.9189987182617188" lon="-6.9049692153930664">
        <ele>1132.0</ele>
        <time>2018-10-12T09:26:52.000Z</time>
      </trkpt>
      <trkpt lat="30.9190006256103516" lon="-6.9048900604248047">
        <ele>1132.0</ele>
        <time>2018-10-12T09:26:53.000Z</time>
      </trkpt>
      <trkpt lat="30.9190006256103516" lon="-6.9048109054565430">
        <ele>1132.0</ele>
        <time>2018-10-12T09:26:54.000Z</time>
      </trkpt>
      <trkpt lat="30.9189987182617188" lon="-6.9047307968139648">
        <ele>1132.0</ele>
        <time>2018-10-12T09:26:55.000Z</time>
      </trkpt>
      <trkpt lat="30.9189968109130859" lon="-6.9046521186828613">
        <ele>1132.0</ele>
        <time>2018-10-12T09:26:56.000Z</time>
      </trkpt>
      <trkpt lat="30.9189949035644531" lon="-6.9045720100402832">
        <ele>1132.0</ele>
        <time>2018-10-12T09:26:57.000Z</time>
      </trkpt>
      <trkpt lat="30.9189910888671875" lon="-6.9044938087463379">
        <ele>1132.0</ele>
        <time>2018-10-12T09:26:58.000Z</time>
      </trkpt>
      <trkpt lat="30.9189872741699219" lon="-6.9044160842895508">
        <ele>1132.0</ele>
        <time>2018-10-12T09:26:59.000Z</time>
      </trkpt>
      <trkpt lat="30.9189853668212891" lon="-6.9043397903442383">
        <ele>1132.0</ele>
        <time>2018-10-12T09:27:00.000Z</time>
      </trkpt>
      <trkpt lat="30.9189815521240234" lon="-6.9042639732360840">
        <ele>1132.0</ele>
        <time>2018-10-12T09:27:01.000Z</time>
      </trkpt>
      <trkpt lat="30.9189815521240234" lon="-6.9041891098022461">
        <ele>1132.0</ele>
        <time>2018-10-12T09:27:02.000Z</time>
      </trkpt>
      <trkpt lat="30.9189796447753906" lon="-6.9041137695312500">
        <ele>1132.0</ele>
        <time>2018-10-12T09:27:03.000Z</time>
      </trkpt>
      <trkpt lat="30.9189777374267578" lon="-6.9040398597717285">
        <ele>1132.0</ele>
        <time>2018-10-12T09:27:04.000Z</time>
      </trkpt>
      <trkpt lat="30.9189720153808594" lon="-6.9039659500122070">
        <ele>1132.0</ele>
        <time>2018-10-12T09:27:05.000Z</time>
      </trkpt>
      <trkpt lat="30.9189662933349609" lon="-6.9038920402526855">
        <ele>1132.0</ele>
        <time>2018-10-12T09:27:06.000Z</time>
      </trkpt>
      <trkpt lat="30.9189586639404297" lon="-6.9038181304931641">
        <ele>1132.0</ele>
        <time>2018-10-12T09:27:07.000Z</time>
      </trkpt>
      <trkpt lat="30.9189491271972656" lon="-6.9037442207336426">
        <ele>1132.0</ele>
        <time>2018-10-12T09:27:08.000Z</time>
      </trkpt>
      <trkpt lat="30.9189357757568359" lon="-6.9036722183227539">
        <ele>1132.0</ele>
        <time>2018-10-12T09:27:09.000Z</time>
      </trkpt>
      <trkpt lat="30.9189243316650391" lon="-6.9036002159118652">
        <ele>1132.0</ele>
        <time>2018-10-12T09:27:10.000Z</time>
      </trkpt>
      <trkpt lat="30.9189109802246094" lon="-6.9035291671752930">
        <ele>1132.0</ele>
        <time>2018-10-12T09:27:11.000Z</time>
      </trkpt>
      <trkpt lat="30.9188976287841797" lon="-6.9034590721130371">
        <ele>1132.0</ele>
        <time>2018-10-12T09:27:12.000Z</time>
      </trkpt>
      <trkpt lat="30.9188823699951172" lon="-6.9033899307250977">
        <ele>1132.0</ele>
        <time>2018-10-12T09:27:13.000Z</time>
      </trkpt>
      <trkpt lat="30.9188709259033203" lon="-6.9033207893371582">
        <ele>1132.0</ele>
        <time>2018-10-12T09:27:14.000Z</time>
      </trkpt>
      <trkpt lat="30.9188575744628906" lon="-6.9032530784606934">
        <ele>1132.0</ele>
        <time>2018-10-12T09:27:15.000Z</time>
      </trkpt>
      <trkpt lat="30.9188404083251953" lon="-6.9031858444213867">
        <ele>1132.0</ele>
        <time>2018-10-12T09:27:16.000Z</time>
      </trkpt>
      <trkpt lat="30.9188213348388672" lon="-6.9031190872192383">
        <ele>1132.0</ele>
        <time>2018-10-12T09:27:17.000Z</time>
      </trkpt>
      <trkpt lat="30.9188041687011719" lon="-6.9030518531799316">
        <ele>1132.0</ele>
        <time>2018-10-12T09:27:18.000Z</time>
      </trkpt>
      <trkpt lat="30.9187870025634766" lon="-6.9029850959777832">
        <ele>1132.0</ele>
        <time>2018-10-12T09:27:19.000Z</time>
      </trkpt>
      <trkpt lat="30.9187698364257812" lon="-6.9029169082641602">
        <ele>1132.0</ele>
        <time>2018-10-12T09:27:20.000Z</time>
      </trkpt>
      <trkpt lat="30.9187545776367188" lon="-6.9028491973876953">
        <ele>1132.0</ele>
        <time>2018-10-12T09:27:21.000Z</time>
      </trkpt>
      <trkpt lat="30.9187393188476562" lon="-6.9027791023254395">
        <ele>1132.0</ele>
        <time>2018-10-12T09:27:22.000Z</time>
      </trkpt>
      <trkpt lat="30.9187240600585938" lon="-6.9027090072631836">
        <ele>1132.0</ele>
        <time>2018-10-12T09:27:23.000Z</time>
      </trkpt>
      <trkpt lat="30.9187107086181641" lon="-6.9026389122009277">
        <ele>1132.0</ele>
        <time>2018-10-12T09:27:24.000Z</time>
      </trkpt>
      <trkpt lat="30.9186973571777344" lon="-6.9025712013244629">
        <ele>1132.0</ele>
        <time>2018-10-12T09:27:25.000Z</time>
      </trkpt>
      <trkpt lat="30.9186878204345703" lon="-6.9025039672851562">
        <ele>1132.0</ele>
        <time>2018-10-12T09:27:26.000Z</time>
      </trkpt>
      <trkpt lat="30.9186782836914062" lon="-6.9024372100830078">
        <ele>1132.0</ele>
        <time>2018-10-12T09:27:27.000Z</time>
      </trkpt>
      <trkpt lat="30.9186668395996094" lon="-6.9023709297180176">
        <ele>1132.0</ele>
        <time>2018-10-12T09:27:28.000Z</time>
      </trkpt>
      <trkpt lat="30.9186553955078125" lon="-6.9023060798645020">
        <ele>1132.0</ele>
        <time>2018-10-12T09:27:29.000Z</time>
      </trkpt>
      <trkpt lat="30.9186458587646484" lon="-6.9022421836853027">
        <ele>1132.0</ele>
        <time>2018-10-12T09:27:30.000Z</time>
      </trkpt>
      <trkpt lat="30.9186363220214844" lon="-6.9021768569946289">
        <ele>1132.0</ele>
        <time>2018-10-12T09:27:31.000Z</time>
      </trkpt>
      <trkpt lat="30.9186325073242188" lon="-6.9021110534667969">
        <ele>1132.0</ele>
        <time>2018-10-12T09:27:32.000Z</time>
      </trkpt>
      <trkpt lat="30.9186305999755859" lon="-6.9020438194274902">
        <ele>1132.0</ele>
        <time>2018-10-12T09:27:33.000Z</time>
      </trkpt>
      <trkpt lat="30.9186325073242188" lon="-6.9019761085510254">
        <ele>1132.0</ele>
        <time>2018-10-12T09:27:34.000Z</time>
      </trkpt>
      <trkpt lat="30.9186363220214844" lon="-6.9019069671630859">
        <ele>1132.797119140625</ele>
        <time>2018-10-12T09:27:35.000Z</time>
      </trkpt>
      <trkpt lat="30.9186458587646484" lon="-6.9018402099609375">
        <ele>1133.0</ele>
        <time>2018-10-12T09:27:36.000Z</time>
      </trkpt>
      <trkpt lat="30.9186592102050781" lon="-6.9017739295959473">
        <ele>1133.0</ele>
        <time>2018-10-12T09:27:37.000Z</time>
      </trkpt>
      <trkpt lat="30.9186763763427734" lon="-6.9017090797424316">
        <ele>1133.0</ele>
        <time>2018-10-12T09:27:38.000Z</time>
      </trkpt>
      <trkpt lat="30.9186992645263672" lon="-6.9016461372375488">
        <ele>1133.0</ele>
        <time>2018-10-12T09:27:39.000Z</time>
      </trkpt>
      <trkpt lat="30.9187259674072266" lon="-6.9015860557556152">
        <ele>1133.0</ele>
        <time>2018-10-12T09:27:40.000Z</time>
      </trkpt>
      <trkpt lat="30.9187545776367188" lon="-6.9015278816223145">
        <ele>1133.0</ele>
        <time>2018-10-12T09:27:41.000Z</time>
      </trkpt>
      <trkpt lat="30.9187831878662109" lon="-6.9014711380004883">
        <ele>1133.0</ele>
        <time>2018-10-12T09:27:42.000Z</time>
      </trkpt>
      <trkpt lat="30.9188156127929688" lon="-6.9014167785644531">
        <ele>1133.0</ele>
        <time>2018-10-12T09:27:43.000Z</time>
      </trkpt>
      <trkpt lat="30.9188518524169922" lon="-6.9013662338256836">
        <ele>1133.0</ele>
        <time>2018-10-12T09:27:44.000Z</time>
      </trkpt>
      <trkpt lat="30.9188861846923828" lon="-6.9013180732727051">
        <ele>1133.0</ele>
        <time>2018-10-12T09:27:45.000Z</time>
      </trkpt>
      <trkpt lat="30.9189243316650391" lon="-6.9012718200683594">
        <ele>1133.0</ele>
        <time>2018-10-12T09:27:46.000Z</time>
      </trkpt>
      <trkpt lat="30.9189643859863281" lon="-6.9012298583984375">
        <ele>1133.0</ele>
        <time>2018-10-12T09:27:47.000Z</time>
      </trkpt>
      <trkpt lat="30.9190082550048828" lon="-6.9011888504028320">
        <ele>1133.0</ele>
        <time>2018-10-12T09:27:48.000Z</time>
      </trkpt>
      <trkpt lat="30.9190540313720703" lon="-6.9011511802673340">
        <ele>1133.0</ele>
        <time>2018-10-12T09:27:49.000Z</time>
      </trkpt>
      <trkpt lat="30.9190998077392578" lon="-6.9011149406433105">
        <ele>1133.0</ele>
        <time>2018-10-12T09:27:50.000Z</time>
      </trkpt>
      <trkpt lat="30.9191474914550781" lon="-6.9010858535766602">
        <ele>1133.0</ele>
        <time>2018-10-12T09:27:51.000Z</time>
      </trkpt>
      <trkpt lat="30.9191951751708984" lon="-6.9010610580444336">
        <ele>1133.0</ele>
        <time>2018-10-12T09:27:52.000Z</time>
      </trkpt>
      <trkpt lat="30.9192447662353516" lon="-6.9010391235351562">
        <ele>1133.0</ele>
        <time>2018-10-12T09:27:53.000Z</time>
      </trkpt>
      <trkpt lat="30.9192962646484375" lon="-6.9010219573974609">
        <ele>1133.0</ele>
        <time>2018-10-12T09:27:54.000Z</time>
      </trkpt>
      <trkpt lat="30.9193477630615234" lon="-6.9010109901428223">
        <ele>1133.0</ele>
        <time>2018-10-12T09:27:55.000Z</time>
      </trkpt>
      <trkpt lat="30.9193954467773438" lon="-6.9010028839111328">
        <ele>1133.0</ele>
        <time>2018-10-12T09:27:56.000Z</time>
      </trkpt>
      <trkpt lat="30.9194355010986328" lon="-6.9009900093078613">
        <ele>1132.4962158203125</ele>
        <time>2018-10-12T09:27:57.000Z</time>
      </trkpt>
      <trkpt lat="30.9194602966308594" lon="-6.9009737968444824">
        <ele>1132.0</ele>
        <time>2018-10-12T09:27:58.000Z</time>
      </trkpt>
      <trkpt lat="30.9194774627685547" lon="-6.9009580612182617">
        <ele>1132.0</ele>
        <time>2018-10-12T09:27:59.000Z</time>
      </trkpt>
      <trkpt lat="30.9194908142089844" lon="-6.9009451866149902">
        <ele>1132.0</ele>
        <time>2018-10-12T09:28:00.000Z</time>
      </trkpt>
      <trkpt lat="30.9195194244384766" lon="-6.9009261131286621">
        <ele>1132.0</ele>
        <time>2018-10-12T09:28:02.000Z</time>
      </trkpt>
      <trkpt lat="30.9195404052734375" lon="-6.9009151458740234">
        <ele>1132.0</ele>
        <time>2018-10-12T09:28:04.000Z</time>
      </trkpt>
      <trkpt lat="30.9195880889892578" lon="-6.9009180068969727">
        <ele>1132.0</ele>
        <time>2018-10-12T09:28:39.000Z</time>
      </trkpt>
      <trkpt lat="30.9196262359619141" lon="-6.9009242057800293">
        <ele>1132.0</ele>
        <time>2018-10-12T09:28:41.000Z</time>
      </trkpt>
      <trkpt lat="30.9196548461914062" lon="-6.9009318351745605">
        <ele>1132.0</ele>
        <time>2018-10-12T09:28:42.000Z</time>
      </trkpt>
      <trkpt lat="30.9196872711181641" lon="-6.9009370803833008">
        <ele>1132.0</ele>
        <time>2018-10-12T09:28:43.000Z</time>
      </trkpt>
      <trkpt lat="30.9197273254394531" lon="-6.9009361267089844">
        <ele>1132.0</ele>
        <time>2018-10-12T09:28:44.000Z</time>
      </trkpt>
      <trkpt lat="30.9197692871093750" lon="-6.9009318351745605">
        <ele>1132.0</ele>
        <time>2018-10-12T09:28:45.000Z</time>
      </trkpt>
      <trkpt lat="30.9198150634765625" lon="-6.9009270668029785">
        <ele>1132.0</ele>
        <time>2018-10-12T09:28:46.000Z</time>
      </trkpt>
      <trkpt lat="30.9198627471923828" lon="-6.9009208679199219">
        <ele>1132.0</ele>
        <time>2018-10-12T09:28:47.000Z</time>
      </trkpt>
      <trkpt lat="30.9199104309082031" lon="-6.9009127616882324">
        <ele>1132.0</ele>
        <time>2018-10-12T09:28:48.000Z</time>
      </trkpt>
      <trkpt lat="30.9199562072753906" lon="-6.9009041786193848">
        <ele>1132.0</ele>
        <time>2018-10-12T09:28:49.000Z</time>
      </trkpt>
      <trkpt lat="30.9200019836425781" lon="-6.9008979797363281">
        <ele>1132.0</ele>
        <time>2018-10-12T09:28:50.000Z</time>
      </trkpt>
      <trkpt lat="30.9200458526611328" lon="-6.9008917808532715">
        <ele>1132.0</ele>
        <time>2018-10-12T09:28:51.000Z</time>
      </trkpt>
      <trkpt lat="30.9200897216796875" lon="-6.9008841514587402">
        <ele>1132.0</ele>
        <time>2018-10-12T09:28:52.000Z</time>
      </trkpt>
      <trkpt lat="30.9201316833496094" lon="-6.9008741378784180">
        <ele>1132.0</ele>
        <time>2018-10-12T09:28:53.000Z</time>
      </trkpt>
      <trkpt lat="30.9201736450195312" lon="-6.9008631706237793">
        <ele>1132.0</ele>
        <time>2018-10-12T09:28:54.000Z</time>
      </trkpt>
      <trkpt lat="30.9202156066894531" lon="-6.9008498191833496">
        <ele>1132.7479248046875</ele>
        <time>2018-10-12T09:28:55.000Z</time>
      </trkpt>
      <trkpt lat="30.9202556610107422" lon="-6.9008321762084961">
        <ele>1133.0</ele>
        <time>2018-10-12T09:28:56.000Z</time>
      </trkpt>
      <trkpt lat="30.9202957153320312" lon="-6.9008121490478516">
        <ele>1133.0</ele>
        <time>2018-10-12T09:28:57.000Z</time>
      </trkpt>
      <trkpt lat="30.9203357696533203" lon="-6.9007868766784668">
        <ele>1133.0</ele>
        <time>2018-10-12T09:28:58.000Z</time>
      </trkpt>
      <trkpt lat="30.9203701019287109" lon="-6.9007539749145508">
        <ele>1133.0</ele>
        <time>2018-10-12T09:28:59.000Z</time>
      </trkpt>
      <trkpt lat="30.9203987121582031" lon="-6.9007158279418945">
        <ele>1133.7479248046875</ele>
        <time>2018-10-12T09:29:00.000Z</time>
      </trkpt>
      <trkpt lat="30.9204254150390625" lon="-6.9006738662719727">
        <ele>1134.0</ele>
        <time>2018-10-12T09:29:01.000Z</time>
      </trkpt>
      <trkpt lat="30.9204463958740234" lon="-6.9006309509277344">
        <ele>1134.0</ele>
        <time>2018-10-12T09:29:02.000Z</time>
      </trkpt>
      <trkpt lat="30.9204597473144531" lon="-6.9005861282348633">
        <ele>1134.821044921875</ele>
        <time>2018-10-12T09:29:03.000Z</time>
      </trkpt>
      <trkpt lat="30.9204692840576172" lon="-6.9005398750305176">
        <ele>1135.0</ele>
        <time>2018-10-12T09:29:04.000Z</time>
      </trkpt>
      <trkpt lat="30.9204769134521484" lon="-6.9004940986633301">
        <ele>1135.797119140625</ele>
        <time>2018-10-12T09:29:05.000Z</time>
      </trkpt>
      <trkpt lat="30.9204788208007812" lon="-6.9004478454589844">
        <ele>1136.0</ele>
        <time>2018-10-12T09:29:06.000Z</time>
      </trkpt>
      <trkpt lat="30.9204788208007812" lon="-6.9004020690917969">
        <ele>1136.0</ele>
        <time>2018-10-12T09:29:07.000Z</time>
      </trkpt>
      <trkpt lat="30.9204788208007812" lon="-6.9003558158874512">
        <ele>1136.821044921875</ele>
        <time>2018-10-12T09:29:08.000Z</time>
      </trkpt>
      <trkpt lat="30.9204788208007812" lon="-6.9003119468688965">
        <ele>1137.0</ele>
        <time>2018-10-12T09:29:09.000Z</time>
      </trkpt>
      <trkpt lat="30.9204788208007812" lon="-6.9002690315246582">
        <ele>1137.0</ele>
        <time>2018-10-12T09:29:10.000Z</time>
      </trkpt>
      <trkpt lat="30.9204769134521484" lon="-6.9002270698547363">
        <ele>1137.0</ele>
        <time>2018-10-12T09:29:11.000Z</time>
      </trkpt>
      <trkpt lat="30.9204769134521484" lon="-6.9001851081848145">
        <ele>1137.0</ele>
        <time>2018-10-12T09:29:12.000Z</time>
      </trkpt>
      <trkpt lat="30.9204730987548828" lon="-6.9001441001892090">
        <ele>1137.636474609375</ele>
        <time>2018-10-12T09:29:13.000Z</time>
      </trkpt>
      <trkpt lat="30.9204730987548828" lon="-6.9001049995422363">
        <ele>1138.7479248046875</ele>
        <time>2018-10-12T09:29:14.000Z</time>
      </trkpt>
      <trkpt lat="30.9204730987548828" lon="-6.9000678062438965">
        <ele>1139.0</ele>
        <time>2018-10-12T09:29:15.000Z</time>
      </trkpt>
      <trkpt lat="30.9204711914062500" lon="-6.9000320434570312">
        <ele>1139.0</ele>
        <time>2018-10-12T09:29:16.000Z</time>
      </trkpt>
      <trkpt lat="30.9204692840576172" lon="-6.8999958038330078">
        <ele>1139.0</ele>
        <time>2018-10-12T09:29:17.000Z</time>
      </trkpt>
      <trkpt lat="30.9204673767089844" lon="-6.8999590873718262">
        <ele>1139.0</ele>
        <time>2018-10-12T09:29:18.000Z</time>
      </trkpt>
      <trkpt lat="30.9204673767089844" lon="-6.8999218940734863">
        <ele>1139.0</ele>
        <time>2018-10-12T09:29:19.000Z</time>
      </trkpt>
      <trkpt lat="30.9204673767089844" lon="-6.8998851776123047">
        <ele>1139.0</ele>
        <time>2018-10-12T09:29:20.000Z</time>
      </trkpt>
      <trkpt lat="30.9204654693603516" lon="-6.8998489379882812">
        <ele>1139.0</ele>
        <time>2018-10-12T09:29:21.000Z</time>
      </trkpt>
      <trkpt lat="30.9204635620117188" lon="-6.8998107910156250">
        <ele>1139.0</ele>
        <time>2018-10-12T09:29:22.000Z</time>
      </trkpt>
      <trkpt lat="30.9204597473144531" lon="-6.8997731208801270">
        <ele>1139.821044921875</ele>
        <time>2018-10-12T09:29:23.000Z</time>
      </trkpt>
      <trkpt lat="30.9204597473144531" lon="-6.8997330665588379">
        <ele>1140.0</ele>
        <time>2018-10-12T09:29:24.000Z</time>
      </trkpt>
      <trkpt lat="30.9204597473144531" lon="-6.8996911048889160">
        <ele>1140.0</ele>
        <time>2018-10-12T09:29:25.000Z</time>
      </trkpt>
      <trkpt lat="30.9204578399658203" lon="-6.8996481895446777">
        <ele>1140.0</ele>
        <time>2018-10-12T09:29:26.000Z</time>
      </trkpt>
      <trkpt lat="30.9204559326171875" lon="-6.8996047973632812">
        <ele>1140.0</ele>
        <time>2018-10-12T09:29:27.000Z</time>
      </trkpt>
      <trkpt lat="30.9204540252685547" lon="-6.8995628356933594">
        <ele>1140.0</ele>
        <time>2018-10-12T09:29:28.000Z</time>
      </trkpt>
      <trkpt lat="30.9204521179199219" lon="-6.8995208740234375">
        <ele>1140.8128662109375</ele>
        <time>2018-10-12T09:29:29.000Z</time>
      </trkpt>
      <trkpt lat="30.9204521179199219" lon="-6.8994798660278320">
        <ele>1141.0</ele>
        <time>2018-10-12T09:29:30.000Z</time>
      </trkpt>
      <trkpt lat="30.9204502105712891" lon="-6.8994398117065430">
        <ele>1141.0</ele>
        <time>2018-10-12T09:29:31.000Z</time>
      </trkpt>
      <trkpt lat="30.9204483032226562" lon="-6.8994002342224121">
        <ele>1141.0</ele>
        <time>2018-10-12T09:29:32.000Z</time>
      </trkpt>
      <trkpt lat="30.9204502105712891" lon="-6.8993620872497559">
        <ele>1141.0</ele>
        <time>2018-10-12T09:29:33.000Z</time>
      </trkpt>
      <trkpt lat="30.9204502105712891" lon="-6.8993258476257324">
        <ele>1141.0</ele>
        <time>2018-10-12T09:29:34.000Z</time>
      </trkpt>
      <trkpt lat="30.9204540252685547" lon="-6.8992900848388672">
        <ele>1141.0</ele>
        <time>2018-10-12T09:29:35.000Z</time>
      </trkpt>
      <trkpt lat="30.9204616546630859" lon="-6.8992547988891602">
        <ele>1141.0</ele>
        <time>2018-10-12T09:29:36.000Z</time>
      </trkpt>
      <trkpt lat="30.9204673767089844" lon="-6.8992209434509277">
        <ele>1141.0</ele>
        <time>2018-10-12T09:29:37.000Z</time>
      </trkpt>
      <trkpt lat="30.9204769134521484" lon="-6.8991851806640625">
        <ele>1141.0</ele>
        <time>2018-10-12T09:29:38.000Z</time>
      </trkpt>
      <trkpt lat="30.9204845428466797" lon="-6.8991508483886719">
        <ele>1141.0</ele>
        <time>2018-10-12T09:29:39.000Z</time>
      </trkpt>
      <trkpt lat="30.9204978942871094" lon="-6.8991179466247559">
        <ele>1141.0</ele>
        <time>2018-10-12T09:29:40.000Z</time>
      </trkpt>
      <trkpt lat="30.9205093383789062" lon="-6.8990869522094727">
        <ele>1141.0</ele>
        <time>2018-10-12T09:29:41.000Z</time>
      </trkpt>
      <trkpt lat="30.9205284118652344" lon="-6.8990578651428223">
        <ele>1141.0</ele>
        <time>2018-10-12T09:29:42.000Z</time>
      </trkpt>
      <trkpt lat="30.9205532073974609" lon="-6.8990349769592285">
        <ele>1141.0</ele>
        <time>2018-10-12T09:29:43.000Z</time>
      </trkpt>
      <trkpt lat="30.9205837249755859" lon="-6.8990201950073242">
        <ele>1141.0</ele>
        <time>2018-10-12T09:29:44.000Z</time>
      </trkpt>
      <trkpt lat="30.9206161499023438" lon="-6.8990130424499512">
        <ele>1141.821044921875</ele>
        <time>2018-10-12T09:29:45.000Z</time>
      </trkpt>
      <trkpt lat="30.9206447601318359" lon="-6.8990120887756348">
        <ele>1142.0</ele>
        <time>2018-10-12T09:29:46.000Z</time>
      </trkpt>
      <trkpt lat="30.9206733703613281" lon="-6.8990149497985840">
        <ele>1142.0</ele>
        <time>2018-10-12T09:29:47.000Z</time>
      </trkpt>
      <trkpt lat="30.9207057952880859" lon="-6.8990211486816406">
        <ele>1142.0</ele>
        <time>2018-10-12T09:29:48.000Z</time>
      </trkpt>
      <trkpt lat="30.9207401275634766" lon="-6.8990278244018555">
        <ele>1142.0</ele>
        <time>2018-10-12T09:29:49.000Z</time>
      </trkpt>
      <trkpt lat="30.9207744598388672" lon="-6.8990321159362793">
        <ele>1142.0</ele>
        <time>2018-10-12T09:29:50.000Z</time>
      </trkpt>
      <trkpt lat="30.9208068847656250" lon="-6.8990340232849121">
        <ele>1142.0</ele>
        <time>2018-10-12T09:29:51.000Z</time>
      </trkpt>
      <trkpt lat="30.9208354949951172" lon="-6.8990349769592285">
        <ele>1142.0</ele>
        <time>2018-10-12T09:29:52.000Z</time>
      </trkpt>
      <trkpt lat="30.9208621978759766" lon="-6.8990378379821777">
        <ele>1142.0</ele>
        <time>2018-10-12T09:29:53.000Z</time>
      </trkpt>
      <trkpt lat="30.9208889007568359" lon="-6.8990430831909180">
        <ele>1142.0</ele>
        <time>2018-10-12T09:29:54.000Z</time>
      </trkpt>
      <trkpt lat="30.9209079742431641" lon="-6.8990511894226074">
        <ele>1142.821044921875</ele>
        <time>2018-10-12T09:29:55.000Z</time>
      </trkpt>
      <trkpt lat="30.9209232330322266" lon="-6.8990640640258789">
        <ele>1143.0</ele>
        <time>2018-10-12T09:29:56.000Z</time>
      </trkpt>
      <trkpt lat="30.9209384918212891" lon="-6.8990821838378906">
        <ele>1143.0</ele>
        <time>2018-10-12T09:29:57.000Z</time>
      </trkpt>
      <trkpt lat="30.9209537506103516" lon="-6.8990979194641113">
        <ele>1143.0</ele>
        <time>2018-10-12T09:29:58.000Z</time>
      </trkpt>
      <trkpt lat="30.9209651947021484" lon="-6.8991150856018066">
        <ele>1143.0</ele>
        <time>2018-10-12T09:29:59.000Z</time>
      </trkpt>
      <trkpt lat="30.9209728240966797" lon="-6.8991351127624512">
        <ele>1143.0</ele>
        <time>2018-10-12T09:30:00.000Z</time>
      </trkpt>
      <trkpt lat="30.9209747314453125" lon="-6.8991599082946777">
        <ele>1143.0</ele>
        <time>2018-10-12T09:30:01.000Z</time>
      </trkpt>
      <trkpt lat="30.9209728240966797" lon="-6.8991861343383789">
        <ele>1143.0</ele>
        <time>2018-10-12T09:30:02.000Z</time>
      </trkpt>
      <trkpt lat="30.9209651947021484" lon="-6.8992128372192383">
        <ele>1143.0</ele>
        <time>2018-10-12T09:30:03.000Z</time>
      </trkpt>
      <trkpt lat="30.9209594726562500" lon="-6.8992409706115723">
        <ele>1143.0</ele>
        <time>2018-10-12T09:30:04.000Z</time>
      </trkpt>
      <trkpt lat="30.9209518432617188" lon="-6.8992700576782227">
        <ele>1143.0</ele>
        <time>2018-10-12T09:30:05.000Z</time>
      </trkpt>
      <trkpt lat="30.9209423065185547" lon="-6.8992972373962402">
        <ele>1143.0</ele>
        <time>2018-10-12T09:30:06.000Z</time>
      </trkpt>
      <trkpt lat="30.9209251403808594" lon="-6.8993210792541504">
        <ele>1143.0</ele>
        <time>2018-10-12T09:30:07.000Z</time>
      </trkpt>
      <trkpt lat="30.9209060668945312" lon="-6.8993449211120605">
        <ele>1143.0</ele>
        <time>2018-10-12T09:30:08.000Z</time>
      </trkpt>
      <trkpt lat="30.9208908081054688" lon="-6.8993721008300781">
        <ele>1143.0</ele>
        <time>2018-10-12T09:30:09.000Z</time>
      </trkpt>
      <trkpt lat="30.9208812713623047" lon="-6.8994002342224121">
        <ele>1143.636474609375</ele>
        <time>2018-10-12T09:30:10.000Z</time>
      </trkpt>
      <trkpt lat="30.9208736419677734" lon="-6.8994269371032715">
        <ele>1144.0</ele>
        <time>2018-10-12T09:30:11.000Z</time>
      </trkpt>
      <trkpt lat="30.9208641052246094" lon="-6.8994498252868652">
        <ele>1144.0</ele>
        <time>2018-10-12T09:30:12.000Z</time>
      </trkpt>
      <trkpt lat="30.9208507537841797" lon="-6.8994679450988770">
        <ele>1144.0</ele>
        <time>2018-10-12T09:30:13.000Z</time>
      </trkpt>
      <trkpt lat="30.9208335876464844" lon="-6.8994808197021484">
        <ele>1144.0</ele>
        <time>2018-10-12T09:30:14.000Z</time>
      </trkpt>
      <trkpt lat="30.9208164215087891" lon="-6.8994898796081543">
        <ele>1144.0</ele>
        <time>2018-10-12T09:30:15.000Z</time>
      </trkpt>
      <trkpt lat="30.9207992553710938" lon="-6.8994989395141602">
        <ele>1144.0</ele>
        <time>2018-10-12T09:30:16.000Z</time>
      </trkpt>
      <trkpt lat="30.9207820892333984" lon="-6.8995070457458496">
        <ele>1143.178955078125</ele>
        <time>2018-10-12T09:30:17.000Z</time>
      </trkpt>
      <trkpt lat="30.9207611083984375" lon="-6.8995032310485840">
        <ele>1143.0</ele>
        <time>2018-10-12T09:30:20.000Z</time>
      </trkpt>
      <trkpt lat="30.9207611083984375" lon="-6.8995032310485840">
        <ele>1143.999267578125</ele>
        <time>2018-10-12T09:31:39.000Z</time>
      </trkpt>
      <trkpt lat="30.9208202362060547" lon="-6.8995671272277832">
        <ele>1143.0</ele>
        <time>2018-10-12T10:05:28.000Z</time>
      </trkpt>
      <trkpt lat="30.9208374023437500" lon="-6.8995389938354492">
        <ele>1143.0</ele>
        <time>2018-10-12T10:05:30.000Z</time>
      </trkpt>
      <trkpt lat="30.9208602905273438" lon="-6.8995180130004883">
        <ele>1143.0</ele>
        <time>2018-10-12T10:05:32.000Z</time>
      </trkpt>
      <trkpt lat="30.9208774566650391" lon="-6.8994908332824707">
        <ele>1144.0</ele>
        <time>2018-10-12T10:05:34.000Z</time>
      </trkpt>
      <trkpt lat="30.9208869934082031" lon="-6.8994560241699219">
        <ele>1144.0</ele>
        <time>2018-10-12T10:05:36.000Z</time>
      </trkpt>
      <trkpt lat="30.9208946228027344" lon="-6.8994178771972656">
        <ele>1144.0</ele>
        <time>2018-10-12T10:05:38.000Z</time>
      </trkpt>
      <trkpt lat="30.9209060668945312" lon="-6.8993778228759766">
        <ele>1144.0</ele>
        <time>2018-10-12T10:05:40.000Z</time>
      </trkpt>
      <trkpt lat="30.9209136962890625" lon="-6.8993549346923828">
        <ele>1144.0</ele>
        <time>2018-10-12T10:05:41.000Z</time>
      </trkpt>
      <trkpt lat="30.9209213256835938" lon="-6.8993291854858398">
        <ele>1144.0</ele>
        <time>2018-10-12T10:05:42.000Z</time>
      </trkpt>
      <trkpt lat="30.9209270477294922" lon="-6.8993000984191895">
        <ele>1144.0</ele>
        <time>2018-10-12T10:05:43.000Z</time>
      </trkpt>
      <trkpt lat="30.9209289550781250" lon="-6.8992710113525391">
        <ele>1144.0</ele>
        <time>2018-10-12T10:05:44.000Z</time>
      </trkpt>
      <trkpt lat="30.9209327697753906" lon="-6.8992419242858887">
        <ele>1144.0</ele>
        <time>2018-10-12T10:05:45.000Z</time>
      </trkpt>
      <trkpt lat="30.9209346771240234" lon="-6.8992137908935547">
        <ele>1144.0</ele>
        <time>2018-10-12T10:05:46.000Z</time>
      </trkpt>
      <trkpt lat="30.9209365844726562" lon="-6.8991851806640625">
        <ele>1144.0</ele>
        <time>2018-10-12T10:05:47.000Z</time>
      </trkpt>
      <trkpt lat="30.9209365844726562" lon="-6.8991560935974121">
        <ele>1144.0</ele>
        <time>2018-10-12T10:05:48.000Z</time>
      </trkpt>
      <trkpt lat="30.9209308624267578" lon="-6.8991279602050781">
        <ele>1144.0</ele>
        <time>2018-10-12T10:05:49.000Z</time>
      </trkpt>
      <trkpt lat="30.9209194183349609" lon="-6.8991007804870605">
        <ele>1144.0</ele>
        <time>2018-10-12T10:05:50.000Z</time>
      </trkpt>
      <trkpt lat="30.9209003448486328" lon="-6.8990788459777832">
        <ele>1143.178955078125</ele>
        <time>2018-10-12T10:05:51.000Z</time>
      </trkpt>
      <trkpt lat="30.9208717346191406" lon="-6.8990640640258789">
        <ele>1143.0</ele>
        <time>2018-10-12T10:05:52.000Z</time>
      </trkpt>
      <trkpt lat="30.9208335876464844" lon="-6.8990588188171387">
        <ele>1143.0</ele>
        <time>2018-10-12T10:05:53.000Z</time>
      </trkpt>
      <trkpt lat="30.9207954406738281" lon="-6.8990569114685059">
        <ele>1143.0</ele>
        <time>2018-10-12T10:05:54.000Z</time>
      </trkpt>
      <trkpt lat="30.9207534790039062" lon="-6.8990550041198730">
        <ele>1143.0</ele>
        <time>2018-10-12T10:05:55.000Z</time>
      </trkpt>
      <trkpt lat="30.9207115173339844" lon="-6.8990521430969238">
        <ele>1142.178955078125</ele>
        <time>2018-10-12T10:05:56.000Z</time>
      </trkpt>
      <trkpt lat="30.9206733703613281" lon="-6.8990468978881836">
        <ele>1141.178955078125</ele>
        <time>2018-10-12T10:05:57.000Z</time>
      </trkpt>
      <trkpt lat="30.9206428527832031" lon="-6.8990421295166016">
        <ele>1141.0</ele>
        <time>2018-10-12T10:05:58.000Z</time>
      </trkpt>
      <trkpt lat="30.9206218719482422" lon="-6.8990359306335449">
        <ele>1141.0</ele>
        <time>2018-10-12T10:05:59.000Z</time>
      </trkpt>
      <trkpt lat="30.9205951690673828" lon="-6.8990101814270020">
        <ele>1141.0</ele>
        <time>2018-10-12T10:06:01.000Z</time>
      </trkpt>
      <trkpt lat="30.9205856323242188" lon="-6.8989920616149902">
        <ele>1141.0</ele>
        <time>2018-10-12T10:06:02.000Z</time>
      </trkpt>
      <trkpt lat="30.9205722808837891" lon="-6.8989729881286621">
        <ele>1141.0</ele>
        <time>2018-10-12T10:06:03.000Z</time>
      </trkpt>
      <trkpt lat="30.9205551147460938" lon="-6.8989539146423340">
        <ele>1141.626708984375</ele>
        <time>2018-10-12T10:06:04.000Z</time>
      </trkpt>
      <trkpt lat="30.9205379486083984" lon="-6.8989357948303223">
        <ele>1142.0</ele>
        <time>2018-10-12T10:06:05.000Z</time>
      </trkpt>
      <trkpt lat="30.9205150604248047" lon="-6.8989200592041016">
        <ele>1142.0</ele>
        <time>2018-10-12T10:06:06.000Z</time>
      </trkpt>
      <trkpt lat="30.9204978942871094" lon="-6.8989009857177734">
        <ele>1142.0</ele>
        <time>2018-10-12T10:06:07.000Z</time>
      </trkpt>
      <trkpt lat="30.9204845428466797" lon="-6.8988780975341797">
        <ele>1142.0</ele>
        <time>2018-10-12T10:06:08.000Z</time>
      </trkpt>
      <trkpt lat="30.9204788208007812" lon="-6.8988518714904785">
        <ele>1142.0</ele>
        <time>2018-10-12T10:06:09.000Z</time>
      </trkpt>
      <trkpt lat="30.9204769134521484" lon="-6.8988208770751953">
        <ele>1142.0</ele>
        <time>2018-10-12T10:06:10.000Z</time>
      </trkpt>
      <trkpt lat="30.9204788208007812" lon="-6.8987879753112793">
        <ele>1142.0</ele>
        <time>2018-10-12T10:06:11.000Z</time>
      </trkpt>
      <trkpt lat="30.9204826354980469" lon="-6.8987522125244141">
        <ele>1142.0</ele>
        <time>2018-10-12T10:06:12.000Z</time>
      </trkpt>
      <trkpt lat="30.9204883575439453" lon="-6.8987140655517578">
        <ele>1142.0</ele>
        <time>2018-10-12T10:06:13.000Z</time>
      </trkpt>
      <trkpt lat="30.9204978942871094" lon="-6.8986768722534180">
        <ele>1142.0</ele>
        <time>2018-10-12T10:06:14.000Z</time>
      </trkpt>
      <trkpt lat="30.9205074310302734" lon="-6.8986401557922363">
        <ele>1142.0</ele>
        <time>2018-10-12T10:06:15.000Z</time>
      </trkpt>
      <trkpt lat="30.9205169677734375" lon="-6.8986029624938965">
        <ele>1142.0</ele>
        <time>2018-10-12T10:06:16.000Z</time>
      </trkpt>
      <trkpt lat="30.9205265045166016" lon="-6.8985657691955566">
        <ele>1142.0</ele>
        <time>2018-10-12T10:06:17.000Z</time>
      </trkpt>
      <trkpt lat="30.9205398559570312" lon="-6.8985300064086914">
        <ele>1142.0</ele>
        <time>2018-10-12T10:06:18.000Z</time>
      </trkpt>
      <trkpt lat="30.9205532073974609" lon="-6.8984951972961426">
        <ele>1142.0</ele>
        <time>2018-10-12T10:06:19.000Z</time>
      </trkpt>
      <trkpt lat="30.9205703735351562" lon="-6.8984589576721191">
        <ele>1142.0</ele>
        <time>2018-10-12T10:06:20.000Z</time>
      </trkpt>
      <trkpt lat="30.9205856323242188" lon="-6.8984217643737793">
        <ele>1142.0</ele>
        <time>2018-10-12T10:06:21.000Z</time>
      </trkpt>
      <trkpt lat="30.9206027984619141" lon="-6.8983879089355469">
        <ele>1142.0</ele>
        <time>2018-10-12T10:06:22.000Z</time>
      </trkpt>
      <trkpt lat="30.9206237792968750" lon="-6.8983569145202637">
        <ele>1142.0</ele>
        <time>2018-10-12T10:06:23.000Z</time>
      </trkpt>
      <trkpt lat="30.9206447601318359" lon="-6.8983259201049805">
        <ele>1141.2593994140625</ele>
        <time>2018-10-12T10:06:24.000Z</time>
      </trkpt>
      <trkpt lat="30.9206657409667969" lon="-6.8982930183410645">
        <ele>1141.0</ele>
        <time>2018-10-12T10:06:25.000Z</time>
      </trkpt>
      <trkpt lat="30.9206867218017578" lon="-6.8982601165771484">
        <ele>1141.0</ele>
        <time>2018-10-12T10:06:26.000Z</time>
      </trkpt>
      <trkpt lat="30.9207077026367188" lon="-6.8982248306274414">
        <ele>1141.0</ele>
        <time>2018-10-12T10:06:27.000Z</time>
      </trkpt>
      <trkpt lat="30.9207305908203125" lon="-6.8981881141662598">
        <ele>1141.0</ele>
        <time>2018-10-12T10:06:28.000Z</time>
      </trkpt>
      <trkpt lat="30.9207534790039062" lon="-6.8981499671936035">
        <ele>1141.0</ele>
        <time>2018-10-12T10:06:29.000Z</time>
      </trkpt>
      <trkpt lat="30.9207801818847656" lon="-6.8981108665466309">
        <ele>1141.0</ele>
        <time>2018-10-12T10:06:30.000Z</time>
      </trkpt>
      <trkpt lat="30.9208106994628906" lon="-6.8980741500854492">
        <ele>1141.0</ele>
        <time>2018-10-12T10:06:31.000Z</time>
      </trkpt>
      <trkpt lat="30.9208450317382812" lon="-6.8980369567871094">
        <ele>1140.178955078125</ele>
        <time>2018-10-12T10:06:32.000Z</time>
      </trkpt>
      <trkpt lat="30.9208812713623047" lon="-6.8979997634887695">
        <ele>1140.0</ele>
        <time>2018-10-12T10:06:33.000Z</time>
      </trkpt>
      <trkpt lat="30.9209175109863281" lon="-6.8979640007019043">
        <ele>1140.0</ele>
        <time>2018-10-12T10:06:34.000Z</time>
      </trkpt>
      <trkpt lat="30.9209575653076172" lon="-6.8979301452636719">
        <ele>1139.18896484375</ele>
        <time>2018-10-12T10:06:35.000Z</time>
      </trkpt>
      <trkpt lat="30.9210014343261719" lon="-6.8978981971740723">
        <ele>1139.0</ele>
        <time>2018-10-12T10:06:36.000Z</time>
      </trkpt>
      <trkpt lat="30.9210472106933594" lon="-6.8978648185729980">
        <ele>1139.0</ele>
        <time>2018-10-12T10:06:37.000Z</time>
      </trkpt>
      <trkpt lat="30.9210987091064453" lon="-6.8978319168090820">
        <ele>1138.2593994140625</ele>
        <time>2018-10-12T10:06:38.000Z</time>
      </trkpt>
      <trkpt lat="30.9211521148681641" lon="-6.8977980613708496">
        <ele>1138.0</ele>
        <time>2018-10-12T10:06:39.000Z</time>
      </trkpt>
      <trkpt lat="30.9212074279785156" lon="-6.8977642059326172">
        <ele>1138.0</ele>
        <time>2018-10-12T10:06:40.000Z</time>
      </trkpt>
      <trkpt lat="30.9212665557861328" lon="-6.8977298736572266">
        <ele>1138.0</ele>
        <time>2018-10-12T10:06:41.000Z</time>
      </trkpt>
      <trkpt lat="30.9213237762451172" lon="-6.8976969718933105">
        <ele>1137.373291015625</ele>
        <time>2018-10-12T10:06:42.000Z</time>
      </trkpt>
      <trkpt lat="30.9213829040527344" lon="-6.8976631164550781">
        <ele>1137.0</ele>
        <time>2018-10-12T10:06:43.000Z</time>
      </trkpt>
      <trkpt lat="30.9214458465576172" lon="-6.8976287841796875">
        <ele>1137.0</ele>
        <time>2018-10-12T10:06:44.000Z</time>
      </trkpt>
      <trkpt lat="30.9215087890625000" lon="-6.8975939750671387">
        <ele>1136.3826904296875</ele>
        <time>2018-10-12T10:06:45.000Z</time>
      </trkpt>
      <trkpt lat="30.9215755462646484" lon="-6.8975567817687988">
        <ele>1136.0</ele>
        <time>2018-10-12T10:06:46.000Z</time>
      </trkpt>
      <trkpt lat="30.9216442108154297" lon="-6.8975200653076172">
        <ele>1136.0</ele>
        <time>2018-10-12T10:06:47.000Z</time>
      </trkpt>
      <trkpt lat="30.9217147827148438" lon="-6.8974809646606445">
        <ele>1135.178955078125</ele>
        <time>2018-10-12T10:06:48.000Z</time>
      </trkpt>
      <trkpt lat="30.9217853546142578" lon="-6.8974390029907227">
        <ele>1135.0</ele>
        <time>2018-10-12T10:06:49.000Z</time>
      </trkpt>
      <trkpt lat="30.9218578338623047" lon="-6.8973970413208008">
        <ele>1135.0</ele>
        <time>2018-10-12T10:06:50.000Z</time>
      </trkpt>
      <trkpt lat="30.9219322204589844" lon="-6.8973541259765625">
        <ele>1134.3902587890625</ele>
        <time>2018-10-12T10:06:51.000Z</time>
      </trkpt>
      <trkpt lat="30.9220066070556641" lon="-6.8973121643066406">
        <ele>1134.0</ele>
        <time>2018-10-12T10:06:52.000Z</time>
      </trkpt>
      <trkpt lat="30.9220790863037109" lon="-6.8972711563110352">
        <ele>1134.0</ele>
        <time>2018-10-12T10:06:53.000Z</time>
      </trkpt>
      <trkpt lat="30.9221515655517578" lon="-6.8972311019897461">
        <ele>1133.178955078125</ele>
        <time>2018-10-12T10:06:54.000Z</time>
      </trkpt>
      <trkpt lat="30.9222221374511719" lon="-6.8971920013427734">
        <ele>1133.0</ele>
        <time>2018-10-12T10:06:55.000Z</time>
      </trkpt>
      <trkpt lat="30.9222908020019531" lon="-6.8971529006958008">
        <ele>1133.0</ele>
        <time>2018-10-12T10:06:56.000Z</time>
      </trkpt>
      <trkpt lat="30.9223556518554688" lon="-6.8971161842346191">
        <ele>1133.0</ele>
        <time>2018-10-12T10:06:57.000Z</time>
      </trkpt>
      <trkpt lat="30.9224205017089844" lon="-6.8970808982849121">
        <ele>1133.0</ele>
        <time>2018-10-12T10:06:58.000Z</time>
      </trkpt>
      <trkpt lat="30.9224815368652344" lon="-6.8970489501953125">
        <ele>1133.0</ele>
        <time>2018-10-12T10:06:59.000Z</time>
      </trkpt>
      <trkpt lat="30.9225406646728516" lon="-6.8970160484313965">
        <ele>1132.178955078125</ele>
        <time>2018-10-12T10:07:00.000Z</time>
      </trkpt>
      <trkpt lat="30.9225997924804688" lon="-6.8969831466674805">
        <ele>1132.0</ele>
        <time>2018-10-12T10:07:01.000Z</time>
      </trkpt>
      <trkpt lat="30.9226531982421875" lon="-6.8969521522521973">
        <ele>1132.0</ele>
        <time>2018-10-12T10:07:02.000Z</time>
      </trkpt>
      <trkpt lat="30.9227066040039062" lon="-6.8969230651855469">
        <ele>1132.0</ele>
        <time>2018-10-12T10:07:03.000Z</time>
      </trkpt>
      <trkpt lat="30.9227581024169922" lon="-6.8968958854675293">
        <ele>1132.0</ele>
        <time>2018-10-12T10:07:04.000Z</time>
      </trkpt>
      <trkpt lat="30.9228096008300781" lon="-6.8968682289123535">
        <ele>1132.0</ele>
        <time>2018-10-12T10:07:05.000Z</time>
      </trkpt>
      <trkpt lat="30.9228572845458984" lon="-6.8968348503112793">
        <ele>1132.0</ele>
        <time>2018-10-12T10:07:06.000Z</time>
      </trkpt>
      <trkpt lat="30.9229011535644531" lon="-6.8967981338500977">
        <ele>1132.0</ele>
        <time>2018-10-12T10:07:07.000Z</time>
      </trkpt>
      <trkpt lat="30.9229431152343750" lon="-6.8967609405517578">
        <ele>1132.0</ele>
        <time>2018-10-12T10:07:08.000Z</time>
      </trkpt>
      <trkpt lat="30.9229850769042969" lon="-6.8967270851135254">
        <ele>1132.0</ele>
        <time>2018-10-12T10:07:09.000Z</time>
      </trkpt>
      <trkpt lat="30.9230289459228516" lon="-6.8966932296752930">
        <ele>1132.0</ele>
        <time>2018-10-12T10:07:10.000Z</time>
      </trkpt>
      <trkpt lat="30.9230670928955078" lon="-6.8966569900512695">
        <ele>1132.0</ele>
        <time>2018-10-12T10:07:11.000Z</time>
      </trkpt>
      <trkpt lat="30.9231052398681641" lon="-6.8966212272644043">
        <ele>1132.0</ele>
        <time>2018-10-12T10:07:12.000Z</time>
      </trkpt>
      <trkpt lat="30.9231433868408203" lon="-6.8965830802917480">
        <ele>1131.1871337890625</ele>
        <time>2018-10-12T10:07:13.000Z</time>
      </trkpt>
      <trkpt lat="30.9231777191162109" lon="-6.8965430259704590">
        <ele>1131.0</ele>
        <time>2018-10-12T10:07:14.000Z</time>
      </trkpt>
      <trkpt lat="30.9232120513916016" lon="-6.8965039253234863">
        <ele>1131.0</ele>
        <time>2018-10-12T10:07:15.000Z</time>
      </trkpt>
      <trkpt lat="30.9232463836669922" lon="-6.8964638710021973">
        <ele>1131.0</ele>
        <time>2018-10-12T10:07:16.000Z</time>
      </trkpt>
      <trkpt lat="30.9232807159423828" lon="-6.8964238166809082">
        <ele>1131.0</ele>
        <time>2018-10-12T10:07:17.000Z</time>
      </trkpt>
      <trkpt lat="30.9233131408691406" lon="-6.8963837623596191">
        <ele>1131.0</ele>
        <time>2018-10-12T10:07:18.000Z</time>
      </trkpt>
      <trkpt lat="30.9233455657958984" lon="-6.8963441848754883">
        <ele>1130.1871337890625</ele>
        <time>2018-10-12T10:07:19.000Z</time>
      </trkpt>
      <trkpt lat="30.9233741760253906" lon="-6.8963031768798828">
        <ele>1130.0</ele>
        <time>2018-10-12T10:07:20.000Z</time>
      </trkpt>
      <trkpt lat="30.9234008789062500" lon="-6.8962621688842773">
        <ele>1130.0</ele>
        <time>2018-10-12T10:07:21.000Z</time>
      </trkpt>
      <trkpt lat="30.9234256744384766" lon="-6.8962211608886719">
        <ele>1130.821044921875</ele>
        <time>2018-10-12T10:07:22.000Z</time>
      </trkpt>
      <trkpt lat="30.9234485626220703" lon="-6.8961811065673828">
        <ele>1131.0</ele>
        <time>2018-10-12T10:07:23.000Z</time>
      </trkpt>
      <trkpt lat="30.9234695434570312" lon="-6.8961410522460938">
        <ele>1131.0</ele>
        <time>2018-10-12T10:07:24.000Z</time>
      </trkpt>
      <trkpt lat="30.9234886169433594" lon="-6.8961009979248047">
        <ele>1131.0</ele>
        <time>2018-10-12T10:07:25.000Z</time>
      </trkpt>
      <trkpt lat="30.9235076904296875" lon="-6.8960590362548828">
        <ele>1131.0</ele>
        <time>2018-10-12T10:07:26.000Z</time>
      </trkpt>
      <trkpt lat="30.9235248565673828" lon="-6.8960161209106445">
        <ele>1131.0</ele>
        <time>2018-10-12T10:07:27.000Z</time>
      </trkpt>
      <trkpt lat="30.9235439300537109" lon="-6.8959717750549316">
        <ele>1131.0</ele>
        <time>2018-10-12T10:07:28.000Z</time>
      </trkpt>
      <trkpt lat="30.9235610961914062" lon="-6.8959269523620605">
        <ele>1131.0</ele>
        <time>2018-10-12T10:07:29.000Z</time>
      </trkpt>
      <trkpt lat="30.9235782623291016" lon="-6.8958821296691895">
        <ele>1131.0</ele>
        <time>2018-10-12T10:07:30.000Z</time>
      </trkpt>
      <trkpt lat="30.9235935211181641" lon="-6.8958392143249512">
        <ele>1131.0</ele>
        <time>2018-10-12T10:07:31.000Z</time>
      </trkpt>
      <trkpt lat="30.9236068725585938" lon="-6.8957958221435547">
        <ele>1131.0</ele>
        <time>2018-10-12T10:07:32.000Z</time>
      </trkpt>
      <trkpt lat="30.9236183166503906" lon="-6.8957529067993164">
        <ele>1130.1871337890625</ele>
        <time>2018-10-12T10:07:33.000Z</time>
      </trkpt>
      <trkpt lat="30.9236316680908203" lon="-6.8957109451293945">
        <ele>1130.0</ele>
        <time>2018-10-12T10:07:34.000Z</time>
      </trkpt>
      <trkpt lat="30.9236431121826172" lon="-6.8956708908081055">
        <ele>1130.0</ele>
        <time>2018-10-12T10:07:35.000Z</time>
      </trkpt>
      <trkpt lat="30.9236545562744141" lon="-6.8956308364868164">
        <ele>1130.0</ele>
        <time>2018-10-12T10:07:36.000Z</time>
      </trkpt>
      <trkpt lat="30.9236640930175781" lon="-6.8955922126770020">
        <ele>1130.0</ele>
        <time>2018-10-12T10:07:37.000Z</time>
      </trkpt>
      <trkpt lat="30.9236755371093750" lon="-6.8955521583557129">
        <ele>1130.0</ele>
        <time>2018-10-12T10:07:38.000Z</time>
      </trkpt>
      <trkpt lat="30.9236850738525391" lon="-6.8955111503601074">
        <ele>1130.0</ele>
        <time>2018-10-12T10:07:39.000Z</time>
      </trkpt>
      <trkpt lat="30.9236927032470703" lon="-6.8954691886901855">
        <ele>1130.0</ele>
        <time>2018-10-12T10:07:40.000Z</time>
      </trkpt>
      <trkpt lat="30.9237003326416016" lon="-6.8954257965087891">
        <ele>1130.0</ele>
        <time>2018-10-12T10:07:41.000Z</time>
      </trkpt>
      <trkpt lat="30.9237098693847656" lon="-6.8953838348388672">
        <ele>1130.0</ele>
        <time>2018-10-12T10:07:42.000Z</time>
      </trkpt>
      <trkpt lat="30.9237194061279297" lon="-6.8953509330749512">
        <ele>1130.7406005859375</ele>
        <time>2018-10-12T10:07:43.000Z</time>
      </trkpt>
      <trkpt lat="30.9237346649169922" lon="-6.8953242301940918">
        <ele>1131.0</ele>
        <time>2018-10-12T10:07:44.000Z</time>
      </trkpt>
      <trkpt lat="30.9237575531005859" lon="-6.8953027725219727">
        <ele>1131.0</ele>
        <time>2018-10-12T10:07:45.000Z</time>
      </trkpt>
      <trkpt lat="30.9237804412841797" lon="-6.8952941894531250">
        <ele>1131.0</ele>
        <time>2018-10-12T10:07:46.000Z</time>
      </trkpt>
      <trkpt lat="30.9238052368164062" lon="-6.8952989578247070">
        <ele>1131.0</ele>
        <time>2018-10-12T10:07:47.000Z</time>
      </trkpt>
      <trkpt lat="30.9238281250000000" lon="-6.8953108787536621">
        <ele>1131.0</ele>
        <time>2018-10-12T10:07:48.000Z</time>
      </trkpt>
      <trkpt lat="30.9238567352294922" lon="-6.8953251838684082">
        <ele>1131.0</ele>
        <time>2018-10-12T10:07:49.000Z</time>
      </trkpt>
      <trkpt lat="30.9238872528076172" lon="-6.8953390121459961">
        <ele>1131.0</ele>
        <time>2018-10-12T10:07:50.000Z</time>
      </trkpt>
      <trkpt lat="30.9239215850830078" lon="-6.8953518867492676">
        <ele>1131.0</ele>
        <time>2018-10-12T10:07:51.000Z</time>
      </trkpt>
      <trkpt lat="30.9239597320556641" lon="-6.8953661918640137">
        <ele>1131.0</ele>
        <time>2018-10-12T10:07:52.000Z</time>
      </trkpt>
      <trkpt lat="30.9239978790283203" lon="-6.8953809738159180">
        <ele>1131.0</ele>
        <time>2018-10-12T10:07:53.000Z</time>
      </trkpt>
      <trkpt lat="30.9240398406982422" lon="-6.8953948020935059">
        <ele>1131.0</ele>
        <time>2018-10-12T10:07:54.000Z</time>
      </trkpt>
      <trkpt lat="30.9240837097167969" lon="-6.8954100608825684">
        <ele>1131.0</ele>
        <time>2018-10-12T10:07:55.000Z</time>
      </trkpt>
      <trkpt lat="30.9241275787353516" lon="-6.8954272270202637">
        <ele>1130.3826904296875</ele>
        <time>2018-10-12T10:07:56.000Z</time>
      </trkpt>
      <trkpt lat="30.9241733551025391" lon="-6.8954439163208008">
        <ele>1130.0</ele>
        <time>2018-10-12T10:07:57.000Z</time>
      </trkpt>
      <trkpt lat="30.9242210388183594" lon="-6.8954601287841797">
        <ele>1130.0</ele>
        <time>2018-10-12T10:07:58.000Z</time>
      </trkpt>
      <trkpt lat="30.9242706298828125" lon="-6.8954768180847168">
        <ele>1130.0</ele>
        <time>2018-10-12T10:07:59.000Z</time>
      </trkpt>
      <trkpt lat="30.9243183135986328" lon="-6.8954949378967285">
        <ele>1130.0</ele>
        <time>2018-10-12T10:08:00.000Z</time>
      </trkpt>
      <trkpt lat="30.9243659973144531" lon="-6.8955130577087402">
        <ele>1130.0</ele>
        <time>2018-10-12T10:08:01.000Z</time>
      </trkpt>
      <trkpt lat="30.9244136810302734" lon="-6.8955302238464355">
        <ele>1130.0</ele>
        <time>2018-10-12T10:08:02.000Z</time>
      </trkpt>
      <trkpt lat="30.9244613647460938" lon="-6.8955469131469727">
        <ele>1130.0</ele>
        <time>2018-10-12T10:08:03.000Z</time>
      </trkpt>
      <trkpt lat="30.9245128631591797" lon="-6.8955631256103516">
        <ele>1130.0</ele>
        <time>2018-10-12T10:08:04.000Z</time>
      </trkpt>
      <trkpt lat="30.9245586395263672" lon="-6.8955807685852051">
        <ele>1130.0</ele>
        <time>2018-10-12T10:08:05.000Z</time>
      </trkpt>
      <trkpt lat="30.9246063232421875" lon="-6.8955979347229004">
        <ele>1130.0</ele>
        <time>2018-10-12T10:08:06.000Z</time>
      </trkpt>
      <trkpt lat="30.9246540069580078" lon="-6.8956141471862793">
        <ele>1130.0</ele>
        <time>2018-10-12T10:08:07.000Z</time>
      </trkpt>
      <trkpt lat="30.9246997833251953" lon="-6.8956317901611328">
        <ele>1130.0</ele>
        <time>2018-10-12T10:08:08.000Z</time>
      </trkpt>
      <trkpt lat="30.9247436523437500" lon="-6.8956489562988281">
        <ele>1130.0</ele>
        <time>2018-10-12T10:08:09.000Z</time>
      </trkpt>
      <trkpt lat="30.9247894287109375" lon="-6.8956651687622070">
        <ele>1130.0</ele>
        <time>2018-10-12T10:08:10.000Z</time>
      </trkpt>
      <trkpt lat="30.9248352050781250" lon="-6.8956809043884277">
        <ele>1130.0</ele>
        <time>2018-10-12T10:08:11.000Z</time>
      </trkpt>
      <trkpt lat="30.9248847961425781" lon="-6.8956980705261230">
        <ele>1130.0</ele>
        <time>2018-10-12T10:08:12.000Z</time>
      </trkpt>
      <trkpt lat="30.9249324798583984" lon="-6.8957152366638184">
        <ele>1130.0</ele>
        <time>2018-10-12T10:08:13.000Z</time>
      </trkpt>
      <trkpt lat="30.9249801635742188" lon="-6.8957328796386719">
        <ele>1130.0</ele>
        <time>2018-10-12T10:08:14.000Z</time>
      </trkpt>
      <trkpt lat="30.9250278472900391" lon="-6.8957509994506836">
        <ele>1130.821044921875</ele>
        <time>2018-10-12T10:08:15.000Z</time>
      </trkpt>
      <trkpt lat="30.9250774383544922" lon="-6.8957681655883789">
        <ele>1131.0</ele>
        <time>2018-10-12T10:08:16.000Z</time>
      </trkpt>
      <trkpt lat="30.9251251220703125" lon="-6.8957848548889160">
        <ele>1131.0</ele>
        <time>2018-10-12T10:08:17.000Z</time>
      </trkpt>
      <trkpt lat="30.9251747131347656" lon="-6.8958029747009277">
        <ele>1131.0</ele>
        <time>2018-10-12T10:08:18.000Z</time>
      </trkpt>
      <trkpt lat="30.9252223968505859" lon="-6.8958220481872559">
        <ele>1131.0</ele>
        <time>2018-10-12T10:08:19.000Z</time>
      </trkpt>
      <trkpt lat="30.9252719879150391" lon="-6.8958411216735840">
        <ele>1131.0</ele>
        <time>2018-10-12T10:08:20.000Z</time>
      </trkpt>
      <trkpt lat="30.9253215789794922" lon="-6.8958587646484375">
        <ele>1131.0</ele>
        <time>2018-10-12T10:08:21.000Z</time>
      </trkpt>
      <trkpt lat="30.9253711700439453" lon="-6.8958659172058105">
        <ele>1131.0</ele>
        <time>2018-10-12T10:08:22.000Z</time>
      </trkpt>
      <trkpt lat="30.9254226684570312" lon="-6.8958559036254883">
        <ele>1131.0</ele>
        <time>2018-10-12T10:08:23.000Z</time>
      </trkpt>
      <trkpt lat="30.9254665374755859" lon="-6.8958311080932617">
        <ele>1131.0</ele>
        <time>2018-10-12T10:08:24.000Z</time>
      </trkpt>
      <trkpt lat="30.9255084991455078" lon="-6.8958010673522949">
        <ele>1131.0</ele>
        <time>2018-10-12T10:08:25.000Z</time>
      </trkpt>
      <trkpt lat="30.9255504608154297" lon="-6.8957719802856445">
        <ele>1131.0</ele>
        <time>2018-10-12T10:08:26.000Z</time>
      </trkpt>
      <trkpt lat="30.9255924224853516" lon="-6.8957438468933105">
        <ele>1131.0</ele>
        <time>2018-10-12T10:08:27.000Z</time>
      </trkpt>
      <trkpt lat="30.9256343841552734" lon="-6.8957161903381348">
        <ele>1131.0</ele>
        <time>2018-10-12T10:08:28.000Z</time>
      </trkpt>
      <trkpt lat="30.9256782531738281" lon="-6.8956890106201172">
        <ele>1131.0</ele>
        <time>2018-10-12T10:08:29.000Z</time>
      </trkpt>
      <trkpt lat="30.9257183074951172" lon="-6.8956627845764160">
        <ele>1131.0</ele>
        <time>2018-10-12T10:08:30.000Z</time>
      </trkpt>
      <trkpt lat="30.9257583618164062" lon="-6.8956370353698730">
        <ele>1131.0</ele>
        <time>2018-10-12T10:08:31.000Z</time>
      </trkpt>
      <trkpt lat="30.9258003234863281" lon="-6.8956108093261719">
        <ele>1131.0</ele>
        <time>2018-10-12T10:08:32.000Z</time>
      </trkpt>
      <trkpt lat="30.9258384704589844" lon="-6.8955850601196289">
        <ele>1131.0</ele>
        <time>2018-10-12T10:08:33.000Z</time>
      </trkpt>
      <trkpt lat="30.9258785247802734" lon="-6.8955597877502441">
        <ele>1131.0</ele>
        <time>2018-10-12T10:08:34.000Z</time>
      </trkpt>
      <trkpt lat="30.9259166717529297" lon="-6.8955359458923340">
        <ele>1131.0</ele>
        <time>2018-10-12T10:08:35.000Z</time>
      </trkpt>
      <trkpt lat="30.9259548187255859" lon="-6.8955130577087402">
        <ele>1131.0</ele>
        <time>2018-10-12T10:08:36.000Z</time>
      </trkpt>
      <trkpt lat="30.9259910583496094" lon="-6.8954920768737793">
        <ele>1131.0</ele>
        <time>2018-10-12T10:08:37.000Z</time>
      </trkpt>
      <trkpt lat="30.9260253906250000" lon="-6.8954730033874512">
        <ele>1131.0</ele>
        <time>2018-10-12T10:08:38.000Z</time>
      </trkpt>
      <trkpt lat="30.9260578155517578" lon="-6.8954558372497559">
        <ele>1131.0</ele>
        <time>2018-10-12T10:08:39.000Z</time>
      </trkpt>
      <trkpt lat="30.9260826110839844" lon="-6.8954429626464844">
        <ele>1131.0</ele>
        <time>2018-10-12T10:08:40.000Z</time>
      </trkpt>
      <trkpt lat="30.9260997772216797" lon="-6.8954348564147949">
        <ele>1131.0</ele>
        <time>2018-10-12T10:08:41.000Z</time>
      </trkpt>
      <trkpt lat="30.9261379241943359" lon="-6.8954219818115234">
        <ele>1131.804931640625</ele>
        <time>2018-10-12T10:08:43.000Z</time>
      </trkpt>
      <trkpt lat="30.9261627197265625" lon="-6.8954071998596191">
        <ele>1132.0</ele>
        <time>2018-10-12T10:08:44.000Z</time>
      </trkpt>
      <trkpt lat="30.9261875152587891" lon="-6.8953871726989746">
        <ele>1131.178955078125</ele>
        <time>2018-10-12T10:08:45.000Z</time>
      </trkpt>
      <trkpt lat="30.9262142181396484" lon="-6.8953709602355957">
        <ele>1131.0</ele>
        <time>2018-10-12T10:08:46.000Z</time>
      </trkpt>
      <trkpt lat="30.9262409210205078" lon="-6.8953619003295898">
        <ele>1131.0</ele>
        <time>2018-10-12T10:08:47.000Z</time>
      </trkpt>
      <trkpt lat="30.9262695312500000" lon="-6.8953619003295898">
        <ele>1131.0</ele>
        <time>2018-10-12T10:08:48.000Z</time>
      </trkpt>
      <trkpt lat="30.9262943267822266" lon="-6.8953661918640137">
        <ele>1131.0</ele>
        <time>2018-10-12T10:08:49.000Z</time>
      </trkpt>
      <trkpt lat="30.9263191223144531" lon="-6.8953747749328613">
        <ele>1131.0</ele>
        <time>2018-10-12T10:08:50.000Z</time>
      </trkpt>
      <trkpt lat="30.9263381958007812" lon="-6.8953871726989746">
        <ele>1131.0</ele>
        <time>2018-10-12T10:08:51.000Z</time>
      </trkpt>
      <trkpt lat="30.9263591766357422" lon="-6.8954057693481445">
        <ele>1131.0</ele>
        <time>2018-10-12T10:08:52.000Z</time>
      </trkpt>
      <trkpt lat="30.9263858795166016" lon="-6.8954319953918457">
        <ele>1131.0</ele>
        <time>2018-10-12T10:08:53.000Z</time>
      </trkpt>
      <trkpt lat="30.9264163970947266" lon="-6.8954648971557617">
        <ele>1131.0</ele>
        <time>2018-10-12T10:08:54.000Z</time>
      </trkpt>
      <trkpt lat="30.9264488220214844" lon="-6.8955059051513672">
        <ele>1131.0</ele>
        <time>2018-10-12T10:08:55.000Z</time>
      </trkpt>
      <trkpt lat="30.9264774322509766" lon="-6.8955540657043457">
        <ele>1131.0</ele>
        <time>2018-10-12T10:08:56.000Z</time>
      </trkpt>
      <trkpt lat="30.9265079498291016" lon="-6.8956060409545898">
        <ele>1131.0</ele>
        <time>2018-10-12T10:08:57.000Z</time>
      </trkpt>
      <trkpt lat="30.9265365600585938" lon="-6.8956599235534668">
        <ele>1131.0</ele>
        <time>2018-10-12T10:08:58.000Z</time>
      </trkpt>
      <trkpt lat="30.9265575408935547" lon="-6.8957171440124512">
        <ele>1131.0</ele>
        <time>2018-10-12T10:08:59.000Z</time>
      </trkpt>
      <trkpt lat="30.9265785217285156" lon="-6.8957757949829102">
        <ele>1131.0</ele>
        <time>2018-10-12T10:09:00.000Z</time>
      </trkpt>
      <trkpt lat="30.9266033172607422" lon="-6.8958330154418945">
        <ele>1131.0</ele>
        <time>2018-10-12T10:09:01.000Z</time>
      </trkpt>
      <trkpt lat="30.9266319274902344" lon="-6.8958902359008789">
        <ele>1131.0</ele>
        <time>2018-10-12T10:09:02.000Z</time>
      </trkpt>
      <trkpt lat="30.9266605377197266" lon="-6.8959441184997559">
        <ele>1131.0</ele>
        <time>2018-10-12T10:09:03.000Z</time>
      </trkpt>
      <trkpt lat="30.9266872406005859" lon="-6.8959989547729492">
        <ele>1131.0</ele>
        <time>2018-10-12T10:09:04.000Z</time>
      </trkpt>
      <trkpt lat="30.9267139434814453" lon="-6.8960537910461426">
        <ele>1131.0</ele>
        <time>2018-10-12T10:09:05.000Z</time>
      </trkpt>
      <trkpt lat="30.9267387390136719" lon="-6.8961081504821777">
        <ele>1131.0</ele>
        <time>2018-10-12T10:09:06.000Z</time>
      </trkpt>
      <trkpt lat="30.9267635345458984" lon="-6.8961629867553711">
        <ele>1131.0</ele>
        <time>2018-10-12T10:09:07.000Z</time>
      </trkpt>
      <trkpt lat="30.9267883300781250" lon="-6.8962140083312988">
        <ele>1131.0</ele>
        <time>2018-10-12T10:09:08.000Z</time>
      </trkpt>
      <trkpt lat="30.9268188476562500" lon="-6.8962621688842773">
        <ele>1131.0</ele>
        <time>2018-10-12T10:09:09.000Z</time>
      </trkpt>
      <trkpt lat="30.9268608093261719" lon="-6.8962907791137695">
        <ele>1131.0</ele>
        <time>2018-10-12T10:09:10.000Z</time>
      </trkpt>
      <trkpt lat="30.9269046783447266" lon="-6.8963050842285156">
        <ele>1131.0</ele>
        <time>2018-10-12T10:09:11.000Z</time>
      </trkpt>
      <trkpt lat="30.9269466400146484" lon="-6.8963170051574707">
        <ele>1131.0</ele>
        <time>2018-10-12T10:09:12.000Z</time>
      </trkpt>
      <trkpt lat="30.9269790649414062" lon="-6.8963360786437988">
        <ele>1131.821044921875</ele>
        <time>2018-10-12T10:09:13.000Z</time>
      </trkpt>
      <trkpt lat="30.9270057678222656" lon="-6.8963642120361328">
        <ele>1132.0</ele>
        <time>2018-10-12T10:09:14.000Z</time>
      </trkpt>
      <trkpt lat="30.9270286560058594" lon="-6.8963961601257324">
        <ele>1132.0</ele>
        <time>2018-10-12T10:09:15.000Z</time>
      </trkpt>
      <trkpt lat="30.9270496368408203" lon="-6.8964319229125977">
        <ele>1132.0</ele>
        <time>2018-10-12T10:09:16.000Z</time>
      </trkpt>
      <trkpt lat="30.9270687103271484" lon="-6.8964710235595703">
        <ele>1132.0</ele>
        <time>2018-10-12T10:09:17.000Z</time>
      </trkpt>
      <trkpt lat="30.9270877838134766" lon="-6.8965120315551758">
        <ele>1132.0</ele>
        <time>2018-10-12T10:09:18.000Z</time>
      </trkpt>
      <trkpt lat="30.9271068572998047" lon="-6.8965501785278320">
        <ele>1132.0</ele>
        <time>2018-10-12T10:09:19.000Z</time>
      </trkpt>
      <trkpt lat="30.9271278381347656" lon="-6.8965921401977539">
        <ele>1132.0</ele>
        <time>2018-10-12T10:09:20.000Z</time>
      </trkpt>
      <trkpt lat="30.9271469116210938" lon="-6.8966341018676758">
        <ele>1132.0</ele>
        <time>2018-10-12T10:09:21.000Z</time>
      </trkpt>
      <trkpt lat="30.9271678924560547" lon="-6.8966760635375977">
        <ele>1132.0</ele>
        <time>2018-10-12T10:09:22.000Z</time>
      </trkpt>
      <trkpt lat="30.9271888732910156" lon="-6.8967161178588867">
        <ele>1132.0</ele>
        <time>2018-10-12T10:09:23.000Z</time>
      </trkpt>
      <trkpt lat="30.9272098541259766" lon="-6.8967580795288086">
        <ele>1132.0</ele>
        <time>2018-10-12T10:09:24.000Z</time>
      </trkpt>
      <trkpt lat="30.9272308349609375" lon="-6.8967990875244141">
        <ele>1132.0</ele>
        <time>2018-10-12T10:09:25.000Z</time>
      </trkpt>
      <trkpt lat="30.9272518157958984" lon="-6.8968381881713867">
        <ele>1132.0</ele>
        <time>2018-10-12T10:09:26.000Z</time>
      </trkpt>
      <trkpt lat="30.9272708892822266" lon="-6.8968777656555176">
        <ele>1132.0</ele>
        <time>2018-10-12T10:09:27.000Z</time>
      </trkpt>
      <trkpt lat="30.9272861480712891" lon="-6.8969202041625977">
        <ele>1132.0</ele>
        <time>2018-10-12T10:09:28.000Z</time>
      </trkpt>
      <trkpt lat="30.9272994995117188" lon="-6.8969640731811523">
        <ele>1132.0</ele>
        <time>2018-10-12T10:09:29.000Z</time>
      </trkpt>
      <trkpt lat="30.9273109436035156" lon="-6.8970041275024414">
        <ele>1131.178955078125</ele>
        <time>2018-10-12T10:09:30.000Z</time>
      </trkpt>
      <trkpt lat="30.9273185729980469" lon="-6.8970408439636230">
        <ele>1131.0</ele>
        <time>2018-10-12T10:09:31.000Z</time>
      </trkpt>
      <trkpt lat="30.9273185729980469" lon="-6.8970727920532227">
        <ele>1131.0</ele>
        <time>2018-10-12T10:09:32.000Z</time>
      </trkpt>
      <trkpt lat="30.9273166656494141" lon="-6.8970999717712402">
        <ele>1131.0</ele>
        <time>2018-10-12T10:09:33.000Z</time>
      </trkpt>
      <trkpt lat="30.9273204803466797" lon="-6.8971290588378906">
        <ele>1131.0</ele>
        <time>2018-10-12T10:09:35.000Z</time>
      </trkpt>
      <trkpt lat="30.9273471832275391" lon="-6.8971438407897949">
        <ele>1131.0</ele>
        <time>2018-10-12T10:12:44.000Z</time>
      </trkpt>
      <trkpt lat="30.9273567199707031" lon="-6.8971748352050781">
        <ele>1131.0</ele>
        <time>2018-10-12T10:12:46.000Z</time>
      </trkpt>
      <trkpt lat="30.9273529052734375" lon="-6.8972010612487793">
        <ele>1131.0</ele>
        <time>2018-10-12T10:12:48.000Z</time>
      </trkpt>
      <trkpt lat="30.9273433685302734" lon="-6.8972220420837402">
        <ele>1131.0</ele>
        <time>2018-10-12T10:12:50.000Z</time>
      </trkpt>
      <trkpt lat="30.9273185729980469" lon="-6.8972640037536621">
        <ele>1132.0</ele>
        <time>2018-10-12T10:12:56.000Z</time>
      </trkpt>
      <trkpt lat="30.9273052215576172" lon="-6.8972802162170410">
        <ele>1132.0</ele>
        <time>2018-10-12T10:12:57.000Z</time>
      </trkpt>
      <trkpt lat="30.9272994995117188" lon="-6.8973050117492676">
        <ele>1132.0</ele>
        <time>2018-10-12T10:12:58.000Z</time>
      </trkpt>
      <trkpt lat="30.9273033142089844" lon="-6.8973331451416016">
        <ele>1132.0</ele>
        <time>2018-10-12T10:12:59.000Z</time>
      </trkpt>
      <trkpt lat="30.9273128509521484" lon="-6.8973588943481445">
        <ele>1132.0</ele>
        <time>2018-10-12T10:13:00.000Z</time>
      </trkpt>
      <trkpt lat="30.9273242950439453" lon="-6.8973879814147949">
        <ele>1132.0</ele>
        <time>2018-10-12T10:13:01.000Z</time>
      </trkpt>
      <trkpt lat="30.9273338317871094" lon="-6.8974199295043945">
        <ele>1132.0</ele>
        <time>2018-10-12T10:13:02.000Z</time>
      </trkpt>
      <trkpt lat="30.9273471832275391" lon="-6.8974537849426270">
        <ele>1132.0</ele>
        <time>2018-10-12T10:13:03.000Z</time>
      </trkpt>
      <trkpt lat="30.9273605346679688" lon="-6.8974900245666504">
        <ele>1132.0</ele>
        <time>2018-10-12T10:13:04.000Z</time>
      </trkpt>
      <trkpt lat="30.9273757934570312" lon="-6.8975300788879395">
        <ele>1132.0</ele>
        <time>2018-10-12T10:13:05.000Z</time>
      </trkpt>
      <trkpt lat="30.9273910522460938" lon="-6.8975701332092285">
        <ele>1131.18896484375</ele>
        <time>2018-10-12T10:13:06.000Z</time>
      </trkpt>
      <trkpt lat="30.9274139404296875" lon="-6.8976092338562012">
        <ele>1131.81103515625</ele>
        <time>2018-10-12T10:13:07.000Z</time>
      </trkpt>
      <trkpt lat="30.9274368286132812" lon="-6.8976478576660156">
        <ele>1132.0</ele>
        <time>2018-10-12T10:13:08.000Z</time>
      </trkpt>
      <trkpt lat="30.9274597167968750" lon="-6.8976869583129883">
        <ele>1132.0</ele>
        <time>2018-10-12T10:13:09.000Z</time>
      </trkpt>
      <trkpt lat="30.9274806976318359" lon="-6.8977289199829102">
        <ele>1132.0</ele>
        <time>2018-10-12T10:13:10.000Z</time>
      </trkpt>
      <trkpt lat="30.9275035858154297" lon="-6.8977718353271484">
        <ele>1132.821044921875</ele>
        <time>2018-10-12T10:13:11.000Z</time>
      </trkpt>
      <trkpt lat="30.9275245666503906" lon="-6.8978152275085449">
        <ele>1133.0</ele>
        <time>2018-10-12T10:13:12.000Z</time>
      </trkpt>
      <trkpt lat="30.9275436401367188" lon="-6.8978581428527832">
        <ele>1133.0</ele>
        <time>2018-10-12T10:13:13.000Z</time>
      </trkpt>
      <trkpt lat="30.9275646209716797" lon="-6.8979020118713379">
        <ele>1133.0</ele>
        <time>2018-10-12T10:13:14.000Z</time>
      </trkpt>
      <trkpt lat="30.9275836944580078" lon="-6.8979468345642090">
        <ele>1133.0</ele>
        <time>2018-10-12T10:13:15.000Z</time>
      </trkpt>
      <trkpt lat="30.9276046752929688" lon="-6.8979921340942383">
        <ele>1133.0</ele>
        <time>2018-10-12T10:13:16.000Z</time>
      </trkpt>
      <trkpt lat="30.9276256561279297" lon="-6.8980379104614258">
        <ele>1133.0</ele>
        <time>2018-10-12T10:13:17.000Z</time>
      </trkpt>
      <trkpt lat="30.9276466369628906" lon="-6.8980860710144043">
        <ele>1133.0</ele>
        <time>2018-10-12T10:13:18.000Z</time>
      </trkpt>
      <trkpt lat="30.9276695251464844" lon="-6.8981328010559082">
        <ele>1133.0</ele>
        <time>2018-10-12T10:13:19.000Z</time>
      </trkpt>
      <trkpt lat="30.9276943206787109" lon="-6.8981800079345703">
        <ele>1133.0</ele>
        <time>2018-10-12T10:13:20.000Z</time>
      </trkpt>
      <trkpt lat="30.9277191162109375" lon="-6.8982272148132324">
        <ele>1133.0</ele>
        <time>2018-10-12T10:13:21.000Z</time>
      </trkpt>
      <trkpt lat="30.9277420043945312" lon="-6.8982758522033691">
        <ele>1133.0</ele>
        <time>2018-10-12T10:13:22.000Z</time>
      </trkpt>
      <trkpt lat="30.9277648925781250" lon="-6.8983249664306641">
        <ele>1133.0</ele>
        <time>2018-10-12T10:13:23.000Z</time>
      </trkpt>
      <trkpt lat="30.9277877807617188" lon="-6.8983759880065918">
        <ele>1133.0</ele>
        <time>2018-10-12T10:13:24.000Z</time>
      </trkpt>
      <trkpt lat="30.9278106689453125" lon="-6.8984270095825195">
        <ele>1133.0</ele>
        <time>2018-10-12T10:13:25.000Z</time>
      </trkpt>
      <trkpt lat="30.9278354644775391" lon="-6.8984789848327637">
        <ele>1133.0</ele>
        <time>2018-10-12T10:13:26.000Z</time>
      </trkpt>
      <trkpt lat="30.9278602600097656" lon="-6.8985319137573242">
        <ele>1133.0</ele>
        <time>2018-10-12T10:13:27.000Z</time>
      </trkpt>
      <trkpt lat="30.9278850555419922" lon="-6.8985857963562012">
        <ele>1133.0</ele>
        <time>2018-10-12T10:13:28.000Z</time>
      </trkpt>
      <trkpt lat="30.9279098510742188" lon="-6.8986401557922363">
        <ele>1133.0</ele>
        <time>2018-10-12T10:13:29.000Z</time>
      </trkpt>
      <trkpt lat="30.9279365539550781" lon="-6.8986949920654297">
        <ele>1133.0</ele>
        <time>2018-10-12T10:13:30.000Z</time>
      </trkpt>
      <trkpt lat="30.9279613494873047" lon="-6.8987507820129395">
        <ele>1133.0</ele>
        <time>2018-10-12T10:13:31.000Z</time>
      </trkpt>
      <trkpt lat="30.9279880523681641" lon="-6.8988070487976074">
        <ele>1133.0</ele>
        <time>2018-10-12T10:13:32.000Z</time>
      </trkpt>
      <trkpt lat="30.9280147552490234" lon="-6.8988637924194336">
        <ele>1133.0</ele>
        <time>2018-10-12T10:13:33.000Z</time>
      </trkpt>
      <trkpt lat="30.9280376434326172" lon="-6.8989219665527344">
        <ele>1133.0</ele>
        <time>2018-10-12T10:13:34.000Z</time>
      </trkpt>
      <trkpt lat="30.9280605316162109" lon="-6.8989810943603516">
        <ele>1133.0</ele>
        <time>2018-10-12T10:13:35.000Z</time>
      </trkpt>
      <trkpt lat="30.9280834197998047" lon="-6.8990378379821777">
        <ele>1133.821044921875</ele>
        <time>2018-10-12T10:13:36.000Z</time>
      </trkpt>
      <trkpt lat="30.9281101226806641" lon="-6.8990941047668457">
        <ele>1134.0</ele>
        <time>2018-10-12T10:13:37.000Z</time>
      </trkpt>
      <trkpt lat="30.9281368255615234" lon="-6.8991479873657227">
        <ele>1134.0</ele>
        <time>2018-10-12T10:13:38.000Z</time>
      </trkpt>
      <trkpt lat="30.9281616210937500" lon="-6.8992037773132324">
        <ele>1134.0</ele>
        <time>2018-10-12T10:13:39.000Z</time>
      </trkpt>
      <trkpt lat="30.9281845092773438" lon="-6.8992609977722168">
        <ele>1134.0</ele>
        <time>2018-10-12T10:13:40.000Z</time>
      </trkpt>
      <trkpt lat="30.9282073974609375" lon="-6.8993182182312012">
        <ele>1134.0</ele>
        <time>2018-10-12T10:13:41.000Z</time>
      </trkpt>
      <trkpt lat="30.9282264709472656" lon="-6.8993759155273438">
        <ele>1134.0</ele>
        <time>2018-10-12T10:13:42.000Z</time>
      </trkpt>
      <trkpt lat="30.9282436370849609" lon="-6.8994321823120117">
        <ele>1134.0</ele>
        <time>2018-10-12T10:13:43.000Z</time>
      </trkpt>
      <trkpt lat="30.9282588958740234" lon="-6.8994860649108887">
        <ele>1134.0</ele>
        <time>2018-10-12T10:13:44.000Z</time>
      </trkpt>
      <trkpt lat="30.9282722473144531" lon="-6.8995389938354492">
        <ele>1134.0</ele>
        <time>2018-10-12T10:13:45.000Z</time>
      </trkpt>
      <trkpt lat="30.9282855987548828" lon="-6.8995919227600098">
        <ele>1134.0</ele>
        <time>2018-10-12T10:13:46.000Z</time>
      </trkpt>
      <trkpt lat="30.9282970428466797" lon="-6.8996472358703613">
        <ele>1134.0</ele>
        <time>2018-10-12T10:13:47.000Z</time>
      </trkpt>
      <trkpt lat="30.9283065795898438" lon="-6.8997020721435547">
        <ele>1134.0</ele>
        <time>2018-10-12T10:13:48.000Z</time>
      </trkpt>
      <trkpt lat="30.9283123016357422" lon="-6.8997578620910645">
        <ele>1134.0</ele>
        <time>2018-10-12T10:13:49.000Z</time>
      </trkpt>
      <trkpt lat="30.9283180236816406" lon="-6.8998141288757324">
        <ele>1134.0</ele>
        <time>2018-10-12T10:13:50.000Z</time>
      </trkpt>
      <trkpt lat="30.9283199310302734" lon="-6.8998699188232422">
        <ele>1134.0</ele>
        <time>2018-10-12T10:13:51.000Z</time>
      </trkpt>
      <trkpt lat="30.9283180236816406" lon="-6.8999252319335938">
        <ele>1134.0</ele>
        <time>2018-10-12T10:13:52.000Z</time>
      </trkpt>
      <trkpt lat="30.9283123016357422" lon="-6.8999800682067871">
        <ele>1134.0</ele>
        <time>2018-10-12T10:13:53.000Z</time>
      </trkpt>
      <trkpt lat="30.9283065795898438" lon="-6.9000349044799805">
        <ele>1134.0</ele>
        <time>2018-10-12T10:13:54.000Z</time>
      </trkpt>
      <trkpt lat="30.9283027648925781" lon="-6.9000902175903320">
        <ele>1134.728759765625</ele>
        <time>2018-10-12T10:13:55.000Z</time>
      </trkpt>
      <trkpt lat="30.9282970428466797" lon="-6.9001460075378418">
        <ele>1135.0</ele>
        <time>2018-10-12T10:13:56.000Z</time>
      </trkpt>
      <trkpt lat="30.9282894134521484" lon="-6.9002032279968262">
        <ele>1135.0</ele>
        <time>2018-10-12T10:13:57.000Z</time>
      </trkpt>
      <trkpt lat="30.9282817840576172" lon="-6.9002580642700195">
        <ele>1135.0</ele>
        <time>2018-10-12T10:13:58.000Z</time>
      </trkpt>
      <trkpt lat="30.9282684326171875" lon="-6.9003138542175293">
        <ele>1134.373291015625</ele>
        <time>2018-10-12T10:13:59.000Z</time>
      </trkpt>
      <trkpt lat="30.9282569885253906" lon="-6.9003691673278809">
        <ele>1134.0</ele>
        <time>2018-10-12T10:14:00.000Z</time>
      </trkpt>
      <trkpt lat="30.9282455444335938" lon="-6.9004249572753906">
        <ele>1134.0</ele>
        <time>2018-10-12T10:14:01.000Z</time>
      </trkpt>
      <trkpt lat="30.9282321929931641" lon="-6.9004812240600586">
        <ele>1134.0</ele>
        <time>2018-10-12T10:14:02.000Z</time>
      </trkpt>
      <trkpt lat="30.9282188415527344" lon="-6.9005351066589355">
        <ele>1134.821044921875</ele>
        <time>2018-10-12T10:14:03.000Z</time>
      </trkpt>
      <trkpt lat="30.9282054901123047" lon="-6.9005899429321289">
        <ele>1135.0</ele>
        <time>2018-10-12T10:14:04.000Z</time>
      </trkpt>
      <trkpt lat="30.9281883239746094" lon="-6.9006438255310059">
        <ele>1135.0</ele>
        <time>2018-10-12T10:14:05.000Z</time>
      </trkpt>
      <trkpt lat="30.9281730651855469" lon="-6.9006972312927246">
        <ele>1134.178955078125</ele>
        <time>2018-10-12T10:14:06.000Z</time>
      </trkpt>
      <trkpt lat="30.9281578063964844" lon="-6.9007492065429688">
        <ele>1134.0</ele>
        <time>2018-10-12T10:14:07.000Z</time>
      </trkpt>
      <trkpt lat="30.9281425476074219" lon="-6.9008002281188965">
        <ele>1134.0</ele>
        <time>2018-10-12T10:14:08.000Z</time>
      </trkpt>
      <trkpt lat="30.9281272888183594" lon="-6.9008498191833496">
        <ele>1134.0</ele>
        <time>2018-10-12T10:14:09.000Z</time>
      </trkpt>
      <trkpt lat="30.9281158447265625" lon="-6.9008998870849609">
        <ele>1134.0</ele>
        <time>2018-10-12T10:14:10.000Z</time>
      </trkpt>
      <trkpt lat="30.9281044006347656" lon="-6.9009490013122559">
        <ele>1134.0</ele>
        <time>2018-10-12T10:14:11.000Z</time>
      </trkpt>
      <trkpt lat="30.9280948638916016" lon="-6.9009981155395508">
        <ele>1134.0</ele>
        <time>2018-10-12T10:14:12.000Z</time>
      </trkpt>
      <trkpt lat="30.9280834197998047" lon="-6.9010457992553711">
        <ele>1134.0</ele>
        <time>2018-10-12T10:14:13.000Z</time>
      </trkpt>
      <trkpt lat="30.9280719757080078" lon="-6.9010939598083496">
        <ele>1134.0</ele>
        <time>2018-10-12T10:14:14.000Z</time>
      </trkpt>
      <trkpt lat="30.9280605316162109" lon="-6.9011411666870117">
        <ele>1134.0</ele>
        <time>2018-10-12T10:14:15.000Z</time>
      </trkpt>
      <trkpt lat="30.9280490875244141" lon="-6.9011859893798828">
        <ele>1134.0</ele>
        <time>2018-10-12T10:14:16.000Z</time>
      </trkpt>
      <trkpt lat="30.9280376434326172" lon="-6.9012317657470703">
        <ele>1134.0</ele>
        <time>2018-10-12T10:14:17.000Z</time>
      </trkpt>
      <trkpt lat="30.9280281066894531" lon="-6.9012770652770996">
        <ele>1134.626708984375</ele>
        <time>2018-10-12T10:14:18.000Z</time>
      </trkpt>
      <trkpt lat="30.9280166625976562" lon="-6.9013199806213379">
        <ele>1135.0</ele>
        <time>2018-10-12T10:14:19.000Z</time>
      </trkpt>
      <trkpt lat="30.9280052185058594" lon="-6.9013609886169434">
        <ele>1135.7406005859375</ele>
        <time>2018-10-12T10:14:20.000Z</time>
      </trkpt>
      <trkpt lat="30.9279918670654297" lon="-6.9014010429382324">
        <ele>1136.0</ele>
        <time>2018-10-12T10:14:21.000Z</time>
      </trkpt>
      <trkpt lat="30.9279823303222656" lon="-6.9014420509338379">
        <ele>1136.0</ele>
        <time>2018-10-12T10:14:22.000Z</time>
      </trkpt>
      <trkpt lat="30.9279708862304688" lon="-6.9014811515808105">
        <ele>1136.8128662109375</ele>
        <time>2018-10-12T10:14:23.000Z</time>
      </trkpt>
      <trkpt lat="30.9279594421386719" lon="-6.9015169143676758">
        <ele>1137.0</ele>
        <time>2018-10-12T10:14:24.000Z</time>
      </trkpt>
      <trkpt lat="30.9279518127441406" lon="-6.9015498161315918">
        <ele>1137.0</ele>
        <time>2018-10-12T10:14:25.000Z</time>
      </trkpt>
      <trkpt lat="30.9279441833496094" lon="-6.9015808105468750">
        <ele>1137.0</ele>
        <time>2018-10-12T10:14:26.000Z</time>
      </trkpt>
      <trkpt lat="30.9279384613037109" lon="-6.9016079902648926">
        <ele>1137.0</ele>
        <time>2018-10-12T10:14:27.000Z</time>
      </trkpt>
      <trkpt lat="30.9279308319091797" lon="-6.9016318321228027">
        <ele>1137.0</ele>
        <time>2018-10-12T10:14:28.000Z</time>
      </trkpt>
      <trkpt lat="30.9279193878173828" lon="-6.9016609191894531">
        <ele>1137.0</ele>
        <time>2018-10-12T10:14:29.000Z</time>
      </trkpt>
      <trkpt lat="30.9279136657714844" lon="-6.9016971588134766">
        <ele>1137.821044921875</ele>
        <time>2018-10-12T10:14:30.000Z</time>
      </trkpt>
      <trkpt lat="30.9279212951660156" lon="-6.9017372131347656">
        <ele>1138.0</ele>
        <time>2018-10-12T10:14:31.000Z</time>
      </trkpt>
      <trkpt lat="30.9279384613037109" lon="-6.9017748832702637">
        <ele>1138.0</ele>
        <time>2018-10-12T10:14:32.000Z</time>
      </trkpt>
      <trkpt lat="30.9279575347900391" lon="-6.9018120765686035">
        <ele>1138.0</ele>
        <time>2018-10-12T10:14:33.000Z</time>
      </trkpt>
      <trkpt lat="30.9279747009277344" lon="-6.9018468856811523">
        <ele>1138.821044921875</ele>
        <time>2018-10-12T10:14:34.000Z</time>
      </trkpt>
      <trkpt lat="30.9279880523681641" lon="-6.9018759727478027">
        <ele>1139.0</ele>
        <time>2018-10-12T10:14:35.000Z</time>
      </trkpt>
      <trkpt lat="30.9280033111572266" lon="-6.9019021987915039">
        <ele>1139.0</ele>
        <time>2018-10-12T10:14:36.000Z</time>
      </trkpt>
      <trkpt lat="30.9280147552490234" lon="-6.9019260406494141">
        <ele>1139.0</ele>
        <time>2018-10-12T10:14:37.000Z</time>
      </trkpt>
      <trkpt lat="30.9280261993408203" lon="-6.9019498825073242">
        <ele>1139.0</ele>
        <time>2018-10-12T10:14:38.000Z</time>
      </trkpt>
      <trkpt lat="30.9280395507812500" lon="-6.9019751548767090">
        <ele>1139.821044921875</ele>
        <time>2018-10-12T10:14:39.000Z</time>
      </trkpt>
      <trkpt lat="30.9280490875244141" lon="-6.9019970893859863">
        <ele>1140.0</ele>
        <time>2018-10-12T10:14:40.000Z</time>
      </trkpt>
      <trkpt lat="30.9280662536621094" lon="-6.9020280838012695">
        <ele>1140.0</ele>
        <time>2018-10-12T10:14:42.000Z</time>
      </trkpt>
      <trkpt lat="30.9280815124511719" lon="-6.9020571708679199">
        <ele>1140.0</ele>
        <time>2018-10-12T10:14:44.000Z</time>
      </trkpt>
      <trkpt lat="30.9280967712402344" lon="-6.9020948410034180">
        <ele>1140.0</ele>
        <time>2018-10-12T10:14:46.000Z</time>
      </trkpt>
      <trkpt lat="30.9281063079833984" lon="-6.9021148681640625">
        <ele>1140.0</ele>
        <time>2018-10-12T10:14:47.000Z</time>
      </trkpt>
      <trkpt lat="30.9281139373779297" lon="-6.9021339416503906">
        <ele>1140.804931640625</ele>
        <time>2018-10-12T10:14:48.000Z</time>
      </trkpt>
      <trkpt lat="30.9281311035156250" lon="-6.9021677970886230">
        <ele>1142.0</ele>
        <time>2018-10-12T10:14:50.000Z</time>
      </trkpt>
      <trkpt lat="30.9281482696533203" lon="-6.9022021293640137">
        <ele>1142.0</ele>
        <time>2018-10-12T10:14:52.000Z</time>
      </trkpt>
      <trkpt lat="30.9281673431396484" lon="-6.9022397994995117">
        <ele>1143.0</ele>
        <time>2018-10-12T10:14:54.000Z</time>
      </trkpt>
      <trkpt lat="30.9281787872314453" lon="-6.9022622108459473">
        <ele>1143.0</ele>
        <time>2018-10-12T10:14:55.000Z</time>
      </trkpt>
      <trkpt lat="30.9281883239746094" lon="-6.9022831916809082">
        <ele>1143.0</ele>
        <time>2018-10-12T10:14:56.000Z</time>
      </trkpt>
      <trkpt lat="30.9281978607177734" lon="-6.9023041725158691">
        <ele>1143.0</ele>
        <time>2018-10-12T10:14:57.000Z</time>
      </trkpt>
      <trkpt lat="30.9282054901123047" lon="-6.9023227691650391">
        <ele>1143.0</ele>
        <time>2018-10-12T10:14:58.000Z</time>
      </trkpt>
      <trkpt lat="30.9282150268554688" lon="-6.9023408889770508">
        <ele>1143.0</ele>
        <time>2018-10-12T10:14:59.000Z</time>
      </trkpt>
      <trkpt lat="30.9282321929931641" lon="-6.9023761749267578">
        <ele>1142.0</ele>
        <time>2018-10-12T10:15:01.000Z</time>
      </trkpt>
      <trkpt lat="30.9282417297363281" lon="-6.9023947715759277">
        <ele>1142.81103515625</ele>
        <time>2018-10-12T10:15:02.000Z</time>
      </trkpt>
      <trkpt lat="30.9282512664794922" lon="-6.9024138450622559">
        <ele>1143.0</ele>
        <time>2018-10-12T10:15:03.000Z</time>
      </trkpt>
      <trkpt lat="30.9282608032226562" lon="-6.9024319648742676">
        <ele>1143.0</ele>
        <time>2018-10-12T10:15:04.000Z</time>
      </trkpt>
      <trkpt lat="30.9282684326171875" lon="-6.9024510383605957">
        <ele>1143.0</ele>
        <time>2018-10-12T10:15:05.000Z</time>
      </trkpt>
      <trkpt lat="30.9282894134521484" lon="-6.9024848937988281">
        <ele>1143.8192138671875</ele>
        <time>2018-10-12T10:15:07.000Z</time>
      </trkpt>
      <trkpt lat="30.9283008575439453" lon="-6.9025020599365234">
        <ele>1144.0</ele>
        <time>2018-10-12T10:15:08.000Z</time>
      </trkpt>
      <trkpt lat="30.9283103942871094" lon="-6.9025192260742188">
        <ele>1144.0</ele>
        <time>2018-10-12T10:15:09.000Z</time>
      </trkpt>
      <trkpt lat="30.9283218383789062" lon="-6.9025378227233887">
        <ele>1144.0</ele>
        <time>2018-10-12T10:15:10.000Z</time>
      </trkpt>
      <trkpt lat="30.9283332824707031" lon="-6.9025602340698242">
        <ele>1144.0</ele>
        <time>2018-10-12T10:15:11.000Z</time>
      </trkpt>
      <trkpt lat="30.9283466339111328" lon="-6.9025821685791016">
        <ele>1144.0</ele>
        <time>2018-10-12T10:15:12.000Z</time>
      </trkpt>
      <trkpt lat="30.9283580780029297" lon="-6.9026031494140625">
        <ele>1144.0</ele>
        <time>2018-10-12T10:15:13.000Z</time>
      </trkpt>
      <trkpt lat="30.9283714294433594" lon="-6.9026222229003906">
        <ele>1144.0</ele>
        <time>2018-10-12T10:15:14.000Z</time>
      </trkpt>
      <trkpt lat="30.9283847808837891" lon="-6.9026398658752441">
        <ele>1144.6239013671875</ele>
        <time>2018-10-12T10:15:15.000Z</time>
      </trkpt>
      <trkpt lat="30.9283962249755859" lon="-6.9026560783386230">
        <ele>1145.0</ele>
        <time>2018-10-12T10:15:16.000Z</time>
      </trkpt>
      <trkpt lat="30.9284229278564453" lon="-6.9026861190795898">
        <ele>1145.821044921875</ele>
        <time>2018-10-12T10:15:18.000Z</time>
      </trkpt>
      <trkpt lat="30.9284362792968750" lon="-6.9027028083801270">
        <ele>1146.0</ele>
        <time>2018-10-12T10:15:19.000Z</time>
      </trkpt>
      <trkpt lat="30.9284477233886719" lon="-6.9027199745178223">
        <ele>1146.0</ele>
        <time>2018-10-12T10:15:20.000Z</time>
      </trkpt>
      <trkpt lat="30.9284610748291016" lon="-6.9027371406555176">
        <ele>1146.0</ele>
        <time>2018-10-12T10:15:21.000Z</time>
      </trkpt>
      <trkpt lat="30.9284763336181641" lon="-6.9027528762817383">
        <ele>1146.0</ele>
        <time>2018-10-12T10:15:22.000Z</time>
      </trkpt>
      <trkpt lat="30.9284934997558594" lon="-6.9027662277221680">
        <ele>1146.0</ele>
        <time>2018-10-12T10:15:23.000Z</time>
      </trkpt>
      <trkpt lat="30.9285106658935547" lon="-6.9027800559997559">
        <ele>1146.0</ele>
        <time>2018-10-12T10:15:24.000Z</time>
      </trkpt>
      <trkpt lat="30.9285259246826172" lon="-6.9027948379516602">
        <ele>1146.0</ele>
        <time>2018-10-12T10:15:25.000Z</time>
      </trkpt>
      <trkpt lat="30.9285392761230469" lon="-6.9028100967407227">
        <ele>1146.80908203125</ele>
        <time>2018-10-12T10:15:26.000Z</time>
      </trkpt>
      <trkpt lat="30.9285545349121094" lon="-6.9028239250183105">
        <ele>1147.0</ele>
        <time>2018-10-12T10:15:27.000Z</time>
      </trkpt>
      <trkpt lat="30.9285697937011719" lon="-6.9028367996215820">
        <ele>1147.0</ele>
        <time>2018-10-12T10:15:28.000Z</time>
      </trkpt>
      <trkpt lat="30.9285831451416016" lon="-6.9028501510620117">
        <ele>1147.0</ele>
        <time>2018-10-12T10:15:29.000Z</time>
      </trkpt>
      <trkpt lat="30.9285984039306641" lon="-6.9028620719909668">
        <ele>1147.0</ele>
        <time>2018-10-12T10:15:30.000Z</time>
      </trkpt>
      <trkpt lat="30.9286136627197266" lon="-6.9028759002685547">
        <ele>1147.81103515625</ele>
        <time>2018-10-12T10:15:31.000Z</time>
      </trkpt>
      <trkpt lat="30.9286308288574219" lon="-6.9028887748718262">
        <ele>1148.0</ele>
        <time>2018-10-12T10:15:32.000Z</time>
      </trkpt>
      <trkpt lat="30.9286460876464844" lon="-6.9029002189636230">
        <ele>1148.0</ele>
        <time>2018-10-12T10:15:33.000Z</time>
      </trkpt>
      <trkpt lat="30.9286613464355469" lon="-6.9029130935668945">
        <ele>1148.0</ele>
        <time>2018-10-12T10:15:34.000Z</time>
      </trkpt>
      <trkpt lat="30.9286766052246094" lon="-6.9029259681701660">
        <ele>1148.0</ele>
        <time>2018-10-12T10:15:35.000Z</time>
      </trkpt>
      <trkpt lat="30.9286937713623047" lon="-6.9029388427734375">
        <ele>1148.0</ele>
        <time>2018-10-12T10:15:36.000Z</time>
      </trkpt>
      <trkpt lat="30.9287109375000000" lon="-6.9029507637023926">
        <ele>1148.0</ele>
        <time>2018-10-12T10:15:37.000Z</time>
      </trkpt>
      <trkpt lat="30.9287281036376953" lon="-6.9029650688171387">
        <ele>1148.821044921875</ele>
        <time>2018-10-12T10:15:38.000Z</time>
      </trkpt>
      <trkpt lat="30.9287471771240234" lon="-6.9029798507690430">
        <ele>1149.0</ele>
        <time>2018-10-12T10:15:39.000Z</time>
      </trkpt>
      <trkpt lat="30.9287681579589844" lon="-6.9029951095581055">
        <ele>1149.0</ele>
        <time>2018-10-12T10:15:40.000Z</time>
      </trkpt>
      <trkpt lat="30.9287929534912109" lon="-6.9030108451843262">
        <ele>1149.0</ele>
        <time>2018-10-12T10:15:41.000Z</time>
      </trkpt>
      <trkpt lat="30.9288177490234375" lon="-6.9030270576477051">
        <ele>1149.0</ele>
        <time>2018-10-12T10:15:42.000Z</time>
      </trkpt>
      <trkpt lat="30.9288406372070312" lon="-6.9030461311340332">
        <ele>1149.0</ele>
        <time>2018-10-12T10:15:43.000Z</time>
      </trkpt>
      <trkpt lat="30.9288673400878906" lon="-6.9030671119689941">
        <ele>1149.0</ele>
        <time>2018-10-12T10:15:44.000Z</time>
      </trkpt>
      <trkpt lat="30.9288959503173828" lon="-6.9030880928039551">
        <ele>1149.0</ele>
        <time>2018-10-12T10:15:45.000Z</time>
      </trkpt>
      <trkpt lat="30.9289226531982422" lon="-6.9031100273132324">
        <ele>1149.0</ele>
        <time>2018-10-12T10:15:46.000Z</time>
      </trkpt>
      <trkpt lat="30.9289512634277344" lon="-6.9031348228454590">
        <ele>1149.0</ele>
        <time>2018-10-12T10:15:47.000Z</time>
      </trkpt>
      <trkpt lat="30.9289760589599609" lon="-6.9031620025634766">
        <ele>1149.0</ele>
        <time>2018-10-12T10:15:48.000Z</time>
      </trkpt>
      <trkpt lat="30.9290027618408203" lon="-6.9031920433044434">
        <ele>1149.0</ele>
        <time>2018-10-12T10:15:49.000Z</time>
      </trkpt>
      <trkpt lat="30.9290294647216797" lon="-6.9032220840454102">
        <ele>1149.0</ele>
        <time>2018-10-12T10:15:50.000Z</time>
      </trkpt>
      <trkpt lat="30.9290561676025391" lon="-6.9032540321350098">
        <ele>1149.0</ele>
        <time>2018-10-12T10:15:51.000Z</time>
      </trkpt>
      <trkpt lat="30.9290809631347656" lon="-6.9032859802246094">
        <ele>1149.0</ele>
        <time>2018-10-12T10:15:52.000Z</time>
      </trkpt>
      <trkpt lat="30.9291057586669922" lon="-6.9033188819885254">
        <ele>1149.0</ele>
        <time>2018-10-12T10:15:53.000Z</time>
      </trkpt>
      <trkpt lat="30.9291286468505859" lon="-6.9033532142639160">
        <ele>1149.0</ele>
        <time>2018-10-12T10:15:54.000Z</time>
      </trkpt>
      <trkpt lat="30.9291553497314453" lon="-6.9033880233764648">
        <ele>1149.0</ele>
        <time>2018-10-12T10:15:55.000Z</time>
      </trkpt>
      <trkpt lat="30.9291820526123047" lon="-6.9034218788146973">
        <ele>1149.0</ele>
        <time>2018-10-12T10:15:56.000Z</time>
      </trkpt>
      <trkpt lat="30.9292106628417969" lon="-6.9034581184387207">
        <ele>1149.0</ele>
        <time>2018-10-12T10:15:57.000Z</time>
      </trkpt>
      <trkpt lat="30.9292392730712891" lon="-6.9034957885742188">
        <ele>1149.0</ele>
        <time>2018-10-12T10:15:58.000Z</time>
      </trkpt>
      <trkpt lat="30.9292678833007812" lon="-6.9035382270812988">
        <ele>1148.178955078125</ele>
        <time>2018-10-12T10:15:59.000Z</time>
      </trkpt>
      <trkpt lat="30.9292945861816406" lon="-6.9035830497741699">
        <ele>1148.0</ele>
        <time>2018-10-12T10:16:00.000Z</time>
      </trkpt>
      <trkpt lat="30.9293174743652344" lon="-6.9036321640014648">
        <ele>1148.0</ele>
        <time>2018-10-12T10:16:01.000Z</time>
      </trkpt>
      <trkpt lat="30.9293403625488281" lon="-6.9036841392517090">
        <ele>1148.0</ele>
        <time>2018-10-12T10:16:02.000Z</time>
      </trkpt>
      <trkpt lat="30.9293594360351562" lon="-6.9037380218505859">
        <ele>1148.0</ele>
        <time>2018-10-12T10:16:03.000Z</time>
      </trkpt>
      <trkpt lat="30.9293804168701172" lon="-6.9037938117980957">
        <ele>1148.0</ele>
        <time>2018-10-12T10:16:04.000Z</time>
      </trkpt>
      <trkpt lat="30.9293975830078125" lon="-6.9038529396057129">
        <ele>1148.0</ele>
        <time>2018-10-12T10:16:05.000Z</time>
      </trkpt>
      <trkpt lat="30.9294109344482422" lon="-6.9039130210876465">
        <ele>1148.0</ele>
        <time>2018-10-12T10:16:06.000Z</time>
      </trkpt>
      <trkpt lat="30.9294204711914062" lon="-6.9039731025695801">
        <ele>1148.0</ele>
        <time>2018-10-12T10:16:07.000Z</time>
      </trkpt>
      <trkpt lat="30.9294281005859375" lon="-6.9040331840515137">
        <ele>1148.0</ele>
        <time>2018-10-12T10:16:08.000Z</time>
      </trkpt>
      <trkpt lat="30.9294300079345703" lon="-6.9040918350219727">
        <ele>1148.0</ele>
        <time>2018-10-12T10:16:09.000Z</time>
      </trkpt>
      <trkpt lat="30.9294281005859375" lon="-6.9041500091552734">
        <ele>1148.0</ele>
        <time>2018-10-12T10:16:10.000Z</time>
      </trkpt>
      <trkpt lat="30.9294261932373047" lon="-6.9042091369628906">
        <ele>1148.0</ele>
        <time>2018-10-12T10:16:11.000Z</time>
      </trkpt>
      <trkpt lat="30.9294185638427734" lon="-6.9042677879333496">
        <ele>1148.0</ele>
        <time>2018-10-12T10:16:12.000Z</time>
      </trkpt>
      <trkpt lat="30.9294033050537109" lon="-6.9043278694152832">
        <ele>1148.0</ele>
        <time>2018-10-12T10:16:13.000Z</time>
      </trkpt>
      <trkpt lat="30.9293861389160156" lon="-6.9043879508972168">
        <ele>1148.0</ele>
        <time>2018-10-12T10:16:14.000Z</time>
      </trkpt>
      <trkpt lat="30.9293632507324219" lon="-6.9044461250305176">
        <ele>1148.0</ele>
        <time>2018-10-12T10:16:15.000Z</time>
      </trkpt>
      <trkpt lat="30.9293384552001953" lon="-6.9045009613037109">
        <ele>1148.6173095703125</ele>
        <time>2018-10-12T10:16:16.000Z</time>
      </trkpt>
      <trkpt lat="30.9293136596679688" lon="-6.9045557975769043">
        <ele>1149.0</ele>
        <time>2018-10-12T10:16:17.000Z</time>
      </trkpt>
      <trkpt lat="30.9292888641357422" lon="-6.9046101570129395">
        <ele>1149.0</ele>
        <time>2018-10-12T10:16:18.000Z</time>
      </trkpt>
      <trkpt lat="30.9292602539062500" lon="-6.9046630859375000">
        <ele>1149.0</ele>
        <time>2018-10-12T10:16:19.000Z</time>
      </trkpt>
      <trkpt lat="30.9292354583740234" lon="-6.9047179222106934">
        <ele>1149.0</ele>
        <time>2018-10-12T10:16:20.000Z</time>
      </trkpt>
      <trkpt lat="30.9292106628417969" lon="-6.9047732353210449">
        <ele>1149.0</ele>
        <time>2018-10-12T10:16:21.000Z</time>
      </trkpt>
      <trkpt lat="30.9291896820068359" lon="-6.9048309326171875">
        <ele>1149.0</ele>
        <time>2018-10-12T10:16:22.000Z</time>
      </trkpt>
      <trkpt lat="30.9291725158691406" lon="-6.9048910140991211">
        <ele>1149.821044921875</ele>
        <time>2018-10-12T10:16:23.000Z</time>
      </trkpt>
      <trkpt lat="30.9291591644287109" lon="-6.9049510955810547">
        <ele>1150.0</ele>
        <time>2018-10-12T10:16:24.000Z</time>
      </trkpt>
      <trkpt lat="30.9291496276855469" lon="-6.9050130844116211">
        <ele>1150.0</ele>
        <time>2018-10-12T10:16:25.000Z</time>
      </trkpt>
      <trkpt lat="30.9291477203369141" lon="-6.9050750732421875">
        <ele>1150.0</ele>
        <time>2018-10-12T10:16:26.000Z</time>
      </trkpt>
      <trkpt lat="30.9291515350341797" lon="-6.9051361083984375">
        <ele>1150.0</ele>
        <time>2018-10-12T10:16:27.000Z</time>
      </trkpt>
      <trkpt lat="30.9291610717773438" lon="-6.9051952362060547">
        <ele>1150.0</ele>
        <time>2018-10-12T10:16:28.000Z</time>
      </trkpt>
      <trkpt lat="30.9291725158691406" lon="-6.9052510261535645">
        <ele>1150.0</ele>
        <time>2018-10-12T10:16:29.000Z</time>
      </trkpt>
      <trkpt lat="30.9291858673095703" lon="-6.9053049087524414">
        <ele>1150.0</ele>
        <time>2018-10-12T10:16:30.000Z</time>
      </trkpt>
      <trkpt lat="30.9292011260986328" lon="-6.9053587913513184">
        <ele>1150.0</ele>
        <time>2018-10-12T10:16:31.000Z</time>
      </trkpt>
      <trkpt lat="30.9292182922363281" lon="-6.9054121971130371">
        <ele>1150.0</ele>
        <time>2018-10-12T10:16:32.000Z</time>
      </trkpt>
      <trkpt lat="30.9292392730712891" lon="-6.9054660797119141">
        <ele>1150.0</ele>
        <time>2018-10-12T10:16:33.000Z</time>
      </trkpt>
      <trkpt lat="30.9292659759521484" lon="-6.9055180549621582">
        <ele>1150.0</ele>
        <time>2018-10-12T10:16:34.000Z</time>
      </trkpt>
      <trkpt lat="30.9292945861816406" lon="-6.9055700302124023">
        <ele>1150.0</ele>
        <time>2018-10-12T10:16:35.000Z</time>
      </trkpt>
      <trkpt lat="30.9293193817138672" lon="-6.9056248664855957">
        <ele>1150.0</ele>
        <time>2018-10-12T10:16:36.000Z</time>
      </trkpt>
      <trkpt lat="30.9293403625488281" lon="-6.9056820869445801">
        <ele>1150.8128662109375</ele>
        <time>2018-10-12T10:16:37.000Z</time>
      </trkpt>
      <trkpt lat="30.9293594360351562" lon="-6.9057397842407227">
        <ele>1151.0</ele>
        <time>2018-10-12T10:16:38.000Z</time>
      </trkpt>
      <trkpt lat="30.9293804168701172" lon="-6.9057979583740234">
        <ele>1151.0</ele>
        <time>2018-10-12T10:16:39.000Z</time>
      </trkpt>
      <trkpt lat="30.9293994903564453" lon="-6.9058551788330078">
        <ele>1151.0</ele>
        <time>2018-10-12T10:16:40.000Z</time>
      </trkpt>
      <trkpt lat="30.9294223785400391" lon="-6.9059119224548340">
        <ele>1151.0</ele>
        <time>2018-10-12T10:16:41.000Z</time>
      </trkpt>
      <trkpt lat="30.9294490814208984" lon="-6.9059658050537109">
        <ele>1151.0</ele>
        <time>2018-10-12T10:16:42.000Z</time>
      </trkpt>
      <trkpt lat="30.9294776916503906" lon="-6.9060220718383789">
        <ele>1151.0</ele>
        <time>2018-10-12T10:16:43.000Z</time>
      </trkpt>
      <trkpt lat="30.9295024871826172" lon="-6.9060778617858887">
        <ele>1151.0</ele>
        <time>2018-10-12T10:16:44.000Z</time>
      </trkpt>
      <trkpt lat="30.9295253753662109" lon="-6.9061360359191895">
        <ele>1151.0</ele>
        <time>2018-10-12T10:16:45.000Z</time>
      </trkpt>
      <trkpt lat="30.9295482635498047" lon="-6.9061927795410156">
        <ele>1151.0</ele>
        <time>2018-10-12T10:16:46.000Z</time>
      </trkpt>
      <trkpt lat="30.9295692443847656" lon="-6.9062500000000000">
        <ele>1151.0</ele>
        <time>2018-10-12T10:16:47.000Z</time>
      </trkpt>
      <trkpt lat="30.9295921325683594" lon="-6.9063038825988770">
        <ele>1151.0</ele>
        <time>2018-10-12T10:16:48.000Z</time>
      </trkpt>
      <trkpt lat="30.9296112060546875" lon="-6.9063577651977539">
        <ele>1151.0</ele>
        <time>2018-10-12T10:16:49.000Z</time>
      </trkpt>
      <trkpt lat="30.9296302795410156" lon="-6.9064111709594727">
        <ele>1151.0</ele>
        <time>2018-10-12T10:16:50.000Z</time>
      </trkpt>
      <trkpt lat="30.9296493530273438" lon="-6.9064631462097168">
        <ele>1151.0</ele>
        <time>2018-10-12T10:16:51.000Z</time>
      </trkpt>
      <trkpt lat="30.9296684265136719" lon="-6.9065132141113281">
        <ele>1151.0</ele>
        <time>2018-10-12T10:16:52.000Z</time>
      </trkpt>
      <trkpt lat="30.9296875000000000" lon="-6.9065628051757812">
        <ele>1151.0</ele>
        <time>2018-10-12T10:16:53.000Z</time>
      </trkpt>
      <trkpt lat="30.9297046661376953" lon="-6.9066119194030762">
        <ele>1151.0</ele>
        <time>2018-10-12T10:16:54.000Z</time>
      </trkpt>
      <trkpt lat="30.9297237396240234" lon="-6.9066600799560547">
        <ele>1151.0</ele>
        <time>2018-10-12T10:16:55.000Z</time>
      </trkpt>
      <trkpt lat="30.9297428131103516" lon="-6.9067058563232422">
        <ele>1151.0</ele>
        <time>2018-10-12T10:16:56.000Z</time>
      </trkpt>
      <trkpt lat="30.9297580718994141" lon="-6.9067511558532715">
        <ele>1151.0</ele>
        <time>2018-10-12T10:16:57.000Z</time>
      </trkpt>
      <trkpt lat="30.9297733306884766" lon="-6.9067921638488770">
        <ele>1150.1871337890625</ele>
        <time>2018-10-12T10:16:58.000Z</time>
      </trkpt>
      <trkpt lat="30.9297885894775391" lon="-6.9068250656127930">
        <ele>1150.0</ele>
        <time>2018-10-12T10:16:59.000Z</time>
      </trkpt>
      <trkpt lat="30.9297962188720703" lon="-6.9068470001220703">
        <ele>1150.0</ele>
        <time>2018-10-12T10:17:00.000Z</time>
      </trkpt>
      <trkpt lat="30.9298057556152344" lon="-6.9068660736083984">
        <ele>1150.0</ele>
        <time>2018-10-12T10:17:01.000Z</time>
      </trkpt>
      <trkpt lat="30.9298171997070312" lon="-6.9068827629089355">
        <ele>1150.0</ele>
        <time>2018-10-12T10:17:02.000Z</time>
      </trkpt>
      <trkpt lat="30.9298477172851562" lon="-6.9069018363952637">
        <ele>1150.0</ele>
        <time>2018-10-12T10:17:04.000Z</time>
      </trkpt>
      <trkpt lat="30.9298648834228516" lon="-6.9069099426269531">
        <ele>1150.0</ele>
        <time>2018-10-12T10:17:05.000Z</time>
      </trkpt>
      <trkpt lat="30.9298858642578125" lon="-6.9069209098815918">
        <ele>1150.0</ele>
        <time>2018-10-12T10:17:06.000Z</time>
      </trkpt>
      <trkpt lat="30.9299087524414062" lon="-6.9069352149963379">
        <ele>1150.0</ele>
        <time>2018-10-12T10:17:07.000Z</time>
      </trkpt>
      <trkpt lat="30.9299354553222656" lon="-6.9069471359252930">
        <ele>1150.821044921875</ele>
        <time>2018-10-12T10:17:08.000Z</time>
      </trkpt>
      <trkpt lat="30.9299640655517578" lon="-6.9069499969482422">
        <ele>1151.0</ele>
        <time>2018-10-12T10:17:09.000Z</time>
      </trkpt>
      <trkpt lat="30.9299945831298828" lon="-6.9069361686706543">
        <ele>1151.0</ele>
        <time>2018-10-12T10:17:10.000Z</time>
      </trkpt>
      <trkpt lat="30.9300136566162109" lon="-6.9069099426269531">
        <ele>1151.0</ele>
        <time>2018-10-12T10:17:11.000Z</time>
      </trkpt>
      <trkpt lat="30.9300308227539062" lon="-6.9068779945373535">
        <ele>1151.0</ele>
        <time>2018-10-12T10:17:12.000Z</time>
      </trkpt>
      <trkpt lat="30.9300441741943359" lon="-6.9068431854248047">
        <ele>1150.3826904296875</ele>
        <time>2018-10-12T10:17:13.000Z</time>
      </trkpt>
      <trkpt lat="30.9300613403320312" lon="-6.9068040847778320">
        <ele>1150.0</ele>
        <time>2018-10-12T10:17:14.000Z</time>
      </trkpt>
      <trkpt lat="30.9300804138183594" lon="-6.9067649841308594">
        <ele>1150.0</ele>
        <time>2018-10-12T10:17:15.000Z</time>
      </trkpt>
      <trkpt lat="30.9301033020019531" lon="-6.9067268371582031">
        <ele>1150.0</ele>
        <time>2018-10-12T10:17:16.000Z</time>
      </trkpt>
      <trkpt lat="30.9301242828369141" lon="-6.9066891670227051">
        <ele>1150.0</ele>
        <time>2018-10-12T10:17:17.000Z</time>
      </trkpt>
      <trkpt lat="30.9301452636718750" lon="-6.9066481590270996">
        <ele>1150.0</ele>
        <time>2018-10-12T10:17:18.000Z</time>
      </trkpt>
      <trkpt lat="30.9301700592041016" lon="-6.9066038131713867">
        <ele>1150.0</ele>
        <time>2018-10-12T10:17:19.000Z</time>
      </trkpt>
      <trkpt lat="30.9301967620849609" lon="-6.9065561294555664">
        <ele>1150.0</ele>
        <time>2018-10-12T10:17:20.000Z</time>
      </trkpt>
      <trkpt lat="30.9302272796630859" lon="-6.9065070152282715">
        <ele>1150.0</ele>
        <time>2018-10-12T10:17:21.000Z</time>
      </trkpt>
      <trkpt lat="30.9302597045898438" lon="-6.9064569473266602">
        <ele>1150.0</ele>
        <time>2018-10-12T10:17:22.000Z</time>
      </trkpt>
      <trkpt lat="30.9302978515625000" lon="-6.9064078330993652">
        <ele>1150.0</ele>
        <time>2018-10-12T10:17:23.000Z</time>
      </trkpt>
      <trkpt lat="30.9303359985351562" lon="-6.9063601493835449">
        <ele>1150.0</ele>
        <time>2018-10-12T10:17:24.000Z</time>
      </trkpt>
      <trkpt lat="30.9303760528564453" lon="-6.9063119888305664">
        <ele>1150.0</ele>
        <time>2018-10-12T10:17:25.000Z</time>
      </trkpt>
      <trkpt lat="30.9304161071777344" lon="-6.9062628746032715">
        <ele>1150.0</ele>
        <time>2018-10-12T10:17:26.000Z</time>
      </trkpt>
      <trkpt lat="30.9304561614990234" lon="-6.9062142372131348">
        <ele>1150.0</ele>
        <time>2018-10-12T10:17:27.000Z</time>
      </trkpt>
      <trkpt lat="30.9304981231689453" lon="-6.9061660766601562">
        <ele>1149.373291015625</ele>
        <time>2018-10-12T10:17:28.000Z</time>
      </trkpt>
      <trkpt lat="30.9305438995361328" lon="-6.9061179161071777">
        <ele>1149.0</ele>
        <time>2018-10-12T10:17:29.000Z</time>
      </trkpt>
      <trkpt lat="30.9305858612060547" lon="-6.9060688018798828">
        <ele>1149.0</ele>
        <time>2018-10-12T10:17:30.000Z</time>
      </trkpt>
      <trkpt lat="30.9306297302246094" lon="-6.9060211181640625">
        <ele>1149.0</ele>
        <time>2018-10-12T10:17:31.000Z</time>
      </trkpt>
      <trkpt lat="30.9306697845458984" lon="-6.9059739112854004">
        <ele>1149.0</ele>
        <time>2018-10-12T10:17:32.000Z</time>
      </trkpt>
      <trkpt lat="30.9307079315185547" lon="-6.9059290885925293">
        <ele>1149.0</ele>
        <time>2018-10-12T10:17:33.000Z</time>
      </trkpt>
      <trkpt lat="30.9307441711425781" lon="-6.9058880805969238">
        <ele>1149.0</ele>
        <time>2018-10-12T10:17:34.000Z</time>
      </trkpt>
      <trkpt lat="30.9307804107666016" lon="-6.9058480262756348">
        <ele>1149.0</ele>
        <time>2018-10-12T10:17:35.000Z</time>
      </trkpt>
      <trkpt lat="30.9308166503906250" lon="-6.9058079719543457">
        <ele>1149.0</ele>
        <time>2018-10-12T10:17:36.000Z</time>
      </trkpt>
      <trkpt lat="30.9308509826660156" lon="-6.9057688713073730">
        <ele>1149.0</ele>
        <time>2018-10-12T10:17:37.000Z</time>
      </trkpt>
      <trkpt lat="30.9308872222900391" lon="-6.9057297706604004">
        <ele>1148.18896484375</ele>
        <time>2018-10-12T10:17:38.000Z</time>
      </trkpt>
      <trkpt lat="30.9309215545654297" lon="-6.9056911468505859">
        <ele>1148.0</ele>
        <time>2018-10-12T10:17:39.000Z</time>
      </trkpt>
      <trkpt lat="30.9309539794921875" lon="-6.9056510925292969">
        <ele>1148.0</ele>
        <time>2018-10-12T10:17:40.000Z</time>
      </trkpt>
      <trkpt lat="30.9309844970703125" lon="-6.9056100845336914">
        <ele>1148.0</ele>
        <time>2018-10-12T10:17:41.000Z</time>
      </trkpt>
      <trkpt lat="30.9310169219970703" lon="-6.9055681228637695">
        <ele>1148.0</ele>
        <time>2018-10-12T10:17:42.000Z</time>
      </trkpt>
      <trkpt lat="30.9310493469238281" lon="-6.9055271148681641">
        <ele>1148.0</ele>
        <time>2018-10-12T10:17:43.000Z</time>
      </trkpt>
      <trkpt lat="30.9310817718505859" lon="-6.9054851531982422">
        <ele>1148.0</ele>
        <time>2018-10-12T10:17:44.000Z</time>
      </trkpt>
      <trkpt lat="30.9311161041259766" lon="-6.9054422378540039">
        <ele>1148.0</ele>
        <time>2018-10-12T10:17:45.000Z</time>
      </trkpt>
      <trkpt lat="30.9311523437500000" lon="-6.9053988456726074">
        <ele>1148.0</ele>
        <time>2018-10-12T10:17:46.000Z</time>
      </trkpt>
      <trkpt lat="30.9311904907226562" lon="-6.9053559303283691">
        <ele>1148.0</ele>
        <time>2018-10-12T10:17:47.000Z</time>
      </trkpt>
      <trkpt lat="30.9312286376953125" lon="-6.9053130149841309">
        <ele>1148.0</ele>
        <time>2018-10-12T10:17:48.000Z</time>
      </trkpt>
      <trkpt lat="30.9312667846679688" lon="-6.9052691459655762">
        <ele>1148.0</ele>
        <time>2018-10-12T10:17:49.000Z</time>
      </trkpt>
      <trkpt lat="30.9313068389892578" lon="-6.9052262306213379">
        <ele>1148.0</ele>
        <time>2018-10-12T10:17:50.000Z</time>
      </trkpt>
      <trkpt lat="30.9313449859619141" lon="-6.9051828384399414">
        <ele>1148.0</ele>
        <time>2018-10-12T10:17:51.000Z</time>
      </trkpt>
      <trkpt lat="30.9313850402832031" lon="-6.9051389694213867">
        <ele>1148.0</ele>
        <time>2018-10-12T10:17:52.000Z</time>
      </trkpt>
      <trkpt lat="30.9314250946044922" lon="-6.9050941467285156">
        <ele>1148.0</ele>
        <time>2018-10-12T10:17:53.000Z</time>
      </trkpt>
      <trkpt lat="30.9314632415771484" lon="-6.9050478935241699">
        <ele>1148.0</ele>
        <time>2018-10-12T10:17:54.000Z</time>
      </trkpt>
      <trkpt lat="30.9314994812011719" lon="-6.9050002098083496">
        <ele>1148.0</ele>
        <time>2018-10-12T10:17:55.000Z</time>
      </trkpt>
      <trkpt lat="30.9315395355224609" lon="-6.9049549102783203">
        <ele>1148.0</ele>
        <time>2018-10-12T10:17:56.000Z</time>
      </trkpt>
      <trkpt lat="30.9315776824951172" lon="-6.9049100875854492">
        <ele>1148.0</ele>
        <time>2018-10-12T10:17:57.000Z</time>
      </trkpt>
      <trkpt lat="30.9316177368164062" lon="-6.9048662185668945">
        <ele>1148.0</ele>
        <time>2018-10-12T10:17:58.000Z</time>
      </trkpt>
      <trkpt lat="30.9316558837890625" lon="-6.9048209190368652">
        <ele>1148.0</ele>
        <time>2018-10-12T10:17:59.000Z</time>
      </trkpt>
      <trkpt lat="30.9316959381103516" lon="-6.9047770500183105">
        <ele>1147.18896484375</ele>
        <time>2018-10-12T10:18:00.000Z</time>
      </trkpt>
      <trkpt lat="30.9317321777343750" lon="-6.9047307968139648">
        <ele>1147.0</ele>
        <time>2018-10-12T10:18:01.000Z</time>
      </trkpt>
      <trkpt lat="30.9317703247070312" lon="-6.9046859741210938">
        <ele>1147.0</ele>
        <time>2018-10-12T10:18:02.000Z</time>
      </trkpt>
      <trkpt lat="30.9318084716796875" lon="-6.9046411514282227">
        <ele>1147.0</ele>
        <time>2018-10-12T10:18:03.000Z</time>
      </trkpt>
      <trkpt lat="30.9318466186523438" lon="-6.9045958518981934">
        <ele>1147.0</ele>
        <time>2018-10-12T10:18:04.000Z</time>
      </trkpt>
      <trkpt lat="30.9318847656250000" lon="-6.9045491218566895">
        <ele>1147.0</ele>
        <time>2018-10-12T10:18:05.000Z</time>
      </trkpt>
      <trkpt lat="30.9319229125976562" lon="-6.9045028686523438">
        <ele>1147.0</ele>
        <time>2018-10-12T10:18:06.000Z</time>
      </trkpt>
      <trkpt lat="30.9319629669189453" lon="-6.9044570922851562">
        <ele>1147.0</ele>
        <time>2018-10-12T10:18:07.000Z</time>
      </trkpt>
      <trkpt lat="30.9320030212402344" lon="-6.9044098854064941">
        <ele>1147.0</ele>
        <time>2018-10-12T10:18:08.000Z</time>
      </trkpt>
      <trkpt lat="30.9320430755615234" lon="-6.9043622016906738">
        <ele>1147.0</ele>
        <time>2018-10-12T10:18:09.000Z</time>
      </trkpt>
      <trkpt lat="30.9320812225341797" lon="-6.9043149948120117">
        <ele>1146.3826904296875</ele>
        <time>2018-10-12T10:18:10.000Z</time>
      </trkpt>
      <trkpt lat="30.9321174621582031" lon="-6.9042668342590332">
        <ele>1146.0</ele>
        <time>2018-10-12T10:18:11.000Z</time>
      </trkpt>
      <trkpt lat="30.9321575164794922" lon="-6.9042201042175293">
        <ele>1146.0</ele>
        <time>2018-10-12T10:18:12.000Z</time>
      </trkpt>
      <trkpt lat="30.9321975708007812" lon="-6.9041719436645508">
        <ele>1146.0</ele>
        <time>2018-10-12T10:18:13.000Z</time>
      </trkpt>
      <trkpt lat="30.9322376251220703" lon="-6.9041252136230469">
        <ele>1146.0</ele>
        <time>2018-10-12T10:18:14.000Z</time>
      </trkpt>
      <trkpt lat="30.9322795867919922" lon="-6.9040789604187012">
        <ele>1146.0</ele>
        <time>2018-10-12T10:18:15.000Z</time>
      </trkpt>
      <trkpt lat="30.9323215484619141" lon="-6.9040298461914062">
        <ele>1146.0</ele>
        <time>2018-10-12T10:18:16.000Z</time>
      </trkpt>
      <trkpt lat="30.9323654174804688" lon="-6.9039797782897949">
        <ele>1146.0</ele>
        <time>2018-10-12T10:18:17.000Z</time>
      </trkpt>
      <trkpt lat="30.9324092864990234" lon="-6.9039292335510254">
        <ele>1146.0</ele>
        <time>2018-10-12T10:18:18.000Z</time>
      </trkpt>
      <trkpt lat="30.9324531555175781" lon="-6.9038767814636230">
        <ele>1146.0</ele>
        <time>2018-10-12T10:18:19.000Z</time>
      </trkpt>
      <trkpt lat="30.9324989318847656" lon="-6.9038248062133789">
        <ele>1146.0</ele>
        <time>2018-10-12T10:18:20.000Z</time>
      </trkpt>
      <trkpt lat="30.9325428009033203" lon="-6.9037728309631348">
        <ele>1146.0</ele>
        <time>2018-10-12T10:18:21.000Z</time>
      </trkpt>
      <trkpt lat="30.9325866699218750" lon="-6.9037218093872070">
        <ele>1146.0</ele>
        <time>2018-10-12T10:18:22.000Z</time>
      </trkpt>
      <trkpt lat="30.9326305389404297" lon="-6.9036707878112793">
        <ele>1146.0</ele>
        <time>2018-10-12T10:18:23.000Z</time>
      </trkpt>
      <trkpt lat="30.9326725006103516" lon="-6.9036221504211426">
        <ele>1146.0</ele>
        <time>2018-10-12T10:18:24.000Z</time>
      </trkpt>
      <trkpt lat="30.9327144622802734" lon="-6.9035730361938477">
        <ele>1146.0</ele>
        <time>2018-10-12T10:18:25.000Z</time>
      </trkpt>
      <trkpt lat="30.9327545166015625" lon="-6.9035229682922363">
        <ele>1146.0</ele>
        <time>2018-10-12T10:18:26.000Z</time>
      </trkpt>
      <trkpt lat="30.9327945709228516" lon="-6.9034738540649414">
        <ele>1145.3873291015625</ele>
        <time>2018-10-12T10:18:27.000Z</time>
      </trkpt>
      <trkpt lat="30.9328308105468750" lon="-6.9034228324890137">
        <ele>1145.0</ele>
        <time>2018-10-12T10:18:28.000Z</time>
      </trkpt>
      <trkpt lat="30.9328632354736328" lon="-6.9033679962158203">
        <ele>1145.0</ele>
        <time>2018-10-12T10:18:29.000Z</time>
      </trkpt>
      <trkpt lat="30.9328918457031250" lon="-6.9033122062683105">
        <ele>1145.0</ele>
        <time>2018-10-12T10:18:30.000Z</time>
      </trkpt>
      <trkpt lat="30.9329166412353516" lon="-6.9032549858093262">
        <ele>1145.0</ele>
        <time>2018-10-12T10:18:31.000Z</time>
      </trkpt>
      <trkpt lat="30.9329357147216797" lon="-6.9031958580017090">
        <ele>1145.0</ele>
        <time>2018-10-12T10:18:32.000Z</time>
      </trkpt>
      <trkpt lat="30.9329490661621094" lon="-6.9031357765197754">
        <ele>1145.0</ele>
        <time>2018-10-12T10:18:33.000Z</time>
      </trkpt>
      <trkpt lat="30.9329605102539062" lon="-6.9030728340148926">
        <ele>1145.0</ele>
        <time>2018-10-12T10:18:34.000Z</time>
      </trkpt>
      <trkpt lat="30.9329643249511719" lon="-6.9030070304870605">
        <ele>1145.0</ele>
        <time>2018-10-12T10:18:35.000Z</time>
      </trkpt>
      <trkpt lat="30.9329605102539062" lon="-6.9029397964477539">
        <ele>1145.0</ele>
        <time>2018-10-12T10:18:36.000Z</time>
      </trkpt>
      <trkpt lat="30.9329547882080078" lon="-6.9028730392456055">
        <ele>1145.0</ele>
        <time>2018-10-12T10:18:37.000Z</time>
      </trkpt>
      <trkpt lat="30.9329452514648438" lon="-6.9028072357177734">
        <ele>1145.0</ele>
        <time>2018-10-12T10:18:38.000Z</time>
      </trkpt>
      <trkpt lat="30.9329319000244141" lon="-6.9027419090270996">
        <ele>1145.0</ele>
        <time>2018-10-12T10:18:39.000Z</time>
      </trkpt>
      <trkpt lat="30.9329128265380859" lon="-6.9026789665222168">
        <ele>1145.0</ele>
        <time>2018-10-12T10:18:40.000Z</time>
      </trkpt>
      <trkpt lat="30.9328899383544922" lon="-6.9026169776916504">
        <ele>1145.0</ele>
        <time>2018-10-12T10:18:41.000Z</time>
      </trkpt>
      <trkpt lat="30.9328651428222656" lon="-6.9025568962097168">
        <ele>1145.0</ele>
        <time>2018-10-12T10:18:42.000Z</time>
      </trkpt>
      <trkpt lat="30.9328403472900391" lon="-6.9024968147277832">
        <ele>1145.0</ele>
        <time>2018-10-12T10:18:43.000Z</time>
      </trkpt>
      <trkpt lat="30.9328174591064453" lon="-6.9024372100830078">
        <ele>1144.4993896484375</ele>
        <time>2018-10-12T10:18:44.000Z</time>
      </trkpt>
      <trkpt lat="30.9327926635742188" lon="-6.9023790359497070">
        <ele>1144.0</ele>
        <time>2018-10-12T10:18:45.000Z</time>
      </trkpt>
      <trkpt lat="30.9327697753906250" lon="-6.9023227691650391">
        <ele>1144.0</ele>
        <time>2018-10-12T10:18:46.000Z</time>
      </trkpt>
      <trkpt lat="30.9327487945556641" lon="-6.9022698402404785">
        <ele>1144.0</ele>
        <time>2018-10-12T10:18:47.000Z</time>
      </trkpt>
      <trkpt lat="30.9327278137207031" lon="-6.9022197723388672">
        <ele>1144.0</ele>
        <time>2018-10-12T10:18:48.000Z</time>
      </trkpt>
      <trkpt lat="30.9327087402343750" lon="-6.9021720886230469">
        <ele>1144.0</ele>
        <time>2018-10-12T10:18:49.000Z</time>
      </trkpt>
      <trkpt lat="30.9326877593994141" lon="-6.9021258354187012">
        <ele>1144.81103515625</ele>
        <time>2018-10-12T10:18:50.000Z</time>
      </trkpt>
      <trkpt lat="30.9326705932617188" lon="-6.9020800590515137">
        <ele>1145.0</ele>
        <time>2018-10-12T10:18:51.000Z</time>
      </trkpt>
      <trkpt lat="30.9326515197753906" lon="-6.9020361900329590">
        <ele>1145.0</ele>
        <time>2018-10-12T10:18:52.000Z</time>
      </trkpt>
      <trkpt lat="30.9326286315917969" lon="-6.9019942283630371">
        <ele>1145.0</ele>
        <time>2018-10-12T10:18:53.000Z</time>
      </trkpt>
      <trkpt lat="30.9326057434082031" lon="-6.9019560813903809">
        <ele>1145.0</ele>
        <time>2018-10-12T10:18:54.000Z</time>
      </trkpt>
      <trkpt lat="30.9325847625732422" lon="-6.9019169807434082">
        <ele>1145.0</ele>
        <time>2018-10-12T10:18:55.000Z</time>
      </trkpt>
      <trkpt lat="30.9325656890869141" lon="-6.9018778800964355">
        <ele>1144.3856201171875</ele>
        <time>2018-10-12T10:18:56.000Z</time>
      </trkpt>
      <trkpt lat="30.9325466156005859" lon="-6.9018387794494629">
        <ele>1144.0</ele>
        <time>2018-10-12T10:18:57.000Z</time>
      </trkpt>
      <trkpt lat="30.9325275421142578" lon="-6.9018030166625977">
        <ele>1144.0</ele>
        <time>2018-10-12T10:18:58.000Z</time>
      </trkpt>
      <trkpt lat="30.9325065612792969" lon="-6.9017682075500488">
        <ele>1144.0</ele>
        <time>2018-10-12T10:18:59.000Z</time>
      </trkpt>
      <trkpt lat="30.9324893951416016" lon="-6.9017329216003418">
        <ele>1144.0</ele>
        <time>2018-10-12T10:19:00.000Z</time>
      </trkpt>
      <trkpt lat="30.9324722290039062" lon="-6.9016990661621094">
        <ele>1144.0</ele>
        <time>2018-10-12T10:19:01.000Z</time>
      </trkpt>
      <trkpt lat="30.9324588775634766" lon="-6.9016637802124023">
        <ele>1144.0</ele>
        <time>2018-10-12T10:19:02.000Z</time>
      </trkpt>
      <trkpt lat="30.9324436187744141" lon="-6.9016280174255371">
        <ele>1144.0</ele>
        <time>2018-10-12T10:19:03.000Z</time>
      </trkpt>
      <trkpt lat="30.9324283599853516" lon="-6.9015932083129883">
        <ele>1144.0</ele>
        <time>2018-10-12T10:19:04.000Z</time>
      </trkpt>
      <trkpt lat="30.9324092864990234" lon="-6.9015598297119141">
        <ele>1144.0</ele>
        <time>2018-10-12T10:19:05.000Z</time>
      </trkpt>
      <trkpt lat="30.9323940277099609" lon="-6.9015259742736816">
        <ele>1144.0</ele>
        <time>2018-10-12T10:19:06.000Z</time>
      </trkpt>
      <trkpt lat="30.9323806762695312" lon="-6.9014930725097656">
        <ele>1144.0</ele>
        <time>2018-10-12T10:19:07.000Z</time>
      </trkpt>
      <trkpt lat="30.9323635101318359" lon="-6.9014592170715332">
        <ele>1144.0</ele>
        <time>2018-10-12T10:19:08.000Z</time>
      </trkpt>
      <trkpt lat="30.9323501586914062" lon="-6.9014258384704590">
        <ele>1144.0</ele>
        <time>2018-10-12T10:19:09.000Z</time>
      </trkpt>
      <trkpt lat="30.9323368072509766" lon="-6.9013938903808594">
        <ele>1144.0</ele>
        <time>2018-10-12T10:19:10.000Z</time>
      </trkpt>
      <trkpt lat="30.9323234558105469" lon="-6.9013628959655762">
        <ele>1144.0</ele>
        <time>2018-10-12T10:19:11.000Z</time>
      </trkpt>
      <trkpt lat="30.9323101043701172" lon="-6.9013299942016602">
        <ele>1144.0</ele>
        <time>2018-10-12T10:19:12.000Z</time>
      </trkpt>
      <trkpt lat="30.9322986602783203" lon="-6.9012980461120605">
        <ele>1144.0</ele>
        <time>2018-10-12T10:19:13.000Z</time>
      </trkpt>
      <trkpt lat="30.9322834014892578" lon="-6.9012641906738281">
        <ele>1144.0</ele>
        <time>2018-10-12T10:19:14.000Z</time>
      </trkpt>
      <trkpt lat="30.9322700500488281" lon="-6.9012269973754883">
        <ele>1144.0</ele>
        <time>2018-10-12T10:19:15.000Z</time>
      </trkpt>
      <trkpt lat="30.9322528839111328" lon="-6.9011888504028320">
        <ele>1144.0</ele>
        <time>2018-10-12T10:19:16.000Z</time>
      </trkpt>
      <trkpt lat="30.9322338104248047" lon="-6.9011502265930176">
        <ele>1144.0</ele>
        <time>2018-10-12T10:19:17.000Z</time>
      </trkpt>
      <trkpt lat="30.9322147369384766" lon="-6.9011101722717285">
        <ele>1144.0</ele>
        <time>2018-10-12T10:19:18.000Z</time>
      </trkpt>
      <trkpt lat="30.9321937561035156" lon="-6.9010691642761230">
        <ele>1144.0</ele>
        <time>2018-10-12T10:19:19.000Z</time>
      </trkpt>
      <trkpt lat="30.9321746826171875" lon="-6.9010281562805176">
        <ele>1144.0</ele>
        <time>2018-10-12T10:19:20.000Z</time>
      </trkpt>
      <trkpt lat="30.9321556091308594" lon="-6.9009871482849121">
        <ele>1144.0</ele>
        <time>2018-10-12T10:19:21.000Z</time>
      </trkpt>
      <trkpt lat="30.9321384429931641" lon="-6.9009461402893066">
        <ele>1144.0</ele>
        <time>2018-10-12T10:19:22.000Z</time>
      </trkpt>
      <trkpt lat="30.9321212768554688" lon="-6.9009051322937012">
        <ele>1144.0</ele>
        <time>2018-10-12T10:19:23.000Z</time>
      </trkpt>
      <trkpt lat="30.9321060180664062" lon="-6.9008650779724121">
        <ele>1144.0</ele>
        <time>2018-10-12T10:19:24.000Z</time>
      </trkpt>
      <trkpt lat="30.9320926666259766" lon="-6.9008259773254395">
        <ele>1144.0</ele>
        <time>2018-10-12T10:19:25.000Z</time>
      </trkpt>
      <trkpt lat="30.9320812225341797" lon="-6.9007902145385742">
        <ele>1144.0</ele>
        <time>2018-10-12T10:19:26.000Z</time>
      </trkpt>
      <trkpt lat="30.9320735931396484" lon="-6.9007568359375000">
        <ele>1144.0</ele>
        <time>2018-10-12T10:19:27.000Z</time>
      </trkpt>
      <trkpt lat="30.9320678710937500" lon="-6.9007282257080078">
        <ele>1143.178955078125</ele>
        <time>2018-10-12T10:19:28.000Z</time>
      </trkpt>
      <trkpt lat="30.9320697784423828" lon="-6.9007010459899902">
        <ele>1143.0</ele>
        <time>2018-10-12T10:19:29.000Z</time>
      </trkpt>
      <trkpt lat="30.9320888519287109" lon="-6.9006810188293457">
        <ele>1143.0</ele>
        <time>2018-10-12T10:19:30.000Z</time>
      </trkpt>
      <trkpt lat="30.9321193695068359" lon="-6.9006772041320801">
        <ele>1143.0</ele>
        <time>2018-10-12T10:19:31.000Z</time>
      </trkpt>
      <trkpt lat="30.9321537017822266" lon="-6.9006948471069336">
        <ele>1143.0</ele>
        <time>2018-10-12T10:19:32.000Z</time>
      </trkpt>
      <trkpt lat="30.9321823120117188" lon="-6.9007310867309570">
        <ele>1143.0</ele>
        <time>2018-10-12T10:19:33.000Z</time>
      </trkpt>
      <trkpt lat="30.9322032928466797" lon="-6.9007759094238281">
        <ele>1143.0</ele>
        <time>2018-10-12T10:19:34.000Z</time>
      </trkpt>
      <trkpt lat="30.9322261810302734" lon="-6.9008250236511230">
        <ele>1143.0</ele>
        <time>2018-10-12T10:19:35.000Z</time>
      </trkpt>
      <trkpt lat="30.9322471618652344" lon="-6.9008750915527344">
        <ele>1143.0</ele>
        <time>2018-10-12T10:19:36.000Z</time>
      </trkpt>
      <trkpt lat="30.9322681427001953" lon="-6.9009280204772949">
        <ele>1143.0</ele>
        <time>2018-10-12T10:19:37.000Z</time>
      </trkpt>
      <trkpt lat="30.9322910308837891" lon="-6.9009809494018555">
        <ele>1143.0</ele>
        <time>2018-10-12T10:19:38.000Z</time>
      </trkpt>
      <trkpt lat="30.9323139190673828" lon="-6.9010348320007324">
        <ele>1143.0</ele>
        <time>2018-10-12T10:19:39.000Z</time>
      </trkpt>
      <trkpt lat="30.9323387145996094" lon="-6.9010910987854004">
        <ele>1143.821044921875</ele>
        <time>2018-10-12T10:19:40.000Z</time>
      </trkpt>
      <trkpt lat="30.9323654174804688" lon="-6.9011478424072266">
        <ele>1144.0</ele>
        <time>2018-10-12T10:19:41.000Z</time>
      </trkpt>
      <trkpt lat="30.9323921203613281" lon="-6.9012079238891602">
        <ele>1144.0</ele>
        <time>2018-10-12T10:19:42.000Z</time>
      </trkpt>
      <trkpt lat="30.9324188232421875" lon="-6.9012689590454102">
        <ele>1144.0</ele>
        <time>2018-10-12T10:19:43.000Z</time>
      </trkpt>
      <trkpt lat="30.9324436187744141" lon="-6.9013299942016602">
        <ele>1144.0</ele>
        <time>2018-10-12T10:19:44.000Z</time>
      </trkpt>
      <trkpt lat="30.9324703216552734" lon="-6.9013919830322266">
        <ele>1144.0</ele>
        <time>2018-10-12T10:19:45.000Z</time>
      </trkpt>
      <trkpt lat="30.9324989318847656" lon="-6.9014539718627930">
        <ele>1144.0</ele>
        <time>2018-10-12T10:19:46.000Z</time>
      </trkpt>
      <trkpt lat="30.9325237274169922" lon="-6.9015169143676758">
        <ele>1144.0</ele>
        <time>2018-10-12T10:19:47.000Z</time>
      </trkpt>
      <trkpt lat="30.9325504302978516" lon="-6.9015798568725586">
        <ele>1144.0</ele>
        <time>2018-10-12T10:19:48.000Z</time>
      </trkpt>
      <trkpt lat="30.9325809478759766" lon="-6.9016427993774414">
        <ele>1144.0</ele>
        <time>2018-10-12T10:19:49.000Z</time>
      </trkpt>
      <trkpt lat="30.9326057434082031" lon="-6.9017081260681152">
        <ele>1144.0</ele>
        <time>2018-10-12T10:19:50.000Z</time>
      </trkpt>
      <trkpt lat="30.9326343536376953" lon="-6.9017729759216309">
        <ele>1144.0</ele>
        <time>2018-10-12T10:19:51.000Z</time>
      </trkpt>
      <trkpt lat="30.9326610565185547" lon="-6.9018378257751465">
        <ele>1144.0</ele>
        <time>2018-10-12T10:19:52.000Z</time>
      </trkpt>
      <trkpt lat="30.9326915740966797" lon="-6.9019041061401367">
        <ele>1144.0</ele>
        <time>2018-10-12T10:19:53.000Z</time>
      </trkpt>
      <trkpt lat="30.9327201843261719" lon="-6.9019718170166016">
        <ele>1144.0</ele>
        <time>2018-10-12T10:19:54.000Z</time>
      </trkpt>
      <trkpt lat="30.9327507019042969" lon="-6.9020400047302246">
        <ele>1144.0</ele>
        <time>2018-10-12T10:19:55.000Z</time>
      </trkpt>
      <trkpt lat="30.9327774047851562" lon="-6.9021081924438477">
        <ele>1144.0</ele>
        <time>2018-10-12T10:19:56.000Z</time>
      </trkpt>
      <trkpt lat="30.9328079223632812" lon="-6.9021768569946289">
        <ele>1144.0</ele>
        <time>2018-10-12T10:19:57.000Z</time>
      </trkpt>
      <trkpt lat="30.9328384399414062" lon="-6.9022459983825684">
        <ele>1144.0</ele>
        <time>2018-10-12T10:19:58.000Z</time>
      </trkpt>
      <trkpt lat="30.9328708648681641" lon="-6.9023151397705078">
        <ele>1144.0</ele>
        <time>2018-10-12T10:19:59.000Z</time>
      </trkpt>
      <trkpt lat="30.9329013824462891" lon="-6.9023861885070801">
        <ele>1144.0</ele>
        <time>2018-10-12T10:20:00.000Z</time>
      </trkpt>
      <trkpt lat="30.9329319000244141" lon="-6.9024572372436523">
        <ele>1144.0</ele>
        <time>2018-10-12T10:20:01.000Z</time>
      </trkpt>
      <trkpt lat="30.9329624176025391" lon="-6.9025278091430664">
        <ele>1144.0</ele>
        <time>2018-10-12T10:20:02.000Z</time>
      </trkpt>
      <trkpt lat="30.9329910278320312" lon="-6.9025998115539551">
        <ele>1144.0</ele>
        <time>2018-10-12T10:20:03.000Z</time>
      </trkpt>
      <trkpt lat="30.9330177307128906" lon="-6.9026727676391602">
        <ele>1144.821044921875</ele>
        <time>2018-10-12T10:20:04.000Z</time>
      </trkpt>
      <trkpt lat="30.9330387115478516" lon="-6.9027471542358398">
        <ele>1145.0</ele>
        <time>2018-10-12T10:20:05.000Z</time>
      </trkpt>
      <trkpt lat="30.9330577850341797" lon="-6.9028229713439941">
        <ele>1145.0</ele>
        <time>2018-10-12T10:20:06.000Z</time>
      </trkpt>
      <trkpt lat="30.9330673217773438" lon="-6.9029011726379395">
        <ele>1145.0</ele>
        <time>2018-10-12T10:20:07.000Z</time>
      </trkpt>
      <trkpt lat="30.9330730438232422" lon="-6.9029798507690430">
        <ele>1145.0</ele>
        <time>2018-10-12T10:20:08.000Z</time>
      </trkpt>
      <trkpt lat="30.9330711364746094" lon="-6.9030609130859375">
        <ele>1145.0</ele>
        <time>2018-10-12T10:20:09.000Z</time>
      </trkpt>
      <trkpt lat="30.9330654144287109" lon="-6.9031400680541992">
        <ele>1145.0</ele>
        <time>2018-10-12T10:20:10.000Z</time>
      </trkpt>
      <trkpt lat="30.9330501556396484" lon="-6.9032192230224609">
        <ele>1145.0</ele>
        <time>2018-10-12T10:20:11.000Z</time>
      </trkpt>
      <trkpt lat="30.9330291748046875" lon="-6.9032959938049316">
        <ele>1145.0</ele>
        <time>2018-10-12T10:20:12.000Z</time>
      </trkpt>
      <trkpt lat="30.9330024719238281" lon="-6.9033699035644531">
        <ele>1145.0</ele>
        <time>2018-10-12T10:20:13.000Z</time>
      </trkpt>
      <trkpt lat="30.9329681396484375" lon="-6.9034419059753418">
        <ele>1145.0</ele>
        <time>2018-10-12T10:20:14.000Z</time>
      </trkpt>
      <trkpt lat="30.9329299926757812" lon="-6.9035120010375977">
        <ele>1145.797119140625</ele>
        <time>2018-10-12T10:20:15.000Z</time>
      </trkpt>
      <trkpt lat="30.9328880310058594" lon="-6.9035778045654297">
        <ele>1146.0</ele>
        <time>2018-10-12T10:20:16.000Z</time>
      </trkpt>
      <trkpt lat="30.9328422546386719" lon="-6.9036397933959961">
        <ele>1146.0</ele>
        <time>2018-10-12T10:20:17.000Z</time>
      </trkpt>
      <trkpt lat="30.9327964782714844" lon="-6.9036970138549805">
        <ele>1146.0</ele>
        <time>2018-10-12T10:20:18.000Z</time>
      </trkpt>
      <trkpt lat="30.9327507019042969" lon="-6.9037542343139648">
        <ele>1146.0</ele>
        <time>2018-10-12T10:20:19.000Z</time>
      </trkpt>
      <trkpt lat="30.9327049255371094" lon="-6.9038109779357910">
        <ele>1146.0</ele>
        <time>2018-10-12T10:20:20.000Z</time>
      </trkpt>
      <trkpt lat="30.9326572418212891" lon="-6.9038681983947754">
        <ele>1146.0</ele>
        <time>2018-10-12T10:20:21.000Z</time>
      </trkpt>
      <trkpt lat="30.9326114654541016" lon="-6.9039239883422852">
        <ele>1146.0</ele>
        <time>2018-10-12T10:20:22.000Z</time>
      </trkpt>
      <trkpt lat="30.9325637817382812" lon="-6.9039797782897949">
        <ele>1146.0</ele>
        <time>2018-10-12T10:20:23.000Z</time>
      </trkpt>
      <trkpt lat="30.9325180053710938" lon="-6.9040341377258301">
        <ele>1146.0</ele>
        <time>2018-10-12T10:20:24.000Z</time>
      </trkpt>
      <trkpt lat="30.9324722290039062" lon="-6.9040870666503906">
        <ele>1146.0</ele>
        <time>2018-10-12T10:20:25.000Z</time>
      </trkpt>
      <trkpt lat="30.9324264526367188" lon="-6.9041399955749512">
        <ele>1146.0</ele>
        <time>2018-10-12T10:20:26.000Z</time>
      </trkpt>
      <trkpt lat="30.9323825836181641" lon="-6.9041910171508789">
        <ele>1146.0</ele>
        <time>2018-10-12T10:20:27.000Z</time>
      </trkpt>
      <trkpt lat="30.9323368072509766" lon="-6.9042420387268066">
        <ele>1146.0</ele>
        <time>2018-10-12T10:20:28.000Z</time>
      </trkpt>
      <trkpt lat="30.9322929382324219" lon="-6.9042940139770508">
        <ele>1146.0</ele>
        <time>2018-10-12T10:20:29.000Z</time>
      </trkpt>
      <trkpt lat="30.9322471618652344" lon="-6.9043469429016113">
        <ele>1146.0</ele>
        <time>2018-10-12T10:20:30.000Z</time>
      </trkpt>
      <trkpt lat="30.9322013854980469" lon="-6.9043998718261719">
        <ele>1146.0</ele>
        <time>2018-10-12T10:20:31.000Z</time>
      </trkpt>
      <trkpt lat="30.9321537017822266" lon="-6.9044542312622070">
        <ele>1146.0</ele>
        <time>2018-10-12T10:20:32.000Z</time>
      </trkpt>
      <trkpt lat="30.9321079254150391" lon="-6.9045081138610840">
        <ele>1146.0</ele>
        <time>2018-10-12T10:20:33.000Z</time>
      </trkpt>
      <trkpt lat="30.9320602416992188" lon="-6.9045619964599609">
        <ele>1146.821044921875</ele>
        <time>2018-10-12T10:20:34.000Z</time>
      </trkpt>
      <trkpt lat="30.9320125579833984" lon="-6.9046158790588379">
        <ele>1147.0</ele>
        <time>2018-10-12T10:20:35.000Z</time>
      </trkpt>
      <trkpt lat="30.9319667816162109" lon="-6.9046697616577148">
        <ele>1147.0</ele>
        <time>2018-10-12T10:20:36.000Z</time>
      </trkpt>
      <trkpt lat="30.9319210052490234" lon="-6.9047231674194336">
        <ele>1147.0</ele>
        <time>2018-10-12T10:20:37.000Z</time>
      </trkpt>
      <trkpt lat="30.9318752288818359" lon="-6.9047770500183105">
        <ele>1147.0</ele>
        <time>2018-10-12T10:20:38.000Z</time>
      </trkpt>
      <trkpt lat="30.9318294525146484" lon="-6.9048299789428711">
        <ele>1147.0</ele>
        <time>2018-10-12T10:20:39.000Z</time>
      </trkpt>
      <trkpt lat="30.9317836761474609" lon="-6.9048829078674316">
        <ele>1147.0</ele>
        <time>2018-10-12T10:20:40.000Z</time>
      </trkpt>
      <trkpt lat="30.9317378997802734" lon="-6.9049348831176758">
        <ele>1147.0</ele>
        <time>2018-10-12T10:20:41.000Z</time>
      </trkpt>
      <trkpt lat="30.9316902160644531" lon="-6.9049849510192871">
        <ele>1147.0</ele>
        <time>2018-10-12T10:20:42.000Z</time>
      </trkpt>
      <trkpt lat="30.9316444396972656" lon="-6.9050340652465820">
        <ele>1147.0</ele>
        <time>2018-10-12T10:20:43.000Z</time>
      </trkpt>
      <trkpt lat="30.9316024780273438" lon="-6.9050831794738770">
        <ele>1147.0</ele>
        <time>2018-10-12T10:20:44.000Z</time>
      </trkpt>
      <trkpt lat="30.9315605163574219" lon="-6.9051342010498047">
        <ele>1147.0</ele>
        <time>2018-10-12T10:20:45.000Z</time>
      </trkpt>
      <trkpt lat="30.9315185546875000" lon="-6.9051852226257324">
        <ele>1147.0</ele>
        <time>2018-10-12T10:20:46.000Z</time>
      </trkpt>
      <trkpt lat="30.9314746856689453" lon="-6.9052357673645020">
        <ele>1147.0</ele>
        <time>2018-10-12T10:20:47.000Z</time>
      </trkpt>
      <trkpt lat="30.9314327239990234" lon="-6.9052858352661133">
        <ele>1147.0</ele>
        <time>2018-10-12T10:20:48.000Z</time>
      </trkpt>
      <trkpt lat="30.9313888549804688" lon="-6.9053339958190918">
        <ele>1147.0</ele>
        <time>2018-10-12T10:20:49.000Z</time>
      </trkpt>
      <trkpt lat="30.9313449859619141" lon="-6.9053812026977539">
        <ele>1147.0</ele>
        <time>2018-10-12T10:20:50.000Z</time>
      </trkpt>
      <trkpt lat="30.9313011169433594" lon="-6.9054279327392578">
        <ele>1147.0</ele>
        <time>2018-10-12T10:20:51.000Z</time>
      </trkpt>
      <trkpt lat="30.9312591552734375" lon="-6.9054751396179199">
        <ele>1147.8128662109375</ele>
        <time>2018-10-12T10:20:52.000Z</time>
      </trkpt>
      <trkpt lat="30.9312171936035156" lon="-6.9055209159851074">
        <ele>1148.0</ele>
        <time>2018-10-12T10:20:53.000Z</time>
      </trkpt>
      <trkpt lat="30.9311733245849609" lon="-6.9055681228637695">
        <ele>1148.0</ele>
        <time>2018-10-12T10:20:54.000Z</time>
      </trkpt>
      <trkpt lat="30.9311313629150391" lon="-6.9056158065795898">
        <ele>1148.0</ele>
        <time>2018-10-12T10:20:55.000Z</time>
      </trkpt>
      <trkpt lat="30.9310932159423828" lon="-6.9056668281555176">
        <ele>1148.0</ele>
        <time>2018-10-12T10:20:56.000Z</time>
      </trkpt>
      <trkpt lat="30.9310531616210938" lon="-6.9057188034057617">
        <ele>1148.0</ele>
        <time>2018-10-12T10:20:57.000Z</time>
      </trkpt>
      <trkpt lat="30.9310150146484375" lon="-6.9057688713073730">
        <ele>1148.0</ele>
        <time>2018-10-12T10:20:58.000Z</time>
      </trkpt>
      <trkpt lat="30.9309749603271484" lon="-6.9058179855346680">
        <ele>1148.0</ele>
        <time>2018-10-12T10:20:59.000Z</time>
      </trkpt>
      <trkpt lat="30.9309349060058594" lon="-6.9058661460876465">
        <ele>1148.8192138671875</ele>
        <time>2018-10-12T10:21:00.000Z</time>
      </trkpt>
      <trkpt lat="30.9308948516845703" lon="-6.9059128761291504">
        <ele>1149.0</ele>
        <time>2018-10-12T10:21:01.000Z</time>
      </trkpt>
      <trkpt lat="30.9308547973632812" lon="-6.9059610366821289">
        <ele>1149.0</ele>
        <time>2018-10-12T10:21:02.000Z</time>
      </trkpt>
      <trkpt lat="30.9308128356933594" lon="-6.9060077667236328">
        <ele>1149.0</ele>
        <time>2018-10-12T10:21:03.000Z</time>
      </trkpt>
      <trkpt lat="30.9307727813720703" lon="-6.9060549736022949">
        <ele>1149.0</ele>
        <time>2018-10-12T10:21:04.000Z</time>
      </trkpt>
      <trkpt lat="30.9307327270507812" lon="-6.9061012268066406">
        <ele>1149.0</ele>
        <time>2018-10-12T10:21:05.000Z</time>
      </trkpt>
      <trkpt lat="30.9306926727294922" lon="-6.9061470031738281">
        <ele>1149.0</ele>
        <time>2018-10-12T10:21:06.000Z</time>
      </trkpt>
      <trkpt lat="30.9306526184082031" lon="-6.9061927795410156">
        <ele>1149.0</ele>
        <time>2018-10-12T10:21:07.000Z</time>
      </trkpt>
      <trkpt lat="30.9306144714355469" lon="-6.9062390327453613">
        <ele>1148.18896484375</ele>
        <time>2018-10-12T10:21:08.000Z</time>
      </trkpt>
      <trkpt lat="30.9305744171142578" lon="-6.9062848091125488">
        <ele>1148.0</ele>
        <time>2018-10-12T10:21:09.000Z</time>
      </trkpt>
      <trkpt lat="30.9305362701416016" lon="-6.9063310623168945">
        <ele>1148.81103515625</ele>
        <time>2018-10-12T10:21:10.000Z</time>
      </trkpt>
      <trkpt lat="30.9304962158203125" lon="-6.9063777923583984">
        <ele>1149.0</ele>
        <time>2018-10-12T10:21:11.000Z</time>
      </trkpt>
      <trkpt lat="30.9304542541503906" lon="-6.9064240455627441">
        <ele>1149.0</ele>
        <time>2018-10-12T10:21:12.000Z</time>
      </trkpt>
      <trkpt lat="30.9304122924804688" lon="-6.9064707756042480">
        <ele>1149.0</ele>
        <time>2018-10-12T10:21:13.000Z</time>
      </trkpt>
      <trkpt lat="30.9303722381591797" lon="-6.9065179824829102">
        <ele>1149.0</ele>
        <time>2018-10-12T10:21:14.000Z</time>
      </trkpt>
      <trkpt lat="30.9303302764892578" lon="-6.9065651893615723">
        <ele>1149.0</ele>
        <time>2018-10-12T10:21:15.000Z</time>
      </trkpt>
      <trkpt lat="30.9302902221679688" lon="-6.9066119194030762">
        <ele>1149.0</ele>
        <time>2018-10-12T10:21:16.000Z</time>
      </trkpt>
      <trkpt lat="30.9302501678466797" lon="-6.9066600799560547">
        <ele>1149.0</ele>
        <time>2018-10-12T10:21:17.000Z</time>
      </trkpt>
      <trkpt lat="30.9302120208740234" lon="-6.9067068099975586">
        <ele>1149.0</ele>
        <time>2018-10-12T10:21:18.000Z</time>
      </trkpt>
      <trkpt lat="30.9301738739013672" lon="-6.9067530632019043">
        <ele>1149.0</ele>
        <time>2018-10-12T10:21:19.000Z</time>
      </trkpt>
      <trkpt lat="30.9301357269287109" lon="-6.9067978858947754">
        <ele>1149.0</ele>
        <time>2018-10-12T10:21:20.000Z</time>
      </trkpt>
      <trkpt lat="30.9300975799560547" lon="-6.9068431854248047">
        <ele>1149.0</ele>
        <time>2018-10-12T10:21:21.000Z</time>
      </trkpt>
      <trkpt lat="30.9300613403320312" lon="-6.9068870544433594">
        <ele>1149.0</ele>
        <time>2018-10-12T10:21:22.000Z</time>
      </trkpt>
      <trkpt lat="30.9300289154052734" lon="-6.9069337844848633">
        <ele>1149.0</ele>
        <time>2018-10-12T10:21:23.000Z</time>
      </trkpt>
      <trkpt lat="30.9300003051757812" lon="-6.9069848060607910">
        <ele>1149.0</ele>
        <time>2018-10-12T10:21:24.000Z</time>
      </trkpt>
      <trkpt lat="30.9299793243408203" lon="-6.9070401191711426">
        <ele>1149.0</ele>
        <time>2018-10-12T10:21:25.000Z</time>
      </trkpt>
      <trkpt lat="30.9299659729003906" lon="-6.9070987701416016">
        <ele>1149.0</ele>
        <time>2018-10-12T10:21:26.000Z</time>
      </trkpt>
      <trkpt lat="30.9299621582031250" lon="-6.9071588516235352">
        <ele>1149.821044921875</ele>
        <time>2018-10-12T10:21:27.000Z</time>
      </trkpt>
      <trkpt lat="30.9299678802490234" lon="-6.9072208404541016">
        <ele>1150.0</ele>
        <time>2018-10-12T10:21:28.000Z</time>
      </trkpt>
      <trkpt lat="30.9299812316894531" lon="-6.9072809219360352">
        <ele>1150.0</ele>
        <time>2018-10-12T10:21:29.000Z</time>
      </trkpt>
      <trkpt lat="30.9299983978271484" lon="-6.9073400497436523">
        <ele>1150.0</ele>
        <time>2018-10-12T10:21:30.000Z</time>
      </trkpt>
      <trkpt lat="30.9300193786621094" lon="-6.9073991775512695">
        <ele>1150.0</ele>
        <time>2018-10-12T10:21:31.000Z</time>
      </trkpt>
      <trkpt lat="30.9300403594970703" lon="-6.9074568748474121">
        <ele>1150.0</ele>
        <time>2018-10-12T10:21:32.000Z</time>
      </trkpt>
      <trkpt lat="30.9300632476806641" lon="-6.9075160026550293">
        <ele>1150.0</ele>
        <time>2018-10-12T10:21:33.000Z</time>
      </trkpt>
      <trkpt lat="30.9300861358642578" lon="-6.9075751304626465">
        <ele>1150.0</ele>
        <time>2018-10-12T10:21:34.000Z</time>
      </trkpt>
      <trkpt lat="30.9301090240478516" lon="-6.9076352119445801">
        <ele>1150.0</ele>
        <time>2018-10-12T10:21:35.000Z</time>
      </trkpt>
      <trkpt lat="30.9301319122314453" lon="-6.9076948165893555">
        <ele>1150.0</ele>
        <time>2018-10-12T10:21:36.000Z</time>
      </trkpt>
      <trkpt lat="30.9301548004150391" lon="-6.9077558517456055">
        <ele>1150.0</ele>
        <time>2018-10-12T10:21:37.000Z</time>
      </trkpt>
      <trkpt lat="30.9301757812500000" lon="-6.9078168869018555">
        <ele>1150.0</ele>
        <time>2018-10-12T10:21:38.000Z</time>
      </trkpt>
      <trkpt lat="30.9301986694335938" lon="-6.9078769683837891">
        <ele>1150.0</ele>
        <time>2018-10-12T10:21:39.000Z</time>
      </trkpt>
      <trkpt lat="30.9302215576171875" lon="-6.9079380035400391">
        <ele>1150.0</ele>
        <time>2018-10-12T10:21:40.000Z</time>
      </trkpt>
      <trkpt lat="30.9302425384521484" lon="-6.9079980850219727">
        <ele>1150.0</ele>
        <time>2018-10-12T10:21:41.000Z</time>
      </trkpt>
      <trkpt lat="30.9302635192871094" lon="-6.9080572128295898">
        <ele>1150.0</ele>
        <time>2018-10-12T10:21:42.000Z</time>
      </trkpt>
      <trkpt lat="30.9302845001220703" lon="-6.9081158638000488">
        <ele>1150.0</ele>
        <time>2018-10-12T10:21:43.000Z</time>
      </trkpt>
      <trkpt lat="30.9303054809570312" lon="-6.9081649780273438">
        <ele>1150.0</ele>
        <time>2018-10-12T10:21:44.000Z</time>
      </trkpt>
      <trkpt lat="30.9303245544433594" lon="-6.9082069396972656">
        <ele>1150.0</ele>
        <time>2018-10-12T10:21:45.000Z</time>
      </trkpt>
      <trkpt lat="30.9303398132324219" lon="-6.9082489013671875">
        <ele>1150.0</ele>
        <time>2018-10-12T10:21:46.000Z</time>
      </trkpt>
      <trkpt lat="30.9303512573242188" lon="-6.9082918167114258">
        <ele>1150.0</ele>
        <time>2018-10-12T10:21:47.000Z</time>
      </trkpt>
      <trkpt lat="30.9303627014160156" lon="-6.9083371162414551">
        <ele>1150.0</ele>
        <time>2018-10-12T10:21:48.000Z</time>
      </trkpt>
      <trkpt lat="30.9303817749023438" lon="-6.9083847999572754">
        <ele>1150.0</ele>
        <time>2018-10-12T10:21:49.000Z</time>
      </trkpt>
      <trkpt lat="30.9304027557373047" lon="-6.9084358215332031">
        <ele>1150.0</ele>
        <time>2018-10-12T10:21:50.000Z</time>
      </trkpt>
      <trkpt lat="30.9304275512695312" lon="-6.9084911346435547">
        <ele>1150.0</ele>
        <time>2018-10-12T10:21:51.000Z</time>
      </trkpt>
      <trkpt lat="30.9304523468017578" lon="-6.9085469245910645">
        <ele>1150.0</ele>
        <time>2018-10-12T10:21:52.000Z</time>
      </trkpt>
      <trkpt lat="30.9304752349853516" lon="-6.9086022377014160">
        <ele>1150.0</ele>
        <time>2018-10-12T10:21:53.000Z</time>
      </trkpt>
      <trkpt lat="30.9304981231689453" lon="-6.9086570739746094">
        <ele>1150.6219482421875</ele>
        <time>2018-10-12T10:21:54.000Z</time>
      </trkpt>
      <trkpt lat="30.9305191040039062" lon="-6.9087162017822266">
        <ele>1151.0</ele>
        <time>2018-10-12T10:21:55.000Z</time>
      </trkpt>
      <trkpt lat="30.9305400848388672" lon="-6.9087772369384766">
        <ele>1151.0</ele>
        <time>2018-10-12T10:21:56.000Z</time>
      </trkpt>
      <trkpt lat="30.9305610656738281" lon="-6.9088368415832520">
        <ele>1151.0</ele>
        <time>2018-10-12T10:21:57.000Z</time>
      </trkpt>
      <trkpt lat="30.9305820465087891" lon="-6.9088950157165527">
        <ele>1151.0</ele>
        <time>2018-10-12T10:21:58.000Z</time>
      </trkpt>
      <trkpt lat="30.9306049346923828" lon="-6.9089541435241699">
        <ele>1151.0</ele>
        <time>2018-10-12T10:21:59.000Z</time>
      </trkpt>
      <trkpt lat="30.9306259155273438" lon="-6.9090127944946289">
        <ele>1151.0</ele>
        <time>2018-10-12T10:22:00.000Z</time>
      </trkpt>
      <trkpt lat="30.9306449890136719" lon="-6.9090719223022461">
        <ele>1151.0</ele>
        <time>2018-10-12T10:22:01.000Z</time>
      </trkpt>
      <trkpt lat="30.9306659698486328" lon="-6.9091300964355469">
        <ele>1151.0</ele>
        <time>2018-10-12T10:22:02.000Z</time>
      </trkpt>
      <trkpt lat="30.9306869506835938" lon="-6.9091877937316895">
        <ele>1151.0</ele>
        <time>2018-10-12T10:22:03.000Z</time>
      </trkpt>
      <trkpt lat="30.9307060241699219" lon="-6.9092459678649902">
        <ele>1151.0</ele>
        <time>2018-10-12T10:22:04.000Z</time>
      </trkpt>
      <trkpt lat="30.9307231903076172" lon="-6.9093031883239746">
        <ele>1151.0</ele>
        <time>2018-10-12T10:22:05.000Z</time>
      </trkpt>
      <trkpt lat="30.9307422637939453" lon="-6.9093599319458008">
        <ele>1151.0</ele>
        <time>2018-10-12T10:22:06.000Z</time>
      </trkpt>
      <trkpt lat="30.9307594299316406" lon="-6.9094171524047852">
        <ele>1151.0</ele>
        <time>2018-10-12T10:22:07.000Z</time>
      </trkpt>
      <trkpt lat="30.9307785034179688" lon="-6.9094738960266113">
        <ele>1151.0</ele>
        <time>2018-10-12T10:22:08.000Z</time>
      </trkpt>
      <trkpt lat="30.9307975769042969" lon="-6.9095320701599121">
        <ele>1151.81103515625</ele>
        <time>2018-10-12T10:22:09.000Z</time>
      </trkpt>
      <trkpt lat="30.9308147430419922" lon="-6.9095888137817383">
        <ele>1152.0</ele>
        <time>2018-10-12T10:22:10.000Z</time>
      </trkpt>
      <trkpt lat="30.9308319091796875" lon="-6.9096469879150391">
        <ele>1152.0</ele>
        <time>2018-10-12T10:22:11.000Z</time>
      </trkpt>
      <trkpt lat="30.9308490753173828" lon="-6.9097027778625488">
        <ele>1152.0</ele>
        <time>2018-10-12T10:22:12.000Z</time>
      </trkpt>
      <trkpt lat="30.9308681488037109" lon="-6.9097609519958496">
        <ele>1152.0</ele>
        <time>2018-10-12T10:22:13.000Z</time>
      </trkpt>
      <trkpt lat="30.9308872222900391" lon="-6.9098181724548340">
        <ele>1152.0</ele>
        <time>2018-10-12T10:22:14.000Z</time>
      </trkpt>
      <trkpt lat="30.9309082031250000" lon="-6.9098758697509766">
        <ele>1152.0</ele>
        <time>2018-10-12T10:22:15.000Z</time>
      </trkpt>
      <trkpt lat="30.9309291839599609" lon="-6.9099359512329102">
        <ele>1152.0</ele>
        <time>2018-10-12T10:22:16.000Z</time>
      </trkpt>
      <trkpt lat="30.9309482574462891" lon="-6.9099969863891602">
        <ele>1151.18896484375</ele>
        <time>2018-10-12T10:22:17.000Z</time>
      </trkpt>
      <trkpt lat="30.9309673309326172" lon="-6.9100599288940430">
        <ele>1151.0</ele>
        <time>2018-10-12T10:22:18.000Z</time>
      </trkpt>
      <trkpt lat="30.9309864044189453" lon="-6.9101219177246094">
        <ele>1151.0</ele>
        <time>2018-10-12T10:22:19.000Z</time>
      </trkpt>
      <trkpt lat="30.9310073852539062" lon="-6.9101848602294922">
        <ele>1151.0</ele>
        <time>2018-10-12T10:22:20.000Z</time>
      </trkpt>
      <trkpt lat="30.9310283660888672" lon="-6.9102492332458496">
        <ele>1151.0</ele>
        <time>2018-10-12T10:22:21.000Z</time>
      </trkpt>
      <trkpt lat="30.9310474395751953" lon="-6.9103121757507324">
        <ele>1151.0</ele>
        <time>2018-10-12T10:22:22.000Z</time>
      </trkpt>
      <trkpt lat="30.9310665130615234" lon="-6.9103751182556152">
        <ele>1151.0</ele>
        <time>2018-10-12T10:22:23.000Z</time>
      </trkpt>
      <trkpt lat="30.9310855865478516" lon="-6.9104380607604980">
        <ele>1151.0</ele>
        <time>2018-10-12T10:22:24.000Z</time>
      </trkpt>
      <trkpt lat="30.9311046600341797" lon="-6.9105000495910645">
        <ele>1151.0</ele>
        <time>2018-10-12T10:22:25.000Z</time>
      </trkpt>
      <trkpt lat="30.9311237335205078" lon="-6.9105620384216309">
        <ele>1151.81103515625</ele>
        <time>2018-10-12T10:22:26.000Z</time>
      </trkpt>
      <trkpt lat="30.9311466217041016" lon="-6.9106240272521973">
        <ele>1152.0</ele>
        <time>2018-10-12T10:22:27.000Z</time>
      </trkpt>
      <trkpt lat="30.9311656951904297" lon="-6.9106860160827637">
        <ele>1152.0</ele>
        <time>2018-10-12T10:22:28.000Z</time>
      </trkpt>
      <trkpt lat="30.9311885833740234" lon="-6.9107480049133301">
        <ele>1152.0</ele>
        <time>2018-10-12T10:22:29.000Z</time>
      </trkpt>
      <trkpt lat="30.9312076568603516" lon="-6.9108090400695801">
        <ele>1152.0</ele>
        <time>2018-10-12T10:22:30.000Z</time>
      </trkpt>
      <trkpt lat="30.9312286376953125" lon="-6.9108700752258301">
        <ele>1152.0</ele>
        <time>2018-10-12T10:22:31.000Z</time>
      </trkpt>
      <trkpt lat="30.9312496185302734" lon="-6.9109311103820801">
        <ele>1152.0</ele>
        <time>2018-10-12T10:22:32.000Z</time>
      </trkpt>
      <trkpt lat="30.9312705993652344" lon="-6.9109921455383301">
        <ele>1152.0</ele>
        <time>2018-10-12T10:22:33.000Z</time>
      </trkpt>
      <trkpt lat="30.9312877655029297" lon="-6.9110531806945801">
        <ele>1152.0</ele>
        <time>2018-10-12T10:22:34.000Z</time>
      </trkpt>
      <trkpt lat="30.9313087463378906" lon="-6.9111142158508301">
        <ele>1152.0</ele>
        <time>2018-10-12T10:22:35.000Z</time>
      </trkpt>
      <trkpt lat="30.9313259124755859" lon="-6.9111762046813965">
        <ele>1152.0</ele>
        <time>2018-10-12T10:22:36.000Z</time>
      </trkpt>
      <trkpt lat="30.9313449859619141" lon="-6.9112381935119629">
        <ele>1152.0</ele>
        <time>2018-10-12T10:22:37.000Z</time>
      </trkpt>
      <trkpt lat="30.9313640594482422" lon="-6.9112992286682129">
        <ele>1152.0</ele>
        <time>2018-10-12T10:22:38.000Z</time>
      </trkpt>
      <trkpt lat="30.9313831329345703" lon="-6.9113612174987793">
        <ele>1152.0</ele>
        <time>2018-10-12T10:22:39.000Z</time>
      </trkpt>
      <trkpt lat="30.9314041137695312" lon="-6.9114217758178711">
        <ele>1152.0</ele>
        <time>2018-10-12T10:22:40.000Z</time>
      </trkpt>
      <trkpt lat="30.9314212799072266" lon="-6.9114851951599121">
        <ele>1152.0</ele>
        <time>2018-10-12T10:22:41.000Z</time>
      </trkpt>
      <trkpt lat="30.9314403533935547" lon="-6.9115462303161621">
        <ele>1152.0</ele>
        <time>2018-10-12T10:22:42.000Z</time>
      </trkpt>
      <trkpt lat="30.9314594268798828" lon="-6.9116082191467285">
        <ele>1152.0</ele>
        <time>2018-10-12T10:22:43.000Z</time>
      </trkpt>
      <trkpt lat="30.9314765930175781" lon="-6.9116702079772949">
        <ele>1152.0</ele>
        <time>2018-10-12T10:22:44.000Z</time>
      </trkpt>
      <trkpt lat="30.9314956665039062" lon="-6.9117321968078613">
        <ele>1152.0</ele>
        <time>2018-10-12T10:22:45.000Z</time>
      </trkpt>
      <trkpt lat="30.9315147399902344" lon="-6.9117951393127441">
        <ele>1152.0</ele>
        <time>2018-10-12T10:22:46.000Z</time>
      </trkpt>
      <trkpt lat="30.9315338134765625" lon="-6.9118590354919434">
        <ele>1152.0</ele>
        <time>2018-10-12T10:22:47.000Z</time>
      </trkpt>
      <trkpt lat="30.9315509796142578" lon="-6.9119219779968262">
        <ele>1152.0</ele>
        <time>2018-10-12T10:22:48.000Z</time>
      </trkpt>
      <trkpt lat="30.9315700531005859" lon="-6.9119868278503418">
        <ele>1152.0</ele>
        <time>2018-10-12T10:22:49.000Z</time>
      </trkpt>
      <trkpt lat="30.9315891265869141" lon="-6.9120512008666992">
        <ele>1152.0</ele>
        <time>2018-10-12T10:22:50.000Z</time>
      </trkpt>
      <trkpt lat="30.9316082000732422" lon="-6.9121160507202148">
        <ele>1152.0</ele>
        <time>2018-10-12T10:22:51.000Z</time>
      </trkpt>
      <trkpt lat="30.9316291809082031" lon="-6.9121818542480469">
        <ele>1152.0</ele>
        <time>2018-10-12T10:22:52.000Z</time>
      </trkpt>
      <trkpt lat="30.9316501617431641" lon="-6.9122471809387207">
        <ele>1152.0</ele>
        <time>2018-10-12T10:22:53.000Z</time>
      </trkpt>
      <trkpt lat="30.9316711425781250" lon="-6.9123129844665527">
        <ele>1152.0</ele>
        <time>2018-10-12T10:22:54.000Z</time>
      </trkpt>
      <trkpt lat="30.9316940307617188" lon="-6.9123787879943848">
        <ele>1152.0</ele>
        <time>2018-10-12T10:22:55.000Z</time>
      </trkpt>
      <trkpt lat="30.9317131042480469" lon="-6.9124469757080078">
        <ele>1152.0</ele>
        <time>2018-10-12T10:22:56.000Z</time>
      </trkpt>
      <trkpt lat="30.9317359924316406" lon="-6.9125151634216309">
        <ele>1152.0</ele>
        <time>2018-10-12T10:22:57.000Z</time>
      </trkpt>
      <trkpt lat="30.9317588806152344" lon="-6.9125828742980957">
        <ele>1152.0</ele>
        <time>2018-10-12T10:22:58.000Z</time>
      </trkpt>
      <trkpt lat="30.9317798614501953" lon="-6.9126510620117188">
        <ele>1152.0</ele>
        <time>2018-10-12T10:22:59.000Z</time>
      </trkpt>
      <trkpt lat="30.9318008422851562" lon="-6.9127187728881836">
        <ele>1152.0</ele>
        <time>2018-10-12T10:23:00.000Z</time>
      </trkpt>
      <trkpt lat="30.9318218231201172" lon="-6.9127860069274902">
        <ele>1152.81103515625</ele>
        <time>2018-10-12T10:23:01.000Z</time>
      </trkpt>
      <trkpt lat="30.9318408966064453" lon="-6.9128527641296387">
        <ele>1153.0</ele>
        <time>2018-10-12T10:23:02.000Z</time>
      </trkpt>
      <trkpt lat="30.9318561553955078" lon="-6.9129190444946289">
        <ele>1153.0</ele>
        <time>2018-10-12T10:23:03.000Z</time>
      </trkpt>
      <trkpt lat="30.9318733215332031" lon="-6.9129848480224609">
        <ele>1153.0</ele>
        <time>2018-10-12T10:23:04.000Z</time>
      </trkpt>
      <trkpt lat="30.9318885803222656" lon="-6.9130501747131348">
        <ele>1153.0</ele>
        <time>2018-10-12T10:23:05.000Z</time>
      </trkpt>
      <trkpt lat="30.9319038391113281" lon="-6.9131150245666504">
        <ele>1153.0</ele>
        <time>2018-10-12T10:23:06.000Z</time>
      </trkpt>
      <trkpt lat="30.9319190979003906" lon="-6.9131789207458496">
        <ele>1153.0</ele>
        <time>2018-10-12T10:23:07.000Z</time>
      </trkpt>
      <trkpt lat="30.9319343566894531" lon="-6.9132428169250488">
        <ele>1153.0</ele>
        <time>2018-10-12T10:23:08.000Z</time>
      </trkpt>
      <trkpt lat="30.9319477081298828" lon="-6.9133071899414062">
        <ele>1153.81103515625</ele>
        <time>2018-10-12T10:23:09.000Z</time>
      </trkpt>
      <trkpt lat="30.9319591522216797" lon="-6.9133710861206055">
        <ele>1154.0</ele>
        <time>2018-10-12T10:23:10.000Z</time>
      </trkpt>
      <trkpt lat="30.9319725036621094" lon="-6.9134340286254883">
        <ele>1154.0</ele>
        <time>2018-10-12T10:23:11.000Z</time>
      </trkpt>
      <trkpt lat="30.9319858551025391" lon="-6.9134969711303711">
        <ele>1154.0</ele>
        <time>2018-10-12T10:23:12.000Z</time>
      </trkpt>
      <trkpt lat="30.9319972991943359" lon="-6.9135599136352539">
        <ele>1154.0</ele>
        <time>2018-10-12T10:23:13.000Z</time>
      </trkpt>
      <trkpt lat="30.9320125579833984" lon="-6.9136247634887695">
        <ele>1153.1871337890625</ele>
        <time>2018-10-12T10:23:14.000Z</time>
      </trkpt>
      <trkpt lat="30.9320240020751953" lon="-6.9136900901794434">
        <ele>1153.0</ele>
        <time>2018-10-12T10:23:15.000Z</time>
      </trkpt>
      <trkpt lat="30.9320354461669922" lon="-6.9137578010559082">
        <ele>1153.0</ele>
        <time>2018-10-12T10:23:16.000Z</time>
      </trkpt>
      <trkpt lat="30.9320449829101562" lon="-6.9138278961181641">
        <ele>1153.0</ele>
        <time>2018-10-12T10:23:17.000Z</time>
      </trkpt>
      <trkpt lat="30.9320545196533203" lon="-6.9138970375061035">
        <ele>1153.0</ele>
        <time>2018-10-12T10:23:18.000Z</time>
      </trkpt>
      <trkpt lat="30.9320621490478516" lon="-6.9139652252197266">
        <ele>1153.6173095703125</ele>
        <time>2018-10-12T10:23:19.000Z</time>
      </trkpt>
      <trkpt lat="30.9320678710937500" lon="-6.9140348434448242">
        <ele>1154.0</ele>
        <time>2018-10-12T10:23:20.000Z</time>
      </trkpt>
      <trkpt lat="30.9320735931396484" lon="-6.9141039848327637">
        <ele>1154.0</ele>
        <time>2018-10-12T10:23:21.000Z</time>
      </trkpt>
      <trkpt lat="30.9320774078369141" lon="-6.9141740798950195">
        <ele>1154.0</ele>
        <time>2018-10-12T10:23:22.000Z</time>
      </trkpt>
      <trkpt lat="30.9320793151855469" lon="-6.9142441749572754">
        <ele>1154.0</ele>
        <time>2018-10-12T10:23:23.000Z</time>
      </trkpt>
      <trkpt lat="30.9320812225341797" lon="-6.9143137931823730">
        <ele>1154.0</ele>
        <time>2018-10-12T10:23:24.000Z</time>
      </trkpt>
      <trkpt lat="30.9320831298828125" lon="-6.9143848419189453">
        <ele>1154.0</ele>
        <time>2018-10-12T10:23:25.000Z</time>
      </trkpt>
      <trkpt lat="30.9320831298828125" lon="-6.9144558906555176">
        <ele>1154.0</ele>
        <time>2018-10-12T10:23:26.000Z</time>
      </trkpt>
      <trkpt lat="30.9320812225341797" lon="-6.9145269393920898">
        <ele>1154.0</ele>
        <time>2018-10-12T10:23:27.000Z</time>
      </trkpt>
      <trkpt lat="30.9320793151855469" lon="-6.9145970344543457">
        <ele>1154.0</ele>
        <time>2018-10-12T10:23:28.000Z</time>
      </trkpt>
      <trkpt lat="30.9320793151855469" lon="-6.9146671295166016">
        <ele>1154.0</ele>
        <time>2018-10-12T10:23:29.000Z</time>
      </trkpt>
      <trkpt lat="30.9320755004882812" lon="-6.9147348403930664">
        <ele>1154.0</ele>
        <time>2018-10-12T10:23:30.000Z</time>
      </trkpt>
      <trkpt lat="30.9320716857910156" lon="-6.9148039817810059">
        <ele>1154.0</ele>
        <time>2018-10-12T10:23:31.000Z</time>
      </trkpt>
      <trkpt lat="30.9320678710937500" lon="-6.9148721694946289">
        <ele>1154.0</ele>
        <time>2018-10-12T10:23:32.000Z</time>
      </trkpt>
      <trkpt lat="30.9320659637451172" lon="-6.9149408340454102">
        <ele>1154.821044921875</ele>
        <time>2018-10-12T10:23:33.000Z</time>
      </trkpt>
      <trkpt lat="30.9320774078369141" lon="-6.9150109291076660">
        <ele>1155.0</ele>
        <time>2018-10-12T10:23:34.000Z</time>
      </trkpt>
      <trkpt lat="30.9321022033691406" lon="-6.9150738716125488">
        <ele>1155.0</ele>
        <time>2018-10-12T10:23:35.000Z</time>
      </trkpt>
      <trkpt lat="30.9321384429931641" lon="-6.9151310920715332">
        <ele>1155.0</ele>
        <time>2018-10-12T10:23:36.000Z</time>
      </trkpt>
      <trkpt lat="30.9321765899658203" lon="-6.9151849746704102">
        <ele>1155.0</ele>
        <time>2018-10-12T10:23:37.000Z</time>
      </trkpt>
      <trkpt lat="30.9322166442871094" lon="-6.9152379035949707">
        <ele>1155.0</ele>
        <time>2018-10-12T10:23:38.000Z</time>
      </trkpt>
      <trkpt lat="30.9322566986083984" lon="-6.9152889251708984">
        <ele>1155.0</ele>
        <time>2018-10-12T10:23:39.000Z</time>
      </trkpt>
      <trkpt lat="30.9322986602783203" lon="-6.9153399467468262">
        <ele>1155.0</ele>
        <time>2018-10-12T10:23:40.000Z</time>
      </trkpt>
      <trkpt lat="30.9323387145996094" lon="-6.9153909683227539">
        <ele>1155.0</ele>
        <time>2018-10-12T10:23:41.000Z</time>
      </trkpt>
      <trkpt lat="30.9323749542236328" lon="-6.9154410362243652">
        <ele>1155.0</ele>
        <time>2018-10-12T10:23:42.000Z</time>
      </trkpt>
      <trkpt lat="30.9324111938476562" lon="-6.9154920578002930">
        <ele>1155.0</ele>
        <time>2018-10-12T10:23:43.000Z</time>
      </trkpt>
      <trkpt lat="30.9324474334716797" lon="-6.9155411720275879">
        <ele>1155.0</ele>
        <time>2018-10-12T10:23:44.000Z</time>
      </trkpt>
      <trkpt lat="30.9324836730957031" lon="-6.9155898094177246">
        <ele>1155.0</ele>
        <time>2018-10-12T10:23:45.000Z</time>
      </trkpt>
      <trkpt lat="30.9325199127197266" lon="-6.9156389236450195">
        <ele>1155.0</ele>
        <time>2018-10-12T10:23:46.000Z</time>
      </trkpt>
      <trkpt lat="30.9325542449951172" lon="-6.9156870841979980">
        <ele>1155.0</ele>
        <time>2018-10-12T10:23:47.000Z</time>
      </trkpt>
      <trkpt lat="30.9325904846191406" lon="-6.9157347679138184">
        <ele>1155.623779296875</ele>
        <time>2018-10-12T10:23:48.000Z</time>
      </trkpt>
      <trkpt lat="30.9326267242431641" lon="-6.9157829284667969">
        <ele>1156.0</ele>
        <time>2018-10-12T10:23:49.000Z</time>
      </trkpt>
      <trkpt lat="30.9326610565185547" lon="-6.9158310890197754">
        <ele>1156.0</ele>
        <time>2018-10-12T10:23:50.000Z</time>
      </trkpt>
      <trkpt lat="30.9326972961425781" lon="-6.9158802032470703">
        <ele>1156.0</ele>
        <time>2018-10-12T10:23:51.000Z</time>
      </trkpt>
      <trkpt lat="30.9327335357666016" lon="-6.9159288406372070">
        <ele>1156.0</ele>
        <time>2018-10-12T10:23:52.000Z</time>
      </trkpt>
      <trkpt lat="30.9327716827392578" lon="-6.9159779548645020">
        <ele>1156.0</ele>
        <time>2018-10-12T10:23:53.000Z</time>
      </trkpt>
      <trkpt lat="30.9328079223632812" lon="-6.9160270690917969">
        <ele>1156.0</ele>
        <time>2018-10-12T10:23:54.000Z</time>
      </trkpt>
      <trkpt lat="30.9328422546386719" lon="-6.9160771369934082">
        <ele>1156.0</ele>
        <time>2018-10-12T10:23:55.000Z</time>
      </trkpt>
      <trkpt lat="30.9328784942626953" lon="-6.9161272048950195">
        <ele>1155.178955078125</ele>
        <time>2018-10-12T10:23:56.000Z</time>
      </trkpt>
      <trkpt lat="30.9329166412353516" lon="-6.9161782264709473">
        <ele>1155.0</ele>
        <time>2018-10-12T10:23:57.000Z</time>
      </trkpt>
      <trkpt lat="30.9329586029052734" lon="-6.9162278175354004">
        <ele>1155.0</ele>
        <time>2018-10-12T10:23:58.000Z</time>
      </trkpt>
      <trkpt lat="30.9330005645751953" lon="-6.9162821769714355">
        <ele>1155.821044921875</ele>
        <time>2018-10-12T10:23:59.000Z</time>
      </trkpt>
      <trkpt lat="30.9330425262451172" lon="-6.9163370132446289">
        <ele>1156.0</ele>
        <time>2018-10-12T10:24:00.000Z</time>
      </trkpt>
      <trkpt lat="30.9330863952636719" lon="-6.9163928031921387">
        <ele>1156.0</ele>
        <time>2018-10-12T10:24:01.000Z</time>
      </trkpt>
      <trkpt lat="30.9331264495849609" lon="-6.9164500236511230">
        <ele>1156.0</ele>
        <time>2018-10-12T10:24:02.000Z</time>
      </trkpt>
      <trkpt lat="30.9331665039062500" lon="-6.9165067672729492">
        <ele>1156.0</ele>
        <time>2018-10-12T10:24:03.000Z</time>
      </trkpt>
      <trkpt lat="30.9332065582275391" lon="-6.9165639877319336">
        <ele>1156.0</ele>
        <time>2018-10-12T10:24:04.000Z</time>
      </trkpt>
      <trkpt lat="30.9332485198974609" lon="-6.9166212081909180">
        <ele>1156.0</ele>
        <time>2018-10-12T10:24:05.000Z</time>
      </trkpt>
      <trkpt lat="30.9332885742187500" lon="-6.9166779518127441">
        <ele>1156.0</ele>
        <time>2018-10-12T10:24:06.000Z</time>
      </trkpt>
      <trkpt lat="30.9333305358886719" lon="-6.9167370796203613">
        <ele>1156.0</ele>
        <time>2018-10-12T10:24:07.000Z</time>
      </trkpt>
      <trkpt lat="30.9333724975585938" lon="-6.9167962074279785">
        <ele>1156.0</ele>
        <time>2018-10-12T10:24:08.000Z</time>
      </trkpt>
      <trkpt lat="30.9334106445312500" lon="-6.9168558120727539">
        <ele>1156.0</ele>
        <time>2018-10-12T10:24:09.000Z</time>
      </trkpt>
      <trkpt lat="30.9334487915039062" lon="-6.9169168472290039">
        <ele>1156.0</ele>
        <time>2018-10-12T10:24:10.000Z</time>
      </trkpt>
      <trkpt lat="30.9334888458251953" lon="-6.9169769287109375">
        <ele>1156.0</ele>
        <time>2018-10-12T10:24:11.000Z</time>
      </trkpt>
      <trkpt lat="30.9335250854492188" lon="-6.9170360565185547">
        <ele>1156.0</ele>
        <time>2018-10-12T10:24:12.000Z</time>
      </trkpt>
      <trkpt lat="30.9335632324218750" lon="-6.9170961380004883">
        <ele>1156.0</ele>
        <time>2018-10-12T10:24:13.000Z</time>
      </trkpt>
      <trkpt lat="30.9335975646972656" lon="-6.9171581268310547">
        <ele>1156.0</ele>
        <time>2018-10-12T10:24:14.000Z</time>
      </trkpt>
      <trkpt lat="30.9336318969726562" lon="-6.9172210693359375">
        <ele>1156.0</ele>
        <time>2018-10-12T10:24:15.000Z</time>
      </trkpt>
      <trkpt lat="30.9336643218994141" lon="-6.9172840118408203">
        <ele>1156.0</ele>
        <time>2018-10-12T10:24:16.000Z</time>
      </trkpt>
      <trkpt lat="30.9337005615234375" lon="-6.9173479080200195">
        <ele>1156.0</ele>
        <time>2018-10-12T10:24:17.000Z</time>
      </trkpt>
      <trkpt lat="30.9337329864501953" lon="-6.9174151420593262">
        <ele>1156.0</ele>
        <time>2018-10-12T10:24:18.000Z</time>
      </trkpt>
      <trkpt lat="30.9337673187255859" lon="-6.9174818992614746">
        <ele>1156.0</ele>
        <time>2018-10-12T10:24:19.000Z</time>
      </trkpt>
      <trkpt lat="30.9338016510009766" lon="-6.9175491333007812">
        <ele>1156.0</ele>
        <time>2018-10-12T10:24:20.000Z</time>
      </trkpt>
      <trkpt lat="30.9338340759277344" lon="-6.9176149368286133">
        <ele>1156.0</ele>
        <time>2018-10-12T10:24:21.000Z</time>
      </trkpt>
      <trkpt lat="30.9338665008544922" lon="-6.9176812171936035">
        <ele>1156.0</ele>
        <time>2018-10-12T10:24:22.000Z</time>
      </trkpt>
      <trkpt lat="30.9339008331298828" lon="-6.9177460670471191">
        <ele>1156.0</ele>
        <time>2018-10-12T10:24:23.000Z</time>
      </trkpt>
      <trkpt lat="30.9339313507080078" lon="-6.9178099632263184">
        <ele>1156.0</ele>
        <time>2018-10-12T10:24:24.000Z</time>
      </trkpt>
      <trkpt lat="30.9339656829833984" lon="-6.9178738594055176">
        <ele>1156.0</ele>
        <time>2018-10-12T10:24:25.000Z</time>
      </trkpt>
      <trkpt lat="30.9339981079101562" lon="-6.9179382324218750">
        <ele>1156.0</ele>
        <time>2018-10-12T10:24:26.000Z</time>
      </trkpt>
      <trkpt lat="30.9340305328369141" lon="-6.9180030822753906">
        <ele>1156.0</ele>
        <time>2018-10-12T10:24:27.000Z</time>
      </trkpt>
      <trkpt lat="30.9340648651123047" lon="-6.9180688858032227">
        <ele>1156.0</ele>
        <time>2018-10-12T10:24:28.000Z</time>
      </trkpt>
      <trkpt lat="30.9340972900390625" lon="-6.9181342124938965">
        <ele>1156.0</ele>
        <time>2018-10-12T10:24:29.000Z</time>
      </trkpt>
      <trkpt lat="30.9341278076171875" lon="-6.9182009696960449">
        <ele>1156.0</ele>
        <time>2018-10-12T10:24:30.000Z</time>
      </trkpt>
      <trkpt lat="30.9341564178466797" lon="-6.9182691574096680">
        <ele>1156.0</ele>
        <time>2018-10-12T10:24:31.000Z</time>
      </trkpt>
      <trkpt lat="30.9341850280761719" lon="-6.9183359146118164">
        <ele>1156.0</ele>
        <time>2018-10-12T10:24:32.000Z</time>
      </trkpt>
      <trkpt lat="30.9342136383056641" lon="-6.9184031486511230">
        <ele>1156.0</ele>
        <time>2018-10-12T10:24:33.000Z</time>
      </trkpt>
      <trkpt lat="30.9342422485351562" lon="-6.9184689521789551">
        <ele>1156.0</ele>
        <time>2018-10-12T10:24:34.000Z</time>
      </trkpt>
      <trkpt lat="30.9342708587646484" lon="-6.9185361862182617">
        <ele>1156.0</ele>
        <time>2018-10-12T10:24:35.000Z</time>
      </trkpt>
      <trkpt lat="30.9342975616455078" lon="-6.9186019897460938">
        <ele>1156.0</ele>
        <time>2018-10-12T10:24:36.000Z</time>
      </trkpt>
      <trkpt lat="30.9343242645263672" lon="-6.9186692237854004">
        <ele>1156.0</ele>
        <time>2018-10-12T10:24:37.000Z</time>
      </trkpt>
      <trkpt lat="30.9343490600585938" lon="-6.9187350273132324">
        <ele>1156.0</ele>
        <time>2018-10-12T10:24:38.000Z</time>
      </trkpt>
      <trkpt lat="30.9343738555908203" lon="-6.9188008308410645">
        <ele>1156.0</ele>
        <time>2018-10-12T10:24:39.000Z</time>
      </trkpt>
      <trkpt lat="30.9343986511230469" lon="-6.9188661575317383">
        <ele>1156.8173828125</ele>
        <time>2018-10-12T10:24:40.000Z</time>
      </trkpt>
      <trkpt lat="30.9344234466552734" lon="-6.9189310073852539">
        <ele>1157.0</ele>
        <time>2018-10-12T10:24:41.000Z</time>
      </trkpt>
      <trkpt lat="30.9344463348388672" lon="-6.9189949035644531">
        <ele>1157.0</ele>
        <time>2018-10-12T10:24:42.000Z</time>
      </trkpt>
      <trkpt lat="30.9344692230224609" lon="-6.9190587997436523">
        <ele>1157.0</ele>
        <time>2018-10-12T10:24:43.000Z</time>
      </trkpt>
      <trkpt lat="30.9344940185546875" lon="-6.9191222190856934">
        <ele>1157.0</ele>
        <time>2018-10-12T10:24:44.000Z</time>
      </trkpt>
      <trkpt lat="30.9345188140869141" lon="-6.9191861152648926">
        <ele>1157.0</ele>
        <time>2018-10-12T10:24:45.000Z</time>
      </trkpt>
      <trkpt lat="30.9345436096191406" lon="-6.9192509651184082">
        <ele>1157.0</ele>
        <time>2018-10-12T10:24:46.000Z</time>
      </trkpt>
      <trkpt lat="30.9345684051513672" lon="-6.9193167686462402">
        <ele>1157.0</ele>
        <time>2018-10-12T10:24:47.000Z</time>
      </trkpt>
      <trkpt lat="30.9345951080322266" lon="-6.9193840026855469">
        <ele>1157.821044921875</ele>
        <time>2018-10-12T10:24:48.000Z</time>
      </trkpt>
      <trkpt lat="30.9346218109130859" lon="-6.9194512367248535">
        <ele>1158.0</ele>
        <time>2018-10-12T10:24:49.000Z</time>
      </trkpt>
      <trkpt lat="30.9346485137939453" lon="-6.9195179939270020">
        <ele>1158.0</ele>
        <time>2018-10-12T10:24:50.000Z</time>
      </trkpt>
      <trkpt lat="30.9346752166748047" lon="-6.9195837974548340">
        <ele>1158.0</ele>
        <time>2018-10-12T10:24:51.000Z</time>
      </trkpt>
      <trkpt lat="30.9347019195556641" lon="-6.9196500778198242">
        <ele>1158.0</ele>
        <time>2018-10-12T10:24:52.000Z</time>
      </trkpt>
      <trkpt lat="30.9347267150878906" lon="-6.9197168350219727">
        <ele>1158.0</ele>
        <time>2018-10-12T10:24:53.000Z</time>
      </trkpt>
      <trkpt lat="30.9347534179687500" lon="-6.9197821617126465">
        <ele>1157.2398681640625</ele>
        <time>2018-10-12T10:24:54.000Z</time>
      </trkpt>
      <trkpt lat="30.9347782135009766" lon="-6.9198479652404785">
        <ele>1157.0</ele>
        <time>2018-10-12T10:24:55.000Z</time>
      </trkpt>
      <trkpt lat="30.9348011016845703" lon="-6.9199137687683105">
        <ele>1157.0</ele>
        <time>2018-10-12T10:24:56.000Z</time>
      </trkpt>
      <trkpt lat="30.9348278045654297" lon="-6.9199781417846680">
        <ele>1157.0</ele>
        <time>2018-10-12T10:24:57.000Z</time>
      </trkpt>
      <trkpt lat="30.9348526000976562" lon="-6.9200420379638672">
        <ele>1157.0</ele>
        <time>2018-10-12T10:24:58.000Z</time>
      </trkpt>
      <trkpt lat="30.9348793029785156" lon="-6.9201068878173828">
        <ele>1157.821044921875</ele>
        <time>2018-10-12T10:24:59.000Z</time>
      </trkpt>
      <trkpt lat="30.9349040985107422" lon="-6.9201731681823730">
        <ele>1158.0</ele>
        <time>2018-10-12T10:25:00.000Z</time>
      </trkpt>
      <trkpt lat="30.9349308013916016" lon="-6.9202389717102051">
        <ele>1158.0</ele>
        <time>2018-10-12T10:25:01.000Z</time>
      </trkpt>
      <trkpt lat="30.9349575042724609" lon="-6.9203062057495117">
        <ele>1158.0</ele>
        <time>2018-10-12T10:25:02.000Z</time>
      </trkpt>
      <trkpt lat="30.9349822998046875" lon="-6.9203748703002930">
        <ele>1158.0</ele>
        <time>2018-10-12T10:25:03.000Z</time>
      </trkpt>
      <trkpt lat="30.9350109100341797" lon="-6.9204430580139160">
        <ele>1158.0</ele>
        <time>2018-10-12T10:25:04.000Z</time>
      </trkpt>
      <trkpt lat="30.9350376129150391" lon="-6.9205121994018555">
        <ele>1158.0</ele>
        <time>2018-10-12T10:25:05.000Z</time>
      </trkpt>
      <trkpt lat="30.9350643157958984" lon="-6.9205808639526367">
        <ele>1158.0</ele>
        <time>2018-10-12T10:25:06.000Z</time>
      </trkpt>
      <trkpt lat="30.9350891113281250" lon="-6.9206490516662598">
        <ele>1158.821044921875</ele>
        <time>2018-10-12T10:25:07.000Z</time>
      </trkpt>
      <trkpt lat="30.9351177215576172" lon="-6.9207158088684082">
        <ele>1159.0</ele>
        <time>2018-10-12T10:25:08.000Z</time>
      </trkpt>
      <trkpt lat="30.9351425170898438" lon="-6.9207830429077148">
        <ele>1159.0</ele>
        <time>2018-10-12T10:25:09.000Z</time>
      </trkpt>
      <trkpt lat="30.9351692199707031" lon="-6.9208498001098633">
        <ele>1159.0</ele>
        <time>2018-10-12T10:25:10.000Z</time>
      </trkpt>
      <trkpt lat="30.9351940155029297" lon="-6.9209160804748535">
        <ele>1159.0</ele>
        <time>2018-10-12T10:25:11.000Z</time>
      </trkpt>
      <trkpt lat="30.9352188110351562" lon="-6.9209809303283691">
        <ele>1159.0</ele>
        <time>2018-10-12T10:25:12.000Z</time>
      </trkpt>
      <trkpt lat="30.9352455139160156" lon="-6.9210472106933594">
        <ele>1159.0</ele>
        <time>2018-10-12T10:25:13.000Z</time>
      </trkpt>
      <trkpt lat="30.9352741241455078" lon="-6.9211130142211914">
        <ele>1159.0</ele>
        <time>2018-10-12T10:25:14.000Z</time>
      </trkpt>
      <trkpt lat="30.9353027343750000" lon="-6.9211797714233398">
        <ele>1159.821044921875</ele>
        <time>2018-10-12T10:25:15.000Z</time>
      </trkpt>
      <trkpt lat="30.9353313446044922" lon="-6.9212489128112793">
        <ele>1160.0</ele>
        <time>2018-10-12T10:25:16.000Z</time>
      </trkpt>
      <trkpt lat="30.9353561401367188" lon="-6.9213180541992188">
        <ele>1160.0</ele>
        <time>2018-10-12T10:25:17.000Z</time>
      </trkpt>
      <trkpt lat="30.9353828430175781" lon="-6.9213848114013672">
        <ele>1160.0</ele>
        <time>2018-10-12T10:25:18.000Z</time>
      </trkpt>
      <trkpt lat="30.9354095458984375" lon="-6.9214510917663574">
        <ele>1160.0</ele>
        <time>2018-10-12T10:25:19.000Z</time>
      </trkpt>
      <trkpt lat="30.9354343414306641" lon="-6.9215159416198730">
        <ele>1160.0</ele>
        <time>2018-10-12T10:25:20.000Z</time>
      </trkpt>
      <trkpt lat="30.9354610443115234" lon="-6.9215822219848633">
        <ele>1160.0</ele>
        <time>2018-10-12T10:25:21.000Z</time>
      </trkpt>
      <trkpt lat="30.9354877471923828" lon="-6.9216480255126953">
        <ele>1160.0</ele>
        <time>2018-10-12T10:25:22.000Z</time>
      </trkpt>
      <trkpt lat="30.9355125427246094" lon="-6.9217147827148438">
        <ele>1160.0</ele>
        <time>2018-10-12T10:25:23.000Z</time>
      </trkpt>
      <trkpt lat="30.9355373382568359" lon="-6.9217820167541504">
        <ele>1160.0</ele>
        <time>2018-10-12T10:25:24.000Z</time>
      </trkpt>
      <trkpt lat="30.9355640411376953" lon="-6.9218478202819824">
        <ele>1160.0</ele>
        <time>2018-10-12T10:25:25.000Z</time>
      </trkpt>
      <trkpt lat="30.9355926513671875" lon="-6.9219150543212891">
        <ele>1160.0</ele>
        <time>2018-10-12T10:25:26.000Z</time>
      </trkpt>
      <trkpt lat="30.9356174468994141" lon="-6.9219827651977539">
        <ele>1160.0</ele>
        <time>2018-10-12T10:25:27.000Z</time>
      </trkpt>
      <trkpt lat="30.9356422424316406" lon="-6.9220509529113770">
        <ele>1160.0</ele>
        <time>2018-10-12T10:25:28.000Z</time>
      </trkpt>
      <trkpt lat="30.9356689453125000" lon="-6.9221200942993164">
        <ele>1160.0</ele>
        <time>2018-10-12T10:25:29.000Z</time>
      </trkpt>
      <trkpt lat="30.9356937408447266" lon="-6.9221868515014648">
        <ele>1160.821044921875</ele>
        <time>2018-10-12T10:25:30.000Z</time>
      </trkpt>
      <trkpt lat="30.9357204437255859" lon="-6.9222531318664551">
        <ele>1161.0</ele>
        <time>2018-10-12T10:25:31.000Z</time>
      </trkpt>
      <trkpt lat="30.9357471466064453" lon="-6.9223189353942871">
        <ele>1161.0</ele>
        <time>2018-10-12T10:25:32.000Z</time>
      </trkpt>
      <trkpt lat="30.9357738494873047" lon="-6.9223828315734863">
        <ele>1161.0</ele>
        <time>2018-10-12T10:25:33.000Z</time>
      </trkpt>
      <trkpt lat="30.9358005523681641" lon="-6.9224481582641602">
        <ele>1161.0</ele>
        <time>2018-10-12T10:25:34.000Z</time>
      </trkpt>
      <trkpt lat="30.9358253479003906" lon="-6.9225120544433594">
        <ele>1161.0</ele>
        <time>2018-10-12T10:25:35.000Z</time>
      </trkpt>
      <trkpt lat="30.9358501434326172" lon="-6.9225769042968750">
        <ele>1161.0</ele>
        <time>2018-10-12T10:25:36.000Z</time>
      </trkpt>
      <trkpt lat="30.9358768463134766" lon="-6.9226422309875488">
        <ele>1161.0</ele>
        <time>2018-10-12T10:25:37.000Z</time>
      </trkpt>
      <trkpt lat="30.9359035491943359" lon="-6.9227080345153809">
        <ele>1161.7479248046875</ele>
        <time>2018-10-12T10:25:38.000Z</time>
      </trkpt>
      <trkpt lat="30.9359302520751953" lon="-6.9227747917175293">
        <ele>1162.0</ele>
        <time>2018-10-12T10:25:39.000Z</time>
      </trkpt>
      <trkpt lat="30.9359550476074219" lon="-6.9228401184082031">
        <ele>1162.0</ele>
        <time>2018-10-12T10:25:40.000Z</time>
      </trkpt>
      <trkpt lat="30.9359798431396484" lon="-6.9229021072387695">
        <ele>1162.0</ele>
        <time>2018-10-12T10:25:41.000Z</time>
      </trkpt>
      <trkpt lat="30.9360046386718750" lon="-6.9229660034179688">
        <ele>1162.636474609375</ele>
        <time>2018-10-12T10:25:42.000Z</time>
      </trkpt>
      <trkpt lat="30.9360294342041016" lon="-6.9230298995971680">
        <ele>1163.0</ele>
        <time>2018-10-12T10:25:43.000Z</time>
      </trkpt>
      <trkpt lat="30.9360523223876953" lon="-6.9230928421020508">
        <ele>1163.0</ele>
        <time>2018-10-12T10:25:44.000Z</time>
      </trkpt>
      <trkpt lat="30.9360733032226562" lon="-6.9231510162353516">
        <ele>1163.0</ele>
        <time>2018-10-12T10:25:45.000Z</time>
      </trkpt>
      <trkpt lat="30.9360942840576172" lon="-6.9232082366943359">
        <ele>1163.0</ele>
        <time>2018-10-12T10:25:46.000Z</time>
      </trkpt>
      <trkpt lat="30.9361171722412109" lon="-6.9232649803161621">
        <ele>1163.0</ele>
        <time>2018-10-12T10:25:47.000Z</time>
      </trkpt>
      <trkpt lat="30.9361400604248047" lon="-6.9233231544494629">
        <ele>1163.0</ele>
        <time>2018-10-12T10:25:48.000Z</time>
      </trkpt>
      <trkpt lat="30.9361629486083984" lon="-6.9233789443969727">
        <ele>1163.0</ele>
        <time>2018-10-12T10:25:49.000Z</time>
      </trkpt>
      <trkpt lat="30.9361820220947266" lon="-6.9234299659729004">
        <ele>1163.821044921875</ele>
        <time>2018-10-12T10:25:50.000Z</time>
      </trkpt>
      <trkpt lat="30.9362010955810547" lon="-6.9234790802001953">
        <ele>1164.0</ele>
        <time>2018-10-12T10:25:51.000Z</time>
      </trkpt>
      <trkpt lat="30.9362220764160156" lon="-6.9235301017761230">
        <ele>1164.821044921875</ele>
        <time>2018-10-12T10:25:52.000Z</time>
      </trkpt>
      <trkpt lat="30.9362430572509766" lon="-6.9235820770263672">
        <ele>1165.0</ele>
        <time>2018-10-12T10:25:53.000Z</time>
      </trkpt>
      <trkpt lat="30.9362659454345703" lon="-6.9236350059509277">
        <ele>1165.0</ele>
        <time>2018-10-12T10:25:54.000Z</time>
      </trkpt>
      <trkpt lat="30.9362869262695312" lon="-6.9236888885498047">
        <ele>1165.0</ele>
        <time>2018-10-12T10:25:55.000Z</time>
      </trkpt>
      <trkpt lat="30.9363079071044922" lon="-6.9237451553344727">
        <ele>1165.0</ele>
        <time>2018-10-12T10:25:56.000Z</time>
      </trkpt>
      <trkpt lat="30.9363288879394531" lon="-6.9237971305847168">
        <ele>1165.0</ele>
        <time>2018-10-12T10:25:57.000Z</time>
      </trkpt>
      <trkpt lat="30.9363460540771484" lon="-6.9238481521606445">
        <ele>1165.0</ele>
        <time>2018-10-12T10:25:58.000Z</time>
      </trkpt>
      <trkpt lat="30.9363651275634766" lon="-6.9238982200622559">
        <ele>1165.0</ele>
        <time>2018-10-12T10:25:59.000Z</time>
      </trkpt>
      <trkpt lat="30.9363842010498047" lon="-6.9239478111267090">
        <ele>1165.0</ele>
        <time>2018-10-12T10:26:00.000Z</time>
      </trkpt>
      <trkpt lat="30.9364032745361328" lon="-6.9239978790283203">
        <ele>1165.0</ele>
        <time>2018-10-12T10:26:01.000Z</time>
      </trkpt>
      <trkpt lat="30.9364204406738281" lon="-6.9240450859069824">
        <ele>1165.0</ele>
        <time>2018-10-12T10:26:02.000Z</time>
      </trkpt>
      <trkpt lat="30.9364356994628906" lon="-6.9240899085998535">
        <ele>1165.8128662109375</ele>
        <time>2018-10-12T10:26:03.000Z</time>
      </trkpt>
      <trkpt lat="30.9364490509033203" lon="-6.9241328239440918">
        <ele>1166.0</ele>
        <time>2018-10-12T10:26:04.000Z</time>
      </trkpt>
      <trkpt lat="30.9364643096923828" lon="-6.9241738319396973">
        <ele>1166.0</ele>
        <time>2018-10-12T10:26:05.000Z</time>
      </trkpt>
      <trkpt lat="30.9364795684814453" lon="-6.9242119789123535">
        <ele>1166.0</ele>
        <time>2018-10-12T10:26:06.000Z</time>
      </trkpt>
      <trkpt lat="30.9364967346191406" lon="-6.9242501258850098">
        <ele>1166.0</ele>
        <time>2018-10-12T10:26:07.000Z</time>
      </trkpt>
      <trkpt lat="30.9365139007568359" lon="-6.9242858886718750">
        <ele>1166.0</ele>
        <time>2018-10-12T10:26:08.000Z</time>
      </trkpt>
      <trkpt lat="30.9365348815917969" lon="-6.9243202209472656">
        <ele>1166.0</ele>
        <time>2018-10-12T10:26:09.000Z</time>
      </trkpt>
      <trkpt lat="30.9365634918212891" lon="-6.9243497848510742">
        <ele>1166.0</ele>
        <time>2018-10-12T10:26:10.000Z</time>
      </trkpt>
      <trkpt lat="30.9366016387939453" lon="-6.9243688583374023">
        <ele>1166.0</ele>
        <time>2018-10-12T10:26:11.000Z</time>
      </trkpt>
      <trkpt lat="30.9366455078125000" lon="-6.9243831634521484">
        <ele>1166.0</ele>
        <time>2018-10-12T10:26:12.000Z</time>
      </trkpt>
      <trkpt lat="30.9366931915283203" lon="-6.9243941307067871">
        <ele>1166.0</ele>
        <time>2018-10-12T10:26:13.000Z</time>
      </trkpt>
      <trkpt lat="30.9367427825927734" lon="-6.9244050979614258">
        <ele>1166.0</ele>
        <time>2018-10-12T10:26:14.000Z</time>
      </trkpt>
      <trkpt lat="30.9367923736572266" lon="-6.9244170188903809">
        <ele>1166.0</ele>
        <time>2018-10-12T10:26:15.000Z</time>
      </trkpt>
      <trkpt lat="30.9368438720703125" lon="-6.9244298934936523">
        <ele>1166.0</ele>
        <time>2018-10-12T10:26:16.000Z</time>
      </trkpt>
      <trkpt lat="30.9368953704833984" lon="-6.9244427680969238">
        <ele>1165.373291015625</ele>
        <time>2018-10-12T10:26:17.000Z</time>
      </trkpt>
      <trkpt lat="30.9369487762451172" lon="-6.9244518280029297">
        <ele>1165.0</ele>
        <time>2018-10-12T10:26:18.000Z</time>
      </trkpt>
      <trkpt lat="30.9370040893554688" lon="-6.9244570732116699">
        <ele>1165.0</ele>
        <time>2018-10-12T10:26:19.000Z</time>
      </trkpt>
      <trkpt lat="30.9370574951171875" lon="-6.9244618415832520">
        <ele>1165.0</ele>
        <time>2018-10-12T10:26:20.000Z</time>
      </trkpt>
      <trkpt lat="30.9371109008789062" lon="-6.9244728088378906">
        <ele>1165.0</ele>
        <time>2018-10-12T10:26:21.000Z</time>
      </trkpt>
      <trkpt lat="30.9371643066406250" lon="-6.9244899749755859">
        <ele>1165.0</ele>
        <time>2018-10-12T10:26:22.000Z</time>
      </trkpt>
      <trkpt lat="30.9372177124023438" lon="-6.9245090484619141">
        <ele>1164.178955078125</ele>
        <time>2018-10-12T10:26:23.000Z</time>
      </trkpt>
      <trkpt lat="30.9372673034667969" lon="-6.9245300292968750">
        <ele>1164.0</ele>
        <time>2018-10-12T10:26:24.000Z</time>
      </trkpt>
      <trkpt lat="30.9373188018798828" lon="-6.9245519638061523">
        <ele>1164.0</ele>
        <time>2018-10-12T10:26:25.000Z</time>
      </trkpt>
      <trkpt lat="30.9373683929443359" lon="-6.9245758056640625">
        <ele>1164.0</ele>
        <time>2018-10-12T10:26:26.000Z</time>
      </trkpt>
      <trkpt lat="30.9374160766601562" lon="-6.9246010780334473">
        <ele>1164.0</ele>
        <time>2018-10-12T10:26:27.000Z</time>
      </trkpt>
      <trkpt lat="30.9374618530273438" lon="-6.9246292114257812">
        <ele>1163.2593994140625</ele>
        <time>2018-10-12T10:26:28.000Z</time>
      </trkpt>
      <trkpt lat="30.9375038146972656" lon="-6.9246611595153809">
        <ele>1163.0</ele>
        <time>2018-10-12T10:26:29.000Z</time>
      </trkpt>
      <trkpt lat="30.9375457763671875" lon="-6.9246950149536133">
        <ele>1163.0</ele>
        <time>2018-10-12T10:26:30.000Z</time>
      </trkpt>
      <trkpt lat="30.9375877380371094" lon="-6.9247331619262695">
        <ele>1163.0</ele>
        <time>2018-10-12T10:26:31.000Z</time>
      </trkpt>
      <trkpt lat="30.9376277923583984" lon="-6.9247741699218750">
        <ele>1163.0</ele>
        <time>2018-10-12T10:26:32.000Z</time>
      </trkpt>
      <trkpt lat="30.9376659393310547" lon="-6.9248161315917969">
        <ele>1163.0</ele>
        <time>2018-10-12T10:26:33.000Z</time>
      </trkpt>
      <trkpt lat="30.9377059936523438" lon="-6.9248561859130859">
        <ele>1163.0</ele>
        <time>2018-10-12T10:26:34.000Z</time>
      </trkpt>
      <trkpt lat="30.9377441406250000" lon="-6.9248948097229004">
        <ele>1163.0</ele>
        <time>2018-10-12T10:26:35.000Z</time>
      </trkpt>
      <trkpt lat="30.9377822875976562" lon="-6.9249339103698730">
        <ele>1163.0</ele>
        <time>2018-10-12T10:26:36.000Z</time>
      </trkpt>
      <trkpt lat="30.9378223419189453" lon="-6.9249730110168457">
        <ele>1163.0</ele>
        <time>2018-10-12T10:26:37.000Z</time>
      </trkpt>
      <trkpt lat="30.9378604888916016" lon="-6.9250121116638184">
        <ele>1163.0</ele>
        <time>2018-10-12T10:26:38.000Z</time>
      </trkpt>
      <trkpt lat="30.9378967285156250" lon="-6.9250521659851074">
        <ele>1163.0</ele>
        <time>2018-10-12T10:26:39.000Z</time>
      </trkpt>
      <trkpt lat="30.9379310607910156" lon="-6.9250941276550293">
        <ele>1163.0</ele>
        <time>2018-10-12T10:26:40.000Z</time>
      </trkpt>
      <trkpt lat="30.9379634857177734" lon="-6.9251370429992676">
        <ele>1163.0</ele>
        <time>2018-10-12T10:26:41.000Z</time>
      </trkpt>
      <trkpt lat="30.9379959106445312" lon="-6.9251818656921387">
        <ele>1163.821044921875</ele>
        <time>2018-10-12T10:26:42.000Z</time>
      </trkpt>
      <trkpt lat="30.9380264282226562" lon="-6.9252271652221680">
        <ele>1164.0</ele>
        <time>2018-10-12T10:26:43.000Z</time>
      </trkpt>
      <trkpt lat="30.9380569458007812" lon="-6.9252729415893555">
        <ele>1164.0</ele>
        <time>2018-10-12T10:26:44.000Z</time>
      </trkpt>
      <trkpt lat="30.9380855560302734" lon="-6.9253191947937012">
        <ele>1164.0</ele>
        <time>2018-10-12T10:26:45.000Z</time>
      </trkpt>
      <trkpt lat="30.9381141662597656" lon="-6.9253640174865723">
        <ele>1164.0</ele>
        <time>2018-10-12T10:26:46.000Z</time>
      </trkpt>
      <trkpt lat="30.9381427764892578" lon="-6.9254097938537598">
        <ele>1164.0</ele>
        <time>2018-10-12T10:26:47.000Z</time>
      </trkpt>
      <trkpt lat="30.9381694793701172" lon="-6.9254560470581055">
        <ele>1164.0</ele>
        <time>2018-10-12T10:26:48.000Z</time>
      </trkpt>
      <trkpt lat="30.9381961822509766" lon="-6.9255018234252930">
        <ele>1164.0</ele>
        <time>2018-10-12T10:26:49.000Z</time>
      </trkpt>
      <trkpt lat="30.9382228851318359" lon="-6.9255471229553223">
        <ele>1164.0</ele>
        <time>2018-10-12T10:26:50.000Z</time>
      </trkpt>
      <trkpt lat="30.9382476806640625" lon="-6.9255928993225098">
        <ele>1164.0</ele>
        <time>2018-10-12T10:26:51.000Z</time>
      </trkpt>
      <trkpt lat="30.9382724761962891" lon="-6.9256391525268555">
        <ele>1164.0</ele>
        <time>2018-10-12T10:26:52.000Z</time>
      </trkpt>
      <trkpt lat="30.9382972717285156" lon="-6.9256858825683594">
        <ele>1164.0</ele>
        <time>2018-10-12T10:26:53.000Z</time>
      </trkpt>
      <trkpt lat="30.9383220672607422" lon="-6.9257340431213379">
        <ele>1164.0</ele>
        <time>2018-10-12T10:26:54.000Z</time>
      </trkpt>
      <trkpt lat="30.9383468627929688" lon="-6.9257822036743164">
        <ele>1164.0</ele>
        <time>2018-10-12T10:26:55.000Z</time>
      </trkpt>
      <trkpt lat="30.9383697509765625" lon="-6.9258308410644531">
        <ele>1164.0</ele>
        <time>2018-10-12T10:26:56.000Z</time>
      </trkpt>
      <trkpt lat="30.9383945465087891" lon="-6.9258790016174316">
        <ele>1164.0</ele>
        <time>2018-10-12T10:26:57.000Z</time>
      </trkpt>
      <trkpt lat="30.9384193420410156" lon="-6.9259281158447266">
        <ele>1164.0</ele>
        <time>2018-10-12T10:26:58.000Z</time>
      </trkpt>
      <trkpt lat="30.9384441375732422" lon="-6.9259757995605469">
        <ele>1164.0</ele>
        <time>2018-10-12T10:26:59.000Z</time>
      </trkpt>
      <trkpt lat="30.9384708404541016" lon="-6.9260249137878418">
        <ele>1164.0</ele>
        <time>2018-10-12T10:27:00.000Z</time>
      </trkpt>
      <trkpt lat="30.9384956359863281" lon="-6.9260740280151367">
        <ele>1164.0</ele>
        <time>2018-10-12T10:27:01.000Z</time>
      </trkpt>
      <trkpt lat="30.9385204315185547" lon="-6.9261231422424316">
        <ele>1164.0</ele>
        <time>2018-10-12T10:27:02.000Z</time>
      </trkpt>
      <trkpt lat="30.9385452270507812" lon="-6.9261732101440430">
        <ele>1164.0</ele>
        <time>2018-10-12T10:27:03.000Z</time>
      </trkpt>
      <trkpt lat="30.9385738372802734" lon="-6.9262228012084961">
        <ele>1164.0</ele>
        <time>2018-10-12T10:27:04.000Z</time>
      </trkpt>
      <trkpt lat="30.9386024475097656" lon="-6.9262728691101074">
        <ele>1164.0</ele>
        <time>2018-10-12T10:27:05.000Z</time>
      </trkpt>
      <trkpt lat="30.9386329650878906" lon="-6.9263210296630859">
        <ele>1164.0</ele>
        <time>2018-10-12T10:27:06.000Z</time>
      </trkpt>
      <trkpt lat="30.9386653900146484" lon="-6.9263682365417480">
        <ele>1164.0</ele>
        <time>2018-10-12T10:27:07.000Z</time>
      </trkpt>
      <trkpt lat="30.9386997222900391" lon="-6.9264140129089355">
        <ele>1164.0</ele>
        <time>2018-10-12T10:27:08.000Z</time>
      </trkpt>
      <trkpt lat="30.9387359619140625" lon="-6.9264578819274902">
        <ele>1164.0</ele>
        <time>2018-10-12T10:27:09.000Z</time>
      </trkpt>
      <trkpt lat="30.9387722015380859" lon="-6.9264998435974121">
        <ele>1164.0</ele>
        <time>2018-10-12T10:27:10.000Z</time>
      </trkpt>
      <trkpt lat="30.9388084411621094" lon="-6.9265418052673340">
        <ele>1164.0</ele>
        <time>2018-10-12T10:27:11.000Z</time>
      </trkpt>
      <trkpt lat="30.9388465881347656" lon="-6.9265818595886230">
        <ele>1164.0</ele>
        <time>2018-10-12T10:27:12.000Z</time>
      </trkpt>
      <trkpt lat="30.9388828277587891" lon="-6.9266209602355957">
        <ele>1164.0</ele>
        <time>2018-10-12T10:27:13.000Z</time>
      </trkpt>
      <trkpt lat="30.9389190673828125" lon="-6.9266571998596191">
        <ele>1164.0</ele>
        <time>2018-10-12T10:27:14.000Z</time>
      </trkpt>
      <trkpt lat="30.9389572143554688" lon="-6.9266910552978516">
        <ele>1164.0</ele>
        <time>2018-10-12T10:27:15.000Z</time>
      </trkpt>
      <trkpt lat="30.9389972686767578" lon="-6.9267230033874512">
        <ele>1164.0</ele>
        <time>2018-10-12T10:27:16.000Z</time>
      </trkpt>
      <trkpt lat="30.9390354156494141" lon="-6.9267559051513672">
        <ele>1164.0</ele>
        <time>2018-10-12T10:27:17.000Z</time>
      </trkpt>
      <trkpt lat="30.9390754699707031" lon="-6.9267878532409668">
        <ele>1164.0</ele>
        <time>2018-10-12T10:27:18.000Z</time>
      </trkpt>
      <trkpt lat="30.9391136169433594" lon="-6.9268212318420410">
        <ele>1164.0</ele>
        <time>2018-10-12T10:27:19.000Z</time>
      </trkpt>
      <trkpt lat="30.9391536712646484" lon="-6.9268541336059570">
        <ele>1164.0</ele>
        <time>2018-10-12T10:27:20.000Z</time>
      </trkpt>
      <trkpt lat="30.9391918182373047" lon="-6.9268870353698730">
        <ele>1163.178955078125</ele>
        <time>2018-10-12T10:27:21.000Z</time>
      </trkpt>
      <trkpt lat="30.9392280578613281" lon="-6.9269199371337891">
        <ele>1163.0</ele>
        <time>2018-10-12T10:27:22.000Z</time>
      </trkpt>
      <trkpt lat="30.9392662048339844" lon="-6.9269537925720215">
        <ele>1163.0</ele>
        <time>2018-10-12T10:27:23.000Z</time>
      </trkpt>
      <trkpt lat="30.9393043518066406" lon="-6.9269881248474121">
        <ele>1163.0</ele>
        <time>2018-10-12T10:27:24.000Z</time>
      </trkpt>
      <trkpt lat="30.9393424987792969" lon="-6.9270229339599609">
        <ele>1163.804931640625</ele>
        <time>2018-10-12T10:27:25.000Z</time>
      </trkpt>
      <trkpt lat="30.9393787384033203" lon="-6.9270582199096680">
        <ele>1164.0</ele>
        <time>2018-10-12T10:27:26.000Z</time>
      </trkpt>
      <trkpt lat="30.9394168853759766" lon="-6.9270939826965332">
        <ele>1164.0</ele>
        <time>2018-10-12T10:27:27.000Z</time>
      </trkpt>
      <trkpt lat="30.9394512176513672" lon="-6.9271321296691895">
        <ele>1164.0</ele>
        <time>2018-10-12T10:27:28.000Z</time>
      </trkpt>
      <trkpt lat="30.9394855499267578" lon="-6.9271712303161621">
        <ele>1164.0</ele>
        <time>2018-10-12T10:27:29.000Z</time>
      </trkpt>
      <trkpt lat="30.9395217895507812" lon="-6.9272108078002930">
        <ele>1163.178955078125</ele>
        <time>2018-10-12T10:27:30.000Z</time>
      </trkpt>
      <trkpt lat="30.9395561218261719" lon="-6.9272518157958984">
        <ele>1163.0</ele>
        <time>2018-10-12T10:27:31.000Z</time>
      </trkpt>
      <trkpt lat="30.9395904541015625" lon="-6.9272928237915039">
        <ele>1163.0</ele>
        <time>2018-10-12T10:27:32.000Z</time>
      </trkpt>
      <trkpt lat="30.9396286010742188" lon="-6.9273319244384766">
        <ele>1163.0</ele>
        <time>2018-10-12T10:27:33.000Z</time>
      </trkpt>
      <trkpt lat="30.9396667480468750" lon="-6.9273710250854492">
        <ele>1163.8192138671875</ele>
        <time>2018-10-12T10:27:34.000Z</time>
      </trkpt>
      <trkpt lat="30.9397048950195312" lon="-6.9274091720581055">
        <ele>1164.0</ele>
        <time>2018-10-12T10:27:35.000Z</time>
      </trkpt>
      <trkpt lat="30.9397449493408203" lon="-6.9274439811706543">
        <ele>1164.0</ele>
        <time>2018-10-12T10:27:36.000Z</time>
      </trkpt>
      <trkpt lat="30.9397850036621094" lon="-6.9274787902832031">
        <ele>1164.0</ele>
        <time>2018-10-12T10:27:37.000Z</time>
      </trkpt>
      <trkpt lat="30.9398231506347656" lon="-6.9275140762329102">
        <ele>1164.0</ele>
        <time>2018-10-12T10:27:38.000Z</time>
      </trkpt>
      <trkpt lat="30.9398632049560547" lon="-6.9275488853454590">
        <ele>1164.0</ele>
        <time>2018-10-12T10:27:39.000Z</time>
      </trkpt>
      <trkpt lat="30.9399032592773438" lon="-6.9275851249694824">
        <ele>1164.0</ele>
        <time>2018-10-12T10:27:40.000Z</time>
      </trkpt>
      <trkpt lat="30.9399414062500000" lon="-6.9276218414306641">
        <ele>1164.0</ele>
        <time>2018-10-12T10:27:41.000Z</time>
      </trkpt>
      <trkpt lat="30.9399814605712891" lon="-6.9276590347290039">
        <ele>1164.0</ele>
        <time>2018-10-12T10:27:42.000Z</time>
      </trkpt>
      <trkpt lat="30.9400215148925781" lon="-6.9276971817016602">
        <ele>1164.0</ele>
        <time>2018-10-12T10:27:43.000Z</time>
      </trkpt>
      <trkpt lat="30.9400615692138672" lon="-6.9277338981628418">
        <ele>1164.0</ele>
        <time>2018-10-12T10:27:44.000Z</time>
      </trkpt>
      <trkpt lat="30.9401016235351562" lon="-6.9277729988098145">
        <ele>1164.0</ele>
        <time>2018-10-12T10:27:45.000Z</time>
      </trkpt>
      <trkpt lat="30.9401416778564453" lon="-6.9278120994567871">
        <ele>1164.0</ele>
        <time>2018-10-12T10:27:46.000Z</time>
      </trkpt>
      <trkpt lat="30.9401817321777344" lon="-6.9278521537780762">
        <ele>1164.0</ele>
        <time>2018-10-12T10:27:47.000Z</time>
      </trkpt>
      <trkpt lat="30.9402198791503906" lon="-6.9278922080993652">
        <ele>1164.0</ele>
        <time>2018-10-12T10:27:48.000Z</time>
      </trkpt>
      <trkpt lat="30.9402561187744141" lon="-6.9279341697692871">
        <ele>1164.0</ele>
        <time>2018-10-12T10:27:49.000Z</time>
      </trkpt>
      <trkpt lat="30.9402904510498047" lon="-6.9279770851135254">
        <ele>1164.0</ele>
        <time>2018-10-12T10:27:50.000Z</time>
      </trkpt>
      <trkpt lat="30.9403266906738281" lon="-6.9280209541320801">
        <ele>1164.0</ele>
        <time>2018-10-12T10:27:51.000Z</time>
      </trkpt>
      <trkpt lat="30.9403629302978516" lon="-6.9280657768249512">
        <ele>1164.0</ele>
        <time>2018-10-12T10:27:52.000Z</time>
      </trkpt>
      <trkpt lat="30.9403972625732422" lon="-6.9281110763549805">
        <ele>1164.0</ele>
        <time>2018-10-12T10:27:53.000Z</time>
      </trkpt>
      <trkpt lat="30.9404315948486328" lon="-6.9281578063964844">
        <ele>1164.0</ele>
        <time>2018-10-12T10:27:54.000Z</time>
      </trkpt>
      <trkpt lat="30.9404678344726562" lon="-6.9282040596008301">
        <ele>1164.0</ele>
        <time>2018-10-12T10:27:55.000Z</time>
      </trkpt>
      <trkpt lat="30.9405040740966797" lon="-6.9282507896423340">
        <ele>1164.0</ele>
        <time>2018-10-12T10:27:56.000Z</time>
      </trkpt>
      <trkpt lat="30.9405403137207031" lon="-6.9282960891723633">
        <ele>1164.0</ele>
        <time>2018-10-12T10:27:57.000Z</time>
      </trkpt>
      <trkpt lat="30.9405784606933594" lon="-6.9283399581909180">
        <ele>1164.0</ele>
        <time>2018-10-12T10:27:58.000Z</time>
      </trkpt>
      <trkpt lat="30.9406166076660156" lon="-6.9283847808837891">
        <ele>1164.0</ele>
        <time>2018-10-12T10:27:59.000Z</time>
      </trkpt>
      <trkpt lat="30.9406547546386719" lon="-6.9284291267395020">
        <ele>1164.0</ele>
        <time>2018-10-12T10:28:00.000Z</time>
      </trkpt>
      <trkpt lat="30.9406948089599609" lon="-6.9284729957580566">
        <ele>1164.0</ele>
        <time>2018-10-12T10:28:01.000Z</time>
      </trkpt>
      <trkpt lat="30.9407329559326172" lon="-6.9285178184509277">
        <ele>1164.0</ele>
        <time>2018-10-12T10:28:02.000Z</time>
      </trkpt>
      <trkpt lat="30.9407711029052734" lon="-6.9285621643066406">
        <ele>1164.0</ele>
        <time>2018-10-12T10:28:03.000Z</time>
      </trkpt>
      <trkpt lat="30.9408111572265625" lon="-6.9286060333251953">
        <ele>1164.821044921875</ele>
        <time>2018-10-12T10:28:04.000Z</time>
      </trkpt>
      <trkpt lat="30.9408512115478516" lon="-6.9286479949951172">
        <ele>1165.0</ele>
        <time>2018-10-12T10:28:05.000Z</time>
      </trkpt>
      <trkpt lat="30.9408912658691406" lon="-6.9286918640136719">
        <ele>1165.0</ele>
        <time>2018-10-12T10:28:06.000Z</time>
      </trkpt>
      <trkpt lat="30.9409332275390625" lon="-6.9287362098693848">
        <ele>1165.0</ele>
        <time>2018-10-12T10:28:07.000Z</time>
      </trkpt>
      <trkpt lat="30.9409732818603516" lon="-6.9287791252136230">
        <ele>1165.0</ele>
        <time>2018-10-12T10:28:08.000Z</time>
      </trkpt>
      <trkpt lat="30.9410133361816406" lon="-6.9288220405578613">
        <ele>1165.0</ele>
        <time>2018-10-12T10:28:09.000Z</time>
      </trkpt>
      <trkpt lat="30.9410533905029297" lon="-6.9288678169250488">
        <ele>1165.0</ele>
        <time>2018-10-12T10:28:10.000Z</time>
      </trkpt>
      <trkpt lat="30.9410953521728516" lon="-6.9289140701293945">
        <ele>1165.0</ele>
        <time>2018-10-12T10:28:11.000Z</time>
      </trkpt>
      <trkpt lat="30.9411373138427734" lon="-6.9289598464965820">
        <ele>1165.0</ele>
        <time>2018-10-12T10:28:12.000Z</time>
      </trkpt>
      <trkpt lat="30.9411792755126953" lon="-6.9290070533752441">
        <ele>1165.0</ele>
        <time>2018-10-12T10:28:13.000Z</time>
      </trkpt>
      <trkpt lat="30.9412231445312500" lon="-6.9290537834167480">
        <ele>1165.0</ele>
        <time>2018-10-12T10:28:14.000Z</time>
      </trkpt>
      <trkpt lat="30.9412689208984375" lon="-6.9291019439697266">
        <ele>1165.0</ele>
        <time>2018-10-12T10:28:15.000Z</time>
      </trkpt>
      <trkpt lat="30.9413127899169922" lon="-6.9291491508483887">
        <ele>1165.0</ele>
        <time>2018-10-12T10:28:16.000Z</time>
      </trkpt>
      <trkpt lat="30.9413566589355469" lon="-6.9291977882385254">
        <ele>1165.0</ele>
        <time>2018-10-12T10:28:17.000Z</time>
      </trkpt>
      <trkpt lat="30.9414005279541016" lon="-6.9292469024658203">
        <ele>1164.178955078125</ele>
        <time>2018-10-12T10:28:18.000Z</time>
      </trkpt>
      <trkpt lat="30.9414463043212891" lon="-6.9292979240417480">
        <ele>1164.0</ele>
        <time>2018-10-12T10:28:19.000Z</time>
      </trkpt>
      <trkpt lat="30.9414901733398438" lon="-6.9293489456176758">
        <ele>1164.0</ele>
        <time>2018-10-12T10:28:20.000Z</time>
      </trkpt>
      <trkpt lat="30.9415340423583984" lon="-6.9293999671936035">
        <ele>1164.821044921875</ele>
        <time>2018-10-12T10:28:21.000Z</time>
      </trkpt>
      <trkpt lat="30.9415779113769531" lon="-6.9294509887695312">
        <ele>1165.0</ele>
        <time>2018-10-12T10:28:22.000Z</time>
      </trkpt>
      <trkpt lat="30.9416217803955078" lon="-6.9295001029968262">
        <ele>1165.0</ele>
        <time>2018-10-12T10:28:23.000Z</time>
      </trkpt>
      <trkpt lat="30.9416656494140625" lon="-6.9295520782470703">
        <ele>1165.0</ele>
        <time>2018-10-12T10:28:24.000Z</time>
      </trkpt>
      <trkpt lat="30.9417076110839844" lon="-6.9296021461486816">
        <ele>1165.0</ele>
        <time>2018-10-12T10:28:25.000Z</time>
      </trkpt>
      <trkpt lat="30.9417476654052734" lon="-6.9296541213989258">
        <ele>1165.0</ele>
        <time>2018-10-12T10:28:26.000Z</time>
      </trkpt>
      <trkpt lat="30.9417858123779297" lon="-6.9297060966491699">
        <ele>1165.0</ele>
        <time>2018-10-12T10:28:27.000Z</time>
      </trkpt>
      <trkpt lat="30.9418258666992188" lon="-6.9297580718994141">
        <ele>1165.0</ele>
        <time>2018-10-12T10:28:28.000Z</time>
      </trkpt>
      <trkpt lat="30.9418621063232422" lon="-6.9298100471496582">
        <ele>1165.0</ele>
        <time>2018-10-12T10:28:29.000Z</time>
      </trkpt>
      <trkpt lat="30.9418983459472656" lon="-6.9298639297485352">
        <ele>1165.0</ele>
        <time>2018-10-12T10:28:30.000Z</time>
      </trkpt>
      <trkpt lat="30.9419345855712891" lon="-6.9299168586730957">
        <ele>1165.0</ele>
        <time>2018-10-12T10:28:31.000Z</time>
      </trkpt>
      <trkpt lat="30.9419689178466797" lon="-6.9299721717834473">
        <ele>1165.0</ele>
        <time>2018-10-12T10:28:32.000Z</time>
      </trkpt>
      <trkpt lat="30.9419994354248047" lon="-6.9300298690795898">
        <ele>1165.0</ele>
        <time>2018-10-12T10:28:33.000Z</time>
      </trkpt>
      <trkpt lat="30.9420280456542969" lon="-6.9300880432128906">
        <ele>1165.0</ele>
        <time>2018-10-12T10:28:34.000Z</time>
      </trkpt>
      <trkpt lat="30.9420566558837891" lon="-6.9301462173461914">
        <ele>1165.0</ele>
        <time>2018-10-12T10:28:35.000Z</time>
      </trkpt>
      <trkpt lat="30.9420833587646484" lon="-6.9302039146423340">
        <ele>1165.821044921875</ele>
        <time>2018-10-12T10:28:36.000Z</time>
      </trkpt>
      <trkpt lat="30.9421081542968750" lon="-6.9302611351013184">
        <ele>1166.0</ele>
        <time>2018-10-12T10:28:37.000Z</time>
      </trkpt>
      <trkpt lat="30.9421348571777344" lon="-6.9303178787231445">
        <ele>1166.0</ele>
        <time>2018-10-12T10:28:38.000Z</time>
      </trkpt>
      <trkpt lat="30.9421596527099609" lon="-6.9303750991821289">
        <ele>1166.0</ele>
        <time>2018-10-12T10:28:39.000Z</time>
      </trkpt>
      <trkpt lat="30.9421806335449219" lon="-6.9304318428039551">
        <ele>1166.0</ele>
        <time>2018-10-12T10:28:40.000Z</time>
      </trkpt>
      <trkpt lat="30.9422035217285156" lon="-6.9304871559143066">
        <ele>1166.0</ele>
        <time>2018-10-12T10:28:41.000Z</time>
      </trkpt>
      <trkpt lat="30.9422264099121094" lon="-6.9305419921875000">
        <ele>1166.0</ele>
        <time>2018-10-12T10:28:42.000Z</time>
      </trkpt>
      <trkpt lat="30.9422473907470703" lon="-6.9305968284606934">
        <ele>1166.0</ele>
        <time>2018-10-12T10:28:43.000Z</time>
      </trkpt>
      <trkpt lat="30.9422702789306641" lon="-6.9306521415710449">
        <ele>1166.0</ele>
        <time>2018-10-12T10:28:44.000Z</time>
      </trkpt>
      <trkpt lat="30.9422912597656250" lon="-6.9307060241699219">
        <ele>1166.0</ele>
        <time>2018-10-12T10:28:45.000Z</time>
      </trkpt>
      <trkpt lat="30.9423141479492188" lon="-6.9307618141174316">
        <ele>1166.0</ele>
        <time>2018-10-12T10:28:46.000Z</time>
      </trkpt>
      <trkpt lat="30.9423370361328125" lon="-6.9308161735534668">
        <ele>1166.0</ele>
        <time>2018-10-12T10:28:47.000Z</time>
      </trkpt>
      <trkpt lat="30.9423618316650391" lon="-6.9308719635009766">
        <ele>1166.0</ele>
        <time>2018-10-12T10:28:48.000Z</time>
      </trkpt>
      <trkpt lat="30.9423847198486328" lon="-6.9309282302856445">
        <ele>1166.0</ele>
        <time>2018-10-12T10:28:49.000Z</time>
      </trkpt>
      <trkpt lat="30.9424057006835938" lon="-6.9309849739074707">
        <ele>1166.0</ele>
        <time>2018-10-12T10:28:50.000Z</time>
      </trkpt>
      <trkpt lat="30.9424285888671875" lon="-6.9310421943664551">
        <ele>1166.0</ele>
        <time>2018-10-12T10:28:51.000Z</time>
      </trkpt>
      <trkpt lat="30.9424514770507812" lon="-6.9310989379882812">
        <ele>1166.0</ele>
        <time>2018-10-12T10:28:52.000Z</time>
      </trkpt>
      <trkpt lat="30.9424762725830078" lon="-6.9311561584472656">
        <ele>1166.0</ele>
        <time>2018-10-12T10:28:53.000Z</time>
      </trkpt>
      <trkpt lat="30.9425010681152344" lon="-6.9312100410461426">
        <ele>1166.0</ele>
        <time>2018-10-12T10:28:54.000Z</time>
      </trkpt>
      <trkpt lat="30.9425296783447266" lon="-6.9312620162963867">
        <ele>1166.0</ele>
        <time>2018-10-12T10:28:55.000Z</time>
      </trkpt>
      <trkpt lat="30.9425582885742188" lon="-6.9313139915466309">
        <ele>1166.0</ele>
        <time>2018-10-12T10:28:56.000Z</time>
      </trkpt>
      <trkpt lat="30.9425888061523438" lon="-6.9313659667968750">
        <ele>1166.0</ele>
        <time>2018-10-12T10:28:57.000Z</time>
      </trkpt>
      <trkpt lat="30.9426212310791016" lon="-6.9314141273498535">
        <ele>1166.797119140625</ele>
        <time>2018-10-12T10:28:58.000Z</time>
      </trkpt>
      <trkpt lat="30.9426574707031250" lon="-6.9314599037170410">
        <ele>1167.0</ele>
        <time>2018-10-12T10:28:59.000Z</time>
      </trkpt>
      <trkpt lat="30.9426956176757812" lon="-6.9315037727355957">
        <ele>1167.0</ele>
        <time>2018-10-12T10:29:00.000Z</time>
      </trkpt>
      <trkpt lat="30.9427356719970703" lon="-6.9315462112426758">
        <ele>1167.0</ele>
        <time>2018-10-12T10:29:01.000Z</time>
      </trkpt>
      <trkpt lat="30.9427757263183594" lon="-6.9315857887268066">
        <ele>1167.0</ele>
        <time>2018-10-12T10:29:02.000Z</time>
      </trkpt>
      <trkpt lat="30.9428195953369141" lon="-6.9316248893737793">
        <ele>1167.0</ele>
        <time>2018-10-12T10:29:03.000Z</time>
      </trkpt>
      <trkpt lat="30.9428653717041016" lon="-6.9316601753234863">
        <ele>1167.0</ele>
        <time>2018-10-12T10:29:04.000Z</time>
      </trkpt>
      <trkpt lat="30.9429149627685547" lon="-6.9316921234130859">
        <ele>1167.0</ele>
        <time>2018-10-12T10:29:05.000Z</time>
      </trkpt>
      <trkpt lat="30.9429664611816406" lon="-6.9317221641540527">
        <ele>1167.0</ele>
        <time>2018-10-12T10:29:06.000Z</time>
      </trkpt>
      <trkpt lat="30.9430198669433594" lon="-6.9317488670349121">
        <ele>1166.178955078125</ele>
        <time>2018-10-12T10:29:07.000Z</time>
      </trkpt>
      <trkpt lat="30.9430713653564453" lon="-6.9317760467529297">
        <ele>1166.0</ele>
        <time>2018-10-12T10:29:08.000Z</time>
      </trkpt>
      <trkpt lat="30.9431266784667969" lon="-6.9318032264709473">
        <ele>1166.0</ele>
        <time>2018-10-12T10:29:09.000Z</time>
      </trkpt>
      <trkpt lat="30.9431800842285156" lon="-6.9318318367004395">
        <ele>1166.0</ele>
        <time>2018-10-12T10:29:10.000Z</time>
      </trkpt>
      <trkpt lat="30.9432353973388672" lon="-6.9318571090698242">
        <ele>1166.0</ele>
        <time>2018-10-12T10:29:11.000Z</time>
      </trkpt>
      <trkpt lat="30.9432945251464844" lon="-6.9318728446960449">
        <ele>1166.0</ele>
        <time>2018-10-12T10:29:12.000Z</time>
      </trkpt>
      <trkpt lat="30.9433555603027344" lon="-6.9318799972534180">
        <ele>1166.0</ele>
        <time>2018-10-12T10:29:13.000Z</time>
      </trkpt>
      <trkpt lat="30.9434146881103516" lon="-6.9318780899047852">
        <ele>1166.0</ele>
        <time>2018-10-12T10:29:14.000Z</time>
      </trkpt>
      <trkpt lat="30.9434757232666016" lon="-6.9318680763244629">
        <ele>1166.0</ele>
        <time>2018-10-12T10:29:15.000Z</time>
      </trkpt>
      <trkpt lat="30.9435348510742188" lon="-6.9318499565124512">
        <ele>1166.0</ele>
        <time>2018-10-12T10:29:16.000Z</time>
      </trkpt>
      <trkpt lat="30.9435920715332031" lon="-6.9318251609802246">
        <ele>1166.0</ele>
        <time>2018-10-12T10:29:17.000Z</time>
      </trkpt>
      <trkpt lat="30.9436473846435547" lon="-6.9317932128906250">
        <ele>1166.0</ele>
        <time>2018-10-12T10:29:18.000Z</time>
      </trkpt>
      <trkpt lat="30.9436988830566406" lon="-6.9317531585693359">
        <ele>1166.0</ele>
        <time>2018-10-12T10:29:19.000Z</time>
      </trkpt>
      <trkpt lat="30.9437484741210938" lon="-6.9317097663879395">
        <ele>1166.0</ele>
        <time>2018-10-12T10:29:20.000Z</time>
      </trkpt>
      <trkpt lat="30.9437980651855469" lon="-6.9316692352294922">
        <ele>1166.0</ele>
        <time>2018-10-12T10:29:21.000Z</time>
      </trkpt>
      <trkpt lat="30.9438495635986328" lon="-6.9316301345825195">
        <ele>1166.0</ele>
        <time>2018-10-12T10:29:22.000Z</time>
      </trkpt>
      <trkpt lat="30.9438991546630859" lon="-6.9315919876098633">
        <ele>1166.0</ele>
        <time>2018-10-12T10:29:23.000Z</time>
      </trkpt>
      <trkpt lat="30.9439487457275391" lon="-6.9315562248229980">
        <ele>1166.0</ele>
        <time>2018-10-12T10:29:24.000Z</time>
      </trkpt>
      <trkpt lat="30.9439964294433594" lon="-6.9315237998962402">
        <ele>1166.0</ele>
        <time>2018-10-12T10:29:25.000Z</time>
      </trkpt>
      <trkpt lat="30.9440441131591797" lon="-6.9314951896667480">
        <ele>1166.0</ele>
        <time>2018-10-12T10:29:26.000Z</time>
      </trkpt>
      <trkpt lat="30.9440917968750000" lon="-6.9314670562744141">
        <ele>1166.0</ele>
        <time>2018-10-12T10:29:27.000Z</time>
      </trkpt>
      <trkpt lat="30.9441375732421875" lon="-6.9314389228820801">
        <ele>1166.0</ele>
        <time>2018-10-12T10:29:28.000Z</time>
      </trkpt>
      <trkpt lat="30.9441833496093750" lon="-6.9314107894897461">
        <ele>1166.0</ele>
        <time>2018-10-12T10:29:29.000Z</time>
      </trkpt>
      <trkpt lat="30.9442291259765625" lon="-6.9313859939575195">
        <ele>1166.0</ele>
        <time>2018-10-12T10:29:30.000Z</time>
      </trkpt>
      <trkpt lat="30.9442768096923828" lon="-6.9313631057739258">
        <ele>1166.0</ele>
        <time>2018-10-12T10:29:31.000Z</time>
      </trkpt>
      <trkpt lat="30.9443244934082031" lon="-6.9313402175903320">
        <ele>1166.0</ele>
        <time>2018-10-12T10:29:32.000Z</time>
      </trkpt>
      <trkpt lat="30.9443721771240234" lon="-6.9313158988952637">
        <ele>1166.0</ele>
        <time>2018-10-12T10:29:33.000Z</time>
      </trkpt>
      <trkpt lat="30.9444179534912109" lon="-6.9312849044799805">
        <ele>1166.0</ele>
        <time>2018-10-12T10:29:34.000Z</time>
      </trkpt>
      <trkpt lat="30.9444561004638672" lon="-6.9312458038330078">
        <ele>1166.0</ele>
        <time>2018-10-12T10:29:35.000Z</time>
      </trkpt>
      <trkpt lat="30.9444961547851562" lon="-6.9312028884887695">
        <ele>1166.0</ele>
        <time>2018-10-12T10:29:36.000Z</time>
      </trkpt>
      <trkpt lat="30.9445381164550781" lon="-6.9311618804931641">
        <ele>1166.0</ele>
        <time>2018-10-12T10:29:37.000Z</time>
      </trkpt>
      <trkpt lat="30.9445838928222656" lon="-6.9311242103576660">
        <ele>1166.0</ele>
        <time>2018-10-12T10:29:38.000Z</time>
      </trkpt>
      <trkpt lat="30.9446315765380859" lon="-6.9310917854309082">
        <ele>1166.0</ele>
        <time>2018-10-12T10:29:39.000Z</time>
      </trkpt>
      <trkpt lat="30.9446811676025391" lon="-6.9310641288757324">
        <ele>1166.0</ele>
        <time>2018-10-12T10:29:40.000Z</time>
      </trkpt>
      <trkpt lat="30.9447345733642578" lon="-6.9310407638549805">
        <ele>1166.0</ele>
        <time>2018-10-12T10:29:41.000Z</time>
      </trkpt>
      <trkpt lat="30.9447879791259766" lon="-6.9310188293457031">
        <ele>1166.0</ele>
        <time>2018-10-12T10:29:42.000Z</time>
      </trkpt>
      <trkpt lat="30.9448413848876953" lon="-6.9309988021850586">
        <ele>1166.0</ele>
        <time>2018-10-12T10:29:43.000Z</time>
      </trkpt>
      <trkpt lat="30.9448966979980469" lon="-6.9309811592102051">
        <ele>1166.0</ele>
        <time>2018-10-12T10:29:44.000Z</time>
      </trkpt>
      <trkpt lat="30.9449501037597656" lon="-6.9309659004211426">
        <ele>1166.0</ele>
        <time>2018-10-12T10:29:45.000Z</time>
      </trkpt>
      <trkpt lat="30.9450054168701172" lon="-6.9309511184692383">
        <ele>1166.0</ele>
        <time>2018-10-12T10:29:46.000Z</time>
      </trkpt>
      <trkpt lat="30.9450607299804688" lon="-6.9309368133544922">
        <ele>1166.0</ele>
        <time>2018-10-12T10:29:47.000Z</time>
      </trkpt>
      <trkpt lat="30.9451141357421875" lon="-6.9309229850769043">
        <ele>1166.0</ele>
        <time>2018-10-12T10:29:48.000Z</time>
      </trkpt>
      <trkpt lat="30.9451694488525391" lon="-6.9309091567993164">
        <ele>1166.0</ele>
        <time>2018-10-12T10:29:49.000Z</time>
      </trkpt>
      <trkpt lat="30.9452228546142578" lon="-6.9308919906616211">
        <ele>1166.0</ele>
        <time>2018-10-12T10:29:50.000Z</time>
      </trkpt>
      <trkpt lat="30.9452743530273438" lon="-6.9308729171752930">
        <ele>1166.0</ele>
        <time>2018-10-12T10:29:51.000Z</time>
      </trkpt>
      <trkpt lat="30.9453277587890625" lon="-6.9308509826660156">
        <ele>1166.0</ele>
        <time>2018-10-12T10:29:52.000Z</time>
      </trkpt>
      <trkpt lat="30.9453773498535156" lon="-6.9308280944824219">
        <ele>1166.0</ele>
        <time>2018-10-12T10:29:53.000Z</time>
      </trkpt>
      <trkpt lat="30.9454288482666016" lon="-6.9308037757873535">
        <ele>1166.0</ele>
        <time>2018-10-12T10:29:54.000Z</time>
      </trkpt>
      <trkpt lat="30.9454784393310547" lon="-6.9307780265808105">
        <ele>1166.0</ele>
        <time>2018-10-12T10:29:55.000Z</time>
      </trkpt>
      <trkpt lat="30.9455261230468750" lon="-6.9307518005371094">
        <ele>1166.0</ele>
        <time>2018-10-12T10:29:56.000Z</time>
      </trkpt>
      <trkpt lat="30.9455757141113281" lon="-6.9307250976562500">
        <ele>1166.0</ele>
        <time>2018-10-12T10:29:57.000Z</time>
      </trkpt>
      <trkpt lat="30.9456253051757812" lon="-6.9306950569152832">
        <ele>1166.0</ele>
        <time>2018-10-12T10:29:58.000Z</time>
      </trkpt>
      <trkpt lat="30.9456729888916016" lon="-6.9306640625000000">
        <ele>1166.8154296875</ele>
        <time>2018-10-12T10:29:59.000Z</time>
      </trkpt>
      <trkpt lat="30.9457206726074219" lon="-6.9306311607360840">
        <ele>1167.0</ele>
        <time>2018-10-12T10:30:00.000Z</time>
      </trkpt>
      <trkpt lat="30.9457664489746094" lon="-6.9305977821350098">
        <ele>1167.0</ele>
        <time>2018-10-12T10:30:01.000Z</time>
      </trkpt>
      <trkpt lat="30.9458141326904297" lon="-6.9305629730224609">
        <ele>1167.0</ele>
        <time>2018-10-12T10:30:02.000Z</time>
      </trkpt>
      <trkpt lat="30.9458618164062500" lon="-6.9305291175842285">
        <ele>1167.0</ele>
        <time>2018-10-12T10:30:03.000Z</time>
      </trkpt>
      <trkpt lat="30.9459075927734375" lon="-6.9304947853088379">
        <ele>1167.0</ele>
        <time>2018-10-12T10:30:04.000Z</time>
      </trkpt>
      <trkpt lat="30.9459552764892578" lon="-6.9304609298706055">
        <ele>1167.0</ele>
        <time>2018-10-12T10:30:05.000Z</time>
      </trkpt>
      <trkpt lat="30.9460010528564453" lon="-6.9304270744323730">
        <ele>1167.0</ele>
        <time>2018-10-12T10:30:06.000Z</time>
      </trkpt>
      <trkpt lat="30.9460468292236328" lon="-6.9303970336914062">
        <ele>1167.0</ele>
        <time>2018-10-12T10:30:07.000Z</time>
      </trkpt>
      <trkpt lat="30.9460945129394531" lon="-6.9303689002990723">
        <ele>1167.0</ele>
        <time>2018-10-12T10:30:08.000Z</time>
      </trkpt>
      <trkpt lat="30.9461402893066406" lon="-6.9303398132324219">
        <ele>1167.0</ele>
        <time>2018-10-12T10:30:09.000Z</time>
      </trkpt>
      <trkpt lat="30.9461841583251953" lon="-6.9303112030029297">
        <ele>1167.0</ele>
        <time>2018-10-12T10:30:10.000Z</time>
      </trkpt>
      <trkpt lat="30.9462280273437500" lon="-6.9302821159362793">
        <ele>1167.0</ele>
        <time>2018-10-12T10:30:11.000Z</time>
      </trkpt>
      <trkpt lat="30.9462699890136719" lon="-6.9302558898925781">
        <ele>1167.0</ele>
        <time>2018-10-12T10:30:12.000Z</time>
      </trkpt>
      <trkpt lat="30.9463138580322266" lon="-6.9302310943603516">
        <ele>1167.0</ele>
        <time>2018-10-12T10:30:13.000Z</time>
      </trkpt>
      <trkpt lat="30.9463596343994141" lon="-6.9302048683166504">
        <ele>1167.0</ele>
        <time>2018-10-12T10:30:14.000Z</time>
      </trkpt>
      <trkpt lat="30.9464073181152344" lon="-6.9301800727844238">
        <ele>1167.0</ele>
        <time>2018-10-12T10:30:15.000Z</time>
      </trkpt>
      <trkpt lat="30.9464550018310547" lon="-6.9301538467407227">
        <ele>1167.0</ele>
        <time>2018-10-12T10:30:16.000Z</time>
      </trkpt>
      <trkpt lat="30.9465026855468750" lon="-6.9301261901855469">
        <ele>1167.0</ele>
        <time>2018-10-12T10:30:17.000Z</time>
      </trkpt>
      <trkpt lat="30.9465503692626953" lon="-6.9300961494445801">
        <ele>1167.0</ele>
        <time>2018-10-12T10:30:18.000Z</time>
      </trkpt>
      <trkpt lat="30.9465980529785156" lon="-6.9300670623779297">
        <ele>1167.0</ele>
        <time>2018-10-12T10:30:19.000Z</time>
      </trkpt>
      <trkpt lat="30.9466476440429688" lon="-6.9300370216369629">
        <ele>1167.0</ele>
        <time>2018-10-12T10:30:20.000Z</time>
      </trkpt>
      <trkpt lat="30.9466934204101562" lon="-6.9300060272216797">
        <ele>1167.0</ele>
        <time>2018-10-12T10:30:21.000Z</time>
      </trkpt>
      <trkpt lat="30.9467411041259766" lon="-6.9299740791320801">
        <ele>1167.0</ele>
        <time>2018-10-12T10:30:22.000Z</time>
      </trkpt>
      <trkpt lat="30.9467868804931641" lon="-6.9299411773681641">
        <ele>1167.0</ele>
        <time>2018-10-12T10:30:23.000Z</time>
      </trkpt>
      <trkpt lat="30.9468326568603516" lon="-6.9299049377441406">
        <ele>1167.0</ele>
        <time>2018-10-12T10:30:24.000Z</time>
      </trkpt>
      <trkpt lat="30.9468784332275391" lon="-6.9298682212829590">
        <ele>1167.0</ele>
        <time>2018-10-12T10:30:25.000Z</time>
      </trkpt>
      <trkpt lat="30.9469242095947266" lon="-6.9298310279846191">
        <ele>1167.0</ele>
        <time>2018-10-12T10:30:26.000Z</time>
      </trkpt>
      <trkpt lat="30.9469718933105469" lon="-6.9297962188720703">
        <ele>1167.0</ele>
        <time>2018-10-12T10:30:27.000Z</time>
      </trkpt>
      <trkpt lat="30.9470176696777344" lon="-6.9297680854797363">
        <ele>1167.0</ele>
        <time>2018-10-12T10:30:28.000Z</time>
      </trkpt>
      <trkpt lat="30.9470634460449219" lon="-6.9297437667846680">
        <ele>1167.0</ele>
        <time>2018-10-12T10:30:29.000Z</time>
      </trkpt>
      <trkpt lat="30.9471092224121094" lon="-6.9297218322753906">
        <ele>1167.0</ele>
        <time>2018-10-12T10:30:30.000Z</time>
      </trkpt>
      <trkpt lat="30.9471607208251953" lon="-6.9297008514404297">
        <ele>1167.0</ele>
        <time>2018-10-12T10:30:31.000Z</time>
      </trkpt>
      <trkpt lat="30.9472122192382812" lon="-6.9296832084655762">
        <ele>1167.0</ele>
        <time>2018-10-12T10:30:32.000Z</time>
      </trkpt>
      <trkpt lat="30.9472656250000000" lon="-6.9296660423278809">
        <ele>1167.0</ele>
        <time>2018-10-12T10:30:33.000Z</time>
      </trkpt>
      <trkpt lat="30.9473152160644531" lon="-6.9296460151672363">
        <ele>1167.0</ele>
        <time>2018-10-12T10:30:34.000Z</time>
      </trkpt>
      <trkpt lat="30.9473628997802734" lon="-6.9296240806579590">
        <ele>1167.0</ele>
        <time>2018-10-12T10:30:35.000Z</time>
      </trkpt>
      <trkpt lat="30.9474105834960938" lon="-6.9295997619628906">
        <ele>1167.0</ele>
        <time>2018-10-12T10:30:36.000Z</time>
      </trkpt>
      <trkpt lat="30.9474582672119141" lon="-6.9295740127563477">
        <ele>1167.0</ele>
        <time>2018-10-12T10:30:37.000Z</time>
      </trkpt>
      <trkpt lat="30.9475078582763672" lon="-6.9295439720153809">
        <ele>1167.0</ele>
        <time>2018-10-12T10:30:38.000Z</time>
      </trkpt>
      <trkpt lat="30.9475517272949219" lon="-6.9295120239257812">
        <ele>1167.0</ele>
        <time>2018-10-12T10:30:39.000Z</time>
      </trkpt>
      <trkpt lat="30.9475936889648438" lon="-6.9294791221618652">
        <ele>1167.0</ele>
        <time>2018-10-12T10:30:40.000Z</time>
      </trkpt>
      <trkpt lat="30.9476337432861328" lon="-6.9294447898864746">
        <ele>1167.0</ele>
        <time>2018-10-12T10:30:41.000Z</time>
      </trkpt>
      <trkpt lat="30.9476737976074219" lon="-6.9294080734252930">
        <ele>1167.0</ele>
        <time>2018-10-12T10:30:42.000Z</time>
      </trkpt>
      <trkpt lat="30.9477138519287109" lon="-6.9293680191040039">
        <ele>1167.0</ele>
        <time>2018-10-12T10:30:43.000Z</time>
      </trkpt>
      <trkpt lat="30.9477519989013672" lon="-6.9293251037597656">
        <ele>1167.0</ele>
        <time>2018-10-12T10:30:44.000Z</time>
      </trkpt>
      <trkpt lat="30.9477882385253906" lon="-6.9292821884155273">
        <ele>1167.0</ele>
        <time>2018-10-12T10:30:45.000Z</time>
      </trkpt>
      <trkpt lat="30.9478225708007812" lon="-6.9292368888854980">
        <ele>1167.0</ele>
        <time>2018-10-12T10:30:46.000Z</time>
      </trkpt>
      <trkpt lat="30.9478569030761719" lon="-6.9291901588439941">
        <ele>1167.0</ele>
        <time>2018-10-12T10:30:47.000Z</time>
      </trkpt>
      <trkpt lat="30.9478893280029297" lon="-6.9291410446166992">
        <ele>1167.0</ele>
        <time>2018-10-12T10:30:48.000Z</time>
      </trkpt>
      <trkpt lat="30.9479217529296875" lon="-6.9290928840637207">
        <ele>1167.0</ele>
        <time>2018-10-12T10:30:49.000Z</time>
      </trkpt>
      <trkpt lat="30.9479522705078125" lon="-6.9290452003479004">
        <ele>1167.0</ele>
        <time>2018-10-12T10:30:50.000Z</time>
      </trkpt>
      <trkpt lat="30.9479846954345703" lon="-6.9289970397949219">
        <ele>1167.0</ele>
        <time>2018-10-12T10:30:51.000Z</time>
      </trkpt>
      <trkpt lat="30.9480152130126953" lon="-6.9289507865905762">
        <ele>1167.0</ele>
        <time>2018-10-12T10:30:52.000Z</time>
      </trkpt>
      <trkpt lat="30.9480495452880859" lon="-6.9289078712463379">
        <ele>1167.0</ele>
        <time>2018-10-12T10:30:53.000Z</time>
      </trkpt>
      <trkpt lat="30.9480857849121094" lon="-6.9288687705993652">
        <ele>1167.0</ele>
        <time>2018-10-12T10:30:54.000Z</time>
      </trkpt>
      <trkpt lat="30.9481258392333984" lon="-6.9288330078125000">
        <ele>1167.0</ele>
        <time>2018-10-12T10:30:55.000Z</time>
      </trkpt>
      <trkpt lat="30.9481678009033203" lon="-6.9288039207458496">
        <ele>1167.0</ele>
        <time>2018-10-12T10:30:56.000Z</time>
      </trkpt>
      <trkpt lat="30.9482135772705078" lon="-6.9287781715393066">
        <ele>1167.0</ele>
        <time>2018-10-12T10:30:57.000Z</time>
      </trkpt>
      <trkpt lat="30.9482612609863281" lon="-6.9287519454956055">
        <ele>1167.0</ele>
        <time>2018-10-12T10:30:58.000Z</time>
      </trkpt>
      <trkpt lat="30.9483089447021484" lon="-6.9287261962890625">
        <ele>1167.0</ele>
        <time>2018-10-12T10:30:59.000Z</time>
      </trkpt>
      <trkpt lat="30.9483547210693359" lon="-6.9286971092224121">
        <ele>1167.0</ele>
        <time>2018-10-12T10:31:00.000Z</time>
      </trkpt>
      <trkpt lat="30.9483985900878906" lon="-6.9286651611328125">
        <ele>1167.0</ele>
        <time>2018-10-12T10:31:01.000Z</time>
      </trkpt>
      <trkpt lat="30.9484405517578125" lon="-6.9286317825317383">
        <ele>1167.0</ele>
        <time>2018-10-12T10:31:02.000Z</time>
      </trkpt>
      <trkpt lat="30.9484825134277344" lon="-6.9285979270935059">
        <ele>1167.0</ele>
        <time>2018-10-12T10:31:03.000Z</time>
      </trkpt>
      <trkpt lat="30.9485244750976562" lon="-6.9285631179809570">
        <ele>1167.0</ele>
        <time>2018-10-12T10:31:04.000Z</time>
      </trkpt>
      <trkpt lat="30.9485664367675781" lon="-6.9285259246826172">
        <ele>1167.0</ele>
        <time>2018-10-12T10:31:05.000Z</time>
      </trkpt>
      <trkpt lat="30.9486064910888672" lon="-6.9284920692443848">
        <ele>1167.0</ele>
        <time>2018-10-12T10:31:06.000Z</time>
      </trkpt>
      <trkpt lat="30.9486484527587891" lon="-6.9284567832946777">
        <ele>1167.0</ele>
        <time>2018-10-12T10:31:07.000Z</time>
      </trkpt>
      <trkpt lat="30.9486885070800781" lon="-6.9284238815307617">
        <ele>1167.0</ele>
        <time>2018-10-12T10:31:08.000Z</time>
      </trkpt>
      <trkpt lat="30.9487285614013672" lon="-6.9283938407897949">
        <ele>1167.0</ele>
        <time>2018-10-12T10:31:09.000Z</time>
      </trkpt>
      <trkpt lat="30.9487667083740234" lon="-6.9283661842346191">
        <ele>1167.0</ele>
        <time>2018-10-12T10:31:10.000Z</time>
      </trkpt>
      <trkpt lat="30.9488067626953125" lon="-6.9283380508422852">
        <ele>1167.0</ele>
        <time>2018-10-12T10:31:11.000Z</time>
      </trkpt>
      <trkpt lat="30.9488449096679688" lon="-6.9283127784729004">
        <ele>1167.0</ele>
        <time>2018-10-12T10:31:12.000Z</time>
      </trkpt>
      <trkpt lat="30.9488830566406250" lon="-6.9282841682434082">
        <ele>1167.0</ele>
        <time>2018-10-12T10:31:13.000Z</time>
      </trkpt>
      <trkpt lat="30.9489212036132812" lon="-6.9282560348510742">
        <ele>1167.0</ele>
        <time>2018-10-12T10:31:14.000Z</time>
      </trkpt>
      <trkpt lat="30.9489593505859375" lon="-6.9282240867614746">
        <ele>1167.0</ele>
        <time>2018-10-12T10:31:15.000Z</time>
      </trkpt>
      <trkpt lat="30.9489994049072266" lon="-6.9281921386718750">
        <ele>1167.0</ele>
        <time>2018-10-12T10:31:16.000Z</time>
      </trkpt>
      <trkpt lat="30.9490375518798828" lon="-6.9281558990478516">
        <ele>1167.0</ele>
        <time>2018-10-12T10:31:17.000Z</time>
      </trkpt>
      <trkpt lat="30.9490756988525391" lon="-6.9281210899353027">
        <ele>1167.0</ele>
        <time>2018-10-12T10:31:18.000Z</time>
      </trkpt>
      <trkpt lat="30.9491138458251953" lon="-6.9280858039855957">
        <ele>1167.0</ele>
        <time>2018-10-12T10:31:19.000Z</time>
      </trkpt>
      <trkpt lat="30.9491500854492188" lon="-6.9280519485473633">
        <ele>1167.0</ele>
        <time>2018-10-12T10:31:20.000Z</time>
      </trkpt>
      <trkpt lat="30.9491882324218750" lon="-6.9280180931091309">
        <ele>1167.0</ele>
        <time>2018-10-12T10:31:21.000Z</time>
      </trkpt>
      <trkpt lat="30.9492282867431641" lon="-6.9279870986938477">
        <ele>1167.0</ele>
        <time>2018-10-12T10:31:22.000Z</time>
      </trkpt>
      <trkpt lat="30.9492664337158203" lon="-6.9279580116271973">
        <ele>1167.0</ele>
        <time>2018-10-12T10:31:23.000Z</time>
      </trkpt>
      <trkpt lat="30.9493083953857422" lon="-6.9279298782348633">
        <ele>1167.0</ele>
        <time>2018-10-12T10:31:24.000Z</time>
      </trkpt>
      <trkpt lat="30.9493503570556641" lon="-6.9279050827026367">
        <ele>1167.0</ele>
        <time>2018-10-12T10:31:25.000Z</time>
      </trkpt>
      <trkpt lat="30.9493904113769531" lon="-6.9278769493103027">
        <ele>1167.0</ele>
        <time>2018-10-12T10:31:26.000Z</time>
      </trkpt>
      <trkpt lat="30.9494304656982422" lon="-6.9278478622436523">
        <ele>1167.0</ele>
        <time>2018-10-12T10:31:27.000Z</time>
      </trkpt>
      <trkpt lat="30.9494686126708984" lon="-6.9278159141540527">
        <ele>1167.0</ele>
        <time>2018-10-12T10:31:28.000Z</time>
      </trkpt>
      <trkpt lat="30.9495067596435547" lon="-6.9277858734130859">
        <ele>1167.0</ele>
        <time>2018-10-12T10:31:29.000Z</time>
      </trkpt>
      <trkpt lat="30.9495429992675781" lon="-6.9277558326721191">
        <ele>1167.0</ele>
        <time>2018-10-12T10:31:30.000Z</time>
      </trkpt>
      <trkpt lat="30.9495811462402344" lon="-6.9277257919311523">
        <ele>1167.0</ele>
        <time>2018-10-12T10:31:31.000Z</time>
      </trkpt>
      <trkpt lat="30.9496212005615234" lon="-6.9276938438415527">
        <ele>1167.0</ele>
        <time>2018-10-12T10:31:32.000Z</time>
      </trkpt>
      <trkpt lat="30.9496593475341797" lon="-6.9276580810546875">
        <ele>1167.0</ele>
        <time>2018-10-12T10:31:33.000Z</time>
      </trkpt>
      <trkpt lat="30.9496955871582031" lon="-6.9276180267333984">
        <ele>1167.0</ele>
        <time>2018-10-12T10:31:34.000Z</time>
      </trkpt>
      <trkpt lat="30.9497318267822266" lon="-6.9275760650634766">
        <ele>1167.0</ele>
        <time>2018-10-12T10:31:35.000Z</time>
      </trkpt>
      <trkpt lat="30.9497661590576172" lon="-6.9275321960449219">
        <ele>1167.0</ele>
        <time>2018-10-12T10:31:36.000Z</time>
      </trkpt>
      <trkpt lat="30.9497966766357422" lon="-6.9274859428405762">
        <ele>1167.0</ele>
        <time>2018-10-12T10:31:37.000Z</time>
      </trkpt>
      <trkpt lat="30.9498271942138672" lon="-6.9274401664733887">
        <ele>1167.0</ele>
        <time>2018-10-12T10:31:38.000Z</time>
      </trkpt>
      <trkpt lat="30.9498577117919922" lon="-6.9273948669433594">
        <ele>1167.0</ele>
        <time>2018-10-12T10:31:39.000Z</time>
      </trkpt>
      <trkpt lat="30.9498882293701172" lon="-6.9273500442504883">
        <ele>1167.0</ele>
        <time>2018-10-12T10:31:40.000Z</time>
      </trkpt>
      <trkpt lat="30.9499206542968750" lon="-6.9273037910461426">
        <ele>1167.0</ele>
        <time>2018-10-12T10:31:41.000Z</time>
      </trkpt>
      <trkpt lat="30.9499530792236328" lon="-6.9272580146789551">
        <ele>1167.0</ele>
        <time>2018-10-12T10:31:42.000Z</time>
      </trkpt>
      <trkpt lat="30.9499835968017578" lon="-6.9272141456604004">
        <ele>1167.0</ele>
        <time>2018-10-12T10:31:43.000Z</time>
      </trkpt>
      <trkpt lat="30.9500141143798828" lon="-6.9271697998046875">
        <ele>1167.0</ele>
        <time>2018-10-12T10:31:44.000Z</time>
      </trkpt>
      <trkpt lat="30.9500465393066406" lon="-6.9271259307861328">
        <ele>1167.0</ele>
        <time>2018-10-12T10:31:45.000Z</time>
      </trkpt>
      <trkpt lat="30.9500789642333984" lon="-6.9270830154418945">
        <ele>1167.0</ele>
        <time>2018-10-12T10:31:46.000Z</time>
      </trkpt>
      <trkpt lat="30.9501132965087891" lon="-6.9270439147949219">
        <ele>1167.0</ele>
        <time>2018-10-12T10:31:47.000Z</time>
      </trkpt>
      <trkpt lat="30.9501495361328125" lon="-6.9270038604736328">
        <ele>1167.0</ele>
        <time>2018-10-12T10:31:48.000Z</time>
      </trkpt>
      <trkpt lat="30.9501876831054688" lon="-6.9269638061523438">
        <ele>1167.0</ele>
        <time>2018-10-12T10:31:49.000Z</time>
      </trkpt>
      <trkpt lat="30.9502277374267578" lon="-6.9269280433654785">
        <ele>1167.0</ele>
        <time>2018-10-12T10:31:50.000Z</time>
      </trkpt>
      <trkpt lat="30.9502658843994141" lon="-6.9268870353698730">
        <ele>1167.0</ele>
        <time>2018-10-12T10:31:51.000Z</time>
      </trkpt>
      <trkpt lat="30.9503021240234375" lon="-6.9268479347229004">
        <ele>1167.0</ele>
        <time>2018-10-12T10:31:52.000Z</time>
      </trkpt>
      <trkpt lat="30.9503383636474609" lon="-6.9268040657043457">
        <ele>1167.0</ele>
        <time>2018-10-12T10:31:53.000Z</time>
      </trkpt>
      <trkpt lat="30.9503746032714844" lon="-6.9267601966857910">
        <ele>1167.0</ele>
        <time>2018-10-12T10:31:54.000Z</time>
      </trkpt>
      <trkpt lat="30.9504089355468750" lon="-6.9267139434814453">
        <ele>1167.0</ele>
        <time>2018-10-12T10:31:55.000Z</time>
      </trkpt>
      <trkpt lat="30.9504394531250000" lon="-6.9266648292541504">
        <ele>1167.0</ele>
        <time>2018-10-12T10:31:56.000Z</time>
      </trkpt>
      <trkpt lat="30.9504737854003906" lon="-6.9266161918640137">
        <ele>1167.0</ele>
        <time>2018-10-12T10:31:57.000Z</time>
      </trkpt>
      <trkpt lat="30.9505062103271484" lon="-6.9265661239624023">
        <ele>1167.0</ele>
        <time>2018-10-12T10:31:58.000Z</time>
      </trkpt>
      <trkpt lat="30.9505386352539062" lon="-6.9265160560607910">
        <ele>1167.0</ele>
        <time>2018-10-12T10:31:59.000Z</time>
      </trkpt>
      <trkpt lat="30.9505710601806641" lon="-6.9264669418334961">
        <ele>1167.0</ele>
        <time>2018-10-12T10:32:00.000Z</time>
      </trkpt>
      <trkpt lat="30.9506015777587891" lon="-6.9264168739318848">
        <ele>1167.0</ele>
        <time>2018-10-12T10:32:01.000Z</time>
      </trkpt>
      <trkpt lat="30.9506263732910156" lon="-6.9263648986816406">
        <ele>1167.0</ele>
        <time>2018-10-12T10:32:02.000Z</time>
      </trkpt>
      <trkpt lat="30.9506492614746094" lon="-6.9263110160827637">
        <ele>1166.2520751953125</ele>
        <time>2018-10-12T10:32:03.000Z</time>
      </trkpt>
      <trkpt lat="30.9506683349609375" lon="-6.9262552261352539">
        <ele>1166.0</ele>
        <time>2018-10-12T10:32:04.000Z</time>
      </trkpt>
      <trkpt lat="30.9506893157958984" lon="-6.9261980056762695">
        <ele>1165.178955078125</ele>
        <time>2018-10-12T10:32:05.000Z</time>
      </trkpt>
      <trkpt lat="30.9507102966308594" lon="-6.9261369705200195">
        <ele>1165.0</ele>
        <time>2018-10-12T10:32:06.000Z</time>
      </trkpt>
      <trkpt lat="30.9507274627685547" lon="-6.9260721206665039">
        <ele>1165.0</ele>
        <time>2018-10-12T10:32:07.000Z</time>
      </trkpt>
      <trkpt lat="30.9507427215576172" lon="-6.9260048866271973">
        <ele>1165.0</ele>
        <time>2018-10-12T10:32:08.000Z</time>
      </trkpt>
      <trkpt lat="30.9507598876953125" lon="-6.9259338378906250">
        <ele>1164.2633056640625</ele>
        <time>2018-10-12T10:32:09.000Z</time>
      </trkpt>
      <trkpt lat="30.9507770538330078" lon="-6.9258608818054199">
        <ele>1164.0</ele>
        <time>2018-10-12T10:32:10.000Z</time>
      </trkpt>
      <trkpt lat="30.9507961273193359" lon="-6.9257879257202148">
        <ele>1163.178955078125</ele>
        <time>2018-10-12T10:32:11.000Z</time>
      </trkpt>
      <trkpt lat="30.9508152008056641" lon="-6.9257168769836426">
        <ele>1163.0</ele>
        <time>2018-10-12T10:32:12.000Z</time>
      </trkpt>
      <trkpt lat="30.9508380889892578" lon="-6.9256458282470703">
        <ele>1162.178955078125</ele>
        <time>2018-10-12T10:32:13.000Z</time>
      </trkpt>
      <trkpt lat="30.9508609771728516" lon="-6.9255747795104980">
        <ele>1162.0</ele>
        <time>2018-10-12T10:32:14.000Z</time>
      </trkpt>
      <trkpt lat="30.9508857727050781" lon="-6.9255027770996094">
        <ele>1162.0</ele>
        <time>2018-10-12T10:32:15.000Z</time>
      </trkpt>
      <trkpt lat="30.9509067535400391" lon="-6.9254307746887207">
        <ele>1162.0</ele>
        <time>2018-10-12T10:32:16.000Z</time>
      </trkpt>
      <trkpt lat="30.9509277343750000" lon="-6.9253587722778320">
        <ele>1162.0</ele>
        <time>2018-10-12T10:32:17.000Z</time>
      </trkpt>
      <trkpt lat="30.9509487152099609" lon="-6.9252882003784180">
        <ele>1162.0</ele>
        <time>2018-10-12T10:32:18.000Z</time>
      </trkpt>
      <trkpt lat="30.9509735107421875" lon="-6.9252200126647949">
        <ele>1161.178955078125</ele>
        <time>2018-10-12T10:32:19.000Z</time>
      </trkpt>
      <trkpt lat="30.9510002136230469" lon="-6.9251580238342285">
        <ele>1161.0</ele>
        <time>2018-10-12T10:32:20.000Z</time>
      </trkpt>
      <trkpt lat="30.9510288238525391" lon="-6.9250969886779785">
        <ele>1161.0</ele>
        <time>2018-10-12T10:32:21.000Z</time>
      </trkpt>
      <trkpt lat="30.9510517120361328" lon="-6.9250349998474121">
        <ele>1161.0</ele>
        <time>2018-10-12T10:32:22.000Z</time>
      </trkpt>
      <trkpt lat="30.9510726928710938" lon="-6.9249758720397949">
        <ele>1161.0</ele>
        <time>2018-10-12T10:32:23.000Z</time>
      </trkpt>
      <trkpt lat="30.9510936737060547" lon="-6.9249191284179688">
        <ele>1161.0</ele>
        <time>2018-10-12T10:32:24.000Z</time>
      </trkpt>
      <trkpt lat="30.9511146545410156" lon="-6.9248619079589844">
        <ele>1161.0</ele>
        <time>2018-10-12T10:32:25.000Z</time>
      </trkpt>
      <trkpt lat="30.9511299133300781" lon="-6.9248042106628418">
        <ele>1161.0</ele>
        <time>2018-10-12T10:32:26.000Z</time>
      </trkpt>
      <trkpt lat="30.9511432647705078" lon="-6.9247479438781738">
        <ele>1161.0</ele>
        <time>2018-10-12T10:32:27.000Z</time>
      </trkpt>
      <trkpt lat="30.9511604309082031" lon="-6.9246940612792969">
        <ele>1161.0</ele>
        <time>2018-10-12T10:32:28.000Z</time>
      </trkpt>
      <trkpt lat="30.9511795043945312" lon="-6.9246411323547363">
        <ele>1161.0</ele>
        <time>2018-10-12T10:32:29.000Z</time>
      </trkpt>
      <trkpt lat="30.9512023925781250" lon="-6.9245891571044922">
        <ele>1161.0</ele>
        <time>2018-10-12T10:32:30.000Z</time>
      </trkpt>
      <trkpt lat="30.9512310028076172" lon="-6.9245362281799316">
        <ele>1160.178955078125</ele>
        <time>2018-10-12T10:32:31.000Z</time>
      </trkpt>
      <trkpt lat="30.9512634277343750" lon="-6.9244790077209473">
        <ele>1159.178955078125</ele>
        <time>2018-10-12T10:32:32.000Z</time>
      </trkpt>
      <trkpt lat="30.9512977600097656" lon="-6.9244170188903809">
        <ele>1159.0</ele>
        <time>2018-10-12T10:32:33.000Z</time>
      </trkpt>
      <trkpt lat="30.9513359069824219" lon="-6.9243540763854980">
        <ele>1158.2593994140625</ele>
        <time>2018-10-12T10:32:34.000Z</time>
      </trkpt>
      <trkpt lat="30.9513797760009766" lon="-6.9242868423461914">
        <ele>1158.0</ele>
        <time>2018-10-12T10:32:35.000Z</time>
      </trkpt>
      <trkpt lat="30.9514255523681641" lon="-6.9242181777954102">
        <ele>1157.178955078125</ele>
        <time>2018-10-12T10:32:36.000Z</time>
      </trkpt>
      <trkpt lat="30.9514732360839844" lon="-6.9241480827331543">
        <ele>1157.0</ele>
        <time>2018-10-12T10:32:37.000Z</time>
      </trkpt>
      <trkpt lat="30.9515209197998047" lon="-6.9240760803222656">
        <ele>1157.0</ele>
        <time>2018-10-12T10:32:38.000Z</time>
      </trkpt>
      <trkpt lat="30.9515666961669922" lon="-6.9240040779113770">
        <ele>1156.178955078125</ele>
        <time>2018-10-12T10:32:39.000Z</time>
      </trkpt>
      <trkpt lat="30.9516124725341797" lon="-6.9239292144775391">
        <ele>1156.0</ele>
        <time>2018-10-12T10:32:40.000Z</time>
      </trkpt>
      <trkpt lat="30.9516525268554688" lon="-6.9238519668579102">
        <ele>1156.0</ele>
        <time>2018-10-12T10:32:41.000Z</time>
      </trkpt>
      <trkpt lat="30.9516887664794922" lon="-6.9237709045410156">
        <ele>1156.0</ele>
        <time>2018-10-12T10:32:42.000Z</time>
      </trkpt>
      <trkpt lat="30.9517154693603516" lon="-6.9236907958984375">
        <ele>1156.0</ele>
        <time>2018-10-12T10:32:43.000Z</time>
      </trkpt>
      <trkpt lat="30.9517402648925781" lon="-6.9236140251159668">
        <ele>1155.178955078125</ele>
        <time>2018-10-12T10:32:44.000Z</time>
      </trkpt>
      <trkpt lat="30.9517650604248047" lon="-6.9235420227050781">
        <ele>1155.0</ele>
        <time>2018-10-12T10:32:45.000Z</time>
      </trkpt>
      <trkpt lat="30.9517936706542969" lon="-6.9234771728515625">
        <ele>1155.0</ele>
        <time>2018-10-12T10:32:46.000Z</time>
      </trkpt>
      <trkpt lat="30.9518203735351562" lon="-6.9234161376953125">
        <ele>1154.373291015625</ele>
        <time>2018-10-12T10:32:47.000Z</time>
      </trkpt>
      <trkpt lat="30.9518508911132812" lon="-6.9233579635620117">
        <ele>1153.2593994140625</ele>
        <time>2018-10-12T10:32:48.000Z</time>
      </trkpt>
      <trkpt lat="30.9518852233886719" lon="-6.9232988357543945">
        <ele>1153.0</ele>
        <time>2018-10-12T10:32:49.000Z</time>
      </trkpt>
      <trkpt lat="30.9519214630126953" lon="-6.9232349395751953">
        <ele>1152.178955078125</ele>
        <time>2018-10-12T10:32:50.000Z</time>
      </trkpt>
      <trkpt lat="30.9519557952880859" lon="-6.9231610298156738">
        <ele>1152.0</ele>
        <time>2018-10-12T10:32:51.000Z</time>
      </trkpt>
      <trkpt lat="30.9519844055175781" lon="-6.9230751991271973">
        <ele>1152.0</ele>
        <time>2018-10-12T10:32:52.000Z</time>
      </trkpt>
      <trkpt lat="30.9520130157470703" lon="-6.9229860305786133">
        <ele>1151.178955078125</ele>
        <time>2018-10-12T10:32:53.000Z</time>
      </trkpt>
      <trkpt lat="30.9520416259765625" lon="-6.9229001998901367">
        <ele>1151.0</ele>
        <time>2018-10-12T10:32:54.000Z</time>
      </trkpt>
      <trkpt lat="30.9520721435546875" lon="-6.9228210449218750">
        <ele>1151.0</ele>
        <time>2018-10-12T10:32:55.000Z</time>
      </trkpt>
      <trkpt lat="30.9521064758300781" lon="-6.9227461814880371">
        <ele>1151.0</ele>
        <time>2018-10-12T10:32:56.000Z</time>
      </trkpt>
      <trkpt lat="30.9521446228027344" lon="-6.9226789474487305">
        <ele>1151.0</ele>
        <time>2018-10-12T10:32:57.000Z</time>
      </trkpt>
      <trkpt lat="30.9521865844726562" lon="-6.9226207733154297">
        <ele>1151.0</ele>
        <time>2018-10-12T10:32:58.000Z</time>
      </trkpt>
      <trkpt lat="30.9522304534912109" lon="-6.9225687980651855">
        <ele>1151.0</ele>
        <time>2018-10-12T10:32:59.000Z</time>
      </trkpt>
      <trkpt lat="30.9522724151611328" lon="-6.9225201606750488">
        <ele>1151.0</ele>
        <time>2018-10-12T10:33:00.000Z</time>
      </trkpt>
      <trkpt lat="30.9523105621337891" lon="-6.9224720001220703">
        <ele>1151.0</ele>
        <time>2018-10-12T10:33:01.000Z</time>
      </trkpt>
      <trkpt lat="30.9523448944091797" lon="-6.9224219322204590">
        <ele>1151.0</ele>
        <time>2018-10-12T10:33:02.000Z</time>
      </trkpt>
      <trkpt lat="30.9523754119873047" lon="-6.9223728179931641">
        <ele>1151.0</ele>
        <time>2018-10-12T10:33:03.000Z</time>
      </trkpt>
      <trkpt lat="30.9524059295654297" lon="-6.9223232269287109">
        <ele>1151.0</ele>
        <time>2018-10-12T10:33:04.000Z</time>
      </trkpt>
      <trkpt lat="30.9524345397949219" lon="-6.9222769737243652">
        <ele>1151.0</ele>
        <time>2018-10-12T10:33:05.000Z</time>
      </trkpt>
      <trkpt lat="30.9524612426757812" lon="-6.9222340583801270">
        <ele>1151.0</ele>
        <time>2018-10-12T10:33:06.000Z</time>
      </trkpt>
      <trkpt lat="30.9524917602539062" lon="-6.9221901893615723">
        <ele>1151.0</ele>
        <time>2018-10-12T10:33:07.000Z</time>
      </trkpt>
      <trkpt lat="30.9525241851806641" lon="-6.9221410751342773">
        <ele>1151.0</ele>
        <time>2018-10-12T10:33:08.000Z</time>
      </trkpt>
      <trkpt lat="30.9525604248046875" lon="-6.9220910072326660">
        <ele>1151.0</ele>
        <time>2018-10-12T10:33:09.000Z</time>
      </trkpt>
      <trkpt lat="30.9525966644287109" lon="-6.9220380783081055">
        <ele>1150.178955078125</ele>
        <time>2018-10-12T10:33:10.000Z</time>
      </trkpt>
      <trkpt lat="30.9526290893554688" lon="-6.9219799041748047">
        <ele>1150.0</ele>
        <time>2018-10-12T10:33:11.000Z</time>
      </trkpt>
      <trkpt lat="30.9526576995849609" lon="-6.9219241142272949">
        <ele>1149.363525390625</ele>
        <time>2018-10-12T10:33:12.000Z</time>
      </trkpt>
      <trkpt lat="30.9526767730712891" lon="-6.9218778610229492">
        <ele>1149.0</ele>
        <time>2018-10-12T10:33:13.000Z</time>
      </trkpt>
      <trkpt lat="30.9526939392089844" lon="-6.9218420982360840">
        <ele>1149.0</ele>
        <time>2018-10-12T10:33:14.000Z</time>
      </trkpt>
      <trkpt lat="30.9527053833007812" lon="-6.9218111038208008">
        <ele>1148.178955078125</ele>
        <time>2018-10-12T10:33:15.000Z</time>
      </trkpt>
      <trkpt lat="30.9527187347412109" lon="-6.9217810630798340">
        <ele>1148.0</ele>
        <time>2018-10-12T10:33:16.000Z</time>
      </trkpt>
      <trkpt lat="30.9527301788330078" lon="-6.9217481613159180">
        <ele>1148.0</ele>
        <time>2018-10-12T10:33:17.000Z</time>
      </trkpt>
      <trkpt lat="30.9527435302734375" lon="-6.9217190742492676">
        <ele>1148.0</ele>
        <time>2018-10-12T10:33:18.000Z</time>
      </trkpt>
      <trkpt lat="30.9527530670166016" lon="-6.9216938018798828">
        <ele>1148.0</ele>
        <time>2018-10-12T10:33:19.000Z</time>
      </trkpt>
      <trkpt lat="30.9527645111083984" lon="-6.9216690063476562">
        <ele>1148.0</ele>
        <time>2018-10-12T10:33:20.000Z</time>
      </trkpt>
      <trkpt lat="30.9527721405029297" lon="-6.9216418266296387">
        <ele>1148.0</ele>
        <time>2018-10-12T10:33:21.000Z</time>
      </trkpt>
      <trkpt lat="30.9527835845947266" lon="-6.9216108322143555">
        <ele>1148.0</ele>
        <time>2018-10-12T10:33:22.000Z</time>
      </trkpt>
      <trkpt lat="30.9527931213378906" lon="-6.9215807914733887">
        <ele>1148.0</ele>
        <time>2018-10-12T10:33:23.000Z</time>
      </trkpt>
      <trkpt lat="30.9528007507324219" lon="-6.9215540885925293">
        <ele>1148.0</ele>
        <time>2018-10-12T10:33:24.000Z</time>
      </trkpt>
      <trkpt lat="30.9528026580810547" lon="-6.9215269088745117">
        <ele>1148.0</ele>
        <time>2018-10-12T10:33:25.000Z</time>
      </trkpt>
      <trkpt lat="30.9528026580810547" lon="-6.9214978218078613">
        <ele>1148.0</ele>
        <time>2018-10-12T10:33:26.000Z</time>
      </trkpt>
      <trkpt lat="30.9528026580810547" lon="-6.9214720726013184">
        <ele>1148.821044921875</ele>
        <time>2018-10-12T10:33:27.000Z</time>
      </trkpt>
      <trkpt lat="30.9528026580810547" lon="-6.9214458465576172">
        <ele>1149.0</ele>
        <time>2018-10-12T10:33:28.000Z</time>
      </trkpt>
      <trkpt lat="30.9528026580810547" lon="-6.9214148521423340">
        <ele>1149.0</ele>
        <time>2018-10-12T10:33:29.000Z</time>
      </trkpt>
      <trkpt lat="30.9528007507324219" lon="-6.9213781356811523">
        <ele>1149.0</ele>
        <time>2018-10-12T10:33:30.000Z</time>
      </trkpt>
      <trkpt lat="30.9527988433837891" lon="-6.9213380813598633">
        <ele>1149.0</ele>
        <time>2018-10-12T10:33:31.000Z</time>
      </trkpt>
      <trkpt lat="30.9527969360351562" lon="-6.9212951660156250">
        <ele>1149.0</ele>
        <time>2018-10-12T10:33:32.000Z</time>
      </trkpt>
      <trkpt lat="30.9527950286865234" lon="-6.9212532043457031">
        <ele>1149.0</ele>
        <time>2018-10-12T10:33:33.000Z</time>
      </trkpt>
      <trkpt lat="30.9527950286865234" lon="-6.9212131500244141">
        <ele>1149.0</ele>
        <time>2018-10-12T10:33:34.000Z</time>
      </trkpt>
      <trkpt lat="30.9527969360351562" lon="-6.9211740493774414">
        <ele>1149.0</ele>
        <time>2018-10-12T10:33:35.000Z</time>
      </trkpt>
      <trkpt lat="30.9528007507324219" lon="-6.9211359024047852">
        <ele>1149.0</ele>
        <time>2018-10-12T10:33:36.000Z</time>
      </trkpt>
      <trkpt lat="30.9528064727783203" lon="-6.9210948944091797">
        <ele>1149.0</ele>
        <time>2018-10-12T10:33:37.000Z</time>
      </trkpt>
      <trkpt lat="30.9528121948242188" lon="-6.9210519790649414">
        <ele>1149.0</ele>
        <time>2018-10-12T10:33:38.000Z</time>
      </trkpt>
      <trkpt lat="30.9528217315673828" lon="-6.9210090637207031">
        <ele>1149.0</ele>
        <time>2018-10-12T10:33:39.000Z</time>
      </trkpt>
      <trkpt lat="30.9528331756591797" lon="-6.9209651947021484">
        <ele>1149.0</ele>
        <time>2018-10-12T10:33:40.000Z</time>
      </trkpt>
      <trkpt lat="30.9528465270996094" lon="-6.9209218025207520">
        <ele>1149.0</ele>
        <time>2018-10-12T10:33:41.000Z</time>
      </trkpt>
      <trkpt lat="30.9528636932373047" lon="-6.9208822250366211">
        <ele>1149.0</ele>
        <time>2018-10-12T10:33:42.000Z</time>
      </trkpt>
      <trkpt lat="30.9528808593750000" lon="-6.9208469390869141">
        <ele>1149.0</ele>
        <time>2018-10-12T10:33:43.000Z</time>
      </trkpt>
      <trkpt lat="30.9528999328613281" lon="-6.9208159446716309">
        <ele>1149.0</ele>
        <time>2018-10-12T10:33:44.000Z</time>
      </trkpt>
      <trkpt lat="30.9529247283935547" lon="-6.9207859039306641">
        <ele>1149.0</ele>
        <time>2018-10-12T10:33:45.000Z</time>
      </trkpt>
      <trkpt lat="30.9529533386230469" lon="-6.9207568168640137">
        <ele>1149.0</ele>
        <time>2018-10-12T10:33:46.000Z</time>
      </trkpt>
      <trkpt lat="30.9529838562011719" lon="-6.9207291603088379">
        <ele>1149.0</ele>
        <time>2018-10-12T10:33:47.000Z</time>
      </trkpt>
      <trkpt lat="30.9530181884765625" lon="-6.9206981658935547">
        <ele>1149.0</ele>
        <time>2018-10-12T10:33:48.000Z</time>
      </trkpt>
      <trkpt lat="30.9530525207519531" lon="-6.9206662178039551">
        <ele>1149.0</ele>
        <time>2018-10-12T10:33:49.000Z</time>
      </trkpt>
      <trkpt lat="30.9530887603759766" lon="-6.9206328392028809">
        <ele>1149.0</ele>
        <time>2018-10-12T10:33:50.000Z</time>
      </trkpt>
      <trkpt lat="30.9531250000000000" lon="-6.9205989837646484">
        <ele>1149.0</ele>
        <time>2018-10-12T10:33:51.000Z</time>
      </trkpt>
      <trkpt lat="30.9531612396240234" lon="-6.9205651283264160">
        <ele>1149.0</ele>
        <time>2018-10-12T10:33:52.000Z</time>
      </trkpt>
      <trkpt lat="30.9531993865966797" lon="-6.9205298423767090">
        <ele>1149.0</ele>
        <time>2018-10-12T10:33:53.000Z</time>
      </trkpt>
      <trkpt lat="30.9532356262207031" lon="-6.9204950332641602">
        <ele>1149.0</ele>
        <time>2018-10-12T10:33:54.000Z</time>
      </trkpt>
      <trkpt lat="30.9532718658447266" lon="-6.9204630851745605">
        <ele>1149.0</ele>
        <time>2018-10-12T10:33:55.000Z</time>
      </trkpt>
      <trkpt lat="30.9533081054687500" lon="-6.9204330444335938">
        <ele>1149.0</ele>
        <time>2018-10-12T10:33:56.000Z</time>
      </trkpt>
      <trkpt lat="30.9533462524414062" lon="-6.9204039573669434">
        <ele>1149.0</ele>
        <time>2018-10-12T10:33:57.000Z</time>
      </trkpt>
      <trkpt lat="30.9533863067626953" lon="-6.9203758239746094">
        <ele>1149.0</ele>
        <time>2018-10-12T10:33:58.000Z</time>
      </trkpt>
      <trkpt lat="30.9534244537353516" lon="-6.9203500747680664">
        <ele>1149.0</ele>
        <time>2018-10-12T10:33:59.000Z</time>
      </trkpt>
      <trkpt lat="30.9534645080566406" lon="-6.9203271865844727">
        <ele>1148.178955078125</ele>
        <time>2018-10-12T10:34:00.000Z</time>
      </trkpt>
      <trkpt lat="30.9535083770751953" lon="-6.9203071594238281">
        <ele>1148.0</ele>
        <time>2018-10-12T10:34:01.000Z</time>
      </trkpt>
      <trkpt lat="30.9535503387451172" lon="-6.9202871322631836">
        <ele>1148.0</ele>
        <time>2018-10-12T10:34:02.000Z</time>
      </trkpt>
      <trkpt lat="30.9535942077636719" lon="-6.9202699661254883">
        <ele>1148.8154296875</ele>
        <time>2018-10-12T10:34:03.000Z</time>
      </trkpt>
      <trkpt lat="30.9536399841308594" lon="-6.9202570915222168">
        <ele>1149.0</ele>
        <time>2018-10-12T10:34:04.000Z</time>
      </trkpt>
      <trkpt lat="30.9536857604980469" lon="-6.9202470779418945">
        <ele>1149.0</ele>
        <time>2018-10-12T10:34:05.000Z</time>
      </trkpt>
      <trkpt lat="30.9537315368652344" lon="-6.9202370643615723">
        <ele>1149.0</ele>
        <time>2018-10-12T10:34:06.000Z</time>
      </trkpt>
      <trkpt lat="30.9537773132324219" lon="-6.9202289581298828">
        <ele>1149.0</ele>
        <time>2018-10-12T10:34:07.000Z</time>
      </trkpt>
      <trkpt lat="30.9538230895996094" lon="-6.9202232360839844">
        <ele>1149.0</ele>
        <time>2018-10-12T10:34:08.000Z</time>
      </trkpt>
      <trkpt lat="30.9538669586181641" lon="-6.9202160835266113">
        <ele>1148.178955078125</ele>
        <time>2018-10-12T10:34:09.000Z</time>
      </trkpt>
      <trkpt lat="30.9539089202880859" lon="-6.9202079772949219">
        <ele>1148.0</ele>
        <time>2018-10-12T10:34:10.000Z</time>
      </trkpt>
      <trkpt lat="30.9539508819580078" lon="-6.9201989173889160">
        <ele>1148.0</ele>
        <time>2018-10-12T10:34:11.000Z</time>
      </trkpt>
      <trkpt lat="30.9539909362792969" lon="-6.9201898574829102">
        <ele>1148.0</ele>
        <time>2018-10-12T10:34:12.000Z</time>
      </trkpt>
      <trkpt lat="30.9540309906005859" lon="-6.9201769828796387">
        <ele>1148.0</ele>
        <time>2018-10-12T10:34:13.000Z</time>
      </trkpt>
      <trkpt lat="30.9540691375732422" lon="-6.9201631546020508">
        <ele>1148.0</ele>
        <time>2018-10-12T10:34:14.000Z</time>
      </trkpt>
      <trkpt lat="30.9541072845458984" lon="-6.9201469421386719">
        <ele>1148.0</ele>
        <time>2018-10-12T10:34:15.000Z</time>
      </trkpt>
      <trkpt lat="30.9541473388671875" lon="-6.9201297760009766">
        <ele>1148.0</ele>
        <time>2018-10-12T10:34:16.000Z</time>
      </trkpt>
      <trkpt lat="30.9541873931884766" lon="-6.9201102256774902">
        <ele>1148.0</ele>
        <time>2018-10-12T10:34:17.000Z</time>
      </trkpt>
      <trkpt lat="30.9542274475097656" lon="-6.9200859069824219">
        <ele>1148.0</ele>
        <time>2018-10-12T10:34:18.000Z</time>
      </trkpt>
      <trkpt lat="30.9542694091796875" lon="-6.9200620651245117">
        <ele>1148.0</ele>
        <time>2018-10-12T10:34:19.000Z</time>
      </trkpt>
      <trkpt lat="30.9543113708496094" lon="-6.9200401306152344">
        <ele>1148.0</ele>
        <time>2018-10-12T10:34:20.000Z</time>
      </trkpt>
      <trkpt lat="30.9543533325195312" lon="-6.9200158119201660">
        <ele>1147.178955078125</ele>
        <time>2018-10-12T10:34:21.000Z</time>
      </trkpt>
      <trkpt lat="30.9543933868408203" lon="-6.9199881553649902">
        <ele>1147.0</ele>
        <time>2018-10-12T10:34:22.000Z</time>
      </trkpt>
      <trkpt lat="30.9544334411621094" lon="-6.9199547767639160">
        <ele>1146.178955078125</ele>
        <time>2018-10-12T10:34:23.000Z</time>
      </trkpt>
      <trkpt lat="30.9544715881347656" lon="-6.9199171066284180">
        <ele>1146.0</ele>
        <time>2018-10-12T10:34:24.000Z</time>
      </trkpt>
      <trkpt lat="30.9545059204101562" lon="-6.9198799133300781">
        <ele>1146.0</ele>
        <time>2018-10-12T10:34:25.000Z</time>
      </trkpt>
      <trkpt lat="30.9545402526855469" lon="-6.9198489189147949">
        <ele>1146.0</ele>
        <time>2018-10-12T10:34:26.000Z</time>
      </trkpt>
      <trkpt lat="30.9545745849609375" lon="-6.9198241233825684">
        <ele>1146.821044921875</ele>
        <time>2018-10-12T10:34:27.000Z</time>
      </trkpt>
      <trkpt lat="30.9546108245849609" lon="-6.9198069572448730">
        <ele>1147.0</ele>
        <time>2018-10-12T10:34:28.000Z</time>
      </trkpt>
      <trkpt lat="30.9546508789062500" lon="-6.9197988510131836">
        <ele>1147.0</ele>
        <time>2018-10-12T10:34:29.000Z</time>
      </trkpt>
      <trkpt lat="30.9546909332275391" lon="-6.9197998046875000">
        <ele>1147.0</ele>
        <time>2018-10-12T10:34:30.000Z</time>
      </trkpt>
      <trkpt lat="30.9547328948974609" lon="-6.9198069572448730">
        <ele>1147.821044921875</ele>
        <time>2018-10-12T10:34:31.000Z</time>
      </trkpt>
      <trkpt lat="30.9547729492187500" lon="-6.9198169708251953">
        <ele>1148.821044921875</ele>
        <time>2018-10-12T10:34:32.000Z</time>
      </trkpt>
      <trkpt lat="30.9548110961914062" lon="-6.9198322296142578">
        <ele>1149.0</ele>
        <time>2018-10-12T10:34:33.000Z</time>
      </trkpt>
      <trkpt lat="30.9548492431640625" lon="-6.9198517799377441">
        <ele>1149.0</ele>
        <time>2018-10-12T10:34:34.000Z</time>
      </trkpt>
      <trkpt lat="30.9548873901367188" lon="-6.9198760986328125">
        <ele>1149.0</ele>
        <time>2018-10-12T10:34:35.000Z</time>
      </trkpt>
      <trkpt lat="30.9549236297607422" lon="-6.9199028015136719">
        <ele>1149.0</ele>
        <time>2018-10-12T10:34:36.000Z</time>
      </trkpt>
      <trkpt lat="30.9549617767333984" lon="-6.9199318885803223">
        <ele>1149.0</ele>
        <time>2018-10-12T10:34:37.000Z</time>
      </trkpt>
      <trkpt lat="30.9549980163574219" lon="-6.9199638366699219">
        <ele>1149.0</ele>
        <time>2018-10-12T10:34:38.000Z</time>
      </trkpt>
      <trkpt lat="30.9550323486328125" lon="-6.9199981689453125">
        <ele>1149.0</ele>
        <time>2018-10-12T10:34:39.000Z</time>
      </trkpt>
      <trkpt lat="30.9550685882568359" lon="-6.9200339317321777">
        <ele>1149.0</ele>
        <time>2018-10-12T10:34:40.000Z</time>
      </trkpt>
      <trkpt lat="30.9551029205322266" lon="-6.9200720787048340">
        <ele>1149.0</ele>
        <time>2018-10-12T10:34:41.000Z</time>
      </trkpt>
      <trkpt lat="30.9551353454589844" lon="-6.9201102256774902">
        <ele>1149.0</ele>
        <time>2018-10-12T10:34:42.000Z</time>
      </trkpt>
      <trkpt lat="30.9551715850830078" lon="-6.9201469421386719">
        <ele>1149.0</ele>
        <time>2018-10-12T10:34:43.000Z</time>
      </trkpt>
      <trkpt lat="30.9552078247070312" lon="-6.9201822280883789">
        <ele>1149.0</ele>
        <time>2018-10-12T10:34:44.000Z</time>
      </trkpt>
      <trkpt lat="30.9552440643310547" lon="-6.9202160835266113">
        <ele>1149.0</ele>
        <time>2018-10-12T10:34:45.000Z</time>
      </trkpt>
      <trkpt lat="30.9552803039550781" lon="-6.9202480316162109">
        <ele>1149.0</ele>
        <time>2018-10-12T10:34:46.000Z</time>
      </trkpt>
      <trkpt lat="30.9553184509277344" lon="-6.9202799797058105">
        <ele>1149.0</ele>
        <time>2018-10-12T10:34:47.000Z</time>
      </trkpt>
      <trkpt lat="30.9553565979003906" lon="-6.9203090667724609">
        <ele>1149.0</ele>
        <time>2018-10-12T10:34:48.000Z</time>
      </trkpt>
      <trkpt lat="30.9553966522216797" lon="-6.9203357696533203">
        <ele>1149.0</ele>
        <time>2018-10-12T10:34:49.000Z</time>
      </trkpt>
      <trkpt lat="30.9554367065429688" lon="-6.9203619956970215">
        <ele>1149.0</ele>
        <time>2018-10-12T10:34:50.000Z</time>
      </trkpt>
      <trkpt lat="30.9554767608642578" lon="-6.9203858375549316">
        <ele>1149.0</ele>
        <time>2018-10-12T10:34:51.000Z</time>
      </trkpt>
      <trkpt lat="30.9555149078369141" lon="-6.9204092025756836">
        <ele>1149.0</ele>
        <time>2018-10-12T10:34:52.000Z</time>
      </trkpt>
      <trkpt lat="30.9555530548095703" lon="-6.9204301834106445">
        <ele>1149.636474609375</ele>
        <time>2018-10-12T10:34:53.000Z</time>
      </trkpt>
      <trkpt lat="30.9555892944335938" lon="-6.9204487800598145">
        <ele>1150.0</ele>
        <time>2018-10-12T10:34:54.000Z</time>
      </trkpt>
      <trkpt lat="30.9556274414062500" lon="-6.9204688072204590">
        <ele>1150.0</ele>
        <time>2018-10-12T10:34:55.000Z</time>
      </trkpt>
      <trkpt lat="30.9556636810302734" lon="-6.9204888343811035">
        <ele>1150.0</ele>
        <time>2018-10-12T10:34:56.000Z</time>
      </trkpt>
      <trkpt lat="30.9556999206542969" lon="-6.9205098152160645">
        <ele>1150.0</ele>
        <time>2018-10-12T10:34:57.000Z</time>
      </trkpt>
      <trkpt lat="30.9557380676269531" lon="-6.9205322265625000">
        <ele>1150.0</ele>
        <time>2018-10-12T10:34:58.000Z</time>
      </trkpt>
      <trkpt lat="30.9557743072509766" lon="-6.9205532073974609">
        <ele>1150.0</ele>
        <time>2018-10-12T10:34:59.000Z</time>
      </trkpt>
      <trkpt lat="30.9558124542236328" lon="-6.9205770492553711">
        <ele>1150.0</ele>
        <time>2018-10-12T10:35:00.000Z</time>
      </trkpt>
      <trkpt lat="30.9558486938476562" lon="-6.9206018447875977">
        <ele>1150.0</ele>
        <time>2018-10-12T10:35:01.000Z</time>
      </trkpt>
      <trkpt lat="30.9558849334716797" lon="-6.9206290245056152">
        <ele>1150.0</ele>
        <time>2018-10-12T10:35:02.000Z</time>
      </trkpt>
      <trkpt lat="30.9559211730957031" lon="-6.9206562042236328">
        <ele>1150.0</ele>
        <time>2018-10-12T10:35:03.000Z</time>
      </trkpt>
      <trkpt lat="30.9559593200683594" lon="-6.9206819534301758">
        <ele>1150.0</ele>
        <time>2018-10-12T10:35:04.000Z</time>
      </trkpt>
      <trkpt lat="30.9559974670410156" lon="-6.9207072257995605">
        <ele>1150.0</ele>
        <time>2018-10-12T10:35:05.000Z</time>
      </trkpt>
      <trkpt lat="30.9560356140136719" lon="-6.9207320213317871">
        <ele>1150.0</ele>
        <time>2018-10-12T10:35:06.000Z</time>
      </trkpt>
      <trkpt lat="30.9560737609863281" lon="-6.9207558631896973">
        <ele>1150.0</ele>
        <time>2018-10-12T10:35:07.000Z</time>
      </trkpt>
      <trkpt lat="30.9561138153076172" lon="-6.9207811355590820">
        <ele>1150.0</ele>
        <time>2018-10-12T10:35:08.000Z</time>
      </trkpt>
      <trkpt lat="30.9561538696289062" lon="-6.9208078384399414">
        <ele>1150.8128662109375</ele>
        <time>2018-10-12T10:35:09.000Z</time>
      </trkpt>
      <trkpt lat="30.9561939239501953" lon="-6.9208350181579590">
        <ele>1151.0</ele>
        <time>2018-10-12T10:35:10.000Z</time>
      </trkpt>
      <trkpt lat="30.9562320709228516" lon="-6.9208641052246094">
        <ele>1151.0</ele>
        <time>2018-10-12T10:35:11.000Z</time>
      </trkpt>
      <trkpt lat="30.9562721252441406" lon="-6.9208931922912598">
        <ele>1151.0</ele>
        <time>2018-10-12T10:35:12.000Z</time>
      </trkpt>
      <trkpt lat="30.9563102722167969" lon="-6.9209232330322266">
        <ele>1151.0</ele>
        <time>2018-10-12T10:35:13.000Z</time>
      </trkpt>
      <trkpt lat="30.9563465118408203" lon="-6.9209518432617188">
        <ele>1151.0</ele>
        <time>2018-10-12T10:35:14.000Z</time>
      </trkpt>
      <trkpt lat="30.9563827514648438" lon="-6.9209828376770020">
        <ele>1151.0</ele>
        <time>2018-10-12T10:35:15.000Z</time>
      </trkpt>
      <trkpt lat="30.9564170837402344" lon="-6.9210138320922852">
        <ele>1151.0</ele>
        <time>2018-10-12T10:35:16.000Z</time>
      </trkpt>
      <trkpt lat="30.9564495086669922" lon="-6.9210457801818848">
        <ele>1151.0</ele>
        <time>2018-10-12T10:35:17.000Z</time>
      </trkpt>
      <trkpt lat="30.9564819335937500" lon="-6.9210767745971680">
        <ele>1151.0</ele>
        <time>2018-10-12T10:35:18.000Z</time>
      </trkpt>
      <trkpt lat="30.9565124511718750" lon="-6.9211077690124512">
        <ele>1151.0</ele>
        <time>2018-10-12T10:35:19.000Z</time>
      </trkpt>
      <trkpt lat="30.9565448760986328" lon="-6.9211368560791016">
        <ele>1151.0</ele>
        <time>2018-10-12T10:35:20.000Z</time>
      </trkpt>
      <trkpt lat="30.9565734863281250" lon="-6.9211649894714355">
        <ele>1151.0</ele>
        <time>2018-10-12T10:35:21.000Z</time>
      </trkpt>
      <trkpt lat="30.9566020965576172" lon="-6.9211931228637695">
        <ele>1151.0</ele>
        <time>2018-10-12T10:35:22.000Z</time>
      </trkpt>
      <trkpt lat="30.9566326141357422" lon="-6.9212207794189453">
        <ele>1151.0</ele>
        <time>2018-10-12T10:35:23.000Z</time>
      </trkpt>
      <trkpt lat="30.9566669464111328" lon="-6.9212508201599121">
        <ele>1151.0</ele>
        <time>2018-10-12T10:35:24.000Z</time>
      </trkpt>
      <trkpt lat="30.9566993713378906" lon="-6.9212808609008789">
        <ele>1151.0</ele>
        <time>2018-10-12T10:35:25.000Z</time>
      </trkpt>
      <trkpt lat="30.9567337036132812" lon="-6.9213099479675293">
        <ele>1151.0</ele>
        <time>2018-10-12T10:35:26.000Z</time>
      </trkpt>
      <trkpt lat="30.9567699432373047" lon="-6.9213371276855469">
        <ele>1151.0</ele>
        <time>2018-10-12T10:35:27.000Z</time>
      </trkpt>
      <trkpt lat="30.9568042755126953" lon="-6.9213638305664062">
        <ele>1151.0</ele>
        <time>2018-10-12T10:35:28.000Z</time>
      </trkpt>
      <trkpt lat="30.9568386077880859" lon="-6.9213910102844238">
        <ele>1151.0</ele>
        <time>2018-10-12T10:35:29.000Z</time>
      </trkpt>
      <trkpt lat="30.9568748474121094" lon="-6.9214172363281250">
        <ele>1151.0</ele>
        <time>2018-10-12T10:35:30.000Z</time>
      </trkpt>
      <trkpt lat="30.9569110870361328" lon="-6.9214420318603516">
        <ele>1151.0</ele>
        <time>2018-10-12T10:35:31.000Z</time>
      </trkpt>
      <trkpt lat="30.9569492340087891" lon="-6.9214649200439453">
        <ele>1151.0</ele>
        <time>2018-10-12T10:35:32.000Z</time>
      </trkpt>
      <trkpt lat="30.9569892883300781" lon="-6.9214868545532227">
        <ele>1151.0</ele>
        <time>2018-10-12T10:35:33.000Z</time>
      </trkpt>
      <trkpt lat="30.9570274353027344" lon="-6.9215078353881836">
        <ele>1151.0</ele>
        <time>2018-10-12T10:35:34.000Z</time>
      </trkpt>
      <trkpt lat="30.9570655822753906" lon="-6.9215278625488281">
        <ele>1151.0</ele>
        <time>2018-10-12T10:35:35.000Z</time>
      </trkpt>
      <trkpt lat="30.9571037292480469" lon="-6.9215469360351562">
        <ele>1151.0</ele>
        <time>2018-10-12T10:35:36.000Z</time>
      </trkpt>
      <trkpt lat="30.9571399688720703" lon="-6.9215669631958008">
        <ele>1151.0</ele>
        <time>2018-10-12T10:35:37.000Z</time>
      </trkpt>
      <trkpt lat="30.9571781158447266" lon="-6.9215850830078125">
        <ele>1151.0</ele>
        <time>2018-10-12T10:35:38.000Z</time>
      </trkpt>
      <trkpt lat="30.9572162628173828" lon="-6.9216008186340332">
        <ele>1151.0</ele>
        <time>2018-10-12T10:35:39.000Z</time>
      </trkpt>
      <trkpt lat="30.9572544097900391" lon="-6.9216170310974121">
        <ele>1151.0</ele>
        <time>2018-10-12T10:35:40.000Z</time>
      </trkpt>
      <trkpt lat="30.9572944641113281" lon="-6.9216351509094238">
        <ele>1151.0</ele>
        <time>2018-10-12T10:35:41.000Z</time>
      </trkpt>
      <trkpt lat="30.9573345184326172" lon="-6.9216518402099609">
        <ele>1151.0</ele>
        <time>2018-10-12T10:35:42.000Z</time>
      </trkpt>
      <trkpt lat="30.9573764801025391" lon="-6.9216690063476562">
        <ele>1151.0</ele>
        <time>2018-10-12T10:35:43.000Z</time>
      </trkpt>
      <trkpt lat="30.9574165344238281" lon="-6.9216871261596680">
        <ele>1151.0</ele>
        <time>2018-10-12T10:35:44.000Z</time>
      </trkpt>
      <trkpt lat="30.9574565887451172" lon="-6.9217047691345215">
        <ele>1151.0</ele>
        <time>2018-10-12T10:35:45.000Z</time>
      </trkpt>
      <trkpt lat="30.9574985504150391" lon="-6.9217228889465332">
        <ele>1151.0</ele>
        <time>2018-10-12T10:35:46.000Z</time>
      </trkpt>
      <trkpt lat="30.9575386047363281" lon="-6.9217410087585449">
        <ele>1151.0</ele>
        <time>2018-10-12T10:35:47.000Z</time>
      </trkpt>
      <trkpt lat="30.9575786590576172" lon="-6.9217600822448730">
        <ele>1151.0</ele>
        <time>2018-10-12T10:35:48.000Z</time>
      </trkpt>
      <trkpt lat="30.9576168060302734" lon="-6.9217801094055176">
        <ele>1151.0</ele>
        <time>2018-10-12T10:35:49.000Z</time>
      </trkpt>
      <trkpt lat="30.9576568603515625" lon="-6.9218010902404785">
        <ele>1151.0</ele>
        <time>2018-10-12T10:35:50.000Z</time>
      </trkpt>
      <trkpt lat="30.9576930999755859" lon="-6.9218230247497559">
        <ele>1151.0</ele>
        <time>2018-10-12T10:35:51.000Z</time>
      </trkpt>
      <trkpt lat="30.9577312469482422" lon="-6.9218449592590332">
        <ele>1151.0</ele>
        <time>2018-10-12T10:35:52.000Z</time>
      </trkpt>
      <trkpt lat="30.9577693939208984" lon="-6.9218678474426270">
        <ele>1151.821044921875</ele>
        <time>2018-10-12T10:35:53.000Z</time>
      </trkpt>
      <trkpt lat="30.9578075408935547" lon="-6.9218921661376953">
        <ele>1152.0</ele>
        <time>2018-10-12T10:35:54.000Z</time>
      </trkpt>
      <trkpt lat="30.9578456878662109" lon="-6.9219160079956055">
        <ele>1152.0</ele>
        <time>2018-10-12T10:35:55.000Z</time>
      </trkpt>
      <trkpt lat="30.9578838348388672" lon="-6.9219388961791992">
        <ele>1152.0</ele>
        <time>2018-10-12T10:35:56.000Z</time>
      </trkpt>
      <trkpt lat="30.9579200744628906" lon="-6.9219632148742676">
        <ele>1152.0</ele>
        <time>2018-10-12T10:35:57.000Z</time>
      </trkpt>
      <trkpt lat="30.9579582214355469" lon="-6.9219870567321777">
        <ele>1152.0</ele>
        <time>2018-10-12T10:35:58.000Z</time>
      </trkpt>
      <trkpt lat="30.9579982757568359" lon="-6.9220099449157715">
        <ele>1152.0</ele>
        <time>2018-10-12T10:35:59.000Z</time>
      </trkpt>
      <trkpt lat="30.9580364227294922" lon="-6.9220328330993652">
        <ele>1152.0</ele>
        <time>2018-10-12T10:36:00.000Z</time>
      </trkpt>
      <trkpt lat="30.9580745697021484" lon="-6.9220561981201172">
        <ele>1152.0</ele>
        <time>2018-10-12T10:36:01.000Z</time>
      </trkpt>
      <trkpt lat="30.9581146240234375" lon="-6.9220800399780273">
        <ele>1152.0</ele>
        <time>2018-10-12T10:36:02.000Z</time>
      </trkpt>
      <trkpt lat="30.9581546783447266" lon="-6.9221038818359375">
        <ele>1152.0</ele>
        <time>2018-10-12T10:36:03.000Z</time>
      </trkpt>
      <trkpt lat="30.9581947326660156" lon="-6.9221291542053223">
        <ele>1152.0</ele>
        <time>2018-10-12T10:36:04.000Z</time>
      </trkpt>
      <trkpt lat="30.9582347869873047" lon="-6.9221539497375488">
        <ele>1152.0</ele>
        <time>2018-10-12T10:36:05.000Z</time>
      </trkpt>
      <trkpt lat="30.9582748413085938" lon="-6.9221777915954590">
        <ele>1152.0</ele>
        <time>2018-10-12T10:36:06.000Z</time>
      </trkpt>
      <trkpt lat="30.9583148956298828" lon="-6.9222030639648438">
        <ele>1152.0</ele>
        <time>2018-10-12T10:36:07.000Z</time>
      </trkpt>
      <trkpt lat="30.9583530426025391" lon="-6.9222269058227539">
        <ele>1152.0</ele>
        <time>2018-10-12T10:36:08.000Z</time>
      </trkpt>
      <trkpt lat="30.9583930969238281" lon="-6.9222521781921387">
        <ele>1152.0</ele>
        <time>2018-10-12T10:36:09.000Z</time>
      </trkpt>
      <trkpt lat="30.9584331512451172" lon="-6.9222779273986816">
        <ele>1152.0</ele>
        <time>2018-10-12T10:36:10.000Z</time>
      </trkpt>
      <trkpt lat="30.9584732055664062" lon="-6.9223031997680664">
        <ele>1152.0</ele>
        <time>2018-10-12T10:36:11.000Z</time>
      </trkpt>
      <trkpt lat="30.9585151672363281" lon="-6.9223279953002930">
        <ele>1152.0</ele>
        <time>2018-10-12T10:36:12.000Z</time>
      </trkpt>
      <trkpt lat="30.9585571289062500" lon="-6.9223518371582031">
        <ele>1152.0</ele>
        <time>2018-10-12T10:36:13.000Z</time>
      </trkpt>
      <trkpt lat="30.9586029052734375" lon="-6.9223752021789551">
        <ele>1152.0</ele>
        <time>2018-10-12T10:36:14.000Z</time>
      </trkpt>
      <trkpt lat="30.9586448669433594" lon="-6.9223971366882324">
        <ele>1152.821044921875</ele>
        <time>2018-10-12T10:36:15.000Z</time>
      </trkpt>
      <trkpt lat="30.9586887359619141" lon="-6.9224190711975098">
        <ele>1153.0</ele>
        <time>2018-10-12T10:36:16.000Z</time>
      </trkpt>
      <trkpt lat="30.9587326049804688" lon="-6.9224410057067871">
        <ele>1152.178955078125</ele>
        <time>2018-10-12T10:36:17.000Z</time>
      </trkpt>
      <trkpt lat="30.9587764739990234" lon="-6.9224629402160645">
        <ele>1152.0</ele>
        <time>2018-10-12T10:36:18.000Z</time>
      </trkpt>
      <trkpt lat="30.9588203430175781" lon="-6.9224839210510254">
        <ele>1152.0</ele>
        <time>2018-10-12T10:36:19.000Z</time>
      </trkpt>
      <trkpt lat="30.9588642120361328" lon="-6.9225039482116699">
        <ele>1152.0</ele>
        <time>2018-10-12T10:36:20.000Z</time>
      </trkpt>
      <trkpt lat="30.9589080810546875" lon="-6.9225239753723145">
        <ele>1152.0</ele>
        <time>2018-10-12T10:36:21.000Z</time>
      </trkpt>
      <trkpt lat="30.9589519500732422" lon="-6.9225420951843262">
        <ele>1152.0</ele>
        <time>2018-10-12T10:36:22.000Z</time>
      </trkpt>
      <trkpt lat="30.9589977264404297" lon="-6.9225602149963379">
        <ele>1152.0</ele>
        <time>2018-10-12T10:36:23.000Z</time>
      </trkpt>
      <trkpt lat="30.9590415954589844" lon="-6.9225788116455078">
        <ele>1152.0</ele>
        <time>2018-10-12T10:36:24.000Z</time>
      </trkpt>
      <trkpt lat="30.9590873718261719" lon="-6.9225978851318359">
        <ele>1152.0</ele>
        <time>2018-10-12T10:36:25.000Z</time>
      </trkpt>
      <trkpt lat="30.9591312408447266" lon="-6.9226169586181641">
        <ele>1152.0</ele>
        <time>2018-10-12T10:36:26.000Z</time>
      </trkpt>
      <trkpt lat="30.9591789245605469" lon="-6.9226360321044922">
        <ele>1152.0</ele>
        <time>2018-10-12T10:36:27.000Z</time>
      </trkpt>
      <trkpt lat="30.9592227935791016" lon="-6.9226551055908203">
        <ele>1152.0</ele>
        <time>2018-10-12T10:36:28.000Z</time>
      </trkpt>
      <trkpt lat="30.9592685699462891" lon="-6.9226751327514648">
        <ele>1152.0</ele>
        <time>2018-10-12T10:36:29.000Z</time>
      </trkpt>
      <trkpt lat="30.9593124389648438" lon="-6.9226951599121094">
        <ele>1152.0</ele>
        <time>2018-10-12T10:36:30.000Z</time>
      </trkpt>
      <trkpt lat="30.9593544006347656" lon="-6.9227170944213867">
        <ele>1152.0</ele>
        <time>2018-10-12T10:36:31.000Z</time>
      </trkpt>
      <trkpt lat="30.9593982696533203" lon="-6.9227380752563477">
        <ele>1152.0</ele>
        <time>2018-10-12T10:36:32.000Z</time>
      </trkpt>
      <trkpt lat="30.9594421386718750" lon="-6.9227581024169922">
        <ele>1152.0</ele>
        <time>2018-10-12T10:36:33.000Z</time>
      </trkpt>
      <trkpt lat="30.9594879150390625" lon="-6.9227781295776367">
        <ele>1152.0</ele>
        <time>2018-10-12T10:36:34.000Z</time>
      </trkpt>
      <trkpt lat="30.9595317840576172" lon="-6.9227972030639648">
        <ele>1152.0</ele>
        <time>2018-10-12T10:36:35.000Z</time>
      </trkpt>
      <trkpt lat="30.9595756530761719" lon="-6.9228157997131348">
        <ele>1152.0</ele>
        <time>2018-10-12T10:36:36.000Z</time>
      </trkpt>
      <trkpt lat="30.9596214294433594" lon="-6.9228339195251465">
        <ele>1152.0</ele>
        <time>2018-10-12T10:36:37.000Z</time>
      </trkpt>
      <trkpt lat="30.9596672058105469" lon="-6.9228520393371582">
        <ele>1152.0</ele>
        <time>2018-10-12T10:36:38.000Z</time>
      </trkpt>
      <trkpt lat="30.9597129821777344" lon="-6.9228711128234863">
        <ele>1152.0</ele>
        <time>2018-10-12T10:36:39.000Z</time>
      </trkpt>
      <trkpt lat="30.9597606658935547" lon="-6.9228892326354980">
        <ele>1152.8154296875</ele>
        <time>2018-10-12T10:36:40.000Z</time>
      </trkpt>
      <trkpt lat="30.9598064422607422" lon="-6.9229059219360352">
        <ele>1153.0</ele>
        <time>2018-10-12T10:36:41.000Z</time>
      </trkpt>
      <trkpt lat="30.9598541259765625" lon="-6.9229211807250977">
        <ele>1153.0</ele>
        <time>2018-10-12T10:36:42.000Z</time>
      </trkpt>
      <trkpt lat="30.9599018096923828" lon="-6.9229350090026855">
        <ele>1153.0</ele>
        <time>2018-10-12T10:36:43.000Z</time>
      </trkpt>
      <trkpt lat="30.9599475860595703" lon="-6.9229512214660645">
        <ele>1153.0</ele>
        <time>2018-10-12T10:36:44.000Z</time>
      </trkpt>
      <trkpt lat="30.9599933624267578" lon="-6.9229679107666016">
        <ele>1153.0</ele>
        <time>2018-10-12T10:36:45.000Z</time>
      </trkpt>
      <trkpt lat="30.9600391387939453" lon="-6.9229860305786133">
        <ele>1153.0</ele>
        <time>2018-10-12T10:36:46.000Z</time>
      </trkpt>
      <trkpt lat="30.9600849151611328" lon="-6.9230051040649414">
        <ele>1153.0</ele>
        <time>2018-10-12T10:36:47.000Z</time>
      </trkpt>
      <trkpt lat="30.9601268768310547" lon="-6.9230260848999023">
        <ele>1153.0</ele>
        <time>2018-10-12T10:36:48.000Z</time>
      </trkpt>
      <trkpt lat="30.9601707458496094" lon="-6.9230470657348633">
        <ele>1153.0</ele>
        <time>2018-10-12T10:36:49.000Z</time>
      </trkpt>
      <trkpt lat="30.9602127075195312" lon="-6.9230680465698242">
        <ele>1153.0</ele>
        <time>2018-10-12T10:36:50.000Z</time>
      </trkpt>
      <trkpt lat="30.9602565765380859" lon="-6.9230918884277344">
        <ele>1153.0</ele>
        <time>2018-10-12T10:36:51.000Z</time>
      </trkpt>
      <trkpt lat="30.9603004455566406" lon="-6.9231162071228027">
        <ele>1153.0</ele>
        <time>2018-10-12T10:36:52.000Z</time>
      </trkpt>
      <trkpt lat="30.9603462219238281" lon="-6.9231348037719727">
        <ele>1153.0</ele>
        <time>2018-10-12T10:36:53.000Z</time>
      </trkpt>
      <trkpt lat="30.9603958129882812" lon="-6.9231510162353516">
        <ele>1153.0</ele>
        <time>2018-10-12T10:36:54.000Z</time>
      </trkpt>
      <trkpt lat="30.9604434967041016" lon="-6.9231657981872559">
        <ele>1153.0</ele>
        <time>2018-10-12T10:36:55.000Z</time>
      </trkpt>
      <trkpt lat="30.9604911804199219" lon="-6.9231810569763184">
        <ele>1153.0</ele>
        <time>2018-10-12T10:36:56.000Z</time>
      </trkpt>
      <trkpt lat="30.9605407714843750" lon="-6.9231967926025391">
        <ele>1153.0</ele>
        <time>2018-10-12T10:36:57.000Z</time>
      </trkpt>
      <trkpt lat="30.9605884552001953" lon="-6.9232139587402344">
        <ele>1153.0</ele>
        <time>2018-10-12T10:36:58.000Z</time>
      </trkpt>
      <trkpt lat="30.9606323242187500" lon="-6.9232330322265625">
        <ele>1153.0</ele>
        <time>2018-10-12T10:36:59.000Z</time>
      </trkpt>
      <trkpt lat="30.9606781005859375" lon="-6.9232530593872070">
        <ele>1153.0</ele>
        <time>2018-10-12T10:37:00.000Z</time>
      </trkpt>
      <trkpt lat="30.9607238769531250" lon="-6.9232749938964844">
        <ele>1153.0</ele>
        <time>2018-10-12T10:37:01.000Z</time>
      </trkpt>
      <trkpt lat="30.9607696533203125" lon="-6.9232969284057617">
        <ele>1153.0</ele>
        <time>2018-10-12T10:37:02.000Z</time>
      </trkpt>
      <trkpt lat="30.9608173370361328" lon="-6.9233179092407227">
        <ele>1153.0</ele>
        <time>2018-10-12T10:37:03.000Z</time>
      </trkpt>
      <trkpt lat="30.9608650207519531" lon="-6.9233379364013672">
        <ele>1153.0</ele>
        <time>2018-10-12T10:37:04.000Z</time>
      </trkpt>
      <trkpt lat="30.9609127044677734" lon="-6.9233570098876953">
        <ele>1153.0</ele>
        <time>2018-10-12T10:37:05.000Z</time>
      </trkpt>
      <trkpt lat="30.9609603881835938" lon="-6.9233760833740234">
        <ele>1153.0</ele>
        <time>2018-10-12T10:37:06.000Z</time>
      </trkpt>
      <trkpt lat="30.9610061645507812" lon="-6.9233951568603516">
        <ele>1152.2520751953125</ele>
        <time>2018-10-12T10:37:07.000Z</time>
      </trkpt>
      <trkpt lat="30.9610538482666016" lon="-6.9234170913696289">
        <ele>1152.0</ele>
        <time>2018-10-12T10:37:08.000Z</time>
      </trkpt>
      <trkpt lat="30.9610996246337891" lon="-6.9234399795532227">
        <ele>1152.0</ele>
        <time>2018-10-12T10:37:09.000Z</time>
      </trkpt>
      <trkpt lat="30.9611454010009766" lon="-6.9234647750854492">
        <ele>1152.0</ele>
        <time>2018-10-12T10:37:10.000Z</time>
      </trkpt>
      <trkpt lat="30.9611911773681641" lon="-6.9234900474548340">
        <ele>1152.0</ele>
        <time>2018-10-12T10:37:11.000Z</time>
      </trkpt>
      <trkpt lat="30.9612388610839844" lon="-6.9235138893127441">
        <ele>1152.0</ele>
        <time>2018-10-12T10:37:12.000Z</time>
      </trkpt>
      <trkpt lat="30.9612846374511719" lon="-6.9235358238220215">
        <ele>1152.0</ele>
        <time>2018-10-12T10:37:13.000Z</time>
      </trkpt>
      <trkpt lat="30.9613304138183594" lon="-6.9235558509826660">
        <ele>1152.0</ele>
        <time>2018-10-12T10:37:14.000Z</time>
      </trkpt>
      <trkpt lat="30.9613761901855469" lon="-6.9235739707946777">
        <ele>1152.0</ele>
        <time>2018-10-12T10:37:15.000Z</time>
      </trkpt>
      <trkpt lat="30.9614238739013672" lon="-6.9235911369323730">
        <ele>1152.821044921875</ele>
        <time>2018-10-12T10:37:16.000Z</time>
      </trkpt>
      <trkpt lat="30.9614696502685547" lon="-6.9236059188842773">
        <ele>1153.0</ele>
        <time>2018-10-12T10:37:17.000Z</time>
      </trkpt>
      <trkpt lat="30.9615154266357422" lon="-6.9236221313476562">
        <ele>1153.0</ele>
        <time>2018-10-12T10:37:18.000Z</time>
      </trkpt>
      <trkpt lat="30.9615631103515625" lon="-6.9236388206481934">
        <ele>1153.0</ele>
        <time>2018-10-12T10:37:19.000Z</time>
      </trkpt>
      <trkpt lat="30.9616107940673828" lon="-6.9236569404602051">
        <ele>1153.0</ele>
        <time>2018-10-12T10:37:20.000Z</time>
      </trkpt>
      <trkpt lat="30.9616565704345703" lon="-6.9236769676208496">
        <ele>1153.0</ele>
        <time>2018-10-12T10:37:21.000Z</time>
      </trkpt>
      <trkpt lat="30.9617023468017578" lon="-6.9236979484558105">
        <ele>1153.0</ele>
        <time>2018-10-12T10:37:22.000Z</time>
      </trkpt>
      <trkpt lat="30.9617481231689453" lon="-6.9237198829650879">
        <ele>1153.0</ele>
        <time>2018-10-12T10:37:23.000Z</time>
      </trkpt>
      <trkpt lat="30.9617919921875000" lon="-6.9237427711486816">
        <ele>1153.0</ele>
        <time>2018-10-12T10:37:24.000Z</time>
      </trkpt>
      <trkpt lat="30.9618339538574219" lon="-6.9237651824951172">
        <ele>1153.0</ele>
        <time>2018-10-12T10:37:25.000Z</time>
      </trkpt>
      <trkpt lat="30.9618759155273438" lon="-6.9237871170043945">
        <ele>1153.7479248046875</ele>
        <time>2018-10-12T10:37:26.000Z</time>
      </trkpt>
      <trkpt lat="30.9619178771972656" lon="-6.9238071441650391">
        <ele>1154.0</ele>
        <time>2018-10-12T10:37:27.000Z</time>
      </trkpt>
      <trkpt lat="30.9619617462158203" lon="-6.9238262176513672">
        <ele>1154.0</ele>
        <time>2018-10-12T10:37:28.000Z</time>
      </trkpt>
      <trkpt lat="30.9620075225830078" lon="-6.9238419532775879">
        <ele>1153.178955078125</ele>
        <time>2018-10-12T10:37:29.000Z</time>
      </trkpt>
      <trkpt lat="30.9620552062988281" lon="-6.9238557815551758">
        <ele>1153.0</ele>
        <time>2018-10-12T10:37:30.000Z</time>
      </trkpt>
      <trkpt lat="30.9621047973632812" lon="-6.9238700866699219">
        <ele>1153.0</ele>
        <time>2018-10-12T10:37:31.000Z</time>
      </trkpt>
      <trkpt lat="30.9621505737304688" lon="-6.9238858222961426">
        <ele>1153.0</ele>
        <time>2018-10-12T10:37:32.000Z</time>
      </trkpt>
      <trkpt lat="30.9621963500976562" lon="-6.9239029884338379">
        <ele>1153.0</ele>
        <time>2018-10-12T10:37:33.000Z</time>
      </trkpt>
      <trkpt lat="30.9622402191162109" lon="-6.9239230155944824">
        <ele>1153.0</ele>
        <time>2018-10-12T10:37:34.000Z</time>
      </trkpt>
      <trkpt lat="30.9622840881347656" lon="-6.9239439964294434">
        <ele>1153.0</ele>
        <time>2018-10-12T10:37:35.000Z</time>
      </trkpt>
      <trkpt lat="30.9623279571533203" lon="-6.9239687919616699">
        <ele>1153.0</ele>
        <time>2018-10-12T10:37:36.000Z</time>
      </trkpt>
      <trkpt lat="30.9623718261718750" lon="-6.9239950180053711">
        <ele>1153.0</ele>
        <time>2018-10-12T10:37:37.000Z</time>
      </trkpt>
      <trkpt lat="30.9624176025390625" lon="-6.9240221977233887">
        <ele>1153.0</ele>
        <time>2018-10-12T10:37:38.000Z</time>
      </trkpt>
      <trkpt lat="30.9624614715576172" lon="-6.9240489006042480">
        <ele>1153.0</ele>
        <time>2018-10-12T10:37:39.000Z</time>
      </trkpt>
      <trkpt lat="30.9625072479248047" lon="-6.9240760803222656">
        <ele>1153.0</ele>
        <time>2018-10-12T10:37:40.000Z</time>
      </trkpt>
      <trkpt lat="30.9625549316406250" lon="-6.9241008758544922">
        <ele>1153.804931640625</ele>
        <time>2018-10-12T10:37:41.000Z</time>
      </trkpt>
      <trkpt lat="30.9626007080078125" lon="-6.9241228103637695">
        <ele>1154.0</ele>
        <time>2018-10-12T10:37:42.000Z</time>
      </trkpt>
      <trkpt lat="30.9626464843750000" lon="-6.9241452217102051">
        <ele>1154.0</ele>
        <time>2018-10-12T10:37:43.000Z</time>
      </trkpt>
      <trkpt lat="30.9626941680908203" lon="-6.9241662025451660">
        <ele>1154.0</ele>
        <time>2018-10-12T10:37:44.000Z</time>
      </trkpt>
      <trkpt lat="30.9627437591552734" lon="-6.9241862297058105">
        <ele>1154.0</ele>
        <time>2018-10-12T10:37:45.000Z</time>
      </trkpt>
      <trkpt lat="30.9627895355224609" lon="-6.9242072105407715">
        <ele>1154.0</ele>
        <time>2018-10-12T10:37:46.000Z</time>
      </trkpt>
      <trkpt lat="30.9628372192382812" lon="-6.9242281913757324">
        <ele>1154.0</ele>
        <time>2018-10-12T10:37:47.000Z</time>
      </trkpt>
      <trkpt lat="30.9628868103027344" lon="-6.9242491722106934">
        <ele>1154.0</ele>
        <time>2018-10-12T10:37:48.000Z</time>
      </trkpt>
      <trkpt lat="30.9629325866699219" lon="-6.9242701530456543">
        <ele>1154.0</ele>
        <time>2018-10-12T10:37:49.000Z</time>
      </trkpt>
      <trkpt lat="30.9629783630371094" lon="-6.9242911338806152">
        <ele>1154.0</ele>
        <time>2018-10-12T10:37:50.000Z</time>
      </trkpt>
      <trkpt lat="30.9630241394042969" lon="-6.9243130683898926">
        <ele>1154.0</ele>
        <time>2018-10-12T10:37:51.000Z</time>
      </trkpt>
      <trkpt lat="30.9630718231201172" lon="-6.9243340492248535">
        <ele>1154.0</ele>
        <time>2018-10-12T10:37:52.000Z</time>
      </trkpt>
      <trkpt lat="30.9631175994873047" lon="-6.9243559837341309">
        <ele>1154.0</ele>
        <time>2018-10-12T10:37:53.000Z</time>
      </trkpt>
      <trkpt lat="30.9631614685058594" lon="-6.9243788719177246">
        <ele>1154.0</ele>
        <time>2018-10-12T10:37:54.000Z</time>
      </trkpt>
      <trkpt lat="30.9632072448730469" lon="-6.9244031906127930">
        <ele>1154.0</ele>
        <time>2018-10-12T10:37:55.000Z</time>
      </trkpt>
      <trkpt lat="30.9632511138916016" lon="-6.9244251251220703">
        <ele>1154.7479248046875</ele>
        <time>2018-10-12T10:37:56.000Z</time>
      </trkpt>
      <trkpt lat="30.9632930755615234" lon="-6.9244461059570312">
        <ele>1155.0</ele>
        <time>2018-10-12T10:37:57.000Z</time>
      </trkpt>
      <trkpt lat="30.9633369445800781" lon="-6.9244670867919922">
        <ele>1155.0</ele>
        <time>2018-10-12T10:37:58.000Z</time>
      </trkpt>
      <trkpt lat="30.9633808135986328" lon="-6.9244861602783203">
        <ele>1155.0</ele>
        <time>2018-10-12T10:37:59.000Z</time>
      </trkpt>
      <trkpt lat="30.9634227752685547" lon="-6.9245028495788574">
        <ele>1155.0</ele>
        <time>2018-10-12T10:38:00.000Z</time>
      </trkpt>
      <trkpt lat="30.9634666442871094" lon="-6.9245190620422363">
        <ele>1155.0</ele>
        <time>2018-10-12T10:38:01.000Z</time>
      </trkpt>
      <trkpt lat="30.9635124206542969" lon="-6.9245338439941406">
        <ele>1155.0</ele>
        <time>2018-10-12T10:38:02.000Z</time>
      </trkpt>
      <trkpt lat="30.9635581970214844" lon="-6.9245491027832031">
        <ele>1155.0</ele>
        <time>2018-10-12T10:38:03.000Z</time>
      </trkpt>
      <trkpt lat="30.9636020660400391" lon="-6.9245638847351074">
        <ele>1155.0</ele>
        <time>2018-10-12T10:38:04.000Z</time>
      </trkpt>
      <trkpt lat="30.9636459350585938" lon="-6.9245791435241699">
        <ele>1155.0</ele>
        <time>2018-10-12T10:38:05.000Z</time>
      </trkpt>
      <trkpt lat="30.9636917114257812" lon="-6.9245929718017578">
        <ele>1155.0</ele>
        <time>2018-10-12T10:38:06.000Z</time>
      </trkpt>
      <trkpt lat="30.9637374877929688" lon="-6.9246068000793457">
        <ele>1155.0</ele>
        <time>2018-10-12T10:38:07.000Z</time>
      </trkpt>
      <trkpt lat="30.9637832641601562" lon="-6.9246201515197754">
        <ele>1155.0</ele>
        <time>2018-10-12T10:38:08.000Z</time>
      </trkpt>
      <trkpt lat="30.9638328552246094" lon="-6.9246330261230469">
        <ele>1155.0</ele>
        <time>2018-10-12T10:38:09.000Z</time>
      </trkpt>
      <trkpt lat="30.9638786315917969" lon="-6.9246449470520020">
        <ele>1155.0</ele>
        <time>2018-10-12T10:38:10.000Z</time>
      </trkpt>
      <trkpt lat="30.9639263153076172" lon="-6.9246578216552734">
        <ele>1155.0</ele>
        <time>2018-10-12T10:38:11.000Z</time>
      </trkpt>
      <trkpt lat="30.9639720916748047" lon="-6.9246759414672852">
        <ele>1155.0</ele>
        <time>2018-10-12T10:38:12.000Z</time>
      </trkpt>
      <trkpt lat="30.9640178680419922" lon="-6.9246969223022461">
        <ele>1155.0</ele>
        <time>2018-10-12T10:38:13.000Z</time>
      </trkpt>
      <trkpt lat="30.9640617370605469" lon="-6.9247169494628906">
        <ele>1155.0</ele>
        <time>2018-10-12T10:38:14.000Z</time>
      </trkpt>
      <trkpt lat="30.9641094207763672" lon="-6.9247341156005859">
        <ele>1155.0</ele>
        <time>2018-10-12T10:38:15.000Z</time>
      </trkpt>
      <trkpt lat="30.9641551971435547" lon="-6.9247479438781738">
        <ele>1155.0</ele>
        <time>2018-10-12T10:38:16.000Z</time>
      </trkpt>
      <trkpt lat="30.9642047882080078" lon="-6.9247579574584961">
        <ele>1155.0</ele>
        <time>2018-10-12T10:38:17.000Z</time>
      </trkpt>
      <trkpt lat="30.9642505645751953" lon="-6.9247670173645020">
        <ele>1155.0</ele>
        <time>2018-10-12T10:38:18.000Z</time>
      </trkpt>
      <trkpt lat="30.9642982482910156" lon="-6.9247770309448242">
        <ele>1155.0</ele>
        <time>2018-10-12T10:38:19.000Z</time>
      </trkpt>
      <trkpt lat="30.9643440246582031" lon="-6.9247889518737793">
        <ele>1155.0</ele>
        <time>2018-10-12T10:38:20.000Z</time>
      </trkpt>
      <trkpt lat="30.9643898010253906" lon="-6.9247999191284180">
        <ele>1155.0</ele>
        <time>2018-10-12T10:38:21.000Z</time>
      </trkpt>
      <trkpt lat="30.9644336700439453" lon="-6.9248108863830566">
        <ele>1155.0</ele>
        <time>2018-10-12T10:38:22.000Z</time>
      </trkpt>
      <trkpt lat="30.9644794464111328" lon="-6.9248208999633789">
        <ele>1155.0</ele>
        <time>2018-10-12T10:38:23.000Z</time>
      </trkpt>
      <trkpt lat="30.9645271301269531" lon="-6.9248290061950684">
        <ele>1155.0</ele>
        <time>2018-10-12T10:38:24.000Z</time>
      </trkpt>
      <trkpt lat="30.9645748138427734" lon="-6.9248371124267578">
        <ele>1155.0</ele>
        <time>2018-10-12T10:38:25.000Z</time>
      </trkpt>
      <trkpt lat="30.9646224975585938" lon="-6.9248437881469727">
        <ele>1155.0</ele>
        <time>2018-10-12T10:38:26.000Z</time>
      </trkpt>
      <trkpt lat="30.9646663665771484" lon="-6.9248499870300293">
        <ele>1155.0</ele>
        <time>2018-10-12T10:38:27.000Z</time>
      </trkpt>
      <trkpt lat="30.9647083282470703" lon="-6.9248552322387695">
        <ele>1155.0</ele>
        <time>2018-10-12T10:38:28.000Z</time>
      </trkpt>
      <trkpt lat="30.9647521972656250" lon="-6.9248590469360352">
        <ele>1155.0</ele>
        <time>2018-10-12T10:38:29.000Z</time>
      </trkpt>
      <trkpt lat="30.9647960662841797" lon="-6.9248638153076172">
        <ele>1155.0</ele>
        <time>2018-10-12T10:38:30.000Z</time>
      </trkpt>
      <trkpt lat="30.9648437500000000" lon="-6.9248671531677246">
        <ele>1155.0</ele>
        <time>2018-10-12T10:38:31.000Z</time>
      </trkpt>
      <trkpt lat="30.9648914337158203" lon="-6.9248700141906738">
        <ele>1155.821044921875</ele>
        <time>2018-10-12T10:38:32.000Z</time>
      </trkpt>
      <trkpt lat="30.9649353027343750" lon="-6.9248738288879395">
        <ele>1156.0</ele>
        <time>2018-10-12T10:38:33.000Z</time>
      </trkpt>
      <trkpt lat="30.9649791717529297" lon="-6.9248809814453125">
        <ele>1156.0</ele>
        <time>2018-10-12T10:38:34.000Z</time>
      </trkpt>
      <trkpt lat="30.9650211334228516" lon="-6.9248890876770020">
        <ele>1156.0</ele>
        <time>2018-10-12T10:38:35.000Z</time>
      </trkpt>
      <trkpt lat="30.9650650024414062" lon="-6.9249000549316406">
        <ele>1156.0</ele>
        <time>2018-10-12T10:38:36.000Z</time>
      </trkpt>
      <trkpt lat="30.9651088714599609" lon="-6.9249148368835449">
        <ele>1156.0</ele>
        <time>2018-10-12T10:38:37.000Z</time>
      </trkpt>
      <trkpt lat="30.9651508331298828" lon="-6.9249310493469238">
        <ele>1156.0</ele>
        <time>2018-10-12T10:38:38.000Z</time>
      </trkpt>
      <trkpt lat="30.9651927947998047" lon="-6.9249482154846191">
        <ele>1156.0</ele>
        <time>2018-10-12T10:38:39.000Z</time>
      </trkpt>
      <trkpt lat="30.9652366638183594" lon="-6.9249658584594727">
        <ele>1156.0</ele>
        <time>2018-10-12T10:38:40.000Z</time>
      </trkpt>
      <trkpt lat="30.9652805328369141" lon="-6.9249858856201172">
        <ele>1156.0</ele>
        <time>2018-10-12T10:38:41.000Z</time>
      </trkpt>
      <trkpt lat="30.9653263092041016" lon="-6.9250059127807617">
        <ele>1156.0</ele>
        <time>2018-10-12T10:38:42.000Z</time>
      </trkpt>
      <trkpt lat="30.9653720855712891" lon="-6.9250259399414062">
        <ele>1156.0</ele>
        <time>2018-10-12T10:38:43.000Z</time>
      </trkpt>
      <trkpt lat="30.9654178619384766" lon="-6.9250469207763672">
        <ele>1156.0</ele>
        <time>2018-10-12T10:38:44.000Z</time>
      </trkpt>
      <trkpt lat="30.9654636383056641" lon="-6.9250669479370117">
        <ele>1156.0</ele>
        <time>2018-10-12T10:38:45.000Z</time>
      </trkpt>
      <trkpt lat="30.9655094146728516" lon="-6.9250860214233398">
        <ele>1156.0</ele>
        <time>2018-10-12T10:38:46.000Z</time>
      </trkpt>
      <trkpt lat="30.9655532836914062" lon="-6.9251050949096680">
        <ele>1156.0</ele>
        <time>2018-10-12T10:38:47.000Z</time>
      </trkpt>
      <trkpt lat="30.9655971527099609" lon="-6.9251241683959961">
        <ele>1156.0</ele>
        <time>2018-10-12T10:38:48.000Z</time>
      </trkpt>
      <trkpt lat="30.9656429290771484" lon="-6.9251427650451660">
        <ele>1156.0</ele>
        <time>2018-10-12T10:38:49.000Z</time>
      </trkpt>
      <trkpt lat="30.9656867980957031" lon="-6.9251618385314941">
        <ele>1156.0</ele>
        <time>2018-10-12T10:38:50.000Z</time>
      </trkpt>
      <trkpt lat="30.9657325744628906" lon="-6.9251799583435059">
        <ele>1156.0</ele>
        <time>2018-10-12T10:38:51.000Z</time>
      </trkpt>
      <trkpt lat="30.9657802581787109" lon="-6.9251980781555176">
        <ele>1156.0</ele>
        <time>2018-10-12T10:38:52.000Z</time>
      </trkpt>
      <trkpt lat="30.9658279418945312" lon="-6.9252147674560547">
        <ele>1156.0</ele>
        <time>2018-10-12T10:38:53.000Z</time>
      </trkpt>
      <trkpt lat="30.9658756256103516" lon="-6.9252319335937500">
        <ele>1156.0</ele>
        <time>2018-10-12T10:38:54.000Z</time>
      </trkpt>
      <trkpt lat="30.9659233093261719" lon="-6.9252529144287109">
        <ele>1156.0</ele>
        <time>2018-10-12T10:38:55.000Z</time>
      </trkpt>
      <trkpt lat="30.9659690856933594" lon="-6.9252781867980957">
        <ele>1156.0</ele>
        <time>2018-10-12T10:38:56.000Z</time>
      </trkpt>
      <trkpt lat="30.9660148620605469" lon="-6.9253029823303223">
        <ele>1156.0</ele>
        <time>2018-10-12T10:38:57.000Z</time>
      </trkpt>
      <trkpt lat="30.9660606384277344" lon="-6.9253277778625488">
        <ele>1156.0</ele>
        <time>2018-10-12T10:38:58.000Z</time>
      </trkpt>
      <trkpt lat="30.9661064147949219" lon="-6.9253501892089844">
        <ele>1156.0</ele>
        <time>2018-10-12T10:38:59.000Z</time>
      </trkpt>
      <trkpt lat="30.9661502838134766" lon="-6.9253711700439453">
        <ele>1156.0</ele>
        <time>2018-10-12T10:39:00.000Z</time>
      </trkpt>
      <trkpt lat="30.9661941528320312" lon="-6.9253911972045898">
        <ele>1156.0</ele>
        <time>2018-10-12T10:39:01.000Z</time>
      </trkpt>
      <trkpt lat="30.9662361145019531" lon="-6.9254097938537598">
        <ele>1156.0</ele>
        <time>2018-10-12T10:39:02.000Z</time>
      </trkpt>
      <trkpt lat="30.9662780761718750" lon="-6.9254288673400879">
        <ele>1156.0</ele>
        <time>2018-10-12T10:39:03.000Z</time>
      </trkpt>
      <trkpt lat="30.9663238525390625" lon="-6.9254479408264160">
        <ele>1156.821044921875</ele>
        <time>2018-10-12T10:39:04.000Z</time>
      </trkpt>
      <trkpt lat="30.9663696289062500" lon="-6.9254651069641113">
        <ele>1157.0</ele>
        <time>2018-10-12T10:39:05.000Z</time>
      </trkpt>
      <trkpt lat="30.9664154052734375" lon="-6.9254832267761230">
        <ele>1157.0</ele>
        <time>2018-10-12T10:39:06.000Z</time>
      </trkpt>
      <trkpt lat="30.9664630889892578" lon="-6.9255008697509766">
        <ele>1157.0</ele>
        <time>2018-10-12T10:39:07.000Z</time>
      </trkpt>
      <trkpt lat="30.9665107727050781" lon="-6.9255199432373047">
        <ele>1157.0</ele>
        <time>2018-10-12T10:39:08.000Z</time>
      </trkpt>
      <trkpt lat="30.9665584564208984" lon="-6.9255380630493164">
        <ele>1157.0</ele>
        <time>2018-10-12T10:39:09.000Z</time>
      </trkpt>
      <trkpt lat="30.9666061401367188" lon="-6.9255561828613281">
        <ele>1157.0</ele>
        <time>2018-10-12T10:39:10.000Z</time>
      </trkpt>
      <trkpt lat="30.9666576385498047" lon="-6.9255719184875488">
        <ele>1157.0</ele>
        <time>2018-10-12T10:39:11.000Z</time>
      </trkpt>
      <trkpt lat="30.9667072296142578" lon="-6.9255890846252441">
        <ele>1157.0</ele>
        <time>2018-10-12T10:39:12.000Z</time>
      </trkpt>
      <trkpt lat="30.9667568206787109" lon="-6.9256048202514648">
        <ele>1157.0</ele>
        <time>2018-10-12T10:39:13.000Z</time>
      </trkpt>
      <trkpt lat="30.9668045043945312" lon="-6.9256210327148438">
        <ele>1157.0</ele>
        <time>2018-10-12T10:39:14.000Z</time>
      </trkpt>
      <trkpt lat="30.9668521881103516" lon="-6.9256391525268555">
        <ele>1157.0</ele>
        <time>2018-10-12T10:39:15.000Z</time>
      </trkpt>
      <trkpt lat="30.9668998718261719" lon="-6.9256567955017090">
        <ele>1157.0</ele>
        <time>2018-10-12T10:39:16.000Z</time>
      </trkpt>
      <trkpt lat="30.9669475555419922" lon="-6.9256768226623535">
        <ele>1157.0</ele>
        <time>2018-10-12T10:39:17.000Z</time>
      </trkpt>
      <trkpt lat="30.9669933319091797" lon="-6.9256978034973145">
        <ele>1157.0</ele>
        <time>2018-10-12T10:39:18.000Z</time>
      </trkpt>
      <trkpt lat="30.9670391082763672" lon="-6.9257202148437500">
        <ele>1157.0</ele>
        <time>2018-10-12T10:39:19.000Z</time>
      </trkpt>
      <trkpt lat="30.9670867919921875" lon="-6.9257440567016602">
        <ele>1157.0</ele>
        <time>2018-10-12T10:39:20.000Z</time>
      </trkpt>
      <trkpt lat="30.9671325683593750" lon="-6.9257678985595703">
        <ele>1157.0</ele>
        <time>2018-10-12T10:39:21.000Z</time>
      </trkpt>
      <trkpt lat="30.9671783447265625" lon="-6.9257922172546387">
        <ele>1157.0</ele>
        <time>2018-10-12T10:39:22.000Z</time>
      </trkpt>
      <trkpt lat="30.9672241210937500" lon="-6.9258170127868652">
        <ele>1157.0</ele>
        <time>2018-10-12T10:39:23.000Z</time>
      </trkpt>
      <trkpt lat="30.9672698974609375" lon="-6.9258451461791992">
        <ele>1157.0</ele>
        <time>2018-10-12T10:39:24.000Z</time>
      </trkpt>
      <trkpt lat="30.9673137664794922" lon="-6.9258751869201660">
        <ele>1157.0</ele>
        <time>2018-10-12T10:39:25.000Z</time>
      </trkpt>
      <trkpt lat="30.9673576354980469" lon="-6.9259061813354492">
        <ele>1157.0</ele>
        <time>2018-10-12T10:39:26.000Z</time>
      </trkpt>
      <trkpt lat="30.9674015045166016" lon="-6.9259362220764160">
        <ele>1157.0</ele>
        <time>2018-10-12T10:39:27.000Z</time>
      </trkpt>
      <trkpt lat="30.9674453735351562" lon="-6.9259681701660156">
        <ele>1157.0</ele>
        <time>2018-10-12T10:39:28.000Z</time>
      </trkpt>
      <trkpt lat="30.9674873352050781" lon="-6.9260001182556152">
        <ele>1157.0</ele>
        <time>2018-10-12T10:39:29.000Z</time>
      </trkpt>
      <trkpt lat="30.9675292968750000" lon="-6.9260330200195312">
        <ele>1157.0</ele>
        <time>2018-10-12T10:39:30.000Z</time>
      </trkpt>
      <trkpt lat="30.9675712585449219" lon="-6.9260649681091309">
        <ele>1157.0</ele>
        <time>2018-10-12T10:39:31.000Z</time>
      </trkpt>
      <trkpt lat="30.9676151275634766" lon="-6.9260950088500977">
        <ele>1157.0</ele>
        <time>2018-10-12T10:39:32.000Z</time>
      </trkpt>
      <trkpt lat="30.9676589965820312" lon="-6.9261250495910645">
        <ele>1157.821044921875</ele>
        <time>2018-10-12T10:39:33.000Z</time>
      </trkpt>
      <trkpt lat="30.9677028656005859" lon="-6.9261531829833984">
        <ele>1158.0</ele>
        <time>2018-10-12T10:39:34.000Z</time>
      </trkpt>
      <trkpt lat="30.9677486419677734" lon="-6.9261789321899414">
        <ele>1158.0</ele>
        <time>2018-10-12T10:39:35.000Z</time>
      </trkpt>
      <trkpt lat="30.9677944183349609" lon="-6.9262008666992188">
        <ele>1158.0</ele>
        <time>2018-10-12T10:39:36.000Z</time>
      </trkpt>
      <trkpt lat="30.9678421020507812" lon="-6.9262189865112305">
        <ele>1158.0</ele>
        <time>2018-10-12T10:39:37.000Z</time>
      </trkpt>
      <trkpt lat="30.9678936004638672" lon="-6.9262309074401855">
        <ele>1158.0</ele>
        <time>2018-10-12T10:39:38.000Z</time>
      </trkpt>
      <trkpt lat="30.9679450988769531" lon="-6.9262390136718750">
        <ele>1158.0</ele>
        <time>2018-10-12T10:39:39.000Z</time>
      </trkpt>
      <trkpt lat="30.9679965972900391" lon="-6.9262471199035645">
        <ele>1158.0</ele>
        <time>2018-10-12T10:39:40.000Z</time>
      </trkpt>
      <trkpt lat="30.9680480957031250" lon="-6.9262561798095703">
        <ele>1158.0</ele>
        <time>2018-10-12T10:39:41.000Z</time>
      </trkpt>
      <trkpt lat="30.9681015014648438" lon="-6.9262700080871582">
        <ele>1158.0</ele>
        <time>2018-10-12T10:39:42.000Z</time>
      </trkpt>
      <trkpt lat="30.9681510925292969" lon="-6.9262881278991699">
        <ele>1158.0</ele>
        <time>2018-10-12T10:39:43.000Z</time>
      </trkpt>
      <trkpt lat="30.9682025909423828" lon="-6.9263081550598145">
        <ele>1158.0</ele>
        <time>2018-10-12T10:39:44.000Z</time>
      </trkpt>
      <trkpt lat="30.9682521820068359" lon="-6.9263300895690918">
        <ele>1158.0</ele>
        <time>2018-10-12T10:39:45.000Z</time>
      </trkpt>
      <trkpt lat="30.9683036804199219" lon="-6.9263539314270020">
        <ele>1158.0</ele>
        <time>2018-10-12T10:39:46.000Z</time>
      </trkpt>
      <trkpt lat="30.9683513641357422" lon="-6.9263801574707031">
        <ele>1158.0</ele>
        <time>2018-10-12T10:39:47.000Z</time>
      </trkpt>
      <trkpt lat="30.9684009552001953" lon="-6.9264068603515625">
        <ele>1158.0</ele>
        <time>2018-10-12T10:39:48.000Z</time>
      </trkpt>
      <trkpt lat="30.9684505462646484" lon="-6.9264349937438965">
        <ele>1158.0</ele>
        <time>2018-10-12T10:39:49.000Z</time>
      </trkpt>
      <trkpt lat="30.9685020446777344" lon="-6.9264588356018066">
        <ele>1158.0</ele>
        <time>2018-10-12T10:39:50.000Z</time>
      </trkpt>
      <trkpt lat="30.9685535430908203" lon="-6.9264798164367676">
        <ele>1158.0</ele>
        <time>2018-10-12T10:39:51.000Z</time>
      </trkpt>
      <trkpt lat="30.9686069488525391" lon="-6.9264969825744629">
        <ele>1158.0</ele>
        <time>2018-10-12T10:39:52.000Z</time>
      </trkpt>
      <trkpt lat="30.9686584472656250" lon="-6.9265098571777344">
        <ele>1158.0</ele>
        <time>2018-10-12T10:39:53.000Z</time>
      </trkpt>
      <trkpt lat="30.9687099456787109" lon="-6.9265217781066895">
        <ele>1158.0</ele>
        <time>2018-10-12T10:39:54.000Z</time>
      </trkpt>
      <trkpt lat="30.9687595367431641" lon="-6.9265351295471191">
        <ele>1158.0</ele>
        <time>2018-10-12T10:39:55.000Z</time>
      </trkpt>
      <trkpt lat="30.9688091278076172" lon="-6.9265460968017578">
        <ele>1158.0</ele>
        <time>2018-10-12T10:39:56.000Z</time>
      </trkpt>
      <trkpt lat="30.9688606262207031" lon="-6.9265561103820801">
        <ele>1158.5130615234375</ele>
        <time>2018-10-12T10:39:57.000Z</time>
      </trkpt>
      <trkpt lat="30.9689102172851562" lon="-6.9265642166137695">
        <ele>1159.0</ele>
        <time>2018-10-12T10:39:58.000Z</time>
      </trkpt>
      <trkpt lat="30.9689636230468750" lon="-6.9265699386596680">
        <ele>1159.0</ele>
        <time>2018-10-12T10:39:59.000Z</time>
      </trkpt>
      <trkpt lat="30.9690151214599609" lon="-6.9265742301940918">
        <ele>1159.0</ele>
        <time>2018-10-12T10:40:00.000Z</time>
      </trkpt>
      <trkpt lat="30.9690685272216797" lon="-6.9265751838684082">
        <ele>1159.0</ele>
        <time>2018-10-12T10:40:01.000Z</time>
      </trkpt>
      <trkpt lat="30.9691238403320312" lon="-6.9265751838684082">
        <ele>1159.0</ele>
        <time>2018-10-12T10:40:02.000Z</time>
      </trkpt>
      <trkpt lat="30.9691772460937500" lon="-6.9265789985656738">
        <ele>1159.0</ele>
        <time>2018-10-12T10:40:03.000Z</time>
      </trkpt>
      <trkpt lat="30.9692287445068359" lon="-6.9265871047973633">
        <ele>1159.0</ele>
        <time>2018-10-12T10:40:04.000Z</time>
      </trkpt>
      <trkpt lat="30.9692783355712891" lon="-6.9265971183776855">
        <ele>1159.0</ele>
        <time>2018-10-12T10:40:05.000Z</time>
      </trkpt>
      <trkpt lat="30.9693298339843750" lon="-6.9266090393066406">
        <ele>1159.0</ele>
        <time>2018-10-12T10:40:06.000Z</time>
      </trkpt>
      <trkpt lat="30.9693794250488281" lon="-6.9266238212585449">
        <ele>1159.0</ele>
        <time>2018-10-12T10:40:07.000Z</time>
      </trkpt>
      <trkpt lat="30.9694309234619141" lon="-6.9266419410705566">
        <ele>1159.0</ele>
        <time>2018-10-12T10:40:08.000Z</time>
      </trkpt>
      <trkpt lat="30.9694786071777344" lon="-6.9266619682312012">
        <ele>1159.0</ele>
        <time>2018-10-12T10:40:09.000Z</time>
      </trkpt>
      <trkpt lat="30.9695262908935547" lon="-6.9266848564147949">
        <ele>1159.0</ele>
        <time>2018-10-12T10:40:10.000Z</time>
      </trkpt>
      <trkpt lat="30.9695720672607422" lon="-6.9267101287841797">
        <ele>1159.0</ele>
        <time>2018-10-12T10:40:11.000Z</time>
      </trkpt>
      <trkpt lat="30.9696197509765625" lon="-6.9267358779907227">
        <ele>1159.0</ele>
        <time>2018-10-12T10:40:12.000Z</time>
      </trkpt>
      <trkpt lat="30.9696655273437500" lon="-6.9267621040344238">
        <ele>1159.0</ele>
        <time>2018-10-12T10:40:13.000Z</time>
      </trkpt>
      <trkpt lat="30.9697113037109375" lon="-6.9267878532409668">
        <ele>1159.0</ele>
        <time>2018-10-12T10:40:14.000Z</time>
      </trkpt>
      <trkpt lat="30.9697570800781250" lon="-6.9268131256103516">
        <ele>1159.0</ele>
        <time>2018-10-12T10:40:15.000Z</time>
      </trkpt>
      <trkpt lat="30.9698047637939453" lon="-6.9268379211425781">
        <ele>1159.5130615234375</ele>
        <time>2018-10-12T10:40:16.000Z</time>
      </trkpt>
      <trkpt lat="30.9698524475097656" lon="-6.9268617630004883">
        <ele>1160.0</ele>
        <time>2018-10-12T10:40:17.000Z</time>
      </trkpt>
      <trkpt lat="30.9699001312255859" lon="-6.9268808364868164">
        <ele>1160.0</ele>
        <time>2018-10-12T10:40:18.000Z</time>
      </trkpt>
      <trkpt lat="30.9699497222900391" lon="-6.9268970489501953">
        <ele>1160.0</ele>
        <time>2018-10-12T10:40:19.000Z</time>
      </trkpt>
      <trkpt lat="30.9699993133544922" lon="-6.9269127845764160">
        <ele>1159.178955078125</ele>
        <time>2018-10-12T10:40:20.000Z</time>
      </trkpt>
      <trkpt lat="30.9700508117675781" lon="-6.9269289970397949">
        <ele>1159.0</ele>
        <time>2018-10-12T10:40:21.000Z</time>
      </trkpt>
      <trkpt lat="30.9701004028320312" lon="-6.9269452095031738">
        <ele>1159.0</ele>
        <time>2018-10-12T10:40:22.000Z</time>
      </trkpt>
      <trkpt lat="30.9701519012451172" lon="-6.9269609451293945">
        <ele>1159.0</ele>
        <time>2018-10-12T10:40:23.000Z</time>
      </trkpt>
      <trkpt lat="30.9702033996582031" lon="-6.9269781112670898">
        <ele>1159.8128662109375</ele>
        <time>2018-10-12T10:40:24.000Z</time>
      </trkpt>
      <trkpt lat="30.9702548980712891" lon="-6.9269938468933105">
        <ele>1160.0</ele>
        <time>2018-10-12T10:40:25.000Z</time>
      </trkpt>
      <trkpt lat="30.9703044891357422" lon="-6.9270110130310059">
        <ele>1160.0</ele>
        <time>2018-10-12T10:40:26.000Z</time>
      </trkpt>
      <trkpt lat="30.9703540802001953" lon="-6.9270291328430176">
        <ele>1159.178955078125</ele>
        <time>2018-10-12T10:40:27.000Z</time>
      </trkpt>
      <trkpt lat="30.9704055786132812" lon="-6.9270482063293457">
        <ele>1159.0</ele>
        <time>2018-10-12T10:40:28.000Z</time>
      </trkpt>
      <trkpt lat="30.9704551696777344" lon="-6.9270668029785156">
        <ele>1159.0</ele>
        <time>2018-10-12T10:40:29.000Z</time>
      </trkpt>
      <trkpt lat="30.9705066680908203" lon="-6.9270868301391602">
        <ele>1159.821044921875</ele>
        <time>2018-10-12T10:40:30.000Z</time>
      </trkpt>
      <trkpt lat="30.9705562591552734" lon="-6.9271078109741211">
        <ele>1160.0</ele>
        <time>2018-10-12T10:40:31.000Z</time>
      </trkpt>
      <trkpt lat="30.9706077575683594" lon="-6.9271302223205566">
        <ele>1160.0</ele>
        <time>2018-10-12T10:40:32.000Z</time>
      </trkpt>
      <trkpt lat="30.9706592559814453" lon="-6.9271497726440430">
        <ele>1160.0</ele>
        <time>2018-10-12T10:40:33.000Z</time>
      </trkpt>
      <trkpt lat="30.9707107543945312" lon="-6.9271688461303711">
        <ele>1160.0</ele>
        <time>2018-10-12T10:40:34.000Z</time>
      </trkpt>
      <trkpt lat="30.9707622528076172" lon="-6.9271869659423828">
        <ele>1160.0</ele>
        <time>2018-10-12T10:40:35.000Z</time>
      </trkpt>
      <trkpt lat="30.9708156585693359" lon="-6.9272060394287109">
        <ele>1160.0</ele>
        <time>2018-10-12T10:40:36.000Z</time>
      </trkpt>
      <trkpt lat="30.9708671569824219" lon="-6.9272241592407227">
        <ele>1160.0</ele>
        <time>2018-10-12T10:40:37.000Z</time>
      </trkpt>
      <trkpt lat="30.9709186553955078" lon="-6.9272432327270508">
        <ele>1160.0</ele>
        <time>2018-10-12T10:40:38.000Z</time>
      </trkpt>
      <trkpt lat="30.9709720611572266" lon="-6.9272599220275879">
        <ele>1159.178955078125</ele>
        <time>2018-10-12T10:40:39.000Z</time>
      </trkpt>
      <trkpt lat="30.9710235595703125" lon="-6.9272751808166504">
        <ele>1159.0</ele>
        <time>2018-10-12T10:40:40.000Z</time>
      </trkpt>
      <trkpt lat="30.9710769653320312" lon="-6.9272899627685547">
        <ele>1159.821044921875</ele>
        <time>2018-10-12T10:40:41.000Z</time>
      </trkpt>
      <trkpt lat="30.9711284637451172" lon="-6.9273037910461426">
        <ele>1160.0</ele>
        <time>2018-10-12T10:40:42.000Z</time>
      </trkpt>
      <trkpt lat="30.9711780548095703" lon="-6.9273180961608887">
        <ele>1160.0</ele>
        <time>2018-10-12T10:40:43.000Z</time>
      </trkpt>
      <trkpt lat="30.9712295532226562" lon="-6.9273300170898438">
        <ele>1160.0</ele>
        <time>2018-10-12T10:40:44.000Z</time>
      </trkpt>
      <trkpt lat="30.9712791442871094" lon="-6.9273409843444824">
        <ele>1160.0</ele>
        <time>2018-10-12T10:40:45.000Z</time>
      </trkpt>
      <trkpt lat="30.9713249206542969" lon="-6.9273548126220703">
        <ele>1160.0</ele>
        <time>2018-10-12T10:40:46.000Z</time>
      </trkpt>
      <trkpt lat="30.9713726043701172" lon="-6.9273700714111328">
        <ele>1160.0</ele>
        <time>2018-10-12T10:40:47.000Z</time>
      </trkpt>
      <trkpt lat="30.9714202880859375" lon="-6.9273881912231445">
        <ele>1160.0</ele>
        <time>2018-10-12T10:40:48.000Z</time>
      </trkpt>
      <trkpt lat="30.9714698791503906" lon="-6.9274091720581055">
        <ele>1160.0</ele>
        <time>2018-10-12T10:40:49.000Z</time>
      </trkpt>
      <trkpt lat="30.9715175628662109" lon="-6.9274311065673828">
        <ele>1160.0</ele>
        <time>2018-10-12T10:40:50.000Z</time>
      </trkpt>
      <trkpt lat="30.9715652465820312" lon="-6.9274539947509766">
        <ele>1160.0</ele>
        <time>2018-10-12T10:40:51.000Z</time>
      </trkpt>
      <trkpt lat="30.9716129302978516" lon="-6.9274768829345703">
        <ele>1160.0</ele>
        <time>2018-10-12T10:40:52.000Z</time>
      </trkpt>
      <trkpt lat="30.9716587066650391" lon="-6.9275012016296387">
        <ele>1160.0</ele>
        <time>2018-10-12T10:40:53.000Z</time>
      </trkpt>
      <trkpt lat="30.9717044830322266" lon="-6.9275259971618652">
        <ele>1160.0</ele>
        <time>2018-10-12T10:40:54.000Z</time>
      </trkpt>
      <trkpt lat="30.9717502593994141" lon="-6.9275498390197754">
        <ele>1160.0</ele>
        <time>2018-10-12T10:40:55.000Z</time>
      </trkpt>
      <trkpt lat="30.9717979431152344" lon="-6.9275732040405273">
        <ele>1160.0</ele>
        <time>2018-10-12T10:40:56.000Z</time>
      </trkpt>
      <trkpt lat="30.9718437194824219" lon="-6.9275960922241211">
        <ele>1160.0</ele>
        <time>2018-10-12T10:40:57.000Z</time>
      </trkpt>
      <trkpt lat="30.9718875885009766" lon="-6.9276170730590820">
        <ele>1160.0</ele>
        <time>2018-10-12T10:40:58.000Z</time>
      </trkpt>
      <trkpt lat="30.9719333648681641" lon="-6.9276361465454102">
        <ele>1160.0</ele>
        <time>2018-10-12T10:40:59.000Z</time>
      </trkpt>
      <trkpt lat="30.9719772338867188" lon="-6.9276518821716309">
        <ele>1160.0</ele>
        <time>2018-10-12T10:41:00.000Z</time>
      </trkpt>
      <trkpt lat="30.9720230102539062" lon="-6.9276690483093262">
        <ele>1160.0</ele>
        <time>2018-10-12T10:41:01.000Z</time>
      </trkpt>
      <trkpt lat="30.9720706939697266" lon="-6.9276847839355469">
        <ele>1160.0</ele>
        <time>2018-10-12T10:41:02.000Z</time>
      </trkpt>
      <trkpt lat="30.9721183776855469" lon="-6.9276990890502930">
        <ele>1160.821044921875</ele>
        <time>2018-10-12T10:41:03.000Z</time>
      </trkpt>
      <trkpt lat="30.9721679687500000" lon="-6.9277148246765137">
        <ele>1161.0</ele>
        <time>2018-10-12T10:41:04.000Z</time>
      </trkpt>
      <trkpt lat="30.9722156524658203" lon="-6.9277329444885254">
        <ele>1161.0</ele>
        <time>2018-10-12T10:41:05.000Z</time>
      </trkpt>
      <trkpt lat="30.9722614288330078" lon="-6.9277520179748535">
        <ele>1161.0</ele>
        <time>2018-10-12T10:41:06.000Z</time>
      </trkpt>
      <trkpt lat="30.9723072052001953" lon="-6.9277729988098145">
        <ele>1161.0</ele>
        <time>2018-10-12T10:41:07.000Z</time>
      </trkpt>
      <trkpt lat="30.9723510742187500" lon="-6.9277939796447754">
        <ele>1161.0</ele>
        <time>2018-10-12T10:41:08.000Z</time>
      </trkpt>
      <trkpt lat="30.9723987579345703" lon="-6.9278140068054199">
        <ele>1161.0</ele>
        <time>2018-10-12T10:41:09.000Z</time>
      </trkpt>
      <trkpt lat="30.9724464416503906" lon="-6.9278349876403809">
        <ele>1161.0</ele>
        <time>2018-10-12T10:41:10.000Z</time>
      </trkpt>
      <trkpt lat="30.9724998474121094" lon="-6.9278569221496582">
        <ele>1161.0</ele>
        <time>2018-10-12T10:41:11.000Z</time>
      </trkpt>
      <trkpt lat="30.9725532531738281" lon="-6.9278769493103027">
        <ele>1161.821044921875</ele>
        <time>2018-10-12T10:41:12.000Z</time>
      </trkpt>
      <trkpt lat="30.9726104736328125" lon="-6.9278941154479980">
        <ele>1162.0</ele>
        <time>2018-10-12T10:41:13.000Z</time>
      </trkpt>
      <trkpt lat="30.9726676940917969" lon="-6.9279088973999023">
        <ele>1162.0</ele>
        <time>2018-10-12T10:41:14.000Z</time>
      </trkpt>
      <trkpt lat="30.9727249145507812" lon="-6.9279251098632812">
        <ele>1162.0</ele>
        <time>2018-10-12T10:41:15.000Z</time>
      </trkpt>
      <trkpt lat="30.9727802276611328" lon="-6.9279441833496094">
        <ele>1162.0</ele>
        <time>2018-10-12T10:41:16.000Z</time>
      </trkpt>
      <trkpt lat="30.9728374481201172" lon="-6.9279627799987793">
        <ele>1162.0</ele>
        <time>2018-10-12T10:41:17.000Z</time>
      </trkpt>
      <trkpt lat="30.9728965759277344" lon="-6.9279808998107910">
        <ele>1162.0</ele>
        <time>2018-10-12T10:41:18.000Z</time>
      </trkpt>
      <trkpt lat="30.9729537963867188" lon="-6.9280009269714355">
        <ele>1162.0</ele>
        <time>2018-10-12T10:41:19.000Z</time>
      </trkpt>
      <trkpt lat="30.9730129241943359" lon="-6.9280228614807129">
        <ele>1162.0</ele>
        <time>2018-10-12T10:41:20.000Z</time>
      </trkpt>
      <trkpt lat="30.9730663299560547" lon="-6.9280481338500977">
        <ele>1162.0</ele>
        <time>2018-10-12T10:41:21.000Z</time>
      </trkpt>
      <trkpt lat="30.9731235504150391" lon="-6.9280757904052734">
        <ele>1162.0</ele>
        <time>2018-10-12T10:41:22.000Z</time>
      </trkpt>
      <trkpt lat="30.9731788635253906" lon="-6.9281058311462402">
        <ele>1162.0</ele>
        <time>2018-10-12T10:41:23.000Z</time>
      </trkpt>
      <trkpt lat="30.9732360839843750" lon="-6.9281330108642578">
        <ele>1162.0</ele>
        <time>2018-10-12T10:41:24.000Z</time>
      </trkpt>
      <trkpt lat="30.9732952117919922" lon="-6.9281601905822754">
        <ele>1162.0</ele>
        <time>2018-10-12T10:41:25.000Z</time>
      </trkpt>
      <trkpt lat="30.9733543395996094" lon="-6.9281868934631348">
        <ele>1162.0</ele>
        <time>2018-10-12T10:41:26.000Z</time>
      </trkpt>
      <trkpt lat="30.9734115600585938" lon="-6.9282140731811523">
        <ele>1162.0</ele>
        <time>2018-10-12T10:41:27.000Z</time>
      </trkpt>
      <trkpt lat="30.9734725952148438" lon="-6.9282398223876953">
        <ele>1162.0</ele>
        <time>2018-10-12T10:41:28.000Z</time>
      </trkpt>
      <trkpt lat="30.9735336303710938" lon="-6.9282641410827637">
        <ele>1162.0</ele>
        <time>2018-10-12T10:41:29.000Z</time>
      </trkpt>
      <trkpt lat="30.9735965728759766" lon="-6.9282879829406738">
        <ele>1162.626708984375</ele>
        <time>2018-10-12T10:41:30.000Z</time>
      </trkpt>
      <trkpt lat="30.9736595153808594" lon="-6.9283108711242676">
        <ele>1163.0</ele>
        <time>2018-10-12T10:41:31.000Z</time>
      </trkpt>
      <trkpt lat="30.9737224578857422" lon="-6.9283328056335449">
        <ele>1163.636474609375</ele>
        <time>2018-10-12T10:41:32.000Z</time>
      </trkpt>
      <trkpt lat="30.9737854003906250" lon="-6.9283537864685059">
        <ele>1164.0</ele>
        <time>2018-10-12T10:41:33.000Z</time>
      </trkpt>
      <trkpt lat="30.9738483428955078" lon="-6.9283728599548340">
        <ele>1164.0</ele>
        <time>2018-10-12T10:41:34.000Z</time>
      </trkpt>
      <trkpt lat="30.9739093780517578" lon="-6.9283890724182129">
        <ele>1164.0</ele>
        <time>2018-10-12T10:41:35.000Z</time>
      </trkpt>
      <trkpt lat="30.9739704132080078" lon="-6.9284057617187500">
        <ele>1164.0</ele>
        <time>2018-10-12T10:41:36.000Z</time>
      </trkpt>
      <trkpt lat="30.9740295410156250" lon="-6.9284219741821289">
        <ele>1164.0</ele>
        <time>2018-10-12T10:41:37.000Z</time>
      </trkpt>
      <trkpt lat="30.9740867614746094" lon="-6.9284372329711914">
        <ele>1164.0</ele>
        <time>2018-10-12T10:41:38.000Z</time>
      </trkpt>
      <trkpt lat="30.9741420745849609" lon="-6.9284520149230957">
        <ele>1164.0</ele>
        <time>2018-10-12T10:41:39.000Z</time>
      </trkpt>
      <trkpt lat="30.9741954803466797" lon="-6.9284667968750000">
        <ele>1164.0</ele>
        <time>2018-10-12T10:41:40.000Z</time>
      </trkpt>
      <trkpt lat="30.9742469787597656" lon="-6.9284849166870117">
        <ele>1164.0</ele>
        <time>2018-10-12T10:41:41.000Z</time>
      </trkpt>
      <trkpt lat="30.9742946624755859" lon="-6.9285030364990234">
        <ele>1164.0</ele>
        <time>2018-10-12T10:41:42.000Z</time>
      </trkpt>
      <trkpt lat="30.9743366241455078" lon="-6.9285202026367188">
        <ele>1164.821044921875</ele>
        <time>2018-10-12T10:41:43.000Z</time>
      </trkpt>
      <trkpt lat="30.9743766784667969" lon="-6.9285359382629395">
        <ele>1165.0</ele>
        <time>2018-10-12T10:41:44.000Z</time>
      </trkpt>
      <trkpt lat="30.9744091033935547" lon="-6.9285521507263184">
        <ele>1165.0</ele>
        <time>2018-10-12T10:41:45.000Z</time>
      </trkpt>
      <trkpt lat="30.9744396209716797" lon="-6.9285669326782227">
        <ele>1165.0</ele>
        <time>2018-10-12T10:41:46.000Z</time>
      </trkpt>
      <trkpt lat="30.9744663238525391" lon="-6.9285812377929688">
        <ele>1165.0</ele>
        <time>2018-10-12T10:41:47.000Z</time>
      </trkpt>
      <trkpt lat="30.9744911193847656" lon="-6.9285941123962402">
        <ele>1164.178955078125</ele>
        <time>2018-10-12T10:41:48.000Z</time>
      </trkpt>
      <trkpt lat="30.9745178222656250" lon="-6.9286050796508789">
        <ele>1164.821044921875</ele>
        <time>2018-10-12T10:41:49.000Z</time>
      </trkpt>
      <trkpt lat="30.9745445251464844" lon="-6.9286150932312012">
        <ele>1165.0</ele>
        <time>2018-10-12T10:41:50.000Z</time>
      </trkpt>
      <trkpt lat="30.9745712280273438" lon="-6.9286241531372070">
        <ele>1164.363525390625</ele>
        <time>2018-10-12T10:41:51.000Z</time>
      </trkpt>
      <trkpt lat="30.9745960235595703" lon="-6.9286360740661621">
        <ele>1164.0</ele>
        <time>2018-10-12T10:41:52.000Z</time>
      </trkpt>
      <trkpt lat="30.9746170043945312" lon="-6.9286499023437500">
        <ele>1164.0</ele>
        <time>2018-10-12T10:41:53.000Z</time>
      </trkpt>
      <trkpt lat="30.9746360778808594" lon="-6.9286651611328125">
        <ele>1164.0</ele>
        <time>2018-10-12T10:41:54.000Z</time>
      </trkpt>
      <trkpt lat="30.9746589660644531" lon="-6.9286818504333496">
        <ele>1164.0</ele>
        <time>2018-10-12T10:41:55.000Z</time>
      </trkpt>
      <trkpt lat="30.9746799468994141" lon="-6.9287037849426270">
        <ele>1164.0</ele>
        <time>2018-10-12T10:41:56.000Z</time>
      </trkpt>
      <trkpt lat="30.9746990203857422" lon="-6.9287281036376953">
        <ele>1164.0</ele>
        <time>2018-10-12T10:41:57.000Z</time>
      </trkpt>
      <trkpt lat="30.9747180938720703" lon="-6.9287538528442383">
        <ele>1164.0</ele>
        <time>2018-10-12T10:41:58.000Z</time>
      </trkpt>
      <trkpt lat="30.9747390747070312" lon="-6.9287781715393066">
        <ele>1164.0</ele>
        <time>2018-10-12T10:41:59.000Z</time>
      </trkpt>
      <trkpt lat="30.9747638702392578" lon="-6.9288029670715332">
        <ele>1164.0</ele>
        <time>2018-10-12T10:42:00.000Z</time>
      </trkpt>
      <trkpt lat="30.9747905731201172" lon="-6.9288311004638672">
        <ele>1164.0</ele>
        <time>2018-10-12T10:42:01.000Z</time>
      </trkpt>
      <trkpt lat="30.9748229980468750" lon="-6.9288601875305176">
        <ele>1164.0</ele>
        <time>2018-10-12T10:42:02.000Z</time>
      </trkpt>
      <trkpt lat="30.9748554229736328" lon="-6.9288902282714844">
        <ele>1164.0</ele>
        <time>2018-10-12T10:42:03.000Z</time>
      </trkpt>
      <trkpt lat="30.9748916625976562" lon="-6.9289188385009766">
        <ele>1164.0</ele>
        <time>2018-10-12T10:42:04.000Z</time>
      </trkpt>
      <trkpt lat="30.9749279022216797" lon="-6.9289460182189941">
        <ele>1164.0</ele>
        <time>2018-10-12T10:42:05.000Z</time>
      </trkpt>
      <trkpt lat="30.9749641418457031" lon="-6.9289708137512207">
        <ele>1164.0</ele>
        <time>2018-10-12T10:42:06.000Z</time>
      </trkpt>
      <trkpt lat="30.9750022888183594" lon="-6.9289941787719727">
        <ele>1164.0</ele>
        <time>2018-10-12T10:42:07.000Z</time>
      </trkpt>
      <trkpt lat="30.9750423431396484" lon="-6.9290151596069336">
        <ele>1164.0</ele>
        <time>2018-10-12T10:42:08.000Z</time>
      </trkpt>
      <trkpt lat="30.9750823974609375" lon="-6.9290342330932617">
        <ele>1164.0</ele>
        <time>2018-10-12T10:42:09.000Z</time>
      </trkpt>
      <trkpt lat="30.9751224517822266" lon="-6.9290509223937988">
        <ele>1164.6385498046875</ele>
        <time>2018-10-12T10:42:10.000Z</time>
      </trkpt>
      <trkpt lat="30.9751644134521484" lon="-6.9290690422058105">
        <ele>1165.0</ele>
        <time>2018-10-12T10:42:11.000Z</time>
      </trkpt>
      <trkpt lat="30.9752044677734375" lon="-6.9290847778320312">
        <ele>1165.0</ele>
        <time>2018-10-12T10:42:12.000Z</time>
      </trkpt>
      <trkpt lat="30.9752445220947266" lon="-6.9291019439697266">
        <ele>1165.0</ele>
        <time>2018-10-12T10:42:13.000Z</time>
      </trkpt>
      <trkpt lat="30.9752845764160156" lon="-6.9291181564331055">
        <ele>1165.0</ele>
        <time>2018-10-12T10:42:14.000Z</time>
      </trkpt>
      <trkpt lat="30.9753265380859375" lon="-6.9291329383850098">
        <ele>1165.0</ele>
        <time>2018-10-12T10:42:15.000Z</time>
      </trkpt>
      <trkpt lat="30.9753665924072266" lon="-6.9291491508483887">
        <ele>1165.0</ele>
        <time>2018-10-12T10:42:16.000Z</time>
      </trkpt>
      <trkpt lat="30.9754066467285156" lon="-6.9291629791259766">
        <ele>1165.0</ele>
        <time>2018-10-12T10:42:17.000Z</time>
      </trkpt>
      <trkpt lat="30.9754467010498047" lon="-6.9291768074035645">
        <ele>1165.0</ele>
        <time>2018-10-12T10:42:18.000Z</time>
      </trkpt>
      <trkpt lat="30.9754829406738281" lon="-6.9291911125183105">
        <ele>1165.0</ele>
        <time>2018-10-12T10:42:19.000Z</time>
      </trkpt>
      <trkpt lat="30.9755172729492188" lon="-6.9292039871215820">
        <ele>1165.0</ele>
        <time>2018-10-12T10:42:20.000Z</time>
      </trkpt>
      <trkpt lat="30.9755496978759766" lon="-6.9292159080505371">
        <ele>1165.0</ele>
        <time>2018-10-12T10:42:21.000Z</time>
      </trkpt>
      <trkpt lat="30.9755802154541016" lon="-6.9292278289794922">
        <ele>1165.0</ele>
        <time>2018-10-12T10:42:22.000Z</time>
      </trkpt>
      <trkpt lat="30.9756107330322266" lon="-6.9292402267456055">
        <ele>1165.0</ele>
        <time>2018-10-12T10:42:23.000Z</time>
      </trkpt>
      <trkpt lat="30.9756374359130859" lon="-6.9292521476745605">
        <ele>1165.0</ele>
        <time>2018-10-12T10:42:24.000Z</time>
      </trkpt>
      <trkpt lat="30.9756641387939453" lon="-6.9292640686035156">
        <ele>1165.0</ele>
        <time>2018-10-12T10:42:25.000Z</time>
      </trkpt>
      <trkpt lat="30.9756889343261719" lon="-6.9292759895324707">
        <ele>1165.0</ele>
        <time>2018-10-12T10:42:26.000Z</time>
      </trkpt>
      <trkpt lat="30.9757099151611328" lon="-6.9292879104614258">
        <ele>1165.0</ele>
        <time>2018-10-12T10:42:27.000Z</time>
      </trkpt>
      <trkpt lat="30.9757289886474609" lon="-6.9292988777160645">
        <ele>1165.0</ele>
        <time>2018-10-12T10:42:28.000Z</time>
      </trkpt>
      <trkpt lat="30.9757461547851562" lon="-6.9293079376220703">
        <ele>1165.0</ele>
        <time>2018-10-12T10:42:29.000Z</time>
      </trkpt>
      <trkpt lat="30.9757633209228516" lon="-6.9293150901794434">
        <ele>1164.2486572265625</ele>
        <time>2018-10-12T10:42:30.000Z</time>
      </trkpt>
      <trkpt lat="30.9757938385009766" lon="-6.9293332099914551">
        <ele>1164.0</ele>
        <time>2018-10-12T10:42:32.000Z</time>
      </trkpt>
      <trkpt lat="30.9758262634277344" lon="-6.9293498992919922">
        <ele>1164.0</ele>
        <time>2018-10-12T10:42:34.000Z</time>
      </trkpt>
      <trkpt lat="30.9758548736572266" lon="-6.9293689727783203">
        <ele>1164.0</ele>
        <time>2018-10-12T10:42:36.000Z</time>
      </trkpt>
      <trkpt lat="30.9758815765380859" lon="-6.9293899536132812">
        <ele>1164.0</ele>
        <time>2018-10-12T10:42:38.000Z</time>
      </trkpt>
      <trkpt lat="30.9758987426757812" lon="-6.9294028282165527">
        <ele>1164.0</ele>
        <time>2018-10-12T10:42:39.000Z</time>
      </trkpt>
      <trkpt lat="30.9759197235107422" lon="-6.9294171333312988">
        <ele>1164.0</ele>
        <time>2018-10-12T10:42:40.000Z</time>
      </trkpt>
      <trkpt lat="30.9759483337402344" lon="-6.9294309616088867">
        <ele>1164.0</ele>
        <time>2018-10-12T10:42:41.000Z</time>
      </trkpt>
      <trkpt lat="30.9759788513183594" lon="-6.9294471740722656">
        <ele>1164.821044921875</ele>
        <time>2018-10-12T10:42:42.000Z</time>
      </trkpt>
      <trkpt lat="30.9760112762451172" lon="-6.9294657707214355">
        <ele>1165.0</ele>
        <time>2018-10-12T10:42:43.000Z</time>
      </trkpt>
      <trkpt lat="30.9760475158691406" lon="-6.9294848442077637">
        <ele>1165.0</ele>
        <time>2018-10-12T10:42:44.000Z</time>
      </trkpt>
      <trkpt lat="30.9760875701904297" lon="-6.9295029640197754">
        <ele>1165.0</ele>
        <time>2018-10-12T10:42:45.000Z</time>
      </trkpt>
      <trkpt lat="30.9761295318603516" lon="-6.9295191764831543">
        <ele>1165.0</ele>
        <time>2018-10-12T10:42:46.000Z</time>
      </trkpt>
      <trkpt lat="30.9761753082275391" lon="-6.9295358657836914">
        <ele>1165.0</ele>
        <time>2018-10-12T10:42:47.000Z</time>
      </trkpt>
      <trkpt lat="30.9762229919433594" lon="-6.9295530319213867">
        <ele>1165.0</ele>
        <time>2018-10-12T10:42:48.000Z</time>
      </trkpt>
      <trkpt lat="30.9762725830078125" lon="-6.9295711517333984">
        <ele>1165.0</ele>
        <time>2018-10-12T10:42:49.000Z</time>
      </trkpt>
      <trkpt lat="30.9763221740722656" lon="-6.9295878410339355">
        <ele>1165.0</ele>
        <time>2018-10-12T10:42:50.000Z</time>
      </trkpt>
      <trkpt lat="30.9763717651367188" lon="-6.9296040534973145">
        <ele>1165.0</ele>
        <time>2018-10-12T10:42:51.000Z</time>
      </trkpt>
      <trkpt lat="30.9764213562011719" lon="-6.9296188354492188">
        <ele>1165.0</ele>
        <time>2018-10-12T10:42:52.000Z</time>
      </trkpt>
      <trkpt lat="30.9764728546142578" lon="-6.9296350479125977">
        <ele>1165.0</ele>
        <time>2018-10-12T10:42:53.000Z</time>
      </trkpt>
      <trkpt lat="30.9765243530273438" lon="-6.9296522140502930">
        <ele>1165.0</ele>
        <time>2018-10-12T10:42:54.000Z</time>
      </trkpt>
      <trkpt lat="30.9765777587890625" lon="-6.9296679496765137">
        <ele>1165.0</ele>
        <time>2018-10-12T10:42:55.000Z</time>
      </trkpt>
      <trkpt lat="30.9766292572021484" lon="-6.9296832084655762">
        <ele>1165.0</ele>
        <time>2018-10-12T10:42:56.000Z</time>
      </trkpt>
      <trkpt lat="30.9766845703125000" lon="-6.9296989440917969">
        <ele>1165.8154296875</ele>
        <time>2018-10-12T10:42:57.000Z</time>
      </trkpt>
      <trkpt lat="30.9767360687255859" lon="-6.9297151565551758">
        <ele>1166.0</ele>
        <time>2018-10-12T10:42:58.000Z</time>
      </trkpt>
      <trkpt lat="30.9767894744873047" lon="-6.9297318458557129">
        <ele>1166.0</ele>
        <time>2018-10-12T10:42:59.000Z</time>
      </trkpt>
      <trkpt lat="30.9768428802490234" lon="-6.9297490119934082">
        <ele>1165.2593994140625</ele>
        <time>2018-10-12T10:43:00.000Z</time>
      </trkpt>
      <trkpt lat="30.9768962860107422" lon="-6.9297661781311035">
        <ele>1165.821044921875</ele>
        <time>2018-10-12T10:43:01.000Z</time>
      </trkpt>
      <trkpt lat="30.9769496917724609" lon="-6.9297847747802734">
        <ele>1166.0</ele>
        <time>2018-10-12T10:43:02.000Z</time>
      </trkpt>
      <trkpt lat="30.9770011901855469" lon="-6.9298048019409180">
        <ele>1166.0</ele>
        <time>2018-10-12T10:43:03.000Z</time>
      </trkpt>
      <trkpt lat="30.9770526885986328" lon="-6.9298272132873535">
        <ele>1166.0</ele>
        <time>2018-10-12T10:43:04.000Z</time>
      </trkpt>
      <trkpt lat="30.9771060943603516" lon="-6.9298491477966309">
        <ele>1166.0</ele>
        <time>2018-10-12T10:43:05.000Z</time>
      </trkpt>
      <trkpt lat="30.9771595001220703" lon="-6.9298710823059082">
        <ele>1166.0</ele>
        <time>2018-10-12T10:43:06.000Z</time>
      </trkpt>
      <trkpt lat="30.9772129058837891" lon="-6.9298949241638184">
        <ele>1166.0</ele>
        <time>2018-10-12T10:43:07.000Z</time>
      </trkpt>
      <trkpt lat="30.9772644042968750" lon="-6.9299187660217285">
        <ele>1166.0</ele>
        <time>2018-10-12T10:43:08.000Z</time>
      </trkpt>
      <trkpt lat="30.9773178100585938" lon="-6.9299459457397461">
        <ele>1166.0</ele>
        <time>2018-10-12T10:43:09.000Z</time>
      </trkpt>
      <trkpt lat="30.9773693084716797" lon="-6.9299731254577637">
        <ele>1166.0</ele>
        <time>2018-10-12T10:43:10.000Z</time>
      </trkpt>
      <trkpt lat="30.9774227142333984" lon="-6.9299988746643066">
        <ele>1166.0</ele>
        <time>2018-10-12T10:43:11.000Z</time>
      </trkpt>
      <trkpt lat="30.9774742126464844" lon="-6.9300260543823242">
        <ele>1166.0</ele>
        <time>2018-10-12T10:43:12.000Z</time>
      </trkpt>
      <trkpt lat="30.9775257110595703" lon="-6.9300551414489746">
        <ele>1166.0</ele>
        <time>2018-10-12T10:43:13.000Z</time>
      </trkpt>
      <trkpt lat="30.9775772094726562" lon="-6.9300827980041504">
        <ele>1166.0</ele>
        <time>2018-10-12T10:43:14.000Z</time>
      </trkpt>
      <trkpt lat="30.9776287078857422" lon="-6.9301099777221680">
        <ele>1166.0</ele>
        <time>2018-10-12T10:43:15.000Z</time>
      </trkpt>
      <trkpt lat="30.9776782989501953" lon="-6.9301371574401855">
        <ele>1166.0</ele>
        <time>2018-10-12T10:43:16.000Z</time>
      </trkpt>
      <trkpt lat="30.9777297973632812" lon="-6.9301638603210449">
        <ele>1166.0</ele>
        <time>2018-10-12T10:43:17.000Z</time>
      </trkpt>
      <trkpt lat="30.9777812957763672" lon="-6.9301891326904297">
        <ele>1166.0</ele>
        <time>2018-10-12T10:43:18.000Z</time>
      </trkpt>
      <trkpt lat="30.9778308868408203" lon="-6.9302101135253906">
        <ele>1166.0</ele>
        <time>2018-10-12T10:43:19.000Z</time>
      </trkpt>
      <trkpt lat="30.9778804779052734" lon="-6.9302310943603516">
        <ele>1166.0</ele>
        <time>2018-10-12T10:43:20.000Z</time>
      </trkpt>
      <trkpt lat="30.9779281616210938" lon="-6.9302549362182617">
        <ele>1166.0</ele>
        <time>2018-10-12T10:43:21.000Z</time>
      </trkpt>
      <trkpt lat="30.9779777526855469" lon="-6.9302821159362793">
        <ele>1166.0</ele>
        <time>2018-10-12T10:43:22.000Z</time>
      </trkpt>
      <trkpt lat="30.9780292510986328" lon="-6.9303088188171387">
        <ele>1166.0</ele>
        <time>2018-10-12T10:43:23.000Z</time>
      </trkpt>
      <trkpt lat="30.9780826568603516" lon="-6.9303350448608398">
        <ele>1166.0</ele>
        <time>2018-10-12T10:43:24.000Z</time>
      </trkpt>
      <trkpt lat="30.9781360626220703" lon="-6.9303588867187500">
        <ele>1166.0</ele>
        <time>2018-10-12T10:43:25.000Z</time>
      </trkpt>
      <trkpt lat="30.9781913757324219" lon="-6.9303808212280273">
        <ele>1166.0</ele>
        <time>2018-10-12T10:43:26.000Z</time>
      </trkpt>
      <trkpt lat="30.9782447814941406" lon="-6.9304032325744629">
        <ele>1166.0</ele>
        <time>2018-10-12T10:43:27.000Z</time>
      </trkpt>
      <trkpt lat="30.9783000946044922" lon="-6.9304242134094238">
        <ele>1166.0</ele>
        <time>2018-10-12T10:43:28.000Z</time>
      </trkpt>
      <trkpt lat="30.9783535003662109" lon="-6.9304451942443848">
        <ele>1166.0</ele>
        <time>2018-10-12T10:43:29.000Z</time>
      </trkpt>
      <trkpt lat="30.9784049987792969" lon="-6.9304652214050293">
        <ele>1166.0</ele>
        <time>2018-10-12T10:43:30.000Z</time>
      </trkpt>
      <trkpt lat="30.9784564971923828" lon="-6.9304847717285156">
        <ele>1166.0</ele>
        <time>2018-10-12T10:43:31.000Z</time>
      </trkpt>
      <trkpt lat="30.9785060882568359" lon="-6.9305028915405273">
        <ele>1166.0</ele>
        <time>2018-10-12T10:43:32.000Z</time>
      </trkpt>
      <trkpt lat="30.9785575866699219" lon="-6.9305210113525391">
        <ele>1166.0</ele>
        <time>2018-10-12T10:43:33.000Z</time>
      </trkpt>
      <trkpt lat="30.9786090850830078" lon="-6.9305391311645508">
        <ele>1166.0</ele>
        <time>2018-10-12T10:43:34.000Z</time>
      </trkpt>
      <trkpt lat="30.9786586761474609" lon="-6.9305567741394043">
        <ele>1166.0</ele>
        <time>2018-10-12T10:43:35.000Z</time>
      </trkpt>
      <trkpt lat="30.9787101745605469" lon="-6.9305748939514160">
        <ele>1166.0</ele>
        <time>2018-10-12T10:43:36.000Z</time>
      </trkpt>
      <trkpt lat="30.9787597656250000" lon="-6.9305930137634277">
        <ele>1166.0</ele>
        <time>2018-10-12T10:43:37.000Z</time>
      </trkpt>
      <trkpt lat="30.9788093566894531" lon="-6.9306120872497559">
        <ele>1166.0</ele>
        <time>2018-10-12T10:43:38.000Z</time>
      </trkpt>
      <trkpt lat="30.9788608551025391" lon="-6.9306330680847168">
        <ele>1166.0</ele>
        <time>2018-10-12T10:43:39.000Z</time>
      </trkpt>
      <trkpt lat="30.9789104461669922" lon="-6.9306550025939941">
        <ele>1166.0</ele>
        <time>2018-10-12T10:43:40.000Z</time>
      </trkpt>
      <trkpt lat="30.9789600372314453" lon="-6.9306788444519043">
        <ele>1166.0</ele>
        <time>2018-10-12T10:43:41.000Z</time>
      </trkpt>
      <trkpt lat="30.9790096282958984" lon="-6.9307050704956055">
        <ele>1166.0</ele>
        <time>2018-10-12T10:43:42.000Z</time>
      </trkpt>
      <trkpt lat="30.9790592193603516" lon="-6.9307317733764648">
        <ele>1166.0</ele>
        <time>2018-10-12T10:43:43.000Z</time>
      </trkpt>
      <trkpt lat="30.9791088104248047" lon="-6.9307618141174316">
        <ele>1166.0</ele>
        <time>2018-10-12T10:43:44.000Z</time>
      </trkpt>
      <trkpt lat="30.9791584014892578" lon="-6.9307928085327148">
        <ele>1166.0</ele>
        <time>2018-10-12T10:43:45.000Z</time>
      </trkpt>
      <trkpt lat="30.9792060852050781" lon="-6.9308261871337891">
        <ele>1166.5023193359375</ele>
        <time>2018-10-12T10:43:46.000Z</time>
      </trkpt>
      <trkpt lat="30.9792537689208984" lon="-6.9308590888977051">
        <ele>1167.0</ele>
        <time>2018-10-12T10:43:47.000Z</time>
      </trkpt>
      <trkpt lat="30.9792995452880859" lon="-6.9308929443359375">
        <ele>1167.0</ele>
        <time>2018-10-12T10:43:48.000Z</time>
      </trkpt>
      <trkpt lat="30.9793453216552734" lon="-6.9309282302856445">
        <ele>1166.178955078125</ele>
        <time>2018-10-12T10:43:49.000Z</time>
      </trkpt>
      <trkpt lat="30.9793891906738281" lon="-6.9309649467468262">
        <ele>1166.0</ele>
        <time>2018-10-12T10:43:50.000Z</time>
      </trkpt>
      <trkpt lat="30.9794330596923828" lon="-6.9310021400451660">
        <ele>1166.821044921875</ele>
        <time>2018-10-12T10:43:51.000Z</time>
      </trkpt>
      <trkpt lat="30.9794769287109375" lon="-6.9310407638549805">
        <ele>1167.0</ele>
        <time>2018-10-12T10:43:52.000Z</time>
      </trkpt>
      <trkpt lat="30.9795207977294922" lon="-6.9310789108276367">
        <ele>1167.0</ele>
        <time>2018-10-12T10:43:53.000Z</time>
      </trkpt>
      <trkpt lat="30.9795646667480469" lon="-6.9311161041259766">
        <ele>1167.0</ele>
        <time>2018-10-12T10:43:54.000Z</time>
      </trkpt>
      <trkpt lat="30.9796085357666016" lon="-6.9311552047729492">
        <ele>1167.0</ele>
        <time>2018-10-12T10:43:55.000Z</time>
      </trkpt>
      <trkpt lat="30.9796504974365234" lon="-6.9311947822570801">
        <ele>1167.0</ele>
        <time>2018-10-12T10:43:56.000Z</time>
      </trkpt>
      <trkpt lat="30.9796943664550781" lon="-6.9312338829040527">
        <ele>1167.0</ele>
        <time>2018-10-12T10:43:57.000Z</time>
      </trkpt>
      <trkpt lat="30.9797382354736328" lon="-6.9312729835510254">
        <ele>1167.0</ele>
        <time>2018-10-12T10:43:58.000Z</time>
      </trkpt>
      <trkpt lat="30.9797801971435547" lon="-6.9313120841979980">
        <ele>1167.0</ele>
        <time>2018-10-12T10:43:59.000Z</time>
      </trkpt>
      <trkpt lat="30.9798240661621094" lon="-6.9313521385192871">
        <ele>1167.0</ele>
        <time>2018-10-12T10:44:00.000Z</time>
      </trkpt>
      <trkpt lat="30.9798679351806641" lon="-6.9313921928405762">
        <ele>1167.0</ele>
        <time>2018-10-12T10:44:01.000Z</time>
      </trkpt>
      <trkpt lat="30.9799098968505859" lon="-6.9314317703247070">
        <ele>1167.0</ele>
        <time>2018-10-12T10:44:02.000Z</time>
      </trkpt>
      <trkpt lat="30.9799499511718750" lon="-6.9314742088317871">
        <ele>1167.0</ele>
        <time>2018-10-12T10:44:03.000Z</time>
      </trkpt>
      <trkpt lat="30.9799919128417969" lon="-6.9315152168273926">
        <ele>1167.0</ele>
        <time>2018-10-12T10:44:04.000Z</time>
      </trkpt>
      <trkpt lat="30.9800338745117188" lon="-6.9315571784973145">
        <ele>1167.0</ele>
        <time>2018-10-12T10:44:05.000Z</time>
      </trkpt>
      <trkpt lat="30.9800720214843750" lon="-6.9315981864929199">
        <ele>1167.0</ele>
        <time>2018-10-12T10:44:06.000Z</time>
      </trkpt>
      <trkpt lat="30.9801101684570312" lon="-6.9316401481628418">
        <ele>1167.0</ele>
        <time>2018-10-12T10:44:07.000Z</time>
      </trkpt>
      <trkpt lat="30.9801483154296875" lon="-6.9316830635070801">
        <ele>1167.0</ele>
        <time>2018-10-12T10:44:08.000Z</time>
      </trkpt>
      <trkpt lat="30.9801845550537109" lon="-6.9317259788513184">
        <ele>1167.0</ele>
        <time>2018-10-12T10:44:09.000Z</time>
      </trkpt>
      <trkpt lat="30.9802227020263672" lon="-6.9317688941955566">
        <ele>1167.0</ele>
        <time>2018-10-12T10:44:10.000Z</time>
      </trkpt>
      <trkpt lat="30.9802570343017578" lon="-6.9318127632141113">
        <ele>1167.0</ele>
        <time>2018-10-12T10:44:11.000Z</time>
      </trkpt>
      <trkpt lat="30.9802894592285156" lon="-6.9318590164184570">
        <ele>1167.0</ele>
        <time>2018-10-12T10:44:12.000Z</time>
      </trkpt>
      <trkpt lat="30.9803161621093750" lon="-6.9319071769714355">
        <ele>1167.0</ele>
        <time>2018-10-12T10:44:13.000Z</time>
      </trkpt>
      <trkpt lat="30.9803466796875000" lon="-6.9319548606872559">
        <ele>1167.0</ele>
        <time>2018-10-12T10:44:14.000Z</time>
      </trkpt>
      <trkpt lat="30.9803771972656250" lon="-6.9319992065429688">
        <ele>1167.0</ele>
        <time>2018-10-12T10:44:15.000Z</time>
      </trkpt>
      <trkpt lat="30.9804077148437500" lon="-6.9320430755615234">
        <ele>1167.0</ele>
        <time>2018-10-12T10:44:16.000Z</time>
      </trkpt>
      <trkpt lat="30.9804382324218750" lon="-6.9320878982543945">
        <ele>1167.0</ele>
        <time>2018-10-12T10:44:17.000Z</time>
      </trkpt>
      <trkpt lat="30.9804687500000000" lon="-6.9321317672729492">
        <ele>1167.0</ele>
        <time>2018-10-12T10:44:18.000Z</time>
      </trkpt>
      <trkpt lat="30.9804992675781250" lon="-6.9321770668029785">
        <ele>1167.0</ele>
        <time>2018-10-12T10:44:19.000Z</time>
      </trkpt>
      <trkpt lat="30.9805297851562500" lon="-6.9322209358215332">
        <ele>1167.0</ele>
        <time>2018-10-12T10:44:20.000Z</time>
      </trkpt>
      <trkpt lat="30.9805583953857422" lon="-6.9322648048400879">
        <ele>1167.0</ele>
        <time>2018-10-12T10:44:21.000Z</time>
      </trkpt>
      <trkpt lat="30.9805889129638672" lon="-6.9323091506958008">
        <ele>1167.0</ele>
        <time>2018-10-12T10:44:22.000Z</time>
      </trkpt>
      <trkpt lat="30.9806175231933594" lon="-6.9323520660400391">
        <ele>1167.0</ele>
        <time>2018-10-12T10:44:23.000Z</time>
      </trkpt>
      <trkpt lat="30.9806442260742188" lon="-6.9323959350585938">
        <ele>1167.0</ele>
        <time>2018-10-12T10:44:24.000Z</time>
      </trkpt>
      <trkpt lat="30.9806747436523438" lon="-6.9324398040771484">
        <ele>1167.0</ele>
        <time>2018-10-12T10:44:25.000Z</time>
      </trkpt>
      <trkpt lat="30.9807033538818359" lon="-6.9324841499328613">
        <ele>1167.0</ele>
        <time>2018-10-12T10:44:26.000Z</time>
      </trkpt>
      <trkpt lat="30.9807319641113281" lon="-6.9325280189514160">
        <ele>1167.0</ele>
        <time>2018-10-12T10:44:27.000Z</time>
      </trkpt>
      <trkpt lat="30.9807605743408203" lon="-6.9325718879699707">
        <ele>1167.0</ele>
        <time>2018-10-12T10:44:28.000Z</time>
      </trkpt>
      <trkpt lat="30.9807891845703125" lon="-6.9326171875000000">
        <ele>1167.0</ele>
        <time>2018-10-12T10:44:29.000Z</time>
      </trkpt>
      <trkpt lat="30.9808158874511719" lon="-6.9326620101928711">
        <ele>1167.0</ele>
        <time>2018-10-12T10:44:30.000Z</time>
      </trkpt>
      <trkpt lat="30.9808425903320312" lon="-6.9327077865600586">
        <ele>1167.8128662109375</ele>
        <time>2018-10-12T10:44:31.000Z</time>
      </trkpt>
      <trkpt lat="30.9808692932128906" lon="-6.9327530860900879">
        <ele>1168.0</ele>
        <time>2018-10-12T10:44:32.000Z</time>
      </trkpt>
      <trkpt lat="30.9808979034423828" lon="-6.9327969551086426">
        <ele>1168.0</ele>
        <time>2018-10-12T10:44:33.000Z</time>
      </trkpt>
      <trkpt lat="30.9809226989746094" lon="-6.9328417778015137">
        <ele>1168.0</ele>
        <time>2018-10-12T10:44:34.000Z</time>
      </trkpt>
      <trkpt lat="30.9809494018554688" lon="-6.9328880310058594">
        <ele>1168.0</ele>
        <time>2018-10-12T10:44:35.000Z</time>
      </trkpt>
      <trkpt lat="30.9809761047363281" lon="-6.9329338073730469">
        <ele>1168.0</ele>
        <time>2018-10-12T10:44:36.000Z</time>
      </trkpt>
      <trkpt lat="30.9810028076171875" lon="-6.9329810142517090">
        <ele>1168.0</ele>
        <time>2018-10-12T10:44:37.000Z</time>
      </trkpt>
      <trkpt lat="30.9810295104980469" lon="-6.9330291748046875">
        <ele>1168.0</ele>
        <time>2018-10-12T10:44:38.000Z</time>
      </trkpt>
      <trkpt lat="30.9810543060302734" lon="-6.9330787658691406">
        <ele>1168.0</ele>
        <time>2018-10-12T10:44:39.000Z</time>
      </trkpt>
      <trkpt lat="30.9810810089111328" lon="-6.9331288337707520">
        <ele>1168.0</ele>
        <time>2018-10-12T10:44:40.000Z</time>
      </trkpt>
      <trkpt lat="30.9811058044433594" lon="-6.9331789016723633">
        <ele>1168.0</ele>
        <time>2018-10-12T10:44:41.000Z</time>
      </trkpt>
      <trkpt lat="30.9811305999755859" lon="-6.9332289695739746">
        <ele>1168.0</ele>
        <time>2018-10-12T10:44:42.000Z</time>
      </trkpt>
      <trkpt lat="30.9811573028564453" lon="-6.9332790374755859">
        <ele>1168.0</ele>
        <time>2018-10-12T10:44:43.000Z</time>
      </trkpt>
      <trkpt lat="30.9811820983886719" lon="-6.9333291053771973">
        <ele>1168.0</ele>
        <time>2018-10-12T10:44:44.000Z</time>
      </trkpt>
      <trkpt lat="30.9812088012695312" lon="-6.9333801269531250">
        <ele>1168.0</ele>
        <time>2018-10-12T10:44:45.000Z</time>
      </trkpt>
      <trkpt lat="30.9812335968017578" lon="-6.9334311485290527">
        <ele>1168.0</ele>
        <time>2018-10-12T10:44:46.000Z</time>
      </trkpt>
      <trkpt lat="30.9812583923339844" lon="-6.9334812164306641">
        <ele>1168.0</ele>
        <time>2018-10-12T10:44:47.000Z</time>
      </trkpt>
      <trkpt lat="30.9812850952148438" lon="-6.9335322380065918">
        <ele>1168.0</ele>
        <time>2018-10-12T10:44:48.000Z</time>
      </trkpt>
      <trkpt lat="30.9813117980957031" lon="-6.9335808753967285">
        <ele>1168.0</ele>
        <time>2018-10-12T10:44:49.000Z</time>
      </trkpt>
      <trkpt lat="30.9813385009765625" lon="-6.9336290359497070">
        <ele>1168.0</ele>
        <time>2018-10-12T10:44:50.000Z</time>
      </trkpt>
      <trkpt lat="30.9813671112060547" lon="-6.9336757659912109">
        <ele>1168.0</ele>
        <time>2018-10-12T10:44:51.000Z</time>
      </trkpt>
      <trkpt lat="30.9813976287841797" lon="-6.9337220191955566">
        <ele>1168.0</ele>
        <time>2018-10-12T10:44:52.000Z</time>
      </trkpt>
      <trkpt lat="30.9814262390136719" lon="-6.9337677955627441">
        <ele>1168.0</ele>
        <time>2018-10-12T10:44:53.000Z</time>
      </trkpt>
      <trkpt lat="30.9814567565917969" lon="-6.9338130950927734">
        <ele>1168.0</ele>
        <time>2018-10-12T10:44:54.000Z</time>
      </trkpt>
      <trkpt lat="30.9814872741699219" lon="-6.9338569641113281">
        <ele>1168.0</ele>
        <time>2018-10-12T10:44:55.000Z</time>
      </trkpt>
      <trkpt lat="30.9815196990966797" lon="-6.9338989257812500">
        <ele>1168.0</ele>
        <time>2018-10-12T10:44:56.000Z</time>
      </trkpt>
      <trkpt lat="30.9815521240234375" lon="-6.9339427947998047">
        <ele>1168.0</ele>
        <time>2018-10-12T10:44:57.000Z</time>
      </trkpt>
      <trkpt lat="30.9815845489501953" lon="-6.9339880943298340">
        <ele>1168.0</ele>
        <time>2018-10-12T10:44:58.000Z</time>
      </trkpt>
      <trkpt lat="30.9816131591796875" lon="-6.9340338706970215">
        <ele>1168.0</ele>
        <time>2018-10-12T10:44:59.000Z</time>
      </trkpt>
      <trkpt lat="30.9816417694091797" lon="-6.9340810775756836">
        <ele>1168.821044921875</ele>
        <time>2018-10-12T10:45:00.000Z</time>
      </trkpt>
      <trkpt lat="30.9816684722900391" lon="-6.9341268539428711">
        <ele>1169.0</ele>
        <time>2018-10-12T10:45:01.000Z</time>
      </trkpt>
      <trkpt lat="30.9816951751708984" lon="-6.9341731071472168">
        <ele>1169.0</ele>
        <time>2018-10-12T10:45:02.000Z</time>
      </trkpt>
      <trkpt lat="30.9817218780517578" lon="-6.9342207908630371">
        <ele>1169.0</ele>
        <time>2018-10-12T10:45:03.000Z</time>
      </trkpt>
      <trkpt lat="30.9817447662353516" lon="-6.9342708587646484">
        <ele>1169.0</ele>
        <time>2018-10-12T10:45:04.000Z</time>
      </trkpt>
      <trkpt lat="30.9817676544189453" lon="-6.9343218803405762">
        <ele>1169.0</ele>
        <time>2018-10-12T10:45:05.000Z</time>
      </trkpt>
      <trkpt lat="30.9817886352539062" lon="-6.9343738555908203">
        <ele>1169.0</ele>
        <time>2018-10-12T10:45:06.000Z</time>
      </trkpt>
      <trkpt lat="30.9818096160888672" lon="-6.9344282150268555">
        <ele>1169.0</ele>
        <time>2018-10-12T10:45:07.000Z</time>
      </trkpt>
      <trkpt lat="30.9818286895751953" lon="-6.9344811439514160">
        <ele>1169.0</ele>
        <time>2018-10-12T10:45:08.000Z</time>
      </trkpt>
      <trkpt lat="30.9818439483642578" lon="-6.9345369338989258">
        <ele>1169.0</ele>
        <time>2018-10-12T10:45:09.000Z</time>
      </trkpt>
      <trkpt lat="30.9818553924560547" lon="-6.9345941543579102">
        <ele>1169.0</ele>
        <time>2018-10-12T10:45:10.000Z</time>
      </trkpt>
      <trkpt lat="30.9818668365478516" lon="-6.9346518516540527">
        <ele>1169.0</ele>
        <time>2018-10-12T10:45:11.000Z</time>
      </trkpt>
      <trkpt lat="30.9818782806396484" lon="-6.9347090721130371">
        <ele>1169.0</ele>
        <time>2018-10-12T10:45:12.000Z</time>
      </trkpt>
      <trkpt lat="30.9818916320800781" lon="-6.9347658157348633">
        <ele>1169.821044921875</ele>
        <time>2018-10-12T10:45:13.000Z</time>
      </trkpt>
      <trkpt lat="30.9819011688232422" lon="-6.9348230361938477">
        <ele>1170.0</ele>
        <time>2018-10-12T10:45:14.000Z</time>
      </trkpt>
      <trkpt lat="30.9819126129150391" lon="-6.9348797798156738">
        <ele>1169.2520751953125</ele>
        <time>2018-10-12T10:45:15.000Z</time>
      </trkpt>
      <trkpt lat="30.9819240570068359" lon="-6.9349370002746582">
        <ele>1169.0</ele>
        <time>2018-10-12T10:45:16.000Z</time>
      </trkpt>
      <trkpt lat="30.9819355010986328" lon="-6.9349942207336426">
        <ele>1169.0</ele>
        <time>2018-10-12T10:45:17.000Z</time>
      </trkpt>
      <trkpt lat="30.9819469451904297" lon="-6.9350509643554688">
        <ele>1169.0</ele>
        <time>2018-10-12T10:45:18.000Z</time>
      </trkpt>
      <trkpt lat="30.9819564819335938" lon="-6.9351081848144531">
        <ele>1169.0</ele>
        <time>2018-10-12T10:45:19.000Z</time>
      </trkpt>
      <trkpt lat="30.9819660186767578" lon="-6.9351649284362793">
        <ele>1169.0</ele>
        <time>2018-10-12T10:45:20.000Z</time>
      </trkpt>
      <trkpt lat="30.9819755554199219" lon="-6.9352231025695801">
        <ele>1169.0</ele>
        <time>2018-10-12T10:45:21.000Z</time>
      </trkpt>
      <trkpt lat="30.9819850921630859" lon="-6.9352822303771973">
        <ele>1169.0</ele>
        <time>2018-10-12T10:45:22.000Z</time>
      </trkpt>
      <trkpt lat="30.9819946289062500" lon="-6.9353418350219727">
        <ele>1169.0</ele>
        <time>2018-10-12T10:45:23.000Z</time>
      </trkpt>
      <trkpt lat="30.9820022583007812" lon="-6.9354019165039062">
        <ele>1169.6173095703125</ele>
        <time>2018-10-12T10:45:24.000Z</time>
      </trkpt>
      <trkpt lat="30.9820137023925781" lon="-6.9354619979858398">
        <ele>1170.0</ele>
        <time>2018-10-12T10:45:25.000Z</time>
      </trkpt>
      <trkpt lat="30.9820251464843750" lon="-6.9355211257934570">
        <ele>1170.0</ele>
        <time>2018-10-12T10:45:26.000Z</time>
      </trkpt>
      <trkpt lat="30.9820384979248047" lon="-6.9355788230895996">
        <ele>1170.0</ele>
        <time>2018-10-12T10:45:27.000Z</time>
      </trkpt>
      <trkpt lat="30.9820518493652344" lon="-6.9356379508972168">
        <ele>1170.0</ele>
        <time>2018-10-12T10:45:28.000Z</time>
      </trkpt>
      <trkpt lat="30.9820632934570312" lon="-6.9356961250305176">
        <ele>1170.0</ele>
        <time>2018-10-12T10:45:29.000Z</time>
      </trkpt>
      <trkpt lat="30.9820747375488281" lon="-6.9357538223266602">
        <ele>1170.0</ele>
        <time>2018-10-12T10:45:30.000Z</time>
      </trkpt>
      <trkpt lat="30.9820842742919922" lon="-6.9358119964599609">
        <ele>1170.0</ele>
        <time>2018-10-12T10:45:31.000Z</time>
      </trkpt>
      <trkpt lat="30.9820957183837891" lon="-6.9358701705932617">
        <ele>1170.0</ele>
        <time>2018-10-12T10:45:32.000Z</time>
      </trkpt>
      <trkpt lat="30.9821071624755859" lon="-6.9359269142150879">
        <ele>1170.0</ele>
        <time>2018-10-12T10:45:33.000Z</time>
      </trkpt>
      <trkpt lat="30.9821205139160156" lon="-6.9359841346740723">
        <ele>1170.0</ele>
        <time>2018-10-12T10:45:34.000Z</time>
      </trkpt>
      <trkpt lat="30.9821357727050781" lon="-6.9360389709472656">
        <ele>1170.0</ele>
        <time>2018-10-12T10:45:35.000Z</time>
      </trkpt>
      <trkpt lat="30.9821491241455078" lon="-6.9360938072204590">
        <ele>1170.0</ele>
        <time>2018-10-12T10:45:36.000Z</time>
      </trkpt>
      <trkpt lat="30.9821643829345703" lon="-6.9361481666564941">
        <ele>1170.0</ele>
        <time>2018-10-12T10:45:37.000Z</time>
      </trkpt>
      <trkpt lat="30.9821777343750000" lon="-6.9362020492553711">
        <ele>1170.0</ele>
        <time>2018-10-12T10:45:38.000Z</time>
      </trkpt>
      <trkpt lat="30.9821872711181641" lon="-6.9362559318542480">
        <ele>1170.0</ele>
        <time>2018-10-12T10:45:39.000Z</time>
      </trkpt>
      <trkpt lat="30.9821949005126953" lon="-6.9363121986389160">
        <ele>1170.0</ele>
        <time>2018-10-12T10:45:40.000Z</time>
      </trkpt>
      <trkpt lat="30.9822006225585938" lon="-6.9363679885864258">
        <ele>1170.0</ele>
        <time>2018-10-12T10:45:41.000Z</time>
      </trkpt>
      <trkpt lat="30.9822063446044922" lon="-6.9364252090454102">
        <ele>1170.0</ele>
        <time>2018-10-12T10:45:42.000Z</time>
      </trkpt>
      <trkpt lat="30.9822158813476562" lon="-6.9364838600158691">
        <ele>1170.0</ele>
        <time>2018-10-12T10:45:43.000Z</time>
      </trkpt>
      <trkpt lat="30.9822273254394531" lon="-6.9365439414978027">
        <ele>1170.0</ele>
        <time>2018-10-12T10:45:44.000Z</time>
      </trkpt>
      <trkpt lat="30.9822463989257812" lon="-6.9366030693054199">
        <ele>1170.0</ele>
        <time>2018-10-12T10:45:45.000Z</time>
      </trkpt>
      <trkpt lat="30.9822635650634766" lon="-6.9366598129272461">
        <ele>1170.0</ele>
        <time>2018-10-12T10:45:46.000Z</time>
      </trkpt>
      <trkpt lat="30.9822788238525391" lon="-6.9367179870605469">
        <ele>1170.0</ele>
        <time>2018-10-12T10:45:47.000Z</time>
      </trkpt>
      <trkpt lat="30.9822921752929688" lon="-6.9367752075195312">
        <ele>1170.0</ele>
        <time>2018-10-12T10:45:48.000Z</time>
      </trkpt>
      <trkpt lat="30.9823036193847656" lon="-6.9368300437927246">
        <ele>1170.0</ele>
        <time>2018-10-12T10:45:49.000Z</time>
      </trkpt>
      <trkpt lat="30.9823131561279297" lon="-6.9368839263916016">
        <ele>1170.0</ele>
        <time>2018-10-12T10:45:50.000Z</time>
      </trkpt>
      <trkpt lat="30.9823226928710938" lon="-6.9369368553161621">
        <ele>1170.0</ele>
        <time>2018-10-12T10:45:51.000Z</time>
      </trkpt>
      <trkpt lat="30.9823284149169922" lon="-6.9369869232177734">
        <ele>1170.0</ele>
        <time>2018-10-12T10:45:52.000Z</time>
      </trkpt>
      <trkpt lat="30.9823341369628906" lon="-6.9370360374450684">
        <ele>1170.0</ele>
        <time>2018-10-12T10:45:53.000Z</time>
      </trkpt>
      <trkpt lat="30.9823398590087891" lon="-6.9370841979980469">
        <ele>1170.0</ele>
        <time>2018-10-12T10:45:54.000Z</time>
      </trkpt>
      <trkpt lat="30.9823436737060547" lon="-6.9371309280395508">
        <ele>1170.0</ele>
        <time>2018-10-12T10:45:55.000Z</time>
      </trkpt>
      <trkpt lat="30.9823513031005859" lon="-6.9371762275695801">
        <ele>1170.0</ele>
        <time>2018-10-12T10:45:56.000Z</time>
      </trkpt>
      <trkpt lat="30.9823608398437500" lon="-6.9372191429138184">
        <ele>1170.0</ele>
        <time>2018-10-12T10:45:57.000Z</time>
      </trkpt>
      <trkpt lat="30.9823684692382812" lon="-6.9372601509094238">
        <ele>1170.0</ele>
        <time>2018-10-12T10:45:58.000Z</time>
      </trkpt>
      <trkpt lat="30.9823760986328125" lon="-6.9372987747192383">
        <ele>1170.0</ele>
        <time>2018-10-12T10:45:59.000Z</time>
      </trkpt>
      <trkpt lat="30.9823856353759766" lon="-6.9373369216918945">
        <ele>1170.0</ele>
        <time>2018-10-12T10:46:00.000Z</time>
      </trkpt>
      <trkpt lat="30.9823932647705078" lon="-6.9373741149902344">
        <ele>1170.0</ele>
        <time>2018-10-12T10:46:01.000Z</time>
      </trkpt>
      <trkpt lat="30.9824047088623047" lon="-6.9374089241027832">
        <ele>1170.0</ele>
        <time>2018-10-12T10:46:02.000Z</time>
      </trkpt>
      <trkpt lat="30.9824142456054688" lon="-6.9374418258666992">
        <ele>1170.0</ele>
        <time>2018-10-12T10:46:03.000Z</time>
      </trkpt>
      <trkpt lat="30.9824275970458984" lon="-6.9374790191650391">
        <ele>1170.0</ele>
        <time>2018-10-12T10:46:04.000Z</time>
      </trkpt>
      <trkpt lat="30.9824447631835938" lon="-6.9375181198120117">
        <ele>1170.0</ele>
        <time>2018-10-12T10:46:05.000Z</time>
      </trkpt>
      <trkpt lat="30.9824676513671875" lon="-6.9375600814819336">
        <ele>1170.0</ele>
        <time>2018-10-12T10:46:06.000Z</time>
      </trkpt>
      <trkpt lat="30.9824924468994141" lon="-6.9376039505004883">
        <ele>1170.0</ele>
        <time>2018-10-12T10:46:07.000Z</time>
      </trkpt>
      <trkpt lat="30.9825191497802734" lon="-6.9376502037048340">
        <ele>1170.0</ele>
        <time>2018-10-12T10:46:08.000Z</time>
      </trkpt>
      <trkpt lat="30.9825458526611328" lon="-6.9376969337463379">
        <ele>1170.0</ele>
        <time>2018-10-12T10:46:09.000Z</time>
      </trkpt>
      <trkpt lat="30.9825706481933594" lon="-6.9377422332763672">
        <ele>1170.0</ele>
        <time>2018-10-12T10:46:10.000Z</time>
      </trkpt>
      <trkpt lat="30.9825973510742188" lon="-6.9377827644348145">
        <ele>1170.0</ele>
        <time>2018-10-12T10:46:11.000Z</time>
      </trkpt>
      <trkpt lat="30.9826278686523438" lon="-6.9378218650817871">
        <ele>1170.0</ele>
        <time>2018-10-12T10:46:12.000Z</time>
      </trkpt>
      <trkpt lat="30.9826583862304688" lon="-6.9378628730773926">
        <ele>1170.0</ele>
        <time>2018-10-12T10:46:13.000Z</time>
      </trkpt>
      <trkpt lat="30.9826889038085938" lon="-6.9379057884216309">
        <ele>1170.0</ele>
        <time>2018-10-12T10:46:14.000Z</time>
      </trkpt>
      <trkpt lat="30.9827175140380859" lon="-6.9379491806030273">
        <ele>1170.0</ele>
        <time>2018-10-12T10:46:15.000Z</time>
      </trkpt>
      <trkpt lat="30.9827442169189453" lon="-6.9379920959472656">
        <ele>1170.0</ele>
        <time>2018-10-12T10:46:16.000Z</time>
      </trkpt>
      <trkpt lat="30.9827709197998047" lon="-6.9380350112915039">
        <ele>1170.0</ele>
        <time>2018-10-12T10:46:17.000Z</time>
      </trkpt>
      <trkpt lat="30.9827919006347656" lon="-6.9380779266357422">
        <ele>1170.0</ele>
        <time>2018-10-12T10:46:18.000Z</time>
      </trkpt>
      <trkpt lat="30.9828128814697266" lon="-6.9381179809570312">
        <ele>1170.0</ele>
        <time>2018-10-12T10:46:19.000Z</time>
      </trkpt>
      <trkpt lat="30.9828338623046875" lon="-6.9381551742553711">
        <ele>1170.0</ele>
        <time>2018-10-12T10:46:20.000Z</time>
      </trkpt>
      <trkpt lat="30.9828567504882812" lon="-6.9381918907165527">
        <ele>1170.0</ele>
        <time>2018-10-12T10:46:21.000Z</time>
      </trkpt>
      <trkpt lat="30.9828777313232422" lon="-6.9382300376892090">
        <ele>1170.821044921875</ele>
        <time>2018-10-12T10:46:22.000Z</time>
      </trkpt>
      <trkpt lat="30.9829006195068359" lon="-6.9382710456848145">
        <ele>1171.0</ele>
        <time>2018-10-12T10:46:23.000Z</time>
      </trkpt>
      <trkpt lat="30.9829235076904297" lon="-6.9383149147033691">
        <ele>1171.0</ele>
        <time>2018-10-12T10:46:24.000Z</time>
      </trkpt>
      <trkpt lat="30.9829483032226562" lon="-6.9383578300476074">
        <ele>1171.0</ele>
        <time>2018-10-12T10:46:25.000Z</time>
      </trkpt>
      <trkpt lat="30.9829769134521484" lon="-6.9383997917175293">
        <ele>1171.0</ele>
        <time>2018-10-12T10:46:26.000Z</time>
      </trkpt>
      <trkpt lat="30.9830036163330078" lon="-6.9384398460388184">
        <ele>1171.0</ele>
        <time>2018-10-12T10:46:27.000Z</time>
      </trkpt>
      <trkpt lat="30.9830341339111328" lon="-6.9384789466857910">
        <ele>1171.0</ele>
        <time>2018-10-12T10:46:28.000Z</time>
      </trkpt>
      <trkpt lat="30.9830665588378906" lon="-6.9385170936584473">
        <ele>1171.0</ele>
        <time>2018-10-12T10:46:29.000Z</time>
      </trkpt>
      <trkpt lat="30.9831008911132812" lon="-6.9385519027709961">
        <ele>1171.0</ele>
        <time>2018-10-12T10:46:30.000Z</time>
      </trkpt>
      <trkpt lat="30.9831333160400391" lon="-6.9385848045349121">
        <ele>1171.0</ele>
        <time>2018-10-12T10:46:31.000Z</time>
      </trkpt>
      <trkpt lat="30.9831695556640625" lon="-6.9386157989501953">
        <ele>1171.0</ele>
        <time>2018-10-12T10:46:32.000Z</time>
      </trkpt>
      <trkpt lat="30.9832057952880859" lon="-6.9386458396911621">
        <ele>1171.0</ele>
        <time>2018-10-12T10:46:33.000Z</time>
      </trkpt>
      <trkpt lat="30.9832420349121094" lon="-6.9386730194091797">
        <ele>1171.0</ele>
        <time>2018-10-12T10:46:34.000Z</time>
      </trkpt>
      <trkpt lat="30.9832782745361328" lon="-6.9387001991271973">
        <ele>1171.0</ele>
        <time>2018-10-12T10:46:35.000Z</time>
      </trkpt>
      <trkpt lat="30.9833164215087891" lon="-6.9387249946594238">
        <ele>1171.0</ele>
        <time>2018-10-12T10:46:36.000Z</time>
      </trkpt>
      <trkpt lat="30.9833545684814453" lon="-6.9387497901916504">
        <ele>1171.0</ele>
        <time>2018-10-12T10:46:37.000Z</time>
      </trkpt>
      <trkpt lat="30.9833927154541016" lon="-6.9387741088867188">
        <ele>1171.0</ele>
        <time>2018-10-12T10:46:38.000Z</time>
      </trkpt>
      <trkpt lat="30.9834289550781250" lon="-6.9387969970703125">
        <ele>1171.0</ele>
        <time>2018-10-12T10:46:39.000Z</time>
      </trkpt>
      <trkpt lat="30.9834671020507812" lon="-6.9388208389282227">
        <ele>1171.0</ele>
        <time>2018-10-12T10:46:40.000Z</time>
      </trkpt>
      <trkpt lat="30.9835052490234375" lon="-6.9388427734375000">
        <ele>1171.0</ele>
        <time>2018-10-12T10:46:41.000Z</time>
      </trkpt>
      <trkpt lat="30.9835433959960938" lon="-6.9388670921325684">
        <ele>1171.0</ele>
        <time>2018-10-12T10:46:42.000Z</time>
      </trkpt>
      <trkpt lat="30.9835815429687500" lon="-6.9388909339904785">
        <ele>1171.0</ele>
        <time>2018-10-12T10:46:43.000Z</time>
      </trkpt>
      <trkpt lat="30.9836196899414062" lon="-6.9389162063598633">
        <ele>1171.0</ele>
        <time>2018-10-12T10:46:44.000Z</time>
      </trkpt>
      <trkpt lat="30.9836559295654297" lon="-6.9389390945434570">
        <ele>1171.0</ele>
        <time>2018-10-12T10:46:45.000Z</time>
      </trkpt>
      <trkpt lat="30.9836940765380859" lon="-6.9389610290527344">
        <ele>1171.0</ele>
        <time>2018-10-12T10:46:46.000Z</time>
      </trkpt>
      <trkpt lat="30.9837303161621094" lon="-6.9389829635620117">
        <ele>1171.0</ele>
        <time>2018-10-12T10:46:47.000Z</time>
      </trkpt>
      <trkpt lat="30.9837684631347656" lon="-6.9390058517456055">
        <ele>1171.0</ele>
        <time>2018-10-12T10:46:48.000Z</time>
      </trkpt>
      <trkpt lat="30.9838047027587891" lon="-6.9390301704406738">
        <ele>1171.0</ele>
        <time>2018-10-12T10:46:49.000Z</time>
      </trkpt>
      <trkpt lat="30.9838371276855469" lon="-6.9390530586242676">
        <ele>1171.0</ele>
        <time>2018-10-12T10:46:50.000Z</time>
      </trkpt>
      <trkpt lat="30.9838733673095703" lon="-6.9390778541564941">
        <ele>1171.0</ele>
        <time>2018-10-12T10:46:51.000Z</time>
      </trkpt>
      <trkpt lat="30.9839076995849609" lon="-6.9391031265258789">
        <ele>1171.821044921875</ele>
        <time>2018-10-12T10:46:52.000Z</time>
      </trkpt>
      <trkpt lat="30.9839439392089844" lon="-6.9391279220581055">
        <ele>1172.0</ele>
        <time>2018-10-12T10:46:53.000Z</time>
      </trkpt>
      <trkpt lat="30.9839782714843750" lon="-6.9391517639160156">
        <ele>1172.0</ele>
        <time>2018-10-12T10:46:54.000Z</time>
      </trkpt>
      <trkpt lat="30.9840145111083984" lon="-6.9391760826110840">
        <ele>1172.0</ele>
        <time>2018-10-12T10:46:55.000Z</time>
      </trkpt>
      <trkpt lat="30.9840507507324219" lon="-6.9392018318176270">
        <ele>1172.0</ele>
        <time>2018-10-12T10:46:56.000Z</time>
      </trkpt>
      <trkpt lat="30.9840850830078125" lon="-6.9392290115356445">
        <ele>1172.0</ele>
        <time>2018-10-12T10:46:57.000Z</time>
      </trkpt>
      <trkpt lat="30.9841213226318359" lon="-6.9392552375793457">
        <ele>1172.0</ele>
        <time>2018-10-12T10:46:58.000Z</time>
      </trkpt>
      <trkpt lat="30.9841575622558594" lon="-6.9392800331115723">
        <ele>1172.0</ele>
        <time>2018-10-12T10:46:59.000Z</time>
      </trkpt>
      <trkpt lat="30.9841938018798828" lon="-6.9393019676208496">
        <ele>1172.0</ele>
        <time>2018-10-12T10:47:00.000Z</time>
      </trkpt>
      <trkpt lat="30.9842281341552734" lon="-6.9393258094787598">
        <ele>1172.0</ele>
        <time>2018-10-12T10:47:01.000Z</time>
      </trkpt>
      <trkpt lat="30.9842624664306641" lon="-6.9393520355224609">
        <ele>1172.0</ele>
        <time>2018-10-12T10:47:02.000Z</time>
      </trkpt>
      <trkpt lat="30.9842967987060547" lon="-6.9393768310546875">
        <ele>1172.0</ele>
        <time>2018-10-12T10:47:03.000Z</time>
      </trkpt>
      <trkpt lat="30.9843311309814453" lon="-6.9394011497497559">
        <ele>1172.0</ele>
        <time>2018-10-12T10:47:04.000Z</time>
      </trkpt>
      <trkpt lat="30.9843673706054688" lon="-6.9394249916076660">
        <ele>1172.0</ele>
        <time>2018-10-12T10:47:05.000Z</time>
      </trkpt>
      <trkpt lat="30.9844036102294922" lon="-6.9394469261169434">
        <ele>1172.626708984375</ele>
        <time>2018-10-12T10:47:06.000Z</time>
      </trkpt>
      <trkpt lat="30.9844379425048828" lon="-6.9394698143005371">
        <ele>1173.0</ele>
        <time>2018-10-12T10:47:07.000Z</time>
      </trkpt>
      <trkpt lat="30.9844722747802734" lon="-6.9394941329956055">
        <ele>1173.0</ele>
        <time>2018-10-12T10:47:08.000Z</time>
      </trkpt>
      <trkpt lat="30.9845085144042969" lon="-6.9395160675048828">
        <ele>1173.0</ele>
        <time>2018-10-12T10:47:09.000Z</time>
      </trkpt>
      <trkpt lat="30.9845428466796875" lon="-6.9395370483398438">
        <ele>1172.178955078125</ele>
        <time>2018-10-12T10:47:10.000Z</time>
      </trkpt>
      <trkpt lat="30.9845790863037109" lon="-6.9395589828491211">
        <ele>1172.0</ele>
        <time>2018-10-12T10:47:11.000Z</time>
      </trkpt>
      <trkpt lat="30.9846134185791016" lon="-6.9395790100097656">
        <ele>1172.0</ele>
        <time>2018-10-12T10:47:12.000Z</time>
      </trkpt>
      <trkpt lat="30.9846496582031250" lon="-6.9395999908447266">
        <ele>1172.0</ele>
        <time>2018-10-12T10:47:13.000Z</time>
      </trkpt>
      <trkpt lat="30.9846858978271484" lon="-6.9396181106567383">
        <ele>1171.363525390625</ele>
        <time>2018-10-12T10:47:14.000Z</time>
      </trkpt>
      <trkpt lat="30.9847164154052734" lon="-6.9396381378173828">
        <ele>1171.7479248046875</ele>
        <time>2018-10-12T10:47:15.000Z</time>
      </trkpt>
      <trkpt lat="30.9847488403320312" lon="-6.9396591186523438">
        <ele>1172.0</ele>
        <time>2018-10-12T10:47:16.000Z</time>
      </trkpt>
      <trkpt lat="30.9847793579101562" lon="-6.9396767616271973">
        <ele>1172.0</ele>
        <time>2018-10-12T10:47:17.000Z</time>
      </trkpt>
      <trkpt lat="30.9848079681396484" lon="-6.9396929740905762">
        <ele>1172.0</ele>
        <time>2018-10-12T10:47:18.000Z</time>
      </trkpt>
      <trkpt lat="30.9848365783691406" lon="-6.9397058486938477">
        <ele>1172.0</ele>
        <time>2018-10-12T10:47:19.000Z</time>
      </trkpt>
      <trkpt lat="30.9848651885986328" lon="-6.9397177696228027">
        <ele>1172.0</ele>
        <time>2018-10-12T10:47:20.000Z</time>
      </trkpt>
      <trkpt lat="30.9848976135253906" lon="-6.9397277832031250">
        <ele>1172.0</ele>
        <time>2018-10-12T10:47:21.000Z</time>
      </trkpt>
      <trkpt lat="30.9849319458007812" lon="-6.9397377967834473">
        <ele>1172.0</ele>
        <time>2018-10-12T10:47:22.000Z</time>
      </trkpt>
      <trkpt lat="30.9849681854248047" lon="-6.9397511482238770">
        <ele>1172.821044921875</ele>
        <time>2018-10-12T10:47:23.000Z</time>
      </trkpt>
      <trkpt lat="30.9850063323974609" lon="-6.9397659301757812">
        <ele>1173.0</ele>
        <time>2018-10-12T10:47:24.000Z</time>
      </trkpt>
      <trkpt lat="30.9850444793701172" lon="-6.9397811889648438">
        <ele>1173.0</ele>
        <time>2018-10-12T10:47:25.000Z</time>
      </trkpt>
      <trkpt lat="30.9850826263427734" lon="-6.9397950172424316">
        <ele>1173.0</ele>
        <time>2018-10-12T10:47:26.000Z</time>
      </trkpt>
      <trkpt lat="30.9851226806640625" lon="-6.9398069381713867">
        <ele>1173.0</ele>
        <time>2018-10-12T10:47:27.000Z</time>
      </trkpt>
      <trkpt lat="30.9851608276367188" lon="-6.9398159980773926">
        <ele>1173.0</ele>
        <time>2018-10-12T10:47:28.000Z</time>
      </trkpt>
      <trkpt lat="30.9852008819580078" lon="-6.9398241043090820">
        <ele>1173.0</ele>
        <time>2018-10-12T10:47:29.000Z</time>
      </trkpt>
      <trkpt lat="30.9852371215820312" lon="-6.9398298263549805">
        <ele>1173.0</ele>
        <time>2018-10-12T10:47:30.000Z</time>
      </trkpt>
      <trkpt lat="30.9852733612060547" lon="-6.9398379325866699">
        <ele>1173.0</ele>
        <time>2018-10-12T10:47:31.000Z</time>
      </trkpt>
      <trkpt lat="30.9853096008300781" lon="-6.9398441314697266">
        <ele>1173.0</ele>
        <time>2018-10-12T10:47:32.000Z</time>
      </trkpt>
      <trkpt lat="30.9853458404541016" lon="-6.9398450851440430">
        <ele>1173.0</ele>
        <time>2018-10-12T10:47:33.000Z</time>
      </trkpt>
      <trkpt lat="30.9853820800781250" lon="-6.9398341178894043">
        <ele>1173.0</ele>
        <time>2018-10-12T10:47:34.000Z</time>
      </trkpt>
      <trkpt lat="30.9854145050048828" lon="-6.9398159980773926">
        <ele>1173.0</ele>
        <time>2018-10-12T10:47:35.000Z</time>
      </trkpt>
      <trkpt lat="30.9854469299316406" lon="-6.9397959709167480">
        <ele>1173.0</ele>
        <time>2018-10-12T10:47:36.000Z</time>
      </trkpt>
      <trkpt lat="30.9854774475097656" lon="-6.9397759437561035">
        <ele>1173.0</ele>
        <time>2018-10-12T10:47:37.000Z</time>
      </trkpt>
      <trkpt lat="30.9855060577392578" lon="-6.9397578239440918">
        <ele>1173.0</ele>
        <time>2018-10-12T10:47:38.000Z</time>
      </trkpt>
      <trkpt lat="30.9855365753173828" lon="-6.9397430419921875">
        <ele>1173.0</ele>
        <time>2018-10-12T10:47:39.000Z</time>
      </trkpt>
      <trkpt lat="30.9855670928955078" lon="-6.9397292137145996">
        <ele>1173.0</ele>
        <time>2018-10-12T10:47:40.000Z</time>
      </trkpt>
      <trkpt lat="30.9855995178222656" lon="-6.9397177696228027">
        <ele>1173.0</ele>
        <time>2018-10-12T10:47:41.000Z</time>
      </trkpt>
      <trkpt lat="30.9856319427490234" lon="-6.9397091865539551">
        <ele>1173.0</ele>
        <time>2018-10-12T10:47:42.000Z</time>
      </trkpt>
      <trkpt lat="30.9856662750244141" lon="-6.9397029876708984">
        <ele>1173.0</ele>
        <time>2018-10-12T10:47:43.000Z</time>
      </trkpt>
      <trkpt lat="30.9857006072998047" lon="-6.9396991729736328">
        <ele>1173.0</ele>
        <time>2018-10-12T10:47:44.000Z</time>
      </trkpt>
      <trkpt lat="30.9857368469238281" lon="-6.9396967887878418">
        <ele>1173.821044921875</ele>
        <time>2018-10-12T10:47:45.000Z</time>
      </trkpt>
      <trkpt lat="30.9857692718505859" lon="-6.9396958351135254">
        <ele>1174.0</ele>
        <time>2018-10-12T10:47:46.000Z</time>
      </trkpt>
      <trkpt lat="30.9858036041259766" lon="-6.9396991729736328">
        <ele>1173.178955078125</ele>
        <time>2018-10-12T10:47:47.000Z</time>
      </trkpt>
      <trkpt lat="30.9858379364013672" lon="-6.9397058486938477">
        <ele>1173.0</ele>
        <time>2018-10-12T10:47:48.000Z</time>
      </trkpt>
      <trkpt lat="30.9858684539794922" lon="-6.9397158622741699">
        <ele>1173.0</ele>
        <time>2018-10-12T10:47:49.000Z</time>
      </trkpt>
      <trkpt lat="30.9859027862548828" lon="-6.9397230148315430">
        <ele>1173.0</ele>
        <time>2018-10-12T10:47:50.000Z</time>
      </trkpt>
      <trkpt lat="30.9859352111816406" lon="-6.9397277832031250">
        <ele>1173.0</ele>
        <time>2018-10-12T10:47:51.000Z</time>
      </trkpt>
      <trkpt lat="30.9859695434570312" lon="-6.9397320747375488">
        <ele>1173.636474609375</ele>
        <time>2018-10-12T10:47:52.000Z</time>
      </trkpt>
      <trkpt lat="30.9860038757324219" lon="-6.9397349357604980">
        <ele>1174.0</ele>
        <time>2018-10-12T10:47:53.000Z</time>
      </trkpt>
      <trkpt lat="30.9860382080078125" lon="-6.9397349357604980">
        <ele>1174.0</ele>
        <time>2018-10-12T10:47:54.000Z</time>
      </trkpt>
      <trkpt lat="30.9860725402832031" lon="-6.9397349357604980">
        <ele>1174.0</ele>
        <time>2018-10-12T10:47:55.000Z</time>
      </trkpt>
      <trkpt lat="30.9861068725585938" lon="-6.9397339820861816">
        <ele>1174.0</ele>
        <time>2018-10-12T10:47:56.000Z</time>
      </trkpt>
      <trkpt lat="30.9861392974853516" lon="-6.9397330284118652">
        <ele>1174.0</ele>
        <time>2018-10-12T10:47:57.000Z</time>
      </trkpt>
      <trkpt lat="30.9861736297607422" lon="-6.9397301673889160">
        <ele>1174.0</ele>
        <time>2018-10-12T10:47:58.000Z</time>
      </trkpt>
      <trkpt lat="30.9862060546875000" lon="-6.9397258758544922">
        <ele>1174.0</ele>
        <time>2018-10-12T10:47:59.000Z</time>
      </trkpt>
      <trkpt lat="30.9862403869628906" lon="-6.9397211074829102">
        <ele>1174.0</ele>
        <time>2018-10-12T10:48:00.000Z</time>
      </trkpt>
      <trkpt lat="30.9862747192382812" lon="-6.9397158622741699">
        <ele>1174.0</ele>
        <time>2018-10-12T10:48:01.000Z</time>
      </trkpt>
      <trkpt lat="30.9863090515136719" lon="-6.9397101402282715">
        <ele>1174.0</ele>
        <time>2018-10-12T10:48:02.000Z</time>
      </trkpt>
      <trkpt lat="30.9863414764404297" lon="-6.9397039413452148">
        <ele>1174.7406005859375</ele>
        <time>2018-10-12T10:48:03.000Z</time>
      </trkpt>
      <trkpt lat="30.9863739013671875" lon="-6.9396982192993164">
        <ele>1175.0</ele>
        <time>2018-10-12T10:48:04.000Z</time>
      </trkpt>
      <trkpt lat="30.9864044189453125" lon="-6.9396948814392090">
        <ele>1175.0</ele>
        <time>2018-10-12T10:48:05.000Z</time>
      </trkpt>
      <trkpt lat="30.9864368438720703" lon="-6.9396948814392090">
        <ele>1175.0</ele>
        <time>2018-10-12T10:48:06.000Z</time>
      </trkpt>
      <trkpt lat="30.9864711761474609" lon="-6.9396958351135254">
        <ele>1175.0</ele>
        <time>2018-10-12T10:48:07.000Z</time>
      </trkpt>
      <trkpt lat="30.9865074157714844" lon="-6.9396939277648926">
        <ele>1175.0</ele>
        <time>2018-10-12T10:48:08.000Z</time>
      </trkpt>
      <trkpt lat="30.9865455627441406" lon="-6.9396910667419434">
        <ele>1175.0</ele>
        <time>2018-10-12T10:48:09.000Z</time>
      </trkpt>
      <trkpt lat="30.9865818023681641" lon="-6.9396882057189941">
        <ele>1175.0</ele>
        <time>2018-10-12T10:48:10.000Z</time>
      </trkpt>
      <trkpt lat="30.9866161346435547" lon="-6.9396781921386719">
        <ele>1175.0</ele>
        <time>2018-10-12T10:48:11.000Z</time>
      </trkpt>
      <trkpt lat="30.9866428375244141" lon="-6.9396548271179199">
        <ele>1175.0</ele>
        <time>2018-10-12T10:48:12.000Z</time>
      </trkpt>
      <trkpt lat="30.9866561889648438" lon="-6.9396247863769531">
        <ele>1175.0</ele>
        <time>2018-10-12T10:48:13.000Z</time>
      </trkpt>
      <trkpt lat="30.9866600036621094" lon="-6.9395937919616699">
        <ele>1174.178955078125</ele>
        <time>2018-10-12T10:48:14.000Z</time>
      </trkpt>
      <trkpt lat="30.9866561889648438" lon="-6.9395627975463867">
        <ele>1174.0</ele>
        <time>2018-10-12T10:48:15.000Z</time>
      </trkpt>
      <trkpt lat="30.9866542816162109" lon="-6.9395332336425781">
        <ele>1174.0</ele>
        <time>2018-10-12T10:48:16.000Z</time>
      </trkpt>
      <trkpt lat="30.9866523742675781" lon="-6.9395017623901367">
        <ele>1174.0</ele>
        <time>2018-10-12T10:48:17.000Z</time>
      </trkpt>
      <trkpt lat="30.9866485595703125" lon="-6.9394707679748535">
        <ele>1174.0</ele>
        <time>2018-10-12T10:48:18.000Z</time>
      </trkpt>
      <trkpt lat="30.9866466522216797" lon="-6.9394388198852539">
        <ele>1174.0</ele>
        <time>2018-10-12T10:48:19.000Z</time>
      </trkpt>
      <trkpt lat="30.9866485595703125" lon="-6.9394102096557617">
        <ele>1174.0</ele>
        <time>2018-10-12T10:48:20.000Z</time>
      </trkpt>
      <trkpt lat="30.9866523742675781" lon="-6.9393839836120605">
        <ele>1174.0</ele>
        <time>2018-10-12T10:48:21.000Z</time>
      </trkpt>
      <trkpt lat="30.9866561889648438" lon="-6.9393601417541504">
        <ele>1174.0</ele>
        <time>2018-10-12T10:48:22.000Z</time>
      </trkpt>
      <trkpt lat="30.9866638183593750" lon="-6.9393401145935059">
        <ele>1174.0</ele>
        <time>2018-10-12T10:48:23.000Z</time>
      </trkpt>
      <trkpt lat="30.9866733551025391" lon="-6.9393072128295898">
        <ele>1174.0</ele>
        <time>2018-10-12T10:48:25.000Z</time>
      </trkpt>
      <trkpt lat="30.9866828918457031" lon="-6.9392771720886230">
        <ele>1174.0</ele>
        <time>2018-10-12T10:48:27.000Z</time>
      </trkpt>
      <trkpt lat="30.9867038726806641" lon="-6.9392561912536621">
        <ele>1174.0</ele>
        <time>2018-10-12T10:48:29.000Z</time>
      </trkpt>
      <trkpt lat="30.9867191314697266" lon="-6.9392418861389160">
        <ele>1174.0</ele>
        <time>2018-10-12T10:48:31.000Z</time>
      </trkpt>
      <trkpt lat="30.9867305755615234" lon="-6.9392209053039551">
        <ele>1173.0</ele>
        <time>2018-10-12T10:51:13.000Z</time>
      </trkpt>
      <trkpt lat="30.9867172241210938" lon="-6.9392380714416504">
        <ele>1173.0</ele>
        <time>2018-10-12T10:51:16.000Z</time>
      </trkpt>
      <trkpt lat="30.9867343902587891" lon="-6.9392290115356445">
        <ele>1173.0</ele>
        <time>2018-10-12T10:51:23.000Z</time>
      </trkpt>
      <trkpt lat="30.9867439270019531" lon="-6.9392089843750000">
        <ele>1173.0</ele>
        <time>2018-10-12T10:51:25.000Z</time>
      </trkpt>
      <trkpt lat="30.9867439270019531" lon="-6.9392027854919434">
        <ele>1174.0010986328125</ele>
        <time>2018-10-12T10:52:59.000Z</time>
      </trkpt>
      <trkpt lat="30.9879379272460938" lon="-6.9407677650451660">
        <ele>1179.0</ele>
        <time>2018-10-12T12:41:40.000Z</time>
      </trkpt>
      <trkpt lat="30.9879646301269531" lon="-6.9407830238342285">
        <ele>1179.0</ele>
        <time>2018-10-12T12:41:41.000Z</time>
      </trkpt>
      <trkpt lat="30.9879894256591797" lon="-6.9407968521118164">
        <ele>1179.0</ele>
        <time>2018-10-12T12:41:42.000Z</time>
      </trkpt>
      <trkpt lat="30.9880161285400391" lon="-6.9408121109008789">
        <ele>1179.0</ele>
        <time>2018-10-12T12:41:43.000Z</time>
      </trkpt>
      <trkpt lat="30.9880428314208984" lon="-6.9408259391784668">
        <ele>1179.0</ele>
        <time>2018-10-12T12:41:44.000Z</time>
      </trkpt>
      <trkpt lat="30.9880676269531250" lon="-6.9408397674560547">
        <ele>1179.0</ele>
        <time>2018-10-12T12:41:45.000Z</time>
      </trkpt>
      <trkpt lat="30.9880924224853516" lon="-6.9408559799194336">
        <ele>1179.0</ele>
        <time>2018-10-12T12:41:46.000Z</time>
      </trkpt>
      <trkpt lat="30.9881191253662109" lon="-6.9408707618713379">
        <ele>1179.0</ele>
        <time>2018-10-12T12:41:47.000Z</time>
      </trkpt>
      <trkpt lat="30.9881439208984375" lon="-6.9408841133117676">
        <ele>1179.0</ele>
        <time>2018-10-12T12:41:48.000Z</time>
      </trkpt>
      <trkpt lat="30.9881706237792969" lon="-6.9408969879150391">
        <ele>1179.0</ele>
        <time>2018-10-12T12:41:49.000Z</time>
      </trkpt>
      <trkpt lat="30.9881973266601562" lon="-6.9409108161926270">
        <ele>1179.0</ele>
        <time>2018-10-12T12:41:50.000Z</time>
      </trkpt>
      <trkpt lat="30.9882259368896484" lon="-6.9409251213073730">
        <ele>1179.0</ele>
        <time>2018-10-12T12:41:51.000Z</time>
      </trkpt>
      <trkpt lat="30.9882545471191406" lon="-6.9409399032592773">
        <ele>1179.0</ele>
        <time>2018-10-12T12:41:52.000Z</time>
      </trkpt>
      <trkpt lat="30.9882812500000000" lon="-6.9409561157226562">
        <ele>1179.0</ele>
        <time>2018-10-12T12:41:53.000Z</time>
      </trkpt>
      <trkpt lat="30.9883079528808594" lon="-6.9409718513488770">
        <ele>1179.0</ele>
        <time>2018-10-12T12:41:54.000Z</time>
      </trkpt>
      <trkpt lat="30.9883346557617188" lon="-6.9409880638122559">
        <ele>1179.0</ele>
        <time>2018-10-12T12:41:55.000Z</time>
      </trkpt>
      <trkpt lat="30.9883613586425781" lon="-6.9410028457641602">
        <ele>1179.0</ele>
        <time>2018-10-12T12:41:56.000Z</time>
      </trkpt>
      <trkpt lat="30.9883880615234375" lon="-6.9410181045532227">
        <ele>1179.0</ele>
        <time>2018-10-12T12:41:57.000Z</time>
      </trkpt>
      <trkpt lat="30.9884166717529297" lon="-6.9410319328308105">
        <ele>1179.626708984375</ele>
        <time>2018-10-12T12:41:58.000Z</time>
      </trkpt>
      <trkpt lat="30.9884433746337891" lon="-6.9410481452941895">
        <ele>1180.0</ele>
        <time>2018-10-12T12:41:59.000Z</time>
      </trkpt>
      <trkpt lat="30.9884700775146484" lon="-6.9410638809204102">
        <ele>1180.0</ele>
        <time>2018-10-12T12:42:00.000Z</time>
      </trkpt>
      <trkpt lat="30.9884986877441406" lon="-6.9410800933837891">
        <ele>1180.0</ele>
        <time>2018-10-12T12:42:01.000Z</time>
      </trkpt>
      <trkpt lat="30.9885272979736328" lon="-6.9410958290100098">
        <ele>1180.0</ele>
        <time>2018-10-12T12:42:02.000Z</time>
      </trkpt>
      <trkpt lat="30.9885540008544922" lon="-6.9411101341247559">
        <ele>1180.0</ele>
        <time>2018-10-12T12:42:03.000Z</time>
      </trkpt>
      <trkpt lat="30.9885807037353516" lon="-6.9411249160766602">
        <ele>1180.0</ele>
        <time>2018-10-12T12:42:04.000Z</time>
      </trkpt>
      <trkpt lat="30.9886093139648438" lon="-6.9411401748657227">
        <ele>1180.0</ele>
        <time>2018-10-12T12:42:05.000Z</time>
      </trkpt>
      <trkpt lat="30.9886360168457031" lon="-6.9411549568176270">
        <ele>1180.0</ele>
        <time>2018-10-12T12:42:06.000Z</time>
      </trkpt>
      <trkpt lat="30.9886646270751953" lon="-6.9411702156066895">
        <ele>1180.0</ele>
        <time>2018-10-12T12:42:07.000Z</time>
      </trkpt>
      <trkpt lat="30.9886913299560547" lon="-6.9411849975585938">
        <ele>1180.0</ele>
        <time>2018-10-12T12:42:08.000Z</time>
      </trkpt>
      <trkpt lat="30.9887199401855469" lon="-6.9411997795104980">
        <ele>1179.178955078125</ele>
        <time>2018-10-12T12:42:09.000Z</time>
      </trkpt>
      <trkpt lat="30.9887466430664062" lon="-6.9412150382995605">
        <ele>1179.0</ele>
        <time>2018-10-12T12:42:10.000Z</time>
      </trkpt>
      <trkpt lat="30.9887733459472656" lon="-6.9412322044372559">
        <ele>1179.0</ele>
        <time>2018-10-12T12:42:11.000Z</time>
      </trkpt>
      <trkpt lat="30.9888000488281250" lon="-6.9412469863891602">
        <ele>1179.0</ele>
        <time>2018-10-12T12:42:12.000Z</time>
      </trkpt>
      <trkpt lat="30.9888286590576172" lon="-6.9412617683410645">
        <ele>1179.0</ele>
        <time>2018-10-12T12:42:13.000Z</time>
      </trkpt>
      <trkpt lat="30.9888553619384766" lon="-6.9412751197814941">
        <ele>1179.821044921875</ele>
        <time>2018-10-12T12:42:14.000Z</time>
      </trkpt>
      <trkpt lat="30.9888820648193359" lon="-6.9412899017333984">
        <ele>1180.0</ele>
        <time>2018-10-12T12:42:15.000Z</time>
      </trkpt>
      <trkpt lat="30.9889087677001953" lon="-6.9413061141967773">
        <ele>1180.0</ele>
        <time>2018-10-12T12:42:16.000Z</time>
      </trkpt>
      <trkpt lat="30.9889354705810547" lon="-6.9413199424743652">
        <ele>1180.0</ele>
        <time>2018-10-12T12:42:17.000Z</time>
      </trkpt>
      <trkpt lat="30.9889621734619141" lon="-6.9413318634033203">
        <ele>1180.0</ele>
        <time>2018-10-12T12:42:18.000Z</time>
      </trkpt>
      <trkpt lat="30.9889888763427734" lon="-6.9413461685180664">
        <ele>1180.0</ele>
        <time>2018-10-12T12:42:19.000Z</time>
      </trkpt>
      <trkpt lat="30.9890155792236328" lon="-6.9413599967956543">
        <ele>1180.0</ele>
        <time>2018-10-12T12:42:20.000Z</time>
      </trkpt>
      <trkpt lat="30.9890422821044922" lon="-6.9413738250732422">
        <ele>1180.0</ele>
        <time>2018-10-12T12:42:21.000Z</time>
      </trkpt>
      <trkpt lat="30.9890708923339844" lon="-6.9413881301879883">
        <ele>1180.0</ele>
        <time>2018-10-12T12:42:22.000Z</time>
      </trkpt>
      <trkpt lat="30.9890975952148438" lon="-6.9414029121398926">
        <ele>1180.0</ele>
        <time>2018-10-12T12:42:23.000Z</time>
      </trkpt>
      <trkpt lat="30.9891242980957031" lon="-6.9414181709289551">
        <ele>1180.0</ele>
        <time>2018-10-12T12:42:24.000Z</time>
      </trkpt>
      <trkpt lat="30.9891529083251953" lon="-6.9414329528808594">
        <ele>1180.0</ele>
        <time>2018-10-12T12:42:25.000Z</time>
      </trkpt>
      <trkpt lat="30.9891796112060547" lon="-6.9414482116699219">
        <ele>1180.0</ele>
        <time>2018-10-12T12:42:26.000Z</time>
      </trkpt>
      <trkpt lat="30.9892063140869141" lon="-6.9414649009704590">
        <ele>1180.0</ele>
        <time>2018-10-12T12:42:27.000Z</time>
      </trkpt>
      <trkpt lat="30.9892349243164062" lon="-6.9414830207824707">
        <ele>1180.0</ele>
        <time>2018-10-12T12:42:28.000Z</time>
      </trkpt>
      <trkpt lat="30.9892635345458984" lon="-6.9414992332458496">
        <ele>1180.0</ele>
        <time>2018-10-12T12:42:29.000Z</time>
      </trkpt>
      <trkpt lat="30.9892921447753906" lon="-6.9415140151977539">
        <ele>1180.0</ele>
        <time>2018-10-12T12:42:30.000Z</time>
      </trkpt>
      <trkpt lat="30.9893226623535156" lon="-6.9415278434753418">
        <ele>1180.0</ele>
        <time>2018-10-12T12:42:31.000Z</time>
      </trkpt>
      <trkpt lat="30.9893531799316406" lon="-6.9415421485900879">
        <ele>1180.0</ele>
        <time>2018-10-12T12:42:32.000Z</time>
      </trkpt>
      <trkpt lat="30.9893856048583984" lon="-6.9415550231933594">
        <ele>1180.0</ele>
        <time>2018-10-12T12:42:33.000Z</time>
      </trkpt>
      <trkpt lat="30.9894161224365234" lon="-6.9415669441223145">
        <ele>1180.0</ele>
        <time>2018-10-12T12:42:34.000Z</time>
      </trkpt>
      <trkpt lat="30.9894504547119141" lon="-6.9415798187255859">
        <ele>1180.0</ele>
        <time>2018-10-12T12:42:35.000Z</time>
      </trkpt>
      <trkpt lat="30.9894866943359375" lon="-6.9415907859802246">
        <ele>1180.0</ele>
        <time>2018-10-12T12:42:36.000Z</time>
      </trkpt>
      <trkpt lat="30.9895191192626953" lon="-6.9416007995605469">
        <ele>1180.0</ele>
        <time>2018-10-12T12:42:37.000Z</time>
      </trkpt>
      <trkpt lat="30.9895534515380859" lon="-6.9416117668151855">
        <ele>1180.0</ele>
        <time>2018-10-12T12:42:38.000Z</time>
      </trkpt>
      <trkpt lat="30.9895839691162109" lon="-6.9416241645812988">
        <ele>1180.0</ele>
        <time>2018-10-12T12:42:39.000Z</time>
      </trkpt>
      <trkpt lat="30.9896125793457031" lon="-6.9416351318359375">
        <ele>1180.0</ele>
        <time>2018-10-12T12:42:40.000Z</time>
      </trkpt>
      <trkpt lat="30.9896373748779297" lon="-6.9416460990905762">
        <ele>1180.821044921875</ele>
        <time>2018-10-12T12:42:41.000Z</time>
      </trkpt>
      <trkpt lat="30.9896621704101562" lon="-6.9416570663452148">
        <ele>1181.0</ele>
        <time>2018-10-12T12:42:42.000Z</time>
      </trkpt>
      <trkpt lat="30.9896850585937500" lon="-6.9416689872741699">
        <ele>1181.0</ele>
        <time>2018-10-12T12:42:43.000Z</time>
      </trkpt>
      <trkpt lat="30.9897079467773438" lon="-6.9416790008544922">
        <ele>1181.0</ele>
        <time>2018-10-12T12:42:44.000Z</time>
      </trkpt>
      <trkpt lat="30.9897270202636719" lon="-6.9416880607604980">
        <ele>1181.0</ele>
        <time>2018-10-12T12:42:45.000Z</time>
      </trkpt>
      <trkpt lat="30.9897460937500000" lon="-6.9416971206665039">
        <ele>1181.0</ele>
        <time>2018-10-12T12:42:46.000Z</time>
      </trkpt>
      <trkpt lat="30.9897670745849609" lon="-6.9417071342468262">
        <ele>1181.0</ele>
        <time>2018-10-12T12:42:47.000Z</time>
      </trkpt>
      <trkpt lat="30.9897918701171875" lon="-6.9417171478271484">
        <ele>1181.0</ele>
        <time>2018-10-12T12:42:48.000Z</time>
      </trkpt>
      <trkpt lat="30.9898166656494141" lon="-6.9417262077331543">
        <ele>1181.0</ele>
        <time>2018-10-12T12:42:49.000Z</time>
      </trkpt>
      <trkpt lat="30.9898414611816406" lon="-6.9417362213134766">
        <ele>1181.0</ele>
        <time>2018-10-12T12:42:50.000Z</time>
      </trkpt>
      <trkpt lat="30.9898662567138672" lon="-6.9417471885681152">
        <ele>1181.0</ele>
        <time>2018-10-12T12:42:51.000Z</time>
      </trkpt>
      <trkpt lat="30.9898910522460938" lon="-6.9417581558227539">
        <ele>1181.0</ele>
        <time>2018-10-12T12:42:52.000Z</time>
      </trkpt>
      <trkpt lat="30.9899196624755859" lon="-6.9417700767517090">
        <ele>1181.0</ele>
        <time>2018-10-12T12:42:53.000Z</time>
      </trkpt>
      <trkpt lat="30.9899463653564453" lon="-6.9417810440063477">
        <ele>1181.0</ele>
        <time>2018-10-12T12:42:54.000Z</time>
      </trkpt>
      <trkpt lat="30.9899730682373047" lon="-6.9417920112609863">
        <ele>1181.0</ele>
        <time>2018-10-12T12:42:55.000Z</time>
      </trkpt>
      <trkpt lat="30.9900016784667969" lon="-6.9418029785156250">
        <ele>1181.0</ele>
        <time>2018-10-12T12:42:56.000Z</time>
      </trkpt>
      <trkpt lat="30.9900302886962891" lon="-6.9418139457702637">
        <ele>1181.0</ele>
        <time>2018-10-12T12:42:57.000Z</time>
      </trkpt>
      <trkpt lat="30.9900588989257812" lon="-6.9418249130249023">
        <ele>1181.0</ele>
        <time>2018-10-12T12:42:58.000Z</time>
      </trkpt>
      <trkpt lat="30.9900856018066406" lon="-6.9418377876281738">
        <ele>1181.0</ele>
        <time>2018-10-12T12:42:59.000Z</time>
      </trkpt>
      <trkpt lat="30.9901123046875000" lon="-6.9418478012084961">
        <ele>1181.0</ele>
        <time>2018-10-12T12:43:00.000Z</time>
      </trkpt>
      <trkpt lat="30.9901390075683594" lon="-6.9418578147888184">
        <ele>1181.0</ele>
        <time>2018-10-12T12:43:01.000Z</time>
      </trkpt>
      <trkpt lat="30.9901657104492188" lon="-6.9418702125549316">
        <ele>1181.0</ele>
        <time>2018-10-12T12:43:02.000Z</time>
      </trkpt>
      <trkpt lat="30.9901905059814453" lon="-6.9418821334838867">
        <ele>1181.0</ele>
        <time>2018-10-12T12:43:03.000Z</time>
      </trkpt>
      <trkpt lat="30.9902133941650391" lon="-6.9418931007385254">
        <ele>1181.0</ele>
        <time>2018-10-12T12:43:04.000Z</time>
      </trkpt>
      <trkpt lat="30.9902381896972656" lon="-6.9419050216674805">
        <ele>1181.0</ele>
        <time>2018-10-12T12:43:05.000Z</time>
      </trkpt>
      <trkpt lat="30.9902667999267578" lon="-6.9419150352478027">
        <ele>1181.0</ele>
        <time>2018-10-12T12:43:06.000Z</time>
      </trkpt>
      <trkpt lat="30.9902954101562500" lon="-6.9419250488281250">
        <ele>1181.0</ele>
        <time>2018-10-12T12:43:07.000Z</time>
      </trkpt>
      <trkpt lat="30.9903221130371094" lon="-6.9419341087341309">
        <ele>1181.0</ele>
        <time>2018-10-12T12:43:08.000Z</time>
      </trkpt>
      <trkpt lat="30.9903526306152344" lon="-6.9419441223144531">
        <ele>1181.0</ele>
        <time>2018-10-12T12:43:09.000Z</time>
      </trkpt>
      <trkpt lat="30.9903812408447266" lon="-6.9419550895690918">
        <ele>1181.0</ele>
        <time>2018-10-12T12:43:10.000Z</time>
      </trkpt>
      <trkpt lat="30.9904117584228516" lon="-6.9419660568237305">
        <ele>1181.0</ele>
        <time>2018-10-12T12:43:11.000Z</time>
      </trkpt>
      <trkpt lat="30.9904403686523438" lon="-6.9419770240783691">
        <ele>1181.0</ele>
        <time>2018-10-12T12:43:12.000Z</time>
      </trkpt>
      <trkpt lat="30.9904689788818359" lon="-6.9419879913330078">
        <ele>1181.0</ele>
        <time>2018-10-12T12:43:13.000Z</time>
      </trkpt>
      <trkpt lat="30.9904994964599609" lon="-6.9419980049133301">
        <ele>1181.0</ele>
        <time>2018-10-12T12:43:14.000Z</time>
      </trkpt>
      <trkpt lat="30.9905281066894531" lon="-6.9420089721679688">
        <ele>1181.0</ele>
        <time>2018-10-12T12:43:15.000Z</time>
      </trkpt>
      <trkpt lat="30.9905586242675781" lon="-6.9420199394226074">
        <ele>1181.0</ele>
        <time>2018-10-12T12:43:16.000Z</time>
      </trkpt>
      <trkpt lat="30.9905872344970703" lon="-6.9420309066772461">
        <ele>1181.0</ele>
        <time>2018-10-12T12:43:17.000Z</time>
      </trkpt>
      <trkpt lat="30.9906196594238281" lon="-6.9420409202575684">
        <ele>1181.0</ele>
        <time>2018-10-12T12:43:18.000Z</time>
      </trkpt>
      <trkpt lat="30.9906501770019531" lon="-6.9420509338378906">
        <ele>1181.0</ele>
        <time>2018-10-12T12:43:19.000Z</time>
      </trkpt>
      <trkpt lat="30.9906826019287109" lon="-6.9420619010925293">
        <ele>1181.0</ele>
        <time>2018-10-12T12:43:20.000Z</time>
      </trkpt>
      <trkpt lat="30.9907150268554688" lon="-6.9420709609985352">
        <ele>1181.0</ele>
        <time>2018-10-12T12:43:21.000Z</time>
      </trkpt>
      <trkpt lat="30.9907493591308594" lon="-6.9420800209045410">
        <ele>1181.0</ele>
        <time>2018-10-12T12:43:22.000Z</time>
      </trkpt>
      <trkpt lat="30.9907836914062500" lon="-6.9420890808105469">
        <ele>1181.0</ele>
        <time>2018-10-12T12:43:23.000Z</time>
      </trkpt>
      <trkpt lat="30.9908161163330078" lon="-6.9420971870422363">
        <ele>1181.0</ele>
        <time>2018-10-12T12:43:24.000Z</time>
      </trkpt>
      <trkpt lat="30.9908523559570312" lon="-6.9421072006225586">
        <ele>1181.0</ele>
        <time>2018-10-12T12:43:25.000Z</time>
      </trkpt>
      <trkpt lat="30.9908847808837891" lon="-6.9421181678771973">
        <ele>1181.0</ele>
        <time>2018-10-12T12:43:26.000Z</time>
      </trkpt>
      <trkpt lat="30.9909133911132812" lon="-6.9421291351318359">
        <ele>1181.0</ele>
        <time>2018-10-12T12:43:27.000Z</time>
      </trkpt>
      <trkpt lat="30.9909400939941406" lon="-6.9421391487121582">
        <ele>1181.0</ele>
        <time>2018-10-12T12:43:28.000Z</time>
      </trkpt>
      <trkpt lat="30.9909667968750000" lon="-6.9421467781066895">
        <ele>1181.0</ele>
        <time>2018-10-12T12:43:29.000Z</time>
      </trkpt>
      <trkpt lat="30.9909915924072266" lon="-6.9421548843383789">
        <ele>1181.821044921875</ele>
        <time>2018-10-12T12:43:30.000Z</time>
      </trkpt>
      <trkpt lat="30.9910144805908203" lon="-6.9421620368957520">
        <ele>1182.0</ele>
        <time>2018-10-12T12:43:31.000Z</time>
      </trkpt>
      <trkpt lat="30.9910373687744141" lon="-6.9421701431274414">
        <ele>1182.0</ele>
        <time>2018-10-12T12:43:32.000Z</time>
      </trkpt>
      <trkpt lat="30.9910583496093750" lon="-6.9421792030334473">
        <ele>1182.0</ele>
        <time>2018-10-12T12:43:33.000Z</time>
      </trkpt>
      <trkpt lat="30.9910793304443359" lon="-6.9421858787536621">
        <ele>1182.0</ele>
        <time>2018-10-12T12:43:34.000Z</time>
      </trkpt>
      <trkpt lat="30.9910984039306641" lon="-6.9421930313110352">
        <ele>1182.0</ele>
        <time>2018-10-12T12:43:35.000Z</time>
      </trkpt>
      <trkpt lat="30.9911174774169922" lon="-6.9421992301940918">
        <ele>1182.0</ele>
        <time>2018-10-12T12:43:36.000Z</time>
      </trkpt>
      <trkpt lat="30.9911479949951172" lon="-6.9422049522399902">
        <ele>1182.0</ele>
        <time>2018-10-12T12:43:38.000Z</time>
      </trkpt>
      <trkpt lat="30.9911766052246094" lon="-6.9422159194946289">
        <ele>1182.0</ele>
        <time>2018-10-12T12:43:40.000Z</time>
      </trkpt>
      <trkpt lat="30.9911937713623047" lon="-6.9422249794006348">
        <ele>1182.0</ele>
        <time>2018-10-12T12:43:41.000Z</time>
      </trkpt>
      <trkpt lat="30.9912147521972656" lon="-6.9422321319580078">
        <ele>1182.0</ele>
        <time>2018-10-12T12:43:42.000Z</time>
      </trkpt>
      <trkpt lat="30.9912357330322266" lon="-6.9422378540039062">
        <ele>1182.0</ele>
        <time>2018-10-12T12:43:43.000Z</time>
      </trkpt>
      <trkpt lat="30.9912567138671875" lon="-6.9422450065612793">
        <ele>1182.0</ele>
        <time>2018-10-12T12:43:44.000Z</time>
      </trkpt>
      <trkpt lat="30.9912796020507812" lon="-6.9422512054443359">
        <ele>1182.0</ele>
        <time>2018-10-12T12:43:45.000Z</time>
      </trkpt>
      <trkpt lat="30.9913043975830078" lon="-6.9422569274902344">
        <ele>1182.0</ele>
        <time>2018-10-12T12:43:46.000Z</time>
      </trkpt>
      <trkpt lat="30.9913311004638672" lon="-6.9422631263732910">
        <ele>1182.0</ele>
        <time>2018-10-12T12:43:47.000Z</time>
      </trkpt>
      <trkpt lat="30.9913578033447266" lon="-6.9422688484191895">
        <ele>1182.0</ele>
        <time>2018-10-12T12:43:48.000Z</time>
      </trkpt>
      <trkpt lat="30.9913825988769531" lon="-6.9422740936279297">
        <ele>1182.0</ele>
        <time>2018-10-12T12:43:49.000Z</time>
      </trkpt>
      <trkpt lat="30.9914073944091797" lon="-6.9422788619995117">
        <ele>1182.0</ele>
        <time>2018-10-12T12:43:50.000Z</time>
      </trkpt>
      <trkpt lat="30.9914321899414062" lon="-6.9422821998596191">
        <ele>1182.0</ele>
        <time>2018-10-12T12:43:51.000Z</time>
      </trkpt>
      <trkpt lat="30.9914569854736328" lon="-6.9422860145568848">
        <ele>1182.0</ele>
        <time>2018-10-12T12:43:52.000Z</time>
      </trkpt>
      <trkpt lat="30.9914817810058594" lon="-6.9422907829284668">
        <ele>1182.0</ele>
        <time>2018-10-12T12:43:53.000Z</time>
      </trkpt>
      <trkpt lat="30.9915084838867188" lon="-6.9422960281372070">
        <ele>1182.0</ele>
        <time>2018-10-12T12:43:54.000Z</time>
      </trkpt>
      <trkpt lat="30.9915351867675781" lon="-6.9422998428344727">
        <ele>1182.0</ele>
        <time>2018-10-12T12:43:55.000Z</time>
      </trkpt>
      <trkpt lat="30.9915637969970703" lon="-6.9423041343688965">
        <ele>1182.0</ele>
        <time>2018-10-12T12:43:56.000Z</time>
      </trkpt>
      <trkpt lat="30.9915924072265625" lon="-6.9423079490661621">
        <ele>1182.0</ele>
        <time>2018-10-12T12:43:57.000Z</time>
      </trkpt>
      <trkpt lat="30.9916229248046875" lon="-6.9423117637634277">
        <ele>1182.0</ele>
        <time>2018-10-12T12:43:58.000Z</time>
      </trkpt>
      <trkpt lat="30.9916534423828125" lon="-6.9423160552978516">
        <ele>1182.0</ele>
        <time>2018-10-12T12:43:59.000Z</time>
      </trkpt>
      <trkpt lat="30.9916858673095703" lon="-6.9423198699951172">
        <ele>1182.0</ele>
        <time>2018-10-12T12:44:00.000Z</time>
      </trkpt>
      <trkpt lat="30.9917182922363281" lon="-6.9423251152038574">
        <ele>1182.0</ele>
        <time>2018-10-12T12:44:01.000Z</time>
      </trkpt>
      <trkpt lat="30.9917507171630859" lon="-6.9423298835754395">
        <ele>1182.0</ele>
        <time>2018-10-12T12:44:02.000Z</time>
      </trkpt>
      <trkpt lat="30.9917850494384766" lon="-6.9423341751098633">
        <ele>1182.0</ele>
        <time>2018-10-12T12:44:03.000Z</time>
      </trkpt>
      <trkpt lat="30.9918212890625000" lon="-6.9423379898071289">
        <ele>1182.0</ele>
        <time>2018-10-12T12:44:04.000Z</time>
      </trkpt>
      <trkpt lat="30.9918556213378906" lon="-6.9423408508300781">
        <ele>1182.0</ele>
        <time>2018-10-12T12:44:05.000Z</time>
      </trkpt>
      <trkpt lat="30.9918899536132812" lon="-6.9423451423645020">
        <ele>1182.0</ele>
        <time>2018-10-12T12:44:06.000Z</time>
      </trkpt>
      <trkpt lat="30.9919223785400391" lon="-6.9423489570617676">
        <ele>1181.3873291015625</ele>
        <time>2018-10-12T12:44:07.000Z</time>
      </trkpt>
      <trkpt lat="30.9919567108154297" lon="-6.9423542022705078">
        <ele>1181.0</ele>
        <time>2018-10-12T12:44:08.000Z</time>
      </trkpt>
      <trkpt lat="30.9919891357421875" lon="-6.9423580169677734">
        <ele>1181.0</ele>
        <time>2018-10-12T12:44:09.000Z</time>
      </trkpt>
      <trkpt lat="30.9920215606689453" lon="-6.9423608779907227">
        <ele>1181.0</ele>
        <time>2018-10-12T12:44:10.000Z</time>
      </trkpt>
      <trkpt lat="30.9920558929443359" lon="-6.9423661231994629">
        <ele>1181.0</ele>
        <time>2018-10-12T12:44:11.000Z</time>
      </trkpt>
      <trkpt lat="30.9920883178710938" lon="-6.9423718452453613">
        <ele>1181.0</ele>
        <time>2018-10-12T12:44:12.000Z</time>
      </trkpt>
      <trkpt lat="30.9921207427978516" lon="-6.9423780441284180">
        <ele>1181.0</ele>
        <time>2018-10-12T12:44:13.000Z</time>
      </trkpt>
      <trkpt lat="30.9921531677246094" lon="-6.9423851966857910">
        <ele>1181.0</ele>
        <time>2018-10-12T12:44:14.000Z</time>
      </trkpt>
      <trkpt lat="30.9921875000000000" lon="-6.9423909187316895">
        <ele>1181.0</ele>
        <time>2018-10-12T12:44:15.000Z</time>
      </trkpt>
      <trkpt lat="30.9922199249267578" lon="-6.9423961639404297">
        <ele>1181.0</ele>
        <time>2018-10-12T12:44:16.000Z</time>
      </trkpt>
      <trkpt lat="30.9922504425048828" lon="-6.9424018859863281">
        <ele>1181.0</ele>
        <time>2018-10-12T12:44:17.000Z</time>
      </trkpt>
      <trkpt lat="30.9922828674316406" lon="-6.9424080848693848">
        <ele>1181.0</ele>
        <time>2018-10-12T12:44:18.000Z</time>
      </trkpt>
      <trkpt lat="30.9923152923583984" lon="-6.9424138069152832">
        <ele>1181.0</ele>
        <time>2018-10-12T12:44:19.000Z</time>
      </trkpt>
      <trkpt lat="30.9923477172851562" lon="-6.9424209594726562">
        <ele>1181.0</ele>
        <time>2018-10-12T12:44:20.000Z</time>
      </trkpt>
      <trkpt lat="30.9923820495605469" lon="-6.9424281120300293">
        <ele>1181.0</ele>
        <time>2018-10-12T12:44:21.000Z</time>
      </trkpt>
      <trkpt lat="30.9924163818359375" lon="-6.9424362182617188">
        <ele>1181.0</ele>
        <time>2018-10-12T12:44:22.000Z</time>
      </trkpt>
      <trkpt lat="30.9924507141113281" lon="-6.9424438476562500">
        <ele>1181.0</ele>
        <time>2018-10-12T12:44:23.000Z</time>
      </trkpt>
      <trkpt lat="30.9924831390380859" lon="-6.9424519538879395">
        <ele>1181.0</ele>
        <time>2018-10-12T12:44:24.000Z</time>
      </trkpt>
      <trkpt lat="30.9925155639648438" lon="-6.9424619674682617">
        <ele>1181.821044921875</ele>
        <time>2018-10-12T12:44:25.000Z</time>
      </trkpt>
      <trkpt lat="30.9925498962402344" lon="-6.9424719810485840">
        <ele>1182.0</ele>
        <time>2018-10-12T12:44:26.000Z</time>
      </trkpt>
      <trkpt lat="30.9925804138183594" lon="-6.9424829483032227">
        <ele>1182.0</ele>
        <time>2018-10-12T12:44:27.000Z</time>
      </trkpt>
      <trkpt lat="30.9926128387451172" lon="-6.9424948692321777">
        <ele>1182.0</ele>
        <time>2018-10-12T12:44:28.000Z</time>
      </trkpt>
      <trkpt lat="30.9926452636718750" lon="-6.9425091743469238">
        <ele>1182.0</ele>
        <time>2018-10-12T12:44:29.000Z</time>
      </trkpt>
      <trkpt lat="30.9926776885986328" lon="-6.9425220489501953">
        <ele>1182.0</ele>
        <time>2018-10-12T12:44:30.000Z</time>
      </trkpt>
      <trkpt lat="30.9927082061767578" lon="-6.9425349235534668">
        <ele>1182.0</ele>
        <time>2018-10-12T12:44:31.000Z</time>
      </trkpt>
      <trkpt lat="30.9927406311035156" lon="-6.9425492286682129">
        <ele>1182.0</ele>
        <time>2018-10-12T12:44:32.000Z</time>
      </trkpt>
      <trkpt lat="30.9927711486816406" lon="-6.9425630569458008">
        <ele>1182.0</ele>
        <time>2018-10-12T12:44:33.000Z</time>
      </trkpt>
      <trkpt lat="30.9928035736083984" lon="-6.9425778388977051">
        <ele>1182.0</ele>
        <time>2018-10-12T12:44:34.000Z</time>
      </trkpt>
      <trkpt lat="30.9928321838378906" lon="-6.9425921440124512">
        <ele>1182.0</ele>
        <time>2018-10-12T12:44:35.000Z</time>
      </trkpt>
      <trkpt lat="30.9928627014160156" lon="-6.9426069259643555">
        <ele>1182.0</ele>
        <time>2018-10-12T12:44:36.000Z</time>
      </trkpt>
      <trkpt lat="30.9928932189941406" lon="-6.9426231384277344">
        <ele>1182.0</ele>
        <time>2018-10-12T12:44:37.000Z</time>
      </trkpt>
      <trkpt lat="30.9929218292236328" lon="-6.9426369667053223">
        <ele>1182.0</ele>
        <time>2018-10-12T12:44:38.000Z</time>
      </trkpt>
      <trkpt lat="30.9929523468017578" lon="-6.9426522254943848">
        <ele>1182.0</ele>
        <time>2018-10-12T12:44:39.000Z</time>
      </trkpt>
      <trkpt lat="30.9929828643798828" lon="-6.9426670074462891">
        <ele>1182.0</ele>
        <time>2018-10-12T12:44:40.000Z</time>
      </trkpt>
      <trkpt lat="30.9930114746093750" lon="-6.9426817893981934">
        <ele>1182.0</ele>
        <time>2018-10-12T12:44:41.000Z</time>
      </trkpt>
      <trkpt lat="30.9930438995361328" lon="-6.9426960945129395">
        <ele>1182.821044921875</ele>
        <time>2018-10-12T12:44:42.000Z</time>
      </trkpt>
      <trkpt lat="30.9930725097656250" lon="-6.9427099227905273">
        <ele>1183.0</ele>
        <time>2018-10-12T12:44:43.000Z</time>
      </trkpt>
      <trkpt lat="30.9931030273437500" lon="-6.9427242279052734">
        <ele>1183.0</ele>
        <time>2018-10-12T12:44:44.000Z</time>
      </trkpt>
      <trkpt lat="30.9931335449218750" lon="-6.9427390098571777">
        <ele>1183.0</ele>
        <time>2018-10-12T12:44:45.000Z</time>
      </trkpt>
      <trkpt lat="30.9931640625000000" lon="-6.9427537918090820">
        <ele>1183.0</ele>
        <time>2018-10-12T12:44:46.000Z</time>
      </trkpt>
      <trkpt lat="30.9931964874267578" lon="-6.9427690505981445">
        <ele>1183.0</ele>
        <time>2018-10-12T12:44:47.000Z</time>
      </trkpt>
      <trkpt lat="30.9932289123535156" lon="-6.9427838325500488">
        <ele>1183.0</ele>
        <time>2018-10-12T12:44:48.000Z</time>
      </trkpt>
      <trkpt lat="30.9932613372802734" lon="-6.9427981376647949">
        <ele>1183.0</ele>
        <time>2018-10-12T12:44:49.000Z</time>
      </trkpt>
      <trkpt lat="30.9932937622070312" lon="-6.9428138732910156">
        <ele>1183.0</ele>
        <time>2018-10-12T12:44:50.000Z</time>
      </trkpt>
      <trkpt lat="30.9933280944824219" lon="-6.9428291320800781">
        <ele>1183.0</ele>
        <time>2018-10-12T12:44:51.000Z</time>
      </trkpt>
      <trkpt lat="30.9933605194091797" lon="-6.9428439140319824">
        <ele>1183.0</ele>
        <time>2018-10-12T12:44:52.000Z</time>
      </trkpt>
      <trkpt lat="30.9933948516845703" lon="-6.9428591728210449">
        <ele>1183.0</ele>
        <time>2018-10-12T12:44:53.000Z</time>
      </trkpt>
      <trkpt lat="30.9934253692626953" lon="-6.9428730010986328">
        <ele>1183.0</ele>
        <time>2018-10-12T12:44:54.000Z</time>
      </trkpt>
      <trkpt lat="30.9934558868408203" lon="-6.9428858757019043">
        <ele>1183.0</ele>
        <time>2018-10-12T12:44:55.000Z</time>
      </trkpt>
      <trkpt lat="30.9934844970703125" lon="-6.9429001808166504">
        <ele>1183.0</ele>
        <time>2018-10-12T12:44:56.000Z</time>
      </trkpt>
      <trkpt lat="30.9935111999511719" lon="-6.9429130554199219">
        <ele>1183.0</ele>
        <time>2018-10-12T12:44:57.000Z</time>
      </trkpt>
      <trkpt lat="30.9935398101806641" lon="-6.9429240226745605">
        <ele>1183.0</ele>
        <time>2018-10-12T12:44:58.000Z</time>
      </trkpt>
      <trkpt lat="30.9935646057128906" lon="-6.9429349899291992">
        <ele>1183.0</ele>
        <time>2018-10-12T12:44:59.000Z</time>
      </trkpt>
      <trkpt lat="30.9935874938964844" lon="-6.9429459571838379">
        <ele>1182.2105712890625</ele>
        <time>2018-10-12T12:45:00.000Z</time>
      </trkpt>
      <trkpt lat="30.9936141967773438" lon="-6.9429578781127930">
        <ele>1182.0</ele>
        <time>2018-10-12T12:45:01.000Z</time>
      </trkpt>
      <trkpt lat="30.9936428070068359" lon="-6.9429712295532227">
        <ele>1182.0</ele>
        <time>2018-10-12T12:45:02.000Z</time>
      </trkpt>
      <trkpt lat="30.9936695098876953" lon="-6.9429831504821777">
        <ele>1182.0</ele>
        <time>2018-10-12T12:45:03.000Z</time>
      </trkpt>
      <trkpt lat="30.9936981201171875" lon="-6.9429941177368164">
        <ele>1182.0</ele>
        <time>2018-10-12T12:45:04.000Z</time>
      </trkpt>
      <trkpt lat="30.9937248229980469" lon="-6.9430060386657715">
        <ele>1182.0</ele>
        <time>2018-10-12T12:45:05.000Z</time>
      </trkpt>
      <trkpt lat="30.9937496185302734" lon="-6.9430179595947266">
        <ele>1182.0</ele>
        <time>2018-10-12T12:45:06.000Z</time>
      </trkpt>
      <trkpt lat="30.9937782287597656" lon="-6.9430308341979980">
        <ele>1182.0</ele>
        <time>2018-10-12T12:45:07.000Z</time>
      </trkpt>
      <trkpt lat="30.9938106536865234" lon="-6.9430451393127441">
        <ele>1182.0</ele>
        <time>2018-10-12T12:45:08.000Z</time>
      </trkpt>
      <trkpt lat="30.9938411712646484" lon="-6.9430608749389648">
        <ele>1182.0</ele>
        <time>2018-10-12T12:45:09.000Z</time>
      </trkpt>
      <trkpt lat="30.9938735961914062" lon="-6.9430780410766602">
        <ele>1182.0</ele>
        <time>2018-10-12T12:45:10.000Z</time>
      </trkpt>
      <trkpt lat="30.9939022064208984" lon="-6.9430928230285645">
        <ele>1182.0</ele>
        <time>2018-10-12T12:45:11.000Z</time>
      </trkpt>
      <trkpt lat="30.9939327239990234" lon="-6.9431052207946777">
        <ele>1182.0</ele>
        <time>2018-10-12T12:45:12.000Z</time>
      </trkpt>
      <trkpt lat="30.9939594268798828" lon="-6.9431152343750000">
        <ele>1182.0</ele>
        <time>2018-10-12T12:45:13.000Z</time>
      </trkpt>
      <trkpt lat="30.9939842224121094" lon="-6.9431247711181641">
        <ele>1182.0</ele>
        <time>2018-10-12T12:45:14.000Z</time>
      </trkpt>
      <trkpt lat="30.9940090179443359" lon="-6.9431362152099609">
        <ele>1182.0</ele>
        <time>2018-10-12T12:45:15.000Z</time>
      </trkpt>
      <trkpt lat="30.9940319061279297" lon="-6.9431462287902832">
        <ele>1182.0</ele>
        <time>2018-10-12T12:45:16.000Z</time>
      </trkpt>
      <trkpt lat="30.9940547943115234" lon="-6.9431571960449219">
        <ele>1182.821044921875</ele>
        <time>2018-10-12T12:45:17.000Z</time>
      </trkpt>
      <trkpt lat="30.9940776824951172" lon="-6.9431657791137695">
        <ele>1183.0</ele>
        <time>2018-10-12T12:45:18.000Z</time>
      </trkpt>
      <trkpt lat="30.9941024780273438" lon="-6.9431781768798828">
        <ele>1183.0</ele>
        <time>2018-10-12T12:45:19.000Z</time>
      </trkpt>
      <trkpt lat="30.9941310882568359" lon="-6.9431891441345215">
        <ele>1183.0</ele>
        <time>2018-10-12T12:45:20.000Z</time>
      </trkpt>
      <trkpt lat="30.9941596984863281" lon="-6.9431991577148438">
        <ele>1183.0</ele>
        <time>2018-10-12T12:45:21.000Z</time>
      </trkpt>
      <trkpt lat="30.9941864013671875" lon="-6.9432120323181152">
        <ele>1183.0</ele>
        <time>2018-10-12T12:45:22.000Z</time>
      </trkpt>
      <trkpt lat="30.9942111968994141" lon="-6.9432258605957031">
        <ele>1183.0</ele>
        <time>2018-10-12T12:45:23.000Z</time>
      </trkpt>
      <trkpt lat="30.9942378997802734" lon="-6.9432368278503418">
        <ele>1183.0</ele>
        <time>2018-10-12T12:45:24.000Z</time>
      </trkpt>
      <trkpt lat="30.9942684173583984" lon="-6.9432477951049805">
        <ele>1183.0</ele>
        <time>2018-10-12T12:45:25.000Z</time>
      </trkpt>
      <trkpt lat="30.9942989349365234" lon="-6.9432587623596191">
        <ele>1183.0</ele>
        <time>2018-10-12T12:45:26.000Z</time>
      </trkpt>
      <trkpt lat="30.9943313598632812" lon="-6.9432702064514160">
        <ele>1183.0</ele>
        <time>2018-10-12T12:45:27.000Z</time>
      </trkpt>
      <trkpt lat="30.9943618774414062" lon="-6.9432821273803711">
        <ele>1183.0</ele>
        <time>2018-10-12T12:45:28.000Z</time>
      </trkpt>
      <trkpt lat="30.9943885803222656" lon="-6.9432930946350098">
        <ele>1183.0</ele>
        <time>2018-10-12T12:45:29.000Z</time>
      </trkpt>
      <trkpt lat="30.9944133758544922" lon="-6.9433050155639648">
        <ele>1183.0</ele>
        <time>2018-10-12T12:45:30.000Z</time>
      </trkpt>
      <trkpt lat="30.9944381713867188" lon="-6.9433169364929199">
        <ele>1183.0</ele>
        <time>2018-10-12T12:45:31.000Z</time>
      </trkpt>
      <trkpt lat="30.9944686889648438" lon="-6.9433307647705078">
        <ele>1183.0</ele>
        <time>2018-10-12T12:45:32.000Z</time>
      </trkpt>
      <trkpt lat="30.9945011138916016" lon="-6.9433460235595703">
        <ele>1183.0</ele>
        <time>2018-10-12T12:45:33.000Z</time>
      </trkpt>
      <trkpt lat="30.9945335388183594" lon="-6.9433608055114746">
        <ele>1183.0</ele>
        <time>2018-10-12T12:45:34.000Z</time>
      </trkpt>
      <trkpt lat="30.9945640563964844" lon="-6.9433741569519043">
        <ele>1183.0</ele>
        <time>2018-10-12T12:45:35.000Z</time>
      </trkpt>
      <trkpt lat="30.9945926666259766" lon="-6.9433879852294922">
        <ele>1183.821044921875</ele>
        <time>2018-10-12T12:45:36.000Z</time>
      </trkpt>
      <trkpt lat="30.9946212768554688" lon="-6.9434027671813965">
        <ele>1184.0</ele>
        <time>2018-10-12T12:45:37.000Z</time>
      </trkpt>
      <trkpt lat="30.9946517944335938" lon="-6.9434189796447754">
        <ele>1184.0</ele>
        <time>2018-10-12T12:45:38.000Z</time>
      </trkpt>
      <trkpt lat="30.9946823120117188" lon="-6.9434370994567871">
        <ele>1184.0</ele>
        <time>2018-10-12T12:45:39.000Z</time>
      </trkpt>
      <trkpt lat="30.9947128295898438" lon="-6.9434537887573242">
        <ele>1184.0</ele>
        <time>2018-10-12T12:45:40.000Z</time>
      </trkpt>
      <trkpt lat="30.9947452545166016" lon="-6.9434719085693359">
        <ele>1184.0</ele>
        <time>2018-10-12T12:45:41.000Z</time>
      </trkpt>
      <trkpt lat="30.9947776794433594" lon="-6.9434909820556641">
        <ele>1184.0</ele>
        <time>2018-10-12T12:45:42.000Z</time>
      </trkpt>
      <trkpt lat="30.9948081970214844" lon="-6.9435100555419922">
        <ele>1184.0</ele>
        <time>2018-10-12T12:45:43.000Z</time>
      </trkpt>
      <trkpt lat="30.9948406219482422" lon="-6.9435281753540039">
        <ele>1184.0</ele>
        <time>2018-10-12T12:45:44.000Z</time>
      </trkpt>
      <trkpt lat="30.9948730468750000" lon="-6.9435458183288574">
        <ele>1184.0</ele>
        <time>2018-10-12T12:45:45.000Z</time>
      </trkpt>
      <trkpt lat="30.9949054718017578" lon="-6.9435639381408691">
        <ele>1184.0</ele>
        <time>2018-10-12T12:45:46.000Z</time>
      </trkpt>
      <trkpt lat="30.9949378967285156" lon="-6.9435820579528809">
        <ele>1184.0</ele>
        <time>2018-10-12T12:45:47.000Z</time>
      </trkpt>
      <trkpt lat="30.9949684143066406" lon="-6.9436001777648926">
        <ele>1184.821044921875</ele>
        <time>2018-10-12T12:45:48.000Z</time>
      </trkpt>
      <trkpt lat="30.9950008392333984" lon="-6.9436187744140625">
        <ele>1185.0</ele>
        <time>2018-10-12T12:45:49.000Z</time>
      </trkpt>
      <trkpt lat="30.9950313568115234" lon="-6.9436368942260742">
        <ele>1184.178955078125</ele>
        <time>2018-10-12T12:45:50.000Z</time>
      </trkpt>
      <trkpt lat="30.9950637817382812" lon="-6.9436559677124023">
        <ele>1184.0</ele>
        <time>2018-10-12T12:45:51.000Z</time>
      </trkpt>
      <trkpt lat="30.9950942993164062" lon="-6.9436740875244141">
        <ele>1184.0</ele>
        <time>2018-10-12T12:45:52.000Z</time>
      </trkpt>
      <trkpt lat="30.9951248168945312" lon="-6.9436931610107422">
        <ele>1184.0</ele>
        <time>2018-10-12T12:45:53.000Z</time>
      </trkpt>
      <trkpt lat="30.9951553344726562" lon="-6.9437122344970703">
        <ele>1184.0</ele>
        <time>2018-10-12T12:45:54.000Z</time>
      </trkpt>
      <trkpt lat="30.9951858520507812" lon="-6.9437317848205566">
        <ele>1184.0</ele>
        <time>2018-10-12T12:45:55.000Z</time>
      </trkpt>
      <trkpt lat="30.9952163696289062" lon="-6.9437499046325684">
        <ele>1184.0</ele>
        <time>2018-10-12T12:45:56.000Z</time>
      </trkpt>
      <trkpt lat="30.9952487945556641" lon="-6.9437689781188965">
        <ele>1184.0</ele>
        <time>2018-10-12T12:45:57.000Z</time>
      </trkpt>
      <trkpt lat="30.9952793121337891" lon="-6.9437880516052246">
        <ele>1184.0</ele>
        <time>2018-10-12T12:45:58.000Z</time>
      </trkpt>
      <trkpt lat="30.9953117370605469" lon="-6.9438071250915527">
        <ele>1184.0</ele>
        <time>2018-10-12T12:45:59.000Z</time>
      </trkpt>
      <trkpt lat="30.9953441619873047" lon="-6.9438261985778809">
        <ele>1184.0</ele>
        <time>2018-10-12T12:46:00.000Z</time>
      </trkpt>
      <trkpt lat="30.9953765869140625" lon="-6.9438447952270508">
        <ele>1184.0</ele>
        <time>2018-10-12T12:46:01.000Z</time>
      </trkpt>
      <trkpt lat="30.9954109191894531" lon="-6.9438638687133789">
        <ele>1184.0</ele>
        <time>2018-10-12T12:46:02.000Z</time>
      </trkpt>
      <trkpt lat="30.9954433441162109" lon="-6.9438819885253906">
        <ele>1184.0</ele>
        <time>2018-10-12T12:46:03.000Z</time>
      </trkpt>
      <trkpt lat="30.9954776763916016" lon="-6.9439001083374023">
        <ele>1184.0</ele>
        <time>2018-10-12T12:46:04.000Z</time>
      </trkpt>
      <trkpt lat="30.9955120086669922" lon="-6.9439182281494141">
        <ele>1184.0</ele>
        <time>2018-10-12T12:46:05.000Z</time>
      </trkpt>
      <trkpt lat="30.9955482482910156" lon="-6.9439377784729004">
        <ele>1184.0</ele>
        <time>2018-10-12T12:46:06.000Z</time>
      </trkpt>
      <trkpt lat="30.9955863952636719" lon="-6.9439568519592285">
        <ele>1184.0</ele>
        <time>2018-10-12T12:46:07.000Z</time>
      </trkpt>
      <trkpt lat="30.9956245422363281" lon="-6.9439759254455566">
        <ele>1184.0</ele>
        <time>2018-10-12T12:46:08.000Z</time>
      </trkpt>
      <trkpt lat="30.9956626892089844" lon="-6.9439959526062012">
        <ele>1184.0</ele>
        <time>2018-10-12T12:46:09.000Z</time>
      </trkpt>
      <trkpt lat="30.9957027435302734" lon="-6.9440150260925293">
        <ele>1184.0</ele>
        <time>2018-10-12T12:46:10.000Z</time>
      </trkpt>
      <trkpt lat="30.9957408905029297" lon="-6.9440331459045410">
        <ele>1184.0</ele>
        <time>2018-10-12T12:46:11.000Z</time>
      </trkpt>
      <trkpt lat="30.9957752227783203" lon="-6.9440507888793945">
        <ele>1184.0</ele>
        <time>2018-10-12T12:46:12.000Z</time>
      </trkpt>
      <trkpt lat="30.9958095550537109" lon="-6.9440698623657227">
        <ele>1184.0</ele>
        <time>2018-10-12T12:46:13.000Z</time>
      </trkpt>
      <trkpt lat="30.9958438873291016" lon="-6.9440870285034180">
        <ele>1184.0</ele>
        <time>2018-10-12T12:46:14.000Z</time>
      </trkpt>
      <trkpt lat="30.9958763122558594" lon="-6.9441027641296387">
        <ele>1184.0</ele>
        <time>2018-10-12T12:46:15.000Z</time>
      </trkpt>
      <trkpt lat="30.9959106445312500" lon="-6.9441170692443848">
        <ele>1184.0</ele>
        <time>2018-10-12T12:46:16.000Z</time>
      </trkpt>
      <trkpt lat="30.9959449768066406" lon="-6.9441328048706055">
        <ele>1184.0</ele>
        <time>2018-10-12T12:46:17.000Z</time>
      </trkpt>
      <trkpt lat="30.9959793090820312" lon="-6.9441480636596680">
        <ele>1184.0</ele>
        <time>2018-10-12T12:46:18.000Z</time>
      </trkpt>
      <trkpt lat="30.9960155487060547" lon="-6.9441609382629395">
        <ele>1184.0</ele>
        <time>2018-10-12T12:46:19.000Z</time>
      </trkpt>
      <trkpt lat="30.9960498809814453" lon="-6.9441738128662109">
        <ele>1184.0</ele>
        <time>2018-10-12T12:46:20.000Z</time>
      </trkpt>
      <trkpt lat="30.9960842132568359" lon="-6.9441881179809570">
        <ele>1184.0</ele>
        <time>2018-10-12T12:46:21.000Z</time>
      </trkpt>
      <trkpt lat="30.9961204528808594" lon="-6.9442019462585449">
        <ele>1184.6173095703125</ele>
        <time>2018-10-12T12:46:22.000Z</time>
      </trkpt>
      <trkpt lat="30.9961566925048828" lon="-6.9442148208618164">
        <ele>1185.0</ele>
        <time>2018-10-12T12:46:23.000Z</time>
      </trkpt>
      <trkpt lat="30.9961929321289062" lon="-6.9442291259765625">
        <ele>1185.0</ele>
        <time>2018-10-12T12:46:24.000Z</time>
      </trkpt>
      <trkpt lat="30.9962272644042969" lon="-6.9442420005798340">
        <ele>1185.0</ele>
        <time>2018-10-12T12:46:25.000Z</time>
      </trkpt>
      <trkpt lat="30.9962615966796875" lon="-6.9442539215087891">
        <ele>1185.0</ele>
        <time>2018-10-12T12:46:26.000Z</time>
      </trkpt>
      <trkpt lat="30.9962921142578125" lon="-6.9442667961120605">
        <ele>1184.178955078125</ele>
        <time>2018-10-12T12:46:27.000Z</time>
      </trkpt>
      <trkpt lat="30.9963226318359375" lon="-6.9442811012268066">
        <ele>1184.0</ele>
        <time>2018-10-12T12:46:28.000Z</time>
      </trkpt>
      <trkpt lat="30.9963512420654297" lon="-6.9442939758300781">
        <ele>1184.0</ele>
        <time>2018-10-12T12:46:29.000Z</time>
      </trkpt>
      <trkpt lat="30.9963798522949219" lon="-6.9443078041076660">
        <ele>1184.0</ele>
        <time>2018-10-12T12:46:30.000Z</time>
      </trkpt>
      <trkpt lat="30.9964084625244141" lon="-6.9443221092224121">
        <ele>1184.0</ele>
        <time>2018-10-12T12:46:31.000Z</time>
      </trkpt>
      <trkpt lat="30.9964370727539062" lon="-6.9443368911743164">
        <ele>1184.0</ele>
        <time>2018-10-12T12:46:32.000Z</time>
      </trkpt>
      <trkpt lat="30.9964675903320312" lon="-6.9443511962890625">
        <ele>1184.0</ele>
        <time>2018-10-12T12:46:33.000Z</time>
      </trkpt>
      <trkpt lat="30.9965000152587891" lon="-6.9443659782409668">
        <ele>1184.0</ele>
        <time>2018-10-12T12:46:34.000Z</time>
      </trkpt>
      <trkpt lat="30.9965324401855469" lon="-6.9443812370300293">
        <ele>1184.0</ele>
        <time>2018-10-12T12:46:35.000Z</time>
      </trkpt>
      <trkpt lat="30.9965648651123047" lon="-6.9443960189819336">
        <ele>1184.0</ele>
        <time>2018-10-12T12:46:36.000Z</time>
      </trkpt>
      <trkpt lat="30.9965972900390625" lon="-6.9444122314453125">
        <ele>1184.7406005859375</ele>
        <time>2018-10-12T12:46:37.000Z</time>
      </trkpt>
      <trkpt lat="30.9966316223144531" lon="-6.9444289207458496">
        <ele>1185.0</ele>
        <time>2018-10-12T12:46:38.000Z</time>
      </trkpt>
      <trkpt lat="30.9966659545898438" lon="-6.9444451332092285">
        <ele>1185.0</ele>
        <time>2018-10-12T12:46:39.000Z</time>
      </trkpt>
      <trkpt lat="30.9966983795166016" lon="-6.9444608688354492">
        <ele>1185.0</ele>
        <time>2018-10-12T12:46:40.000Z</time>
      </trkpt>
      <trkpt lat="30.9967308044433594" lon="-6.9444789886474609">
        <ele>1185.0</ele>
        <time>2018-10-12T12:46:41.000Z</time>
      </trkpt>
      <trkpt lat="30.9967632293701172" lon="-6.9444961547851562">
        <ele>1185.0</ele>
        <time>2018-10-12T12:46:42.000Z</time>
      </trkpt>
      <trkpt lat="30.9967956542968750" lon="-6.9445128440856934">
        <ele>1185.0</ele>
        <time>2018-10-12T12:46:43.000Z</time>
      </trkpt>
      <trkpt lat="30.9968280792236328" lon="-6.9445300102233887">
        <ele>1185.0</ele>
        <time>2018-10-12T12:46:44.000Z</time>
      </trkpt>
      <trkpt lat="30.9968605041503906" lon="-6.9445481300354004">
        <ele>1185.0</ele>
        <time>2018-10-12T12:46:45.000Z</time>
      </trkpt>
      <trkpt lat="30.9968929290771484" lon="-6.9445648193359375">
        <ele>1185.0</ele>
        <time>2018-10-12T12:46:46.000Z</time>
      </trkpt>
      <trkpt lat="30.9969253540039062" lon="-6.9445810317993164">
        <ele>1185.0</ele>
        <time>2018-10-12T12:46:47.000Z</time>
      </trkpt>
      <trkpt lat="30.9969558715820312" lon="-6.9445981979370117">
        <ele>1185.0</ele>
        <time>2018-10-12T12:46:48.000Z</time>
      </trkpt>
      <trkpt lat="30.9969863891601562" lon="-6.9446148872375488">
        <ele>1185.0</ele>
        <time>2018-10-12T12:46:49.000Z</time>
      </trkpt>
      <trkpt lat="30.9970188140869141" lon="-6.9446320533752441">
        <ele>1185.0</ele>
        <time>2018-10-12T12:46:50.000Z</time>
      </trkpt>
      <trkpt lat="30.9970493316650391" lon="-6.9446492195129395">
        <ele>1185.0</ele>
        <time>2018-10-12T12:46:51.000Z</time>
      </trkpt>
      <trkpt lat="30.9970798492431641" lon="-6.9446659088134766">
        <ele>1185.0</ele>
        <time>2018-10-12T12:46:52.000Z</time>
      </trkpt>
      <trkpt lat="30.9971103668212891" lon="-6.9446840286254883">
        <ele>1185.0</ele>
        <time>2018-10-12T12:46:53.000Z</time>
      </trkpt>
      <trkpt lat="30.9971370697021484" lon="-6.9447031021118164">
        <ele>1185.0</ele>
        <time>2018-10-12T12:46:54.000Z</time>
      </trkpt>
      <trkpt lat="30.9971656799316406" lon="-6.9447221755981445">
        <ele>1185.0</ele>
        <time>2018-10-12T12:46:55.000Z</time>
      </trkpt>
      <trkpt lat="30.9971942901611328" lon="-6.9447398185729980">
        <ele>1185.0</ele>
        <time>2018-10-12T12:46:56.000Z</time>
      </trkpt>
      <trkpt lat="30.9972229003906250" lon="-6.9447579383850098">
        <ele>1185.0</ele>
        <time>2018-10-12T12:46:57.000Z</time>
      </trkpt>
      <trkpt lat="30.9972496032714844" lon="-6.9447731971740723">
        <ele>1185.0</ele>
        <time>2018-10-12T12:46:58.000Z</time>
      </trkpt>
      <trkpt lat="30.9972782135009766" lon="-6.9447889328002930">
        <ele>1185.0</ele>
        <time>2018-10-12T12:46:59.000Z</time>
      </trkpt>
      <trkpt lat="30.9973049163818359" lon="-6.9448041915893555">
        <ele>1185.0</ele>
        <time>2018-10-12T12:47:00.000Z</time>
      </trkpt>
      <trkpt lat="30.9973335266113281" lon="-6.9448189735412598">
        <ele>1185.821044921875</ele>
        <time>2018-10-12T12:47:01.000Z</time>
      </trkpt>
      <trkpt lat="30.9973640441894531" lon="-6.9448342323303223">
        <ele>1186.0</ele>
        <time>2018-10-12T12:47:02.000Z</time>
      </trkpt>
      <trkpt lat="30.9973945617675781" lon="-6.9448509216308594">
        <ele>1186.0</ele>
        <time>2018-10-12T12:47:03.000Z</time>
      </trkpt>
      <trkpt lat="30.9974231719970703" lon="-6.9448690414428711">
        <ele>1186.821044921875</ele>
        <time>2018-10-12T12:47:04.000Z</time>
      </trkpt>
      <trkpt lat="30.9974536895751953" lon="-6.9448847770690918">
        <ele>1187.0</ele>
        <time>2018-10-12T12:47:05.000Z</time>
      </trkpt>
      <trkpt lat="30.9974803924560547" lon="-6.9449009895324707">
        <ele>1187.0</ele>
        <time>2018-10-12T12:47:06.000Z</time>
      </trkpt>
      <trkpt lat="30.9975051879882812" lon="-6.9449191093444824">
        <ele>1187.0</ele>
        <time>2018-10-12T12:47:07.000Z</time>
      </trkpt>
      <trkpt lat="30.9975280761718750" lon="-6.9449348449707031">
        <ele>1187.0</ele>
        <time>2018-10-12T12:47:08.000Z</time>
      </trkpt>
      <trkpt lat="30.9975547790527344" lon="-6.9449467658996582">
        <ele>1187.0</ele>
        <time>2018-10-12T12:47:09.000Z</time>
      </trkpt>
      <trkpt lat="30.9975757598876953" lon="-6.9449548721313477">
        <ele>1187.0</ele>
        <time>2018-10-12T12:47:10.000Z</time>
      </trkpt>
      <trkpt lat="30.9975986480712891" lon="-6.9449620246887207">
        <ele>1187.0</ele>
        <time>2018-10-12T12:47:11.000Z</time>
      </trkpt>
      <trkpt lat="30.9976177215576172" lon="-6.9449691772460938">
        <ele>1187.0</ele>
        <time>2018-10-12T12:47:12.000Z</time>
      </trkpt>
      <trkpt lat="30.9976367950439453" lon="-6.9449758529663086">
        <ele>1187.0</ele>
        <time>2018-10-12T12:47:13.000Z</time>
      </trkpt>
      <trkpt lat="30.9976558685302734" lon="-6.9449849128723145">
        <ele>1187.0</ele>
        <time>2018-10-12T12:47:14.000Z</time>
      </trkpt>
      <trkpt lat="30.9976787567138672" lon="-6.9449920654296875">
        <ele>1187.0</ele>
        <time>2018-10-12T12:47:15.000Z</time>
      </trkpt>
      <trkpt lat="30.9976997375488281" lon="-6.9449992179870605">
        <ele>1187.0</ele>
        <time>2018-10-12T12:47:16.000Z</time>
      </trkpt>
      <trkpt lat="30.9977245330810547" lon="-6.9450068473815918">
        <ele>1187.0</ele>
        <time>2018-10-12T12:47:17.000Z</time>
      </trkpt>
      <trkpt lat="30.9977493286132812" lon="-6.9450159072875977">
        <ele>1187.0</ele>
        <time>2018-10-12T12:47:18.000Z</time>
      </trkpt>
      <trkpt lat="30.9977741241455078" lon="-6.9450221061706543">
        <ele>1187.0</ele>
        <time>2018-10-12T12:47:19.000Z</time>
      </trkpt>
      <trkpt lat="30.9978027343750000" lon="-6.9450278282165527">
        <ele>1187.0</ele>
        <time>2018-10-12T12:47:20.000Z</time>
      </trkpt>
      <trkpt lat="30.9978313446044922" lon="-6.9450340270996094">
        <ele>1187.0</ele>
        <time>2018-10-12T12:47:21.000Z</time>
      </trkpt>
      <trkpt lat="30.9978580474853516" lon="-6.9450402259826660">
        <ele>1187.0</ele>
        <time>2018-10-12T12:47:22.000Z</time>
      </trkpt>
      <trkpt lat="30.9978885650634766" lon="-6.9450459480285645">
        <ele>1187.821044921875</ele>
        <time>2018-10-12T12:47:23.000Z</time>
      </trkpt>
      <trkpt lat="30.9979190826416016" lon="-6.9450559616088867">
        <ele>1188.0</ele>
        <time>2018-10-12T12:47:24.000Z</time>
      </trkpt>
      <trkpt lat="30.9979515075683594" lon="-6.9450688362121582">
        <ele>1188.0</ele>
        <time>2018-10-12T12:47:25.000Z</time>
      </trkpt>
      <trkpt lat="30.9979820251464844" lon="-6.9450850486755371">
        <ele>1188.0</ele>
        <time>2018-10-12T12:47:26.000Z</time>
      </trkpt>
      <trkpt lat="30.9980125427246094" lon="-6.9451022148132324">
        <ele>1188.0</ele>
        <time>2018-10-12T12:47:27.000Z</time>
      </trkpt>
      <trkpt lat="30.9980449676513672" lon="-6.9451198577880859">
        <ele>1188.0</ele>
        <time>2018-10-12T12:47:28.000Z</time>
      </trkpt>
      <trkpt lat="30.9980773925781250" lon="-6.9451370239257812">
        <ele>1188.0</ele>
        <time>2018-10-12T12:47:29.000Z</time>
      </trkpt>
      <trkpt lat="30.9981117248535156" lon="-6.9451508522033691">
        <ele>1188.0</ele>
        <time>2018-10-12T12:47:30.000Z</time>
      </trkpt>
      <trkpt lat="30.9981422424316406" lon="-6.9451651573181152">
        <ele>1188.0</ele>
        <time>2018-10-12T12:47:31.000Z</time>
      </trkpt>
      <trkpt lat="30.9981746673583984" lon="-6.9451789855957031">
        <ele>1188.0</ele>
        <time>2018-10-12T12:47:32.000Z</time>
      </trkpt>
      <trkpt lat="30.9982051849365234" lon="-6.9451909065246582">
        <ele>1188.0</ele>
        <time>2018-10-12T12:47:33.000Z</time>
      </trkpt>
      <trkpt lat="30.9982337951660156" lon="-6.9452018737792969">
        <ele>1187.178955078125</ele>
        <time>2018-10-12T12:47:34.000Z</time>
      </trkpt>
      <trkpt lat="30.9982604980468750" lon="-6.9452137947082520">
        <ele>1187.0</ele>
        <time>2018-10-12T12:47:35.000Z</time>
      </trkpt>
      <trkpt lat="30.9982852935791016" lon="-6.9452247619628906">
        <ele>1187.0</ele>
        <time>2018-10-12T12:47:36.000Z</time>
      </trkpt>
      <trkpt lat="30.9983081817626953" lon="-6.9452338218688965">
        <ele>1187.0</ele>
        <time>2018-10-12T12:47:37.000Z</time>
      </trkpt>
      <trkpt lat="30.9983310699462891" lon="-6.9452428817749023">
        <ele>1187.0</ele>
        <time>2018-10-12T12:47:38.000Z</time>
      </trkpt>
      <trkpt lat="30.9983520507812500" lon="-6.9452500343322754">
        <ele>1187.0</ele>
        <time>2018-10-12T12:47:39.000Z</time>
      </trkpt>
      <trkpt lat="30.9983730316162109" lon="-6.9452571868896484">
        <ele>1187.0</ele>
        <time>2018-10-12T12:47:40.000Z</time>
      </trkpt>
      <trkpt lat="30.9983901977539062" lon="-6.9452619552612305">
        <ele>1187.0</ele>
        <time>2018-10-12T12:47:41.000Z</time>
      </trkpt>
      <trkpt lat="30.9984092712402344" lon="-6.9452681541442871">
        <ele>1187.0</ele>
        <time>2018-10-12T12:47:42.000Z</time>
      </trkpt>
      <trkpt lat="30.9984283447265625" lon="-6.9452748298645020">
        <ele>1187.0</ele>
        <time>2018-10-12T12:47:43.000Z</time>
      </trkpt>
      <trkpt lat="30.9984493255615234" lon="-6.9452810287475586">
        <ele>1187.0</ele>
        <time>2018-10-12T12:47:44.000Z</time>
      </trkpt>
      <trkpt lat="30.9984722137451172" lon="-6.9452848434448242">
        <ele>1187.0</ele>
        <time>2018-10-12T12:47:45.000Z</time>
      </trkpt>
      <trkpt lat="30.9984912872314453" lon="-6.9452891349792480">
        <ele>1187.0</ele>
        <time>2018-10-12T12:47:46.000Z</time>
      </trkpt>
      <trkpt lat="30.9985103607177734" lon="-6.9452958106994629">
        <ele>1187.0</ele>
        <time>2018-10-12T12:47:47.000Z</time>
      </trkpt>
      <trkpt lat="30.9985294342041016" lon="-6.9453058242797852">
        <ele>1187.0</ele>
        <time>2018-10-12T12:47:48.000Z</time>
      </trkpt>
      <trkpt lat="30.9985523223876953" lon="-6.9453158378601074">
        <ele>1187.0</ele>
        <time>2018-10-12T12:47:49.000Z</time>
      </trkpt>
      <trkpt lat="30.9985790252685547" lon="-6.9453239440917969">
        <ele>1187.0</ele>
        <time>2018-10-12T12:47:50.000Z</time>
      </trkpt>
      <trkpt lat="30.9986076354980469" lon="-6.9453310966491699">
        <ele>1187.0</ele>
        <time>2018-10-12T12:47:51.000Z</time>
      </trkpt>
      <trkpt lat="30.9986324310302734" lon="-6.9453411102294922">
        <ele>1187.0</ele>
        <time>2018-10-12T12:47:52.000Z</time>
      </trkpt>
      <trkpt lat="30.9986553192138672" lon="-6.9453539848327637">
        <ele>1187.0</ele>
        <time>2018-10-12T12:47:53.000Z</time>
      </trkpt>
      <trkpt lat="30.9986782073974609" lon="-6.9453687667846680">
        <ele>1187.0</ele>
        <time>2018-10-12T12:47:54.000Z</time>
      </trkpt>
      <trkpt lat="30.9986972808837891" lon="-6.9453821182250977">
        <ele>1187.0</ele>
        <time>2018-10-12T12:47:55.000Z</time>
      </trkpt>
      <trkpt lat="30.9987144470214844" lon="-6.9453940391540527">
        <ele>1187.0</ele>
        <time>2018-10-12T12:47:56.000Z</time>
      </trkpt>
      <trkpt lat="30.9987297058105469" lon="-6.9454078674316406">
        <ele>1187.0</ele>
        <time>2018-10-12T12:47:57.000Z</time>
      </trkpt>
      <trkpt lat="30.9987468719482422" lon="-6.9454188346862793">
        <ele>1187.0</ele>
        <time>2018-10-12T12:47:58.000Z</time>
      </trkpt>
      <trkpt lat="30.9987678527832031" lon="-6.9454250335693359">
        <ele>1187.0</ele>
        <time>2018-10-12T12:47:59.000Z</time>
      </trkpt>
      <trkpt lat="30.9987888336181641" lon="-6.9454269409179688">
        <ele>1187.0</ele>
        <time>2018-10-12T12:48:00.000Z</time>
      </trkpt>
      <trkpt lat="30.9988117218017578" lon="-6.9454259872436523">
        <ele>1187.0</ele>
        <time>2018-10-12T12:48:01.000Z</time>
      </trkpt>
      <trkpt lat="30.9988346099853516" lon="-6.9454278945922852">
        <ele>1187.0</ele>
        <time>2018-10-12T12:48:02.000Z</time>
      </trkpt>
      <trkpt lat="30.9988594055175781" lon="-6.9454312324523926">
        <ele>1187.0</ele>
        <time>2018-10-12T12:48:03.000Z</time>
      </trkpt>
      <trkpt lat="30.9988842010498047" lon="-6.9454379081726074">
        <ele>1187.0</ele>
        <time>2018-10-12T12:48:04.000Z</time>
      </trkpt>
      <trkpt lat="30.9989109039306641" lon="-6.9454460144042969">
        <ele>1187.0</ele>
        <time>2018-10-12T12:48:05.000Z</time>
      </trkpt>
      <trkpt lat="30.9989337921142578" lon="-6.9454522132873535">
        <ele>1187.0</ele>
        <time>2018-10-12T12:48:06.000Z</time>
      </trkpt>
      <trkpt lat="30.9989566802978516" lon="-6.9454579353332520">
        <ele>1187.821044921875</ele>
        <time>2018-10-12T12:48:07.000Z</time>
      </trkpt>
      <trkpt lat="30.9989795684814453" lon="-6.9454641342163086">
        <ele>1188.0</ele>
        <time>2018-10-12T12:48:08.000Z</time>
      </trkpt>
      <trkpt lat="30.9990005493164062" lon="-6.9454698562622070">
        <ele>1188.0</ele>
        <time>2018-10-12T12:48:09.000Z</time>
      </trkpt>
      <trkpt lat="30.9990177154541016" lon="-6.9454779624938965">
        <ele>1188.0</ele>
        <time>2018-10-12T12:48:10.000Z</time>
      </trkpt>
      <trkpt lat="30.9990348815917969" lon="-6.9454860687255859">
        <ele>1188.0</ele>
        <time>2018-10-12T12:48:11.000Z</time>
      </trkpt>
      <trkpt lat="30.9990520477294922" lon="-6.9454941749572754">
        <ele>1188.0</ele>
        <time>2018-10-12T12:48:12.000Z</time>
      </trkpt>
      <trkpt lat="30.9990749359130859" lon="-6.9454989433288574">
        <ele>1188.81103515625</ele>
        <time>2018-10-12T12:48:13.000Z</time>
      </trkpt>
      <trkpt lat="30.9990997314453125" lon="-6.9455041885375977">
        <ele>1189.0</ele>
        <time>2018-10-12T12:48:14.000Z</time>
      </trkpt>
      <trkpt lat="30.9991264343261719" lon="-6.9455089569091797">
        <ele>1189.0</ele>
        <time>2018-10-12T12:48:15.000Z</time>
      </trkpt>
      <trkpt lat="30.9991531372070312" lon="-6.9455161094665527">
        <ele>1189.0</ele>
        <time>2018-10-12T12:48:16.000Z</time>
      </trkpt>
      <trkpt lat="30.9991817474365234" lon="-6.9455208778381348">
        <ele>1188.178955078125</ele>
        <time>2018-10-12T12:48:17.000Z</time>
      </trkpt>
      <trkpt lat="30.9992122650146484" lon="-6.9455261230468750">
        <ele>1187.3780517578125</ele>
        <time>2018-10-12T12:48:18.000Z</time>
      </trkpt>
      <trkpt lat="30.9992465972900391" lon="-6.9455327987670898">
        <ele>1187.0</ele>
        <time>2018-10-12T12:48:19.000Z</time>
      </trkpt>
      <trkpt lat="30.9992771148681641" lon="-6.9455418586730957">
        <ele>1187.0</ele>
        <time>2018-10-12T12:48:20.000Z</time>
      </trkpt>
      <trkpt lat="30.9993095397949219" lon="-6.9455480575561523">
        <ele>1186.178955078125</ele>
        <time>2018-10-12T12:48:21.000Z</time>
      </trkpt>
      <trkpt lat="30.9993400573730469" lon="-6.9455561637878418">
        <ele>1186.821044921875</ele>
        <time>2018-10-12T12:48:22.000Z</time>
      </trkpt>
      <trkpt lat="30.9993686676025391" lon="-6.9455637931823730">
        <ele>1187.0</ele>
        <time>2018-10-12T12:48:23.000Z</time>
      </trkpt>
      <trkpt lat="30.9993953704833984" lon="-6.9455718994140625">
        <ele>1187.0</ele>
        <time>2018-10-12T12:48:24.000Z</time>
      </trkpt>
      <trkpt lat="30.9994201660156250" lon="-6.9455809593200684">
        <ele>1187.0</ele>
        <time>2018-10-12T12:48:25.000Z</time>
      </trkpt>
      <trkpt lat="30.9994449615478516" lon="-6.9455919265747070">
        <ele>1187.0</ele>
        <time>2018-10-12T12:48:26.000Z</time>
      </trkpt>
      <trkpt lat="30.9994678497314453" lon="-6.9455990791320801">
        <ele>1187.0</ele>
        <time>2018-10-12T12:48:27.000Z</time>
      </trkpt>
      <trkpt lat="30.9994907379150391" lon="-6.9456071853637695">
        <ele>1187.0</ele>
        <time>2018-10-12T12:48:28.000Z</time>
      </trkpt>
      <trkpt lat="30.9995155334472656" lon="-6.9456129074096680">
        <ele>1187.821044921875</ele>
        <time>2018-10-12T12:48:29.000Z</time>
      </trkpt>
      <trkpt lat="30.9995403289794922" lon="-6.9456200599670410">
        <ele>1188.0</ele>
        <time>2018-10-12T12:48:30.000Z</time>
      </trkpt>
      <trkpt lat="30.9995689392089844" lon="-6.9456281661987305">
        <ele>1188.0</ele>
        <time>2018-10-12T12:48:31.000Z</time>
      </trkpt>
      <trkpt lat="30.9995956420898438" lon="-6.9456391334533691">
        <ele>1188.0</ele>
        <time>2018-10-12T12:48:32.000Z</time>
      </trkpt>
      <trkpt lat="30.9996242523193359" lon="-6.9456501007080078">
        <ele>1188.0</ele>
        <time>2018-10-12T12:48:33.000Z</time>
      </trkpt>
      <trkpt lat="30.9996547698974609" lon="-6.9456591606140137">
        <ele>1188.0</ele>
        <time>2018-10-12T12:48:34.000Z</time>
      </trkpt>
      <trkpt lat="30.9996852874755859" lon="-6.9456720352172852">
        <ele>1188.0</ele>
        <time>2018-10-12T12:48:35.000Z</time>
      </trkpt>
      <trkpt lat="30.9997177124023438" lon="-6.9456830024719238">
        <ele>1188.0</ele>
        <time>2018-10-12T12:48:36.000Z</time>
      </trkpt>
      <trkpt lat="30.9997482299804688" lon="-6.9456939697265625">
        <ele>1188.0</ele>
        <time>2018-10-12T12:48:37.000Z</time>
      </trkpt>
      <trkpt lat="30.9997806549072266" lon="-6.9457058906555176">
        <ele>1188.0</ele>
        <time>2018-10-12T12:48:38.000Z</time>
      </trkpt>
      <trkpt lat="30.9998130798339844" lon="-6.9457130432128906">
        <ele>1188.0</ele>
        <time>2018-10-12T12:48:39.000Z</time>
      </trkpt>
      <trkpt lat="30.9998493194580078" lon="-6.9457221031188965">
        <ele>1188.0</ele>
        <time>2018-10-12T12:48:40.000Z</time>
      </trkpt>
      <trkpt lat="30.9998836517333984" lon="-6.9457321166992188">
        <ele>1188.0</ele>
        <time>2018-10-12T12:48:41.000Z</time>
      </trkpt>
      <trkpt lat="30.9999198913574219" lon="-6.9457440376281738">
        <ele>1188.0</ele>
        <time>2018-10-12T12:48:42.000Z</time>
      </trkpt>
      <trkpt lat="30.9999523162841797" lon="-6.9457559585571289">
        <ele>1188.0</ele>
        <time>2018-10-12T12:48:43.000Z</time>
      </trkpt>
      <trkpt lat="30.9999866485595703" lon="-6.9457678794860840">
        <ele>1188.0</ele>
        <time>2018-10-12T12:48:44.000Z</time>
      </trkpt>
      <trkpt lat="31.0000228881835938" lon="-6.9457821846008301">
        <ele>1188.0</ele>
        <time>2018-10-12T12:48:45.000Z</time>
      </trkpt>
      <trkpt lat="31.0000572204589844" lon="-6.9457941055297852">
        <ele>1188.0</ele>
        <time>2018-10-12T12:48:46.000Z</time>
      </trkpt>
      <trkpt lat="31.0000934600830078" lon="-6.9458022117614746">
        <ele>1188.0</ele>
        <time>2018-10-12T12:48:47.000Z</time>
      </trkpt>
      <trkpt lat="31.0001296997070312" lon="-6.9458088874816895">
        <ele>1188.0</ele>
        <time>2018-10-12T12:48:48.000Z</time>
      </trkpt>
      <trkpt lat="31.0001659393310547" lon="-6.9458198547363281">
        <ele>1188.0</ele>
        <time>2018-10-12T12:48:49.000Z</time>
      </trkpt>
      <trkpt lat="31.0002021789550781" lon="-6.9458279609680176">
        <ele>1188.0</ele>
        <time>2018-10-12T12:48:50.000Z</time>
      </trkpt>
      <trkpt lat="31.0002365112304688" lon="-6.9458379745483398">
        <ele>1188.0</ele>
        <time>2018-10-12T12:48:51.000Z</time>
      </trkpt>
      <trkpt lat="31.0002727508544922" lon="-6.9458460807800293">
        <ele>1188.0</ele>
        <time>2018-10-12T12:48:52.000Z</time>
      </trkpt>
      <trkpt lat="31.0003070831298828" lon="-6.9458541870117188">
        <ele>1188.0</ele>
        <time>2018-10-12T12:48:53.000Z</time>
      </trkpt>
      <trkpt lat="31.0003414154052734" lon="-6.9458608627319336">
        <ele>1188.0</ele>
        <time>2018-10-12T12:48:54.000Z</time>
      </trkpt>
      <trkpt lat="31.0003757476806641" lon="-6.9458661079406738">
        <ele>1188.0</ele>
        <time>2018-10-12T12:48:55.000Z</time>
      </trkpt>
      <trkpt lat="31.0004100799560547" lon="-6.9458727836608887">
        <ele>1188.6219482421875</ele>
        <time>2018-10-12T12:48:56.000Z</time>
      </trkpt>
      <trkpt lat="31.0004425048828125" lon="-6.9458780288696289">
        <ele>1189.0</ele>
        <time>2018-10-12T12:48:57.000Z</time>
      </trkpt>
      <trkpt lat="31.0004768371582031" lon="-6.9458842277526855">
        <ele>1189.0</ele>
        <time>2018-10-12T12:48:58.000Z</time>
      </trkpt>
      <trkpt lat="31.0005111694335938" lon="-6.9458861351013184">
        <ele>1189.0</ele>
        <time>2018-10-12T12:48:59.000Z</time>
      </trkpt>
      <trkpt lat="31.0005474090576172" lon="-6.9458880424499512">
        <ele>1189.0</ele>
        <time>2018-10-12T12:49:00.000Z</time>
      </trkpt>
      <trkpt lat="31.0005836486816406" lon="-6.9458918571472168">
        <ele>1189.0</ele>
        <time>2018-10-12T12:49:01.000Z</time>
      </trkpt>
      <trkpt lat="31.0006217956542969" lon="-6.9458961486816406">
        <ele>1189.0</ele>
        <time>2018-10-12T12:49:02.000Z</time>
      </trkpt>
      <trkpt lat="31.0006618499755859" lon="-6.9458980560302734">
        <ele>1189.0</ele>
        <time>2018-10-12T12:49:03.000Z</time>
      </trkpt>
      <trkpt lat="31.0007019042968750" lon="-6.9459009170532227">
        <ele>1189.0</ele>
        <time>2018-10-12T12:49:04.000Z</time>
      </trkpt>
      <trkpt lat="31.0007438659667969" lon="-6.9459037780761719">
        <ele>1189.0</ele>
        <time>2018-10-12T12:49:05.000Z</time>
      </trkpt>
      <trkpt lat="31.0007858276367188" lon="-6.9459061622619629">
        <ele>1189.0</ele>
        <time>2018-10-12T12:49:06.000Z</time>
      </trkpt>
      <trkpt lat="31.0008277893066406" lon="-6.9459090232849121">
        <ele>1189.0</ele>
        <time>2018-10-12T12:49:07.000Z</time>
      </trkpt>
      <trkpt lat="31.0008716583251953" lon="-6.9459109306335449">
        <ele>1189.0</ele>
        <time>2018-10-12T12:49:08.000Z</time>
      </trkpt>
      <trkpt lat="31.0009136199951172" lon="-6.9459109306335449">
        <ele>1189.0</ele>
        <time>2018-10-12T12:49:09.000Z</time>
      </trkpt>
      <trkpt lat="31.0009555816650391" lon="-6.9459109306335449">
        <ele>1189.0</ele>
        <time>2018-10-12T12:49:10.000Z</time>
      </trkpt>
      <trkpt lat="31.0009975433349609" lon="-6.9459099769592285">
        <ele>1189.0</ele>
        <time>2018-10-12T12:49:11.000Z</time>
      </trkpt>
      <trkpt lat="31.0010375976562500" lon="-6.9459090232849121">
        <ele>1189.0</ele>
        <time>2018-10-12T12:49:12.000Z</time>
      </trkpt>
      <trkpt lat="31.0010757446289062" lon="-6.9459099769592285">
        <ele>1189.0</ele>
        <time>2018-10-12T12:49:13.000Z</time>
      </trkpt>
      <trkpt lat="31.0011119842529297" lon="-6.9459109306335449">
        <ele>1189.0</ele>
        <time>2018-10-12T12:49:14.000Z</time>
      </trkpt>
      <trkpt lat="31.0011463165283203" lon="-6.9459099769592285">
        <ele>1189.0</ele>
        <time>2018-10-12T12:49:15.000Z</time>
      </trkpt>
      <trkpt lat="31.0011825561523438" lon="-6.9459090232849121">
        <ele>1189.0</ele>
        <time>2018-10-12T12:49:16.000Z</time>
      </trkpt>
      <trkpt lat="31.0012187957763672" lon="-6.9459099769592285">
        <ele>1189.0</ele>
        <time>2018-10-12T12:49:17.000Z</time>
      </trkpt>
      <trkpt lat="31.0012569427490234" lon="-6.9459109306335449">
        <ele>1189.0</ele>
        <time>2018-10-12T12:49:18.000Z</time>
      </trkpt>
      <trkpt lat="31.0012950897216797" lon="-6.9459109306335449">
        <ele>1189.0</ele>
        <time>2018-10-12T12:49:19.000Z</time>
      </trkpt>
      <trkpt lat="31.0013332366943359" lon="-6.9459109306335449">
        <ele>1189.0</ele>
        <time>2018-10-12T12:49:20.000Z</time>
      </trkpt>
      <trkpt lat="31.0013694763183594" lon="-6.9459118843078613">
        <ele>1189.0</ele>
        <time>2018-10-12T12:49:21.000Z</time>
      </trkpt>
      <trkpt lat="31.0014076232910156" lon="-6.9459118843078613">
        <ele>1189.821044921875</ele>
        <time>2018-10-12T12:49:22.000Z</time>
      </trkpt>
      <trkpt lat="31.0014457702636719" lon="-6.9459118843078613">
        <ele>1190.0</ele>
        <time>2018-10-12T12:49:23.000Z</time>
      </trkpt>
      <trkpt lat="31.0014839172363281" lon="-6.9459118843078613">
        <ele>1190.0</ele>
        <time>2018-10-12T12:49:24.000Z</time>
      </trkpt>
      <trkpt lat="31.0015220642089844" lon="-6.9459128379821777">
        <ele>1190.0</ele>
        <time>2018-10-12T12:49:25.000Z</time>
      </trkpt>
      <trkpt lat="31.0015602111816406" lon="-6.9459137916564941">
        <ele>1190.0</ele>
        <time>2018-10-12T12:49:26.000Z</time>
      </trkpt>
      <trkpt lat="31.0015983581542969" lon="-6.9459128379821777">
        <ele>1190.0</ele>
        <time>2018-10-12T12:49:27.000Z</time>
      </trkpt>
      <trkpt lat="31.0016345977783203" lon="-6.9459128379821777">
        <ele>1190.0</ele>
        <time>2018-10-12T12:49:28.000Z</time>
      </trkpt>
      <trkpt lat="31.0016708374023438" lon="-6.9459128379821777">
        <ele>1190.0</ele>
        <time>2018-10-12T12:49:29.000Z</time>
      </trkpt>
      <trkpt lat="31.0017051696777344" lon="-6.9459118843078613">
        <ele>1190.0</ele>
        <time>2018-10-12T12:49:30.000Z</time>
      </trkpt>
      <trkpt lat="31.0017395019531250" lon="-6.9459099769592285">
        <ele>1190.0</ele>
        <time>2018-10-12T12:49:31.000Z</time>
      </trkpt>
      <trkpt lat="31.0017719268798828" lon="-6.9459080696105957">
        <ele>1190.0</ele>
        <time>2018-10-12T12:49:32.000Z</time>
      </trkpt>
      <trkpt lat="31.0018043518066406" lon="-6.9459071159362793">
        <ele>1190.0</ele>
        <time>2018-10-12T12:49:33.000Z</time>
      </trkpt>
      <trkpt lat="31.0018348693847656" lon="-6.9459061622619629">
        <ele>1190.0</ele>
        <time>2018-10-12T12:49:34.000Z</time>
      </trkpt>
      <trkpt lat="31.0018634796142578" lon="-6.9459028244018555">
        <ele>1190.0</ele>
        <time>2018-10-12T12:49:35.000Z</time>
      </trkpt>
      <trkpt lat="31.0018959045410156" lon="-6.9459009170532227">
        <ele>1190.0</ele>
        <time>2018-10-12T12:49:36.000Z</time>
      </trkpt>
      <trkpt lat="31.0019245147705078" lon="-6.9458980560302734">
        <ele>1190.0</ele>
        <time>2018-10-12T12:49:37.000Z</time>
      </trkpt>
      <trkpt lat="31.0019569396972656" lon="-6.9458937644958496">
        <ele>1189.178955078125</ele>
        <time>2018-10-12T12:49:38.000Z</time>
      </trkpt>
      <trkpt lat="31.0019874572753906" lon="-6.9458889961242676">
        <ele>1189.0</ele>
        <time>2018-10-12T12:49:39.000Z</time>
      </trkpt>
      <trkpt lat="31.0020217895507812" lon="-6.9458851814270020">
        <ele>1189.0</ele>
        <time>2018-10-12T12:49:40.000Z</time>
      </trkpt>
      <trkpt lat="31.0020523071289062" lon="-6.9458808898925781">
        <ele>1189.0</ele>
        <time>2018-10-12T12:49:41.000Z</time>
      </trkpt>
      <trkpt lat="31.0020847320556641" lon="-6.9458770751953125">
        <ele>1189.0</ele>
        <time>2018-10-12T12:49:42.000Z</time>
      </trkpt>
      <trkpt lat="31.0021152496337891" lon="-6.9458742141723633">
        <ele>1189.0</ele>
        <time>2018-10-12T12:49:43.000Z</time>
      </trkpt>
      <trkpt lat="31.0021476745605469" lon="-6.9458708763122559">
        <ele>1189.0</ele>
        <time>2018-10-12T12:49:44.000Z</time>
      </trkpt>
      <trkpt lat="31.0021762847900391" lon="-6.9458670616149902">
        <ele>1189.0</ele>
        <time>2018-10-12T12:49:45.000Z</time>
      </trkpt>
      <trkpt lat="31.0022068023681641" lon="-6.9458618164062500">
        <ele>1189.0</ele>
        <time>2018-10-12T12:49:46.000Z</time>
      </trkpt>
      <trkpt lat="31.0022354125976562" lon="-6.9458580017089844">
        <ele>1189.0</ele>
        <time>2018-10-12T12:49:47.000Z</time>
      </trkpt>
      <trkpt lat="31.0022659301757812" lon="-6.9458570480346680">
        <ele>1189.0</ele>
        <time>2018-10-12T12:49:48.000Z</time>
      </trkpt>
      <trkpt lat="31.0022945404052734" lon="-6.9458560943603516">
        <ele>1189.0</ele>
        <time>2018-10-12T12:49:49.000Z</time>
      </trkpt>
      <trkpt lat="31.0023250579833984" lon="-6.9458551406860352">
        <ele>1189.0</ele>
        <time>2018-10-12T12:49:50.000Z</time>
      </trkpt>
      <trkpt lat="31.0023574829101562" lon="-6.9458532333374023">
        <ele>1189.0</ele>
        <time>2018-10-12T12:49:51.000Z</time>
      </trkpt>
      <trkpt lat="31.0023899078369141" lon="-6.9458508491516113">
        <ele>1189.0</ele>
        <time>2018-10-12T12:49:52.000Z</time>
      </trkpt>
      <trkpt lat="31.0024223327636719" lon="-6.9458498954772949">
        <ele>1189.0</ele>
        <time>2018-10-12T12:49:53.000Z</time>
      </trkpt>
      <trkpt lat="31.0024585723876953" lon="-6.9458508491516113">
        <ele>1189.0</ele>
        <time>2018-10-12T12:49:54.000Z</time>
      </trkpt>
      <trkpt lat="31.0024948120117188" lon="-6.9458541870117188">
        <ele>1189.0</ele>
        <time>2018-10-12T12:49:55.000Z</time>
      </trkpt>
      <trkpt lat="31.0025310516357422" lon="-6.9458541870117188">
        <ele>1189.0</ele>
        <time>2018-10-12T12:49:56.000Z</time>
      </trkpt>
      <trkpt lat="31.0025691986083984" lon="-6.9458518028259277">
        <ele>1189.0</ele>
        <time>2018-10-12T12:49:57.000Z</time>
      </trkpt>
      <trkpt lat="31.0026073455810547" lon="-6.9458489418029785">
        <ele>1189.0</ele>
        <time>2018-10-12T12:49:58.000Z</time>
      </trkpt>
      <trkpt lat="31.0026454925537109" lon="-6.9458470344543457">
        <ele>1189.0</ele>
        <time>2018-10-12T12:49:59.000Z</time>
      </trkpt>
      <trkpt lat="31.0026855468750000" lon="-6.9458470344543457">
        <ele>1189.0</ele>
        <time>2018-10-12T12:50:00.000Z</time>
      </trkpt>
      <trkpt lat="31.0027236938476562" lon="-6.9458470344543457">
        <ele>1189.0</ele>
        <time>2018-10-12T12:50:01.000Z</time>
      </trkpt>
      <trkpt lat="31.0027637481689453" lon="-6.9458479881286621">
        <ele>1189.0</ele>
        <time>2018-10-12T12:50:02.000Z</time>
      </trkpt>
      <trkpt lat="31.0028018951416016" lon="-6.9458508491516113">
        <ele>1189.0</ele>
        <time>2018-10-12T12:50:03.000Z</time>
      </trkpt>
      <trkpt lat="31.0028419494628906" lon="-6.9458508491516113">
        <ele>1189.0</ele>
        <time>2018-10-12T12:50:04.000Z</time>
      </trkpt>
      <trkpt lat="31.0028800964355469" lon="-6.9458518028259277">
        <ele>1189.0</ele>
        <time>2018-10-12T12:50:05.000Z</time>
      </trkpt>
      <trkpt lat="31.0029182434082031" lon="-6.9458551406860352">
        <ele>1189.0</ele>
        <time>2018-10-12T12:50:06.000Z</time>
      </trkpt>
      <trkpt lat="31.0029582977294922" lon="-6.9458599090576172">
        <ele>1189.0</ele>
        <time>2018-10-12T12:50:07.000Z</time>
      </trkpt>
      <trkpt lat="31.0029964447021484" lon="-6.9458661079406738">
        <ele>1189.0</ele>
        <time>2018-10-12T12:50:08.000Z</time>
      </trkpt>
      <trkpt lat="31.0030345916748047" lon="-6.9458751678466797">
        <ele>1189.821044921875</ele>
        <time>2018-10-12T12:50:09.000Z</time>
      </trkpt>
      <trkpt lat="31.0030727386474609" lon="-6.9458899497985840">
        <ele>1190.0</ele>
        <time>2018-10-12T12:50:10.000Z</time>
      </trkpt>
      <trkpt lat="31.0031070709228516" lon="-6.9459052085876465">
        <ele>1190.0</ele>
        <time>2018-10-12T12:50:11.000Z</time>
      </trkpt>
      <trkpt lat="31.0031414031982422" lon="-6.9459261894226074">
        <ele>1190.0</ele>
        <time>2018-10-12T12:50:12.000Z</time>
      </trkpt>
      <trkpt lat="31.0031738281250000" lon="-6.9459481239318848">
        <ele>1190.0</ele>
        <time>2018-10-12T12:50:13.000Z</time>
      </trkpt>
      <trkpt lat="31.0032081604003906" lon="-6.9459600448608398">
        <ele>1190.0</ele>
        <time>2018-10-12T12:50:14.000Z</time>
      </trkpt>
      <trkpt lat="31.0032424926757812" lon="-6.9459581375122070">
        <ele>1190.0</ele>
        <time>2018-10-12T12:50:15.000Z</time>
      </trkpt>
      <trkpt lat="31.0032711029052734" lon="-6.9459547996520996">
        <ele>1190.0</ele>
        <time>2018-10-12T12:50:16.000Z</time>
      </trkpt>
      <trkpt lat="31.0033016204833984" lon="-6.9459600448608398">
        <ele>1190.821044921875</ele>
        <time>2018-10-12T12:50:17.000Z</time>
      </trkpt>
      <trkpt lat="31.0033264160156250" lon="-6.9459681510925293">
        <ele>1191.0</ele>
        <time>2018-10-12T12:50:18.000Z</time>
      </trkpt>
      <trkpt lat="31.0033531188964844" lon="-6.9459738731384277">
        <ele>1191.0</ele>
        <time>2018-10-12T12:50:19.000Z</time>
      </trkpt>
      <trkpt lat="31.0033779144287109" lon="-6.9459772109985352">
        <ele>1191.0</ele>
        <time>2018-10-12T12:50:20.000Z</time>
      </trkpt>
      <trkpt lat="31.0034027099609375" lon="-6.9459819793701172">
        <ele>1191.0</ele>
        <time>2018-10-12T12:50:21.000Z</time>
      </trkpt>
      <trkpt lat="31.0034294128417969" lon="-6.9459857940673828">
        <ele>1191.0</ele>
        <time>2018-10-12T12:50:22.000Z</time>
      </trkpt>
      <trkpt lat="31.0034580230712891" lon="-6.9459891319274902">
        <ele>1191.0</ele>
        <time>2018-10-12T12:50:23.000Z</time>
      </trkpt>
      <trkpt lat="31.0034866333007812" lon="-6.9459981918334961">
        <ele>1191.0</ele>
        <time>2018-10-12T12:50:24.000Z</time>
      </trkpt>
      <trkpt lat="31.0035152435302734" lon="-6.9460039138793945">
        <ele>1191.0</ele>
        <time>2018-10-12T12:50:25.000Z</time>
      </trkpt>
      <trkpt lat="31.0035419464111328" lon="-6.9460101127624512">
        <ele>1191.0</ele>
        <time>2018-10-12T12:50:26.000Z</time>
      </trkpt>
      <trkpt lat="31.0035667419433594" lon="-6.9460158348083496">
        <ele>1191.0</ele>
        <time>2018-10-12T12:50:27.000Z</time>
      </trkpt>
      <trkpt lat="31.0035896301269531" lon="-6.9460191726684570">
        <ele>1191.0</ele>
        <time>2018-10-12T12:50:28.000Z</time>
      </trkpt>
      <trkpt lat="31.0036106109619141" lon="-6.9460239410400391">
        <ele>1191.0</ele>
        <time>2018-10-12T12:50:29.000Z</time>
      </trkpt>
      <trkpt lat="31.0036315917968750" lon="-6.9460248947143555">
        <ele>1191.0</ele>
        <time>2018-10-12T12:50:30.000Z</time>
      </trkpt>
      <trkpt lat="31.0036563873291016" lon="-6.9460282325744629">
        <ele>1191.0</ele>
        <time>2018-10-12T12:50:31.000Z</time>
      </trkpt>
      <trkpt lat="31.0036869049072266" lon="-6.9460320472717285">
        <ele>1191.0</ele>
        <time>2018-10-12T12:50:32.000Z</time>
      </trkpt>
      <trkpt lat="31.0037174224853516" lon="-6.9460377693176270">
        <ele>1191.0</ele>
        <time>2018-10-12T12:50:33.000Z</time>
      </trkpt>
      <trkpt lat="31.0037517547607422" lon="-6.9460420608520508">
        <ele>1191.0</ele>
        <time>2018-10-12T12:50:34.000Z</time>
      </trkpt>
      <trkpt lat="31.0037822723388672" lon="-6.9460458755493164">
        <ele>1191.0</ele>
        <time>2018-10-12T12:50:35.000Z</time>
      </trkpt>
      <trkpt lat="31.0038127899169922" lon="-6.9460539817810059">
        <ele>1190.3902587890625</ele>
        <time>2018-10-12T12:50:36.000Z</time>
      </trkpt>
      <trkpt lat="31.0038394927978516" lon="-6.9460630416870117">
        <ele>1190.0</ele>
        <time>2018-10-12T12:50:37.000Z</time>
      </trkpt>
      <trkpt lat="31.0038661956787109" lon="-6.9460759162902832">
        <ele>1190.0</ele>
        <time>2018-10-12T12:50:38.000Z</time>
      </trkpt>
      <trkpt lat="31.0038928985595703" lon="-6.9460878372192383">
        <ele>1190.821044921875</ele>
        <time>2018-10-12T12:50:39.000Z</time>
      </trkpt>
      <trkpt lat="31.0039215087890625" lon="-6.9460949897766113">
        <ele>1191.0</ele>
        <time>2018-10-12T12:50:40.000Z</time>
      </trkpt>
      <trkpt lat="31.0039520263671875" lon="-6.9461011886596680">
        <ele>1191.0</ele>
        <time>2018-10-12T12:50:41.000Z</time>
      </trkpt>
      <trkpt lat="31.0039863586425781" lon="-6.9461011886596680">
        <ele>1191.0</ele>
        <time>2018-10-12T12:50:42.000Z</time>
      </trkpt>
      <trkpt lat="31.0040206909179688" lon="-6.9461011886596680">
        <ele>1191.0</ele>
        <time>2018-10-12T12:50:43.000Z</time>
      </trkpt>
      <trkpt lat="31.0040531158447266" lon="-6.9461011886596680">
        <ele>1191.0</ele>
        <time>2018-10-12T12:50:44.000Z</time>
      </trkpt>
      <trkpt lat="31.0040836334228516" lon="-6.9461040496826172">
        <ele>1191.0</ele>
        <time>2018-10-12T12:50:45.000Z</time>
      </trkpt>
      <trkpt lat="31.0041141510009766" lon="-6.9461078643798828">
        <ele>1191.0</ele>
        <time>2018-10-12T12:50:46.000Z</time>
      </trkpt>
      <trkpt lat="31.0041465759277344" lon="-6.9461088180541992">
        <ele>1191.0</ele>
        <time>2018-10-12T12:50:47.000Z</time>
      </trkpt>
      <trkpt lat="31.0041770935058594" lon="-6.9461121559143066">
        <ele>1191.0</ele>
        <time>2018-10-12T12:50:48.000Z</time>
      </trkpt>
      <trkpt lat="31.0042114257812500" lon="-6.9461178779602051">
        <ele>1191.0</ele>
        <time>2018-10-12T12:50:49.000Z</time>
      </trkpt>
      <trkpt lat="31.0042457580566406" lon="-6.9461240768432617">
        <ele>1191.0</ele>
        <time>2018-10-12T12:50:50.000Z</time>
      </trkpt>
      <trkpt lat="31.0042781829833984" lon="-6.9461297988891602">
        <ele>1191.0</ele>
        <time>2018-10-12T12:50:51.000Z</time>
      </trkpt>
      <trkpt lat="31.0043144226074219" lon="-6.9461359977722168">
        <ele>1191.0</ele>
        <time>2018-10-12T12:50:52.000Z</time>
      </trkpt>
      <trkpt lat="31.0043506622314453" lon="-6.9461441040039062">
        <ele>1191.0</ele>
        <time>2018-10-12T12:50:53.000Z</time>
      </trkpt>
      <trkpt lat="31.0043869018554688" lon="-6.9461498260498047">
        <ele>1191.821044921875</ele>
        <time>2018-10-12T12:50:54.000Z</time>
      </trkpt>
      <trkpt lat="31.0044212341308594" lon="-6.9461569786071777">
        <ele>1192.0</ele>
        <time>2018-10-12T12:50:55.000Z</time>
      </trkpt>
      <trkpt lat="31.0044593811035156" lon="-6.9461641311645508">
        <ele>1192.0</ele>
        <time>2018-10-12T12:50:56.000Z</time>
      </trkpt>
      <trkpt lat="31.0044975280761719" lon="-6.9461698532104492">
        <ele>1192.0</ele>
        <time>2018-10-12T12:50:57.000Z</time>
      </trkpt>
      <trkpt lat="31.0045356750488281" lon="-6.9461779594421387">
        <ele>1192.0</ele>
        <time>2018-10-12T12:50:58.000Z</time>
      </trkpt>
      <trkpt lat="31.0045757293701172" lon="-6.9461841583251953">
        <ele>1192.0</ele>
        <time>2018-10-12T12:50:59.000Z</time>
      </trkpt>
      <trkpt lat="31.0046157836914062" lon="-6.9461932182312012">
        <ele>1192.0</ele>
        <time>2018-10-12T12:51:00.000Z</time>
      </trkpt>
      <trkpt lat="31.0046558380126953" lon="-6.9462051391601562">
        <ele>1192.0</ele>
        <time>2018-10-12T12:51:01.000Z</time>
      </trkpt>
      <trkpt lat="31.0046958923339844" lon="-6.9462170600891113">
        <ele>1192.0</ele>
        <time>2018-10-12T12:51:02.000Z</time>
      </trkpt>
      <trkpt lat="31.0047378540039062" lon="-6.9462280273437500">
        <ele>1192.0</ele>
        <time>2018-10-12T12:51:03.000Z</time>
      </trkpt>
      <trkpt lat="31.0047779083251953" lon="-6.9462380409240723">
        <ele>1191.3902587890625</ele>
        <time>2018-10-12T12:51:04.000Z</time>
      </trkpt>
      <trkpt lat="31.0048160552978516" lon="-6.9462480545043945">
        <ele>1191.0</ele>
        <time>2018-10-12T12:51:05.000Z</time>
      </trkpt>
      <trkpt lat="31.0048561096191406" lon="-6.9462571144104004">
        <ele>1191.0</ele>
        <time>2018-10-12T12:51:06.000Z</time>
      </trkpt>
      <trkpt lat="31.0048942565917969" lon="-6.9462661743164062">
        <ele>1191.0</ele>
        <time>2018-10-12T12:51:07.000Z</time>
      </trkpt>
      <trkpt lat="31.0049324035644531" lon="-6.9462771415710449">
        <ele>1191.821044921875</ele>
        <time>2018-10-12T12:51:08.000Z</time>
      </trkpt>
      <trkpt lat="31.0049705505371094" lon="-6.9462881088256836">
        <ele>1192.0</ele>
        <time>2018-10-12T12:51:09.000Z</time>
      </trkpt>
      <trkpt lat="31.0050067901611328" lon="-6.9462971687316895">
        <ele>1192.0</ele>
        <time>2018-10-12T12:51:10.000Z</time>
      </trkpt>
      <trkpt lat="31.0050449371337891" lon="-6.9463081359863281">
        <ele>1192.0</ele>
        <time>2018-10-12T12:51:11.000Z</time>
      </trkpt>
      <trkpt lat="31.0050811767578125" lon="-6.9463200569152832">
        <ele>1192.0</ele>
        <time>2018-10-12T12:51:12.000Z</time>
      </trkpt>
      <trkpt lat="31.0051193237304688" lon="-6.9463319778442383">
        <ele>1192.0</ele>
        <time>2018-10-12T12:51:13.000Z</time>
      </trkpt>
      <trkpt lat="31.0051574707031250" lon="-6.9463438987731934">
        <ele>1192.0</ele>
        <time>2018-10-12T12:51:14.000Z</time>
      </trkpt>
      <trkpt lat="31.0051937103271484" lon="-6.9463548660278320">
        <ele>1192.0</ele>
        <time>2018-10-12T12:51:15.000Z</time>
      </trkpt>
      <trkpt lat="31.0052318572998047" lon="-6.9463658332824707">
        <ele>1192.0</ele>
        <time>2018-10-12T12:51:16.000Z</time>
      </trkpt>
      <trkpt lat="31.0052680969238281" lon="-6.9463768005371094">
        <ele>1192.0</ele>
        <time>2018-10-12T12:51:17.000Z</time>
      </trkpt>
      <trkpt lat="31.0053062438964844" lon="-6.9463877677917480">
        <ele>1192.0</ele>
        <time>2018-10-12T12:51:18.000Z</time>
      </trkpt>
      <trkpt lat="31.0053443908691406" lon="-6.9463992118835449">
        <ele>1192.0</ele>
        <time>2018-10-12T12:51:19.000Z</time>
      </trkpt>
      <trkpt lat="31.0053844451904297" lon="-6.9464101791381836">
        <ele>1192.0</ele>
        <time>2018-10-12T12:51:20.000Z</time>
      </trkpt>
      <trkpt lat="31.0054225921630859" lon="-6.9464201927185059">
        <ele>1192.0</ele>
        <time>2018-10-12T12:51:21.000Z</time>
      </trkpt>
      <trkpt lat="31.0054607391357422" lon="-6.9464287757873535">
        <ele>1192.0</ele>
        <time>2018-10-12T12:51:22.000Z</time>
      </trkpt>
      <trkpt lat="31.0054988861083984" lon="-6.9464378356933594">
        <ele>1192.0</ele>
        <time>2018-10-12T12:51:23.000Z</time>
      </trkpt>
      <trkpt lat="31.0055370330810547" lon="-6.9464459419250488">
        <ele>1192.0</ele>
        <time>2018-10-12T12:51:24.000Z</time>
      </trkpt>
      <trkpt lat="31.0055732727050781" lon="-6.9464550018310547">
        <ele>1192.0</ele>
        <time>2018-10-12T12:51:25.000Z</time>
      </trkpt>
      <trkpt lat="31.0056095123291016" lon="-6.9464650154113770">
        <ele>1192.0</ele>
        <time>2018-10-12T12:51:26.000Z</time>
      </trkpt>
      <trkpt lat="31.0056476593017578" lon="-6.9464750289916992">
        <ele>1192.0</ele>
        <time>2018-10-12T12:51:27.000Z</time>
      </trkpt>
      <trkpt lat="31.0056838989257812" lon="-6.9464850425720215">
        <ele>1192.0</ele>
        <time>2018-10-12T12:51:28.000Z</time>
      </trkpt>
      <trkpt lat="31.0057182312011719" lon="-6.9464950561523438">
        <ele>1192.0</ele>
        <time>2018-10-12T12:51:29.000Z</time>
      </trkpt>
      <trkpt lat="31.0057525634765625" lon="-6.9465041160583496">
        <ele>1192.0</ele>
        <time>2018-10-12T12:51:30.000Z</time>
      </trkpt>
      <trkpt lat="31.0057888031005859" lon="-6.9465141296386719">
        <ele>1192.7406005859375</ele>
        <time>2018-10-12T12:51:31.000Z</time>
      </trkpt>
      <trkpt lat="31.0058231353759766" lon="-6.9465231895446777">
        <ele>1193.0</ele>
        <time>2018-10-12T12:51:32.000Z</time>
      </trkpt>
      <trkpt lat="31.0058593750000000" lon="-6.9465341567993164">
        <ele>1193.0</ele>
        <time>2018-10-12T12:51:33.000Z</time>
      </trkpt>
      <trkpt lat="31.0058956146240234" lon="-6.9465460777282715">
        <ele>1193.0</ele>
        <time>2018-10-12T12:51:34.000Z</time>
      </trkpt>
      <trkpt lat="31.0059318542480469" lon="-6.9465579986572266">
        <ele>1193.0</ele>
        <time>2018-10-12T12:51:35.000Z</time>
      </trkpt>
      <trkpt lat="31.0059680938720703" lon="-6.9465718269348145">
        <ele>1193.0</ele>
        <time>2018-10-12T12:51:36.000Z</time>
      </trkpt>
      <trkpt lat="31.0060062408447266" lon="-6.9465861320495605">
        <ele>1193.0</ele>
        <time>2018-10-12T12:51:37.000Z</time>
      </trkpt>
      <trkpt lat="31.0060443878173828" lon="-6.9466018676757812">
        <ele>1193.0</ele>
        <time>2018-10-12T12:51:38.000Z</time>
      </trkpt>
      <trkpt lat="31.0060825347900391" lon="-6.9466171264648438">
        <ele>1193.0</ele>
        <time>2018-10-12T12:51:39.000Z</time>
      </trkpt>
      <trkpt lat="31.0061206817626953" lon="-6.9466319084167480">
        <ele>1193.0</ele>
        <time>2018-10-12T12:51:40.000Z</time>
      </trkpt>
      <trkpt lat="31.0061588287353516" lon="-6.9466500282287598">
        <ele>1193.0</ele>
        <time>2018-10-12T12:51:41.000Z</time>
      </trkpt>
      <trkpt lat="31.0061950683593750" lon="-6.9466691017150879">
        <ele>1193.0</ele>
        <time>2018-10-12T12:51:42.000Z</time>
      </trkpt>
      <trkpt lat="31.0062332153320312" lon="-6.9466900825500488">
        <ele>1193.0</ele>
        <time>2018-10-12T12:51:43.000Z</time>
      </trkpt>
      <trkpt lat="31.0062713623046875" lon="-6.9467110633850098">
        <ele>1193.0</ele>
        <time>2018-10-12T12:51:44.000Z</time>
      </trkpt>
      <trkpt lat="31.0063095092773438" lon="-6.9467349052429199">
        <ele>1193.0</ele>
        <time>2018-10-12T12:51:45.000Z</time>
      </trkpt>
      <trkpt lat="31.0063457489013672" lon="-6.9467592239379883">
        <ele>1193.0</ele>
        <time>2018-10-12T12:51:46.000Z</time>
      </trkpt>
      <trkpt lat="31.0063838958740234" lon="-6.9467849731445312">
        <ele>1193.0</ele>
        <time>2018-10-12T12:51:47.000Z</time>
      </trkpt>
      <trkpt lat="31.0064201354980469" lon="-6.9468111991882324">
        <ele>1193.0</ele>
        <time>2018-10-12T12:51:48.000Z</time>
      </trkpt>
      <trkpt lat="31.0064544677734375" lon="-6.9468379020690918">
        <ele>1193.0</ele>
        <time>2018-10-12T12:51:49.000Z</time>
      </trkpt>
      <trkpt lat="31.0064907073974609" lon="-6.9468660354614258">
        <ele>1193.0</ele>
        <time>2018-10-12T12:51:50.000Z</time>
      </trkpt>
      <trkpt lat="31.0065250396728516" lon="-6.9468941688537598">
        <ele>1193.0</ele>
        <time>2018-10-12T12:51:51.000Z</time>
      </trkpt>
      <trkpt lat="31.0065612792968750" lon="-6.9469208717346191">
        <ele>1193.0</ele>
        <time>2018-10-12T12:51:52.000Z</time>
      </trkpt>
      <trkpt lat="31.0065975189208984" lon="-6.9469470977783203">
        <ele>1193.0</ele>
        <time>2018-10-12T12:51:53.000Z</time>
      </trkpt>
      <trkpt lat="31.0066337585449219" lon="-6.9469738006591797">
        <ele>1193.0</ele>
        <time>2018-10-12T12:51:54.000Z</time>
      </trkpt>
      <trkpt lat="31.0066680908203125" lon="-6.9470009803771973">
        <ele>1193.0</ele>
        <time>2018-10-12T12:51:55.000Z</time>
      </trkpt>
      <trkpt lat="31.0067043304443359" lon="-6.9470291137695312">
        <ele>1193.0</ele>
        <time>2018-10-12T12:51:56.000Z</time>
      </trkpt>
      <trkpt lat="31.0067405700683594" lon="-6.9470567703247070">
        <ele>1193.0</ele>
        <time>2018-10-12T12:51:57.000Z</time>
      </trkpt>
      <trkpt lat="31.0067768096923828" lon="-6.9470829963684082">
        <ele>1193.0</ele>
        <time>2018-10-12T12:51:58.000Z</time>
      </trkpt>
      <trkpt lat="31.0068130493164062" lon="-6.9471092224121094">
        <ele>1193.0</ele>
        <time>2018-10-12T12:51:59.000Z</time>
      </trkpt>
      <trkpt lat="31.0068492889404297" lon="-6.9471349716186523">
        <ele>1193.0</ele>
        <time>2018-10-12T12:52:00.000Z</time>
      </trkpt>
      <trkpt lat="31.0068855285644531" lon="-6.9471611976623535">
        <ele>1193.0</ele>
        <time>2018-10-12T12:52:01.000Z</time>
      </trkpt>
      <trkpt lat="31.0069217681884766" lon="-6.9471888542175293">
        <ele>1193.0</ele>
        <time>2018-10-12T12:52:02.000Z</time>
      </trkpt>
      <trkpt lat="31.0069580078125000" lon="-6.9472169876098633">
        <ele>1193.0</ele>
        <time>2018-10-12T12:52:03.000Z</time>
      </trkpt>
      <trkpt lat="31.0069942474365234" lon="-6.9472441673278809">
        <ele>1193.0</ele>
        <time>2018-10-12T12:52:04.000Z</time>
      </trkpt>
      <trkpt lat="31.0070285797119141" lon="-6.9472718238830566">
        <ele>1193.0</ele>
        <time>2018-10-12T12:52:05.000Z</time>
      </trkpt>
      <trkpt lat="31.0070648193359375" lon="-6.9472999572753906">
        <ele>1193.0</ele>
        <time>2018-10-12T12:52:06.000Z</time>
      </trkpt>
      <trkpt lat="31.0070991516113281" lon="-6.9473271369934082">
        <ele>1193.0</ele>
        <time>2018-10-12T12:52:07.000Z</time>
      </trkpt>
      <trkpt lat="31.0071334838867188" lon="-6.9473528861999512">
        <ele>1193.0</ele>
        <time>2018-10-12T12:52:08.000Z</time>
      </trkpt>
      <trkpt lat="31.0071678161621094" lon="-6.9473800659179688">
        <ele>1193.0</ele>
        <time>2018-10-12T12:52:09.000Z</time>
      </trkpt>
      <trkpt lat="31.0072002410888672" lon="-6.9474058151245117">
        <ele>1192.178955078125</ele>
        <time>2018-10-12T12:52:10.000Z</time>
      </trkpt>
      <trkpt lat="31.0072326660156250" lon="-6.9474320411682129">
        <ele>1192.0</ele>
        <time>2018-10-12T12:52:11.000Z</time>
      </trkpt>
      <trkpt lat="31.0072650909423828" lon="-6.9474558830261230">
        <ele>1192.821044921875</ele>
        <time>2018-10-12T12:52:12.000Z</time>
      </trkpt>
      <trkpt lat="31.0072975158691406" lon="-6.9474811553955078">
        <ele>1193.0</ele>
        <time>2018-10-12T12:52:13.000Z</time>
      </trkpt>
      <trkpt lat="31.0073299407958984" lon="-6.9475069046020508">
        <ele>1193.0</ele>
        <time>2018-10-12T12:52:14.000Z</time>
      </trkpt>
      <trkpt lat="31.0073604583740234" lon="-6.9475331306457520">
        <ele>1193.0</ele>
        <time>2018-10-12T12:52:15.000Z</time>
      </trkpt>
      <trkpt lat="31.0073928833007812" lon="-6.9475588798522949">
        <ele>1193.0</ele>
        <time>2018-10-12T12:52:16.000Z</time>
      </trkpt>
      <trkpt lat="31.0074234008789062" lon="-6.9475851058959961">
        <ele>1193.0</ele>
        <time>2018-10-12T12:52:17.000Z</time>
      </trkpt>
      <trkpt lat="31.0074539184570312" lon="-6.9476099014282227">
        <ele>1193.0</ele>
        <time>2018-10-12T12:52:18.000Z</time>
      </trkpt>
      <trkpt lat="31.0074863433837891" lon="-6.9476342201232910">
        <ele>1193.0</ele>
        <time>2018-10-12T12:52:19.000Z</time>
      </trkpt>
      <trkpt lat="31.0075168609619141" lon="-6.9476580619812012">
        <ele>1193.0</ele>
        <time>2018-10-12T12:52:20.000Z</time>
      </trkpt>
      <trkpt lat="31.0075473785400391" lon="-6.9476828575134277">
        <ele>1193.0</ele>
        <time>2018-10-12T12:52:21.000Z</time>
      </trkpt>
      <trkpt lat="31.0075778961181641" lon="-6.9477081298828125">
        <ele>1193.0</ele>
        <time>2018-10-12T12:52:22.000Z</time>
      </trkpt>
      <trkpt lat="31.0076065063476562" lon="-6.9477319717407227">
        <ele>1193.0</ele>
        <time>2018-10-12T12:52:23.000Z</time>
      </trkpt>
      <trkpt lat="31.0076332092285156" lon="-6.9477548599243164">
        <ele>1193.0</ele>
        <time>2018-10-12T12:52:24.000Z</time>
      </trkpt>
      <trkpt lat="31.0076618194580078" lon="-6.9477767944335938">
        <ele>1193.0</ele>
        <time>2018-10-12T12:52:25.000Z</time>
      </trkpt>
      <trkpt lat="31.0076866149902344" lon="-6.9478001594543457">
        <ele>1193.0</ele>
        <time>2018-10-12T12:52:26.000Z</time>
      </trkpt>
      <trkpt lat="31.0077133178710938" lon="-6.9478211402893066">
        <ele>1193.0</ele>
        <time>2018-10-12T12:52:27.000Z</time>
      </trkpt>
      <trkpt lat="31.0077362060546875" lon="-6.9478387832641602">
        <ele>1193.0</ele>
        <time>2018-10-12T12:52:28.000Z</time>
      </trkpt>
      <trkpt lat="31.0077571868896484" lon="-6.9478559494018555">
        <ele>1193.0</ele>
        <time>2018-10-12T12:52:29.000Z</time>
      </trkpt>
      <trkpt lat="31.0077762603759766" lon="-6.9478759765625000">
        <ele>1193.0</ele>
        <time>2018-10-12T12:52:30.000Z</time>
      </trkpt>
      <trkpt lat="31.0077991485595703" lon="-6.9478969573974609">
        <ele>1193.0</ele>
        <time>2018-10-12T12:52:31.000Z</time>
      </trkpt>
      <trkpt lat="31.0078239440917969" lon="-6.9479179382324219">
        <ele>1193.0</ele>
        <time>2018-10-12T12:52:32.000Z</time>
      </trkpt>
      <trkpt lat="31.0078468322753906" lon="-6.9479389190673828">
        <ele>1193.0</ele>
        <time>2018-10-12T12:52:33.000Z</time>
      </trkpt>
      <trkpt lat="31.0078716278076172" lon="-6.9479598999023438">
        <ele>1193.0</ele>
        <time>2018-10-12T12:52:34.000Z</time>
      </trkpt>
      <trkpt lat="31.0078945159912109" lon="-6.9479842185974121">
        <ele>1193.0</ele>
        <time>2018-10-12T12:52:35.000Z</time>
      </trkpt>
      <trkpt lat="31.0079154968261719" lon="-6.9480118751525879">
        <ele>1193.0</ele>
        <time>2018-10-12T12:52:36.000Z</time>
      </trkpt>
      <trkpt lat="31.0079345703125000" lon="-6.9480419158935547">
        <ele>1193.821044921875</ele>
        <time>2018-10-12T12:52:37.000Z</time>
      </trkpt>
      <trkpt lat="31.0079536437988281" lon="-6.9480719566345215">
        <ele>1194.0</ele>
        <time>2018-10-12T12:52:38.000Z</time>
      </trkpt>
      <trkpt lat="31.0079727172851562" lon="-6.9481019973754883">
        <ele>1194.0</ele>
        <time>2018-10-12T12:52:39.000Z</time>
      </trkpt>
      <trkpt lat="31.0079956054687500" lon="-6.9481301307678223">
        <ele>1194.0</ele>
        <time>2018-10-12T12:52:40.000Z</time>
      </trkpt>
      <trkpt lat="31.0080165863037109" lon="-6.9481577873229980">
        <ele>1194.0</ele>
        <time>2018-10-12T12:52:41.000Z</time>
      </trkpt>
      <trkpt lat="31.0080394744873047" lon="-6.9481859207153320">
        <ele>1194.0</ele>
        <time>2018-10-12T12:52:42.000Z</time>
      </trkpt>
      <trkpt lat="31.0080585479736328" lon="-6.9482150077819824">
        <ele>1194.0</ele>
        <time>2018-10-12T12:52:43.000Z</time>
      </trkpt>
      <trkpt lat="31.0080795288085938" lon="-6.9482450485229492">
        <ele>1194.0</ele>
        <time>2018-10-12T12:52:44.000Z</time>
      </trkpt>
      <trkpt lat="31.0081005096435547" lon="-6.9482741355895996">
        <ele>1194.0</ele>
        <time>2018-10-12T12:52:45.000Z</time>
      </trkpt>
      <trkpt lat="31.0081214904785156" lon="-6.9483017921447754">
        <ele>1194.0</ele>
        <time>2018-10-12T12:52:46.000Z</time>
      </trkpt>
      <trkpt lat="31.0081443786621094" lon="-6.9483289718627930">
        <ele>1194.0</ele>
        <time>2018-10-12T12:52:47.000Z</time>
      </trkpt>
      <trkpt lat="31.0081653594970703" lon="-6.9483561515808105">
        <ele>1194.0</ele>
        <time>2018-10-12T12:52:48.000Z</time>
      </trkpt>
      <trkpt lat="31.0081882476806641" lon="-6.9483819007873535">
        <ele>1194.0</ele>
        <time>2018-10-12T12:52:49.000Z</time>
      </trkpt>
      <trkpt lat="31.0082111358642578" lon="-6.9484081268310547">
        <ele>1194.0</ele>
        <time>2018-10-12T12:52:50.000Z</time>
      </trkpt>
      <trkpt lat="31.0082321166992188" lon="-6.9484348297119141">
        <ele>1194.0</ele>
        <time>2018-10-12T12:52:51.000Z</time>
      </trkpt>
      <trkpt lat="31.0082550048828125" lon="-6.9484620094299316">
        <ele>1194.0</ele>
        <time>2018-10-12T12:52:52.000Z</time>
      </trkpt>
      <trkpt lat="31.0082759857177734" lon="-6.9484891891479492">
        <ele>1194.0</ele>
        <time>2018-10-12T12:52:53.000Z</time>
      </trkpt>
      <trkpt lat="31.0082950592041016" lon="-6.9485168457031250">
        <ele>1194.0</ele>
        <time>2018-10-12T12:52:54.000Z</time>
      </trkpt>
      <trkpt lat="31.0083179473876953" lon="-6.9485421180725098">
        <ele>1194.0</ele>
        <time>2018-10-12T12:52:55.000Z</time>
      </trkpt>
      <trkpt lat="31.0083427429199219" lon="-6.9485678672790527">
        <ele>1194.821044921875</ele>
        <time>2018-10-12T12:52:56.000Z</time>
      </trkpt>
      <trkpt lat="31.0083675384521484" lon="-6.9485940933227539">
        <ele>1195.0</ele>
        <time>2018-10-12T12:52:57.000Z</time>
      </trkpt>
      <trkpt lat="31.0083885192871094" lon="-6.9486198425292969">
        <ele>1195.0</ele>
        <time>2018-10-12T12:52:58.000Z</time>
      </trkpt>
      <trkpt lat="31.0084095001220703" lon="-6.9486441612243652">
        <ele>1195.0</ele>
        <time>2018-10-12T12:52:59.000Z</time>
      </trkpt>
      <trkpt lat="31.0084285736083984" lon="-6.9486651420593262">
        <ele>1195.0</ele>
        <time>2018-10-12T12:53:00.000Z</time>
      </trkpt>
      <trkpt lat="31.0084457397460938" lon="-6.9486842155456543">
        <ele>1195.0</ele>
        <time>2018-10-12T12:53:01.000Z</time>
      </trkpt>
      <trkpt lat="31.0084629058837891" lon="-6.9486989974975586">
        <ele>1195.0</ele>
        <time>2018-10-12T12:53:02.000Z</time>
      </trkpt>
      <trkpt lat="31.0084896087646484" lon="-6.9487218856811523">
        <ele>1195.0</ele>
        <time>2018-10-12T12:53:04.000Z</time>
      </trkpt>
      <trkpt lat="31.0085048675537109" lon="-6.9487409591674805">
        <ele>1195.0</ele>
        <time>2018-10-12T12:53:06.000Z</time>
      </trkpt>
      <trkpt lat="31.0085239410400391" lon="-6.9487638473510742">
        <ele>1195.0</ele>
        <time>2018-10-12T12:53:08.000Z</time>
      </trkpt>
      <trkpt lat="31.0085487365722656" lon="-6.9487938880920410">
        <ele>1195.0</ele>
        <time>2018-10-12T12:53:10.000Z</time>
      </trkpt>
      <trkpt lat="31.0085639953613281" lon="-6.9488129615783691">
        <ele>1195.821044921875</ele>
        <time>2018-10-12T12:53:11.000Z</time>
      </trkpt>
      <trkpt lat="31.0085792541503906" lon="-6.9488329887390137">
        <ele>1196.0</ele>
        <time>2018-10-12T12:53:12.000Z</time>
      </trkpt>
      <trkpt lat="31.0085983276367188" lon="-6.9488549232482910">
        <ele>1196.0</ele>
        <time>2018-10-12T12:53:13.000Z</time>
      </trkpt>
      <trkpt lat="31.0086154937744141" lon="-6.9488778114318848">
        <ele>1196.0</ele>
        <time>2018-10-12T12:53:14.000Z</time>
      </trkpt>
      <trkpt lat="31.0086345672607422" lon="-6.9489030838012695">
        <ele>1196.0</ele>
        <time>2018-10-12T12:53:15.000Z</time>
      </trkpt>
      <trkpt lat="31.0086536407470703" lon="-6.9489288330078125">
        <ele>1196.0</ele>
        <time>2018-10-12T12:53:16.000Z</time>
      </trkpt>
      <trkpt lat="31.0086746215820312" lon="-6.9489541053771973">
        <ele>1196.0</ele>
        <time>2018-10-12T12:53:17.000Z</time>
      </trkpt>
      <trkpt lat="31.0086975097656250" lon="-6.9489808082580566">
        <ele>1196.0</ele>
        <time>2018-10-12T12:53:18.000Z</time>
      </trkpt>
      <trkpt lat="31.0087203979492188" lon="-6.9490089416503906">
        <ele>1196.0</ele>
        <time>2018-10-12T12:53:19.000Z</time>
      </trkpt>
      <trkpt lat="31.0087451934814453" lon="-6.9490361213684082">
        <ele>1196.0</ele>
        <time>2018-10-12T12:53:20.000Z</time>
      </trkpt>
      <trkpt lat="31.0087718963623047" lon="-6.9490637779235840">
        <ele>1196.0</ele>
        <time>2018-10-12T12:53:21.000Z</time>
      </trkpt>
      <trkpt lat="31.0087966918945312" lon="-6.9490919113159180">
        <ele>1196.6126708984375</ele>
        <time>2018-10-12T12:53:22.000Z</time>
      </trkpt>
      <trkpt lat="31.0088214874267578" lon="-6.9491190910339355">
        <ele>1197.0</ele>
        <time>2018-10-12T12:53:23.000Z</time>
      </trkpt>
      <trkpt lat="31.0088462829589844" lon="-6.9491448402404785">
        <ele>1197.0</ele>
        <time>2018-10-12T12:53:24.000Z</time>
      </trkpt>
      <trkpt lat="31.0088729858398438" lon="-6.9491701126098633">
        <ele>1197.0</ele>
        <time>2018-10-12T12:53:25.000Z</time>
      </trkpt>
      <trkpt lat="31.0088996887207031" lon="-6.9491949081420898">
        <ele>1197.0</ele>
        <time>2018-10-12T12:53:26.000Z</time>
      </trkpt>
      <trkpt lat="31.0089244842529297" lon="-6.9492192268371582">
        <ele>1197.0</ele>
        <time>2018-10-12T12:53:27.000Z</time>
      </trkpt>
      <trkpt lat="31.0089511871337891" lon="-6.9492402076721191">
        <ele>1196.3826904296875</ele>
        <time>2018-10-12T12:53:28.000Z</time>
      </trkpt>
      <trkpt lat="31.0089778900146484" lon="-6.9492611885070801">
        <ele>1196.0</ele>
        <time>2018-10-12T12:53:29.000Z</time>
      </trkpt>
      <trkpt lat="31.0090045928955078" lon="-6.9492831230163574">
        <ele>1196.821044921875</ele>
        <time>2018-10-12T12:53:30.000Z</time>
      </trkpt>
      <trkpt lat="31.0090332031250000" lon="-6.9493079185485840">
        <ele>1197.0</ele>
        <time>2018-10-12T12:53:31.000Z</time>
      </trkpt>
      <trkpt lat="31.0090618133544922" lon="-6.9493350982666016">
        <ele>1197.0</ele>
        <time>2018-10-12T12:53:32.000Z</time>
      </trkpt>
      <trkpt lat="31.0090885162353516" lon="-6.9493608474731445">
        <ele>1197.0</ele>
        <time>2018-10-12T12:53:33.000Z</time>
      </trkpt>
      <trkpt lat="31.0091171264648438" lon="-6.9493880271911621">
        <ele>1197.0</ele>
        <time>2018-10-12T12:53:34.000Z</time>
      </trkpt>
      <trkpt lat="31.0091457366943359" lon="-6.9494152069091797">
        <ele>1197.0</ele>
        <time>2018-10-12T12:53:35.000Z</time>
      </trkpt>
      <trkpt lat="31.0091781616210938" lon="-6.9494371414184570">
        <ele>1197.0</ele>
        <time>2018-10-12T12:53:36.000Z</time>
      </trkpt>
      <trkpt lat="31.0092124938964844" lon="-6.9494600296020508">
        <ele>1197.0</ele>
        <time>2018-10-12T12:53:37.000Z</time>
      </trkpt>
      <trkpt lat="31.0092449188232422" lon="-6.9494872093200684">
        <ele>1197.0</ele>
        <time>2018-10-12T12:53:38.000Z</time>
      </trkpt>
      <trkpt lat="31.0092754364013672" lon="-6.9495167732238770">
        <ele>1197.0</ele>
        <time>2018-10-12T12:53:39.000Z</time>
      </trkpt>
      <trkpt lat="31.0093040466308594" lon="-6.9495477676391602">
        <ele>1197.0</ele>
        <time>2018-10-12T12:53:40.000Z</time>
      </trkpt>
      <trkpt lat="31.0093345642089844" lon="-6.9495787620544434">
        <ele>1197.0</ele>
        <time>2018-10-12T12:53:41.000Z</time>
      </trkpt>
      <trkpt lat="31.0093631744384766" lon="-6.9496088027954102">
        <ele>1197.0</ele>
        <time>2018-10-12T12:53:42.000Z</time>
      </trkpt>
      <trkpt lat="31.0093917846679688" lon="-6.9496369361877441">
        <ele>1197.0</ele>
        <time>2018-10-12T12:53:43.000Z</time>
      </trkpt>
      <trkpt lat="31.0094223022460938" lon="-6.9496631622314453">
        <ele>1197.0</ele>
        <time>2018-10-12T12:53:44.000Z</time>
      </trkpt>
      <trkpt lat="31.0094528198242188" lon="-6.9496870040893555">
        <ele>1197.0</ele>
        <time>2018-10-12T12:53:45.000Z</time>
      </trkpt>
      <trkpt lat="31.0094814300537109" lon="-6.9497098922729492">
        <ele>1197.0</ele>
        <time>2018-10-12T12:53:46.000Z</time>
      </trkpt>
      <trkpt lat="31.0095119476318359" lon="-6.9497318267822266">
        <ele>1197.0</ele>
        <time>2018-10-12T12:53:47.000Z</time>
      </trkpt>
      <trkpt lat="31.0095424652099609" lon="-6.9497518539428711">
        <ele>1197.0</ele>
        <time>2018-10-12T12:53:48.000Z</time>
      </trkpt>
      <trkpt lat="31.0095710754394531" lon="-6.9497709274291992">
        <ele>1197.0</ele>
        <time>2018-10-12T12:53:49.000Z</time>
      </trkpt>
      <trkpt lat="31.0096035003662109" lon="-6.9497880935668945">
        <ele>1197.0</ele>
        <time>2018-10-12T12:53:50.000Z</time>
      </trkpt>
      <trkpt lat="31.0096378326416016" lon="-6.9498047828674316">
        <ele>1197.0</ele>
        <time>2018-10-12T12:53:51.000Z</time>
      </trkpt>
      <trkpt lat="31.0096702575683594" lon="-6.9498190879821777">
        <ele>1197.0</ele>
        <time>2018-10-12T12:53:52.000Z</time>
      </trkpt>
      <trkpt lat="31.0097045898437500" lon="-6.9498329162597656">
        <ele>1197.0</ele>
        <time>2018-10-12T12:53:53.000Z</time>
      </trkpt>
      <trkpt lat="31.0097408294677734" lon="-6.9498472213745117">
        <ele>1197.0</ele>
        <time>2018-10-12T12:53:54.000Z</time>
      </trkpt>
      <trkpt lat="31.0097751617431641" lon="-6.9498610496520996">
        <ele>1197.0</ele>
        <time>2018-10-12T12:53:55.000Z</time>
      </trkpt>
      <trkpt lat="31.0098114013671875" lon="-6.9498758316040039">
        <ele>1197.0</ele>
        <time>2018-10-12T12:53:56.000Z</time>
      </trkpt>
      <trkpt lat="31.0098495483398438" lon="-6.9498910903930664">
        <ele>1197.0</ele>
        <time>2018-10-12T12:53:57.000Z</time>
      </trkpt>
      <trkpt lat="31.0098857879638672" lon="-6.9499058723449707">
        <ele>1197.0</ele>
        <time>2018-10-12T12:53:58.000Z</time>
      </trkpt>
      <trkpt lat="31.0099201202392578" lon="-6.9499211311340332">
        <ele>1197.0</ele>
        <time>2018-10-12T12:53:59.000Z</time>
      </trkpt>
      <trkpt lat="31.0099563598632812" lon="-6.9499368667602539">
        <ele>1197.0</ele>
        <time>2018-10-12T12:54:00.000Z</time>
      </trkpt>
      <trkpt lat="31.0099906921386719" lon="-6.9499521255493164">
        <ele>1197.0</ele>
        <time>2018-10-12T12:54:01.000Z</time>
      </trkpt>
      <trkpt lat="31.0100269317626953" lon="-6.9499678611755371">
        <ele>1197.0</ele>
        <time>2018-10-12T12:54:02.000Z</time>
      </trkpt>
      <trkpt lat="31.0100612640380859" lon="-6.9499831199645996">
        <ele>1197.0</ele>
        <time>2018-10-12T12:54:03.000Z</time>
      </trkpt>
      <trkpt lat="31.0100975036621094" lon="-6.9499979019165039">
        <ele>1197.0</ele>
        <time>2018-10-12T12:54:04.000Z</time>
      </trkpt>
      <trkpt lat="31.0101337432861328" lon="-6.9500122070312500">
        <ele>1197.0</ele>
        <time>2018-10-12T12:54:05.000Z</time>
      </trkpt>
      <trkpt lat="31.0101680755615234" lon="-6.9500260353088379">
        <ele>1197.0</ele>
        <time>2018-10-12T12:54:06.000Z</time>
      </trkpt>
      <trkpt lat="31.0102062225341797" lon="-6.9500398635864258">
        <ele>1197.0</ele>
        <time>2018-10-12T12:54:07.000Z</time>
      </trkpt>
      <trkpt lat="31.0102443695068359" lon="-6.9500532150268555">
        <ele>1197.0</ele>
        <time>2018-10-12T12:54:08.000Z</time>
      </trkpt>
      <trkpt lat="31.0102806091308594" lon="-6.9500670433044434">
        <ele>1197.0</ele>
        <time>2018-10-12T12:54:09.000Z</time>
      </trkpt>
      <trkpt lat="31.0103168487548828" lon="-6.9500808715820312">
        <ele>1197.0</ele>
        <time>2018-10-12T12:54:10.000Z</time>
      </trkpt>
      <trkpt lat="31.0103511810302734" lon="-6.9500942230224609">
        <ele>1197.0</ele>
        <time>2018-10-12T12:54:11.000Z</time>
      </trkpt>
      <trkpt lat="31.0103874206542969" lon="-6.9501070976257324">
        <ele>1197.821044921875</ele>
        <time>2018-10-12T12:54:12.000Z</time>
      </trkpt>
      <trkpt lat="31.0104217529296875" lon="-6.9501209259033203">
        <ele>1198.0</ele>
        <time>2018-10-12T12:54:13.000Z</time>
      </trkpt>
      <trkpt lat="31.0104560852050781" lon="-6.9501352310180664">
        <ele>1198.0</ele>
        <time>2018-10-12T12:54:14.000Z</time>
      </trkpt>
      <trkpt lat="31.0104942321777344" lon="-6.9501500129699707">
        <ele>1197.1845703125</ele>
        <time>2018-10-12T12:54:15.000Z</time>
      </trkpt>
      <trkpt lat="31.0105304718017578" lon="-6.9501647949218750">
        <ele>1197.0</ele>
        <time>2018-10-12T12:54:16.000Z</time>
      </trkpt>
      <trkpt lat="31.0105667114257812" lon="-6.9501810073852539">
        <ele>1197.0</ele>
        <time>2018-10-12T12:54:17.000Z</time>
      </trkpt>
      <trkpt lat="31.0105991363525391" lon="-6.9501981735229492">
        <ele>1197.821044921875</ele>
        <time>2018-10-12T12:54:18.000Z</time>
      </trkpt>
      <trkpt lat="31.0106315612792969" lon="-6.9502129554748535">
        <ele>1198.0</ele>
        <time>2018-10-12T12:54:19.000Z</time>
      </trkpt>
      <trkpt lat="31.0106620788574219" lon="-6.9502258300781250">
        <ele>1198.0</ele>
        <time>2018-10-12T12:54:20.000Z</time>
      </trkpt>
      <trkpt lat="31.0106925964355469" lon="-6.9502391815185547">
        <ele>1198.0</ele>
        <time>2018-10-12T12:54:21.000Z</time>
      </trkpt>
      <trkpt lat="31.0107192993164062" lon="-6.9502511024475098">
        <ele>1198.0</ele>
        <time>2018-10-12T12:54:22.000Z</time>
      </trkpt>
      <trkpt lat="31.0107440948486328" lon="-6.9502611160278320">
        <ele>1198.0</ele>
        <time>2018-10-12T12:54:23.000Z</time>
      </trkpt>
      <trkpt lat="31.0107688903808594" lon="-6.9502701759338379">
        <ele>1198.0</ele>
        <time>2018-10-12T12:54:24.000Z</time>
      </trkpt>
      <trkpt lat="31.0107917785644531" lon="-6.9502792358398438">
        <ele>1198.0</ele>
        <time>2018-10-12T12:54:25.000Z</time>
      </trkpt>
      <trkpt lat="31.0108165740966797" lon="-6.9502878189086914">
        <ele>1198.0</ele>
        <time>2018-10-12T12:54:26.000Z</time>
      </trkpt>
      <trkpt lat="31.0108451843261719" lon="-6.9502968788146973">
        <ele>1198.0</ele>
        <time>2018-10-12T12:54:27.000Z</time>
      </trkpt>
      <trkpt lat="31.0108737945556641" lon="-6.9503049850463867">
        <ele>1198.821044921875</ele>
        <time>2018-10-12T12:54:28.000Z</time>
      </trkpt>
      <trkpt lat="31.0109043121337891" lon="-6.9503111839294434">
        <ele>1199.0</ele>
        <time>2018-10-12T12:54:29.000Z</time>
      </trkpt>
      <trkpt lat="31.0109386444091797" lon="-6.9503178596496582">
        <ele>1198.1845703125</ele>
        <time>2018-10-12T12:54:30.000Z</time>
      </trkpt>
      <trkpt lat="31.0109710693359375" lon="-6.9503240585327148">
        <ele>1198.0</ele>
        <time>2018-10-12T12:54:31.000Z</time>
      </trkpt>
      <trkpt lat="31.0110054016113281" lon="-6.9503312110900879">
        <ele>1198.0</ele>
        <time>2018-10-12T12:54:32.000Z</time>
      </trkpt>
      <trkpt lat="31.0110378265380859" lon="-6.9503388404846191">
        <ele>1198.0</ele>
        <time>2018-10-12T12:54:33.000Z</time>
      </trkpt>
      <trkpt lat="31.0110683441162109" lon="-6.9503459930419922">
        <ele>1198.0</ele>
        <time>2018-10-12T12:54:34.000Z</time>
      </trkpt>
      <trkpt lat="31.0110988616943359" lon="-6.9503512382507324">
        <ele>1198.0</ele>
        <time>2018-10-12T12:54:35.000Z</time>
      </trkpt>
      <trkpt lat="31.0111274719238281" lon="-6.9503550529479980">
        <ele>1198.0</ele>
        <time>2018-10-12T12:54:36.000Z</time>
      </trkpt>
      <trkpt lat="31.0111522674560547" lon="-6.9503641128540039">
        <ele>1198.0</ele>
        <time>2018-10-12T12:54:37.000Z</time>
      </trkpt>
      <trkpt lat="31.0111732482910156" lon="-6.9503741264343262">
        <ele>1198.0</ele>
        <time>2018-10-12T12:54:38.000Z</time>
      </trkpt>
      <trkpt lat="31.0111999511718750" lon="-6.9503841400146484">
        <ele>1198.0</ele>
        <time>2018-10-12T12:54:39.000Z</time>
      </trkpt>
      <trkpt lat="31.0112285614013672" lon="-6.9503941535949707">
        <ele>1198.0</ele>
        <time>2018-10-12T12:54:40.000Z</time>
      </trkpt>
      <trkpt lat="31.0112571716308594" lon="-6.9504051208496094">
        <ele>1198.0</ele>
        <time>2018-10-12T12:54:41.000Z</time>
      </trkpt>
      <trkpt lat="31.0112876892089844" lon="-6.9504141807556152">
        <ele>1198.0</ele>
        <time>2018-10-12T12:54:42.000Z</time>
      </trkpt>
      <trkpt lat="31.0113182067871094" lon="-6.9504208564758301">
        <ele>1198.0</ele>
        <time>2018-10-12T12:54:43.000Z</time>
      </trkpt>
      <trkpt lat="31.0113487243652344" lon="-6.9504270553588867">
        <ele>1198.0</ele>
        <time>2018-10-12T12:54:44.000Z</time>
      </trkpt>
      <trkpt lat="31.0113792419433594" lon="-6.9504342079162598">
        <ele>1198.0</ele>
        <time>2018-10-12T12:54:45.000Z</time>
      </trkpt>
      <trkpt lat="31.0114097595214844" lon="-6.9504461288452148">
        <ele>1198.0</ele>
        <time>2018-10-12T12:54:46.000Z</time>
      </trkpt>
      <trkpt lat="31.0114402770996094" lon="-6.9504599571228027">
        <ele>1198.0</ele>
        <time>2018-10-12T12:54:47.000Z</time>
      </trkpt>
      <trkpt lat="31.0114746093750000" lon="-6.9504737854003906">
        <ele>1198.0</ele>
        <time>2018-10-12T12:54:48.000Z</time>
      </trkpt>
      <trkpt lat="31.0115089416503906" lon="-6.9504899978637695">
        <ele>1198.0</ele>
        <time>2018-10-12T12:54:49.000Z</time>
      </trkpt>
      <trkpt lat="31.0115413665771484" lon="-6.9505047798156738">
        <ele>1198.821044921875</ele>
        <time>2018-10-12T12:54:50.000Z</time>
      </trkpt>
      <trkpt lat="31.0115756988525391" lon="-6.9505200386047363">
        <ele>1199.0</ele>
        <time>2018-10-12T12:54:51.000Z</time>
      </trkpt>
      <trkpt lat="31.0116081237792969" lon="-6.9505338668823242">
        <ele>1199.0</ele>
        <time>2018-10-12T12:54:52.000Z</time>
      </trkpt>
      <trkpt lat="31.0116405487060547" lon="-6.9505472183227539">
        <ele>1199.0</ele>
        <time>2018-10-12T12:54:53.000Z</time>
      </trkpt>
      <trkpt lat="31.0116710662841797" lon="-6.9505581855773926">
        <ele>1199.0</ele>
        <time>2018-10-12T12:54:54.000Z</time>
      </trkpt>
      <trkpt lat="31.0117053985595703" lon="-6.9505720138549805">
        <ele>1199.0</ele>
        <time>2018-10-12T12:54:55.000Z</time>
      </trkpt>
      <trkpt lat="31.0117397308349609" lon="-6.9505882263183594">
        <ele>1199.0</ele>
        <time>2018-10-12T12:54:56.000Z</time>
      </trkpt>
      <trkpt lat="31.0117740631103516" lon="-6.9506030082702637">
        <ele>1199.0</ele>
        <time>2018-10-12T12:54:57.000Z</time>
      </trkpt>
      <trkpt lat="31.0118103027343750" lon="-6.9506177902221680">
        <ele>1199.0</ele>
        <time>2018-10-12T12:54:58.000Z</time>
      </trkpt>
      <trkpt lat="31.0118446350097656" lon="-6.9506320953369141">
        <ele>1199.0</ele>
        <time>2018-10-12T12:54:59.000Z</time>
      </trkpt>
      <trkpt lat="31.0118789672851562" lon="-6.9506459236145020">
        <ele>1199.0</ele>
        <time>2018-10-12T12:55:00.000Z</time>
      </trkpt>
      <trkpt lat="31.0119132995605469" lon="-6.9506630897521973">
        <ele>1199.0</ele>
        <time>2018-10-12T12:55:01.000Z</time>
      </trkpt>
      <trkpt lat="31.0119476318359375" lon="-6.9506812095642090">
        <ele>1199.0</ele>
        <time>2018-10-12T12:55:02.000Z</time>
      </trkpt>
      <trkpt lat="31.0119819641113281" lon="-6.9506988525390625">
        <ele>1199.0</ele>
        <time>2018-10-12T12:55:03.000Z</time>
      </trkpt>
      <trkpt lat="31.0120143890380859" lon="-6.9507160186767578">
        <ele>1199.0</ele>
        <time>2018-10-12T12:55:04.000Z</time>
      </trkpt>
      <trkpt lat="31.0120449066162109" lon="-6.9507308006286621">
        <ele>1199.821044921875</ele>
        <time>2018-10-12T12:55:05.000Z</time>
      </trkpt>
      <trkpt lat="31.0120735168457031" lon="-6.9507460594177246">
        <ele>1200.0</ele>
        <time>2018-10-12T12:55:06.000Z</time>
      </trkpt>
      <trkpt lat="31.0121002197265625" lon="-6.9507617950439453">
        <ele>1200.0</ele>
        <time>2018-10-12T12:55:07.000Z</time>
      </trkpt>
      <trkpt lat="31.0121269226074219" lon="-6.9507789611816406">
        <ele>1200.0</ele>
        <time>2018-10-12T12:55:08.000Z</time>
      </trkpt>
      <trkpt lat="31.0121555328369141" lon="-6.9507961273193359">
        <ele>1200.0</ele>
        <time>2018-10-12T12:55:09.000Z</time>
      </trkpt>
      <trkpt lat="31.0121841430664062" lon="-6.9508137702941895">
        <ele>1200.7406005859375</ele>
        <time>2018-10-12T12:55:10.000Z</time>
      </trkpt>
      <trkpt lat="31.0122165679931641" lon="-6.9508299827575684">
        <ele>1201.0</ele>
        <time>2018-10-12T12:55:11.000Z</time>
      </trkpt>
      <trkpt lat="31.0122470855712891" lon="-6.9508447647094727">
        <ele>1200.178955078125</ele>
        <time>2018-10-12T12:55:12.000Z</time>
      </trkpt>
      <trkpt lat="31.0122814178466797" lon="-6.9508619308471680">
        <ele>1200.0</ele>
        <time>2018-10-12T12:55:13.000Z</time>
      </trkpt>
      <trkpt lat="31.0123157501220703" lon="-6.9508790969848633">
        <ele>1200.0</ele>
        <time>2018-10-12T12:55:14.000Z</time>
      </trkpt>
      <trkpt lat="31.0123462677001953" lon="-6.9508972167968750">
        <ele>1200.0</ele>
        <time>2018-10-12T12:55:15.000Z</time>
      </trkpt>
      <trkpt lat="31.0123786926269531" lon="-6.9509148597717285">
        <ele>1200.0</ele>
        <time>2018-10-12T12:55:16.000Z</time>
      </trkpt>
      <trkpt lat="31.0124073028564453" lon="-6.9509329795837402">
        <ele>1200.0</ele>
        <time>2018-10-12T12:55:17.000Z</time>
      </trkpt>
      <trkpt lat="31.0124378204345703" lon="-6.9509491920471191">
        <ele>1200.0</ele>
        <time>2018-10-12T12:55:18.000Z</time>
      </trkpt>
      <trkpt lat="31.0124645233154297" lon="-6.9509620666503906">
        <ele>1200.0</ele>
        <time>2018-10-12T12:55:19.000Z</time>
      </trkpt>
      <trkpt lat="31.0124893188476562" lon="-6.9509758949279785">
        <ele>1200.0</ele>
        <time>2018-10-12T12:55:20.000Z</time>
      </trkpt>
      <trkpt lat="31.0125160217285156" lon="-6.9509921073913574">
        <ele>1200.0</ele>
        <time>2018-10-12T12:55:21.000Z</time>
      </trkpt>
      <trkpt lat="31.0125446319580078" lon="-6.9510087966918945">
        <ele>1200.0</ele>
        <time>2018-10-12T12:55:22.000Z</time>
      </trkpt>
      <trkpt lat="31.0125732421875000" lon="-6.9510269165039062">
        <ele>1200.0</ele>
        <time>2018-10-12T12:55:23.000Z</time>
      </trkpt>
      <trkpt lat="31.0126018524169922" lon="-6.9510450363159180">
        <ele>1200.0</ele>
        <time>2018-10-12T12:55:24.000Z</time>
      </trkpt>
      <trkpt lat="31.0126323699951172" lon="-6.9510650634765625">
        <ele>1200.0</ele>
        <time>2018-10-12T12:55:25.000Z</time>
      </trkpt>
      <trkpt lat="31.0126647949218750" lon="-6.9510860443115234">
        <ele>1200.0</ele>
        <time>2018-10-12T12:55:26.000Z</time>
      </trkpt>
      <trkpt lat="31.0126953125000000" lon="-6.9511079788208008">
        <ele>1200.0</ele>
        <time>2018-10-12T12:55:27.000Z</time>
      </trkpt>
      <trkpt lat="31.0127258300781250" lon="-6.9511308670043945">
        <ele>1200.0</ele>
        <time>2018-10-12T12:55:28.000Z</time>
      </trkpt>
      <trkpt lat="31.0127544403076172" lon="-6.9511518478393555">
        <ele>1200.0</ele>
        <time>2018-10-12T12:55:29.000Z</time>
      </trkpt>
      <trkpt lat="31.0127811431884766" lon="-6.9511728286743164">
        <ele>1200.0</ele>
        <time>2018-10-12T12:55:30.000Z</time>
      </trkpt>
      <trkpt lat="31.0128078460693359" lon="-6.9511938095092773">
        <ele>1200.0</ele>
        <time>2018-10-12T12:55:31.000Z</time>
      </trkpt>
      <trkpt lat="31.0128326416015625" lon="-6.9512138366699219">
        <ele>1200.821044921875</ele>
        <time>2018-10-12T12:55:32.000Z</time>
      </trkpt>
      <trkpt lat="31.0128574371337891" lon="-6.9512372016906738">
        <ele>1201.0</ele>
        <time>2018-10-12T12:55:33.000Z</time>
      </trkpt>
      <trkpt lat="31.0128841400146484" lon="-6.9512610435485840">
        <ele>1201.0</ele>
        <time>2018-10-12T12:55:34.000Z</time>
      </trkpt>
      <trkpt lat="31.0129108428955078" lon="-6.9512858390808105">
        <ele>1201.0</ele>
        <time>2018-10-12T12:55:35.000Z</time>
      </trkpt>
      <trkpt lat="31.0129375457763672" lon="-6.9513120651245117">
        <ele>1201.0</ele>
        <time>2018-10-12T12:55:36.000Z</time>
      </trkpt>
      <trkpt lat="31.0129642486572266" lon="-6.9513368606567383">
        <ele>1201.0</ele>
        <time>2018-10-12T12:55:37.000Z</time>
      </trkpt>
      <trkpt lat="31.0129947662353516" lon="-6.9513659477233887">
        <ele>1201.0</ele>
        <time>2018-10-12T12:55:38.000Z</time>
      </trkpt>
      <trkpt lat="31.0130214691162109" lon="-6.9513959884643555">
        <ele>1201.0</ele>
        <time>2018-10-12T12:55:39.000Z</time>
      </trkpt>
      <trkpt lat="31.0130481719970703" lon="-6.9514260292053223">
        <ele>1201.0</ele>
        <time>2018-10-12T12:55:40.000Z</time>
      </trkpt>
      <trkpt lat="31.0130767822265625" lon="-6.9514579772949219">
        <ele>1201.0</ele>
        <time>2018-10-12T12:55:41.000Z</time>
      </trkpt>
      <trkpt lat="31.0131034851074219" lon="-6.9514908790588379">
        <ele>1201.0</ele>
        <time>2018-10-12T12:55:42.000Z</time>
      </trkpt>
      <trkpt lat="31.0131301879882812" lon="-6.9515218734741211">
        <ele>1201.0</ele>
        <time>2018-10-12T12:55:43.000Z</time>
      </trkpt>
      <trkpt lat="31.0131568908691406" lon="-6.9515528678894043">
        <ele>1201.0</ele>
        <time>2018-10-12T12:55:44.000Z</time>
      </trkpt>
      <trkpt lat="31.0131816864013672" lon="-6.9515838623046875">
        <ele>1201.0</ele>
        <time>2018-10-12T12:55:45.000Z</time>
      </trkpt>
      <trkpt lat="31.0132102966308594" lon="-6.9516129493713379">
        <ele>1200.178955078125</ele>
        <time>2018-10-12T12:55:46.000Z</time>
      </trkpt>
      <trkpt lat="31.0132389068603516" lon="-6.9516420364379883">
        <ele>1200.0</ele>
        <time>2018-10-12T12:55:47.000Z</time>
      </trkpt>
      <trkpt lat="31.0132656097412109" lon="-6.9516701698303223">
        <ele>1200.0</ele>
        <time>2018-10-12T12:55:48.000Z</time>
      </trkpt>
      <trkpt lat="31.0132942199707031" lon="-6.9516959190368652">
        <ele>1200.0</ele>
        <time>2018-10-12T12:55:49.000Z</time>
      </trkpt>
      <trkpt lat="31.0133228302001953" lon="-6.9517202377319336">
        <ele>1200.0</ele>
        <time>2018-10-12T12:55:50.000Z</time>
      </trkpt>
      <trkpt lat="31.0133514404296875" lon="-6.9517412185668945">
        <ele>1200.0</ele>
        <time>2018-10-12T12:55:51.000Z</time>
      </trkpt>
      <trkpt lat="31.0133819580078125" lon="-6.9517598152160645">
        <ele>1200.0</ele>
        <time>2018-10-12T12:55:52.000Z</time>
      </trkpt>
      <trkpt lat="31.0134105682373047" lon="-6.9517788887023926">
        <ele>1200.0</ele>
        <time>2018-10-12T12:55:53.000Z</time>
      </trkpt>
      <trkpt lat="31.0134372711181641" lon="-6.9517998695373535">
        <ele>1200.0</ele>
        <time>2018-10-12T12:55:54.000Z</time>
      </trkpt>
      <trkpt lat="31.0134658813476562" lon="-6.9518232345581055">
        <ele>1200.0</ele>
        <time>2018-10-12T12:55:55.000Z</time>
      </trkpt>
      <trkpt lat="31.0134944915771484" lon="-6.9518461227416992">
        <ele>1200.0</ele>
        <time>2018-10-12T12:55:56.000Z</time>
      </trkpt>
      <trkpt lat="31.0135231018066406" lon="-6.9518699645996094">
        <ele>1200.0</ele>
        <time>2018-10-12T12:55:57.000Z</time>
      </trkpt>
      <trkpt lat="31.0135555267333984" lon="-6.9518938064575195">
        <ele>1200.0</ele>
        <time>2018-10-12T12:55:58.000Z</time>
      </trkpt>
      <trkpt lat="31.0135898590087891" lon="-6.9519200325012207">
        <ele>1200.0</ele>
        <time>2018-10-12T12:55:59.000Z</time>
      </trkpt>
      <trkpt lat="31.0136241912841797" lon="-6.9519472122192383">
        <ele>1200.0</ele>
        <time>2018-10-12T12:56:00.000Z</time>
      </trkpt>
      <trkpt lat="31.0136585235595703" lon="-6.9519739151000977">
        <ele>1200.0</ele>
        <time>2018-10-12T12:56:01.000Z</time>
      </trkpt>
      <trkpt lat="31.0136909484863281" lon="-6.9519991874694824">
        <ele>1200.0</ele>
        <time>2018-10-12T12:56:02.000Z</time>
      </trkpt>
      <trkpt lat="31.0137195587158203" lon="-6.9520230293273926">
        <ele>1200.0</ele>
        <time>2018-10-12T12:56:03.000Z</time>
      </trkpt>
      <trkpt lat="31.0137481689453125" lon="-6.9520468711853027">
        <ele>1200.0</ele>
        <time>2018-10-12T12:56:04.000Z</time>
      </trkpt>
      <trkpt lat="31.0137786865234375" lon="-6.9520711898803711">
        <ele>1200.0</ele>
        <time>2018-10-12T12:56:05.000Z</time>
      </trkpt>
      <trkpt lat="31.0138111114501953" lon="-6.9520950317382812">
        <ele>1200.0</ele>
        <time>2018-10-12T12:56:06.000Z</time>
      </trkpt>
      <trkpt lat="31.0138416290283203" lon="-6.9521207809448242">
        <ele>1200.0</ele>
        <time>2018-10-12T12:56:07.000Z</time>
      </trkpt>
      <trkpt lat="31.0138702392578125" lon="-6.9521470069885254">
        <ele>1200.0</ele>
        <time>2018-10-12T12:56:08.000Z</time>
      </trkpt>
      <trkpt lat="31.0138988494873047" lon="-6.9521741867065430">
        <ele>1200.0</ele>
        <time>2018-10-12T12:56:09.000Z</time>
      </trkpt>
      <trkpt lat="31.0139274597167969" lon="-6.9522008895874023">
        <ele>1200.0</ele>
        <time>2018-10-12T12:56:10.000Z</time>
      </trkpt>
      <trkpt lat="31.0139560699462891" lon="-6.9522271156311035">
        <ele>1200.821044921875</ele>
        <time>2018-10-12T12:56:11.000Z</time>
      </trkpt>
      <trkpt lat="31.0139865875244141" lon="-6.9522538185119629">
        <ele>1201.0</ele>
        <time>2018-10-12T12:56:12.000Z</time>
      </trkpt>
      <trkpt lat="31.0140151977539062" lon="-6.9522819519042969">
        <ele>1201.0</ele>
        <time>2018-10-12T12:56:13.000Z</time>
      </trkpt>
      <trkpt lat="31.0140457153320312" lon="-6.9523110389709473">
        <ele>1201.0</ele>
        <time>2018-10-12T12:56:14.000Z</time>
      </trkpt>
      <trkpt lat="31.0140743255615234" lon="-6.9523391723632812">
        <ele>1201.0</ele>
        <time>2018-10-12T12:56:15.000Z</time>
      </trkpt>
      <trkpt lat="31.0141048431396484" lon="-6.9523658752441406">
        <ele>1201.0</ele>
        <time>2018-10-12T12:56:16.000Z</time>
      </trkpt>
      <trkpt lat="31.0141334533691406" lon="-6.9523930549621582">
        <ele>1201.0</ele>
        <time>2018-10-12T12:56:17.000Z</time>
      </trkpt>
      <trkpt lat="31.0141620635986328" lon="-6.9524188041687012">
        <ele>1201.0</ele>
        <time>2018-10-12T12:56:18.000Z</time>
      </trkpt>
      <trkpt lat="31.0141906738281250" lon="-6.9524450302124023">
        <ele>1201.0</ele>
        <time>2018-10-12T12:56:19.000Z</time>
      </trkpt>
      <trkpt lat="31.0142211914062500" lon="-6.9524688720703125">
        <ele>1201.0</ele>
        <time>2018-10-12T12:56:20.000Z</time>
      </trkpt>
      <trkpt lat="31.0142517089843750" lon="-6.9524931907653809">
        <ele>1201.0</ele>
        <time>2018-10-12T12:56:21.000Z</time>
      </trkpt>
      <trkpt lat="31.0142803192138672" lon="-6.9525170326232910">
        <ele>1201.0</ele>
        <time>2018-10-12T12:56:22.000Z</time>
      </trkpt>
      <trkpt lat="31.0143127441406250" lon="-6.9525399208068848">
        <ele>1201.0</ele>
        <time>2018-10-12T12:56:23.000Z</time>
      </trkpt>
      <trkpt lat="31.0143451690673828" lon="-6.9525628089904785">
        <ele>1201.0</ele>
        <time>2018-10-12T12:56:24.000Z</time>
      </trkpt>
      <trkpt lat="31.0143775939941406" lon="-6.9525852203369141">
        <ele>1201.0</ele>
        <time>2018-10-12T12:56:25.000Z</time>
      </trkpt>
      <trkpt lat="31.0144119262695312" lon="-6.9526081085205078">
        <ele>1201.0</ele>
        <time>2018-10-12T12:56:26.000Z</time>
      </trkpt>
      <trkpt lat="31.0144443511962891" lon="-6.9526319503784180">
        <ele>1201.0</ele>
        <time>2018-10-12T12:56:27.000Z</time>
      </trkpt>
      <trkpt lat="31.0144786834716797" lon="-6.9526538848876953">
        <ele>1201.0</ele>
        <time>2018-10-12T12:56:28.000Z</time>
      </trkpt>
      <trkpt lat="31.0145111083984375" lon="-6.9526767730712891">
        <ele>1201.0</ele>
        <time>2018-10-12T12:56:29.000Z</time>
      </trkpt>
      <trkpt lat="31.0145454406738281" lon="-6.9527010917663574">
        <ele>1201.0</ele>
        <time>2018-10-12T12:56:30.000Z</time>
      </trkpt>
      <trkpt lat="31.0145797729492188" lon="-6.9527258872985840">
        <ele>1201.0</ele>
        <time>2018-10-12T12:56:31.000Z</time>
      </trkpt>
      <trkpt lat="31.0146141052246094" lon="-6.9527487754821777">
        <ele>1201.0</ele>
        <time>2018-10-12T12:56:32.000Z</time>
      </trkpt>
      <trkpt lat="31.0146503448486328" lon="-6.9527730941772461">
        <ele>1201.0</ele>
        <time>2018-10-12T12:56:33.000Z</time>
      </trkpt>
      <trkpt lat="31.0146865844726562" lon="-6.9527988433837891">
        <ele>1201.0</ele>
        <time>2018-10-12T12:56:34.000Z</time>
      </trkpt>
      <trkpt lat="31.0147228240966797" lon="-6.9528279304504395">
        <ele>1201.0</ele>
        <time>2018-10-12T12:56:35.000Z</time>
      </trkpt>
      <trkpt lat="31.0147590637207031" lon="-6.9528570175170898">
        <ele>1200.178955078125</ele>
        <time>2018-10-12T12:56:36.000Z</time>
      </trkpt>
      <trkpt lat="31.0147953033447266" lon="-6.9528851509094238">
        <ele>1200.0</ele>
        <time>2018-10-12T12:56:37.000Z</time>
      </trkpt>
      <trkpt lat="31.0148296356201172" lon="-6.9529142379760742">
        <ele>1200.0</ele>
        <time>2018-10-12T12:56:38.000Z</time>
      </trkpt>
      <trkpt lat="31.0148639678955078" lon="-6.9529418945312500">
        <ele>1200.0</ele>
        <time>2018-10-12T12:56:39.000Z</time>
      </trkpt>
      <trkpt lat="31.0148983001708984" lon="-6.9529700279235840">
        <ele>1200.0</ele>
        <time>2018-10-12T12:56:40.000Z</time>
      </trkpt>
      <trkpt lat="31.0149307250976562" lon="-6.9529972076416016">
        <ele>1200.0</ele>
        <time>2018-10-12T12:56:41.000Z</time>
      </trkpt>
      <trkpt lat="31.0149612426757812" lon="-6.9530248641967773">
        <ele>1200.0</ele>
        <time>2018-10-12T12:56:42.000Z</time>
      </trkpt>
      <trkpt lat="31.0149879455566406" lon="-6.9530539512634277">
        <ele>1200.0</ele>
        <time>2018-10-12T12:56:43.000Z</time>
      </trkpt>
      <trkpt lat="31.0150127410888672" lon="-6.9530820846557617">
        <ele>1200.608154296875</ele>
        <time>2018-10-12T12:56:44.000Z</time>
      </trkpt>
      <trkpt lat="31.0150356292724609" lon="-6.9531078338623047">
        <ele>1201.0</ele>
        <time>2018-10-12T12:56:45.000Z</time>
      </trkpt>
      <trkpt lat="31.0150566101074219" lon="-6.9531340599060059">
        <ele>1201.0</ele>
        <time>2018-10-12T12:56:46.000Z</time>
      </trkpt>
      <trkpt lat="31.0150775909423828" lon="-6.9531588554382324">
        <ele>1201.0</ele>
        <time>2018-10-12T12:56:47.000Z</time>
      </trkpt>
      <trkpt lat="31.0151004791259766" lon="-6.9531860351562500">
        <ele>1201.0</ele>
        <time>2018-10-12T12:56:48.000Z</time>
      </trkpt>
      <trkpt lat="31.0151214599609375" lon="-6.9532132148742676">
        <ele>1201.0</ele>
        <time>2018-10-12T12:56:49.000Z</time>
      </trkpt>
      <trkpt lat="31.0151443481445312" lon="-6.9532408714294434">
        <ele>1201.0</ele>
        <time>2018-10-12T12:56:50.000Z</time>
      </trkpt>
      <trkpt lat="31.0151672363281250" lon="-6.9532699584960938">
        <ele>1201.0</ele>
        <time>2018-10-12T12:56:51.000Z</time>
      </trkpt>
      <trkpt lat="31.0151939392089844" lon="-6.9532990455627441">
        <ele>1201.0</ele>
        <time>2018-10-12T12:56:52.000Z</time>
      </trkpt>
      <trkpt lat="31.0152187347412109" lon="-6.9533300399780273">
        <ele>1201.0</ele>
        <time>2018-10-12T12:56:53.000Z</time>
      </trkpt>
      <trkpt lat="31.0152435302734375" lon="-6.9533610343933105">
        <ele>1201.0</ele>
        <time>2018-10-12T12:56:54.000Z</time>
      </trkpt>
      <trkpt lat="31.0152702331542969" lon="-6.9533929824829102">
        <ele>1201.0</ele>
        <time>2018-10-12T12:56:55.000Z</time>
      </trkpt>
      <trkpt lat="31.0152969360351562" lon="-6.9534249305725098">
        <ele>1201.0</ele>
        <time>2018-10-12T12:56:56.000Z</time>
      </trkpt>
      <trkpt lat="31.0153236389160156" lon="-6.9534568786621094">
        <ele>1201.0</ele>
        <time>2018-10-12T12:56:57.000Z</time>
      </trkpt>
      <trkpt lat="31.0153522491455078" lon="-6.9534878730773926">
        <ele>1201.0</ele>
        <time>2018-10-12T12:56:58.000Z</time>
      </trkpt>
      <trkpt lat="31.0153808593750000" lon="-6.9535207748413086">
        <ele>1201.0</ele>
        <time>2018-10-12T12:56:59.000Z</time>
      </trkpt>
      <trkpt lat="31.0154094696044922" lon="-6.9535517692565918">
        <ele>1201.0</ele>
        <time>2018-10-12T12:57:00.000Z</time>
      </trkpt>
      <trkpt lat="31.0154380798339844" lon="-6.9535818099975586">
        <ele>1201.0</ele>
        <time>2018-10-12T12:57:01.000Z</time>
      </trkpt>
      <trkpt lat="31.0154685974121094" lon="-6.9536128044128418">
        <ele>1201.0</ele>
        <time>2018-10-12T12:57:02.000Z</time>
      </trkpt>
      <trkpt lat="31.0154972076416016" lon="-6.9536437988281250">
        <ele>1201.0</ele>
        <time>2018-10-12T12:57:03.000Z</time>
      </trkpt>
      <trkpt lat="31.0155277252197266" lon="-6.9536747932434082">
        <ele>1201.0</ele>
        <time>2018-10-12T12:57:04.000Z</time>
      </trkpt>
      <trkpt lat="31.0155582427978516" lon="-6.9537057876586914">
        <ele>1201.0</ele>
        <time>2018-10-12T12:57:05.000Z</time>
      </trkpt>
      <trkpt lat="31.0155887603759766" lon="-6.9537367820739746">
        <ele>1201.0</ele>
        <time>2018-10-12T12:57:06.000Z</time>
      </trkpt>
      <trkpt lat="31.0156173706054688" lon="-6.9537677764892578">
        <ele>1201.0</ele>
        <time>2018-10-12T12:57:07.000Z</time>
      </trkpt>
      <trkpt lat="31.0156478881835938" lon="-6.9537978172302246">
        <ele>1201.0</ele>
        <time>2018-10-12T12:57:08.000Z</time>
      </trkpt>
      <trkpt lat="31.0156764984130859" lon="-6.9538269042968750">
        <ele>1201.0</ele>
        <time>2018-10-12T12:57:09.000Z</time>
      </trkpt>
      <trkpt lat="31.0157051086425781" lon="-6.9538559913635254">
        <ele>1201.0</ele>
        <time>2018-10-12T12:57:10.000Z</time>
      </trkpt>
      <trkpt lat="31.0157356262207031" lon="-6.9538841247558594">
        <ele>1201.5009765625</ele>
        <time>2018-10-12T12:57:11.000Z</time>
      </trkpt>
      <trkpt lat="31.0157642364501953" lon="-6.9539117813110352">
        <ele>1202.0</ele>
        <time>2018-10-12T12:57:12.000Z</time>
      </trkpt>
      <trkpt lat="31.0157947540283203" lon="-6.9539389610290527">
        <ele>1202.0</ele>
        <time>2018-10-12T12:57:13.000Z</time>
      </trkpt>
      <trkpt lat="31.0158233642578125" lon="-6.9539661407470703">
        <ele>1202.0</ele>
        <time>2018-10-12T12:57:14.000Z</time>
      </trkpt>
      <trkpt lat="31.0158500671386719" lon="-6.9539937973022461">
        <ele>1202.0</ele>
        <time>2018-10-12T12:57:15.000Z</time>
      </trkpt>
      <trkpt lat="31.0158805847167969" lon="-6.9540200233459473">
        <ele>1202.0</ele>
        <time>2018-10-12T12:57:16.000Z</time>
      </trkpt>
      <trkpt lat="31.0159091949462891" lon="-6.9540472030639648">
        <ele>1202.0</ele>
        <time>2018-10-12T12:57:17.000Z</time>
      </trkpt>
      <trkpt lat="31.0159397125244141" lon="-6.9540739059448242">
        <ele>1202.0</ele>
        <time>2018-10-12T12:57:18.000Z</time>
      </trkpt>
      <trkpt lat="31.0159683227539062" lon="-6.9541020393371582">
        <ele>1202.0</ele>
        <time>2018-10-12T12:57:19.000Z</time>
      </trkpt>
      <trkpt lat="31.0159988403320312" lon="-6.9541301727294922">
        <ele>1202.0</ele>
        <time>2018-10-12T12:57:20.000Z</time>
      </trkpt>
      <trkpt lat="31.0160293579101562" lon="-6.9541587829589844">
        <ele>1202.0</ele>
        <time>2018-10-12T12:57:21.000Z</time>
      </trkpt>
      <trkpt lat="31.0160617828369141" lon="-6.9541878700256348">
        <ele>1202.0</ele>
        <time>2018-10-12T12:57:22.000Z</time>
      </trkpt>
      <trkpt lat="31.0160942077636719" lon="-6.9542169570922852">
        <ele>1202.0</ele>
        <time>2018-10-12T12:57:23.000Z</time>
      </trkpt>
      <trkpt lat="31.0161266326904297" lon="-6.9542469978332520">
        <ele>1202.0</ele>
        <time>2018-10-12T12:57:24.000Z</time>
      </trkpt>
      <trkpt lat="31.0161571502685547" lon="-6.9542779922485352">
        <ele>1202.0</ele>
        <time>2018-10-12T12:57:25.000Z</time>
      </trkpt>
      <trkpt lat="31.0161895751953125" lon="-6.9543099403381348">
        <ele>1202.0</ele>
        <time>2018-10-12T12:57:26.000Z</time>
      </trkpt>
      <trkpt lat="31.0162200927734375" lon="-6.9543399810791016">
        <ele>1202.0</ele>
        <time>2018-10-12T12:57:27.000Z</time>
      </trkpt>
      <trkpt lat="31.0162506103515625" lon="-6.9543690681457520">
        <ele>1202.0</ele>
        <time>2018-10-12T12:57:28.000Z</time>
      </trkpt>
      <trkpt lat="31.0162792205810547" lon="-6.9543972015380859">
        <ele>1202.0</ele>
        <time>2018-10-12T12:57:29.000Z</time>
      </trkpt>
      <trkpt lat="31.0163097381591797" lon="-6.9544248580932617">
        <ele>1202.0</ele>
        <time>2018-10-12T12:57:30.000Z</time>
      </trkpt>
      <trkpt lat="31.0163364410400391" lon="-6.9544510841369629">
        <ele>1202.0</ele>
        <time>2018-10-12T12:57:31.000Z</time>
      </trkpt>
      <trkpt lat="31.0163650512695312" lon="-6.9544768333435059">
        <ele>1202.0</ele>
        <time>2018-10-12T12:57:32.000Z</time>
      </trkpt>
      <trkpt lat="31.0163936614990234" lon="-6.9545030593872070">
        <ele>1202.0</ele>
        <time>2018-10-12T12:57:33.000Z</time>
      </trkpt>
      <trkpt lat="31.0164203643798828" lon="-6.9545278549194336">
        <ele>1202.0</ele>
        <time>2018-10-12T12:57:34.000Z</time>
      </trkpt>
      <trkpt lat="31.0164508819580078" lon="-6.9545512199401855">
        <ele>1202.0</ele>
        <time>2018-10-12T12:57:35.000Z</time>
      </trkpt>
      <trkpt lat="31.0164794921875000" lon="-6.9545750617980957">
        <ele>1202.0</ele>
        <time>2018-10-12T12:57:36.000Z</time>
      </trkpt>
      <trkpt lat="31.0165100097656250" lon="-6.9545979499816895">
        <ele>1202.0</ele>
        <time>2018-10-12T12:57:37.000Z</time>
      </trkpt>
      <trkpt lat="31.0165424346923828" lon="-6.9546208381652832">
        <ele>1202.0</ele>
        <time>2018-10-12T12:57:38.000Z</time>
      </trkpt>
      <trkpt lat="31.0165748596191406" lon="-6.9546418190002441">
        <ele>1202.821044921875</ele>
        <time>2018-10-12T12:57:39.000Z</time>
      </trkpt>
      <trkpt lat="31.0166053771972656" lon="-6.9546642303466797">
        <ele>1203.0</ele>
        <time>2018-10-12T12:57:40.000Z</time>
      </trkpt>
      <trkpt lat="31.0166378021240234" lon="-6.9546852111816406">
        <ele>1203.0</ele>
        <time>2018-10-12T12:57:41.000Z</time>
      </trkpt>
      <trkpt lat="31.0166702270507812" lon="-6.9547038078308105">
        <ele>1203.0</ele>
        <time>2018-10-12T12:57:42.000Z</time>
      </trkpt>
      <trkpt lat="31.0167026519775391" lon="-6.9547209739685059">
        <ele>1203.0</ele>
        <time>2018-10-12T12:57:43.000Z</time>
      </trkpt>
      <trkpt lat="31.0167331695556641" lon="-6.9547381401062012">
        <ele>1203.0</ele>
        <time>2018-10-12T12:57:44.000Z</time>
      </trkpt>
      <trkpt lat="31.0167675018310547" lon="-6.9547538757324219">
        <ele>1203.0</ele>
        <time>2018-10-12T12:57:45.000Z</time>
      </trkpt>
      <trkpt lat="31.0168018341064453" lon="-6.9547681808471680">
        <ele>1203.0</ele>
        <time>2018-10-12T12:57:46.000Z</time>
      </trkpt>
      <trkpt lat="31.0168361663818359" lon="-6.9547810554504395">
        <ele>1203.0</ele>
        <time>2018-10-12T12:57:47.000Z</time>
      </trkpt>
      <trkpt lat="31.0168704986572266" lon="-6.9547929763793945">
        <ele>1203.0</ele>
        <time>2018-10-12T12:57:48.000Z</time>
      </trkpt>
      <trkpt lat="31.0169067382812500" lon="-6.9548048973083496">
        <ele>1203.0</ele>
        <time>2018-10-12T12:57:49.000Z</time>
      </trkpt>
      <trkpt lat="31.0169391632080078" lon="-6.9548168182373047">
        <ele>1203.0</ele>
        <time>2018-10-12T12:57:50.000Z</time>
      </trkpt>
      <trkpt lat="31.0169715881347656" lon="-6.9548277854919434">
        <ele>1203.0</ele>
        <time>2018-10-12T12:57:51.000Z</time>
      </trkpt>
      <trkpt lat="31.0170059204101562" lon="-6.9548368453979492">
        <ele>1203.0</ele>
        <time>2018-10-12T12:57:52.000Z</time>
      </trkpt>
      <trkpt lat="31.0170383453369141" lon="-6.9548459053039551">
        <ele>1203.0</ele>
        <time>2018-10-12T12:57:53.000Z</time>
      </trkpt>
      <trkpt lat="31.0170726776123047" lon="-6.9548540115356445">
        <ele>1203.0</ele>
        <time>2018-10-12T12:57:54.000Z</time>
      </trkpt>
      <trkpt lat="31.0171051025390625" lon="-6.9548621177673340">
        <ele>1203.0</ele>
        <time>2018-10-12T12:57:55.000Z</time>
      </trkpt>
      <trkpt lat="31.0171413421630859" lon="-6.9548702239990234">
        <ele>1203.0</ele>
        <time>2018-10-12T12:57:56.000Z</time>
      </trkpt>
      <trkpt lat="31.0171775817871094" lon="-6.9548768997192383">
        <ele>1203.0</ele>
        <time>2018-10-12T12:57:57.000Z</time>
      </trkpt>
      <trkpt lat="31.0172157287597656" lon="-6.9548850059509277">
        <ele>1203.0</ele>
        <time>2018-10-12T12:57:58.000Z</time>
      </trkpt>
      <trkpt lat="31.0172538757324219" lon="-6.9548921585083008">
        <ele>1203.0</ele>
        <time>2018-10-12T12:57:59.000Z</time>
      </trkpt>
      <trkpt lat="31.0172901153564453" lon="-6.9548997879028320">
        <ele>1203.0</ele>
        <time>2018-10-12T12:58:00.000Z</time>
      </trkpt>
      <trkpt lat="31.0173263549804688" lon="-6.9549078941345215">
        <ele>1203.0</ele>
        <time>2018-10-12T12:58:01.000Z</time>
      </trkpt>
      <trkpt lat="31.0173625946044922" lon="-6.9549169540405273">
        <ele>1203.0</ele>
        <time>2018-10-12T12:58:02.000Z</time>
      </trkpt>
      <trkpt lat="31.0174007415771484" lon="-6.9549269676208496">
        <ele>1203.0</ele>
        <time>2018-10-12T12:58:03.000Z</time>
      </trkpt>
      <trkpt lat="31.0174388885498047" lon="-6.9549388885498047">
        <ele>1203.0</ele>
        <time>2018-10-12T12:58:04.000Z</time>
      </trkpt>
      <trkpt lat="31.0174770355224609" lon="-6.9549517631530762">
        <ele>1203.0</ele>
        <time>2018-10-12T12:58:05.000Z</time>
      </trkpt>
      <trkpt lat="31.0175151824951172" lon="-6.9549679756164551">
        <ele>1203.0</ele>
        <time>2018-10-12T12:58:06.000Z</time>
      </trkpt>
      <trkpt lat="31.0175533294677734" lon="-6.9549870491027832">
        <ele>1203.0</ele>
        <time>2018-10-12T12:58:07.000Z</time>
      </trkpt>
      <trkpt lat="31.0175914764404297" lon="-6.9550080299377441">
        <ele>1203.0</ele>
        <time>2018-10-12T12:58:08.000Z</time>
      </trkpt>
      <trkpt lat="31.0176277160644531" lon="-6.9550290107727051">
        <ele>1203.0</ele>
        <time>2018-10-12T12:58:09.000Z</time>
      </trkpt>
      <trkpt lat="31.0176601409912109" lon="-6.9550490379333496">
        <ele>1203.0</ele>
        <time>2018-10-12T12:58:10.000Z</time>
      </trkpt>
      <trkpt lat="31.0176944732666016" lon="-6.9550671577453613">
        <ele>1203.0</ele>
        <time>2018-10-12T12:58:11.000Z</time>
      </trkpt>
      <trkpt lat="31.0177288055419922" lon="-6.9550848007202148">
        <ele>1203.0</ele>
        <time>2018-10-12T12:58:12.000Z</time>
      </trkpt>
      <trkpt lat="31.0177593231201172" lon="-6.9551029205322266">
        <ele>1203.0</ele>
        <time>2018-10-12T12:58:13.000Z</time>
      </trkpt>
      <trkpt lat="31.0177917480468750" lon="-6.9551210403442383">
        <ele>1203.0</ele>
        <time>2018-10-12T12:58:14.000Z</time>
      </trkpt>
      <trkpt lat="31.0178203582763672" lon="-6.9551382064819336">
        <ele>1203.0</ele>
        <time>2018-10-12T12:58:15.000Z</time>
      </trkpt>
      <trkpt lat="31.0178489685058594" lon="-6.9551548957824707">
        <ele>1203.0</ele>
        <time>2018-10-12T12:58:16.000Z</time>
      </trkpt>
      <trkpt lat="31.0178775787353516" lon="-6.9551711082458496">
        <ele>1203.0</ele>
        <time>2018-10-12T12:58:17.000Z</time>
      </trkpt>
      <trkpt lat="31.0179042816162109" lon="-6.9551858901977539">
        <ele>1203.0</ele>
        <time>2018-10-12T12:58:18.000Z</time>
      </trkpt>
      <trkpt lat="31.0179367065429688" lon="-6.9552040100097656">
        <ele>1203.0</ele>
        <time>2018-10-12T12:58:19.000Z</time>
      </trkpt>
      <trkpt lat="31.0179710388183594" lon="-6.9552249908447266">
        <ele>1203.0</ele>
        <time>2018-10-12T12:58:20.000Z</time>
      </trkpt>
      <trkpt lat="31.0180072784423828" lon="-6.9552440643310547">
        <ele>1203.0</ele>
        <time>2018-10-12T12:58:21.000Z</time>
      </trkpt>
      <trkpt lat="31.0180397033691406" lon="-6.9552640914916992">
        <ele>1203.0</ele>
        <time>2018-10-12T12:58:22.000Z</time>
      </trkpt>
      <trkpt lat="31.0180702209472656" lon="-6.9552822113037109">
        <ele>1203.0</ele>
        <time>2018-10-12T12:58:23.000Z</time>
      </trkpt>
      <trkpt lat="31.0181026458740234" lon="-6.9552989006042480">
        <ele>1203.0</ele>
        <time>2018-10-12T12:58:24.000Z</time>
      </trkpt>
      <trkpt lat="31.0181312561035156" lon="-6.9553151130676270">
        <ele>1203.0</ele>
        <time>2018-10-12T12:58:25.000Z</time>
      </trkpt>
      <trkpt lat="31.0181617736816406" lon="-6.9553298950195312">
        <ele>1203.0</ele>
        <time>2018-10-12T12:58:26.000Z</time>
      </trkpt>
      <trkpt lat="31.0181922912597656" lon="-6.9553451538085938">
        <ele>1203.0</ele>
        <time>2018-10-12T12:58:27.000Z</time>
      </trkpt>
      <trkpt lat="31.0182266235351562" lon="-6.9553618431091309">
        <ele>1203.0</ele>
        <time>2018-10-12T12:58:28.000Z</time>
      </trkpt>
      <trkpt lat="31.0182590484619141" lon="-6.9553809165954590">
        <ele>1203.0</ele>
        <time>2018-10-12T12:58:29.000Z</time>
      </trkpt>
      <trkpt lat="31.0182952880859375" lon="-6.9553971290588379">
        <ele>1203.0</ele>
        <time>2018-10-12T12:58:30.000Z</time>
      </trkpt>
      <trkpt lat="31.0183315277099609" lon="-6.9554138183593750">
        <ele>1203.0</ele>
        <time>2018-10-12T12:58:31.000Z</time>
      </trkpt>
      <trkpt lat="31.0183658599853516" lon="-6.9554300308227539">
        <ele>1203.0</ele>
        <time>2018-10-12T12:58:32.000Z</time>
      </trkpt>
      <trkpt lat="31.0184020996093750" lon="-6.9554438591003418">
        <ele>1203.0</ele>
        <time>2018-10-12T12:58:33.000Z</time>
      </trkpt>
      <trkpt lat="31.0184402465820312" lon="-6.9554572105407715">
        <ele>1203.0</ele>
        <time>2018-10-12T12:58:34.000Z</time>
      </trkpt>
      <trkpt lat="31.0184783935546875" lon="-6.9554700851440430">
        <ele>1203.0</ele>
        <time>2018-10-12T12:58:35.000Z</time>
      </trkpt>
      <trkpt lat="31.0185165405273438" lon="-6.9554820060729980">
        <ele>1203.821044921875</ele>
        <time>2018-10-12T12:58:36.000Z</time>
      </trkpt>
      <trkpt lat="31.0185546875000000" lon="-6.9554920196533203">
        <ele>1204.0</ele>
        <time>2018-10-12T12:58:37.000Z</time>
      </trkpt>
      <trkpt lat="31.0185928344726562" lon="-6.9555010795593262">
        <ele>1204.0</ele>
        <time>2018-10-12T12:58:38.000Z</time>
      </trkpt>
      <trkpt lat="31.0186309814453125" lon="-6.9555110931396484">
        <ele>1204.0</ele>
        <time>2018-10-12T12:58:39.000Z</time>
      </trkpt>
      <trkpt lat="31.0186691284179688" lon="-6.9555201530456543">
        <ele>1204.0</ele>
        <time>2018-10-12T12:58:40.000Z</time>
      </trkpt>
      <trkpt lat="31.0187072753906250" lon="-6.9555268287658691">
        <ele>1204.0</ele>
        <time>2018-10-12T12:58:41.000Z</time>
      </trkpt>
      <trkpt lat="31.0187492370605469" lon="-6.9555330276489258">
        <ele>1204.0</ele>
        <time>2018-10-12T12:58:42.000Z</time>
      </trkpt>
      <trkpt lat="31.0187931060791016" lon="-6.9555401802062988">
        <ele>1204.0</ele>
        <time>2018-10-12T12:58:43.000Z</time>
      </trkpt>
      <trkpt lat="31.0188350677490234" lon="-6.9555459022521973">
        <ele>1204.0</ele>
        <time>2018-10-12T12:58:44.000Z</time>
      </trkpt>
      <trkpt lat="31.0188770294189453" lon="-6.9555511474609375">
        <ele>1204.0</ele>
        <time>2018-10-12T12:58:45.000Z</time>
      </trkpt>
      <trkpt lat="31.0189170837402344" lon="-6.9555559158325195">
        <ele>1204.0</ele>
        <time>2018-10-12T12:58:46.000Z</time>
      </trkpt>
      <trkpt lat="31.0189571380615234" lon="-6.9555640220642090">
        <ele>1204.0</ele>
        <time>2018-10-12T12:58:47.000Z</time>
      </trkpt>
      <trkpt lat="31.0189971923828125" lon="-6.9555740356445312">
        <ele>1204.0</ele>
        <time>2018-10-12T12:58:48.000Z</time>
      </trkpt>
      <trkpt lat="31.0190353393554688" lon="-6.9555878639221191">
        <ele>1204.0</ele>
        <time>2018-10-12T12:58:49.000Z</time>
      </trkpt>
      <trkpt lat="31.0190734863281250" lon="-6.9556012153625488">
        <ele>1204.0</ele>
        <time>2018-10-12T12:58:50.000Z</time>
      </trkpt>
      <trkpt lat="31.0191097259521484" lon="-6.9556140899658203">
        <ele>1204.0</ele>
        <time>2018-10-12T12:58:51.000Z</time>
      </trkpt>
      <trkpt lat="31.0191440582275391" lon="-6.9556260108947754">
        <ele>1204.0</ele>
        <time>2018-10-12T12:58:52.000Z</time>
      </trkpt>
      <trkpt lat="31.0191783905029297" lon="-6.9556398391723633">
        <ele>1204.0</ele>
        <time>2018-10-12T12:58:53.000Z</time>
      </trkpt>
      <trkpt lat="31.0192127227783203" lon="-6.9556550979614258">
        <ele>1204.821044921875</ele>
        <time>2018-10-12T12:58:54.000Z</time>
      </trkpt>
      <trkpt lat="31.0192470550537109" lon="-6.9556717872619629">
        <ele>1205.0</ele>
        <time>2018-10-12T12:58:55.000Z</time>
      </trkpt>
      <trkpt lat="31.0192794799804688" lon="-6.9556899070739746">
        <ele>1205.0</ele>
        <time>2018-10-12T12:58:56.000Z</time>
      </trkpt>
      <trkpt lat="31.0193138122558594" lon="-6.9557080268859863">
        <ele>1205.0</ele>
        <time>2018-10-12T12:58:57.000Z</time>
      </trkpt>
      <trkpt lat="31.0193481445312500" lon="-6.9557280540466309">
        <ele>1205.0</ele>
        <time>2018-10-12T12:58:58.000Z</time>
      </trkpt>
      <trkpt lat="31.0193824768066406" lon="-6.9557480812072754">
        <ele>1205.0</ele>
        <time>2018-10-12T12:58:59.000Z</time>
      </trkpt>
      <trkpt lat="31.0194149017333984" lon="-6.9557700157165527">
        <ele>1205.0</ele>
        <time>2018-10-12T12:59:00.000Z</time>
      </trkpt>
      <trkpt lat="31.0194473266601562" lon="-6.9557929039001465">
        <ele>1205.0</ele>
        <time>2018-10-12T12:59:01.000Z</time>
      </trkpt>
      <trkpt lat="31.0194816589355469" lon="-6.9558148384094238">
        <ele>1205.0</ele>
        <time>2018-10-12T12:59:02.000Z</time>
      </trkpt>
      <trkpt lat="31.0195140838623047" lon="-6.9558367729187012">
        <ele>1205.0</ele>
        <time>2018-10-12T12:59:03.000Z</time>
      </trkpt>
      <trkpt lat="31.0195446014404297" lon="-6.9558620452880859">
        <ele>1205.0</ele>
        <time>2018-10-12T12:59:04.000Z</time>
      </trkpt>
      <trkpt lat="31.0195770263671875" lon="-6.9558877944946289">
        <ele>1205.0</ele>
        <time>2018-10-12T12:59:05.000Z</time>
      </trkpt>
      <trkpt lat="31.0196075439453125" lon="-6.9559168815612793">
        <ele>1205.0</ele>
        <time>2018-10-12T12:59:06.000Z</time>
      </trkpt>
      <trkpt lat="31.0196361541748047" lon="-6.9559459686279297">
        <ele>1205.0</ele>
        <time>2018-10-12T12:59:07.000Z</time>
      </trkpt>
      <trkpt lat="31.0196666717529297" lon="-6.9559779167175293">
        <ele>1205.0</ele>
        <time>2018-10-12T12:59:08.000Z</time>
      </trkpt>
      <trkpt lat="31.0196933746337891" lon="-6.9560098648071289">
        <ele>1205.0</ele>
        <time>2018-10-12T12:59:09.000Z</time>
      </trkpt>
      <trkpt lat="31.0197238922119141" lon="-6.9560441970825195">
        <ele>1205.0</ele>
        <time>2018-10-12T12:59:10.000Z</time>
      </trkpt>
      <trkpt lat="31.0197505950927734" lon="-6.9560799598693848">
        <ele>1205.0</ele>
        <time>2018-10-12T12:59:11.000Z</time>
      </trkpt>
      <trkpt lat="31.0197792053222656" lon="-6.9561161994934082">
        <ele>1205.0</ele>
        <time>2018-10-12T12:59:12.000Z</time>
      </trkpt>
      <trkpt lat="31.0198059082031250" lon="-6.9561519622802734">
        <ele>1205.0</ele>
        <time>2018-10-12T12:59:13.000Z</time>
      </trkpt>
      <trkpt lat="31.0198287963867188" lon="-6.9561901092529297">
        <ele>1205.0</ele>
        <time>2018-10-12T12:59:14.000Z</time>
      </trkpt>
      <trkpt lat="31.0198535919189453" lon="-6.9562277793884277">
        <ele>1205.0</ele>
        <time>2018-10-12T12:59:15.000Z</time>
      </trkpt>
      <trkpt lat="31.0198764801025391" lon="-6.9562678337097168">
        <ele>1205.0</ele>
        <time>2018-10-12T12:59:16.000Z</time>
      </trkpt>
      <trkpt lat="31.0198974609375000" lon="-6.9563097953796387">
        <ele>1205.0</ele>
        <time>2018-10-12T12:59:17.000Z</time>
      </trkpt>
      <trkpt lat="31.0199184417724609" lon="-6.9563531875610352">
        <ele>1205.0</ele>
        <time>2018-10-12T12:59:18.000Z</time>
      </trkpt>
      <trkpt lat="31.0199356079101562" lon="-6.9563970565795898">
        <ele>1205.0</ele>
        <time>2018-10-12T12:59:19.000Z</time>
      </trkpt>
      <trkpt lat="31.0199527740478516" lon="-6.9564418792724609">
        <ele>1205.7406005859375</ele>
        <time>2018-10-12T12:59:20.000Z</time>
      </trkpt>
      <trkpt lat="31.0199642181396484" lon="-6.9564862251281738">
        <ele>1206.0</ele>
        <time>2018-10-12T12:59:21.000Z</time>
      </trkpt>
      <trkpt lat="31.0199737548828125" lon="-6.9565281867980957">
        <ele>1206.0</ele>
        <time>2018-10-12T12:59:22.000Z</time>
      </trkpt>
      <trkpt lat="31.0199832916259766" lon="-6.9565691947937012">
        <ele>1206.0</ele>
        <time>2018-10-12T12:59:23.000Z</time>
      </trkpt>
      <trkpt lat="31.0199909210205078" lon="-6.9566102027893066">
        <ele>1206.0</ele>
        <time>2018-10-12T12:59:24.000Z</time>
      </trkpt>
      <trkpt lat="31.0199966430664062" lon="-6.9566512107849121">
        <ele>1206.0</ele>
        <time>2018-10-12T12:59:25.000Z</time>
      </trkpt>
      <trkpt lat="31.0200004577636719" lon="-6.9566950798034668">
        <ele>1206.0</ele>
        <time>2018-10-12T12:59:26.000Z</time>
      </trkpt>
      <trkpt lat="31.0200023651123047" lon="-6.9567379951477051">
        <ele>1206.0</ele>
        <time>2018-10-12T12:59:27.000Z</time>
      </trkpt>
      <trkpt lat="31.0200061798095703" lon="-6.9567809104919434">
        <ele>1206.0</ele>
        <time>2018-10-12T12:59:28.000Z</time>
      </trkpt>
      <trkpt lat="31.0200099945068359" lon="-6.9568238258361816">
        <ele>1206.0</ele>
        <time>2018-10-12T12:59:29.000Z</time>
      </trkpt>
      <trkpt lat="31.0200138092041016" lon="-6.9568648338317871">
        <ele>1206.0</ele>
        <time>2018-10-12T12:59:30.000Z</time>
      </trkpt>
      <trkpt lat="31.0200176239013672" lon="-6.9569039344787598">
        <ele>1206.0</ele>
        <time>2018-10-12T12:59:31.000Z</time>
      </trkpt>
      <trkpt lat="31.0200214385986328" lon="-6.9569420814514160">
        <ele>1206.0</ele>
        <time>2018-10-12T12:59:32.000Z</time>
      </trkpt>
      <trkpt lat="31.0200271606445312" lon="-6.9569811820983887">
        <ele>1206.0</ele>
        <time>2018-10-12T12:59:33.000Z</time>
      </trkpt>
      <trkpt lat="31.0200328826904297" lon="-6.9570169448852539">
        <ele>1206.0</ele>
        <time>2018-10-12T12:59:34.000Z</time>
      </trkpt>
      <trkpt lat="31.0200386047363281" lon="-6.9570508003234863">
        <ele>1206.0</ele>
        <time>2018-10-12T12:59:35.000Z</time>
      </trkpt>
      <trkpt lat="31.0200443267822266" lon="-6.9570832252502441">
        <ele>1206.0</ele>
        <time>2018-10-12T12:59:36.000Z</time>
      </trkpt>
      <trkpt lat="31.0200538635253906" lon="-6.9571108818054199">
        <ele>1206.0</ele>
        <time>2018-10-12T12:59:37.000Z</time>
      </trkpt>
      <trkpt lat="31.0200614929199219" lon="-6.9571361541748047">
        <ele>1206.0</ele>
        <time>2018-10-12T12:59:38.000Z</time>
      </trkpt>
      <trkpt lat="31.0200691223144531" lon="-6.9571590423583984">
        <ele>1206.0</ele>
        <time>2018-10-12T12:59:39.000Z</time>
      </trkpt>
      <trkpt lat="31.0200843811035156" lon="-6.9571828842163086">
        <ele>1206.0</ele>
        <time>2018-10-12T12:59:40.000Z</time>
      </trkpt>
      <trkpt lat="31.0200996398925781" lon="-6.9572110176086426">
        <ele>1206.0</ele>
        <time>2018-10-12T12:59:41.000Z</time>
      </trkpt>
      <trkpt lat="31.0201187133789062" lon="-6.9572410583496094">
        <ele>1206.0</ele>
        <time>2018-10-12T12:59:42.000Z</time>
      </trkpt>
      <trkpt lat="31.0201396942138672" lon="-6.9572730064392090">
        <ele>1206.0</ele>
        <time>2018-10-12T12:59:43.000Z</time>
      </trkpt>
      <trkpt lat="31.0201644897460938" lon="-6.9573040008544922">
        <ele>1206.0</ele>
        <time>2018-10-12T12:59:44.000Z</time>
      </trkpt>
      <trkpt lat="31.0201892852783203" lon="-6.9573340415954590">
        <ele>1206.0</ele>
        <time>2018-10-12T12:59:45.000Z</time>
      </trkpt>
      <trkpt lat="31.0202178955078125" lon="-6.9573621749877930">
        <ele>1206.0</ele>
        <time>2018-10-12T12:59:46.000Z</time>
      </trkpt>
      <trkpt lat="31.0202465057373047" lon="-6.9573888778686523">
        <ele>1206.0</ele>
        <time>2018-10-12T12:59:47.000Z</time>
      </trkpt>
      <trkpt lat="31.0202789306640625" lon="-6.9574151039123535">
        <ele>1206.0</ele>
        <time>2018-10-12T12:59:48.000Z</time>
      </trkpt>
      <trkpt lat="31.0203094482421875" lon="-6.9574389457702637">
        <ele>1206.0</ele>
        <time>2018-10-12T12:59:49.000Z</time>
      </trkpt>
      <trkpt lat="31.0203418731689453" lon="-6.9574618339538574">
        <ele>1206.0</ele>
        <time>2018-10-12T12:59:50.000Z</time>
      </trkpt>
      <trkpt lat="31.0203762054443359" lon="-6.9574818611145020">
        <ele>1206.0</ele>
        <time>2018-10-12T12:59:51.000Z</time>
      </trkpt>
      <trkpt lat="31.0204086303710938" lon="-6.9575018882751465">
        <ele>1206.0</ele>
        <time>2018-10-12T12:59:52.000Z</time>
      </trkpt>
      <trkpt lat="31.0204429626464844" lon="-6.9575181007385254">
        <ele>1206.0</ele>
        <time>2018-10-12T12:59:53.000Z</time>
      </trkpt>
      <trkpt lat="31.0204753875732422" lon="-6.9575328826904297">
        <ele>1206.0</ele>
        <time>2018-10-12T12:59:54.000Z</time>
      </trkpt>
      <trkpt lat="31.0205097198486328" lon="-6.9575490951538086">
        <ele>1206.0</ele>
        <time>2018-10-12T12:59:55.000Z</time>
      </trkpt>
      <trkpt lat="31.0205440521240234" lon="-6.9575619697570801">
        <ele>1206.0</ele>
        <time>2018-10-12T12:59:56.000Z</time>
      </trkpt>
      <trkpt lat="31.0205802917480469" lon="-6.9575748443603516">
        <ele>1206.0</ele>
        <time>2018-10-12T12:59:57.000Z</time>
      </trkpt>
      <trkpt lat="31.0206184387207031" lon="-6.9575858116149902">
        <ele>1206.0</ele>
        <time>2018-10-12T12:59:58.000Z</time>
      </trkpt>
      <trkpt lat="31.0206565856933594" lon="-6.9575948715209961">
        <ele>1206.0</ele>
        <time>2018-10-12T12:59:59.000Z</time>
      </trkpt>
      <trkpt lat="31.0206947326660156" lon="-6.9576039314270020">
        <ele>1206.0</ele>
        <time>2018-10-12T13:00:00.000Z</time>
      </trkpt>
      <trkpt lat="31.0207347869873047" lon="-6.9576101303100586">
        <ele>1206.626708984375</ele>
        <time>2018-10-12T13:00:01.000Z</time>
      </trkpt>
      <trkpt lat="31.0207729339599609" lon="-6.9576158523559570">
        <ele>1207.0</ele>
        <time>2018-10-12T13:00:02.000Z</time>
      </trkpt>
      <trkpt lat="31.0208091735839844" lon="-6.9576210975646973">
        <ele>1207.0</ele>
        <time>2018-10-12T13:00:03.000Z</time>
      </trkpt>
      <trkpt lat="31.0208473205566406" lon="-6.9576258659362793">
        <ele>1207.0</ele>
        <time>2018-10-12T13:00:04.000Z</time>
      </trkpt>
      <trkpt lat="31.0208835601806641" lon="-6.9576301574707031">
        <ele>1207.0</ele>
        <time>2018-10-12T13:00:05.000Z</time>
      </trkpt>
      <trkpt lat="31.0209217071533203" lon="-6.9576368331909180">
        <ele>1207.0</ele>
        <time>2018-10-12T13:00:06.000Z</time>
      </trkpt>
      <trkpt lat="31.0209579467773438" lon="-6.9576439857482910">
        <ele>1207.0</ele>
        <time>2018-10-12T13:00:07.000Z</time>
      </trkpt>
      <trkpt lat="31.0209941864013672" lon="-6.9576511383056641">
        <ele>1207.0</ele>
        <time>2018-10-12T13:00:08.000Z</time>
      </trkpt>
      <trkpt lat="31.0210323333740234" lon="-6.9576578140258789">
        <ele>1207.0</ele>
        <time>2018-10-12T13:00:09.000Z</time>
      </trkpt>
      <trkpt lat="31.0210704803466797" lon="-6.9576649665832520">
        <ele>1207.0</ele>
        <time>2018-10-12T13:00:10.000Z</time>
      </trkpt>
      <trkpt lat="31.0211105346679688" lon="-6.9576721191406250">
        <ele>1207.0</ele>
        <time>2018-10-12T13:00:11.000Z</time>
      </trkpt>
      <trkpt lat="31.0211486816406250" lon="-6.9576811790466309">
        <ele>1207.0</ele>
        <time>2018-10-12T13:00:12.000Z</time>
      </trkpt>
      <trkpt lat="31.0211868286132812" lon="-6.9576911926269531">
        <ele>1207.0</ele>
        <time>2018-10-12T13:00:13.000Z</time>
      </trkpt>
      <trkpt lat="31.0212268829345703" lon="-6.9576997756958008">
        <ele>1207.0</ele>
        <time>2018-10-12T13:00:14.000Z</time>
      </trkpt>
      <trkpt lat="31.0212688446044922" lon="-6.9577097892761230">
        <ele>1207.0</ele>
        <time>2018-10-12T13:00:15.000Z</time>
      </trkpt>
      <trkpt lat="31.0213108062744141" lon="-6.9577212333679199">
        <ele>1207.0</ele>
        <time>2018-10-12T13:00:16.000Z</time>
      </trkpt>
      <trkpt lat="31.0213527679443359" lon="-6.9577322006225586">
        <ele>1207.0</ele>
        <time>2018-10-12T13:00:17.000Z</time>
      </trkpt>
      <trkpt lat="31.0213947296142578" lon="-6.9577441215515137">
        <ele>1207.0</ele>
        <time>2018-10-12T13:00:18.000Z</time>
      </trkpt>
      <trkpt lat="31.0214366912841797" lon="-6.9577541351318359">
        <ele>1207.0</ele>
        <time>2018-10-12T13:00:19.000Z</time>
      </trkpt>
      <trkpt lat="31.0214786529541016" lon="-6.9577651023864746">
        <ele>1207.0</ele>
        <time>2018-10-12T13:00:20.000Z</time>
      </trkpt>
      <trkpt lat="31.0215206146240234" lon="-6.9577760696411133">
        <ele>1207.0</ele>
        <time>2018-10-12T13:00:21.000Z</time>
      </trkpt>
      <trkpt lat="31.0215644836425781" lon="-6.9577870368957520">
        <ele>1207.0</ele>
        <time>2018-10-12T13:00:22.000Z</time>
      </trkpt>
      <trkpt lat="31.0216064453125000" lon="-6.9577970504760742">
        <ele>1207.0</ele>
        <time>2018-10-12T13:00:23.000Z</time>
      </trkpt>
      <trkpt lat="31.0216484069824219" lon="-6.9578061103820801">
        <ele>1207.0</ele>
        <time>2018-10-12T13:00:24.000Z</time>
      </trkpt>
      <trkpt lat="31.0216884613037109" lon="-6.9578151702880859">
        <ele>1207.0</ele>
        <time>2018-10-12T13:00:25.000Z</time>
      </trkpt>
      <trkpt lat="31.0217285156250000" lon="-6.9578280448913574">
        <ele>1207.0</ele>
        <time>2018-10-12T13:00:26.000Z</time>
      </trkpt>
      <trkpt lat="31.0217704772949219" lon="-6.9578409194946289">
        <ele>1207.0</ele>
        <time>2018-10-12T13:00:27.000Z</time>
      </trkpt>
      <trkpt lat="31.0218124389648438" lon="-6.9578528404235840">
        <ele>1207.0</ele>
        <time>2018-10-12T13:00:28.000Z</time>
      </trkpt>
      <trkpt lat="31.0218505859375000" lon="-6.9578652381896973">
        <ele>1207.0</ele>
        <time>2018-10-12T13:00:29.000Z</time>
      </trkpt>
      <trkpt lat="31.0218887329101562" lon="-6.9578747749328613">
        <ele>1207.0</ele>
        <time>2018-10-12T13:00:30.000Z</time>
      </trkpt>
      <trkpt lat="31.0219268798828125" lon="-6.9578838348388672">
        <ele>1207.0</ele>
        <time>2018-10-12T13:00:31.000Z</time>
      </trkpt>
      <trkpt lat="31.0219669342041016" lon="-6.9578938484191895">
        <ele>1207.0</ele>
        <time>2018-10-12T13:00:32.000Z</time>
      </trkpt>
      <trkpt lat="31.0220088958740234" lon="-6.9579071998596191">
        <ele>1207.0</ele>
        <time>2018-10-12T13:00:33.000Z</time>
      </trkpt>
      <trkpt lat="31.0220489501953125" lon="-6.9579210281372070">
        <ele>1207.0</ele>
        <time>2018-10-12T13:00:34.000Z</time>
      </trkpt>
      <trkpt lat="31.0220870971679688" lon="-6.9579339027404785">
        <ele>1207.0</ele>
        <time>2018-10-12T13:00:35.000Z</time>
      </trkpt>
      <trkpt lat="31.0221233367919922" lon="-6.9579491615295410">
        <ele>1207.0</ele>
        <time>2018-10-12T13:00:36.000Z</time>
      </trkpt>
      <trkpt lat="31.0221576690673828" lon="-6.9579629898071289">
        <ele>1207.0</ele>
        <time>2018-10-12T13:00:37.000Z</time>
      </trkpt>
      <trkpt lat="31.0221881866455078" lon="-6.9579768180847168">
        <ele>1207.0</ele>
        <time>2018-10-12T13:00:38.000Z</time>
      </trkpt>
      <trkpt lat="31.0222187042236328" lon="-6.9579920768737793">
        <ele>1207.0</ele>
        <time>2018-10-12T13:00:39.000Z</time>
      </trkpt>
      <trkpt lat="31.0222473144531250" lon="-6.9580078125000000">
        <ele>1207.0</ele>
        <time>2018-10-12T13:00:40.000Z</time>
      </trkpt>
      <trkpt lat="31.0222797393798828" lon="-6.9580249786376953">
        <ele>1207.0</ele>
        <time>2018-10-12T13:00:41.000Z</time>
      </trkpt>
      <trkpt lat="31.0223159790039062" lon="-6.9580411911010742">
        <ele>1207.0</ele>
        <time>2018-10-12T13:00:42.000Z</time>
      </trkpt>
      <trkpt lat="31.0223541259765625" lon="-6.9580569267272949">
        <ele>1207.0</ele>
        <time>2018-10-12T13:00:43.000Z</time>
      </trkpt>
      <trkpt lat="31.0223941802978516" lon="-6.9580769538879395">
        <ele>1207.0</ele>
        <time>2018-10-12T13:00:44.000Z</time>
      </trkpt>
      <trkpt lat="31.0224342346191406" lon="-6.9580998420715332">
        <ele>1206.178955078125</ele>
        <time>2018-10-12T13:00:45.000Z</time>
      </trkpt>
      <trkpt lat="31.0224723815917969" lon="-6.9581241607666016">
        <ele>1206.0</ele>
        <time>2018-10-12T13:00:46.000Z</time>
      </trkpt>
      <trkpt lat="31.0225067138671875" lon="-6.9581470489501953">
        <ele>1206.0</ele>
        <time>2018-10-12T13:00:47.000Z</time>
      </trkpt>
      <trkpt lat="31.0225391387939453" lon="-6.9581680297851562">
        <ele>1206.0</ele>
        <time>2018-10-12T13:00:48.000Z</time>
      </trkpt>
      <trkpt lat="31.0225715637207031" lon="-6.9581909179687500">
        <ele>1206.0</ele>
        <time>2018-10-12T13:00:49.000Z</time>
      </trkpt>
      <trkpt lat="31.0226058959960938" lon="-6.9582109451293945">
        <ele>1206.0</ele>
        <time>2018-10-12T13:00:50.000Z</time>
      </trkpt>
      <trkpt lat="31.0226402282714844" lon="-6.9582290649414062">
        <ele>1206.0</ele>
        <time>2018-10-12T13:00:51.000Z</time>
      </trkpt>
      <trkpt lat="31.0226745605468750" lon="-6.9582471847534180">
        <ele>1206.0</ele>
        <time>2018-10-12T13:00:52.000Z</time>
      </trkpt>
      <trkpt lat="31.0227069854736328" lon="-6.9582638740539551">
        <ele>1206.821044921875</ele>
        <time>2018-10-12T13:00:53.000Z</time>
      </trkpt>
      <trkpt lat="31.0227394104003906" lon="-6.9582810401916504">
        <ele>1207.821044921875</ele>
        <time>2018-10-12T13:00:54.000Z</time>
      </trkpt>
      <trkpt lat="31.0227737426757812" lon="-6.9582982063293457">
        <ele>1208.0</ele>
        <time>2018-10-12T13:00:55.000Z</time>
      </trkpt>
      <trkpt lat="31.0228080749511719" lon="-6.9583148956298828">
        <ele>1208.0</ele>
        <time>2018-10-12T13:00:56.000Z</time>
      </trkpt>
      <trkpt lat="31.0228462219238281" lon="-6.9583292007446289">
        <ele>1208.0</ele>
        <time>2018-10-12T13:00:57.000Z</time>
      </trkpt>
      <trkpt lat="31.0228824615478516" lon="-6.9583439826965332">
        <ele>1208.0</ele>
        <time>2018-10-12T13:00:58.000Z</time>
      </trkpt>
      <trkpt lat="31.0229187011718750" lon="-6.9583601951599121">
        <ele>1208.0</ele>
        <time>2018-10-12T13:00:59.000Z</time>
      </trkpt>
      <trkpt lat="31.0229549407958984" lon="-6.9583740234375000">
        <ele>1208.0</ele>
        <time>2018-10-12T13:01:00.000Z</time>
      </trkpt>
      <trkpt lat="31.0229911804199219" lon="-6.9583859443664551">
        <ele>1208.0</ele>
        <time>2018-10-12T13:01:01.000Z</time>
      </trkpt>
      <trkpt lat="31.0230293273925781" lon="-6.9583969116210938">
        <ele>1208.0</ele>
        <time>2018-10-12T13:01:02.000Z</time>
      </trkpt>
      <trkpt lat="31.0230674743652344" lon="-6.9584078788757324">
        <ele>1208.0</ele>
        <time>2018-10-12T13:01:03.000Z</time>
      </trkpt>
      <trkpt lat="31.0231056213378906" lon="-6.9584169387817383">
        <ele>1208.0</ele>
        <time>2018-10-12T13:01:04.000Z</time>
      </trkpt>
      <trkpt lat="31.0231437683105469" lon="-6.9584259986877441">
        <ele>1207.178955078125</ele>
        <time>2018-10-12T13:01:05.000Z</time>
      </trkpt>
      <trkpt lat="31.0231838226318359" lon="-6.9584369659423828">
        <ele>1207.0</ele>
        <time>2018-10-12T13:01:06.000Z</time>
      </trkpt>
      <trkpt lat="31.0232238769531250" lon="-6.9584460258483887">
        <ele>1207.0</ele>
        <time>2018-10-12T13:01:07.000Z</time>
      </trkpt>
      <trkpt lat="31.0232639312744141" lon="-6.9584550857543945">
        <ele>1207.0</ele>
        <time>2018-10-12T13:01:08.000Z</time>
      </trkpt>
      <trkpt lat="31.0233039855957031" lon="-6.9584631919860840">
        <ele>1207.0</ele>
        <time>2018-10-12T13:01:09.000Z</time>
      </trkpt>
      <trkpt lat="31.0233440399169922" lon="-6.9584732055664062">
        <ele>1207.0</ele>
        <time>2018-10-12T13:01:10.000Z</time>
      </trkpt>
      <trkpt lat="31.0233840942382812" lon="-6.9584832191467285">
        <ele>1207.0</ele>
        <time>2018-10-12T13:01:11.000Z</time>
      </trkpt>
      <trkpt lat="31.0234260559082031" lon="-6.9584932327270508">
        <ele>1207.0</ele>
        <time>2018-10-12T13:01:12.000Z</time>
      </trkpt>
      <trkpt lat="31.0234661102294922" lon="-6.9585041999816895">
        <ele>1207.821044921875</ele>
        <time>2018-10-12T13:01:13.000Z</time>
      </trkpt>
      <trkpt lat="31.0235080718994141" lon="-6.9585170745849609">
        <ele>1208.0</ele>
        <time>2018-10-12T13:01:14.000Z</time>
      </trkpt>
      <trkpt lat="31.0235481262207031" lon="-6.9585289955139160">
        <ele>1208.0</ele>
        <time>2018-10-12T13:01:15.000Z</time>
      </trkpt>
      <trkpt lat="31.0235881805419922" lon="-6.9585428237915039">
        <ele>1208.0</ele>
        <time>2018-10-12T13:01:16.000Z</time>
      </trkpt>
      <trkpt lat="31.0236301422119141" lon="-6.9585590362548828">
        <ele>1208.0</ele>
        <time>2018-10-12T13:01:17.000Z</time>
      </trkpt>
      <trkpt lat="31.0236701965332031" lon="-6.9585728645324707">
        <ele>1208.0</ele>
        <time>2018-10-12T13:01:18.000Z</time>
      </trkpt>
      <trkpt lat="31.0237102508544922" lon="-6.9585881233215332">
        <ele>1208.0</ele>
        <time>2018-10-12T13:01:19.000Z</time>
      </trkpt>
      <trkpt lat="31.0237503051757812" lon="-6.9586038589477539">
        <ele>1208.0</ele>
        <time>2018-10-12T13:01:20.000Z</time>
      </trkpt>
      <trkpt lat="31.0237903594970703" lon="-6.9586219787597656">
        <ele>1208.0</ele>
        <time>2018-10-12T13:01:21.000Z</time>
      </trkpt>
      <trkpt lat="31.0238304138183594" lon="-6.9586400985717773">
        <ele>1208.0</ele>
        <time>2018-10-12T13:01:22.000Z</time>
      </trkpt>
      <trkpt lat="31.0238704681396484" lon="-6.9586591720581055">
        <ele>1208.0</ele>
        <time>2018-10-12T13:01:23.000Z</time>
      </trkpt>
      <trkpt lat="31.0239105224609375" lon="-6.9586791992187500">
        <ele>1208.0</ele>
        <time>2018-10-12T13:01:24.000Z</time>
      </trkpt>
      <trkpt lat="31.0239486694335938" lon="-6.9586992263793945">
        <ele>1208.0</ele>
        <time>2018-10-12T13:01:25.000Z</time>
      </trkpt>
      <trkpt lat="31.0239868164062500" lon="-6.9587178230285645">
        <ele>1208.0</ele>
        <time>2018-10-12T13:01:26.000Z</time>
      </trkpt>
      <trkpt lat="31.0240230560302734" lon="-6.9587368965148926">
        <ele>1208.0</ele>
        <time>2018-10-12T13:01:27.000Z</time>
      </trkpt>
      <trkpt lat="31.0240592956542969" lon="-6.9587578773498535">
        <ele>1208.0</ele>
        <time>2018-10-12T13:01:28.000Z</time>
      </trkpt>
      <trkpt lat="31.0240974426269531" lon="-6.9587788581848145">
        <ele>1208.0</ele>
        <time>2018-10-12T13:01:29.000Z</time>
      </trkpt>
      <trkpt lat="31.0241317749023438" lon="-6.9587998390197754">
        <ele>1208.0</ele>
        <time>2018-10-12T13:01:30.000Z</time>
      </trkpt>
      <trkpt lat="31.0241661071777344" lon="-6.9588208198547363">
        <ele>1208.0</ele>
        <time>2018-10-12T13:01:31.000Z</time>
      </trkpt>
      <trkpt lat="31.0242023468017578" lon="-6.9588408470153809">
        <ele>1208.821044921875</ele>
        <time>2018-10-12T13:01:32.000Z</time>
      </trkpt>
      <trkpt lat="31.0242366790771484" lon="-6.9588618278503418">
        <ele>1209.0</ele>
        <time>2018-10-12T13:01:33.000Z</time>
      </trkpt>
      <trkpt lat="31.0242710113525391" lon="-6.9588828086853027">
        <ele>1209.0</ele>
        <time>2018-10-12T13:01:34.000Z</time>
      </trkpt>
      <trkpt lat="31.0243053436279297" lon="-6.9589037895202637">
        <ele>1209.0</ele>
        <time>2018-10-12T13:01:35.000Z</time>
      </trkpt>
      <trkpt lat="31.0243396759033203" lon="-6.9589262008666992">
        <ele>1209.0</ele>
        <time>2018-10-12T13:01:36.000Z</time>
      </trkpt>
      <trkpt lat="31.0243740081787109" lon="-6.9589481353759766">
        <ele>1209.0</ele>
        <time>2018-10-12T13:01:37.000Z</time>
      </trkpt>
      <trkpt lat="31.0244083404541016" lon="-6.9589700698852539">
        <ele>1209.0</ele>
        <time>2018-10-12T13:01:38.000Z</time>
      </trkpt>
      <trkpt lat="31.0244426727294922" lon="-6.9589929580688477">
        <ele>1209.0</ele>
        <time>2018-10-12T13:01:39.000Z</time>
      </trkpt>
      <trkpt lat="31.0244770050048828" lon="-6.9590158462524414">
        <ele>1209.0</ele>
        <time>2018-10-12T13:01:40.000Z</time>
      </trkpt>
      <trkpt lat="31.0245132446289062" lon="-6.9590401649475098">
        <ele>1208.178955078125</ele>
        <time>2018-10-12T13:01:41.000Z</time>
      </trkpt>
      <trkpt lat="31.0245513916015625" lon="-6.9590630531311035">
        <ele>1208.0</ele>
        <time>2018-10-12T13:01:42.000Z</time>
      </trkpt>
      <trkpt lat="31.0245876312255859" lon="-6.9590868949890137">
        <ele>1208.0</ele>
        <time>2018-10-12T13:01:43.000Z</time>
      </trkpt>
      <trkpt lat="31.0246257781982422" lon="-6.9591112136840820">
        <ele>1208.0</ele>
        <time>2018-10-12T13:01:44.000Z</time>
      </trkpt>
      <trkpt lat="31.0246601104736328" lon="-6.9591350555419922">
        <ele>1208.0</ele>
        <time>2018-10-12T13:01:45.000Z</time>
      </trkpt>
      <trkpt lat="31.0246963500976562" lon="-6.9591598510742188">
        <ele>1208.0</ele>
        <time>2018-10-12T13:01:46.000Z</time>
      </trkpt>
      <trkpt lat="31.0247306823730469" lon="-6.9591851234436035">
        <ele>1208.821044921875</ele>
        <time>2018-10-12T13:01:47.000Z</time>
      </trkpt>
      <trkpt lat="31.0247669219970703" lon="-6.9592099189758301">
        <ele>1209.0</ele>
        <time>2018-10-12T13:01:48.000Z</time>
      </trkpt>
      <trkpt lat="31.0248012542724609" lon="-6.9592342376708984">
        <ele>1209.0</ele>
        <time>2018-10-12T13:01:49.000Z</time>
      </trkpt>
      <trkpt lat="31.0248355865478516" lon="-6.9592561721801758">
        <ele>1209.0</ele>
        <time>2018-10-12T13:01:50.000Z</time>
      </trkpt>
      <trkpt lat="31.0248718261718750" lon="-6.9592790603637695">
        <ele>1209.0</ele>
        <time>2018-10-12T13:01:51.000Z</time>
      </trkpt>
      <trkpt lat="31.0249061584472656" lon="-6.9593009948730469">
        <ele>1209.0</ele>
        <time>2018-10-12T13:01:52.000Z</time>
      </trkpt>
      <trkpt lat="31.0249404907226562" lon="-6.9593248367309570">
        <ele>1209.0</ele>
        <time>2018-10-12T13:01:53.000Z</time>
      </trkpt>
      <trkpt lat="31.0249748229980469" lon="-6.9593482017517090">
        <ele>1209.0</ele>
        <time>2018-10-12T13:01:54.000Z</time>
      </trkpt>
      <trkpt lat="31.0250072479248047" lon="-6.9593720436096191">
        <ele>1209.0</ele>
        <time>2018-10-12T13:01:55.000Z</time>
      </trkpt>
      <trkpt lat="31.0250415802001953" lon="-6.9593949317932129">
        <ele>1209.0</ele>
        <time>2018-10-12T13:01:56.000Z</time>
      </trkpt>
      <trkpt lat="31.0250759124755859" lon="-6.9594178199768066">
        <ele>1209.0</ele>
        <time>2018-10-12T13:01:57.000Z</time>
      </trkpt>
      <trkpt lat="31.0251083374023438" lon="-6.9594411849975586">
        <ele>1209.0</ele>
        <time>2018-10-12T13:01:58.000Z</time>
      </trkpt>
      <trkpt lat="31.0251426696777344" lon="-6.9594631195068359">
        <ele>1209.0</ele>
        <time>2018-10-12T13:01:59.000Z</time>
      </trkpt>
      <trkpt lat="31.0251750946044922" lon="-6.9594860076904297">
        <ele>1208.178955078125</ele>
        <time>2018-10-12T13:02:00.000Z</time>
      </trkpt>
      <trkpt lat="31.0252094268798828" lon="-6.9595088958740234">
        <ele>1208.0</ele>
        <time>2018-10-12T13:02:01.000Z</time>
      </trkpt>
      <trkpt lat="31.0252437591552734" lon="-6.9595317840576172">
        <ele>1208.0</ele>
        <time>2018-10-12T13:02:02.000Z</time>
      </trkpt>
      <trkpt lat="31.0252780914306641" lon="-6.9595551490783691">
        <ele>1208.0</ele>
        <time>2018-10-12T13:02:03.000Z</time>
      </trkpt>
      <trkpt lat="31.0253124237060547" lon="-6.9595780372619629">
        <ele>1208.821044921875</ele>
        <time>2018-10-12T13:02:04.000Z</time>
      </trkpt>
      <trkpt lat="31.0253467559814453" lon="-6.9595999717712402">
        <ele>1209.0</ele>
        <time>2018-10-12T13:02:05.000Z</time>
      </trkpt>
      <trkpt lat="31.0253791809082031" lon="-6.9596228599548340">
        <ele>1209.0</ele>
        <time>2018-10-12T13:02:06.000Z</time>
      </trkpt>
      <trkpt lat="31.0254154205322266" lon="-6.9596438407897949">
        <ele>1209.0</ele>
        <time>2018-10-12T13:02:07.000Z</time>
      </trkpt>
      <trkpt lat="31.0254497528076172" lon="-6.9596672058105469">
        <ele>1209.0</ele>
        <time>2018-10-12T13:02:08.000Z</time>
      </trkpt>
      <trkpt lat="31.0254840850830078" lon="-6.9596900939941406">
        <ele>1209.0</ele>
        <time>2018-10-12T13:02:09.000Z</time>
      </trkpt>
      <trkpt lat="31.0255184173583984" lon="-6.9597120285034180">
        <ele>1209.0</ele>
        <time>2018-10-12T13:02:10.000Z</time>
      </trkpt>
      <trkpt lat="31.0255546569824219" lon="-6.9597349166870117">
        <ele>1209.0</ele>
        <time>2018-10-12T13:02:11.000Z</time>
      </trkpt>
      <trkpt lat="31.0255889892578125" lon="-6.9597578048706055">
        <ele>1209.0</ele>
        <time>2018-10-12T13:02:12.000Z</time>
      </trkpt>
      <trkpt lat="31.0256233215332031" lon="-6.9597811698913574">
        <ele>1209.0</ele>
        <time>2018-10-12T13:02:13.000Z</time>
      </trkpt>
      <trkpt lat="31.0256595611572266" lon="-6.9598031044006348">
        <ele>1209.0</ele>
        <time>2018-10-12T13:02:14.000Z</time>
      </trkpt>
      <trkpt lat="31.0256938934326172" lon="-6.9598250389099121">
        <ele>1209.0</ele>
        <time>2018-10-12T13:02:15.000Z</time>
      </trkpt>
      <trkpt lat="31.0257282257080078" lon="-6.9598479270935059">
        <ele>1209.821044921875</ele>
        <time>2018-10-12T13:02:16.000Z</time>
      </trkpt>
      <trkpt lat="31.0257644653320312" lon="-6.9598698616027832">
        <ele>1210.0</ele>
        <time>2018-10-12T13:02:17.000Z</time>
      </trkpt>
      <trkpt lat="31.0258007049560547" lon="-6.9598932266235352">
        <ele>1210.0</ele>
        <time>2018-10-12T13:02:18.000Z</time>
      </trkpt>
      <trkpt lat="31.0258350372314453" lon="-6.9599161148071289">
        <ele>1210.0</ele>
        <time>2018-10-12T13:02:19.000Z</time>
      </trkpt>
      <trkpt lat="31.0258712768554688" lon="-6.9599390029907227">
        <ele>1210.0</ele>
        <time>2018-10-12T13:02:20.000Z</time>
      </trkpt>
      <trkpt lat="31.0259075164794922" lon="-6.9599618911743164">
        <ele>1210.0</ele>
        <time>2018-10-12T13:02:21.000Z</time>
      </trkpt>
      <trkpt lat="31.0259437561035156" lon="-6.9599862098693848">
        <ele>1210.0</ele>
        <time>2018-10-12T13:02:22.000Z</time>
      </trkpt>
      <trkpt lat="31.0259780883789062" lon="-6.9600110054016113">
        <ele>1210.0</ele>
        <time>2018-10-12T13:02:23.000Z</time>
      </trkpt>
      <trkpt lat="31.0260143280029297" lon="-6.9600348472595215">
        <ele>1210.0</ele>
        <time>2018-10-12T13:02:24.000Z</time>
      </trkpt>
      <trkpt lat="31.0260505676269531" lon="-6.9600601196289062">
        <ele>1210.0</ele>
        <time>2018-10-12T13:02:25.000Z</time>
      </trkpt>
      <trkpt lat="31.0260868072509766" lon="-6.9600849151611328">
        <ele>1210.0</ele>
        <time>2018-10-12T13:02:26.000Z</time>
      </trkpt>
      <trkpt lat="31.0261211395263672" lon="-6.9601101875305176">
        <ele>1210.0</ele>
        <time>2018-10-12T13:02:27.000Z</time>
      </trkpt>
      <trkpt lat="31.0261573791503906" lon="-6.9601349830627441">
        <ele>1210.0</ele>
        <time>2018-10-12T13:02:28.000Z</time>
      </trkpt>
      <trkpt lat="31.0261936187744141" lon="-6.9601597785949707">
        <ele>1210.0</ele>
        <time>2018-10-12T13:02:29.000Z</time>
      </trkpt>
      <trkpt lat="31.0262279510498047" lon="-6.9601850509643555">
        <ele>1210.0</ele>
        <time>2018-10-12T13:02:30.000Z</time>
      </trkpt>
      <trkpt lat="31.0262603759765625" lon="-6.9602108001708984">
        <ele>1210.0</ele>
        <time>2018-10-12T13:02:31.000Z</time>
      </trkpt>
      <trkpt lat="31.0262947082519531" lon="-6.9602351188659668">
        <ele>1210.0</ele>
        <time>2018-10-12T13:02:32.000Z</time>
      </trkpt>
      <trkpt lat="31.0263271331787109" lon="-6.9602599143981934">
        <ele>1210.0</ele>
        <time>2018-10-12T13:02:33.000Z</time>
      </trkpt>
      <trkpt lat="31.0263595581054688" lon="-6.9602851867675781">
        <ele>1210.0</ele>
        <time>2018-10-12T13:02:34.000Z</time>
      </trkpt>
      <trkpt lat="31.0263919830322266" lon="-6.9603118896484375">
        <ele>1210.0</ele>
        <time>2018-10-12T13:02:35.000Z</time>
      </trkpt>
      <trkpt lat="31.0264225006103516" lon="-6.9603400230407715">
        <ele>1210.0</ele>
        <time>2018-10-12T13:02:36.000Z</time>
      </trkpt>
      <trkpt lat="31.0264549255371094" lon="-6.9603700637817383">
        <ele>1210.0</ele>
        <time>2018-10-12T13:02:37.000Z</time>
      </trkpt>
      <trkpt lat="31.0264854431152344" lon="-6.9603991508483887">
        <ele>1210.0</ele>
        <time>2018-10-12T13:02:38.000Z</time>
      </trkpt>
      <trkpt lat="31.0265140533447266" lon="-6.9604282379150391">
        <ele>1210.0</ele>
        <time>2018-10-12T13:02:39.000Z</time>
      </trkpt>
      <trkpt lat="31.0265445709228516" lon="-6.9604592323303223">
        <ele>1210.0</ele>
        <time>2018-10-12T13:02:40.000Z</time>
      </trkpt>
      <trkpt lat="31.0265731811523438" lon="-6.9604902267456055">
        <ele>1210.0</ele>
        <time>2018-10-12T13:02:41.000Z</time>
      </trkpt>
      <trkpt lat="31.0266017913818359" lon="-6.9605221748352051">
        <ele>1210.0</ele>
        <time>2018-10-12T13:02:42.000Z</time>
      </trkpt>
      <trkpt lat="31.0266284942626953" lon="-6.9605541229248047">
        <ele>1210.0</ele>
        <time>2018-10-12T13:02:43.000Z</time>
      </trkpt>
      <trkpt lat="31.0266551971435547" lon="-6.9605870246887207">
        <ele>1210.0</ele>
        <time>2018-10-12T13:02:44.000Z</time>
      </trkpt>
      <trkpt lat="31.0266838073730469" lon="-6.9606208801269531">
        <ele>1210.0</ele>
        <time>2018-10-12T13:02:45.000Z</time>
      </trkpt>
      <trkpt lat="31.0267086029052734" lon="-6.9606552124023438">
        <ele>1210.0</ele>
        <time>2018-10-12T13:02:46.000Z</time>
      </trkpt>
      <trkpt lat="31.0267333984375000" lon="-6.9606909751892090">
        <ele>1210.0</ele>
        <time>2018-10-12T13:02:47.000Z</time>
      </trkpt>
      <trkpt lat="31.0267543792724609" lon="-6.9607272148132324">
        <ele>1210.0</ele>
        <time>2018-10-12T13:02:48.000Z</time>
      </trkpt>
      <trkpt lat="31.0267791748046875" lon="-6.9607620239257812">
        <ele>1210.0</ele>
        <time>2018-10-12T13:02:49.000Z</time>
      </trkpt>
      <trkpt lat="31.0268039703369141" lon="-6.9607958793640137">
        <ele>1210.821044921875</ele>
        <time>2018-10-12T13:02:50.000Z</time>
      </trkpt>
      <trkpt lat="31.0268287658691406" lon="-6.9608302116394043">
        <ele>1211.0</ele>
        <time>2018-10-12T13:02:51.000Z</time>
      </trkpt>
      <trkpt lat="31.0268535614013672" lon="-6.9608650207519531">
        <ele>1211.0</ele>
        <time>2018-10-12T13:02:52.000Z</time>
      </trkpt>
      <trkpt lat="31.0268802642822266" lon="-6.9609007835388184">
        <ele>1211.0</ele>
        <time>2018-10-12T13:02:53.000Z</time>
      </trkpt>
      <trkpt lat="31.0269069671630859" lon="-6.9609370231628418">
        <ele>1211.0</ele>
        <time>2018-10-12T13:02:54.000Z</time>
      </trkpt>
      <trkpt lat="31.0269355773925781" lon="-6.9609727859497070">
        <ele>1211.0</ele>
        <time>2018-10-12T13:02:55.000Z</time>
      </trkpt>
      <trkpt lat="31.0269622802734375" lon="-6.9610090255737305">
        <ele>1211.0</ele>
        <time>2018-10-12T13:02:56.000Z</time>
      </trkpt>
      <trkpt lat="31.0269908905029297" lon="-6.9610428810119629">
        <ele>1211.0</ele>
        <time>2018-10-12T13:02:57.000Z</time>
      </trkpt>
      <trkpt lat="31.0270195007324219" lon="-6.9610738754272461">
        <ele>1211.0</ele>
        <time>2018-10-12T13:02:58.000Z</time>
      </trkpt>
      <trkpt lat="31.0270481109619141" lon="-6.9611029624938965">
        <ele>1211.0</ele>
        <time>2018-10-12T13:02:59.000Z</time>
      </trkpt>
      <trkpt lat="31.0270805358886719" lon="-6.9611320495605469">
        <ele>1211.0</ele>
        <time>2018-10-12T13:03:00.000Z</time>
      </trkpt>
      <trkpt lat="31.0271091461181641" lon="-6.9611611366271973">
        <ele>1211.0</ele>
        <time>2018-10-12T13:03:01.000Z</time>
      </trkpt>
      <trkpt lat="31.0271396636962891" lon="-6.9611902236938477">
        <ele>1211.0</ele>
        <time>2018-10-12T13:03:02.000Z</time>
      </trkpt>
      <trkpt lat="31.0271644592285156" lon="-6.9612178802490234">
        <ele>1211.0</ele>
        <time>2018-10-12T13:03:03.000Z</time>
      </trkpt>
      <trkpt lat="31.0271892547607422" lon="-6.9612450599670410">
        <ele>1211.0</ele>
        <time>2018-10-12T13:03:04.000Z</time>
      </trkpt>
      <trkpt lat="31.0272140502929688" lon="-6.9612698554992676">
        <ele>1211.0</ele>
        <time>2018-10-12T13:03:05.000Z</time>
      </trkpt>
      <trkpt lat="31.0272426605224609" lon="-6.9612932205200195">
        <ele>1211.0</ele>
        <time>2018-10-12T13:03:06.000Z</time>
      </trkpt>
      <trkpt lat="31.0272674560546875" lon="-6.9613142013549805">
        <ele>1211.0</ele>
        <time>2018-10-12T13:03:07.000Z</time>
      </trkpt>
      <trkpt lat="31.0272903442382812" lon="-6.9613361358642578">
        <ele>1211.0</ele>
        <time>2018-10-12T13:03:08.000Z</time>
      </trkpt>
      <trkpt lat="31.0273094177246094" lon="-6.9613590240478516">
        <ele>1211.0</ele>
        <time>2018-10-12T13:03:09.000Z</time>
      </trkpt>
      <trkpt lat="31.0273265838623047" lon="-6.9613819122314453">
        <ele>1211.0</ele>
        <time>2018-10-12T13:03:10.000Z</time>
      </trkpt>
      <trkpt lat="31.0273475646972656" lon="-6.9614019393920898">
        <ele>1211.0</ele>
        <time>2018-10-12T13:03:11.000Z</time>
      </trkpt>
      <trkpt lat="31.0273723602294922" lon="-6.9614210128784180">
        <ele>1211.0</ele>
        <time>2018-10-12T13:03:12.000Z</time>
      </trkpt>
      <trkpt lat="31.0274009704589844" lon="-6.9614419937133789">
        <ele>1211.0</ele>
        <time>2018-10-12T13:03:13.000Z</time>
      </trkpt>
      <trkpt lat="31.0274314880371094" lon="-6.9614648818969727">
        <ele>1211.0</ele>
        <time>2018-10-12T13:03:14.000Z</time>
      </trkpt>
      <trkpt lat="31.0274639129638672" lon="-6.9614868164062500">
        <ele>1211.0</ele>
        <time>2018-10-12T13:03:15.000Z</time>
      </trkpt>
      <trkpt lat="31.0274944305419922" lon="-6.9615101814270020">
        <ele>1211.0</ele>
        <time>2018-10-12T13:03:16.000Z</time>
      </trkpt>
      <trkpt lat="31.0275268554687500" lon="-6.9615340232849121">
        <ele>1211.0</ele>
        <time>2018-10-12T13:03:17.000Z</time>
      </trkpt>
      <trkpt lat="31.0275592803955078" lon="-6.9615578651428223">
        <ele>1211.0</ele>
        <time>2018-10-12T13:03:18.000Z</time>
      </trkpt>
      <trkpt lat="31.0275936126708984" lon="-6.9615812301635742">
        <ele>1211.0</ele>
        <time>2018-10-12T13:03:19.000Z</time>
      </trkpt>
      <trkpt lat="31.0276279449462891" lon="-6.9616041183471680">
        <ele>1211.0</ele>
        <time>2018-10-12T13:03:20.000Z</time>
      </trkpt>
      <trkpt lat="31.0276622772216797" lon="-6.9616270065307617">
        <ele>1211.0</ele>
        <time>2018-10-12T13:03:21.000Z</time>
      </trkpt>
      <trkpt lat="31.0276966094970703" lon="-6.9616498947143555">
        <ele>1211.0</ele>
        <time>2018-10-12T13:03:22.000Z</time>
      </trkpt>
      <trkpt lat="31.0277309417724609" lon="-6.9616718292236328">
        <ele>1211.0</ele>
        <time>2018-10-12T13:03:23.000Z</time>
      </trkpt>
      <trkpt lat="31.0277671813964844" lon="-6.9616918563842773">
        <ele>1211.0</ele>
        <time>2018-10-12T13:03:24.000Z</time>
      </trkpt>
      <trkpt lat="31.0278015136718750" lon="-6.9617118835449219">
        <ele>1211.0</ele>
        <time>2018-10-12T13:03:25.000Z</time>
      </trkpt>
      <trkpt lat="31.0278396606445312" lon="-6.9617300033569336">
        <ele>1211.0</ele>
        <time>2018-10-12T13:03:26.000Z</time>
      </trkpt>
      <trkpt lat="31.0278778076171875" lon="-6.9617462158203125">
        <ele>1211.0</ele>
        <time>2018-10-12T13:03:27.000Z</time>
      </trkpt>
      <trkpt lat="31.0279140472412109" lon="-6.9617609977722168">
        <ele>1211.0</ele>
        <time>2018-10-12T13:03:28.000Z</time>
      </trkpt>
      <trkpt lat="31.0279541015625000" lon="-6.9617757797241211">
        <ele>1211.0</ele>
        <time>2018-10-12T13:03:29.000Z</time>
      </trkpt>
      <trkpt lat="31.0279922485351562" lon="-6.9617900848388672">
        <ele>1211.0</ele>
        <time>2018-10-12T13:03:30.000Z</time>
      </trkpt>
      <trkpt lat="31.0280323028564453" lon="-6.9618039131164551">
        <ele>1211.0</ele>
        <time>2018-10-12T13:03:31.000Z</time>
      </trkpt>
      <trkpt lat="31.0280723571777344" lon="-6.9618182182312012">
        <ele>1211.0</ele>
        <time>2018-10-12T13:03:32.000Z</time>
      </trkpt>
      <trkpt lat="31.0281143188476562" lon="-6.9618301391601562">
        <ele>1211.0</ele>
        <time>2018-10-12T13:03:33.000Z</time>
      </trkpt>
      <trkpt lat="31.0281562805175781" lon="-6.9618411064147949">
        <ele>1211.0</ele>
        <time>2018-10-12T13:03:34.000Z</time>
      </trkpt>
      <trkpt lat="31.0281982421875000" lon="-6.9618520736694336">
        <ele>1211.0</ele>
        <time>2018-10-12T13:03:35.000Z</time>
      </trkpt>
      <trkpt lat="31.0282382965087891" lon="-6.9618630409240723">
        <ele>1211.0</ele>
        <time>2018-10-12T13:03:36.000Z</time>
      </trkpt>
      <trkpt lat="31.0282783508300781" lon="-6.9618711471557617">
        <ele>1211.0</ele>
        <time>2018-10-12T13:03:37.000Z</time>
      </trkpt>
      <trkpt lat="31.0283184051513672" lon="-6.9618802070617676">
        <ele>1211.0</ele>
        <time>2018-10-12T13:03:38.000Z</time>
      </trkpt>
      <trkpt lat="31.0283565521240234" lon="-6.9618921279907227">
        <ele>1211.0</ele>
        <time>2018-10-12T13:03:39.000Z</time>
      </trkpt>
      <trkpt lat="31.0283908843994141" lon="-6.9619050025939941">
        <ele>1211.0</ele>
        <time>2018-10-12T13:03:40.000Z</time>
      </trkpt>
      <trkpt lat="31.0284271240234375" lon="-6.9619197845458984">
        <ele>1211.0</ele>
        <time>2018-10-12T13:03:41.000Z</time>
      </trkpt>
      <trkpt lat="31.0284652709960938" lon="-6.9619369506835938">
        <ele>1211.7366943359375</ele>
        <time>2018-10-12T13:03:42.000Z</time>
      </trkpt>
      <trkpt lat="31.0285034179687500" lon="-6.9619560241699219">
        <ele>1212.0</ele>
        <time>2018-10-12T13:03:43.000Z</time>
      </trkpt>
      <trkpt lat="31.0285434722900391" lon="-6.9619750976562500">
        <ele>1212.0</ele>
        <time>2018-10-12T13:03:44.000Z</time>
      </trkpt>
      <trkpt lat="31.0285835266113281" lon="-6.9619941711425781">
        <ele>1212.0</ele>
        <time>2018-10-12T13:03:45.000Z</time>
      </trkpt>
      <trkpt lat="31.0286254882812500" lon="-6.9620127677917480">
        <ele>1212.0</ele>
        <time>2018-10-12T13:03:46.000Z</time>
      </trkpt>
      <trkpt lat="31.0286655426025391" lon="-6.9620342254638672">
        <ele>1212.0</ele>
        <time>2018-10-12T13:03:47.000Z</time>
      </trkpt>
      <trkpt lat="31.0287055969238281" lon="-6.9620561599731445">
        <ele>1212.0</ele>
        <time>2018-10-12T13:03:48.000Z</time>
      </trkpt>
      <trkpt lat="31.0287437438964844" lon="-6.9620790481567383">
        <ele>1212.0</ele>
        <time>2018-10-12T13:03:49.000Z</time>
      </trkpt>
      <trkpt lat="31.0287818908691406" lon="-6.9621038436889648">
        <ele>1212.0</ele>
        <time>2018-10-12T13:03:50.000Z</time>
      </trkpt>
      <trkpt lat="31.0288219451904297" lon="-6.9621300697326660">
        <ele>1212.0</ele>
        <time>2018-10-12T13:03:51.000Z</time>
      </trkpt>
      <trkpt lat="31.0288581848144531" lon="-6.9621567726135254">
        <ele>1212.0</ele>
        <time>2018-10-12T13:03:52.000Z</time>
      </trkpt>
      <trkpt lat="31.0288944244384766" lon="-6.9621849060058594">
        <ele>1212.0</ele>
        <time>2018-10-12T13:03:53.000Z</time>
      </trkpt>
      <trkpt lat="31.0289325714111328" lon="-6.9622139930725098">
        <ele>1212.0</ele>
        <time>2018-10-12T13:03:54.000Z</time>
      </trkpt>
      <trkpt lat="31.0289688110351562" lon="-6.9622430801391602">
        <ele>1212.0</ele>
        <time>2018-10-12T13:03:55.000Z</time>
      </trkpt>
      <trkpt lat="31.0290031433105469" lon="-6.9622750282287598">
        <ele>1212.0</ele>
        <time>2018-10-12T13:03:56.000Z</time>
      </trkpt>
      <trkpt lat="31.0290374755859375" lon="-6.9623079299926758">
        <ele>1212.0</ele>
        <time>2018-10-12T13:03:57.000Z</time>
      </trkpt>
      <trkpt lat="31.0290718078613281" lon="-6.9623417854309082">
        <ele>1212.0</ele>
        <time>2018-10-12T13:03:58.000Z</time>
      </trkpt>
      <trkpt lat="31.0291042327880859" lon="-6.9623742103576660">
        <ele>1212.0</ele>
        <time>2018-10-12T13:03:59.000Z</time>
      </trkpt>
      <trkpt lat="31.0291385650634766" lon="-6.9624061584472656">
        <ele>1212.0</ele>
        <time>2018-10-12T13:04:00.000Z</time>
      </trkpt>
      <trkpt lat="31.0291690826416016" lon="-6.9624371528625488">
        <ele>1212.0</ele>
        <time>2018-10-12T13:04:01.000Z</time>
      </trkpt>
      <trkpt lat="31.0291996002197266" lon="-6.9624671936035156">
        <ele>1212.0</ele>
        <time>2018-10-12T13:04:02.000Z</time>
      </trkpt>
      <trkpt lat="31.0292301177978516" lon="-6.9624958038330078">
        <ele>1212.0</ele>
        <time>2018-10-12T13:04:03.000Z</time>
      </trkpt>
      <trkpt lat="31.0292606353759766" lon="-6.9625248908996582">
        <ele>1212.0</ele>
        <time>2018-10-12T13:04:04.000Z</time>
      </trkpt>
      <trkpt lat="31.0292911529541016" lon="-6.9625539779663086">
        <ele>1212.0</ele>
        <time>2018-10-12T13:04:05.000Z</time>
      </trkpt>
      <trkpt lat="31.0293235778808594" lon="-6.9625821113586426">
        <ele>1212.0</ele>
        <time>2018-10-12T13:04:06.000Z</time>
      </trkpt>
      <trkpt lat="31.0293560028076172" lon="-6.9626097679138184">
        <ele>1212.0</ele>
        <time>2018-10-12T13:04:07.000Z</time>
      </trkpt>
      <trkpt lat="31.0293884277343750" lon="-6.9626379013061523">
        <ele>1212.0</ele>
        <time>2018-10-12T13:04:08.000Z</time>
      </trkpt>
      <trkpt lat="31.0294208526611328" lon="-6.9626669883728027">
        <ele>1212.0</ele>
        <time>2018-10-12T13:04:09.000Z</time>
      </trkpt>
      <trkpt lat="31.0294532775878906" lon="-6.9626960754394531">
        <ele>1212.0</ele>
        <time>2018-10-12T13:04:10.000Z</time>
      </trkpt>
      <trkpt lat="31.0294857025146484" lon="-6.9627251625061035">
        <ele>1212.0</ele>
        <time>2018-10-12T13:04:11.000Z</time>
      </trkpt>
      <trkpt lat="31.0295181274414062" lon="-6.9627552032470703">
        <ele>1212.0</ele>
        <time>2018-10-12T13:04:12.000Z</time>
      </trkpt>
      <trkpt lat="31.0295524597167969" lon="-6.9627847671508789">
        <ele>1212.0</ele>
        <time>2018-10-12T13:04:13.000Z</time>
      </trkpt>
      <trkpt lat="31.0295867919921875" lon="-6.9628148078918457">
        <ele>1212.0</ele>
        <time>2018-10-12T13:04:14.000Z</time>
      </trkpt>
      <trkpt lat="31.0296192169189453" lon="-6.9628458023071289">
        <ele>1212.0</ele>
        <time>2018-10-12T13:04:15.000Z</time>
      </trkpt>
      <trkpt lat="31.0296535491943359" lon="-6.9628782272338867">
        <ele>1212.0</ele>
        <time>2018-10-12T13:04:16.000Z</time>
      </trkpt>
      <trkpt lat="31.0296859741210938" lon="-6.9629092216491699">
        <ele>1212.0</ele>
        <time>2018-10-12T13:04:17.000Z</time>
      </trkpt>
      <trkpt lat="31.0297183990478516" lon="-6.9629387855529785">
        <ele>1212.0</ele>
        <time>2018-10-12T13:04:18.000Z</time>
      </trkpt>
      <trkpt lat="31.0297508239746094" lon="-6.9629697799682617">
        <ele>1212.0</ele>
        <time>2018-10-12T13:04:19.000Z</time>
      </trkpt>
      <trkpt lat="31.0297813415527344" lon="-6.9630007743835449">
        <ele>1212.0</ele>
        <time>2018-10-12T13:04:20.000Z</time>
      </trkpt>
      <trkpt lat="31.0298118591308594" lon="-6.9630341529846191">
        <ele>1212.0</ele>
        <time>2018-10-12T13:04:21.000Z</time>
      </trkpt>
      <trkpt lat="31.0298404693603516" lon="-6.9630680084228516">
        <ele>1212.0</ele>
        <time>2018-10-12T13:04:22.000Z</time>
      </trkpt>
      <trkpt lat="31.0298728942871094" lon="-6.9631009101867676">
        <ele>1212.8192138671875</ele>
        <time>2018-10-12T13:04:23.000Z</time>
      </trkpt>
      <trkpt lat="31.0299015045166016" lon="-6.9631319046020508">
        <ele>1213.0</ele>
        <time>2018-10-12T13:04:24.000Z</time>
      </trkpt>
      <trkpt lat="31.0299301147460938" lon="-6.9631619453430176">
        <ele>1213.0</ele>
        <time>2018-10-12T13:04:25.000Z</time>
      </trkpt>
      <trkpt lat="31.0299587249755859" lon="-6.9631919860839844">
        <ele>1213.0</ele>
        <time>2018-10-12T13:04:26.000Z</time>
      </trkpt>
      <trkpt lat="31.0299873352050781" lon="-6.9632220268249512">
        <ele>1213.0</ele>
        <time>2018-10-12T13:04:27.000Z</time>
      </trkpt>
      <trkpt lat="31.0300178527832031" lon="-6.9632511138916016">
        <ele>1213.0</ele>
        <time>2018-10-12T13:04:28.000Z</time>
      </trkpt>
      <trkpt lat="31.0300464630126953" lon="-6.9632811546325684">
        <ele>1213.0</ele>
        <time>2018-10-12T13:04:29.000Z</time>
      </trkpt>
      <trkpt lat="31.0300731658935547" lon="-6.9633131027221680">
        <ele>1213.0</ele>
        <time>2018-10-12T13:04:30.000Z</time>
      </trkpt>
      <trkpt lat="31.0301036834716797" lon="-6.9633450508117676">
        <ele>1213.821044921875</ele>
        <time>2018-10-12T13:04:31.000Z</time>
      </trkpt>
      <trkpt lat="31.0301322937011719" lon="-6.9633779525756836">
        <ele>1214.0</ele>
        <time>2018-10-12T13:04:32.000Z</time>
      </trkpt>
      <trkpt lat="31.0301628112792969" lon="-6.9634108543395996">
        <ele>1214.0</ele>
        <time>2018-10-12T13:04:33.000Z</time>
      </trkpt>
      <trkpt lat="31.0301933288574219" lon="-6.9634442329406738">
        <ele>1213.178955078125</ele>
        <time>2018-10-12T13:04:34.000Z</time>
      </trkpt>
      <trkpt lat="31.0302238464355469" lon="-6.9634771347045898">
        <ele>1213.0</ele>
        <time>2018-10-12T13:04:35.000Z</time>
      </trkpt>
      <trkpt lat="31.0302543640136719" lon="-6.9635100364685059">
        <ele>1213.0</ele>
        <time>2018-10-12T13:04:36.000Z</time>
      </trkpt>
      <trkpt lat="31.0302867889404297" lon="-6.9635410308837891">
        <ele>1213.0</ele>
        <time>2018-10-12T13:04:37.000Z</time>
      </trkpt>
      <trkpt lat="31.0303173065185547" lon="-6.9635729789733887">
        <ele>1213.0</ele>
        <time>2018-10-12T13:04:38.000Z</time>
      </trkpt>
      <trkpt lat="31.0303478240966797" lon="-6.9636049270629883">
        <ele>1213.0</ele>
        <time>2018-10-12T13:04:39.000Z</time>
      </trkpt>
      <trkpt lat="31.0303764343261719" lon="-6.9636368751525879">
        <ele>1213.0</ele>
        <time>2018-10-12T13:04:40.000Z</time>
      </trkpt>
      <trkpt lat="31.0304031372070312" lon="-6.9636688232421875">
        <ele>1213.0</ele>
        <time>2018-10-12T13:04:41.000Z</time>
      </trkpt>
      <trkpt lat="31.0304336547851562" lon="-6.9637007713317871">
        <ele>1213.7406005859375</ele>
        <time>2018-10-12T13:04:42.000Z</time>
      </trkpt>
      <trkpt lat="31.0304603576660156" lon="-6.9637331962585449">
        <ele>1214.0</ele>
        <time>2018-10-12T13:04:43.000Z</time>
      </trkpt>
      <trkpt lat="31.0304908752441406" lon="-6.9637651443481445">
        <ele>1214.0</ele>
        <time>2018-10-12T13:04:44.000Z</time>
      </trkpt>
      <trkpt lat="31.0305213928222656" lon="-6.9637961387634277">
        <ele>1214.0</ele>
        <time>2018-10-12T13:04:45.000Z</time>
      </trkpt>
      <trkpt lat="31.0305538177490234" lon="-6.9638261795043945">
        <ele>1214.0</ele>
        <time>2018-10-12T13:04:46.000Z</time>
      </trkpt>
      <trkpt lat="31.0305862426757812" lon="-6.9638571739196777">
        <ele>1214.0</ele>
        <time>2018-10-12T13:04:47.000Z</time>
      </trkpt>
      <trkpt lat="31.0306205749511719" lon="-6.9638872146606445">
        <ele>1214.821044921875</ele>
        <time>2018-10-12T13:04:48.000Z</time>
      </trkpt>
      <trkpt lat="31.0306549072265625" lon="-6.9639158248901367">
        <ele>1215.0</ele>
        <time>2018-10-12T13:04:49.000Z</time>
      </trkpt>
      <trkpt lat="31.0306892395019531" lon="-6.9639449119567871">
        <ele>1215.0</ele>
        <time>2018-10-12T13:04:50.000Z</time>
      </trkpt>
      <trkpt lat="31.0307235717773438" lon="-6.9639749526977539">
        <ele>1215.0</ele>
        <time>2018-10-12T13:04:51.000Z</time>
      </trkpt>
      <trkpt lat="31.0307579040527344" lon="-6.9640040397644043">
        <ele>1214.178955078125</ele>
        <time>2018-10-12T13:04:52.000Z</time>
      </trkpt>
      <trkpt lat="31.0307903289794922" lon="-6.9640340805053711">
        <ele>1214.0</ele>
        <time>2018-10-12T13:04:53.000Z</time>
      </trkpt>
      <trkpt lat="31.0308227539062500" lon="-6.9640631675720215">
        <ele>1214.0</ele>
        <time>2018-10-12T13:04:54.000Z</time>
      </trkpt>
      <trkpt lat="31.0308513641357422" lon="-6.9640932083129883">
        <ele>1214.0</ele>
        <time>2018-10-12T13:04:55.000Z</time>
      </trkpt>
      <trkpt lat="31.0308818817138672" lon="-6.9641218185424805">
        <ele>1214.0</ele>
        <time>2018-10-12T13:04:56.000Z</time>
      </trkpt>
      <trkpt lat="31.0309085845947266" lon="-6.9641470909118652">
        <ele>1214.0</ele>
        <time>2018-10-12T13:04:57.000Z</time>
      </trkpt>
      <trkpt lat="31.0309352874755859" lon="-6.9641709327697754">
        <ele>1214.0</ele>
        <time>2018-10-12T13:04:58.000Z</time>
      </trkpt>
      <trkpt lat="31.0309600830078125" lon="-6.9641928672790527">
        <ele>1214.0</ele>
        <time>2018-10-12T13:04:59.000Z</time>
      </trkpt>
      <trkpt lat="31.0309810638427734" lon="-6.9642148017883301">
        <ele>1214.821044921875</ele>
        <time>2018-10-12T13:05:00.000Z</time>
      </trkpt>
      <trkpt lat="31.0310039520263672" lon="-6.9642357826232910">
        <ele>1215.0</ele>
        <time>2018-10-12T13:05:01.000Z</time>
      </trkpt>
      <trkpt lat="31.0310249328613281" lon="-6.9642591476440430">
        <ele>1215.0</ele>
        <time>2018-10-12T13:05:02.000Z</time>
      </trkpt>
      <trkpt lat="31.0310478210449219" lon="-6.9642848968505859">
        <ele>1215.0</ele>
        <time>2018-10-12T13:05:03.000Z</time>
      </trkpt>
      <trkpt lat="31.0310745239257812" lon="-6.9643149375915527">
        <ele>1215.0</ele>
        <time>2018-10-12T13:05:04.000Z</time>
      </trkpt>
      <trkpt lat="31.0311050415039062" lon="-6.9643459320068359">
        <ele>1215.0</ele>
        <time>2018-10-12T13:05:05.000Z</time>
      </trkpt>
      <trkpt lat="31.0311355590820312" lon="-6.9643769264221191">
        <ele>1215.0</ele>
        <time>2018-10-12T13:05:06.000Z</time>
      </trkpt>
      <trkpt lat="31.0311622619628906" lon="-6.9644069671630859">
        <ele>1215.0</ele>
        <time>2018-10-12T13:05:07.000Z</time>
      </trkpt>
      <trkpt lat="31.0311908721923828" lon="-6.9644360542297363">
        <ele>1215.0</ele>
        <time>2018-10-12T13:05:08.000Z</time>
      </trkpt>
      <trkpt lat="31.0312156677246094" lon="-6.9644632339477539">
        <ele>1215.0</ele>
        <time>2018-10-12T13:05:09.000Z</time>
      </trkpt>
      <trkpt lat="31.0312423706054688" lon="-6.9644918441772461">
        <ele>1215.0</ele>
        <time>2018-10-12T13:05:10.000Z</time>
      </trkpt>
      <trkpt lat="31.0312709808349609" lon="-6.9645218849182129">
        <ele>1215.0</ele>
        <time>2018-10-12T13:05:11.000Z</time>
      </trkpt>
      <trkpt lat="31.0313014984130859" lon="-6.9645528793334961">
        <ele>1215.0</ele>
        <time>2018-10-12T13:05:12.000Z</time>
      </trkpt>
      <trkpt lat="31.0313339233398438" lon="-6.9645838737487793">
        <ele>1215.0</ele>
        <time>2018-10-12T13:05:13.000Z</time>
      </trkpt>
      <trkpt lat="31.0313606262207031" lon="-6.9646139144897461">
        <ele>1215.0</ele>
        <time>2018-10-12T13:05:14.000Z</time>
      </trkpt>
      <trkpt lat="31.0313873291015625" lon="-6.9646430015563965">
        <ele>1215.0</ele>
        <time>2018-10-12T13:05:15.000Z</time>
      </trkpt>
      <trkpt lat="31.0314140319824219" lon="-6.9646677970886230">
        <ele>1215.821044921875</ele>
        <time>2018-10-12T13:05:16.000Z</time>
      </trkpt>
      <trkpt lat="31.0314426422119141" lon="-6.9646930694580078">
        <ele>1216.0</ele>
        <time>2018-10-12T13:05:17.000Z</time>
      </trkpt>
      <trkpt lat="31.0314693450927734" lon="-6.9647212028503418">
        <ele>1216.0</ele>
        <time>2018-10-12T13:05:18.000Z</time>
      </trkpt>
      <trkpt lat="31.0314998626708984" lon="-6.9647521972656250">
        <ele>1216.0</ele>
        <time>2018-10-12T13:05:19.000Z</time>
      </trkpt>
      <trkpt lat="31.0315322875976562" lon="-6.9647860527038574">
        <ele>1216.0</ele>
        <time>2018-10-12T13:05:20.000Z</time>
      </trkpt>
      <trkpt lat="31.0315647125244141" lon="-6.9648180007934570">
        <ele>1216.0</ele>
        <time>2018-10-12T13:05:21.000Z</time>
      </trkpt>
      <trkpt lat="31.0315933227539062" lon="-6.9648470878601074">
        <ele>1216.0</ele>
        <time>2018-10-12T13:05:22.000Z</time>
      </trkpt>
      <trkpt lat="31.0316238403320312" lon="-6.9648737907409668">
        <ele>1216.0</ele>
        <time>2018-10-12T13:05:23.000Z</time>
      </trkpt>
      <trkpt lat="31.0316505432128906" lon="-6.9649000167846680">
        <ele>1216.0</ele>
        <time>2018-10-12T13:05:24.000Z</time>
      </trkpt>
      <trkpt lat="31.0316753387451172" lon="-6.9649257659912109">
        <ele>1216.0</ele>
        <time>2018-10-12T13:05:25.000Z</time>
      </trkpt>
      <trkpt lat="31.0317020416259766" lon="-6.9649519920349121">
        <ele>1216.0</ele>
        <time>2018-10-12T13:05:26.000Z</time>
      </trkpt>
      <trkpt lat="31.0317287445068359" lon="-6.9649782180786133">
        <ele>1216.0</ele>
        <time>2018-10-12T13:05:27.000Z</time>
      </trkpt>
      <trkpt lat="31.0317554473876953" lon="-6.9650049209594727">
        <ele>1216.0</ele>
        <time>2018-10-12T13:05:28.000Z</time>
      </trkpt>
      <trkpt lat="31.0317840576171875" lon="-6.9650321006774902">
        <ele>1216.0</ele>
        <time>2018-10-12T13:05:29.000Z</time>
      </trkpt>
      <trkpt lat="31.0318145751953125" lon="-6.9650588035583496">
        <ele>1216.0</ele>
        <time>2018-10-12T13:05:30.000Z</time>
      </trkpt>
      <trkpt lat="31.0318470001220703" lon="-6.9650859832763672">
        <ele>1216.0</ele>
        <time>2018-10-12T13:05:31.000Z</time>
      </trkpt>
      <trkpt lat="31.0318775177001953" lon="-6.9651141166687012">
        <ele>1216.0</ele>
        <time>2018-10-12T13:05:32.000Z</time>
      </trkpt>
      <trkpt lat="31.0319099426269531" lon="-6.9651417732238770">
        <ele>1216.0</ele>
        <time>2018-10-12T13:05:33.000Z</time>
      </trkpt>
      <trkpt lat="31.0319423675537109" lon="-6.9651699066162109">
        <ele>1216.0</ele>
        <time>2018-10-12T13:05:34.000Z</time>
      </trkpt>
      <trkpt lat="31.0319728851318359" lon="-6.9651989936828613">
        <ele>1216.0</ele>
        <time>2018-10-12T13:05:35.000Z</time>
      </trkpt>
      <trkpt lat="31.0320053100585938" lon="-6.9652261734008789">
        <ele>1216.0</ele>
        <time>2018-10-12T13:05:36.000Z</time>
      </trkpt>
      <trkpt lat="31.0320358276367188" lon="-6.9652538299560547">
        <ele>1216.0</ele>
        <time>2018-10-12T13:05:37.000Z</time>
      </trkpt>
      <trkpt lat="31.0320663452148438" lon="-6.9652819633483887">
        <ele>1216.0</ele>
        <time>2018-10-12T13:05:38.000Z</time>
      </trkpt>
      <trkpt lat="31.0320987701416016" lon="-6.9653100967407227">
        <ele>1216.0</ele>
        <time>2018-10-12T13:05:39.000Z</time>
      </trkpt>
      <trkpt lat="31.0321292877197266" lon="-6.9653382301330566">
        <ele>1216.0</ele>
        <time>2018-10-12T13:05:40.000Z</time>
      </trkpt>
      <trkpt lat="31.0321598052978516" lon="-6.9653649330139160">
        <ele>1216.0</ele>
        <time>2018-10-12T13:05:41.000Z</time>
      </trkpt>
      <trkpt lat="31.0321903228759766" lon="-6.9653921127319336">
        <ele>1216.0</ele>
        <time>2018-10-12T13:05:42.000Z</time>
      </trkpt>
      <trkpt lat="31.0322208404541016" lon="-6.9654197692871094">
        <ele>1216.0</ele>
        <time>2018-10-12T13:05:43.000Z</time>
      </trkpt>
      <trkpt lat="31.0322494506835938" lon="-6.9654459953308105">
        <ele>1216.0</ele>
        <time>2018-10-12T13:05:44.000Z</time>
      </trkpt>
      <trkpt lat="31.0322799682617188" lon="-6.9654731750488281">
        <ele>1216.0</ele>
        <time>2018-10-12T13:05:45.000Z</time>
      </trkpt>
      <trkpt lat="31.0323104858398438" lon="-6.9655008316040039">
        <ele>1216.0</ele>
        <time>2018-10-12T13:05:46.000Z</time>
      </trkpt>
      <trkpt lat="31.0323390960693359" lon="-6.9655280113220215">
        <ele>1216.0</ele>
        <time>2018-10-12T13:05:47.000Z</time>
      </trkpt>
      <trkpt lat="31.0323715209960938" lon="-6.9655542373657227">
        <ele>1216.0</ele>
        <time>2018-10-12T13:05:48.000Z</time>
      </trkpt>
      <trkpt lat="31.0324001312255859" lon="-6.9655809402465820">
        <ele>1216.0</ele>
        <time>2018-10-12T13:05:49.000Z</time>
      </trkpt>
      <trkpt lat="31.0324306488037109" lon="-6.9656081199645996">
        <ele>1216.0</ele>
        <time>2018-10-12T13:05:50.000Z</time>
      </trkpt>
      <trkpt lat="31.0324592590332031" lon="-6.9656348228454590">
        <ele>1216.0</ele>
        <time>2018-10-12T13:05:51.000Z</time>
      </trkpt>
      <trkpt lat="31.0324897766113281" lon="-6.9656610488891602">
        <ele>1216.0</ele>
        <time>2018-10-12T13:05:52.000Z</time>
      </trkpt>
      <trkpt lat="31.0325183868408203" lon="-6.9656891822814941">
        <ele>1216.0</ele>
        <time>2018-10-12T13:05:53.000Z</time>
      </trkpt>
      <trkpt lat="31.0325469970703125" lon="-6.9657158851623535">
        <ele>1216.0</ele>
        <time>2018-10-12T13:05:54.000Z</time>
      </trkpt>
      <trkpt lat="31.0325775146484375" lon="-6.9657421112060547">
        <ele>1216.0</ele>
        <time>2018-10-12T13:05:55.000Z</time>
      </trkpt>
      <trkpt lat="31.0326061248779297" lon="-6.9657697677612305">
        <ele>1216.0</ele>
        <time>2018-10-12T13:05:56.000Z</time>
      </trkpt>
      <trkpt lat="31.0326366424560547" lon="-6.9657988548278809">
        <ele>1216.0</ele>
        <time>2018-10-12T13:05:57.000Z</time>
      </trkpt>
      <trkpt lat="31.0326671600341797" lon="-6.9658260345458984">
        <ele>1216.821044921875</ele>
        <time>2018-10-12T13:05:58.000Z</time>
      </trkpt>
      <trkpt lat="31.0326995849609375" lon="-6.9658517837524414">
        <ele>1217.0</ele>
        <time>2018-10-12T13:05:59.000Z</time>
      </trkpt>
      <trkpt lat="31.0327301025390625" lon="-6.9658789634704590">
        <ele>1217.0</ele>
        <time>2018-10-12T13:06:00.000Z</time>
      </trkpt>
      <trkpt lat="31.0327644348144531" lon="-6.9659070968627930">
        <ele>1217.0</ele>
        <time>2018-10-12T13:06:01.000Z</time>
      </trkpt>
      <trkpt lat="31.0327968597412109" lon="-6.9659352302551270">
        <ele>1217.0</ele>
        <time>2018-10-12T13:06:02.000Z</time>
      </trkpt>
      <trkpt lat="31.0328292846679688" lon="-6.9659628868103027">
        <ele>1217.0</ele>
        <time>2018-10-12T13:06:03.000Z</time>
      </trkpt>
      <trkpt lat="31.0328598022460938" lon="-6.9659919738769531">
        <ele>1217.0</ele>
        <time>2018-10-12T13:06:04.000Z</time>
      </trkpt>
      <trkpt lat="31.0328903198242188" lon="-6.9660201072692871">
        <ele>1217.0</ele>
        <time>2018-10-12T13:06:05.000Z</time>
      </trkpt>
      <trkpt lat="31.0329227447509766" lon="-6.9660491943359375">
        <ele>1217.0</ele>
        <time>2018-10-12T13:06:06.000Z</time>
      </trkpt>
      <trkpt lat="31.0329532623291016" lon="-6.9660792350769043">
        <ele>1217.0</ele>
        <time>2018-10-12T13:06:07.000Z</time>
      </trkpt>
      <trkpt lat="31.0329818725585938" lon="-6.9661111831665039">
        <ele>1217.821044921875</ele>
        <time>2018-10-12T13:06:08.000Z</time>
      </trkpt>
      <trkpt lat="31.0330123901367188" lon="-6.9661421775817871">
        <ele>1218.0</ele>
        <time>2018-10-12T13:06:09.000Z</time>
      </trkpt>
      <trkpt lat="31.0330410003662109" lon="-6.9661731719970703">
        <ele>1218.0</ele>
        <time>2018-10-12T13:06:10.000Z</time>
      </trkpt>
      <trkpt lat="31.0330696105957031" lon="-6.9662041664123535">
        <ele>1217.178955078125</ele>
        <time>2018-10-12T13:06:11.000Z</time>
      </trkpt>
      <trkpt lat="31.0330982208251953" lon="-6.9662351608276367">
        <ele>1217.0</ele>
        <time>2018-10-12T13:06:12.000Z</time>
      </trkpt>
      <trkpt lat="31.0331268310546875" lon="-6.9662652015686035">
        <ele>1217.0</ele>
        <time>2018-10-12T13:06:13.000Z</time>
      </trkpt>
      <trkpt lat="31.0331554412841797" lon="-6.9662938117980957">
        <ele>1217.0</ele>
        <time>2018-10-12T13:06:14.000Z</time>
      </trkpt>
      <trkpt lat="31.0331840515136719" lon="-6.9663200378417969">
        <ele>1217.0</ele>
        <time>2018-10-12T13:06:15.000Z</time>
      </trkpt>
      <trkpt lat="31.0332145690917969" lon="-6.9663438796997070">
        <ele>1217.821044921875</ele>
        <time>2018-10-12T13:06:16.000Z</time>
      </trkpt>
      <trkpt lat="31.0332450866699219" lon="-6.9663667678833008">
        <ele>1218.0</ele>
        <time>2018-10-12T13:06:17.000Z</time>
      </trkpt>
      <trkpt lat="31.0332775115966797" lon="-6.9663891792297363">
        <ele>1218.0</ele>
        <time>2018-10-12T13:06:18.000Z</time>
      </trkpt>
      <trkpt lat="31.0333080291748047" lon="-6.9664111137390137">
        <ele>1218.0</ele>
        <time>2018-10-12T13:06:19.000Z</time>
      </trkpt>
      <trkpt lat="31.0333385467529297" lon="-6.9664340019226074">
        <ele>1218.0</ele>
        <time>2018-10-12T13:06:20.000Z</time>
      </trkpt>
      <trkpt lat="31.0333709716796875" lon="-6.9664549827575684">
        <ele>1218.0</ele>
        <time>2018-10-12T13:06:21.000Z</time>
      </trkpt>
      <trkpt lat="31.0334053039550781" lon="-6.9664750099182129">
        <ele>1218.0</ele>
        <time>2018-10-12T13:06:22.000Z</time>
      </trkpt>
      <trkpt lat="31.0334415435791016" lon="-6.9664950370788574">
        <ele>1218.0</ele>
        <time>2018-10-12T13:06:23.000Z</time>
      </trkpt>
      <trkpt lat="31.0334758758544922" lon="-6.9665141105651855">
        <ele>1218.0</ele>
        <time>2018-10-12T13:06:24.000Z</time>
      </trkpt>
      <trkpt lat="31.0335102081298828" lon="-6.9665322303771973">
        <ele>1218.0</ele>
        <time>2018-10-12T13:06:25.000Z</time>
      </trkpt>
      <trkpt lat="31.0335445404052734" lon="-6.9665489196777344">
        <ele>1218.0</ele>
        <time>2018-10-12T13:06:26.000Z</time>
      </trkpt>
      <trkpt lat="31.0335807800292969" lon="-6.9665660858154297">
        <ele>1218.0</ele>
        <time>2018-10-12T13:06:27.000Z</time>
      </trkpt>
      <trkpt lat="31.0336132049560547" lon="-6.9665827751159668">
        <ele>1218.821044921875</ele>
        <time>2018-10-12T13:06:28.000Z</time>
      </trkpt>
      <trkpt lat="31.0336475372314453" lon="-6.9665999412536621">
        <ele>1219.0</ele>
        <time>2018-10-12T13:06:29.000Z</time>
      </trkpt>
      <trkpt lat="31.0336742401123047" lon="-6.9666137695312500">
        <ele>1219.821044921875</ele>
        <time>2018-10-12T13:06:30.000Z</time>
      </trkpt>
      <trkpt lat="31.0337009429931641" lon="-6.9666280746459961">
        <ele>1220.0</ele>
        <time>2018-10-12T13:06:31.000Z</time>
      </trkpt>
      <trkpt lat="31.0337257385253906" lon="-6.9666428565979004">
        <ele>1220.0</ele>
        <time>2018-10-12T13:06:32.000Z</time>
      </trkpt>
      <trkpt lat="31.0337524414062500" lon="-6.9666590690612793">
        <ele>1220.0</ele>
        <time>2018-10-12T13:06:33.000Z</time>
      </trkpt>
      <trkpt lat="31.0337791442871094" lon="-6.9666738510131836">
        <ele>1220.0</ele>
        <time>2018-10-12T13:06:34.000Z</time>
      </trkpt>
      <trkpt lat="31.0338077545166016" lon="-6.9666910171508789">
        <ele>1220.0</ele>
        <time>2018-10-12T13:06:35.000Z</time>
      </trkpt>
      <trkpt lat="31.0338382720947266" lon="-6.9667091369628906">
        <ele>1220.0</ele>
        <time>2018-10-12T13:06:36.000Z</time>
      </trkpt>
      <trkpt lat="31.0338687896728516" lon="-6.9667282104492188">
        <ele>1220.0</ele>
        <time>2018-10-12T13:06:37.000Z</time>
      </trkpt>
      <trkpt lat="31.0338993072509766" lon="-6.9667491912841797">
        <ele>1219.178955078125</ele>
        <time>2018-10-12T13:06:38.000Z</time>
      </trkpt>
      <trkpt lat="31.0339298248291016" lon="-6.9667711257934570">
        <ele>1219.0</ele>
        <time>2018-10-12T13:06:39.000Z</time>
      </trkpt>
      <trkpt lat="31.0339603424072266" lon="-6.9667959213256836">
        <ele>1219.0</ele>
        <time>2018-10-12T13:06:40.000Z</time>
      </trkpt>
      <trkpt lat="31.0339908599853516" lon="-6.9668221473693848">
        <ele>1219.4658203125</ele>
        <time>2018-10-12T13:06:41.000Z</time>
      </trkpt>
      <trkpt lat="31.0340194702148438" lon="-6.9668478965759277">
        <ele>1220.0</ele>
        <time>2018-10-12T13:06:42.000Z</time>
      </trkpt>
      <trkpt lat="31.0340480804443359" lon="-6.9668722152709961">
        <ele>1220.0</ele>
        <time>2018-10-12T13:06:43.000Z</time>
      </trkpt>
      <trkpt lat="31.0340747833251953" lon="-6.9668960571289062">
        <ele>1220.821044921875</ele>
        <time>2018-10-12T13:06:44.000Z</time>
      </trkpt>
      <trkpt lat="31.0340995788574219" lon="-6.9669208526611328">
        <ele>1221.0</ele>
        <time>2018-10-12T13:06:45.000Z</time>
      </trkpt>
      <trkpt lat="31.0341243743896484" lon="-6.9669461250305176">
        <ele>1221.0</ele>
        <time>2018-10-12T13:06:46.000Z</time>
      </trkpt>
      <trkpt lat="31.0341491699218750" lon="-6.9669709205627441">
        <ele>1221.0</ele>
        <time>2018-10-12T13:06:47.000Z</time>
      </trkpt>
      <trkpt lat="31.0341720581054688" lon="-6.9669981002807617">
        <ele>1221.0</ele>
        <time>2018-10-12T13:06:48.000Z</time>
      </trkpt>
      <trkpt lat="31.0341968536376953" lon="-6.9670248031616211">
        <ele>1221.0</ele>
        <time>2018-10-12T13:06:49.000Z</time>
      </trkpt>
      <trkpt lat="31.0342235565185547" lon="-6.9670510292053223">
        <ele>1221.0</ele>
        <time>2018-10-12T13:06:50.000Z</time>
      </trkpt>
      <trkpt lat="31.0342502593994141" lon="-6.9670758247375488">
        <ele>1221.0</ele>
        <time>2018-10-12T13:06:51.000Z</time>
      </trkpt>
      <trkpt lat="31.0342788696289062" lon="-6.9671010971069336">
        <ele>1221.0</ele>
        <time>2018-10-12T13:06:52.000Z</time>
      </trkpt>
      <trkpt lat="31.0343074798583984" lon="-6.9671249389648438">
        <ele>1221.0</ele>
        <time>2018-10-12T13:06:53.000Z</time>
      </trkpt>
      <trkpt lat="31.0343360900878906" lon="-6.9671478271484375">
        <ele>1221.0</ele>
        <time>2018-10-12T13:06:54.000Z</time>
      </trkpt>
      <trkpt lat="31.0343666076660156" lon="-6.9671721458435059">
        <ele>1221.0</ele>
        <time>2018-10-12T13:06:55.000Z</time>
      </trkpt>
      <trkpt lat="31.0343952178955078" lon="-6.9671978950500488">
        <ele>1221.0</ele>
        <time>2018-10-12T13:06:56.000Z</time>
      </trkpt>
      <trkpt lat="31.0344238281250000" lon="-6.9672269821166992">
        <ele>1221.0</ele>
        <time>2018-10-12T13:06:57.000Z</time>
      </trkpt>
      <trkpt lat="31.0344524383544922" lon="-6.9672570228576660">
        <ele>1221.0</ele>
        <time>2018-10-12T13:06:58.000Z</time>
      </trkpt>
      <trkpt lat="31.0344772338867188" lon="-6.9672880172729492">
        <ele>1221.0</ele>
        <time>2018-10-12T13:06:59.000Z</time>
      </trkpt>
      <trkpt lat="31.0345039367675781" lon="-6.9673199653625488">
        <ele>1221.0</ele>
        <time>2018-10-12T13:07:00.000Z</time>
      </trkpt>
      <trkpt lat="31.0345306396484375" lon="-6.9673509597778320">
        <ele>1221.0</ele>
        <time>2018-10-12T13:07:01.000Z</time>
      </trkpt>
      <trkpt lat="31.0345554351806641" lon="-6.9673819541931152">
        <ele>1221.0</ele>
        <time>2018-10-12T13:07:02.000Z</time>
      </trkpt>
      <trkpt lat="31.0345821380615234" lon="-6.9674119949340820">
        <ele>1221.0</ele>
        <time>2018-10-12T13:07:03.000Z</time>
      </trkpt>
      <trkpt lat="31.0346107482910156" lon="-6.9674410820007324">
        <ele>1221.0</ele>
        <time>2018-10-12T13:07:04.000Z</time>
      </trkpt>
      <trkpt lat="31.0346355438232422" lon="-6.9674701690673828">
        <ele>1221.0</ele>
        <time>2018-10-12T13:07:05.000Z</time>
      </trkpt>
      <trkpt lat="31.0346603393554688" lon="-6.9675002098083496">
        <ele>1221.0</ele>
        <time>2018-10-12T13:07:06.000Z</time>
      </trkpt>
      <trkpt lat="31.0346832275390625" lon="-6.9675288200378418">
        <ele>1221.821044921875</ele>
        <time>2018-10-12T13:07:07.000Z</time>
      </trkpt>
      <trkpt lat="31.0347061157226562" lon="-6.9675579071044922">
        <ele>1222.0</ele>
        <time>2018-10-12T13:07:08.000Z</time>
      </trkpt>
      <trkpt lat="31.0347328186035156" lon="-6.9675841331481934">
        <ele>1222.0</ele>
        <time>2018-10-12T13:07:09.000Z</time>
      </trkpt>
      <trkpt lat="31.0347557067871094" lon="-6.9676108360290527">
        <ele>1222.0</ele>
        <time>2018-10-12T13:07:10.000Z</time>
      </trkpt>
      <trkpt lat="31.0347805023193359" lon="-6.9676380157470703">
        <ele>1222.0</ele>
        <time>2018-10-12T13:07:11.000Z</time>
      </trkpt>
      <trkpt lat="31.0348072052001953" lon="-6.9676637649536133">
        <ele>1222.0</ele>
        <time>2018-10-12T13:07:12.000Z</time>
      </trkpt>
      <trkpt lat="31.0348358154296875" lon="-6.9676899909973145">
        <ele>1222.0</ele>
        <time>2018-10-12T13:07:13.000Z</time>
      </trkpt>
      <trkpt lat="31.0348644256591797" lon="-6.9677147865295410">
        <ele>1222.0</ele>
        <time>2018-10-12T13:07:14.000Z</time>
      </trkpt>
      <trkpt lat="31.0348949432373047" lon="-6.9677410125732422">
        <ele>1222.0</ele>
        <time>2018-10-12T13:07:15.000Z</time>
      </trkpt>
      <trkpt lat="31.0349235534667969" lon="-6.9677691459655762">
        <ele>1222.0</ele>
        <time>2018-10-12T13:07:16.000Z</time>
      </trkpt>
      <trkpt lat="31.0349540710449219" lon="-6.9677968025207520">
        <ele>1222.0</ele>
        <time>2018-10-12T13:07:17.000Z</time>
      </trkpt>
      <trkpt lat="31.0349864959716797" lon="-6.9678258895874023">
        <ele>1222.0</ele>
        <time>2018-10-12T13:07:18.000Z</time>
      </trkpt>
      <trkpt lat="31.0350189208984375" lon="-6.9678540229797363">
        <ele>1222.0</ele>
        <time>2018-10-12T13:07:19.000Z</time>
      </trkpt>
      <trkpt lat="31.0350532531738281" lon="-6.9678821563720703">
        <ele>1222.0</ele>
        <time>2018-10-12T13:07:20.000Z</time>
      </trkpt>
      <trkpt lat="31.0350875854492188" lon="-6.9679107666015625">
        <ele>1222.0</ele>
        <time>2018-10-12T13:07:21.000Z</time>
      </trkpt>
      <trkpt lat="31.0351200103759766" lon="-6.9679388999938965">
        <ele>1222.0</ele>
        <time>2018-10-12T13:07:22.000Z</time>
      </trkpt>
      <trkpt lat="31.0351524353027344" lon="-6.9679670333862305">
        <ele>1222.0</ele>
        <time>2018-10-12T13:07:23.000Z</time>
      </trkpt>
      <trkpt lat="31.0351867675781250" lon="-6.9679942131042480">
        <ele>1222.0</ele>
        <time>2018-10-12T13:07:24.000Z</time>
      </trkpt>
      <trkpt lat="31.0352172851562500" lon="-6.9680209159851074">
        <ele>1222.0</ele>
        <time>2018-10-12T13:07:25.000Z</time>
      </trkpt>
      <trkpt lat="31.0352478027343750" lon="-6.9680452346801758">
        <ele>1222.0</ele>
        <time>2018-10-12T13:07:26.000Z</time>
      </trkpt>
      <trkpt lat="31.0352764129638672" lon="-6.9680690765380859">
        <ele>1222.0</ele>
        <time>2018-10-12T13:07:27.000Z</time>
      </trkpt>
      <trkpt lat="31.0353069305419922" lon="-6.9680929183959961">
        <ele>1222.0</ele>
        <time>2018-10-12T13:07:28.000Z</time>
      </trkpt>
      <trkpt lat="31.0353374481201172" lon="-6.9681191444396973">
        <ele>1222.0</ele>
        <time>2018-10-12T13:07:29.000Z</time>
      </trkpt>
      <trkpt lat="31.0353679656982422" lon="-6.9681439399719238">
        <ele>1222.0</ele>
        <time>2018-10-12T13:07:30.000Z</time>
      </trkpt>
      <trkpt lat="31.0353984832763672" lon="-6.9681692123413086">
        <ele>1222.0</ele>
        <time>2018-10-12T13:07:31.000Z</time>
      </trkpt>
      <trkpt lat="31.0354309082031250" lon="-6.9681940078735352">
        <ele>1222.821044921875</ele>
        <time>2018-10-12T13:07:32.000Z</time>
      </trkpt>
      <trkpt lat="31.0354614257812500" lon="-6.9682188034057617">
        <ele>1223.0</ele>
        <time>2018-10-12T13:07:33.000Z</time>
      </trkpt>
      <trkpt lat="31.0354919433593750" lon="-6.9682412147521973">
        <ele>1223.0</ele>
        <time>2018-10-12T13:07:34.000Z</time>
      </trkpt>
      <trkpt lat="31.0355243682861328" lon="-6.9682631492614746">
        <ele>1223.0</ele>
        <time>2018-10-12T13:07:35.000Z</time>
      </trkpt>
      <trkpt lat="31.0355567932128906" lon="-6.9682822227478027">
        <ele>1223.0</ele>
        <time>2018-10-12T13:07:36.000Z</time>
      </trkpt>
      <trkpt lat="31.0355930328369141" lon="-6.9683008193969727">
        <ele>1223.0</ele>
        <time>2018-10-12T13:07:37.000Z</time>
      </trkpt>
      <trkpt lat="31.0356292724609375" lon="-6.9683189392089844">
        <ele>1223.0</ele>
        <time>2018-10-12T13:07:38.000Z</time>
      </trkpt>
      <trkpt lat="31.0356712341308594" lon="-6.9683370590209961">
        <ele>1223.0</ele>
        <time>2018-10-12T13:07:39.000Z</time>
      </trkpt>
      <trkpt lat="31.0357131958007812" lon="-6.9683542251586914">
        <ele>1223.0</ele>
        <time>2018-10-12T13:07:40.000Z</time>
      </trkpt>
      <trkpt lat="31.0357570648193359" lon="-6.9683699607849121">
        <ele>1223.0</ele>
        <time>2018-10-12T13:07:41.000Z</time>
      </trkpt>
      <trkpt lat="31.0358009338378906" lon="-6.9683852195739746">
        <ele>1223.0</ele>
        <time>2018-10-12T13:07:42.000Z</time>
      </trkpt>
      <trkpt lat="31.0358448028564453" lon="-6.9683980941772461">
        <ele>1223.0</ele>
        <time>2018-10-12T13:07:43.000Z</time>
      </trkpt>
      <trkpt lat="31.0358867645263672" lon="-6.9684109687805176">
        <ele>1223.0</ele>
        <time>2018-10-12T13:07:44.000Z</time>
      </trkpt>
      <trkpt lat="31.0359287261962891" lon="-6.9684228897094727">
        <ele>1223.0</ele>
        <time>2018-10-12T13:07:45.000Z</time>
      </trkpt>
      <trkpt lat="31.0359706878662109" lon="-6.9684319496154785">
        <ele>1223.0</ele>
        <time>2018-10-12T13:07:46.000Z</time>
      </trkpt>
      <trkpt lat="31.0360126495361328" lon="-6.9684419631958008">
        <ele>1223.0</ele>
        <time>2018-10-12T13:07:47.000Z</time>
      </trkpt>
      <trkpt lat="31.0360546112060547" lon="-6.9684500694274902">
        <ele>1223.0</ele>
        <time>2018-10-12T13:07:48.000Z</time>
      </trkpt>
      <trkpt lat="31.0360946655273438" lon="-6.9684572219848633">
        <ele>1223.0</ele>
        <time>2018-10-12T13:07:49.000Z</time>
      </trkpt>
      <trkpt lat="31.0361366271972656" lon="-6.9684629440307617">
        <ele>1223.0</ele>
        <time>2018-10-12T13:07:50.000Z</time>
      </trkpt>
      <trkpt lat="31.0361785888671875" lon="-6.9684681892395020">
        <ele>1223.0</ele>
        <time>2018-10-12T13:07:51.000Z</time>
      </trkpt>
      <trkpt lat="31.0362186431884766" lon="-6.9684729576110840">
        <ele>1223.0</ele>
        <time>2018-10-12T13:07:52.000Z</time>
      </trkpt>
      <trkpt lat="31.0362586975097656" lon="-6.9684782028198242">
        <ele>1223.0</ele>
        <time>2018-10-12T13:07:53.000Z</time>
      </trkpt>
      <trkpt lat="31.0362987518310547" lon="-6.9684801101684570">
        <ele>1223.0</ele>
        <time>2018-10-12T13:07:54.000Z</time>
      </trkpt>
      <trkpt lat="31.0363388061523438" lon="-6.9684810638427734">
        <ele>1223.0</ele>
        <time>2018-10-12T13:07:55.000Z</time>
      </trkpt>
      <trkpt lat="31.0363788604736328" lon="-6.9684801101684570">
        <ele>1223.0</ele>
        <time>2018-10-12T13:07:56.000Z</time>
      </trkpt>
      <trkpt lat="31.0364151000976562" lon="-6.9684782028198242">
        <ele>1223.0</ele>
        <time>2018-10-12T13:07:57.000Z</time>
      </trkpt>
      <trkpt lat="31.0364532470703125" lon="-6.9684758186340332">
        <ele>1223.0</ele>
        <time>2018-10-12T13:07:58.000Z</time>
      </trkpt>
      <trkpt lat="31.0364913940429688" lon="-6.9684739112854004">
        <ele>1223.0</ele>
        <time>2018-10-12T13:07:59.000Z</time>
      </trkpt>
      <trkpt lat="31.0365295410156250" lon="-6.9684700965881348">
        <ele>1223.7479248046875</ele>
        <time>2018-10-12T13:08:00.000Z</time>
      </trkpt>
      <trkpt lat="31.0365676879882812" lon="-6.9684648513793945">
        <ele>1224.0</ele>
        <time>2018-10-12T13:08:01.000Z</time>
      </trkpt>
      <trkpt lat="31.0366058349609375" lon="-6.9684610366821289">
        <ele>1224.0</ele>
        <time>2018-10-12T13:08:02.000Z</time>
      </trkpt>
      <trkpt lat="31.0366458892822266" lon="-6.9684581756591797">
        <ele>1224.0</ele>
        <time>2018-10-12T13:08:03.000Z</time>
      </trkpt>
      <trkpt lat="31.0366840362548828" lon="-6.9684548377990723">
        <ele>1224.0</ele>
        <time>2018-10-12T13:08:04.000Z</time>
      </trkpt>
      <trkpt lat="31.0367221832275391" lon="-6.9684519767761230">
        <ele>1224.0</ele>
        <time>2018-10-12T13:08:05.000Z</time>
      </trkpt>
      <trkpt lat="31.0367603302001953" lon="-6.9684500694274902">
        <ele>1224.0</ele>
        <time>2018-10-12T13:08:06.000Z</time>
      </trkpt>
      <trkpt lat="31.0368003845214844" lon="-6.9684472084045410">
        <ele>1224.0</ele>
        <time>2018-10-12T13:08:07.000Z</time>
      </trkpt>
      <trkpt lat="31.0368385314941406" lon="-6.9684457778930664">
        <ele>1224.0</ele>
        <time>2018-10-12T13:08:08.000Z</time>
      </trkpt>
      <trkpt lat="31.0368785858154297" lon="-6.9684472084045410">
        <ele>1224.0</ele>
        <time>2018-10-12T13:08:09.000Z</time>
      </trkpt>
      <trkpt lat="31.0369205474853516" lon="-6.9684472084045410">
        <ele>1224.0</ele>
        <time>2018-10-12T13:08:10.000Z</time>
      </trkpt>
      <trkpt lat="31.0369625091552734" lon="-6.9684491157531738">
        <ele>1224.0</ele>
        <time>2018-10-12T13:08:11.000Z</time>
      </trkpt>
      <trkpt lat="31.0370044708251953" lon="-6.9684519767761230">
        <ele>1224.0</ele>
        <time>2018-10-12T13:08:12.000Z</time>
      </trkpt>
      <trkpt lat="31.0370445251464844" lon="-6.9684548377990723">
        <ele>1224.0</ele>
        <time>2018-10-12T13:08:13.000Z</time>
      </trkpt>
      <trkpt lat="31.0370845794677734" lon="-6.9684600830078125">
        <ele>1224.0</ele>
        <time>2018-10-12T13:08:14.000Z</time>
      </trkpt>
      <trkpt lat="31.0371246337890625" lon="-6.9684648513793945">
        <ele>1224.0</ele>
        <time>2018-10-12T13:08:15.000Z</time>
      </trkpt>
      <trkpt lat="31.0371646881103516" lon="-6.9684700965881348">
        <ele>1224.0</ele>
        <time>2018-10-12T13:08:16.000Z</time>
      </trkpt>
      <trkpt lat="31.0372047424316406" lon="-6.9684729576110840">
        <ele>1224.0</ele>
        <time>2018-10-12T13:08:17.000Z</time>
      </trkpt>
      <trkpt lat="31.0372447967529297" lon="-6.9684782028198242">
        <ele>1224.0</ele>
        <time>2018-10-12T13:08:18.000Z</time>
      </trkpt>
      <trkpt lat="31.0372867584228516" lon="-6.9684839248657227">
        <ele>1224.0</ele>
        <time>2018-10-12T13:08:19.000Z</time>
      </trkpt>
      <trkpt lat="31.0373287200927734" lon="-6.9684891700744629">
        <ele>1224.0</ele>
        <time>2018-10-12T13:08:20.000Z</time>
      </trkpt>
      <trkpt lat="31.0373725891113281" lon="-6.9684967994689941">
        <ele>1224.0</ele>
        <time>2018-10-12T13:08:21.000Z</time>
      </trkpt>
      <trkpt lat="31.0374145507812500" lon="-6.9685077667236328">
        <ele>1224.0</ele>
        <time>2018-10-12T13:08:22.000Z</time>
      </trkpt>
      <trkpt lat="31.0374584197998047" lon="-6.9685230255126953">
        <ele>1224.821044921875</ele>
        <time>2018-10-12T13:08:23.000Z</time>
      </trkpt>
      <trkpt lat="31.0375003814697266" lon="-6.9685392379760742">
        <ele>1225.0</ele>
        <time>2018-10-12T13:08:24.000Z</time>
      </trkpt>
      <trkpt lat="31.0375404357910156" lon="-6.9685559272766113">
        <ele>1225.0</ele>
        <time>2018-10-12T13:08:25.000Z</time>
      </trkpt>
      <trkpt lat="31.0375785827636719" lon="-6.9685759544372559">
        <ele>1225.0</ele>
        <time>2018-10-12T13:08:26.000Z</time>
      </trkpt>
      <trkpt lat="31.0376167297363281" lon="-6.9685950279235840">
        <ele>1224.178955078125</ele>
        <time>2018-10-12T13:08:27.000Z</time>
      </trkpt>
      <trkpt lat="31.0376567840576172" lon="-6.9686150550842285">
        <ele>1224.0</ele>
        <time>2018-10-12T13:08:28.000Z</time>
      </trkpt>
      <trkpt lat="31.0376949310302734" lon="-6.9686369895935059">
        <ele>1224.0</ele>
        <time>2018-10-12T13:08:29.000Z</time>
      </trkpt>
      <trkpt lat="31.0377330780029297" lon="-6.9686589241027832">
        <ele>1224.0</ele>
        <time>2018-10-12T13:08:30.000Z</time>
      </trkpt>
      <trkpt lat="31.0377731323242188" lon="-6.9686808586120605">
        <ele>1224.0</ele>
        <time>2018-10-12T13:08:31.000Z</time>
      </trkpt>
      <trkpt lat="31.0378093719482422" lon="-6.9687051773071289">
        <ele>1224.0</ele>
        <time>2018-10-12T13:08:32.000Z</time>
      </trkpt>
      <trkpt lat="31.0378456115722656" lon="-6.9687290191650391">
        <ele>1224.0</ele>
        <time>2018-10-12T13:08:33.000Z</time>
      </trkpt>
      <trkpt lat="31.0378780364990234" lon="-6.9687538146972656">
        <ele>1224.0</ele>
        <time>2018-10-12T13:08:34.000Z</time>
      </trkpt>
      <trkpt lat="31.0379104614257812" lon="-6.9687781333923340">
        <ele>1224.0</ele>
        <time>2018-10-12T13:08:35.000Z</time>
      </trkpt>
      <trkpt lat="31.0379428863525391" lon="-6.9688010215759277">
        <ele>1224.0</ele>
        <time>2018-10-12T13:08:36.000Z</time>
      </trkpt>
      <trkpt lat="31.0379714965820312" lon="-6.9688220024108887">
        <ele>1223.2593994140625</ele>
        <time>2018-10-12T13:08:37.000Z</time>
      </trkpt>
      <trkpt lat="31.0380020141601562" lon="-6.9688458442687988">
        <ele>1223.0</ele>
        <time>2018-10-12T13:08:38.000Z</time>
      </trkpt>
      <trkpt lat="31.0380325317382812" lon="-6.9688701629638672">
        <ele>1223.0</ele>
        <time>2018-10-12T13:08:39.000Z</time>
      </trkpt>
      <trkpt lat="31.0380630493164062" lon="-6.9688968658447266">
        <ele>1223.0</ele>
        <time>2018-10-12T13:08:40.000Z</time>
      </trkpt>
      <trkpt lat="31.0380954742431641" lon="-6.9689249992370605">
        <ele>1223.0</ele>
        <time>2018-10-12T13:08:41.000Z</time>
      </trkpt>
      <trkpt lat="31.0381317138671875" lon="-6.9689521789550781">
        <ele>1223.0</ele>
        <time>2018-10-12T13:08:42.000Z</time>
      </trkpt>
      <trkpt lat="31.0381679534912109" lon="-6.9689779281616211">
        <ele>1223.0</ele>
        <time>2018-10-12T13:08:43.000Z</time>
      </trkpt>
      <trkpt lat="31.0382061004638672" lon="-6.9690051078796387">
        <ele>1223.0</ele>
        <time>2018-10-12T13:08:44.000Z</time>
      </trkpt>
      <trkpt lat="31.0382442474365234" lon="-6.9690327644348145">
        <ele>1223.0</ele>
        <time>2018-10-12T13:08:45.000Z</time>
      </trkpt>
      <trkpt lat="31.0382823944091797" lon="-6.9690608978271484">
        <ele>1223.0</ele>
        <time>2018-10-12T13:08:46.000Z</time>
      </trkpt>
      <trkpt lat="31.0383205413818359" lon="-6.9690871238708496">
        <ele>1223.0</ele>
        <time>2018-10-12T13:08:47.000Z</time>
      </trkpt>
      <trkpt lat="31.0383567810058594" lon="-6.9691128730773926">
        <ele>1223.0</ele>
        <time>2018-10-12T13:08:48.000Z</time>
      </trkpt>
      <trkpt lat="31.0383949279785156" lon="-6.9691371917724609">
        <ele>1223.0</ele>
        <time>2018-10-12T13:08:49.000Z</time>
      </trkpt>
      <trkpt lat="31.0384349822998047" lon="-6.9691600799560547">
        <ele>1223.0</ele>
        <time>2018-10-12T13:08:50.000Z</time>
      </trkpt>
      <trkpt lat="31.0384750366210938" lon="-6.9691810607910156">
        <ele>1222.178955078125</ele>
        <time>2018-10-12T13:08:51.000Z</time>
      </trkpt>
      <trkpt lat="31.0385131835937500" lon="-6.9692001342773438">
        <ele>1222.0</ele>
        <time>2018-10-12T13:08:52.000Z</time>
      </trkpt>
      <trkpt lat="31.0385513305664062" lon="-6.9692201614379883">
        <ele>1222.0</ele>
        <time>2018-10-12T13:08:53.000Z</time>
      </trkpt>
      <trkpt lat="31.0385875701904297" lon="-6.9692411422729492">
        <ele>1222.0</ele>
        <time>2018-10-12T13:08:54.000Z</time>
      </trkpt>
      <trkpt lat="31.0386238098144531" lon="-6.9692630767822266">
        <ele>1222.0</ele>
        <time>2018-10-12T13:08:55.000Z</time>
      </trkpt>
      <trkpt lat="31.0386581420898438" lon="-6.9692831039428711">
        <ele>1222.0</ele>
        <time>2018-10-12T13:08:56.000Z</time>
      </trkpt>
      <trkpt lat="31.0386924743652344" lon="-6.9693031311035156">
        <ele>1222.821044921875</ele>
        <time>2018-10-12T13:08:57.000Z</time>
      </trkpt>
      <trkpt lat="31.0387287139892578" lon="-6.9693241119384766">
        <ele>1223.0</ele>
        <time>2018-10-12T13:08:58.000Z</time>
      </trkpt>
      <trkpt lat="31.0387649536132812" lon="-6.9693460464477539">
        <ele>1223.0</ele>
        <time>2018-10-12T13:08:59.000Z</time>
      </trkpt>
      <trkpt lat="31.0387992858886719" lon="-6.9693708419799805">
        <ele>1223.0</ele>
        <time>2018-10-12T13:09:00.000Z</time>
      </trkpt>
      <trkpt lat="31.0388336181640625" lon="-6.9693961143493652">
        <ele>1223.0</ele>
        <time>2018-10-12T13:09:01.000Z</time>
      </trkpt>
      <trkpt lat="31.0388660430908203" lon="-6.9694209098815918">
        <ele>1223.0</ele>
        <time>2018-10-12T13:09:02.000Z</time>
      </trkpt>
      <trkpt lat="31.0389003753662109" lon="-6.9694461822509766">
        <ele>1222.178955078125</ele>
        <time>2018-10-12T13:09:03.000Z</time>
      </trkpt>
      <trkpt lat="31.0389328002929688" lon="-6.9694700241088867">
        <ele>1222.0</ele>
        <time>2018-10-12T13:09:04.000Z</time>
      </trkpt>
      <trkpt lat="31.0389652252197266" lon="-6.9694948196411133">
        <ele>1222.0</ele>
        <time>2018-10-12T13:09:05.000Z</time>
      </trkpt>
      <trkpt lat="31.0389957427978516" lon="-6.9695219993591309">
        <ele>1222.0</ele>
        <time>2018-10-12T13:09:06.000Z</time>
      </trkpt>
      <trkpt lat="31.0390281677246094" lon="-6.9695482254028320">
        <ele>1222.0</ele>
        <time>2018-10-12T13:09:07.000Z</time>
      </trkpt>
      <trkpt lat="31.0390605926513672" lon="-6.9695758819580078">
        <ele>1222.0</ele>
        <time>2018-10-12T13:09:08.000Z</time>
      </trkpt>
      <trkpt lat="31.0390930175781250" lon="-6.9696040153503418">
        <ele>1222.821044921875</ele>
        <time>2018-10-12T13:09:09.000Z</time>
      </trkpt>
      <trkpt lat="31.0391254425048828" lon="-6.9696321487426758">
        <ele>1223.0</ele>
        <time>2018-10-12T13:09:10.000Z</time>
      </trkpt>
      <trkpt lat="31.0391559600830078" lon="-6.9696598052978516">
        <ele>1223.0</ele>
        <time>2018-10-12T13:09:11.000Z</time>
      </trkpt>
      <trkpt lat="31.0391845703125000" lon="-6.9696898460388184">
        <ele>1223.0</ele>
        <time>2018-10-12T13:09:12.000Z</time>
      </trkpt>
      <trkpt lat="31.0392150878906250" lon="-6.9697179794311523">
        <ele>1223.0</ele>
        <time>2018-10-12T13:09:13.000Z</time>
      </trkpt>
      <trkpt lat="31.0392456054687500" lon="-6.9697451591491699">
        <ele>1223.0</ele>
        <time>2018-10-12T13:09:14.000Z</time>
      </trkpt>
      <trkpt lat="31.0392761230468750" lon="-6.9697718620300293">
        <ele>1223.0</ele>
        <time>2018-10-12T13:09:15.000Z</time>
      </trkpt>
      <trkpt lat="31.0393066406250000" lon="-6.9697990417480469">
        <ele>1223.0</ele>
        <time>2018-10-12T13:09:16.000Z</time>
      </trkpt>
      <trkpt lat="31.0393371582031250" lon="-6.9698247909545898">
        <ele>1223.0</ele>
        <time>2018-10-12T13:09:17.000Z</time>
      </trkpt>
      <trkpt lat="31.0393714904785156" lon="-6.9698500633239746">
        <ele>1223.0</ele>
        <time>2018-10-12T13:09:18.000Z</time>
      </trkpt>
      <trkpt lat="31.0394039154052734" lon="-6.9698748588562012">
        <ele>1223.0</ele>
        <time>2018-10-12T13:09:19.000Z</time>
      </trkpt>
      <trkpt lat="31.0394363403320312" lon="-6.9699001312255859">
        <ele>1223.0</ele>
        <time>2018-10-12T13:09:20.000Z</time>
      </trkpt>
      <trkpt lat="31.0394687652587891" lon="-6.9699249267578125">
        <ele>1223.0</ele>
        <time>2018-10-12T13:09:21.000Z</time>
      </trkpt>
      <trkpt lat="31.0395011901855469" lon="-6.9699501991271973">
        <ele>1223.0</ele>
        <time>2018-10-12T13:09:22.000Z</time>
      </trkpt>
      <trkpt lat="31.0395336151123047" lon="-6.9699769020080566">
        <ele>1223.0</ele>
        <time>2018-10-12T13:09:23.000Z</time>
      </trkpt>
      <trkpt lat="31.0395660400390625" lon="-6.9700031280517578">
        <ele>1223.0</ele>
        <time>2018-10-12T13:09:24.000Z</time>
      </trkpt>
      <trkpt lat="31.0395965576171875" lon="-6.9700288772583008">
        <ele>1223.0</ele>
        <time>2018-10-12T13:09:25.000Z</time>
      </trkpt>
      <trkpt lat="31.0396308898925781" lon="-6.9700551033020020">
        <ele>1223.0</ele>
        <time>2018-10-12T13:09:26.000Z</time>
      </trkpt>
      <trkpt lat="31.0396595001220703" lon="-6.9700808525085449">
        <ele>1223.0</ele>
        <time>2018-10-12T13:09:27.000Z</time>
      </trkpt>
      <trkpt lat="31.0396919250488281" lon="-6.9701070785522461">
        <ele>1223.821044921875</ele>
        <time>2018-10-12T13:09:28.000Z</time>
      </trkpt>
      <trkpt lat="31.0397224426269531" lon="-6.9701328277587891">
        <ele>1224.0</ele>
        <time>2018-10-12T13:09:29.000Z</time>
      </trkpt>
      <trkpt lat="31.0397548675537109" lon="-6.9701590538024902">
        <ele>1224.0</ele>
        <time>2018-10-12T13:09:30.000Z</time>
      </trkpt>
      <trkpt lat="31.0397834777832031" lon="-6.9701862335205078">
        <ele>1224.0</ele>
        <time>2018-10-12T13:09:31.000Z</time>
      </trkpt>
      <trkpt lat="31.0398159027099609" lon="-6.9702129364013672">
        <ele>1224.0</ele>
        <time>2018-10-12T13:09:32.000Z</time>
      </trkpt>
      <trkpt lat="31.0398464202880859" lon="-6.9702391624450684">
        <ele>1224.0</ele>
        <time>2018-10-12T13:09:33.000Z</time>
      </trkpt>
      <trkpt lat="31.0398788452148438" lon="-6.9702630043029785">
        <ele>1224.0</ele>
        <time>2018-10-12T13:09:34.000Z</time>
      </trkpt>
      <trkpt lat="31.0399112701416016" lon="-6.9702877998352051">
        <ele>1224.0</ele>
        <time>2018-10-12T13:09:35.000Z</time>
      </trkpt>
      <trkpt lat="31.0399436950683594" lon="-6.9703121185302734">
        <ele>1224.0</ele>
        <time>2018-10-12T13:09:36.000Z</time>
      </trkpt>
      <trkpt lat="31.0399742126464844" lon="-6.9703359603881836">
        <ele>1224.0</ele>
        <time>2018-10-12T13:09:37.000Z</time>
      </trkpt>
      <trkpt lat="31.0400085449218750" lon="-6.9703598022460938">
        <ele>1224.0</ele>
        <time>2018-10-12T13:09:38.000Z</time>
      </trkpt>
      <trkpt lat="31.0400390625000000" lon="-6.9703822135925293">
        <ele>1224.0</ele>
        <time>2018-10-12T13:09:39.000Z</time>
      </trkpt>
      <trkpt lat="31.0400695800781250" lon="-6.9704041481018066">
        <ele>1224.0</ele>
        <time>2018-10-12T13:09:40.000Z</time>
      </trkpt>
      <trkpt lat="31.0401020050048828" lon="-6.9704251289367676">
        <ele>1224.0</ele>
        <time>2018-10-12T13:09:41.000Z</time>
      </trkpt>
      <trkpt lat="31.0401325225830078" lon="-6.9704470634460449">
        <ele>1224.0</ele>
        <time>2018-10-12T13:09:42.000Z</time>
      </trkpt>
      <trkpt lat="31.0401649475097656" lon="-6.9704680442810059">
        <ele>1224.0</ele>
        <time>2018-10-12T13:09:43.000Z</time>
      </trkpt>
      <trkpt lat="31.0401973724365234" lon="-6.9704880714416504">
        <ele>1224.0</ele>
        <time>2018-10-12T13:09:44.000Z</time>
      </trkpt>
      <trkpt lat="31.0402297973632812" lon="-6.9705061912536621">
        <ele>1224.0</ele>
        <time>2018-10-12T13:09:45.000Z</time>
      </trkpt>
      <trkpt lat="31.0402641296386719" lon="-6.9705228805541992">
        <ele>1224.0</ele>
        <time>2018-10-12T13:09:46.000Z</time>
      </trkpt>
      <trkpt lat="31.0402965545654297" lon="-6.9705400466918945">
        <ele>1224.0</ele>
        <time>2018-10-12T13:09:47.000Z</time>
      </trkpt>
      <trkpt lat="31.0403308868408203" lon="-6.9705557823181152">
        <ele>1224.0</ele>
        <time>2018-10-12T13:09:48.000Z</time>
      </trkpt>
      <trkpt lat="31.0403633117675781" lon="-6.9705739021301270">
        <ele>1224.0</ele>
        <time>2018-10-12T13:09:49.000Z</time>
      </trkpt>
      <trkpt lat="31.0403976440429688" lon="-6.9705891609191895">
        <ele>1224.0</ele>
        <time>2018-10-12T13:09:50.000Z</time>
      </trkpt>
      <trkpt lat="31.0404300689697266" lon="-6.9706029891967773">
        <ele>1224.0</ele>
        <time>2018-10-12T13:09:51.000Z</time>
      </trkpt>
      <trkpt lat="31.0404624938964844" lon="-6.9706168174743652">
        <ele>1224.0</ele>
        <time>2018-10-12T13:09:52.000Z</time>
      </trkpt>
      <trkpt lat="31.0404968261718750" lon="-6.9706320762634277">
        <ele>1224.0</ele>
        <time>2018-10-12T13:09:53.000Z</time>
      </trkpt>
      <trkpt lat="31.0405273437500000" lon="-6.9706468582153320">
        <ele>1224.0</ele>
        <time>2018-10-12T13:09:54.000Z</time>
      </trkpt>
      <trkpt lat="31.0405597686767578" lon="-6.9706611633300781">
        <ele>1224.0</ele>
        <time>2018-10-12T13:09:55.000Z</time>
      </trkpt>
      <trkpt lat="31.0405921936035156" lon="-6.9706749916076660">
        <ele>1224.0</ele>
        <time>2018-10-12T13:09:56.000Z</time>
      </trkpt>
      <trkpt lat="31.0406246185302734" lon="-6.9706897735595703">
        <ele>1224.0</ele>
        <time>2018-10-12T13:09:57.000Z</time>
      </trkpt>
      <trkpt lat="31.0406589508056641" lon="-6.9707050323486328">
        <ele>1224.0</ele>
        <time>2018-10-12T13:09:58.000Z</time>
      </trkpt>
      <trkpt lat="31.0406875610351562" lon="-6.9707221984863281">
        <ele>1224.0</ele>
        <time>2018-10-12T13:09:59.000Z</time>
      </trkpt>
      <trkpt lat="31.0407180786132812" lon="-6.9707379341125488">
        <ele>1224.0</ele>
        <time>2018-10-12T13:10:00.000Z</time>
      </trkpt>
      <trkpt lat="31.0407524108886719" lon="-6.9707541465759277">
        <ele>1224.0</ele>
        <time>2018-10-12T13:10:01.000Z</time>
      </trkpt>
      <trkpt lat="31.0407848358154297" lon="-6.9707698822021484">
        <ele>1224.0</ele>
        <time>2018-10-12T13:10:02.000Z</time>
      </trkpt>
      <trkpt lat="31.0408153533935547" lon="-6.9707841873168945">
        <ele>1224.0</ele>
        <time>2018-10-12T13:10:03.000Z</time>
      </trkpt>
      <trkpt lat="31.0408477783203125" lon="-6.9707980155944824">
        <ele>1224.0</ele>
        <time>2018-10-12T13:10:04.000Z</time>
      </trkpt>
      <trkpt lat="31.0408802032470703" lon="-6.9708108901977539">
        <ele>1224.0</ele>
        <time>2018-10-12T13:10:05.000Z</time>
      </trkpt>
      <trkpt lat="31.0409164428710938" lon="-6.9708228111267090">
        <ele>1224.0</ele>
        <time>2018-10-12T13:10:06.000Z</time>
      </trkpt>
      <trkpt lat="31.0409507751464844" lon="-6.9708337783813477">
        <ele>1224.0</ele>
        <time>2018-10-12T13:10:07.000Z</time>
      </trkpt>
      <trkpt lat="31.0409870147705078" lon="-6.9708461761474609">
        <ele>1224.0</ele>
        <time>2018-10-12T13:10:08.000Z</time>
      </trkpt>
      <trkpt lat="31.0410213470458984" lon="-6.9708600044250488">
        <ele>1224.0</ele>
        <time>2018-10-12T13:10:09.000Z</time>
      </trkpt>
      <trkpt lat="31.0410575866699219" lon="-6.9708747863769531">
        <ele>1224.0</ele>
        <time>2018-10-12T13:10:10.000Z</time>
      </trkpt>
      <trkpt lat="31.0410919189453125" lon="-6.9708919525146484">
        <ele>1224.0</ele>
        <time>2018-10-12T13:10:11.000Z</time>
      </trkpt>
      <trkpt lat="31.0411243438720703" lon="-6.9709110260009766">
        <ele>1224.0</ele>
        <time>2018-10-12T13:10:12.000Z</time>
      </trkpt>
      <trkpt lat="31.0411586761474609" lon="-6.9709310531616211">
        <ele>1224.0</ele>
        <time>2018-10-12T13:10:13.000Z</time>
      </trkpt>
      <trkpt lat="31.0411911010742188" lon="-6.9709529876708984">
        <ele>1224.0</ele>
        <time>2018-10-12T13:10:14.000Z</time>
      </trkpt>
      <trkpt lat="31.0412254333496094" lon="-6.9709758758544922">
        <ele>1224.0</ele>
        <time>2018-10-12T13:10:15.000Z</time>
      </trkpt>
      <trkpt lat="31.0412597656250000" lon="-6.9709987640380859">
        <ele>1224.0</ele>
        <time>2018-10-12T13:10:16.000Z</time>
      </trkpt>
      <trkpt lat="31.0412921905517578" lon="-6.9710221290588379">
        <ele>1224.0</ele>
        <time>2018-10-12T13:10:17.000Z</time>
      </trkpt>
      <trkpt lat="31.0413265228271484" lon="-6.9710440635681152">
        <ele>1224.0</ele>
        <time>2018-10-12T13:10:18.000Z</time>
      </trkpt>
      <trkpt lat="31.0413608551025391" lon="-6.9710640907287598">
        <ele>1224.0</ele>
        <time>2018-10-12T13:10:19.000Z</time>
      </trkpt>
      <trkpt lat="31.0413951873779297" lon="-6.9710822105407715">
        <ele>1224.0</ele>
        <time>2018-10-12T13:10:20.000Z</time>
      </trkpt>
      <trkpt lat="31.0414295196533203" lon="-6.9710988998413086">
        <ele>1224.0</ele>
        <time>2018-10-12T13:10:21.000Z</time>
      </trkpt>
      <trkpt lat="31.0414657592773438" lon="-6.9711151123046875">
        <ele>1224.0</ele>
        <time>2018-10-12T13:10:22.000Z</time>
      </trkpt>
      <trkpt lat="31.0415000915527344" lon="-6.9711298942565918">
        <ele>1224.0</ele>
        <time>2018-10-12T13:10:23.000Z</time>
      </trkpt>
      <trkpt lat="31.0415344238281250" lon="-6.9711461067199707">
        <ele>1224.0</ele>
        <time>2018-10-12T13:10:24.000Z</time>
      </trkpt>
      <trkpt lat="31.0415706634521484" lon="-6.9711599349975586">
        <ele>1224.0</ele>
        <time>2018-10-12T13:10:25.000Z</time>
      </trkpt>
      <trkpt lat="31.0416088104248047" lon="-6.9711709022521973">
        <ele>1224.0</ele>
        <time>2018-10-12T13:10:26.000Z</time>
      </trkpt>
      <trkpt lat="31.0416488647460938" lon="-6.9711809158325195">
        <ele>1224.821044921875</ele>
        <time>2018-10-12T13:10:27.000Z</time>
      </trkpt>
      <trkpt lat="31.0416870117187500" lon="-6.9711890220642090">
        <ele>1225.0</ele>
        <time>2018-10-12T13:10:28.000Z</time>
      </trkpt>
      <trkpt lat="31.0417251586914062" lon="-6.9711980819702148">
        <ele>1225.0</ele>
        <time>2018-10-12T13:10:29.000Z</time>
      </trkpt>
      <trkpt lat="31.0417633056640625" lon="-6.9712061882019043">
        <ele>1225.0</ele>
        <time>2018-10-12T13:10:30.000Z</time>
      </trkpt>
      <trkpt lat="31.0418014526367188" lon="-6.9712138175964355">
        <ele>1225.0</ele>
        <time>2018-10-12T13:10:31.000Z</time>
      </trkpt>
      <trkpt lat="31.0418395996093750" lon="-6.9712219238281250">
        <ele>1225.0</ele>
        <time>2018-10-12T13:10:32.000Z</time>
      </trkpt>
      <trkpt lat="31.0418777465820312" lon="-6.9712309837341309">
        <ele>1225.0</ele>
        <time>2018-10-12T13:10:33.000Z</time>
      </trkpt>
      <trkpt lat="31.0419139862060547" lon="-6.9712400436401367">
        <ele>1225.0</ele>
        <time>2018-10-12T13:10:34.000Z</time>
      </trkpt>
      <trkpt lat="31.0419502258300781" lon="-6.9712491035461426">
        <ele>1225.0</ele>
        <time>2018-10-12T13:10:35.000Z</time>
      </trkpt>
      <trkpt lat="31.0419883728027344" lon="-6.9712591171264648">
        <ele>1225.0</ele>
        <time>2018-10-12T13:10:36.000Z</time>
      </trkpt>
      <trkpt lat="31.0420246124267578" lon="-6.9712672233581543">
        <ele>1225.0</ele>
        <time>2018-10-12T13:10:37.000Z</time>
      </trkpt>
      <trkpt lat="31.0420608520507812" lon="-6.9712738990783691">
        <ele>1225.0</ele>
        <time>2018-10-12T13:10:38.000Z</time>
      </trkpt>
      <trkpt lat="31.0420970916748047" lon="-6.9712829589843750">
        <ele>1225.0</ele>
        <time>2018-10-12T13:10:39.000Z</time>
      </trkpt>
      <trkpt lat="31.0421352386474609" lon="-6.9712939262390137">
        <ele>1225.0</ele>
        <time>2018-10-12T13:10:40.000Z</time>
      </trkpt>
      <trkpt lat="31.0421733856201172" lon="-6.9713058471679688">
        <ele>1225.0</ele>
        <time>2018-10-12T13:10:41.000Z</time>
      </trkpt>
      <trkpt lat="31.0422134399414062" lon="-6.9713191986083984">
        <ele>1225.0</ele>
        <time>2018-10-12T13:10:42.000Z</time>
      </trkpt>
      <trkpt lat="31.0422515869140625" lon="-6.9713311195373535">
        <ele>1225.0</ele>
        <time>2018-10-12T13:10:43.000Z</time>
      </trkpt>
      <trkpt lat="31.0422897338867188" lon="-6.9713420867919922">
        <ele>1225.0</ele>
        <time>2018-10-12T13:10:44.000Z</time>
      </trkpt>
      <trkpt lat="31.0423297882080078" lon="-6.9713530540466309">
        <ele>1225.0</ele>
        <time>2018-10-12T13:10:45.000Z</time>
      </trkpt>
      <trkpt lat="31.0423679351806641" lon="-6.9713640213012695">
        <ele>1225.0</ele>
        <time>2018-10-12T13:10:46.000Z</time>
      </trkpt>
      <trkpt lat="31.0424060821533203" lon="-6.9713740348815918">
        <ele>1225.0</ele>
        <time>2018-10-12T13:10:47.000Z</time>
      </trkpt>
      <trkpt lat="31.0424442291259766" lon="-6.9713840484619141">
        <ele>1225.0</ele>
        <time>2018-10-12T13:10:48.000Z</time>
      </trkpt>
      <trkpt lat="31.0424823760986328" lon="-6.9713950157165527">
        <ele>1225.0</ele>
        <time>2018-10-12T13:10:49.000Z</time>
      </trkpt>
      <trkpt lat="31.0425224304199219" lon="-6.9714059829711914">
        <ele>1225.0</ele>
        <time>2018-10-12T13:10:50.000Z</time>
      </trkpt>
      <trkpt lat="31.0425624847412109" lon="-6.9714150428771973">
        <ele>1225.0</ele>
        <time>2018-10-12T13:10:51.000Z</time>
      </trkpt>
      <trkpt lat="31.0426025390625000" lon="-6.9714241027832031">
        <ele>1225.0</ele>
        <time>2018-10-12T13:10:52.000Z</time>
      </trkpt>
      <trkpt lat="31.0426445007324219" lon="-6.9714307785034180">
        <ele>1225.0</ele>
        <time>2018-10-12T13:10:53.000Z</time>
      </trkpt>
      <trkpt lat="31.0426864624023438" lon="-6.9714369773864746">
        <ele>1225.0</ele>
        <time>2018-10-12T13:10:54.000Z</time>
      </trkpt>
      <trkpt lat="31.0427303314208984" lon="-6.9714407920837402">
        <ele>1225.0</ele>
        <time>2018-10-12T13:10:55.000Z</time>
      </trkpt>
      <trkpt lat="31.0427722930908203" lon="-6.9714431762695312">
        <ele>1225.0</ele>
        <time>2018-10-12T13:10:56.000Z</time>
      </trkpt>
      <trkpt lat="31.0428123474121094" lon="-6.9714441299438477">
        <ele>1225.0</ele>
        <time>2018-10-12T13:10:57.000Z</time>
      </trkpt>
      <trkpt lat="31.0428524017333984" lon="-6.9714407920837402">
        <ele>1225.0</ele>
        <time>2018-10-12T13:10:58.000Z</time>
      </trkpt>
      <trkpt lat="31.0428905487060547" lon="-6.9714369773864746">
        <ele>1225.0</ele>
        <time>2018-10-12T13:10:59.000Z</time>
      </trkpt>
      <trkpt lat="31.0429248809814453" lon="-6.9714341163635254">
        <ele>1225.0</ele>
        <time>2018-10-12T13:11:00.000Z</time>
      </trkpt>
      <trkpt lat="31.0429573059082031" lon="-6.9714298248291016">
        <ele>1225.0</ele>
        <time>2018-10-12T13:11:01.000Z</time>
      </trkpt>
      <trkpt lat="31.0429897308349609" lon="-6.9714260101318359">
        <ele>1225.821044921875</ele>
        <time>2018-10-12T13:11:02.000Z</time>
      </trkpt>
      <trkpt lat="31.0430202484130859" lon="-6.9714221954345703">
        <ele>1226.0</ele>
        <time>2018-10-12T13:11:03.000Z</time>
      </trkpt>
      <trkpt lat="31.0430526733398438" lon="-6.9714169502258301">
        <ele>1226.0</ele>
        <time>2018-10-12T13:11:04.000Z</time>
      </trkpt>
      <trkpt lat="31.0430831909179688" lon="-6.9714121818542480">
        <ele>1226.0</ele>
        <time>2018-10-12T13:11:05.000Z</time>
      </trkpt>
      <trkpt lat="31.0431175231933594" lon="-6.9714078903198242">
        <ele>1226.0</ele>
        <time>2018-10-12T13:11:06.000Z</time>
      </trkpt>
      <trkpt lat="31.0431499481201172" lon="-6.9714059829711914">
        <ele>1226.0</ele>
        <time>2018-10-12T13:11:07.000Z</time>
      </trkpt>
      <trkpt lat="31.0431861877441406" lon="-6.9714059829711914">
        <ele>1226.0</ele>
        <time>2018-10-12T13:11:08.000Z</time>
      </trkpt>
      <trkpt lat="31.0432224273681641" lon="-6.9714097976684570">
        <ele>1226.0</ele>
        <time>2018-10-12T13:11:09.000Z</time>
      </trkpt>
      <trkpt lat="31.0432605743408203" lon="-6.9714179039001465">
        <ele>1226.0</ele>
        <time>2018-10-12T13:11:10.000Z</time>
      </trkpt>
      <trkpt lat="31.0432987213134766" lon="-6.9714279174804688">
        <ele>1226.0</ele>
        <time>2018-10-12T13:11:11.000Z</time>
      </trkpt>
      <trkpt lat="31.0433330535888672" lon="-6.9714407920837402">
        <ele>1226.0</ele>
        <time>2018-10-12T13:11:12.000Z</time>
      </trkpt>
      <trkpt lat="31.0433673858642578" lon="-6.9714560508728027">
        <ele>1226.0</ele>
        <time>2018-10-12T13:11:13.000Z</time>
      </trkpt>
      <trkpt lat="31.0434036254882812" lon="-6.9714717864990234">
        <ele>1226.0</ele>
        <time>2018-10-12T13:11:14.000Z</time>
      </trkpt>
      <trkpt lat="31.0434417724609375" lon="-6.9714927673339844">
        <ele>1226.0</ele>
        <time>2018-10-12T13:11:15.000Z</time>
      </trkpt>
      <trkpt lat="31.0434780120849609" lon="-6.9715180397033691">
        <ele>1226.0</ele>
        <time>2018-10-12T13:11:16.000Z</time>
      </trkpt>
      <trkpt lat="31.0435161590576172" lon="-6.9715471267700195">
        <ele>1226.821044921875</ele>
        <time>2018-10-12T13:11:17.000Z</time>
      </trkpt>
      <trkpt lat="31.0435523986816406" lon="-6.9715790748596191">
        <ele>1227.0</ele>
        <time>2018-10-12T13:11:18.000Z</time>
      </trkpt>
      <trkpt lat="31.0435886383056641" lon="-6.9716081619262695">
        <ele>1227.0</ele>
        <time>2018-10-12T13:11:19.000Z</time>
      </trkpt>
      <trkpt lat="31.0436210632324219" lon="-6.9716339111328125">
        <ele>1227.0</ele>
        <time>2018-10-12T13:11:20.000Z</time>
      </trkpt>
      <trkpt lat="31.0436515808105469" lon="-6.9716601371765137">
        <ele>1227.0</ele>
        <time>2018-10-12T13:11:21.000Z</time>
      </trkpt>
      <trkpt lat="31.0436763763427734" lon="-6.9716839790344238">
        <ele>1227.0</ele>
        <time>2018-10-12T13:11:22.000Z</time>
      </trkpt>
      <trkpt lat="31.0436992645263672" lon="-6.9717078208923340">
        <ele>1227.0</ele>
        <time>2018-10-12T13:11:23.000Z</time>
      </trkpt>
      <trkpt lat="31.0437240600585938" lon="-6.9717302322387695">
        <ele>1227.0</ele>
        <time>2018-10-12T13:11:24.000Z</time>
      </trkpt>
      <trkpt lat="31.0437526702880859" lon="-6.9717540740966797">
        <ele>1227.0</ele>
        <time>2018-10-12T13:11:25.000Z</time>
      </trkpt>
      <trkpt lat="31.0437812805175781" lon="-6.9717788696289062">
        <ele>1227.0</ele>
        <time>2018-10-12T13:11:26.000Z</time>
      </trkpt>
      <trkpt lat="31.0438137054443359" lon="-6.9718008041381836">
        <ele>1227.0</ele>
        <time>2018-10-12T13:11:27.000Z</time>
      </trkpt>
      <trkpt lat="31.0438423156738281" lon="-6.9718189239501953">
        <ele>1227.0</ele>
        <time>2018-10-12T13:11:28.000Z</time>
      </trkpt>
      <trkpt lat="31.0438690185546875" lon="-6.9718308448791504">
        <ele>1227.0</ele>
        <time>2018-10-12T13:11:29.000Z</time>
      </trkpt>
      <trkpt lat="31.0438976287841797" lon="-6.9718399047851562">
        <ele>1227.0</ele>
        <time>2018-10-12T13:11:30.000Z</time>
      </trkpt>
      <trkpt lat="31.0439281463623047" lon="-6.9718480110168457">
        <ele>1227.0</ele>
        <time>2018-10-12T13:11:31.000Z</time>
      </trkpt>
      <trkpt lat="31.0439605712890625" lon="-6.9718518257141113">
        <ele>1227.0</ele>
        <time>2018-10-12T13:11:32.000Z</time>
      </trkpt>
      <trkpt lat="31.0439949035644531" lon="-6.9718527793884277">
        <ele>1227.0</ele>
        <time>2018-10-12T13:11:33.000Z</time>
      </trkpt>
      <trkpt lat="31.0440254211425781" lon="-6.9718527793884277">
        <ele>1227.0</ele>
        <time>2018-10-12T13:11:34.000Z</time>
      </trkpt>
      <trkpt lat="31.0440540313720703" lon="-6.9718508720397949">
        <ele>1227.0</ele>
        <time>2018-10-12T13:11:35.000Z</time>
      </trkpt>
      <trkpt lat="31.0440807342529297" lon="-6.9718461036682129">
        <ele>1227.0</ele>
        <time>2018-10-12T13:11:36.000Z</time>
      </trkpt>
      <trkpt lat="31.0441055297851562" lon="-6.9718418121337891">
        <ele>1227.0</ele>
        <time>2018-10-12T13:11:37.000Z</time>
      </trkpt>
      <trkpt lat="31.0441341400146484" lon="-6.9718370437622070">
        <ele>1227.0</ele>
        <time>2018-10-12T13:11:38.000Z</time>
      </trkpt>
      <trkpt lat="31.0441684722900391" lon="-6.9718298912048340">
        <ele>1226.178955078125</ele>
        <time>2018-10-12T13:11:39.000Z</time>
      </trkpt>
      <trkpt lat="31.0442008972167969" lon="-6.9718198776245117">
        <ele>1226.0</ele>
        <time>2018-10-12T13:11:40.000Z</time>
      </trkpt>
      <trkpt lat="31.0442352294921875" lon="-6.9718089103698730">
        <ele>1226.0</ele>
        <time>2018-10-12T13:11:41.000Z</time>
      </trkpt>
      <trkpt lat="31.0442695617675781" lon="-6.9717979431152344">
        <ele>1226.0</ele>
        <time>2018-10-12T13:11:42.000Z</time>
      </trkpt>
      <trkpt lat="31.0443058013916016" lon="-6.9717879295349121">
        <ele>1226.0</ele>
        <time>2018-10-12T13:11:43.000Z</time>
      </trkpt>
      <trkpt lat="31.0443420410156250" lon="-6.9717788696289062">
        <ele>1226.0</ele>
        <time>2018-10-12T13:11:44.000Z</time>
      </trkpt>
      <trkpt lat="31.0443782806396484" lon="-6.9717688560485840">
        <ele>1226.0</ele>
        <time>2018-10-12T13:11:45.000Z</time>
      </trkpt>
      <trkpt lat="31.0444164276123047" lon="-6.9717559814453125">
        <ele>1226.0</ele>
        <time>2018-10-12T13:11:46.000Z</time>
      </trkpt>
      <trkpt lat="31.0444545745849609" lon="-6.9717431068420410">
        <ele>1226.0</ele>
        <time>2018-10-12T13:11:47.000Z</time>
      </trkpt>
      <trkpt lat="31.0444927215576172" lon="-6.9717302322387695">
        <ele>1226.0</ele>
        <time>2018-10-12T13:11:48.000Z</time>
      </trkpt>
      <trkpt lat="31.0445308685302734" lon="-6.9717168807983398">
        <ele>1226.0</ele>
        <time>2018-10-12T13:11:49.000Z</time>
      </trkpt>
      <trkpt lat="31.0445728302001953" lon="-6.9717049598693848">
        <ele>1226.0</ele>
        <time>2018-10-12T13:11:50.000Z</time>
      </trkpt>
      <trkpt lat="31.0446128845214844" lon="-6.9716949462890625">
        <ele>1226.0</ele>
        <time>2018-10-12T13:11:51.000Z</time>
      </trkpt>
      <trkpt lat="31.0446548461914062" lon="-6.9716858863830566">
        <ele>1226.0</ele>
        <time>2018-10-12T13:11:52.000Z</time>
      </trkpt>
      <trkpt lat="31.0446968078613281" lon="-6.9716768264770508">
        <ele>1226.0</ele>
        <time>2018-10-12T13:11:53.000Z</time>
      </trkpt>
      <trkpt lat="31.0447387695312500" lon="-6.9716677665710449">
        <ele>1226.0</ele>
        <time>2018-10-12T13:11:54.000Z</time>
      </trkpt>
      <trkpt lat="31.0447807312011719" lon="-6.9716601371765137">
        <ele>1226.0</ele>
        <time>2018-10-12T13:11:55.000Z</time>
      </trkpt>
      <trkpt lat="31.0448226928710938" lon="-6.9716539382934570">
        <ele>1226.0</ele>
        <time>2018-10-12T13:11:56.000Z</time>
      </trkpt>
      <trkpt lat="31.0448665618896484" lon="-6.9716491699218750">
        <ele>1226.0</ele>
        <time>2018-10-12T13:11:57.000Z</time>
      </trkpt>
      <trkpt lat="31.0449085235595703" lon="-6.9716429710388184">
        <ele>1226.0</ele>
        <time>2018-10-12T13:11:58.000Z</time>
      </trkpt>
      <trkpt lat="31.0449504852294922" lon="-6.9716367721557617">
        <ele>1226.0</ele>
        <time>2018-10-12T13:11:59.000Z</time>
      </trkpt>
      <trkpt lat="31.0449924468994141" lon="-6.9716320037841797">
        <ele>1226.0</ele>
        <time>2018-10-12T13:12:00.000Z</time>
      </trkpt>
      <trkpt lat="31.0450325012207031" lon="-6.9716258049011230">
        <ele>1226.0</ele>
        <time>2018-10-12T13:12:01.000Z</time>
      </trkpt>
      <trkpt lat="31.0450763702392578" lon="-6.9716191291809082">
        <ele>1226.0</ele>
        <time>2018-10-12T13:12:02.000Z</time>
      </trkpt>
      <trkpt lat="31.0451183319091797" lon="-6.9716110229492188">
        <ele>1226.0</ele>
        <time>2018-10-12T13:12:03.000Z</time>
      </trkpt>
      <trkpt lat="31.0451602935791016" lon="-6.9716029167175293">
        <ele>1226.0</ele>
        <time>2018-10-12T13:12:04.000Z</time>
      </trkpt>
      <trkpt lat="31.0452041625976562" lon="-6.9715957641601562">
        <ele>1226.0</ele>
        <time>2018-10-12T13:12:05.000Z</time>
      </trkpt>
      <trkpt lat="31.0452461242675781" lon="-6.9715890884399414">
        <ele>1226.0</ele>
        <time>2018-10-12T13:12:06.000Z</time>
      </trkpt>
      <trkpt lat="31.0452899932861328" lon="-6.9715828895568848">
        <ele>1226.0</ele>
        <time>2018-10-12T13:12:07.000Z</time>
      </trkpt>
      <trkpt lat="31.0453357696533203" lon="-6.9715771675109863">
        <ele>1226.0</ele>
        <time>2018-10-12T13:12:08.000Z</time>
      </trkpt>
      <trkpt lat="31.0453796386718750" lon="-6.9715728759765625">
        <ele>1226.0</ele>
        <time>2018-10-12T13:12:09.000Z</time>
      </trkpt>
      <trkpt lat="31.0454235076904297" lon="-6.9715690612792969">
        <ele>1226.0</ele>
        <time>2018-10-12T13:12:10.000Z</time>
      </trkpt>
      <trkpt lat="31.0454673767089844" lon="-6.9715662002563477">
        <ele>1226.0</ele>
        <time>2018-10-12T13:12:11.000Z</time>
      </trkpt>
      <trkpt lat="31.0455093383789062" lon="-6.9715628623962402">
        <ele>1226.0</ele>
        <time>2018-10-12T13:12:12.000Z</time>
      </trkpt>
      <trkpt lat="31.0455532073974609" lon="-6.9715600013732910">
        <ele>1226.0</ele>
        <time>2018-10-12T13:12:13.000Z</time>
      </trkpt>
      <trkpt lat="31.0455951690673828" lon="-6.9715580940246582">
        <ele>1226.0</ele>
        <time>2018-10-12T13:12:14.000Z</time>
      </trkpt>
      <trkpt lat="31.0456371307373047" lon="-6.9715580940246582">
        <ele>1226.0</ele>
        <time>2018-10-12T13:12:15.000Z</time>
      </trkpt>
      <trkpt lat="31.0456790924072266" lon="-6.9715590476989746">
        <ele>1226.0</ele>
        <time>2018-10-12T13:12:16.000Z</time>
      </trkpt>
      <trkpt lat="31.0457191467285156" lon="-6.9715628623962402">
        <ele>1226.0</ele>
        <time>2018-10-12T13:12:17.000Z</time>
      </trkpt>
      <trkpt lat="31.0457592010498047" lon="-6.9715681076049805">
        <ele>1226.0</ele>
        <time>2018-10-12T13:12:18.000Z</time>
      </trkpt>
      <trkpt lat="31.0457973480224609" lon="-6.9715762138366699">
        <ele>1226.0</ele>
        <time>2018-10-12T13:12:19.000Z</time>
      </trkpt>
      <trkpt lat="31.0458354949951172" lon="-6.9715847969055176">
        <ele>1226.0</ele>
        <time>2018-10-12T13:12:20.000Z</time>
      </trkpt>
      <trkpt lat="31.0458717346191406" lon="-6.9715957641601562">
        <ele>1226.0</ele>
        <time>2018-10-12T13:12:21.000Z</time>
      </trkpt>
      <trkpt lat="31.0459060668945312" lon="-6.9716091156005859">
        <ele>1226.0</ele>
        <time>2018-10-12T13:12:22.000Z</time>
      </trkpt>
      <trkpt lat="31.0459442138671875" lon="-6.9716248512268066">
        <ele>1226.0</ele>
        <time>2018-10-12T13:12:23.000Z</time>
      </trkpt>
      <trkpt lat="31.0459804534912109" lon="-6.9716410636901855">
        <ele>1226.0</ele>
        <time>2018-10-12T13:12:24.000Z</time>
      </trkpt>
      <trkpt lat="31.0460166931152344" lon="-6.9716548919677734">
        <ele>1226.821044921875</ele>
        <time>2018-10-12T13:12:25.000Z</time>
      </trkpt>
      <trkpt lat="31.0460548400878906" lon="-6.9716701507568359">
        <ele>1227.0</ele>
        <time>2018-10-12T13:12:26.000Z</time>
      </trkpt>
      <trkpt lat="31.0460891723632812" lon="-6.9716830253601074">
        <ele>1227.0</ele>
        <time>2018-10-12T13:12:27.000Z</time>
      </trkpt>
      <trkpt lat="31.0461235046386719" lon="-6.9716939926147461">
        <ele>1227.0</ele>
        <time>2018-10-12T13:12:28.000Z</time>
      </trkpt>
      <trkpt lat="31.0461559295654297" lon="-6.9717020988464355">
        <ele>1227.821044921875</ele>
        <time>2018-10-12T13:12:29.000Z</time>
      </trkpt>
      <trkpt lat="31.0461864471435547" lon="-6.9717087745666504">
        <ele>1228.0</ele>
        <time>2018-10-12T13:12:30.000Z</time>
      </trkpt>
      <trkpt lat="31.0462150573730469" lon="-6.9717140197753906">
        <ele>1228.0</ele>
        <time>2018-10-12T13:12:31.000Z</time>
      </trkpt>
      <trkpt lat="31.0462474822998047" lon="-6.9717178344726562">
        <ele>1228.0</ele>
        <time>2018-10-12T13:12:32.000Z</time>
      </trkpt>
      <trkpt lat="31.0462760925292969" lon="-6.9717202186584473">
        <ele>1228.0</ele>
        <time>2018-10-12T13:12:33.000Z</time>
      </trkpt>
      <trkpt lat="31.0463066101074219" lon="-6.9717230796813965">
        <ele>1228.0</ele>
        <time>2018-10-12T13:12:34.000Z</time>
      </trkpt>
      <trkpt lat="31.0463371276855469" lon="-6.9717249870300293">
        <ele>1228.0</ele>
        <time>2018-10-12T13:12:35.000Z</time>
      </trkpt>
      <trkpt lat="31.0463714599609375" lon="-6.9717278480529785">
        <ele>1228.0</ele>
        <time>2018-10-12T13:12:36.000Z</time>
      </trkpt>
      <trkpt lat="31.0464057922363281" lon="-6.9717302322387695">
        <ele>1228.0</ele>
        <time>2018-10-12T13:12:37.000Z</time>
      </trkpt>
      <trkpt lat="31.0464401245117188" lon="-6.9717321395874023">
        <ele>1228.0</ele>
        <time>2018-10-12T13:12:38.000Z</time>
      </trkpt>
      <trkpt lat="31.0464763641357422" lon="-6.9717350006103516">
        <ele>1228.0</ele>
        <time>2018-10-12T13:12:39.000Z</time>
      </trkpt>
      <trkpt lat="31.0465126037597656" lon="-6.9717397689819336">
        <ele>1228.0</ele>
        <time>2018-10-12T13:12:40.000Z</time>
      </trkpt>
      <trkpt lat="31.0465507507324219" lon="-6.9717431068420410">
        <ele>1228.0</ele>
        <time>2018-10-12T13:12:41.000Z</time>
      </trkpt>
      <trkpt lat="31.0465888977050781" lon="-6.9717431068420410">
        <ele>1228.0</ele>
        <time>2018-10-12T13:12:42.000Z</time>
      </trkpt>
      <trkpt lat="31.0466289520263672" lon="-6.9717397689819336">
        <ele>1228.0</ele>
        <time>2018-10-12T13:12:43.000Z</time>
      </trkpt>
      <trkpt lat="31.0466690063476562" lon="-6.9717397689819336">
        <ele>1228.0</ele>
        <time>2018-10-12T13:12:44.000Z</time>
      </trkpt>
      <trkpt lat="31.0467090606689453" lon="-6.9717421531677246">
        <ele>1228.0</ele>
        <time>2018-10-12T13:12:45.000Z</time>
      </trkpt>
      <trkpt lat="31.0467491149902344" lon="-6.9717431068420410">
        <ele>1228.0</ele>
        <time>2018-10-12T13:12:46.000Z</time>
      </trkpt>
      <trkpt lat="31.0467891693115234" lon="-6.9717421531677246">
        <ele>1228.0</ele>
        <time>2018-10-12T13:12:47.000Z</time>
      </trkpt>
      <trkpt lat="31.0468292236328125" lon="-6.9717378616333008">
        <ele>1228.0</ele>
        <time>2018-10-12T13:12:48.000Z</time>
      </trkpt>
      <trkpt lat="31.0468692779541016" lon="-6.9717302322387695">
        <ele>1228.0</ele>
        <time>2018-10-12T13:12:49.000Z</time>
      </trkpt>
      <trkpt lat="31.0469093322753906" lon="-6.9717187881469727">
        <ele>1228.0</ele>
        <time>2018-10-12T13:12:50.000Z</time>
      </trkpt>
      <trkpt lat="31.0469455718994141" lon="-6.9717059135437012">
        <ele>1228.0</ele>
        <time>2018-10-12T13:12:51.000Z</time>
      </trkpt>
      <trkpt lat="31.0469799041748047" lon="-6.9716911315917969">
        <ele>1228.0</ele>
        <time>2018-10-12T13:12:52.000Z</time>
      </trkpt>
      <trkpt lat="31.0470123291015625" lon="-6.9716749191284180">
        <ele>1228.0</ele>
        <time>2018-10-12T13:12:53.000Z</time>
      </trkpt>
      <trkpt lat="31.0470409393310547" lon="-6.9716591835021973">
        <ele>1228.0</ele>
        <time>2018-10-12T13:12:54.000Z</time>
      </trkpt>
      <trkpt lat="31.0470657348632812" lon="-6.9716439247131348">
        <ele>1228.0</ele>
        <time>2018-10-12T13:12:55.000Z</time>
      </trkpt>
      <trkpt lat="31.0470924377441406" lon="-6.9716320037841797">
        <ele>1228.0</ele>
        <time>2018-10-12T13:12:56.000Z</time>
      </trkpt>
      <trkpt lat="31.0471210479736328" lon="-6.9716210365295410">
        <ele>1228.0</ele>
        <time>2018-10-12T13:12:57.000Z</time>
      </trkpt>
      <trkpt lat="31.0471534729003906" lon="-6.9716072082519531">
        <ele>1228.0</ele>
        <time>2018-10-12T13:12:58.000Z</time>
      </trkpt>
      <trkpt lat="31.0471878051757812" lon="-6.9715919494628906">
        <ele>1228.0</ele>
        <time>2018-10-12T13:12:59.000Z</time>
      </trkpt>
      <trkpt lat="31.0472259521484375" lon="-6.9715800285339355">
        <ele>1228.0</ele>
        <time>2018-10-12T13:13:00.000Z</time>
      </trkpt>
      <trkpt lat="31.0472621917724609" lon="-6.9715690612792969">
        <ele>1228.0</ele>
        <time>2018-10-12T13:13:01.000Z</time>
      </trkpt>
      <trkpt lat="31.0473003387451172" lon="-6.9715571403503418">
        <ele>1228.0</ele>
        <time>2018-10-12T13:13:02.000Z</time>
      </trkpt>
      <trkpt lat="31.0473365783691406" lon="-6.9715437889099121">
        <ele>1228.0</ele>
        <time>2018-10-12T13:13:03.000Z</time>
      </trkpt>
      <trkpt lat="31.0473709106445312" lon="-6.9715318679809570">
        <ele>1228.0</ele>
        <time>2018-10-12T13:13:04.000Z</time>
      </trkpt>
      <trkpt lat="31.0474071502685547" lon="-6.9715180397033691">
        <ele>1228.0</ele>
        <time>2018-10-12T13:13:05.000Z</time>
      </trkpt>
      <trkpt lat="31.0474452972412109" lon="-6.9715018272399902">
        <ele>1228.0</ele>
        <time>2018-10-12T13:13:06.000Z</time>
      </trkpt>
      <trkpt lat="31.0474815368652344" lon="-6.9714879989624023">
        <ele>1228.0</ele>
        <time>2018-10-12T13:13:07.000Z</time>
      </trkpt>
      <trkpt lat="31.0475196838378906" lon="-6.9714732170104980">
        <ele>1228.0</ele>
        <time>2018-10-12T13:13:08.000Z</time>
      </trkpt>
      <trkpt lat="31.0475559234619141" lon="-6.9714579582214355">
        <ele>1227.178955078125</ele>
        <time>2018-10-12T13:13:09.000Z</time>
      </trkpt>
      <trkpt lat="31.0475883483886719" lon="-6.9714422225952148">
        <ele>1227.821044921875</ele>
        <time>2018-10-12T13:13:10.000Z</time>
      </trkpt>
      <trkpt lat="31.0476226806640625" lon="-6.9714279174804688">
        <ele>1228.0</ele>
        <time>2018-10-12T13:13:11.000Z</time>
      </trkpt>
      <trkpt lat="31.0476608276367188" lon="-6.9714140892028809">
        <ele>1228.0</ele>
        <time>2018-10-12T13:13:12.000Z</time>
      </trkpt>
      <trkpt lat="31.0476951599121094" lon="-6.9714012145996094">
        <ele>1228.0</ele>
        <time>2018-10-12T13:13:13.000Z</time>
      </trkpt>
      <trkpt lat="31.0477333068847656" lon="-6.9713888168334961">
        <ele>1228.0</ele>
        <time>2018-10-12T13:13:14.000Z</time>
      </trkpt>
      <trkpt lat="31.0477733612060547" lon="-6.9713759422302246">
        <ele>1228.0</ele>
        <time>2018-10-12T13:13:15.000Z</time>
      </trkpt>
      <trkpt lat="31.0478115081787109" lon="-6.9713621139526367">
        <ele>1228.0</ele>
        <time>2018-10-12T13:13:16.000Z</time>
      </trkpt>
      <trkpt lat="31.0478515625000000" lon="-6.9713487625122070">
        <ele>1228.0</ele>
        <time>2018-10-12T13:13:17.000Z</time>
      </trkpt>
      <trkpt lat="31.0478916168212891" lon="-6.9713358879089355">
        <ele>1228.0</ele>
        <time>2018-10-12T13:13:18.000Z</time>
      </trkpt>
      <trkpt lat="31.0479335784912109" lon="-6.9713249206542969">
        <ele>1228.0</ele>
        <time>2018-10-12T13:13:19.000Z</time>
      </trkpt>
      <trkpt lat="31.0479755401611328" lon="-6.9713129997253418">
        <ele>1228.0</ele>
        <time>2018-10-12T13:13:20.000Z</time>
      </trkpt>
      <trkpt lat="31.0480155944824219" lon="-6.9713001251220703">
        <ele>1228.0</ele>
        <time>2018-10-12T13:13:21.000Z</time>
      </trkpt>
      <trkpt lat="31.0480575561523438" lon="-6.9712858200073242">
        <ele>1228.0</ele>
        <time>2018-10-12T13:13:22.000Z</time>
      </trkpt>
      <trkpt lat="31.0480995178222656" lon="-6.9712719917297363">
        <ele>1228.0</ele>
        <time>2018-10-12T13:13:23.000Z</time>
      </trkpt>
      <trkpt lat="31.0481395721435547" lon="-6.9712591171264648">
        <ele>1228.0</ele>
        <time>2018-10-12T13:13:24.000Z</time>
      </trkpt>
      <trkpt lat="31.0481834411621094" lon="-6.9712457656860352">
        <ele>1228.0</ele>
        <time>2018-10-12T13:13:25.000Z</time>
      </trkpt>
      <trkpt lat="31.0482215881347656" lon="-6.9712328910827637">
        <ele>1228.0</ele>
        <time>2018-10-12T13:13:26.000Z</time>
      </trkpt>
      <trkpt lat="31.0482616424560547" lon="-6.9712190628051758">
        <ele>1228.0</ele>
        <time>2018-10-12T13:13:27.000Z</time>
      </trkpt>
      <trkpt lat="31.0483036041259766" lon="-6.9712052345275879">
        <ele>1228.0</ele>
        <time>2018-10-12T13:13:28.000Z</time>
      </trkpt>
      <trkpt lat="31.0483417510986328" lon="-6.9711918830871582">
        <ele>1228.0</ele>
        <time>2018-10-12T13:13:29.000Z</time>
      </trkpt>
      <trkpt lat="31.0483818054199219" lon="-6.9711790084838867">
        <ele>1228.0</ele>
        <time>2018-10-12T13:13:30.000Z</time>
      </trkpt>
      <trkpt lat="31.0484237670898438" lon="-6.9711661338806152">
        <ele>1228.0</ele>
        <time>2018-10-12T13:13:31.000Z</time>
      </trkpt>
      <trkpt lat="31.0484638214111328" lon="-6.9711542129516602">
        <ele>1228.0</ele>
        <time>2018-10-12T13:13:32.000Z</time>
      </trkpt>
      <trkpt lat="31.0485057830810547" lon="-6.9711441993713379">
        <ele>1228.0</ele>
        <time>2018-10-12T13:13:33.000Z</time>
      </trkpt>
      <trkpt lat="31.0485477447509766" lon="-6.9711332321166992">
        <ele>1228.0</ele>
        <time>2018-10-12T13:13:34.000Z</time>
      </trkpt>
      <trkpt lat="31.0485916137695312" lon="-6.9711241722106934">
        <ele>1228.0</ele>
        <time>2018-10-12T13:13:35.000Z</time>
      </trkpt>
      <trkpt lat="31.0486335754394531" lon="-6.9711151123046875">
        <ele>1228.0</ele>
        <time>2018-10-12T13:13:36.000Z</time>
      </trkpt>
      <trkpt lat="31.0486736297607422" lon="-6.9711060523986816">
        <ele>1228.0</ele>
        <time>2018-10-12T13:13:37.000Z</time>
      </trkpt>
      <trkpt lat="31.0487155914306641" lon="-6.9710969924926758">
        <ele>1228.0</ele>
        <time>2018-10-12T13:13:38.000Z</time>
      </trkpt>
      <trkpt lat="31.0487575531005859" lon="-6.9710898399353027">
        <ele>1228.0</ele>
        <time>2018-10-12T13:13:39.000Z</time>
      </trkpt>
      <trkpt lat="31.0488014221191406" lon="-6.9710841178894043">
        <ele>1228.0</ele>
        <time>2018-10-12T13:13:40.000Z</time>
      </trkpt>
      <trkpt lat="31.0488433837890625" lon="-6.9710788726806641">
        <ele>1228.0</ele>
        <time>2018-10-12T13:13:41.000Z</time>
      </trkpt>
      <trkpt lat="31.0488872528076172" lon="-6.9710750579833984">
        <ele>1228.0</ele>
        <time>2018-10-12T13:13:42.000Z</time>
      </trkpt>
      <trkpt lat="31.0489311218261719" lon="-6.9710721969604492">
        <ele>1228.0</ele>
        <time>2018-10-12T13:13:43.000Z</time>
      </trkpt>
      <trkpt lat="31.0489749908447266" lon="-6.9710698127746582">
        <ele>1228.0</ele>
        <time>2018-10-12T13:13:44.000Z</time>
      </trkpt>
      <trkpt lat="31.0490207672119141" lon="-6.9710679054260254">
        <ele>1228.821044921875</ele>
        <time>2018-10-12T13:13:45.000Z</time>
      </trkpt>
      <trkpt lat="31.0490646362304688" lon="-6.9710640907287598">
        <ele>1229.0</ele>
        <time>2018-10-12T13:13:46.000Z</time>
      </trkpt>
      <trkpt lat="31.0491065979003906" lon="-6.9710588455200195">
        <ele>1229.0</ele>
        <time>2018-10-12T13:13:47.000Z</time>
      </trkpt>
      <trkpt lat="31.0491504669189453" lon="-6.9710531234741211">
        <ele>1229.0</ele>
        <time>2018-10-12T13:13:48.000Z</time>
      </trkpt>
      <trkpt lat="31.0491924285888672" lon="-6.9710450172424316">
        <ele>1229.0</ele>
        <time>2018-10-12T13:13:49.000Z</time>
      </trkpt>
      <trkpt lat="31.0492324829101562" lon="-6.9710350036621094">
        <ele>1229.821044921875</ele>
        <time>2018-10-12T13:13:50.000Z</time>
      </trkpt>
      <trkpt lat="31.0492725372314453" lon="-6.9710278511047363">
        <ele>1230.0</ele>
        <time>2018-10-12T13:13:51.000Z</time>
      </trkpt>
      <trkpt lat="31.0493106842041016" lon="-6.9710230827331543">
        <ele>1230.0</ele>
        <time>2018-10-12T13:13:52.000Z</time>
      </trkpt>
      <trkpt lat="31.0493488311767578" lon="-6.9710202217102051">
        <ele>1230.0</ele>
        <time>2018-10-12T13:13:53.000Z</time>
      </trkpt>
      <trkpt lat="31.0493927001953125" lon="-6.9710221290588379">
        <ele>1230.0</ele>
        <time>2018-10-12T13:13:54.000Z</time>
      </trkpt>
      <trkpt lat="31.0494346618652344" lon="-6.9710268974304199">
        <ele>1230.0</ele>
        <time>2018-10-12T13:13:55.000Z</time>
      </trkpt>
      <trkpt lat="31.0494747161865234" lon="-6.9710340499877930">
        <ele>1230.0</ele>
        <time>2018-10-12T13:13:56.000Z</time>
      </trkpt>
      <trkpt lat="31.0495147705078125" lon="-6.9710431098937988">
        <ele>1230.0</ele>
        <time>2018-10-12T13:13:57.000Z</time>
      </trkpt>
      <trkpt lat="31.0495548248291016" lon="-6.9710550308227539">
        <ele>1230.0</ele>
        <time>2018-10-12T13:13:58.000Z</time>
      </trkpt>
      <trkpt lat="31.0495948791503906" lon="-6.9710688591003418">
        <ele>1230.0</ele>
        <time>2018-10-12T13:13:59.000Z</time>
      </trkpt>
      <trkpt lat="31.0496311187744141" lon="-6.9710850715637207">
        <ele>1230.0</ele>
        <time>2018-10-12T13:14:00.000Z</time>
      </trkpt>
      <trkpt lat="31.0496692657470703" lon="-6.9711022377014160">
        <ele>1230.821044921875</ele>
        <time>2018-10-12T13:14:01.000Z</time>
      </trkpt>
      <trkpt lat="31.0497074127197266" lon="-6.9711217880249023">
        <ele>1231.0</ele>
        <time>2018-10-12T13:14:02.000Z</time>
      </trkpt>
      <trkpt lat="31.0497455596923828" lon="-6.9711399078369141">
        <ele>1230.178955078125</ele>
        <time>2018-10-12T13:14:03.000Z</time>
      </trkpt>
      <trkpt lat="31.0497837066650391" lon="-6.9711599349975586">
        <ele>1230.0</ele>
        <time>2018-10-12T13:14:04.000Z</time>
      </trkpt>
      <trkpt lat="31.0498237609863281" lon="-6.9711799621582031">
        <ele>1230.0</ele>
        <time>2018-10-12T13:14:05.000Z</time>
      </trkpt>
      <trkpt lat="31.0498638153076172" lon="-6.9712018966674805">
        <ele>1230.0</ele>
        <time>2018-10-12T13:14:06.000Z</time>
      </trkpt>
      <trkpt lat="31.0499057769775391" lon="-6.9712262153625488">
        <ele>1230.0</ele>
        <time>2018-10-12T13:14:07.000Z</time>
      </trkpt>
      <trkpt lat="31.0499477386474609" lon="-6.9712481498718262">
        <ele>1230.0</ele>
        <time>2018-10-12T13:14:08.000Z</time>
      </trkpt>
      <trkpt lat="31.0499897003173828" lon="-6.9712710380554199">
        <ele>1230.0</ele>
        <time>2018-10-12T13:14:09.000Z</time>
      </trkpt>
      <trkpt lat="31.0500316619873047" lon="-6.9712939262390137">
        <ele>1230.0</ele>
        <time>2018-10-12T13:14:10.000Z</time>
      </trkpt>
      <trkpt lat="31.0500717163085938" lon="-6.9713139533996582">
        <ele>1230.0</ele>
        <time>2018-10-12T13:14:11.000Z</time>
      </trkpt>
      <trkpt lat="31.0501117706298828" lon="-6.9713320732116699">
        <ele>1230.0</ele>
        <time>2018-10-12T13:14:12.000Z</time>
      </trkpt>
      <trkpt lat="31.0501518249511719" lon="-6.9713501930236816">
        <ele>1230.0</ele>
        <time>2018-10-12T13:14:13.000Z</time>
      </trkpt>
      <trkpt lat="31.0501918792724609" lon="-6.9713649749755859">
        <ele>1230.0</ele>
        <time>2018-10-12T13:14:14.000Z</time>
      </trkpt>
      <trkpt lat="31.0502319335937500" lon="-6.9713788032531738">
        <ele>1230.0</ele>
        <time>2018-10-12T13:14:15.000Z</time>
      </trkpt>
      <trkpt lat="31.0502738952636719" lon="-6.9713940620422363">
        <ele>1230.0</ele>
        <time>2018-10-12T13:14:16.000Z</time>
      </trkpt>
      <trkpt lat="31.0503158569335938" lon="-6.9714097976684570">
        <ele>1230.0</ele>
        <time>2018-10-12T13:14:17.000Z</time>
      </trkpt>
      <trkpt lat="31.0503578186035156" lon="-6.9714279174804688">
        <ele>1230.0</ele>
        <time>2018-10-12T13:14:18.000Z</time>
      </trkpt>
      <trkpt lat="31.0503978729248047" lon="-6.9714479446411133">
        <ele>1230.0</ele>
        <time>2018-10-12T13:14:19.000Z</time>
      </trkpt>
      <trkpt lat="31.0504341125488281" lon="-6.9714717864990234">
        <ele>1230.0</ele>
        <time>2018-10-12T13:14:20.000Z</time>
      </trkpt>
      <trkpt lat="31.0504665374755859" lon="-6.9714961051940918">
        <ele>1230.0</ele>
        <time>2018-10-12T13:14:21.000Z</time>
      </trkpt>
      <trkpt lat="31.0504951477050781" lon="-6.9715237617492676">
        <ele>1230.0</ele>
        <time>2018-10-12T13:14:22.000Z</time>
      </trkpt>
      <trkpt lat="31.0505218505859375" lon="-6.9715499877929688">
        <ele>1230.0</ele>
        <time>2018-10-12T13:14:23.000Z</time>
      </trkpt>
      <trkpt lat="31.0505466461181641" lon="-6.9715719223022461">
        <ele>1229.2520751953125</ele>
        <time>2018-10-12T13:14:24.000Z</time>
      </trkpt>
      <trkpt lat="31.0505676269531250" lon="-6.9715981483459473">
        <ele>1229.0</ele>
        <time>2018-10-12T13:14:25.000Z</time>
      </trkpt>
      <trkpt lat="31.0505905151367188" lon="-6.9716258049011230">
        <ele>1229.0</ele>
        <time>2018-10-12T13:14:26.000Z</time>
      </trkpt>
      <trkpt lat="31.0506153106689453" lon="-6.9716582298278809">
        <ele>1229.0</ele>
        <time>2018-10-12T13:14:27.000Z</time>
      </trkpt>
      <trkpt lat="31.0506477355957031" lon="-6.9716901779174805">
        <ele>1229.0</ele>
        <time>2018-10-12T13:14:28.000Z</time>
      </trkpt>
      <trkpt lat="31.0506820678710938" lon="-6.9717221260070801">
        <ele>1229.0</ele>
        <time>2018-10-12T13:14:29.000Z</time>
      </trkpt>
      <trkpt lat="31.0507164001464844" lon="-6.9717540740966797">
        <ele>1229.0</ele>
        <time>2018-10-12T13:14:30.000Z</time>
      </trkpt>
      <trkpt lat="31.0507488250732422" lon="-6.9717841148376465">
        <ele>1229.0</ele>
        <time>2018-10-12T13:14:31.000Z</time>
      </trkpt>
      <trkpt lat="31.0507774353027344" lon="-6.9718160629272461">
        <ele>1229.0</ele>
        <time>2018-10-12T13:14:32.000Z</time>
      </trkpt>
      <trkpt lat="31.0508041381835938" lon="-6.9718451499938965">
        <ele>1229.0</ele>
        <time>2018-10-12T13:14:33.000Z</time>
      </trkpt>
      <trkpt lat="31.0508270263671875" lon="-6.9718742370605469">
        <ele>1229.0</ele>
        <time>2018-10-12T13:14:34.000Z</time>
      </trkpt>
      <trkpt lat="31.0508460998535156" lon="-6.9719018936157227">
        <ele>1229.0</ele>
        <time>2018-10-12T13:14:35.000Z</time>
      </trkpt>
      <trkpt lat="31.0508708953857422" lon="-6.9719300270080566">
        <ele>1229.0</ele>
        <time>2018-10-12T13:14:36.000Z</time>
      </trkpt>
      <trkpt lat="31.0508937835693359" lon="-6.9719619750976562">
        <ele>1229.0</ele>
        <time>2018-10-12T13:14:37.000Z</time>
      </trkpt>
      <trkpt lat="31.0509204864501953" lon="-6.9719939231872559">
        <ele>1229.0</ele>
        <time>2018-10-12T13:14:38.000Z</time>
      </trkpt>
      <trkpt lat="31.0509471893310547" lon="-6.9720258712768555">
        <ele>1229.0</ele>
        <time>2018-10-12T13:14:39.000Z</time>
      </trkpt>
      <trkpt lat="31.0509777069091797" lon="-6.9720578193664551">
        <ele>1229.0</ele>
        <time>2018-10-12T13:14:40.000Z</time>
      </trkpt>
      <trkpt lat="31.0510101318359375" lon="-6.9720897674560547">
        <ele>1229.821044921875</ele>
        <time>2018-10-12T13:14:41.000Z</time>
      </trkpt>
      <trkpt lat="31.0510425567626953" lon="-6.9721221923828125">
        <ele>1230.0</ele>
        <time>2018-10-12T13:14:42.000Z</time>
      </trkpt>
      <trkpt lat="31.0510768890380859" lon="-6.9721508026123047">
        <ele>1230.0</ele>
        <time>2018-10-12T13:14:43.000Z</time>
      </trkpt>
      <trkpt lat="31.0511074066162109" lon="-6.9721789360046387">
        <ele>1230.0</ele>
        <time>2018-10-12T13:14:44.000Z</time>
      </trkpt>
      <trkpt lat="31.0511398315429688" lon="-6.9722080230712891">
        <ele>1230.0</ele>
        <time>2018-10-12T13:14:45.000Z</time>
      </trkpt>
      <trkpt lat="31.0511684417724609" lon="-6.9722361564636230">
        <ele>1230.0</ele>
        <time>2018-10-12T13:14:46.000Z</time>
      </trkpt>
      <trkpt lat="31.0511970520019531" lon="-6.9722628593444824">
        <ele>1230.0</ele>
        <time>2018-10-12T13:14:47.000Z</time>
      </trkpt>
      <trkpt lat="31.0512256622314453" lon="-6.9722871780395508">
        <ele>1230.0</ele>
        <time>2018-10-12T13:14:48.000Z</time>
      </trkpt>
      <trkpt lat="31.0512504577636719" lon="-6.9723100662231445">
        <ele>1230.0</ele>
        <time>2018-10-12T13:14:49.000Z</time>
      </trkpt>
      <trkpt lat="31.0512752532958984" lon="-6.9723320007324219">
        <ele>1230.0</ele>
        <time>2018-10-12T13:14:50.000Z</time>
      </trkpt>
      <trkpt lat="31.0513000488281250" lon="-6.9723539352416992">
        <ele>1230.0</ele>
        <time>2018-10-12T13:14:51.000Z</time>
      </trkpt>
      <trkpt lat="31.0513248443603516" lon="-6.9723758697509766">
        <ele>1230.0</ele>
        <time>2018-10-12T13:14:52.000Z</time>
      </trkpt>
      <trkpt lat="31.0513458251953125" lon="-6.9723978042602539">
        <ele>1230.0</ele>
        <time>2018-10-12T13:14:53.000Z</time>
      </trkpt>
      <trkpt lat="31.0513687133789062" lon="-6.9724178314208984">
        <ele>1230.0</ele>
        <time>2018-10-12T13:14:54.000Z</time>
      </trkpt>
      <trkpt lat="31.0513916015625000" lon="-6.9724359512329102">
        <ele>1230.0</ele>
        <time>2018-10-12T13:14:55.000Z</time>
      </trkpt>
      <trkpt lat="31.0514144897460938" lon="-6.9724521636962891">
        <ele>1230.0</ele>
        <time>2018-10-12T13:14:56.000Z</time>
      </trkpt>
      <trkpt lat="31.0514373779296875" lon="-6.9724621772766113">
        <ele>1230.821044921875</ele>
        <time>2018-10-12T13:14:57.000Z</time>
      </trkpt>
      <trkpt lat="31.0514602661132812" lon="-6.9724640846252441">
        <ele>1231.0</ele>
        <time>2018-10-12T13:14:58.000Z</time>
      </trkpt>
      <trkpt lat="31.0514812469482422" lon="-6.9724640846252441">
        <ele>1231.0</ele>
        <time>2018-10-12T13:14:59.000Z</time>
      </trkpt>
      <trkpt lat="31.0515022277832031" lon="-6.9724597930908203">
        <ele>1231.0</ele>
        <time>2018-10-12T13:15:00.000Z</time>
      </trkpt>
      <trkpt lat="31.0515232086181641" lon="-6.9724540710449219">
        <ele>1231.0</ele>
        <time>2018-10-12T13:15:01.000Z</time>
      </trkpt>
      <trkpt lat="31.0515441894531250" lon="-6.9724450111389160">
        <ele>1231.0</ele>
        <time>2018-10-12T13:15:02.000Z</time>
      </trkpt>
      <trkpt lat="31.0515613555908203" lon="-6.9724349975585938">
        <ele>1231.0</ele>
        <time>2018-10-12T13:15:03.000Z</time>
      </trkpt>
      <trkpt lat="31.0515804290771484" lon="-6.9724249839782715">
        <ele>1231.0</ele>
        <time>2018-10-12T13:15:04.000Z</time>
      </trkpt>
      <trkpt lat="31.0515975952148438" lon="-6.9724121093750000">
        <ele>1231.797119140625</ele>
        <time>2018-10-12T13:15:05.000Z</time>
      </trkpt>
      <trkpt lat="31.0516166687011719" lon="-6.9723978042602539">
        <ele>1232.0</ele>
        <time>2018-10-12T13:15:06.000Z</time>
      </trkpt>
      <trkpt lat="31.0516338348388672" lon="-6.9723839759826660">
        <ele>1232.0</ele>
        <time>2018-10-12T13:15:07.000Z</time>
      </trkpt>
      <trkpt lat="31.0516529083251953" lon="-6.9723701477050781">
        <ele>1232.0</ele>
        <time>2018-10-12T13:15:08.000Z</time>
      </trkpt>
      <trkpt lat="31.0516700744628906" lon="-6.9723539352416992">
        <ele>1232.0</ele>
        <time>2018-10-12T13:15:09.000Z</time>
      </trkpt>
      <trkpt lat="31.0516872406005859" lon="-6.9723401069641113">
        <ele>1232.0</ele>
        <time>2018-10-12T13:15:10.000Z</time>
      </trkpt>
      <trkpt lat="31.0517063140869141" lon="-6.9723248481750488">
        <ele>1232.0</ele>
        <time>2018-10-12T13:15:11.000Z</time>
      </trkpt>
      <trkpt lat="31.0517234802246094" lon="-6.9723110198974609">
        <ele>1232.0</ele>
        <time>2018-10-12T13:15:12.000Z</time>
      </trkpt>
      <trkpt lat="31.0517425537109375" lon="-6.9722971916198730">
        <ele>1232.0</ele>
        <time>2018-10-12T13:15:13.000Z</time>
      </trkpt>
      <trkpt lat="31.0517616271972656" lon="-6.9722828865051270">
        <ele>1232.0</ele>
        <time>2018-10-12T13:15:14.000Z</time>
      </trkpt>
      <trkpt lat="31.0517826080322266" lon="-6.9722700119018555">
        <ele>1232.0</ele>
        <time>2018-10-12T13:15:15.000Z</time>
      </trkpt>
      <trkpt lat="31.0518035888671875" lon="-6.9722571372985840">
        <ele>1232.0</ele>
        <time>2018-10-12T13:15:16.000Z</time>
      </trkpt>
      <trkpt lat="31.0518245697021484" lon="-6.9722452163696289">
        <ele>1232.0</ele>
        <time>2018-10-12T13:15:17.000Z</time>
      </trkpt>
      <trkpt lat="31.0518474578857422" lon="-6.9722318649291992">
        <ele>1232.821044921875</ele>
        <time>2018-10-12T13:15:18.000Z</time>
      </trkpt>
      <trkpt lat="31.0518703460693359" lon="-6.9722189903259277">
        <ele>1233.0</ele>
        <time>2018-10-12T13:15:19.000Z</time>
      </trkpt>
      <trkpt lat="31.0518932342529297" lon="-6.9722051620483398">
        <ele>1233.0</ele>
        <time>2018-10-12T13:15:20.000Z</time>
      </trkpt>
      <trkpt lat="31.0519180297851562" lon="-6.9721951484680176">
        <ele>1233.0</ele>
        <time>2018-10-12T13:15:21.000Z</time>
      </trkpt>
      <trkpt lat="31.0519466400146484" lon="-6.9721860885620117">
        <ele>1233.0</ele>
        <time>2018-10-12T13:15:22.000Z</time>
      </trkpt>
      <trkpt lat="31.0519752502441406" lon="-6.9721789360046387">
        <ele>1233.0</ele>
        <time>2018-10-12T13:15:23.000Z</time>
      </trkpt>
      <trkpt lat="31.0520038604736328" lon="-6.9721732139587402">
        <ele>1233.0</ele>
        <time>2018-10-12T13:15:24.000Z</time>
      </trkpt>
      <trkpt lat="31.0520343780517578" lon="-6.9721689224243164">
        <ele>1233.0</ele>
        <time>2018-10-12T13:15:25.000Z</time>
      </trkpt>
      <trkpt lat="31.0520610809326172" lon="-6.9721651077270508">
        <ele>1233.0</ele>
        <time>2018-10-12T13:15:26.000Z</time>
      </trkpt>
      <trkpt lat="31.0520896911621094" lon="-6.9721651077270508">
        <ele>1233.0</ele>
        <time>2018-10-12T13:15:27.000Z</time>
      </trkpt>
      <trkpt lat="31.0521202087402344" lon="-6.9721660614013672">
        <ele>1233.0</ele>
        <time>2018-10-12T13:15:28.000Z</time>
      </trkpt>
      <trkpt lat="31.0521507263183594" lon="-6.9721641540527344">
        <ele>1233.0</ele>
        <time>2018-10-12T13:15:29.000Z</time>
      </trkpt>
      <trkpt lat="31.0521812438964844" lon="-6.9721598625183105">
        <ele>1233.0</ele>
        <time>2018-10-12T13:15:30.000Z</time>
      </trkpt>
      <trkpt lat="31.0522136688232422" lon="-6.9721589088439941">
        <ele>1233.0</ele>
        <time>2018-10-12T13:15:31.000Z</time>
      </trkpt>
      <trkpt lat="31.0522460937500000" lon="-6.9721579551696777">
        <ele>1233.0</ele>
        <time>2018-10-12T13:15:32.000Z</time>
      </trkpt>
      <trkpt lat="31.0522804260253906" lon="-6.9721570014953613">
        <ele>1233.0</ele>
        <time>2018-10-12T13:15:33.000Z</time>
      </trkpt>
      <trkpt lat="31.0523147583007812" lon="-6.9721541404724121">
        <ele>1233.0</ele>
        <time>2018-10-12T13:15:34.000Z</time>
      </trkpt>
      <trkpt lat="31.0523452758789062" lon="-6.9721522331237793">
        <ele>1233.0</ele>
        <time>2018-10-12T13:15:35.000Z</time>
      </trkpt>
      <trkpt lat="31.0523757934570312" lon="-6.9721498489379883">
        <ele>1233.0</ele>
        <time>2018-10-12T13:15:36.000Z</time>
      </trkpt>
      <trkpt lat="31.0524024963378906" lon="-6.9721488952636719">
        <ele>1233.0</ele>
        <time>2018-10-12T13:15:37.000Z</time>
      </trkpt>
      <trkpt lat="31.0524311065673828" lon="-6.9721488952636719">
        <ele>1233.0</ele>
        <time>2018-10-12T13:15:38.000Z</time>
      </trkpt>
      <trkpt lat="31.0524616241455078" lon="-6.9721479415893555">
        <ele>1233.0</ele>
        <time>2018-10-12T13:15:39.000Z</time>
      </trkpt>
      <trkpt lat="31.0524902343750000" lon="-6.9721469879150391">
        <ele>1233.0</ele>
        <time>2018-10-12T13:15:40.000Z</time>
      </trkpt>
      <trkpt lat="31.0525207519531250" lon="-6.9721469879150391">
        <ele>1233.0</ele>
        <time>2018-10-12T13:15:41.000Z</time>
      </trkpt>
      <trkpt lat="31.0525493621826172" lon="-6.9721479415893555">
        <ele>1233.0</ele>
        <time>2018-10-12T13:15:42.000Z</time>
      </trkpt>
      <trkpt lat="31.0525817871093750" lon="-6.9721488952636719">
        <ele>1233.0</ele>
        <time>2018-10-12T13:15:43.000Z</time>
      </trkpt>
      <trkpt lat="31.0526123046875000" lon="-6.9721479415893555">
        <ele>1233.0</ele>
        <time>2018-10-12T13:15:44.000Z</time>
      </trkpt>
      <trkpt lat="31.0526447296142578" lon="-6.9721479415893555">
        <ele>1233.0</ele>
        <time>2018-10-12T13:15:45.000Z</time>
      </trkpt>
      <trkpt lat="31.0526771545410156" lon="-6.9721479415893555">
        <ele>1233.0</ele>
        <time>2018-10-12T13:15:46.000Z</time>
      </trkpt>
      <trkpt lat="31.0527114868164062" lon="-6.9721498489379883">
        <ele>1233.0</ele>
        <time>2018-10-12T13:15:47.000Z</time>
      </trkpt>
      <trkpt lat="31.0527458190917969" lon="-6.9721498489379883">
        <ele>1233.0</ele>
        <time>2018-10-12T13:15:48.000Z</time>
      </trkpt>
      <trkpt lat="31.0527820587158203" lon="-6.9721498489379883">
        <ele>1233.821044921875</ele>
        <time>2018-10-12T13:15:49.000Z</time>
      </trkpt>
      <trkpt lat="31.0528182983398438" lon="-6.9721488952636719">
        <ele>1234.0</ele>
        <time>2018-10-12T13:15:50.000Z</time>
      </trkpt>
      <trkpt lat="31.0528545379638672" lon="-6.9721469879150391">
        <ele>1234.0</ele>
        <time>2018-10-12T13:15:51.000Z</time>
      </trkpt>
      <trkpt lat="31.0528907775878906" lon="-6.9721450805664062">
        <ele>1233.2520751953125</ele>
        <time>2018-10-12T13:15:52.000Z</time>
      </trkpt>
      <trkpt lat="31.0529251098632812" lon="-6.9721407890319824">
        <ele>1233.0</ele>
        <time>2018-10-12T13:15:53.000Z</time>
      </trkpt>
      <trkpt lat="31.0529594421386719" lon="-6.9721369743347168">
        <ele>1233.0</ele>
        <time>2018-10-12T13:15:54.000Z</time>
      </trkpt>
      <trkpt lat="31.0529918670654297" lon="-6.9721322059631348">
        <ele>1233.0</ele>
        <time>2018-10-12T13:15:55.000Z</time>
      </trkpt>
      <trkpt lat="31.0530242919921875" lon="-6.9721260070800781">
        <ele>1233.0</ele>
        <time>2018-10-12T13:15:56.000Z</time>
      </trkpt>
      <trkpt lat="31.0530567169189453" lon="-6.9721207618713379">
        <ele>1233.0</ele>
        <time>2018-10-12T13:15:57.000Z</time>
      </trkpt>
      <trkpt lat="31.0530891418457031" lon="-6.9721140861511230">
        <ele>1233.0</ele>
        <time>2018-10-12T13:15:58.000Z</time>
      </trkpt>
      <trkpt lat="31.0531215667724609" lon="-6.9721059799194336">
        <ele>1233.0</ele>
        <time>2018-10-12T13:15:59.000Z</time>
      </trkpt>
      <trkpt lat="31.0531558990478516" lon="-6.9720978736877441">
        <ele>1233.6219482421875</ele>
        <time>2018-10-12T13:16:00.000Z</time>
      </trkpt>
      <trkpt lat="31.0531883239746094" lon="-6.9720897674560547">
        <ele>1234.0</ele>
        <time>2018-10-12T13:16:01.000Z</time>
      </trkpt>
      <trkpt lat="31.0532226562500000" lon="-6.9720811843872070">
        <ele>1234.0</ele>
        <time>2018-10-12T13:16:02.000Z</time>
      </trkpt>
      <trkpt lat="31.0532569885253906" lon="-6.9720730781555176">
        <ele>1234.0</ele>
        <time>2018-10-12T13:16:03.000Z</time>
      </trkpt>
      <trkpt lat="31.0532913208007812" lon="-6.9720659255981445">
        <ele>1234.0</ele>
        <time>2018-10-12T13:16:04.000Z</time>
      </trkpt>
      <trkpt lat="31.0533275604248047" lon="-6.9720578193664551">
        <ele>1234.0</ele>
        <time>2018-10-12T13:16:05.000Z</time>
      </trkpt>
      <trkpt lat="31.0533618927001953" lon="-6.9720511436462402">
        <ele>1234.0</ele>
        <time>2018-10-12T13:16:06.000Z</time>
      </trkpt>
      <trkpt lat="31.0533981323242188" lon="-6.9720439910888672">
        <ele>1234.0</ele>
        <time>2018-10-12T13:16:07.000Z</time>
      </trkpt>
      <trkpt lat="31.0534343719482422" lon="-6.9720349311828613">
        <ele>1234.0</ele>
        <time>2018-10-12T13:16:08.000Z</time>
      </trkpt>
      <trkpt lat="31.0534706115722656" lon="-6.9720258712768555">
        <ele>1234.0</ele>
        <time>2018-10-12T13:16:09.000Z</time>
      </trkpt>
      <trkpt lat="31.0535087585449219" lon="-6.9720149040222168">
        <ele>1234.0</ele>
        <time>2018-10-12T13:16:10.000Z</time>
      </trkpt>
      <trkpt lat="31.0535469055175781" lon="-6.9720048904418945">
        <ele>1234.0</ele>
        <time>2018-10-12T13:16:11.000Z</time>
      </trkpt>
      <trkpt lat="31.0535850524902344" lon="-6.9719948768615723">
        <ele>1234.0</ele>
        <time>2018-10-12T13:16:12.000Z</time>
      </trkpt>
      <trkpt lat="31.0536251068115234" lon="-6.9719848632812500">
        <ele>1234.0</ele>
        <time>2018-10-12T13:16:13.000Z</time>
      </trkpt>
      <trkpt lat="31.0536651611328125" lon="-6.9719748497009277">
        <ele>1234.0</ele>
        <time>2018-10-12T13:16:14.000Z</time>
      </trkpt>
      <trkpt lat="31.0537033081054688" lon="-6.9719657897949219">
        <ele>1234.0</ele>
        <time>2018-10-12T13:16:15.000Z</time>
      </trkpt>
      <trkpt lat="31.0537433624267578" lon="-6.9719572067260742">
        <ele>1234.0</ele>
        <time>2018-10-12T13:16:16.000Z</time>
      </trkpt>
      <trkpt lat="31.0537834167480469" lon="-6.9719491004943848">
        <ele>1234.0</ele>
        <time>2018-10-12T13:16:17.000Z</time>
      </trkpt>
      <trkpt lat="31.0538234710693359" lon="-6.9719429016113281">
        <ele>1234.0</ele>
        <time>2018-10-12T13:16:18.000Z</time>
      </trkpt>
      <trkpt lat="31.0538635253906250" lon="-6.9719429016113281">
        <ele>1234.0</ele>
        <time>2018-10-12T13:16:19.000Z</time>
      </trkpt>
      <trkpt lat="31.0538997650146484" lon="-6.9719438552856445">
        <ele>1234.0</ele>
        <time>2018-10-12T13:16:20.000Z</time>
      </trkpt>
      <trkpt lat="31.0539379119873047" lon="-6.9719457626342773">
        <ele>1234.0</ele>
        <time>2018-10-12T13:16:21.000Z</time>
      </trkpt>
      <trkpt lat="31.0539741516113281" lon="-6.9719491004943848">
        <ele>1234.0</ele>
        <time>2018-10-12T13:16:22.000Z</time>
      </trkpt>
      <trkpt lat="31.0540122985839844" lon="-6.9719529151916504">
        <ele>1234.0</ele>
        <time>2018-10-12T13:16:23.000Z</time>
      </trkpt>
      <trkpt lat="31.0540504455566406" lon="-6.9719581604003906">
        <ele>1234.0</ele>
        <time>2018-10-12T13:16:24.000Z</time>
      </trkpt>
      <trkpt lat="31.0540885925292969" lon="-6.9719629287719727">
        <ele>1234.0</ele>
        <time>2018-10-12T13:16:25.000Z</time>
      </trkpt>
      <trkpt lat="31.0541267395019531" lon="-6.9719681739807129">
        <ele>1234.0</ele>
        <time>2018-10-12T13:16:26.000Z</time>
      </trkpt>
      <trkpt lat="31.0541591644287109" lon="-6.9719719886779785">
        <ele>1234.641357421875</ele>
        <time>2018-10-12T13:16:27.000Z</time>
      </trkpt>
      <trkpt lat="31.0541915893554688" lon="-6.9719738960266113">
        <ele>1235.0</ele>
        <time>2018-10-12T13:16:28.000Z</time>
      </trkpt>
      <trkpt lat="31.0542201995849609" lon="-6.9719738960266113">
        <ele>1235.0</ele>
        <time>2018-10-12T13:16:29.000Z</time>
      </trkpt>
      <trkpt lat="31.0542507171630859" lon="-6.9719719886779785">
        <ele>1235.0</ele>
        <time>2018-10-12T13:16:30.000Z</time>
      </trkpt>
      <trkpt lat="31.0542774200439453" lon="-6.9719719886779785">
        <ele>1235.0</ele>
        <time>2018-10-12T13:16:31.000Z</time>
      </trkpt>
      <trkpt lat="31.0543079376220703" lon="-6.9719710350036621">
        <ele>1235.0</ele>
        <time>2018-10-12T13:16:32.000Z</time>
      </trkpt>
      <trkpt lat="31.0543384552001953" lon="-6.9719691276550293">
        <ele>1235.0</ele>
        <time>2018-10-12T13:16:33.000Z</time>
      </trkpt>
      <trkpt lat="31.0543689727783203" lon="-6.9719672203063965">
        <ele>1235.0</ele>
        <time>2018-10-12T13:16:34.000Z</time>
      </trkpt>
      <trkpt lat="31.0543994903564453" lon="-6.9719648361206055">
        <ele>1235.0</ele>
        <time>2018-10-12T13:16:35.000Z</time>
      </trkpt>
      <trkpt lat="31.0544319152832031" lon="-6.9719638824462891">
        <ele>1235.0</ele>
        <time>2018-10-12T13:16:36.000Z</time>
      </trkpt>
      <trkpt lat="31.0544624328613281" lon="-6.9719629287719727">
        <ele>1235.0</ele>
        <time>2018-10-12T13:16:37.000Z</time>
      </trkpt>
      <trkpt lat="31.0544929504394531" lon="-6.9719629287719727">
        <ele>1235.0</ele>
        <time>2018-10-12T13:16:38.000Z</time>
      </trkpt>
      <trkpt lat="31.0545234680175781" lon="-6.9719672203063965">
        <ele>1235.0</ele>
        <time>2018-10-12T13:16:39.000Z</time>
      </trkpt>
      <trkpt lat="31.0545539855957031" lon="-6.9719719886779785">
        <ele>1235.0</ele>
        <time>2018-10-12T13:16:40.000Z</time>
      </trkpt>
      <trkpt lat="31.0545845031738281" lon="-6.9719758033752441">
        <ele>1235.0</ele>
        <time>2018-10-12T13:16:41.000Z</time>
      </trkpt>
      <trkpt lat="31.0546131134033203" lon="-6.9719800949096680">
        <ele>1235.0</ele>
        <time>2018-10-12T13:16:42.000Z</time>
      </trkpt>
      <trkpt lat="31.0546436309814453" lon="-6.9719839096069336">
        <ele>1235.0</ele>
        <time>2018-10-12T13:16:43.000Z</time>
      </trkpt>
      <trkpt lat="31.0546703338623047" lon="-6.9719882011413574">
        <ele>1235.0</ele>
        <time>2018-10-12T13:16:44.000Z</time>
      </trkpt>
      <trkpt lat="31.0547008514404297" lon="-6.9719920158386230">
        <ele>1235.0</ele>
        <time>2018-10-12T13:16:45.000Z</time>
      </trkpt>
      <trkpt lat="31.0547275543212891" lon="-6.9719991683959961">
        <ele>1235.0</ele>
        <time>2018-10-12T13:16:46.000Z</time>
      </trkpt>
      <trkpt lat="31.0547580718994141" lon="-6.9720067977905273">
        <ele>1235.821044921875</ele>
        <time>2018-10-12T13:16:47.000Z</time>
      </trkpt>
      <trkpt lat="31.0547885894775391" lon="-6.9720129966735840">
        <ele>1236.0</ele>
        <time>2018-10-12T13:16:48.000Z</time>
      </trkpt>
      <trkpt lat="31.0548191070556641" lon="-6.9720201492309570">
        <ele>1236.0</ele>
        <time>2018-10-12T13:16:49.000Z</time>
      </trkpt>
      <trkpt lat="31.0548534393310547" lon="-6.9720292091369629">
        <ele>1236.0</ele>
        <time>2018-10-12T13:16:50.000Z</time>
      </trkpt>
      <trkpt lat="31.0548877716064453" lon="-6.9720368385314941">
        <ele>1236.0</ele>
        <time>2018-10-12T13:16:51.000Z</time>
      </trkpt>
      <trkpt lat="31.0549221038818359" lon="-6.9720458984375000">
        <ele>1236.0</ele>
        <time>2018-10-12T13:16:52.000Z</time>
      </trkpt>
      <trkpt lat="31.0549583435058594" lon="-6.9720540046691895">
        <ele>1236.0</ele>
        <time>2018-10-12T13:16:53.000Z</time>
      </trkpt>
      <trkpt lat="31.0549964904785156" lon="-6.9720611572265625">
        <ele>1236.0</ele>
        <time>2018-10-12T13:16:54.000Z</time>
      </trkpt>
      <trkpt lat="31.0550346374511719" lon="-6.9720678329467773">
        <ele>1236.0</ele>
        <time>2018-10-12T13:16:55.000Z</time>
      </trkpt>
      <trkpt lat="31.0550727844238281" lon="-6.9720721244812012">
        <ele>1236.0</ele>
        <time>2018-10-12T13:16:56.000Z</time>
      </trkpt>
      <trkpt lat="31.0551128387451172" lon="-6.9720740318298340">
        <ele>1236.0</ele>
        <time>2018-10-12T13:16:57.000Z</time>
      </trkpt>
      <trkpt lat="31.0551528930664062" lon="-6.9720759391784668">
        <ele>1236.0</ele>
        <time>2018-10-12T13:16:58.000Z</time>
      </trkpt>
      <trkpt lat="31.0551910400390625" lon="-6.9720759391784668">
        <ele>1236.0</ele>
        <time>2018-10-12T13:16:59.000Z</time>
      </trkpt>
      <trkpt lat="31.0552291870117188" lon="-6.9720740318298340">
        <ele>1236.0</ele>
        <time>2018-10-12T13:17:00.000Z</time>
      </trkpt>
      <trkpt lat="31.0552673339843750" lon="-6.9720702171325684">
        <ele>1236.0</ele>
        <time>2018-10-12T13:17:01.000Z</time>
      </trkpt>
      <trkpt lat="31.0553035736083984" lon="-6.9720649719238281">
        <ele>1236.0</ele>
        <time>2018-10-12T13:17:02.000Z</time>
      </trkpt>
      <trkpt lat="31.0553398132324219" lon="-6.9720602035522461">
        <ele>1236.0</ele>
        <time>2018-10-12T13:17:03.000Z</time>
      </trkpt>
      <trkpt lat="31.0553741455078125" lon="-6.9720540046691895">
        <ele>1236.0</ele>
        <time>2018-10-12T13:17:04.000Z</time>
      </trkpt>
      <trkpt lat="31.0554084777832031" lon="-6.9720478057861328">
        <ele>1236.0</ele>
        <time>2018-10-12T13:17:05.000Z</time>
      </trkpt>
      <trkpt lat="31.0554428100585938" lon="-6.9720411300659180">
        <ele>1236.0</ele>
        <time>2018-10-12T13:17:06.000Z</time>
      </trkpt>
      <trkpt lat="31.0554752349853516" lon="-6.9720339775085449">
        <ele>1236.0</ele>
        <time>2018-10-12T13:17:07.000Z</time>
      </trkpt>
      <trkpt lat="31.0555076599121094" lon="-6.9720258712768555">
        <ele>1236.7479248046875</ele>
        <time>2018-10-12T13:17:08.000Z</time>
      </trkpt>
      <trkpt lat="31.0555381774902344" lon="-6.9720177650451660">
        <ele>1237.0</ele>
        <time>2018-10-12T13:17:09.000Z</time>
      </trkpt>
      <trkpt lat="31.0555706024169922" lon="-6.9720101356506348">
        <ele>1237.0</ele>
        <time>2018-10-12T13:17:10.000Z</time>
      </trkpt>
      <trkpt lat="31.0556030273437500" lon="-6.9720010757446289">
        <ele>1237.0</ele>
        <time>2018-10-12T13:17:11.000Z</time>
      </trkpt>
      <trkpt lat="31.0556354522705078" lon="-6.9719920158386230">
        <ele>1237.0</ele>
        <time>2018-10-12T13:17:12.000Z</time>
      </trkpt>
      <trkpt lat="31.0556697845458984" lon="-6.9719829559326172">
        <ele>1237.0</ele>
        <time>2018-10-12T13:17:13.000Z</time>
      </trkpt>
      <trkpt lat="31.0557022094726562" lon="-6.9719748497009277">
        <ele>1237.0</ele>
        <time>2018-10-12T13:17:14.000Z</time>
      </trkpt>
      <trkpt lat="31.0557365417480469" lon="-6.9719648361206055">
        <ele>1237.0</ele>
        <time>2018-10-12T13:17:15.000Z</time>
      </trkpt>
      <trkpt lat="31.0557708740234375" lon="-6.9719557762145996">
        <ele>1237.0</ele>
        <time>2018-10-12T13:17:16.000Z</time>
      </trkpt>
      <trkpt lat="31.0558052062988281" lon="-6.9719471931457520">
        <ele>1237.0</ele>
        <time>2018-10-12T13:17:17.000Z</time>
      </trkpt>
      <trkpt lat="31.0558395385742188" lon="-6.9719400405883789">
        <ele>1237.0</ele>
        <time>2018-10-12T13:17:18.000Z</time>
      </trkpt>
      <trkpt lat="31.0558757781982422" lon="-6.9719328880310059">
        <ele>1237.0</ele>
        <time>2018-10-12T13:17:19.000Z</time>
      </trkpt>
      <trkpt lat="31.0559101104736328" lon="-6.9719290733337402">
        <ele>1237.821044921875</ele>
        <time>2018-10-12T13:17:20.000Z</time>
      </trkpt>
      <trkpt lat="31.0559463500976562" lon="-6.9719247817993164">
        <ele>1238.0</ele>
        <time>2018-10-12T13:17:21.000Z</time>
      </trkpt>
      <trkpt lat="31.0559844970703125" lon="-6.9719209671020508">
        <ele>1238.0</ele>
        <time>2018-10-12T13:17:22.000Z</time>
      </trkpt>
      <trkpt lat="31.0560207366943359" lon="-6.9719181060791016">
        <ele>1238.0</ele>
        <time>2018-10-12T13:17:23.000Z</time>
      </trkpt>
      <trkpt lat="31.0560588836669922" lon="-6.9719161987304688">
        <ele>1238.0</ele>
        <time>2018-10-12T13:17:24.000Z</time>
      </trkpt>
      <trkpt lat="31.0560951232910156" lon="-6.9719147682189941">
        <ele>1238.0</ele>
        <time>2018-10-12T13:17:25.000Z</time>
      </trkpt>
      <trkpt lat="31.0561313629150391" lon="-6.9719147682189941">
        <ele>1238.0</ele>
        <time>2018-10-12T13:17:26.000Z</time>
      </trkpt>
      <trkpt lat="31.0561695098876953" lon="-6.9719147682189941">
        <ele>1238.0</ele>
        <time>2018-10-12T13:17:27.000Z</time>
      </trkpt>
      <trkpt lat="31.0562057495117188" lon="-6.9719171524047852">
        <ele>1238.0</ele>
        <time>2018-10-12T13:17:28.000Z</time>
      </trkpt>
      <trkpt lat="31.0562438964843750" lon="-6.9719190597534180">
        <ele>1238.821044921875</ele>
        <time>2018-10-12T13:17:29.000Z</time>
      </trkpt>
      <trkpt lat="31.0562801361083984" lon="-6.9719219207763672">
        <ele>1239.0</ele>
        <time>2018-10-12T13:17:30.000Z</time>
      </trkpt>
      <trkpt lat="31.0563182830810547" lon="-6.9719247817993164">
        <ele>1239.0</ele>
        <time>2018-10-12T13:17:31.000Z</time>
      </trkpt>
      <trkpt lat="31.0563545227050781" lon="-6.9719271659851074">
        <ele>1239.0</ele>
        <time>2018-10-12T13:17:32.000Z</time>
      </trkpt>
      <trkpt lat="31.0563926696777344" lon="-6.9719290733337402">
        <ele>1239.0</ele>
        <time>2018-10-12T13:17:33.000Z</time>
      </trkpt>
      <trkpt lat="31.0564289093017578" lon="-6.9719309806823730">
        <ele>1239.0</ele>
        <time>2018-10-12T13:17:34.000Z</time>
      </trkpt>
      <trkpt lat="31.0564651489257812" lon="-6.9719338417053223">
        <ele>1239.0</ele>
        <time>2018-10-12T13:17:35.000Z</time>
      </trkpt>
      <trkpt lat="31.0565032958984375" lon="-6.9719371795654297">
        <ele>1239.0</ele>
        <time>2018-10-12T13:17:36.000Z</time>
      </trkpt>
      <trkpt lat="31.0565395355224609" lon="-6.9719400405883789">
        <ele>1239.0</ele>
        <time>2018-10-12T13:17:37.000Z</time>
      </trkpt>
      <trkpt lat="31.0565757751464844" lon="-6.9719438552856445">
        <ele>1239.0</ele>
        <time>2018-10-12T13:17:38.000Z</time>
      </trkpt>
      <trkpt lat="31.0566082000732422" lon="-6.9719481468200684">
        <ele>1239.0</ele>
        <time>2018-10-12T13:17:39.000Z</time>
      </trkpt>
      <trkpt lat="31.0566406250000000" lon="-6.9719529151916504">
        <ele>1239.0</ele>
        <time>2018-10-12T13:17:40.000Z</time>
      </trkpt>
      <trkpt lat="31.0566711425781250" lon="-6.9719572067260742">
        <ele>1239.0</ele>
        <time>2018-10-12T13:17:41.000Z</time>
      </trkpt>
      <trkpt lat="31.0566997528076172" lon="-6.9719610214233398">
        <ele>1239.0</ele>
        <time>2018-10-12T13:17:42.000Z</time>
      </trkpt>
      <trkpt lat="31.0567283630371094" lon="-6.9719619750976562">
        <ele>1239.0</ele>
        <time>2018-10-12T13:17:43.000Z</time>
      </trkpt>
      <trkpt lat="31.0567588806152344" lon="-6.9719619750976562">
        <ele>1239.0</ele>
        <time>2018-10-12T13:17:44.000Z</time>
      </trkpt>
      <trkpt lat="31.0567913055419922" lon="-6.9719619750976562">
        <ele>1239.626708984375</ele>
        <time>2018-10-12T13:17:45.000Z</time>
      </trkpt>
      <trkpt lat="31.0568256378173828" lon="-6.9719610214233398">
        <ele>1240.0</ele>
        <time>2018-10-12T13:17:46.000Z</time>
      </trkpt>
      <trkpt lat="31.0568561553955078" lon="-6.9719591140747070">
        <ele>1240.0</ele>
        <time>2018-10-12T13:17:47.000Z</time>
      </trkpt>
      <trkpt lat="31.0568866729736328" lon="-6.9719591140747070">
        <ele>1240.0</ele>
        <time>2018-10-12T13:17:48.000Z</time>
      </trkpt>
      <trkpt lat="31.0569152832031250" lon="-6.9719591140747070">
        <ele>1240.0</ele>
        <time>2018-10-12T13:17:49.000Z</time>
      </trkpt>
      <trkpt lat="31.0569477081298828" lon="-6.9719591140747070">
        <ele>1240.0</ele>
        <time>2018-10-12T13:17:50.000Z</time>
      </trkpt>
      <trkpt lat="31.0569839477539062" lon="-6.9719581604003906">
        <ele>1240.0</ele>
        <time>2018-10-12T13:17:51.000Z</time>
      </trkpt>
      <trkpt lat="31.0570182800292969" lon="-6.9719581604003906">
        <ele>1240.0</ele>
        <time>2018-10-12T13:17:52.000Z</time>
      </trkpt>
      <trkpt lat="31.0570583343505859" lon="-6.9719591140747070">
        <ele>1240.0</ele>
        <time>2018-10-12T13:17:53.000Z</time>
      </trkpt>
      <trkpt lat="31.0570964813232422" lon="-6.9719581604003906">
        <ele>1240.0</ele>
        <time>2018-10-12T13:17:54.000Z</time>
      </trkpt>
      <trkpt lat="31.0571327209472656" lon="-6.9719557762145996">
        <ele>1240.0</ele>
        <time>2018-10-12T13:17:55.000Z</time>
      </trkpt>
      <trkpt lat="31.0571651458740234" lon="-6.9719529151916504">
        <ele>1240.0</ele>
        <time>2018-10-12T13:17:56.000Z</time>
      </trkpt>
      <trkpt lat="31.0571975708007812" lon="-6.9719481468200684">
        <ele>1240.0</ele>
        <time>2018-10-12T13:17:57.000Z</time>
      </trkpt>
      <trkpt lat="31.0572242736816406" lon="-6.9719429016113281">
        <ele>1240.0</ele>
        <time>2018-10-12T13:17:58.000Z</time>
      </trkpt>
      <trkpt lat="31.0572490692138672" lon="-6.9719381332397461">
        <ele>1240.0</ele>
        <time>2018-10-12T13:17:59.000Z</time>
      </trkpt>
      <trkpt lat="31.0572700500488281" lon="-6.9719309806823730">
        <ele>1240.0</ele>
        <time>2018-10-12T13:18:00.000Z</time>
      </trkpt>
      <trkpt lat="31.0572967529296875" lon="-6.9719219207763672">
        <ele>1240.0</ele>
        <time>2018-10-12T13:18:01.000Z</time>
      </trkpt>
      <trkpt lat="31.0573234558105469" lon="-6.9719090461730957">
        <ele>1240.0</ele>
        <time>2018-10-12T13:18:02.000Z</time>
      </trkpt>
      <trkpt lat="31.0573558807373047" lon="-6.9718937873840332">
        <ele>1240.0</ele>
        <time>2018-10-12T13:18:03.000Z</time>
      </trkpt>
      <trkpt lat="31.0573921203613281" lon="-6.9718751907348633">
        <ele>1240.0</ele>
        <time>2018-10-12T13:18:04.000Z</time>
      </trkpt>
      <trkpt lat="31.0574321746826172" lon="-6.9718508720397949">
        <ele>1240.0</ele>
        <time>2018-10-12T13:18:05.000Z</time>
      </trkpt>
      <trkpt lat="31.0574703216552734" lon="-6.9718241691589355">
        <ele>1240.0</ele>
        <time>2018-10-12T13:18:06.000Z</time>
      </trkpt>
      <trkpt lat="31.0575046539306641" lon="-6.9717988967895508">
        <ele>1240.0</ele>
        <time>2018-10-12T13:18:07.000Z</time>
      </trkpt>
      <trkpt lat="31.0575332641601562" lon="-6.9717760086059570">
        <ele>1240.821044921875</ele>
        <time>2018-10-12T13:18:08.000Z</time>
      </trkpt>
      <trkpt lat="31.0575618743896484" lon="-6.9717512130737305">
        <ele>1241.0</ele>
        <time>2018-10-12T13:18:09.000Z</time>
      </trkpt>
      <trkpt lat="31.0575866699218750" lon="-6.9717259407043457">
        <ele>1241.0</ele>
        <time>2018-10-12T13:18:10.000Z</time>
      </trkpt>
      <trkpt lat="31.0576076507568359" lon="-6.9717020988464355">
        <ele>1241.0</ele>
        <time>2018-10-12T13:18:11.000Z</time>
      </trkpt>
      <trkpt lat="31.0576286315917969" lon="-6.9716801643371582">
        <ele>1241.821044921875</ele>
        <time>2018-10-12T13:18:12.000Z</time>
      </trkpt>
      <trkpt lat="31.0576457977294922" lon="-6.9716582298278809">
        <ele>1242.0</ele>
        <time>2018-10-12T13:18:13.000Z</time>
      </trkpt>
      <trkpt lat="31.0576572418212891" lon="-6.9716339111328125">
        <ele>1242.0</ele>
        <time>2018-10-12T13:18:14.000Z</time>
      </trkpt>
      <trkpt lat="31.0576686859130859" lon="-6.9716100692749023">
        <ele>1242.0</ele>
        <time>2018-10-12T13:18:15.000Z</time>
      </trkpt>
      <trkpt lat="31.0576839447021484" lon="-6.9715881347656250">
        <ele>1242.0</ele>
        <time>2018-10-12T13:18:16.000Z</time>
      </trkpt>
      <trkpt lat="31.0577011108398438" lon="-6.9715671539306641">
        <ele>1242.0</ele>
        <time>2018-10-12T13:18:17.000Z</time>
      </trkpt>
      <trkpt lat="31.0577239990234375" lon="-6.9715428352355957">
        <ele>1242.0</ele>
        <time>2018-10-12T13:18:18.000Z</time>
      </trkpt>
      <trkpt lat="31.0577449798583984" lon="-6.9715151786804199">
        <ele>1242.0</ele>
        <time>2018-10-12T13:18:19.000Z</time>
      </trkpt>
      <trkpt lat="31.0577640533447266" lon="-6.9714899063110352">
        <ele>1242.0</ele>
        <time>2018-10-12T13:18:20.000Z</time>
      </trkpt>
      <trkpt lat="31.0577831268310547" lon="-6.9714679718017578">
        <ele>1242.0</ele>
        <time>2018-10-12T13:18:21.000Z</time>
      </trkpt>
      <trkpt lat="31.0578022003173828" lon="-6.9714450836181641">
        <ele>1242.0</ele>
        <time>2018-10-12T13:18:22.000Z</time>
      </trkpt>
      <trkpt lat="31.0578212738037109" lon="-6.9714231491088867">
        <ele>1242.0</ele>
        <time>2018-10-12T13:18:23.000Z</time>
      </trkpt>
      <trkpt lat="31.0578422546386719" lon="-6.9714012145996094">
        <ele>1242.0</ele>
        <time>2018-10-12T13:18:24.000Z</time>
      </trkpt>
      <trkpt lat="31.0578632354736328" lon="-6.9713788032531738">
        <ele>1242.821044921875</ele>
        <time>2018-10-12T13:18:25.000Z</time>
      </trkpt>
      <trkpt lat="31.0578842163085938" lon="-6.9713568687438965">
        <ele>1243.821044921875</ele>
        <time>2018-10-12T13:18:26.000Z</time>
      </trkpt>
      <trkpt lat="31.0579071044921875" lon="-6.9713330268859863">
        <ele>1244.0</ele>
        <time>2018-10-12T13:18:27.000Z</time>
      </trkpt>
      <trkpt lat="31.0579280853271484" lon="-6.9713101387023926">
        <ele>1244.0</ele>
        <time>2018-10-12T13:18:28.000Z</time>
      </trkpt>
      <trkpt lat="31.0579509735107422" lon="-6.9712858200073242">
        <ele>1244.0</ele>
        <time>2018-10-12T13:18:29.000Z</time>
      </trkpt>
      <trkpt lat="31.0579738616943359" lon="-6.9712619781494141">
        <ele>1244.0</ele>
        <time>2018-10-12T13:18:30.000Z</time>
      </trkpt>
      <trkpt lat="31.0579948425292969" lon="-6.9712371826171875">
        <ele>1244.0</ele>
        <time>2018-10-12T13:18:31.000Z</time>
      </trkpt>
      <trkpt lat="31.0580158233642578" lon="-6.9712128639221191">
        <ele>1244.0</ele>
        <time>2018-10-12T13:18:32.000Z</time>
      </trkpt>
      <trkpt lat="31.0580348968505859" lon="-6.9711909294128418">
        <ele>1244.0</ele>
        <time>2018-10-12T13:18:33.000Z</time>
      </trkpt>
      <trkpt lat="31.0580558776855469" lon="-6.9711689949035645">
        <ele>1244.0</ele>
        <time>2018-10-12T13:18:34.000Z</time>
      </trkpt>
      <trkpt lat="31.0580768585205078" lon="-6.9711451530456543">
        <ele>1244.0</ele>
        <time>2018-10-12T13:18:35.000Z</time>
      </trkpt>
      <trkpt lat="31.0580959320068359" lon="-6.9711217880249023">
        <ele>1243.178955078125</ele>
        <time>2018-10-12T13:18:36.000Z</time>
      </trkpt>
      <trkpt lat="31.0581169128417969" lon="-6.9710988998413086">
        <ele>1243.0</ele>
        <time>2018-10-12T13:18:37.000Z</time>
      </trkpt>
      <trkpt lat="31.0581378936767578" lon="-6.9710760116577148">
        <ele>1243.0</ele>
        <time>2018-10-12T13:18:38.000Z</time>
      </trkpt>
      <trkpt lat="31.0581588745117188" lon="-6.9710531234741211">
        <ele>1243.0</ele>
        <time>2018-10-12T13:18:39.000Z</time>
      </trkpt>
      <trkpt lat="31.0581798553466797" lon="-6.9710311889648438">
        <ele>1243.0</ele>
        <time>2018-10-12T13:18:40.000Z</time>
      </trkpt>
      <trkpt lat="31.0582008361816406" lon="-6.9710087776184082">
        <ele>1243.0</ele>
        <time>2018-10-12T13:18:41.000Z</time>
      </trkpt>
      <trkpt lat="31.0582218170166016" lon="-6.9709858894348145">
        <ele>1243.0</ele>
        <time>2018-10-12T13:18:42.000Z</time>
      </trkpt>
      <trkpt lat="31.0582427978515625" lon="-6.9709620475769043">
        <ele>1243.0</ele>
        <time>2018-10-12T13:18:43.000Z</time>
      </trkpt>
      <trkpt lat="31.0582637786865234" lon="-6.9709367752075195">
        <ele>1243.0</ele>
        <time>2018-10-12T13:18:44.000Z</time>
      </trkpt>
      <trkpt lat="31.0582847595214844" lon="-6.9709119796752930">
        <ele>1243.0</ele>
        <time>2018-10-12T13:18:45.000Z</time>
      </trkpt>
      <trkpt lat="31.0583076477050781" lon="-6.9708881378173828">
        <ele>1243.0</ele>
        <time>2018-10-12T13:18:46.000Z</time>
      </trkpt>
      <trkpt lat="31.0583286285400391" lon="-6.9708619117736816">
        <ele>1243.0</ele>
        <time>2018-10-12T13:18:47.000Z</time>
      </trkpt>
      <trkpt lat="31.0583496093750000" lon="-6.9708371162414551">
        <ele>1243.0</ele>
        <time>2018-10-12T13:18:48.000Z</time>
      </trkpt>
      <trkpt lat="31.0583724975585938" lon="-6.9708108901977539">
        <ele>1243.0</ele>
        <time>2018-10-12T13:18:49.000Z</time>
      </trkpt>
      <trkpt lat="31.0583934783935547" lon="-6.9707851409912109">
        <ele>1243.0</ele>
        <time>2018-10-12T13:18:50.000Z</time>
      </trkpt>
      <trkpt lat="31.0584144592285156" lon="-6.9707579612731934">
        <ele>1243.0</ele>
        <time>2018-10-12T13:18:51.000Z</time>
      </trkpt>
      <trkpt lat="31.0584373474121094" lon="-6.9707307815551758">
        <ele>1243.0</ele>
        <time>2018-10-12T13:18:52.000Z</time>
      </trkpt>
      <trkpt lat="31.0584583282470703" lon="-6.9707040786743164">
        <ele>1243.0</ele>
        <time>2018-10-12T13:18:53.000Z</time>
      </trkpt>
      <trkpt lat="31.0584793090820312" lon="-6.9706759452819824">
        <ele>1243.0</ele>
        <time>2018-10-12T13:18:54.000Z</time>
      </trkpt>
      <trkpt lat="31.0585021972656250" lon="-6.9706478118896484">
        <ele>1243.0</ele>
        <time>2018-10-12T13:18:55.000Z</time>
      </trkpt>
      <trkpt lat="31.0585231781005859" lon="-6.9706211090087891">
        <ele>1243.0</ele>
        <time>2018-10-12T13:18:56.000Z</time>
      </trkpt>
      <trkpt lat="31.0585460662841797" lon="-6.9705929756164551">
        <ele>1243.0</ele>
        <time>2018-10-12T13:18:57.000Z</time>
      </trkpt>
      <trkpt lat="31.0585670471191406" lon="-6.9705657958984375">
        <ele>1243.0</ele>
        <time>2018-10-12T13:18:58.000Z</time>
      </trkpt>
      <trkpt lat="31.0585899353027344" lon="-6.9705381393432617">
        <ele>1243.0</ele>
        <time>2018-10-12T13:18:59.000Z</time>
      </trkpt>
      <trkpt lat="31.0586128234863281" lon="-6.9705109596252441">
        <ele>1243.0</ele>
        <time>2018-10-12T13:19:00.000Z</time>
      </trkpt>
      <trkpt lat="31.0586338043212891" lon="-6.9704828262329102">
        <ele>1243.0</ele>
        <time>2018-10-12T13:19:01.000Z</time>
      </trkpt>
      <trkpt lat="31.0586547851562500" lon="-6.9704551696777344">
        <ele>1243.0</ele>
        <time>2018-10-12T13:19:02.000Z</time>
      </trkpt>
      <trkpt lat="31.0586776733398438" lon="-6.9704279899597168">
        <ele>1243.0</ele>
        <time>2018-10-12T13:19:03.000Z</time>
      </trkpt>
      <trkpt lat="31.0587005615234375" lon="-6.9704008102416992">
        <ele>1243.0</ele>
        <time>2018-10-12T13:19:04.000Z</time>
      </trkpt>
      <trkpt lat="31.0587234497070312" lon="-6.9703750610351562">
        <ele>1243.0</ele>
        <time>2018-10-12T13:19:05.000Z</time>
      </trkpt>
      <trkpt lat="31.0587463378906250" lon="-6.9703488349914551">
        <ele>1243.0</ele>
        <time>2018-10-12T13:19:06.000Z</time>
      </trkpt>
      <trkpt lat="31.0587711334228516" lon="-6.9703240394592285">
        <ele>1243.0</ele>
        <time>2018-10-12T13:19:07.000Z</time>
      </trkpt>
      <trkpt lat="31.0587978363037109" lon="-6.9703001976013184">
        <ele>1243.0</ele>
        <time>2018-10-12T13:19:08.000Z</time>
      </trkpt>
      <trkpt lat="31.0588226318359375" lon="-6.9702739715576172">
        <ele>1243.0</ele>
        <time>2018-10-12T13:19:09.000Z</time>
      </trkpt>
      <trkpt lat="31.0588493347167969" lon="-6.9702482223510742">
        <ele>1243.0</ele>
        <time>2018-10-12T13:19:10.000Z</time>
      </trkpt>
      <trkpt lat="31.0588760375976562" lon="-6.9702219963073730">
        <ele>1243.0</ele>
        <time>2018-10-12T13:19:11.000Z</time>
      </trkpt>
      <trkpt lat="31.0589027404785156" lon="-6.9701957702636719">
        <ele>1243.0</ele>
        <time>2018-10-12T13:19:12.000Z</time>
      </trkpt>
      <trkpt lat="31.0589294433593750" lon="-6.9701690673828125">
        <ele>1243.0</ele>
        <time>2018-10-12T13:19:13.000Z</time>
      </trkpt>
      <trkpt lat="31.0589542388916016" lon="-6.9701418876647949">
        <ele>1243.0</ele>
        <time>2018-10-12T13:19:14.000Z</time>
      </trkpt>
      <trkpt lat="31.0589828491210938" lon="-6.9701161384582520">
        <ele>1243.0</ele>
        <time>2018-10-12T13:19:15.000Z</time>
      </trkpt>
      <trkpt lat="31.0590076446533203" lon="-6.9700889587402344">
        <ele>1243.0</ele>
        <time>2018-10-12T13:19:16.000Z</time>
      </trkpt>
      <trkpt lat="31.0590324401855469" lon="-6.9700608253479004">
        <ele>1243.7406005859375</ele>
        <time>2018-10-12T13:19:17.000Z</time>
      </trkpt>
      <trkpt lat="31.0590553283691406" lon="-6.9700322151184082">
        <ele>1244.0</ele>
        <time>2018-10-12T13:19:18.000Z</time>
      </trkpt>
      <trkpt lat="31.0590782165527344" lon="-6.9700059890747070">
        <ele>1244.0</ele>
        <time>2018-10-12T13:19:19.000Z</time>
      </trkpt>
      <trkpt lat="31.0591011047363281" lon="-6.9699831008911133">
        <ele>1244.0</ele>
        <time>2018-10-12T13:19:20.000Z</time>
      </trkpt>
      <trkpt lat="31.0591278076171875" lon="-6.9699602127075195">
        <ele>1244.0</ele>
        <time>2018-10-12T13:19:21.000Z</time>
      </trkpt>
      <trkpt lat="31.0591545104980469" lon="-6.9699358940124512">
        <ele>1244.0</ele>
        <time>2018-10-12T13:19:22.000Z</time>
      </trkpt>
      <trkpt lat="31.0591773986816406" lon="-6.9699101448059082">
        <ele>1244.0</ele>
        <time>2018-10-12T13:19:23.000Z</time>
      </trkpt>
      <trkpt lat="31.0592002868652344" lon="-6.9698829650878906">
        <ele>1244.0</ele>
        <time>2018-10-12T13:19:24.000Z</time>
      </trkpt>
      <trkpt lat="31.0592212677001953" lon="-6.9698557853698730">
        <ele>1244.0</ele>
        <time>2018-10-12T13:19:25.000Z</time>
      </trkpt>
      <trkpt lat="31.0592441558837891" lon="-6.9698290824890137">
        <ele>1244.0</ele>
        <time>2018-10-12T13:19:26.000Z</time>
      </trkpt>
      <trkpt lat="31.0592689514160156" lon="-6.9698028564453125">
        <ele>1244.0</ele>
        <time>2018-10-12T13:19:27.000Z</time>
      </trkpt>
      <trkpt lat="31.0592918395996094" lon="-6.9697761535644531">
        <ele>1244.0</ele>
        <time>2018-10-12T13:19:28.000Z</time>
      </trkpt>
      <trkpt lat="31.0593147277832031" lon="-6.9697480201721191">
        <ele>1244.0</ele>
        <time>2018-10-12T13:19:29.000Z</time>
      </trkpt>
      <trkpt lat="31.0593376159667969" lon="-6.9697198867797852">
        <ele>1244.0</ele>
        <time>2018-10-12T13:19:30.000Z</time>
      </trkpt>
      <trkpt lat="31.0593624114990234" lon="-6.9696922302246094">
        <ele>1244.0</ele>
        <time>2018-10-12T13:19:31.000Z</time>
      </trkpt>
      <trkpt lat="31.0593852996826172" lon="-6.9696631431579590">
        <ele>1244.0</ele>
        <time>2018-10-12T13:19:32.000Z</time>
      </trkpt>
      <trkpt lat="31.0594100952148438" lon="-6.9696340560913086">
        <ele>1244.821044921875</ele>
        <time>2018-10-12T13:19:33.000Z</time>
      </trkpt>
      <trkpt lat="31.0594348907470703" lon="-6.9696059226989746">
        <ele>1245.0</ele>
        <time>2018-10-12T13:19:34.000Z</time>
      </trkpt>
      <trkpt lat="31.0594596862792969" lon="-6.9695777893066406">
        <ele>1245.0</ele>
        <time>2018-10-12T13:19:35.000Z</time>
      </trkpt>
      <trkpt lat="31.0594844818115234" lon="-6.9695510864257812">
        <ele>1245.0</ele>
        <time>2018-10-12T13:19:36.000Z</time>
      </trkpt>
      <trkpt lat="31.0595092773437500" lon="-6.9695239067077637">
        <ele>1245.0</ele>
        <time>2018-10-12T13:19:37.000Z</time>
      </trkpt>
      <trkpt lat="31.0595359802246094" lon="-6.9694957733154297">
        <ele>1245.0</ele>
        <time>2018-10-12T13:19:38.000Z</time>
      </trkpt>
      <trkpt lat="31.0595626831054688" lon="-6.9694700241088867">
        <ele>1245.0</ele>
        <time>2018-10-12T13:19:39.000Z</time>
      </trkpt>
      <trkpt lat="31.0595893859863281" lon="-6.9694437980651855">
        <ele>1245.0</ele>
        <time>2018-10-12T13:19:40.000Z</time>
      </trkpt>
      <trkpt lat="31.0596160888671875" lon="-6.9694180488586426">
        <ele>1245.0</ele>
        <time>2018-10-12T13:19:41.000Z</time>
      </trkpt>
      <trkpt lat="31.0596427917480469" lon="-6.9693918228149414">
        <ele>1245.0</ele>
        <time>2018-10-12T13:19:42.000Z</time>
      </trkpt>
      <trkpt lat="31.0596694946289062" lon="-6.9693660736083984">
        <ele>1244.178955078125</ele>
        <time>2018-10-12T13:19:43.000Z</time>
      </trkpt>
      <trkpt lat="31.0596981048583984" lon="-6.9693422317504883">
        <ele>1244.0</ele>
        <time>2018-10-12T13:19:44.000Z</time>
      </trkpt>
      <trkpt lat="31.0597248077392578" lon="-6.9693169593811035">
        <ele>1244.0</ele>
        <time>2018-10-12T13:19:45.000Z</time>
      </trkpt>
      <trkpt lat="31.0597515106201172" lon="-6.9692912101745605">
        <ele>1244.7366943359375</ele>
        <time>2018-10-12T13:19:46.000Z</time>
      </trkpt>
      <trkpt lat="31.0597782135009766" lon="-6.9692659378051758">
        <ele>1245.0</ele>
        <time>2018-10-12T13:19:47.000Z</time>
      </trkpt>
      <trkpt lat="31.0598049163818359" lon="-6.9692401885986328">
        <ele>1245.0</ele>
        <time>2018-10-12T13:19:48.000Z</time>
      </trkpt>
      <trkpt lat="31.0598297119140625" lon="-6.9692130088806152">
        <ele>1245.0</ele>
        <time>2018-10-12T13:19:49.000Z</time>
      </trkpt>
      <trkpt lat="31.0598545074462891" lon="-6.9691858291625977">
        <ele>1245.0</ele>
        <time>2018-10-12T13:19:50.000Z</time>
      </trkpt>
      <trkpt lat="31.0598812103271484" lon="-6.9691572189331055">
        <ele>1245.0</ele>
        <time>2018-10-12T13:19:51.000Z</time>
      </trkpt>
      <trkpt lat="31.0599079132080078" lon="-6.9691290855407715">
        <ele>1245.0</ele>
        <time>2018-10-12T13:19:52.000Z</time>
      </trkpt>
      <trkpt lat="31.0599346160888672" lon="-6.9690999984741211">
        <ele>1245.0</ele>
        <time>2018-10-12T13:19:53.000Z</time>
      </trkpt>
      <trkpt lat="31.0599632263183594" lon="-6.9690709114074707">
        <ele>1245.0</ele>
        <time>2018-10-12T13:19:54.000Z</time>
      </trkpt>
      <trkpt lat="31.0599918365478516" lon="-6.9690427780151367">
        <ele>1245.0</ele>
        <time>2018-10-12T13:19:55.000Z</time>
      </trkpt>
      <trkpt lat="31.0600204467773438" lon="-6.9690141677856445">
        <ele>1245.0</ele>
        <time>2018-10-12T13:19:56.000Z</time>
      </trkpt>
      <trkpt lat="31.0600509643554688" lon="-6.9689850807189941">
        <ele>1245.0</ele>
        <time>2018-10-12T13:19:57.000Z</time>
      </trkpt>
      <trkpt lat="31.0600814819335938" lon="-6.9689569473266602">
        <ele>1245.0</ele>
        <time>2018-10-12T13:19:58.000Z</time>
      </trkpt>
      <trkpt lat="31.0601119995117188" lon="-6.9689278602600098">
        <ele>1245.0</ele>
        <time>2018-10-12T13:19:59.000Z</time>
      </trkpt>
      <trkpt lat="31.0601425170898438" lon="-6.9688987731933594">
        <ele>1245.0</ele>
        <time>2018-10-12T13:20:00.000Z</time>
      </trkpt>
      <trkpt lat="31.0601749420166016" lon="-6.9688711166381836">
        <ele>1245.0</ele>
        <time>2018-10-12T13:20:01.000Z</time>
      </trkpt>
      <trkpt lat="31.0602073669433594" lon="-6.9688429832458496">
        <ele>1245.0</ele>
        <time>2018-10-12T13:20:02.000Z</time>
      </trkpt>
      <trkpt lat="31.0602397918701172" lon="-6.9688148498535156">
        <ele>1245.0</ele>
        <time>2018-10-12T13:20:03.000Z</time>
      </trkpt>
      <trkpt lat="31.0602703094482422" lon="-6.9687871932983398">
        <ele>1245.0</ele>
        <time>2018-10-12T13:20:04.000Z</time>
      </trkpt>
      <trkpt lat="31.0603027343750000" lon="-6.9687581062316895">
        <ele>1245.0</ele>
        <time>2018-10-12T13:20:05.000Z</time>
      </trkpt>
      <trkpt lat="31.0603351593017578" lon="-6.9687290191650391">
        <ele>1245.0</ele>
        <time>2018-10-12T13:20:06.000Z</time>
      </trkpt>
      <trkpt lat="31.0603675842285156" lon="-6.9687018394470215">
        <ele>1245.0</ele>
        <time>2018-10-12T13:20:07.000Z</time>
      </trkpt>
      <trkpt lat="31.0604000091552734" lon="-6.9686741828918457">
        <ele>1245.0</ele>
        <time>2018-10-12T13:20:08.000Z</time>
      </trkpt>
      <trkpt lat="31.0604324340820312" lon="-6.9686470031738281">
        <ele>1245.0</ele>
        <time>2018-10-12T13:20:09.000Z</time>
      </trkpt>
      <trkpt lat="31.0604648590087891" lon="-6.9686207771301270">
        <ele>1245.0</ele>
        <time>2018-10-12T13:20:10.000Z</time>
      </trkpt>
      <trkpt lat="31.0604953765869141" lon="-6.9685940742492676">
        <ele>1245.0</ele>
        <time>2018-10-12T13:20:11.000Z</time>
      </trkpt>
      <trkpt lat="31.0605278015136719" lon="-6.9685668945312500">
        <ele>1245.0</ele>
        <time>2018-10-12T13:20:12.000Z</time>
      </trkpt>
      <trkpt lat="31.0605583190917969" lon="-6.9685392379760742">
        <ele>1245.0</ele>
        <time>2018-10-12T13:20:13.000Z</time>
      </trkpt>
      <trkpt lat="31.0605888366699219" lon="-6.9685111045837402">
        <ele>1245.0</ele>
        <time>2018-10-12T13:20:14.000Z</time>
      </trkpt>
      <trkpt lat="31.0606193542480469" lon="-6.9684829711914062">
        <ele>1245.821044921875</ele>
        <time>2018-10-12T13:20:15.000Z</time>
      </trkpt>
      <trkpt lat="31.0606517791748047" lon="-6.9684538841247559">
        <ele>1246.0</ele>
        <time>2018-10-12T13:20:16.000Z</time>
      </trkpt>
      <trkpt lat="31.0606822967529297" lon="-6.9684262275695801">
        <ele>1246.0</ele>
        <time>2018-10-12T13:20:17.000Z</time>
      </trkpt>
      <trkpt lat="31.0607128143310547" lon="-6.9683980941772461">
        <ele>1246.0</ele>
        <time>2018-10-12T13:20:18.000Z</time>
      </trkpt>
      <trkpt lat="31.0607452392578125" lon="-6.9683699607849121">
        <ele>1246.0</ele>
        <time>2018-10-12T13:20:19.000Z</time>
      </trkpt>
      <trkpt lat="31.0607776641845703" lon="-6.9683418273925781">
        <ele>1246.0</ele>
        <time>2018-10-12T13:20:20.000Z</time>
      </trkpt>
      <trkpt lat="31.0608081817626953" lon="-6.9683132171630859">
        <ele>1246.0</ele>
        <time>2018-10-12T13:20:21.000Z</time>
      </trkpt>
      <trkpt lat="31.0608406066894531" lon="-6.9682850837707520">
        <ele>1246.0</ele>
        <time>2018-10-12T13:20:22.000Z</time>
      </trkpt>
      <trkpt lat="31.0608711242675781" lon="-6.9682559967041016">
        <ele>1246.0</ele>
        <time>2018-10-12T13:20:23.000Z</time>
      </trkpt>
      <trkpt lat="31.0609035491943359" lon="-6.9682278633117676">
        <ele>1246.0</ele>
        <time>2018-10-12T13:20:24.000Z</time>
      </trkpt>
      <trkpt lat="31.0609359741210938" lon="-6.9681987762451172">
        <ele>1246.0</ele>
        <time>2018-10-12T13:20:25.000Z</time>
      </trkpt>
      <trkpt lat="31.0609664916992188" lon="-6.9681701660156250">
        <ele>1246.0</ele>
        <time>2018-10-12T13:20:26.000Z</time>
      </trkpt>
      <trkpt lat="31.0609989166259766" lon="-6.9681410789489746">
        <ele>1246.0</ele>
        <time>2018-10-12T13:20:27.000Z</time>
      </trkpt>
      <trkpt lat="31.0610313415527344" lon="-6.9681129455566406">
        <ele>1246.0</ele>
        <time>2018-10-12T13:20:28.000Z</time>
      </trkpt>
      <trkpt lat="31.0610637664794922" lon="-6.9680857658386230">
        <ele>1246.0</ele>
        <time>2018-10-12T13:20:29.000Z</time>
      </trkpt>
      <trkpt lat="31.0610942840576172" lon="-6.9680590629577637">
        <ele>1246.0</ele>
        <time>2018-10-12T13:20:30.000Z</time>
      </trkpt>
      <trkpt lat="31.0611248016357422" lon="-6.9680318832397461">
        <ele>1246.0</ele>
        <time>2018-10-12T13:20:31.000Z</time>
      </trkpt>
      <trkpt lat="31.0611553192138672" lon="-6.9680089950561523">
        <ele>1246.0</ele>
        <time>2018-10-12T13:20:32.000Z</time>
      </trkpt>
      <trkpt lat="31.0611877441406250" lon="-6.9679889678955078">
        <ele>1246.821044921875</ele>
        <time>2018-10-12T13:20:33.000Z</time>
      </trkpt>
      <trkpt lat="31.0612182617187500" lon="-6.9679689407348633">
        <ele>1247.0</ele>
        <time>2018-10-12T13:20:34.000Z</time>
      </trkpt>
      <trkpt lat="31.0612506866455078" lon="-6.9679479598999023">
        <ele>1247.0</ele>
        <time>2018-10-12T13:20:35.000Z</time>
      </trkpt>
      <trkpt lat="31.0612812042236328" lon="-6.9679269790649414">
        <ele>1247.0</ele>
        <time>2018-10-12T13:20:36.000Z</time>
      </trkpt>
      <trkpt lat="31.0613136291503906" lon="-6.9679050445556641">
        <ele>1247.531005859375</ele>
        <time>2018-10-12T13:20:37.000Z</time>
      </trkpt>
      <trkpt lat="31.0613422393798828" lon="-6.9678812026977539">
        <ele>1248.0</ele>
        <time>2018-10-12T13:20:38.000Z</time>
      </trkpt>
      <trkpt lat="31.0613689422607422" lon="-6.9678530693054199">
        <ele>1248.0</ele>
        <time>2018-10-12T13:20:39.000Z</time>
      </trkpt>
      <trkpt lat="31.0613937377929688" lon="-6.9678249359130859">
        <ele>1247.178955078125</ele>
        <time>2018-10-12T13:20:40.000Z</time>
      </trkpt>
      <trkpt lat="31.0614185333251953" lon="-6.9677968025207520">
        <ele>1247.821044921875</ele>
        <time>2018-10-12T13:20:41.000Z</time>
      </trkpt>
      <trkpt lat="31.0614414215087891" lon="-6.9677710533142090">
        <ele>1248.0</ele>
        <time>2018-10-12T13:20:42.000Z</time>
      </trkpt>
      <trkpt lat="31.0614643096923828" lon="-6.9677457809448242">
        <ele>1248.0</ele>
        <time>2018-10-12T13:20:43.000Z</time>
      </trkpt>
      <trkpt lat="31.0614871978759766" lon="-6.9677200317382812">
        <ele>1248.0</ele>
        <time>2018-10-12T13:20:44.000Z</time>
      </trkpt>
      <trkpt lat="31.0615100860595703" lon="-6.9676938056945801">
        <ele>1248.0</ele>
        <time>2018-10-12T13:20:45.000Z</time>
      </trkpt>
      <trkpt lat="31.0615348815917969" lon="-6.9676661491394043">
        <ele>1248.0</ele>
        <time>2018-10-12T13:20:46.000Z</time>
      </trkpt>
      <trkpt lat="31.0615596771240234" lon="-6.9676380157470703">
        <ele>1248.0</ele>
        <time>2018-10-12T13:20:47.000Z</time>
      </trkpt>
      <trkpt lat="31.0615863800048828" lon="-6.9676089286804199">
        <ele>1248.0</ele>
        <time>2018-10-12T13:20:48.000Z</time>
      </trkpt>
      <trkpt lat="31.0616111755371094" lon="-6.9675807952880859">
        <ele>1248.0</ele>
        <time>2018-10-12T13:20:49.000Z</time>
      </trkpt>
      <trkpt lat="31.0616378784179688" lon="-6.9675531387329102">
        <ele>1248.0</ele>
        <time>2018-10-12T13:20:50.000Z</time>
      </trkpt>
      <trkpt lat="31.0616626739501953" lon="-6.9675269126892090">
        <ele>1248.0</ele>
        <time>2018-10-12T13:20:51.000Z</time>
      </trkpt>
      <trkpt lat="31.0616893768310547" lon="-6.9675011634826660">
        <ele>1248.0</ele>
        <time>2018-10-12T13:20:52.000Z</time>
      </trkpt>
      <trkpt lat="31.0617160797119141" lon="-6.9674749374389648">
        <ele>1248.0</ele>
        <time>2018-10-12T13:20:53.000Z</time>
      </trkpt>
      <trkpt lat="31.0617446899414062" lon="-6.9674482345581055">
        <ele>1248.0</ele>
        <time>2018-10-12T13:20:54.000Z</time>
      </trkpt>
      <trkpt lat="31.0617713928222656" lon="-6.9674210548400879">
        <ele>1248.0</ele>
        <time>2018-10-12T13:20:55.000Z</time>
      </trkpt>
      <trkpt lat="31.0618000030517578" lon="-6.9673919677734375">
        <ele>1248.0</ele>
        <time>2018-10-12T13:20:56.000Z</time>
      </trkpt>
      <trkpt lat="31.0618286132812500" lon="-6.9673628807067871">
        <ele>1248.0</ele>
        <time>2018-10-12T13:20:57.000Z</time>
      </trkpt>
      <trkpt lat="31.0618591308593750" lon="-6.9673352241516113">
        <ele>1248.0</ele>
        <time>2018-10-12T13:20:58.000Z</time>
      </trkpt>
      <trkpt lat="31.0618896484375000" lon="-6.9673080444335938">
        <ele>1248.0</ele>
        <time>2018-10-12T13:20:59.000Z</time>
      </trkpt>
      <trkpt lat="31.0619220733642578" lon="-6.9672818183898926">
        <ele>1248.0</ele>
        <time>2018-10-12T13:21:00.000Z</time>
      </trkpt>
      <trkpt lat="31.0619525909423828" lon="-6.9672570228576660">
        <ele>1248.0</ele>
        <time>2018-10-12T13:21:01.000Z</time>
      </trkpt>
      <trkpt lat="31.0619850158691406" lon="-6.9672298431396484">
        <ele>1248.821044921875</ele>
        <time>2018-10-12T13:21:02.000Z</time>
      </trkpt>
      <trkpt lat="31.0620155334472656" lon="-6.9672021865844727">
        <ele>1249.0</ele>
        <time>2018-10-12T13:21:03.000Z</time>
      </trkpt>
      <trkpt lat="31.0620460510253906" lon="-6.9671740531921387">
        <ele>1249.0</ele>
        <time>2018-10-12T13:21:04.000Z</time>
      </trkpt>
      <trkpt lat="31.0620784759521484" lon="-6.9671487808227539">
        <ele>1249.0</ele>
        <time>2018-10-12T13:21:05.000Z</time>
      </trkpt>
      <trkpt lat="31.0621109008789062" lon="-6.9671268463134766">
        <ele>1249.0</ele>
        <time>2018-10-12T13:21:06.000Z</time>
      </trkpt>
      <trkpt lat="31.0621433258056641" lon="-6.9671058654785156">
        <ele>1249.0</ele>
        <time>2018-10-12T13:21:07.000Z</time>
      </trkpt>
      <trkpt lat="31.0621795654296875" lon="-6.9670910835266113">
        <ele>1249.0</ele>
        <time>2018-10-12T13:21:08.000Z</time>
      </trkpt>
      <trkpt lat="31.0622158050537109" lon="-6.9670782089233398">
        <ele>1249.0</ele>
        <time>2018-10-12T13:21:09.000Z</time>
      </trkpt>
      <trkpt lat="31.0622501373291016" lon="-6.9670681953430176">
        <ele>1249.0</ele>
        <time>2018-10-12T13:21:10.000Z</time>
      </trkpt>
      <trkpt lat="31.0622882843017578" lon="-6.9670600891113281">
        <ele>1249.0</ele>
        <time>2018-10-12T13:21:11.000Z</time>
      </trkpt>
      <trkpt lat="31.0623245239257812" lon="-6.9670529365539551">
        <ele>1249.0</ele>
        <time>2018-10-12T13:21:12.000Z</time>
      </trkpt>
      <trkpt lat="31.0623607635498047" lon="-6.9670448303222656">
        <ele>1249.0</ele>
        <time>2018-10-12T13:21:13.000Z</time>
      </trkpt>
      <trkpt lat="31.0623950958251953" lon="-6.9670357704162598">
        <ele>1248.363525390625</ele>
        <time>2018-10-12T13:21:14.000Z</time>
      </trkpt>
      <trkpt lat="31.0624313354492188" lon="-6.9670310020446777">
        <ele>1248.0</ele>
        <time>2018-10-12T13:21:15.000Z</time>
      </trkpt>
      <trkpt lat="31.0624675750732422" lon="-6.9670300483703613">
        <ele>1248.0</ele>
        <time>2018-10-12T13:21:16.000Z</time>
      </trkpt>
      <trkpt lat="31.0625019073486328" lon="-6.9670319557189941">
        <ele>1248.0</ele>
        <time>2018-10-12T13:21:17.000Z</time>
      </trkpt>
      <trkpt lat="31.0625362396240234" lon="-6.9670348167419434">
        <ele>1248.0</ele>
        <time>2018-10-12T13:21:18.000Z</time>
      </trkpt>
      <trkpt lat="31.0625743865966797" lon="-6.9670391082763672">
        <ele>1248.0</ele>
        <time>2018-10-12T13:21:19.000Z</time>
      </trkpt>
      <trkpt lat="31.0626144409179688" lon="-6.9670448303222656">
        <ele>1248.0</ele>
        <time>2018-10-12T13:21:20.000Z</time>
      </trkpt>
      <trkpt lat="31.0626525878906250" lon="-6.9670529365539551">
        <ele>1248.0</ele>
        <time>2018-10-12T13:21:21.000Z</time>
      </trkpt>
      <trkpt lat="31.0626888275146484" lon="-6.9670619964599609">
        <ele>1248.0</ele>
        <time>2018-10-12T13:21:22.000Z</time>
      </trkpt>
      <trkpt lat="31.0627231597900391" lon="-6.9670710563659668">
        <ele>1248.0</ele>
        <time>2018-10-12T13:21:23.000Z</time>
      </trkpt>
      <trkpt lat="31.0627555847167969" lon="-6.9670801162719727">
        <ele>1248.821044921875</ele>
        <time>2018-10-12T13:21:24.000Z</time>
      </trkpt>
      <trkpt lat="31.0627918243408203" lon="-6.9670891761779785">
        <ele>1249.0</ele>
        <time>2018-10-12T13:21:25.000Z</time>
      </trkpt>
      <trkpt lat="31.0628280639648438" lon="-6.9670982360839844">
        <ele>1249.0</ele>
        <time>2018-10-12T13:21:26.000Z</time>
      </trkpt>
      <trkpt lat="31.0628719329833984" lon="-6.9671092033386230">
        <ele>1249.0</ele>
        <time>2018-10-12T13:21:27.000Z</time>
      </trkpt>
      <trkpt lat="31.0629119873046875" lon="-6.9671201705932617">
        <ele>1249.0</ele>
        <time>2018-10-12T13:21:28.000Z</time>
      </trkpt>
      <trkpt lat="31.0629539489746094" lon="-6.9671301841735840">
        <ele>1249.0</ele>
        <time>2018-10-12T13:21:29.000Z</time>
      </trkpt>
      <trkpt lat="31.0629959106445312" lon="-6.9671359062194824">
        <ele>1249.0</ele>
        <time>2018-10-12T13:21:30.000Z</time>
      </trkpt>
      <trkpt lat="31.0630397796630859" lon="-6.9671411514282227">
        <ele>1249.0</ele>
        <time>2018-10-12T13:21:31.000Z</time>
      </trkpt>
      <trkpt lat="31.0630817413330078" lon="-6.9671459197998047">
        <ele>1249.0</ele>
        <time>2018-10-12T13:21:32.000Z</time>
      </trkpt>
      <trkpt lat="31.0631256103515625" lon="-6.9671502113342285">
        <ele>1249.0</ele>
        <time>2018-10-12T13:21:33.000Z</time>
      </trkpt>
      <trkpt lat="31.0631675720214844" lon="-6.9671530723571777">
        <ele>1249.0</ele>
        <time>2018-10-12T13:21:34.000Z</time>
      </trkpt>
      <trkpt lat="31.0632095336914062" lon="-6.9671549797058105">
        <ele>1249.0</ele>
        <time>2018-10-12T13:21:35.000Z</time>
      </trkpt>
      <trkpt lat="31.0632495880126953" lon="-6.9671559333801270">
        <ele>1249.0</ele>
        <time>2018-10-12T13:21:36.000Z</time>
      </trkpt>
      <trkpt lat="31.0632915496826172" lon="-6.9671549797058105">
        <ele>1249.0</ele>
        <time>2018-10-12T13:21:37.000Z</time>
      </trkpt>
      <trkpt lat="31.0633335113525391" lon="-6.9671530723571777">
        <ele>1249.0</ele>
        <time>2018-10-12T13:21:38.000Z</time>
      </trkpt>
      <trkpt lat="31.0633735656738281" lon="-6.9671487808227539">
        <ele>1249.0</ele>
        <time>2018-10-12T13:21:39.000Z</time>
      </trkpt>
      <trkpt lat="31.0634136199951172" lon="-6.9671430587768555">
        <ele>1249.0</ele>
        <time>2018-10-12T13:21:40.000Z</time>
      </trkpt>
      <trkpt lat="31.0634536743164062" lon="-6.9671349525451660">
        <ele>1249.0</ele>
        <time>2018-10-12T13:21:41.000Z</time>
      </trkpt>
      <trkpt lat="31.0634956359863281" lon="-6.9671230316162109">
        <ele>1249.0</ele>
        <time>2018-10-12T13:21:42.000Z</time>
      </trkpt>
      <trkpt lat="31.0635414123535156" lon="-6.9671049118041992">
        <ele>1249.0</ele>
        <time>2018-10-12T13:21:43.000Z</time>
      </trkpt>
      <trkpt lat="31.0635929107666016" lon="-6.9670820236206055">
        <ele>1249.0</ele>
        <time>2018-10-12T13:21:44.000Z</time>
      </trkpt>
      <trkpt lat="31.0636425018310547" lon="-6.9670538902282715">
        <ele>1249.0</ele>
        <time>2018-10-12T13:21:45.000Z</time>
      </trkpt>
      <trkpt lat="31.0636901855468750" lon="-6.9670219421386719">
        <ele>1249.0</ele>
        <time>2018-10-12T13:21:46.000Z</time>
      </trkpt>
      <trkpt lat="31.0637378692626953" lon="-6.9669871330261230">
        <ele>1249.0</ele>
        <time>2018-10-12T13:21:47.000Z</time>
      </trkpt>
      <trkpt lat="31.0637798309326172" lon="-6.9669489860534668">
        <ele>1249.0</ele>
        <time>2018-10-12T13:21:48.000Z</time>
      </trkpt>
      <trkpt lat="31.0638198852539062" lon="-6.9669098854064941">
        <ele>1249.0</ele>
        <time>2018-10-12T13:21:49.000Z</time>
      </trkpt>
      <trkpt lat="31.0638561248779297" lon="-6.9668707847595215">
        <ele>1249.0</ele>
        <time>2018-10-12T13:21:50.000Z</time>
      </trkpt>
      <trkpt lat="31.0638904571533203" lon="-6.9668340682983398">
        <ele>1249.0</ele>
        <time>2018-10-12T13:21:51.000Z</time>
      </trkpt>
      <trkpt lat="31.0639228820800781" lon="-6.9667987823486328">
        <ele>1249.0</ele>
        <time>2018-10-12T13:21:52.000Z</time>
      </trkpt>
      <trkpt lat="31.0639553070068359" lon="-6.9667649269104004">
        <ele>1249.0</ele>
        <time>2018-10-12T13:21:53.000Z</time>
      </trkpt>
      <trkpt lat="31.0639839172363281" lon="-6.9667329788208008">
        <ele>1249.0</ele>
        <time>2018-10-12T13:21:54.000Z</time>
      </trkpt>
      <trkpt lat="31.0640106201171875" lon="-6.9667010307312012">
        <ele>1249.0</ele>
        <time>2018-10-12T13:21:55.000Z</time>
      </trkpt>
      <trkpt lat="31.0640354156494141" lon="-6.9666690826416016">
        <ele>1249.0</ele>
        <time>2018-10-12T13:21:56.000Z</time>
      </trkpt>
      <trkpt lat="31.0640621185302734" lon="-6.9666361808776855">
        <ele>1249.0</ele>
        <time>2018-10-12T13:21:57.000Z</time>
      </trkpt>
      <trkpt lat="31.0640907287597656" lon="-6.9665989875793457">
        <ele>1249.0</ele>
        <time>2018-10-12T13:21:58.000Z</time>
      </trkpt>
      <trkpt lat="31.0641174316406250" lon="-6.9665608406066895">
        <ele>1249.0</ele>
        <time>2018-10-12T13:21:59.000Z</time>
      </trkpt>
      <trkpt lat="31.0641479492187500" lon="-6.9665188789367676">
        <ele>1249.0</ele>
        <time>2018-10-12T13:22:00.000Z</time>
      </trkpt>
      <trkpt lat="31.0641765594482422" lon="-6.9664759635925293">
        <ele>1249.0</ele>
        <time>2018-10-12T13:22:01.000Z</time>
      </trkpt>
      <trkpt lat="31.0642070770263672" lon="-6.9664330482482910">
        <ele>1249.0</ele>
        <time>2018-10-12T13:22:02.000Z</time>
      </trkpt>
      <trkpt lat="31.0642375946044922" lon="-6.9663891792297363">
        <ele>1249.0</ele>
        <time>2018-10-12T13:22:03.000Z</time>
      </trkpt>
      <trkpt lat="31.0642662048339844" lon="-6.9663438796997070">
        <ele>1249.0</ele>
        <time>2018-10-12T13:22:04.000Z</time>
      </trkpt>
      <trkpt lat="31.0642967224121094" lon="-6.9662990570068359">
        <ele>1249.0</ele>
        <time>2018-10-12T13:22:05.000Z</time>
      </trkpt>
      <trkpt lat="31.0643253326416016" lon="-6.9662542343139648">
        <ele>1249.0</ele>
        <time>2018-10-12T13:22:06.000Z</time>
      </trkpt>
      <trkpt lat="31.0643558502197266" lon="-6.9662079811096191">
        <ele>1249.0</ele>
        <time>2018-10-12T13:22:07.000Z</time>
      </trkpt>
      <trkpt lat="31.0643844604492188" lon="-6.9661607742309570">
        <ele>1249.0</ele>
        <time>2018-10-12T13:22:08.000Z</time>
      </trkpt>
      <trkpt lat="31.0644149780273438" lon="-6.9661140441894531">
        <ele>1249.0</ele>
        <time>2018-10-12T13:22:09.000Z</time>
      </trkpt>
      <trkpt lat="31.0644454956054688" lon="-6.9660668373107910">
        <ele>1249.0</ele>
        <time>2018-10-12T13:22:10.000Z</time>
      </trkpt>
      <trkpt lat="31.0644741058349609" lon="-6.9660220146179199">
        <ele>1249.0</ele>
        <time>2018-10-12T13:22:11.000Z</time>
      </trkpt>
      <trkpt lat="31.0645065307617188" lon="-6.9659781455993652">
        <ele>1249.0</ele>
        <time>2018-10-12T13:22:12.000Z</time>
      </trkpt>
      <trkpt lat="31.0645408630371094" lon="-6.9659352302551270">
        <ele>1249.0</ele>
        <time>2018-10-12T13:22:13.000Z</time>
      </trkpt>
      <trkpt lat="31.0645732879638672" lon="-6.9658927917480469">
        <ele>1249.0</ele>
        <time>2018-10-12T13:22:14.000Z</time>
      </trkpt>
      <trkpt lat="31.0646095275878906" lon="-6.9658541679382324">
        <ele>1249.0</ele>
        <time>2018-10-12T13:22:15.000Z</time>
      </trkpt>
      <trkpt lat="31.0646476745605469" lon="-6.9658169746398926">
        <ele>1249.0</ele>
        <time>2018-10-12T13:22:16.000Z</time>
      </trkpt>
      <trkpt lat="31.0646858215332031" lon="-6.9657831192016602">
        <ele>1249.0</ele>
        <time>2018-10-12T13:22:17.000Z</time>
      </trkpt>
      <trkpt lat="31.0647239685058594" lon="-6.9657511711120605">
        <ele>1249.0</ele>
        <time>2018-10-12T13:22:18.000Z</time>
      </trkpt>
      <trkpt lat="31.0647621154785156" lon="-6.9657192230224609">
        <ele>1249.0</ele>
        <time>2018-10-12T13:22:19.000Z</time>
      </trkpt>
      <trkpt lat="31.0648002624511719" lon="-6.9656858444213867">
        <ele>1249.821044921875</ele>
        <time>2018-10-12T13:22:20.000Z</time>
      </trkpt>
      <trkpt lat="31.0648384094238281" lon="-6.9656558036804199">
        <ele>1250.0</ele>
        <time>2018-10-12T13:22:21.000Z</time>
      </trkpt>
      <trkpt lat="31.0648784637451172" lon="-6.9656248092651367">
        <ele>1250.0</ele>
        <time>2018-10-12T13:22:22.000Z</time>
      </trkpt>
      <trkpt lat="31.0649166107177734" lon="-6.9655938148498535">
        <ele>1250.0</ele>
        <time>2018-10-12T13:22:23.000Z</time>
      </trkpt>
      <trkpt lat="31.0649547576904297" lon="-6.9655609130859375">
        <ele>1250.0</ele>
        <time>2018-10-12T13:22:24.000Z</time>
      </trkpt>
      <trkpt lat="31.0649890899658203" lon="-6.9655289649963379">
        <ele>1250.0</ele>
        <time>2018-10-12T13:22:25.000Z</time>
      </trkpt>
      <trkpt lat="31.0650253295898438" lon="-6.9654951095581055">
        <ele>1250.0</ele>
        <time>2018-10-12T13:22:26.000Z</time>
      </trkpt>
      <trkpt lat="31.0650615692138672" lon="-6.9654607772827148">
        <ele>1250.0</ele>
        <time>2018-10-12T13:22:27.000Z</time>
      </trkpt>
      <trkpt lat="31.0650959014892578" lon="-6.9654259681701660">
        <ele>1250.0</ele>
        <time>2018-10-12T13:22:28.000Z</time>
      </trkpt>
      <trkpt lat="31.0651302337646484" lon="-6.9653921127319336">
        <ele>1250.0</ele>
        <time>2018-10-12T13:22:29.000Z</time>
      </trkpt>
      <trkpt lat="31.0651645660400391" lon="-6.9653592109680176">
        <ele>1250.0</ele>
        <time>2018-10-12T13:22:30.000Z</time>
      </trkpt>
      <trkpt lat="31.0651988983154297" lon="-6.9653258323669434">
        <ele>1250.0</ele>
        <time>2018-10-12T13:22:31.000Z</time>
      </trkpt>
      <trkpt lat="31.0652332305908203" lon="-6.9652938842773438">
        <ele>1250.821044921875</ele>
        <time>2018-10-12T13:22:32.000Z</time>
      </trkpt>
      <trkpt lat="31.0652694702148438" lon="-6.9652619361877441">
        <ele>1251.0</ele>
        <time>2018-10-12T13:22:33.000Z</time>
      </trkpt>
      <trkpt lat="31.0653057098388672" lon="-6.9652309417724609">
        <ele>1251.0</ele>
        <time>2018-10-12T13:22:34.000Z</time>
      </trkpt>
      <trkpt lat="31.0653457641601562" lon="-6.9652009010314941">
        <ele>1251.0</ele>
        <time>2018-10-12T13:22:35.000Z</time>
      </trkpt>
      <trkpt lat="31.0653839111328125" lon="-6.9651718139648438">
        <ele>1251.0</ele>
        <time>2018-10-12T13:22:36.000Z</time>
      </trkpt>
      <trkpt lat="31.0654220581054688" lon="-6.9651432037353516">
        <ele>1251.0</ele>
        <time>2018-10-12T13:22:37.000Z</time>
      </trkpt>
      <trkpt lat="31.0654602050781250" lon="-6.9651160240173340">
        <ele>1251.0</ele>
        <time>2018-10-12T13:22:38.000Z</time>
      </trkpt>
      <trkpt lat="31.0655002593994141" lon="-6.9650912284851074">
        <ele>1251.0</ele>
        <time>2018-10-12T13:22:39.000Z</time>
      </trkpt>
      <trkpt lat="31.0655384063720703" lon="-6.9650688171386719">
        <ele>1251.0</ele>
        <time>2018-10-12T13:22:40.000Z</time>
      </trkpt>
      <trkpt lat="31.0655784606933594" lon="-6.9650478363037109">
        <ele>1251.0</ele>
        <time>2018-10-12T13:22:41.000Z</time>
      </trkpt>
      <trkpt lat="31.0656166076660156" lon="-6.9650278091430664">
        <ele>1251.0</ele>
        <time>2018-10-12T13:22:42.000Z</time>
      </trkpt>
      <trkpt lat="31.0656528472900391" lon="-6.9650092124938965">
        <ele>1251.0</ele>
        <time>2018-10-12T13:22:43.000Z</time>
      </trkpt>
      <trkpt lat="31.0656890869140625" lon="-6.9649910926818848">
        <ele>1251.0</ele>
        <time>2018-10-12T13:22:44.000Z</time>
      </trkpt>
      <trkpt lat="31.0657234191894531" lon="-6.9649739265441895">
        <ele>1251.0</ele>
        <time>2018-10-12T13:22:45.000Z</time>
      </trkpt>
      <trkpt lat="31.0657577514648438" lon="-6.9649591445922852">
        <ele>1251.0</ele>
        <time>2018-10-12T13:22:46.000Z</time>
      </trkpt>
      <trkpt lat="31.0657920837402344" lon="-6.9649457931518555">
        <ele>1251.0</ele>
        <time>2018-10-12T13:22:47.000Z</time>
      </trkpt>
      <trkpt lat="31.0658264160156250" lon="-6.9649348258972168">
        <ele>1251.0</ele>
        <time>2018-10-12T13:22:48.000Z</time>
      </trkpt>
      <trkpt lat="31.0658626556396484" lon="-6.9649257659912109">
        <ele>1251.0</ele>
        <time>2018-10-12T13:22:49.000Z</time>
      </trkpt>
      <trkpt lat="31.0659027099609375" lon="-6.9649200439453125">
        <ele>1251.0</ele>
        <time>2018-10-12T13:22:50.000Z</time>
      </trkpt>
      <trkpt lat="31.0659446716308594" lon="-6.9649171829223633">
        <ele>1251.0</ele>
        <time>2018-10-12T13:22:51.000Z</time>
      </trkpt>
      <trkpt lat="31.0659866333007812" lon="-6.9649181365966797">
        <ele>1251.0</ele>
        <time>2018-10-12T13:22:52.000Z</time>
      </trkpt>
      <trkpt lat="31.0660285949707031" lon="-6.9649238586425781">
        <ele>1251.0</ele>
        <time>2018-10-12T13:22:53.000Z</time>
      </trkpt>
      <trkpt lat="31.0660705566406250" lon="-6.9649338722229004">
        <ele>1251.0</ele>
        <time>2018-10-12T13:22:54.000Z</time>
      </trkpt>
      <trkpt lat="31.0661087036132812" lon="-6.9649472236633301">
        <ele>1251.0</ele>
        <time>2018-10-12T13:22:55.000Z</time>
      </trkpt>
      <trkpt lat="31.0661468505859375" lon="-6.9649620056152344">
        <ele>1251.0</ele>
        <time>2018-10-12T13:22:56.000Z</time>
      </trkpt>
      <trkpt lat="31.0661849975585938" lon="-6.9649767875671387">
        <ele>1251.0</ele>
        <time>2018-10-12T13:22:57.000Z</time>
      </trkpt>
      <trkpt lat="31.0662269592285156" lon="-6.9649920463562012">
        <ele>1251.0</ele>
        <time>2018-10-12T13:22:58.000Z</time>
      </trkpt>
      <trkpt lat="31.0662746429443359" lon="-6.9650049209594727">
        <ele>1251.0</ele>
        <time>2018-10-12T13:22:59.000Z</time>
      </trkpt>
      <trkpt lat="31.0663261413574219" lon="-6.9650149345397949">
        <ele>1250.373291015625</ele>
        <time>2018-10-12T13:23:00.000Z</time>
      </trkpt>
      <trkpt lat="31.0663776397705078" lon="-6.9650201797485352">
        <ele>1250.0</ele>
        <time>2018-10-12T13:23:01.000Z</time>
      </trkpt>
      <trkpt lat="31.0664291381835938" lon="-6.9650201797485352">
        <ele>1250.0</ele>
        <time>2018-10-12T13:23:02.000Z</time>
      </trkpt>
      <trkpt lat="31.0664806365966797" lon="-6.9650168418884277">
        <ele>1250.0</ele>
        <time>2018-10-12T13:23:03.000Z</time>
      </trkpt>
      <trkpt lat="31.0665302276611328" lon="-6.9650111198425293">
        <ele>1250.0</ele>
        <time>2018-10-12T13:23:04.000Z</time>
      </trkpt>
      <trkpt lat="31.0665798187255859" lon="-6.9650030136108398">
        <ele>1250.0</ele>
        <time>2018-10-12T13:23:05.000Z</time>
      </trkpt>
      <trkpt lat="31.0666275024414062" lon="-6.9649939537048340">
        <ele>1250.0</ele>
        <time>2018-10-12T13:23:06.000Z</time>
      </trkpt>
      <trkpt lat="31.0666713714599609" lon="-6.9649848937988281">
        <ele>1250.0</ele>
        <time>2018-10-12T13:23:07.000Z</time>
      </trkpt>
      <trkpt lat="31.0667133331298828" lon="-6.9649782180786133">
        <ele>1250.0</ele>
        <time>2018-10-12T13:23:08.000Z</time>
      </trkpt>
      <trkpt lat="31.0667514801025391" lon="-6.9649710655212402">
        <ele>1250.0</ele>
        <time>2018-10-12T13:23:09.000Z</time>
      </trkpt>
      <trkpt lat="31.0667896270751953" lon="-6.9649658203125000">
        <ele>1250.0</ele>
        <time>2018-10-12T13:23:10.000Z</time>
      </trkpt>
      <trkpt lat="31.0668277740478516" lon="-6.9649639129638672">
        <ele>1250.0</ele>
        <time>2018-10-12T13:23:11.000Z</time>
      </trkpt>
      <trkpt lat="31.0668640136718750" lon="-6.9649667739868164">
        <ele>1250.0</ele>
        <time>2018-10-12T13:23:12.000Z</time>
      </trkpt>
      <trkpt lat="31.0668983459472656" lon="-6.9649729728698730">
        <ele>1250.0</ele>
        <time>2018-10-12T13:23:13.000Z</time>
      </trkpt>
      <trkpt lat="31.0669326782226562" lon="-6.9649801254272461">
        <ele>1250.0</ele>
        <time>2018-10-12T13:23:14.000Z</time>
      </trkpt>
      <trkpt lat="31.0669651031494141" lon="-6.9649891853332520">
        <ele>1250.0</ele>
        <time>2018-10-12T13:23:15.000Z</time>
      </trkpt>
      <trkpt lat="31.0670013427734375" lon="-6.9650001525878906">
        <ele>1250.0</ele>
        <time>2018-10-12T13:23:16.000Z</time>
      </trkpt>
      <trkpt lat="31.0670394897460938" lon="-6.9650111198425293">
        <ele>1250.0</ele>
        <time>2018-10-12T13:23:17.000Z</time>
      </trkpt>
      <trkpt lat="31.0670795440673828" lon="-6.9650201797485352">
        <ele>1250.0</ele>
        <time>2018-10-12T13:23:18.000Z</time>
      </trkpt>
      <trkpt lat="31.0671195983886719" lon="-6.9650259017944336">
        <ele>1250.0</ele>
        <time>2018-10-12T13:23:19.000Z</time>
      </trkpt>
      <trkpt lat="31.0671634674072266" lon="-6.9650287628173828">
        <ele>1250.0</ele>
        <time>2018-10-12T13:23:20.000Z</time>
      </trkpt>
      <trkpt lat="31.0672092437744141" lon="-6.9650311470031738">
        <ele>1250.0</ele>
        <time>2018-10-12T13:23:21.000Z</time>
      </trkpt>
      <trkpt lat="31.0672588348388672" lon="-6.9650330543518066">
        <ele>1250.0</ele>
        <time>2018-10-12T13:23:22.000Z</time>
      </trkpt>
      <trkpt lat="31.0673103332519531" lon="-6.9650368690490723">
        <ele>1250.0</ele>
        <time>2018-10-12T13:23:23.000Z</time>
      </trkpt>
      <trkpt lat="31.0673618316650391" lon="-6.9650402069091797">
        <ele>1250.0</ele>
        <time>2018-10-12T13:23:24.000Z</time>
      </trkpt>
      <trkpt lat="31.0674076080322266" lon="-6.9650440216064453">
        <ele>1250.0</ele>
        <time>2018-10-12T13:23:25.000Z</time>
      </trkpt>
      <trkpt lat="31.0674514770507812" lon="-6.9650478363037109">
        <ele>1250.0</ele>
        <time>2018-10-12T13:23:26.000Z</time>
      </trkpt>
      <trkpt lat="31.0674934387207031" lon="-6.9650511741638184">
        <ele>1250.0</ele>
        <time>2018-10-12T13:23:27.000Z</time>
      </trkpt>
      <trkpt lat="31.0675354003906250" lon="-6.9650549888610840">
        <ele>1250.0</ele>
        <time>2018-10-12T13:23:28.000Z</time>
      </trkpt>
      <trkpt lat="31.0675773620605469" lon="-6.9650588035583496">
        <ele>1250.0</ele>
        <time>2018-10-12T13:23:29.000Z</time>
      </trkpt>
      <trkpt lat="31.0676174163818359" lon="-6.9650640487670898">
        <ele>1250.0</ele>
        <time>2018-10-12T13:23:30.000Z</time>
      </trkpt>
      <trkpt lat="31.0676593780517578" lon="-6.9650688171386719">
        <ele>1250.0</ele>
        <time>2018-10-12T13:23:31.000Z</time>
      </trkpt>
      <trkpt lat="31.0676994323730469" lon="-6.9650740623474121">
        <ele>1250.0</ele>
        <time>2018-10-12T13:23:32.000Z</time>
      </trkpt>
      <trkpt lat="31.0677394866943359" lon="-6.9650788307189941">
        <ele>1250.0</ele>
        <time>2018-10-12T13:23:33.000Z</time>
      </trkpt>
      <trkpt lat="31.0677795410156250" lon="-6.9650831222534180">
        <ele>1250.0</ele>
        <time>2018-10-12T13:23:34.000Z</time>
      </trkpt>
      <trkpt lat="31.0678176879882812" lon="-6.9650878906250000">
        <ele>1250.0</ele>
        <time>2018-10-12T13:23:35.000Z</time>
      </trkpt>
      <trkpt lat="31.0678558349609375" lon="-6.9650931358337402">
        <ele>1250.0</ele>
        <time>2018-10-12T13:23:36.000Z</time>
      </trkpt>
      <trkpt lat="31.0678939819335938" lon="-6.9650988578796387">
        <ele>1250.0</ele>
        <time>2018-10-12T13:23:37.000Z</time>
      </trkpt>
      <trkpt lat="31.0679321289062500" lon="-6.9651060104370117">
        <ele>1250.821044921875</ele>
        <time>2018-10-12T13:23:38.000Z</time>
      </trkpt>
      <trkpt lat="31.0679702758789062" lon="-6.9651122093200684">
        <ele>1251.0</ele>
        <time>2018-10-12T13:23:39.000Z</time>
      </trkpt>
      <trkpt lat="31.0680103302001953" lon="-6.9651169776916504">
        <ele>1251.0</ele>
        <time>2018-10-12T13:23:40.000Z</time>
      </trkpt>
      <trkpt lat="31.0680484771728516" lon="-6.9651222229003906">
        <ele>1251.0</ele>
        <time>2018-10-12T13:23:41.000Z</time>
      </trkpt>
      <trkpt lat="31.0680885314941406" lon="-6.9651260375976562">
        <ele>1251.0</ele>
        <time>2018-10-12T13:23:42.000Z</time>
      </trkpt>
      <trkpt lat="31.0681285858154297" lon="-6.9651288986206055">
        <ele>1251.0</ele>
        <time>2018-10-12T13:23:43.000Z</time>
      </trkpt>
      <trkpt lat="31.0681686401367188" lon="-6.9651331901550293">
        <ele>1251.0</ele>
        <time>2018-10-12T13:23:44.000Z</time>
      </trkpt>
      <trkpt lat="31.0682086944580078" lon="-6.9651379585266113">
        <ele>1251.0</ele>
        <time>2018-10-12T13:23:45.000Z</time>
      </trkpt>
      <trkpt lat="31.0682468414306641" lon="-6.9651417732238770">
        <ele>1251.0</ele>
        <time>2018-10-12T13:23:46.000Z</time>
      </trkpt>
      <trkpt lat="31.0682849884033203" lon="-6.9651460647583008">
        <ele>1251.0</ele>
        <time>2018-10-12T13:23:47.000Z</time>
      </trkpt>
      <trkpt lat="31.0683231353759766" lon="-6.9651498794555664">
        <ele>1251.0</ele>
        <time>2018-10-12T13:23:48.000Z</time>
      </trkpt>
      <trkpt lat="31.0683612823486328" lon="-6.9651532173156738">
        <ele>1251.0</ele>
        <time>2018-10-12T13:23:49.000Z</time>
      </trkpt>
      <trkpt lat="31.0683994293212891" lon="-6.9651570320129395">
        <ele>1251.0</ele>
        <time>2018-10-12T13:23:50.000Z</time>
      </trkpt>
      <trkpt lat="31.0684375762939453" lon="-6.9651598930358887">
        <ele>1251.0</ele>
        <time>2018-10-12T13:23:51.000Z</time>
      </trkpt>
      <trkpt lat="31.0684757232666016" lon="-6.9651632308959961">
        <ele>1251.0</ele>
        <time>2018-10-12T13:23:52.000Z</time>
      </trkpt>
      <trkpt lat="31.0685119628906250" lon="-6.9651670455932617">
        <ele>1251.821044921875</ele>
        <time>2018-10-12T13:23:53.000Z</time>
      </trkpt>
      <trkpt lat="31.0685482025146484" lon="-6.9651718139648438">
        <ele>1252.0</ele>
        <time>2018-10-12T13:23:54.000Z</time>
      </trkpt>
      <trkpt lat="31.0685863494873047" lon="-6.9651761054992676">
        <ele>1252.0</ele>
        <time>2018-10-12T13:23:55.000Z</time>
      </trkpt>
      <trkpt lat="31.0686225891113281" lon="-6.9651799201965332">
        <ele>1252.0</ele>
        <time>2018-10-12T13:23:56.000Z</time>
      </trkpt>
      <trkpt lat="31.0686607360839844" lon="-6.9651842117309570">
        <ele>1252.0</ele>
        <time>2018-10-12T13:23:57.000Z</time>
      </trkpt>
      <trkpt lat="31.0686988830566406" lon="-6.9651889801025391">
        <ele>1252.0</ele>
        <time>2018-10-12T13:23:58.000Z</time>
      </trkpt>
      <trkpt lat="31.0687351226806641" lon="-6.9651942253112793">
        <ele>1252.0</ele>
        <time>2018-10-12T13:23:59.000Z</time>
      </trkpt>
      <trkpt lat="31.0687713623046875" lon="-6.9651989936828613">
        <ele>1252.0</ele>
        <time>2018-10-12T13:24:00.000Z</time>
      </trkpt>
      <trkpt lat="31.0688076019287109" lon="-6.9652028083801270">
        <ele>1252.0</ele>
        <time>2018-10-12T13:24:01.000Z</time>
      </trkpt>
      <trkpt lat="31.0688419342041016" lon="-6.9652080535888672">
        <ele>1252.0</ele>
        <time>2018-10-12T13:24:02.000Z</time>
      </trkpt>
      <trkpt lat="31.0688743591308594" lon="-6.9652152061462402">
        <ele>1252.0</ele>
        <time>2018-10-12T13:24:03.000Z</time>
      </trkpt>
      <trkpt lat="31.0689086914062500" lon="-6.9652218818664551">
        <ele>1252.0</ele>
        <time>2018-10-12T13:24:04.000Z</time>
      </trkpt>
      <trkpt lat="31.0689411163330078" lon="-6.9652299880981445">
        <ele>1252.0</ele>
        <time>2018-10-12T13:24:05.000Z</time>
      </trkpt>
      <trkpt lat="31.0689754486083984" lon="-6.9652380943298340">
        <ele>1252.0</ele>
        <time>2018-10-12T13:24:06.000Z</time>
      </trkpt>
      <trkpt lat="31.0690097808837891" lon="-6.9652462005615234">
        <ele>1252.0</ele>
        <time>2018-10-12T13:24:07.000Z</time>
      </trkpt>
      <trkpt lat="31.0690441131591797" lon="-6.9652547836303711">
        <ele>1252.0</ele>
        <time>2018-10-12T13:24:08.000Z</time>
      </trkpt>
      <trkpt lat="31.0690803527832031" lon="-6.9652662277221680">
        <ele>1252.0</ele>
        <time>2018-10-12T13:24:09.000Z</time>
      </trkpt>
      <trkpt lat="31.0691165924072266" lon="-6.9652771949768066">
        <ele>1252.0</ele>
        <time>2018-10-12T13:24:10.000Z</time>
      </trkpt>
      <trkpt lat="31.0691528320312500" lon="-6.9652872085571289">
        <ele>1252.0</ele>
        <time>2018-10-12T13:24:11.000Z</time>
      </trkpt>
      <trkpt lat="31.0691890716552734" lon="-6.9653000831604004">
        <ele>1252.0</ele>
        <time>2018-10-12T13:24:12.000Z</time>
      </trkpt>
      <trkpt lat="31.0692253112792969" lon="-6.9653148651123047">
        <ele>1252.0</ele>
        <time>2018-10-12T13:24:13.000Z</time>
      </trkpt>
      <trkpt lat="31.0692596435546875" lon="-6.9653310775756836">
        <ele>1252.0</ele>
        <time>2018-10-12T13:24:14.000Z</time>
      </trkpt>
      <trkpt lat="31.0692901611328125" lon="-6.9653458595275879">
        <ele>1252.0</ele>
        <time>2018-10-12T13:24:15.000Z</time>
      </trkpt>
      <trkpt lat="31.0693149566650391" lon="-6.9653558731079102">
        <ele>1251.373291015625</ele>
        <time>2018-10-12T13:24:16.000Z</time>
      </trkpt>
      <trkpt lat="31.0693378448486328" lon="-6.9653639793395996">
        <ele>1251.0</ele>
        <time>2018-10-12T13:24:17.000Z</time>
      </trkpt>
      <trkpt lat="31.0693607330322266" lon="-6.9653739929199219">
        <ele>1251.0</ele>
        <time>2018-10-12T13:24:18.000Z</time>
      </trkpt>
      <trkpt lat="31.0693893432617188" lon="-6.9653878211975098">
        <ele>1251.0</ele>
        <time>2018-10-12T13:24:19.000Z</time>
      </trkpt>
      <trkpt lat="31.0694217681884766" lon="-6.9654040336608887">
        <ele>1251.0</ele>
        <time>2018-10-12T13:24:20.000Z</time>
      </trkpt>
      <trkpt lat="31.0694580078125000" lon="-6.9654197692871094">
        <ele>1251.0</ele>
        <time>2018-10-12T13:24:21.000Z</time>
      </trkpt>
      <trkpt lat="31.0694923400878906" lon="-6.9654369354248047">
        <ele>1251.821044921875</ele>
        <time>2018-10-12T13:24:22.000Z</time>
      </trkpt>
      <trkpt lat="31.0695247650146484" lon="-6.9654531478881836">
        <ele>1252.0</ele>
        <time>2018-10-12T13:24:23.000Z</time>
      </trkpt>
      <trkpt lat="31.0695552825927734" lon="-6.9654679298400879">
        <ele>1252.0</ele>
        <time>2018-10-12T13:24:24.000Z</time>
      </trkpt>
      <trkpt lat="31.0695838928222656" lon="-6.9654822349548340">
        <ele>1252.0</ele>
        <time>2018-10-12T13:24:25.000Z</time>
      </trkpt>
      <trkpt lat="31.0696086883544922" lon="-6.9654951095581055">
        <ele>1252.0</ele>
        <time>2018-10-12T13:24:26.000Z</time>
      </trkpt>
      <trkpt lat="31.0696353912353516" lon="-6.9655089378356934">
        <ele>1252.0</ele>
        <time>2018-10-12T13:24:27.000Z</time>
      </trkpt>
      <trkpt lat="31.0696620941162109" lon="-6.9655251502990723">
        <ele>1252.0</ele>
        <time>2018-10-12T13:24:28.000Z</time>
      </trkpt>
      <trkpt lat="31.0696945190429688" lon="-6.9655418395996094">
        <ele>1252.0</ele>
        <time>2018-10-12T13:24:29.000Z</time>
      </trkpt>
      <trkpt lat="31.0697288513183594" lon="-6.9655599594116211">
        <ele>1252.0</ele>
        <time>2018-10-12T13:24:30.000Z</time>
      </trkpt>
      <trkpt lat="31.0697631835937500" lon="-6.9655780792236328">
        <ele>1252.0</ele>
        <time>2018-10-12T13:24:31.000Z</time>
      </trkpt>
      <trkpt lat="31.0697994232177734" lon="-6.9655971527099609">
        <ele>1252.0</ele>
        <time>2018-10-12T13:24:32.000Z</time>
      </trkpt>
      <trkpt lat="31.0698356628417969" lon="-6.9656162261962891">
        <ele>1252.0</ele>
        <time>2018-10-12T13:24:33.000Z</time>
      </trkpt>
      <trkpt lat="31.0698719024658203" lon="-6.9656348228454590">
        <ele>1252.0</ele>
        <time>2018-10-12T13:24:34.000Z</time>
      </trkpt>
      <trkpt lat="31.0699100494384766" lon="-6.9656548500061035">
        <ele>1252.0</ele>
        <time>2018-10-12T13:24:35.000Z</time>
      </trkpt>
      <trkpt lat="31.0699501037597656" lon="-6.9656739234924316">
        <ele>1252.0</ele>
        <time>2018-10-12T13:24:36.000Z</time>
      </trkpt>
      <trkpt lat="31.0699882507324219" lon="-6.9656929969787598">
        <ele>1252.0</ele>
        <time>2018-10-12T13:24:37.000Z</time>
      </trkpt>
      <trkpt lat="31.0700263977050781" lon="-6.9657101631164551">
        <ele>1252.0</ele>
        <time>2018-10-12T13:24:38.000Z</time>
      </trkpt>
      <trkpt lat="31.0700626373291016" lon="-6.9657268524169922">
        <ele>1252.0</ele>
        <time>2018-10-12T13:24:39.000Z</time>
      </trkpt>
      <trkpt lat="31.0701007843017578" lon="-6.9657421112060547">
        <ele>1252.0</ele>
        <time>2018-10-12T13:24:40.000Z</time>
      </trkpt>
      <trkpt lat="31.0701408386230469" lon="-6.9657568931579590">
        <ele>1252.0</ele>
        <time>2018-10-12T13:24:41.000Z</time>
      </trkpt>
      <trkpt lat="31.0701789855957031" lon="-6.9657731056213379">
        <ele>1252.0</ele>
        <time>2018-10-12T13:24:42.000Z</time>
      </trkpt>
      <trkpt lat="31.0702152252197266" lon="-6.9657888412475586">
        <ele>1252.0</ele>
        <time>2018-10-12T13:24:43.000Z</time>
      </trkpt>
      <trkpt lat="31.0702495574951172" lon="-6.9658050537109375">
        <ele>1252.0</ele>
        <time>2018-10-12T13:24:44.000Z</time>
      </trkpt>
      <trkpt lat="31.0702800750732422" lon="-6.9658198356628418">
        <ele>1252.0</ele>
        <time>2018-10-12T13:24:45.000Z</time>
      </trkpt>
      <trkpt lat="31.0703105926513672" lon="-6.9658350944519043">
        <ele>1252.0</ele>
        <time>2018-10-12T13:24:46.000Z</time>
      </trkpt>
      <trkpt lat="31.0703372955322266" lon="-6.9658498764038086">
        <ele>1252.0</ele>
        <time>2018-10-12T13:24:47.000Z</time>
      </trkpt>
      <trkpt lat="31.0703582763671875" lon="-6.9658660888671875">
        <ele>1252.0</ele>
        <time>2018-10-12T13:24:48.000Z</time>
      </trkpt>
      <trkpt lat="31.0703773498535156" lon="-6.9658827781677246">
        <ele>1252.0</ele>
        <time>2018-10-12T13:24:49.000Z</time>
      </trkpt>
      <trkpt lat="31.0703964233398438" lon="-6.9659008979797363">
        <ele>1252.0</ele>
        <time>2018-10-12T13:24:50.000Z</time>
      </trkpt>
      <trkpt lat="31.0704154968261719" lon="-6.9659199714660645">
        <ele>1252.0</ele>
        <time>2018-10-12T13:24:51.000Z</time>
      </trkpt>
      <trkpt lat="31.0704326629638672" lon="-6.9659399986267090">
        <ele>1252.0</ele>
        <time>2018-10-12T13:24:52.000Z</time>
      </trkpt>
      <trkpt lat="31.0704498291015625" lon="-6.9659590721130371">
        <ele>1252.0</ele>
        <time>2018-10-12T13:24:53.000Z</time>
      </trkpt>
      <trkpt lat="31.0704650878906250" lon="-6.9659781455993652">
        <ele>1252.0</ele>
        <time>2018-10-12T13:24:54.000Z</time>
      </trkpt>
      <trkpt lat="31.0704822540283203" lon="-6.9659991264343262">
        <ele>1252.0</ele>
        <time>2018-10-12T13:24:55.000Z</time>
      </trkpt>
      <trkpt lat="31.0705070495605469" lon="-6.9660248756408691">
        <ele>1252.0</ele>
        <time>2018-10-12T13:24:56.000Z</time>
      </trkpt>
      <trkpt lat="31.0705394744873047" lon="-6.9660549163818359">
        <ele>1252.0</ele>
        <time>2018-10-12T13:24:57.000Z</time>
      </trkpt>
      <trkpt lat="31.0705680847167969" lon="-6.9660849571228027">
        <ele>1252.0</ele>
        <time>2018-10-12T13:24:58.000Z</time>
      </trkpt>
      <trkpt lat="31.0706005096435547" lon="-6.9661130905151367">
        <ele>1252.0</ele>
        <time>2018-10-12T13:24:59.000Z</time>
      </trkpt>
      <trkpt lat="31.0706291198730469" lon="-6.9661412239074707">
        <ele>1252.0</ele>
        <time>2018-10-12T13:25:00.000Z</time>
      </trkpt>
      <trkpt lat="31.0706596374511719" lon="-6.9661660194396973">
        <ele>1252.0</ele>
        <time>2018-10-12T13:25:01.000Z</time>
      </trkpt>
      <trkpt lat="31.0706882476806641" lon="-6.9661898612976074">
        <ele>1252.0</ele>
        <time>2018-10-12T13:25:02.000Z</time>
      </trkpt>
      <trkpt lat="31.0707187652587891" lon="-6.9662151336669922">
        <ele>1252.0</ele>
        <time>2018-10-12T13:25:03.000Z</time>
      </trkpt>
      <trkpt lat="31.0707492828369141" lon="-6.9662399291992188">
        <ele>1252.0</ele>
        <time>2018-10-12T13:25:04.000Z</time>
      </trkpt>
      <trkpt lat="31.0707817077636719" lon="-6.9662652015686035">
        <ele>1252.0</ele>
        <time>2018-10-12T13:25:05.000Z</time>
      </trkpt>
      <trkpt lat="31.0708122253417969" lon="-6.9662899971008301">
        <ele>1252.0</ele>
        <time>2018-10-12T13:25:06.000Z</time>
      </trkpt>
      <trkpt lat="31.0708446502685547" lon="-6.9663162231445312">
        <ele>1252.0</ele>
        <time>2018-10-12T13:25:07.000Z</time>
      </trkpt>
      <trkpt lat="31.0708751678466797" lon="-6.9663400650024414">
        <ele>1252.0</ele>
        <time>2018-10-12T13:25:08.000Z</time>
      </trkpt>
      <trkpt lat="31.0709095001220703" lon="-6.9663648605346680">
        <ele>1252.0</ele>
        <time>2018-10-12T13:25:09.000Z</time>
      </trkpt>
      <trkpt lat="31.0709457397460938" lon="-6.9663891792297363">
        <ele>1252.0</ele>
        <time>2018-10-12T13:25:10.000Z</time>
      </trkpt>
      <trkpt lat="31.0709781646728516" lon="-6.9664111137390137">
        <ele>1252.0</ele>
        <time>2018-10-12T13:25:11.000Z</time>
      </trkpt>
      <trkpt lat="31.0710029602050781" lon="-6.9664292335510254">
        <ele>1252.0</ele>
        <time>2018-10-12T13:25:12.000Z</time>
      </trkpt>
      <trkpt lat="31.0710201263427734" lon="-6.9664421081542969">
        <ele>1252.0</ele>
        <time>2018-10-12T13:25:13.000Z</time>
      </trkpt>
      <trkpt lat="31.0710506439208984" lon="-6.9664640426635742">
        <ele>1252.0</ele>
        <time>2018-10-12T13:25:15.000Z</time>
      </trkpt>
      <trkpt lat="31.0710697174072266" lon="-6.9664759635925293">
        <ele>1252.7479248046875</ele>
        <time>2018-10-12T13:25:16.000Z</time>
      </trkpt>
      <trkpt lat="31.0710906982421875" lon="-6.9664888381958008">
        <ele>1253.0</ele>
        <time>2018-10-12T13:25:17.000Z</time>
      </trkpt>
      <trkpt lat="31.0711116790771484" lon="-6.9664998054504395">
        <ele>1253.0</ele>
        <time>2018-10-12T13:25:18.000Z</time>
      </trkpt>
      <trkpt lat="31.0711326599121094" lon="-6.9665107727050781">
        <ele>1253.0</ele>
        <time>2018-10-12T13:25:19.000Z</time>
      </trkpt>
      <trkpt lat="31.0711536407470703" lon="-6.9665207862854004">
        <ele>1253.0</ele>
        <time>2018-10-12T13:25:20.000Z</time>
      </trkpt>
      <trkpt lat="31.0711746215820312" lon="-6.9665331840515137">
        <ele>1253.0</ele>
        <time>2018-10-12T13:25:21.000Z</time>
      </trkpt>
      <trkpt lat="31.0711956024169922" lon="-6.9665460586547852">
        <ele>1253.0</ele>
        <time>2018-10-12T13:25:22.000Z</time>
      </trkpt>
      <trkpt lat="31.0712184906005859" lon="-6.9665608406066895">
        <ele>1253.0</ele>
        <time>2018-10-12T13:25:23.000Z</time>
      </trkpt>
      <trkpt lat="31.0712394714355469" lon="-6.9665760993957520">
        <ele>1253.0</ele>
        <time>2018-10-12T13:25:24.000Z</time>
      </trkpt>
      <trkpt lat="31.0712623596191406" lon="-6.9665908813476562">
        <ele>1253.0</ele>
        <time>2018-10-12T13:25:25.000Z</time>
      </trkpt>
      <trkpt lat="31.0712833404541016" lon="-6.9666061401367188">
        <ele>1253.0</ele>
        <time>2018-10-12T13:25:26.000Z</time>
      </trkpt>
      <trkpt lat="31.0713062286376953" lon="-6.9666190147399902">
        <ele>1253.0</ele>
        <time>2018-10-12T13:25:27.000Z</time>
      </trkpt>
      <trkpt lat="31.0713291168212891" lon="-6.9666309356689453">
        <ele>1253.0</ele>
        <time>2018-10-12T13:25:28.000Z</time>
      </trkpt>
      <trkpt lat="31.0713539123535156" lon="-6.9666438102722168">
        <ele>1253.0</ele>
        <time>2018-10-12T13:25:29.000Z</time>
      </trkpt>
      <trkpt lat="31.0713787078857422" lon="-6.9666590690612793">
        <ele>1253.0</ele>
        <time>2018-10-12T13:25:30.000Z</time>
      </trkpt>
      <trkpt lat="31.0714035034179688" lon="-6.9666728973388672">
        <ele>1253.0</ele>
        <time>2018-10-12T13:25:31.000Z</time>
      </trkpt>
      <trkpt lat="31.0714282989501953" lon="-6.9666872024536133">
        <ele>1253.0</ele>
        <time>2018-10-12T13:25:32.000Z</time>
      </trkpt>
      <trkpt lat="31.0714530944824219" lon="-6.9667019844055176">
        <ele>1253.0</ele>
        <time>2018-10-12T13:25:33.000Z</time>
      </trkpt>
      <trkpt lat="31.0714797973632812" lon="-6.9667148590087891">
        <ele>1253.0</ele>
        <time>2018-10-12T13:25:34.000Z</time>
      </trkpt>
      <trkpt lat="31.0715065002441406" lon="-6.9667267799377441">
        <ele>1253.0</ele>
        <time>2018-10-12T13:25:35.000Z</time>
      </trkpt>
      <trkpt lat="31.0715312957763672" lon="-6.9667391777038574">
        <ele>1253.0</ele>
        <time>2018-10-12T13:25:36.000Z</time>
      </trkpt>
      <trkpt lat="31.0715560913085938" lon="-6.9667510986328125">
        <ele>1253.0</ele>
        <time>2018-10-12T13:25:37.000Z</time>
      </trkpt>
      <trkpt lat="31.0715808868408203" lon="-6.9667668342590332">
        <ele>1253.0</ele>
        <time>2018-10-12T13:25:38.000Z</time>
      </trkpt>
      <trkpt lat="31.0716037750244141" lon="-6.9667868614196777">
        <ele>1253.0</ele>
        <time>2018-10-12T13:25:39.000Z</time>
      </trkpt>
      <trkpt lat="31.0716285705566406" lon="-6.9668078422546387">
        <ele>1253.0</ele>
        <time>2018-10-12T13:25:40.000Z</time>
      </trkpt>
      <trkpt lat="31.0716533660888672" lon="-6.9668259620666504">
        <ele>1253.0</ele>
        <time>2018-10-12T13:25:41.000Z</time>
      </trkpt>
      <trkpt lat="31.0716819763183594" lon="-6.9668397903442383">
        <ele>1253.0</ele>
        <time>2018-10-12T13:25:42.000Z</time>
      </trkpt>
      <trkpt lat="31.0717086791992188" lon="-6.9668531417846680">
        <ele>1253.0</ele>
        <time>2018-10-12T13:25:43.000Z</time>
      </trkpt>
      <trkpt lat="31.0717372894287109" lon="-6.9668631553649902">
        <ele>1253.0</ele>
        <time>2018-10-12T13:25:44.000Z</time>
      </trkpt>
      <trkpt lat="31.0717658996582031" lon="-6.9668731689453125">
        <ele>1253.0</ele>
        <time>2018-10-12T13:25:45.000Z</time>
      </trkpt>
      <trkpt lat="31.0717906951904297" lon="-6.9668850898742676">
        <ele>1253.0</ele>
        <time>2018-10-12T13:25:46.000Z</time>
      </trkpt>
      <trkpt lat="31.0718154907226562" lon="-6.9668998718261719">
        <ele>1253.0</ele>
        <time>2018-10-12T13:25:47.000Z</time>
      </trkpt>
      <trkpt lat="31.0718383789062500" lon="-6.9669170379638672">
        <ele>1253.0</ele>
        <time>2018-10-12T13:25:48.000Z</time>
      </trkpt>
      <trkpt lat="31.0718631744384766" lon="-6.9669342041015625">
        <ele>1253.0</ele>
        <time>2018-10-12T13:25:49.000Z</time>
      </trkpt>
      <trkpt lat="31.0718879699707031" lon="-6.9669508934020996">
        <ele>1253.0</ele>
        <time>2018-10-12T13:25:50.000Z</time>
      </trkpt>
      <trkpt lat="31.0719108581542969" lon="-6.9669680595397949">
        <ele>1253.0</ele>
        <time>2018-10-12T13:25:51.000Z</time>
      </trkpt>
      <trkpt lat="31.0719356536865234" lon="-6.9669861793518066">
        <ele>1253.0</ele>
        <time>2018-10-12T13:25:52.000Z</time>
      </trkpt>
      <trkpt lat="31.0719585418701172" lon="-6.9670028686523438">
        <ele>1253.0</ele>
        <time>2018-10-12T13:25:53.000Z</time>
      </trkpt>
      <trkpt lat="31.0719814300537109" lon="-6.9670219421386719">
        <ele>1253.821044921875</ele>
        <time>2018-10-12T13:25:54.000Z</time>
      </trkpt>
      <trkpt lat="31.0720062255859375" lon="-6.9670429229736328">
        <ele>1254.0</ele>
        <time>2018-10-12T13:25:55.000Z</time>
      </trkpt>
      <trkpt lat="31.0720310211181641" lon="-6.9670639038085938">
        <ele>1254.0</ele>
        <time>2018-10-12T13:25:56.000Z</time>
      </trkpt>
      <trkpt lat="31.0720558166503906" lon="-6.9670848846435547">
        <ele>1254.0</ele>
        <time>2018-10-12T13:25:57.000Z</time>
      </trkpt>
      <trkpt lat="31.0720806121826172" lon="-6.9671049118041992">
        <ele>1254.0</ele>
        <time>2018-10-12T13:25:58.000Z</time>
      </trkpt>
      <trkpt lat="31.0721035003662109" lon="-6.9671230316162109">
        <ele>1254.0</ele>
        <time>2018-10-12T13:25:59.000Z</time>
      </trkpt>
      <trkpt lat="31.0721263885498047" lon="-6.9671401977539062">
        <ele>1254.0</ele>
        <time>2018-10-12T13:26:00.000Z</time>
      </trkpt>
      <trkpt lat="31.0721492767333984" lon="-6.9671568870544434">
        <ele>1254.0</ele>
        <time>2018-10-12T13:26:01.000Z</time>
      </trkpt>
      <trkpt lat="31.0721759796142578" lon="-6.9671711921691895">
        <ele>1254.0</ele>
        <time>2018-10-12T13:26:02.000Z</time>
      </trkpt>
      <trkpt lat="31.0722026824951172" lon="-6.9671831130981445">
        <ele>1254.0</ele>
        <time>2018-10-12T13:26:03.000Z</time>
      </trkpt>
      <trkpt lat="31.0722312927246094" lon="-6.9671940803527832">
        <ele>1254.0</ele>
        <time>2018-10-12T13:26:04.000Z</time>
      </trkpt>
      <trkpt lat="31.0722618103027344" lon="-6.9672031402587891">
        <ele>1254.0</ele>
        <time>2018-10-12T13:26:05.000Z</time>
      </trkpt>
      <trkpt lat="31.0722923278808594" lon="-6.9672107696533203">
        <ele>1254.0</ele>
        <time>2018-10-12T13:26:06.000Z</time>
      </trkpt>
      <trkpt lat="31.0723209381103516" lon="-6.9672179222106934">
        <ele>1254.0</ele>
        <time>2018-10-12T13:26:07.000Z</time>
      </trkpt>
      <trkpt lat="31.0723495483398438" lon="-6.9672250747680664">
        <ele>1254.0</ele>
        <time>2018-10-12T13:26:08.000Z</time>
      </trkpt>
      <trkpt lat="31.0723800659179688" lon="-6.9672298431396484">
        <ele>1254.0</ele>
        <time>2018-10-12T13:26:09.000Z</time>
      </trkpt>
      <trkpt lat="31.0724105834960938" lon="-6.9672350883483887">
        <ele>1254.0</ele>
        <time>2018-10-12T13:26:10.000Z</time>
      </trkpt>
      <trkpt lat="31.0724411010742188" lon="-6.9672398567199707">
        <ele>1254.0</ele>
        <time>2018-10-12T13:26:11.000Z</time>
      </trkpt>
      <trkpt lat="31.0724716186523438" lon="-6.9672460556030273">
        <ele>1254.0</ele>
        <time>2018-10-12T13:26:12.000Z</time>
      </trkpt>
      <trkpt lat="31.0725021362304688" lon="-6.9672508239746094">
        <ele>1254.0</ele>
        <time>2018-10-12T13:26:13.000Z</time>
      </trkpt>
      <trkpt lat="31.0725326538085938" lon="-6.9672570228576660">
        <ele>1254.0</ele>
        <time>2018-10-12T13:26:14.000Z</time>
      </trkpt>
      <trkpt lat="31.0725631713867188" lon="-6.9672617912292480">
        <ele>1254.0</ele>
        <time>2018-10-12T13:26:15.000Z</time>
      </trkpt>
      <trkpt lat="31.0725936889648438" lon="-6.9672670364379883">
        <ele>1254.0</ele>
        <time>2018-10-12T13:26:16.000Z</time>
      </trkpt>
      <trkpt lat="31.0726261138916016" lon="-6.9672718048095703">
        <ele>1254.821044921875</ele>
        <time>2018-10-12T13:26:17.000Z</time>
      </trkpt>
      <trkpt lat="31.0726566314697266" lon="-6.9672760963439941">
        <ele>1255.0</ele>
        <time>2018-10-12T13:26:18.000Z</time>
      </trkpt>
      <trkpt lat="31.0726795196533203" lon="-6.9672818183898926">
        <ele>1255.0</ele>
        <time>2018-10-12T13:26:19.000Z</time>
      </trkpt>
      <trkpt lat="31.0727119445800781" lon="-6.9672889709472656">
        <ele>1255.0</ele>
        <time>2018-10-12T13:26:21.000Z</time>
      </trkpt>
      <trkpt lat="31.0727329254150391" lon="-6.9672870635986328">
        <ele>1255.0</ele>
        <time>2018-10-12T13:26:22.000Z</time>
      </trkpt>
      <trkpt lat="31.0727615356445312" lon="-6.9672870635986328">
        <ele>1255.0</ele>
        <time>2018-10-12T13:26:23.000Z</time>
      </trkpt>
      <trkpt lat="31.0727920532226562" lon="-6.9672899246215820">
        <ele>1255.0</ele>
        <time>2018-10-12T13:26:24.000Z</time>
      </trkpt>
      <trkpt lat="31.0728244781494141" lon="-6.9672961235046387">
        <ele>1255.0</ele>
        <time>2018-10-12T13:26:25.000Z</time>
      </trkpt>
      <trkpt lat="31.0728549957275391" lon="-6.9672999382019043">
        <ele>1255.0</ele>
        <time>2018-10-12T13:26:26.000Z</time>
      </trkpt>
      <trkpt lat="31.0728855133056641" lon="-6.9673027992248535">
        <ele>1255.0</ele>
        <time>2018-10-12T13:26:27.000Z</time>
      </trkpt>
      <trkpt lat="31.0729179382324219" lon="-6.9673051834106445">
        <ele>1255.0</ele>
        <time>2018-10-12T13:26:28.000Z</time>
      </trkpt>
      <trkpt lat="31.0729484558105469" lon="-6.9673070907592773">
        <ele>1255.0</ele>
        <time>2018-10-12T13:26:29.000Z</time>
      </trkpt>
      <trkpt lat="31.0729808807373047" lon="-6.9673080444335938">
        <ele>1255.0</ele>
        <time>2018-10-12T13:26:30.000Z</time>
      </trkpt>
      <trkpt lat="31.0730113983154297" lon="-6.9673089981079102">
        <ele>1255.0</ele>
        <time>2018-10-12T13:26:31.000Z</time>
      </trkpt>
      <trkpt lat="31.0730438232421875" lon="-6.9673080444335938">
        <ele>1255.0</ele>
        <time>2018-10-12T13:26:32.000Z</time>
      </trkpt>
      <trkpt lat="31.0730724334716797" lon="-6.9673080444335938">
        <ele>1255.0</ele>
        <time>2018-10-12T13:26:33.000Z</time>
      </trkpt>
      <trkpt lat="31.0731029510498047" lon="-6.9673080444335938">
        <ele>1255.0</ele>
        <time>2018-10-12T13:26:34.000Z</time>
      </trkpt>
      <trkpt lat="31.0731334686279297" lon="-6.9673061370849609">
        <ele>1255.0</ele>
        <time>2018-10-12T13:26:35.000Z</time>
      </trkpt>
      <trkpt lat="31.0731639862060547" lon="-6.9673051834106445">
        <ele>1255.0</ele>
        <time>2018-10-12T13:26:36.000Z</time>
      </trkpt>
      <trkpt lat="31.0731945037841797" lon="-6.9673042297363281">
        <ele>1255.0</ele>
        <time>2018-10-12T13:26:37.000Z</time>
      </trkpt>
      <trkpt lat="31.0732269287109375" lon="-6.9673042297363281">
        <ele>1255.0</ele>
        <time>2018-10-12T13:26:38.000Z</time>
      </trkpt>
      <trkpt lat="31.0732574462890625" lon="-6.9673042297363281">
        <ele>1255.821044921875</ele>
        <time>2018-10-12T13:26:39.000Z</time>
      </trkpt>
      <trkpt lat="31.0732898712158203" lon="-6.9673051834106445">
        <ele>1256.0</ele>
        <time>2018-10-12T13:26:40.000Z</time>
      </trkpt>
      <trkpt lat="31.0733203887939453" lon="-6.9673061370849609">
        <ele>1256.0</ele>
        <time>2018-10-12T13:26:41.000Z</time>
      </trkpt>
      <trkpt lat="31.0733509063720703" lon="-6.9673070907592773">
        <ele>1255.178955078125</ele>
        <time>2018-10-12T13:26:42.000Z</time>
      </trkpt>
      <trkpt lat="31.0733814239501953" lon="-6.9673089981079102">
        <ele>1255.0</ele>
        <time>2018-10-12T13:26:43.000Z</time>
      </trkpt>
      <trkpt lat="31.0734081268310547" lon="-6.9673109054565430">
        <ele>1255.0</ele>
        <time>2018-10-12T13:26:44.000Z</time>
      </trkpt>
      <trkpt lat="31.0734367370605469" lon="-6.9673128128051758">
        <ele>1255.0</ele>
        <time>2018-10-12T13:26:45.000Z</time>
      </trkpt>
      <trkpt lat="31.0734653472900391" lon="-6.9673171043395996">
        <ele>1255.821044921875</ele>
        <time>2018-10-12T13:26:46.000Z</time>
      </trkpt>
      <trkpt lat="31.0734958648681641" lon="-6.9673209190368652">
        <ele>1256.0</ele>
        <time>2018-10-12T13:26:47.000Z</time>
      </trkpt>
      <trkpt lat="31.0735244750976562" lon="-6.9673237800598145">
        <ele>1256.0</ele>
        <time>2018-10-12T13:26:48.000Z</time>
      </trkpt>
      <trkpt lat="31.0735530853271484" lon="-6.9673290252685547">
        <ele>1256.0</ele>
        <time>2018-10-12T13:26:49.000Z</time>
      </trkpt>
      <trkpt lat="31.0735816955566406" lon="-6.9673328399658203">
        <ele>1255.178955078125</ele>
        <time>2018-10-12T13:26:50.000Z</time>
      </trkpt>
      <trkpt lat="31.0736103057861328" lon="-6.9673380851745605">
        <ele>1255.0</ele>
        <time>2018-10-12T13:26:51.000Z</time>
      </trkpt>
      <trkpt lat="31.0736408233642578" lon="-6.9673428535461426">
        <ele>1255.0</ele>
        <time>2018-10-12T13:26:52.000Z</time>
      </trkpt>
      <trkpt lat="31.0736694335937500" lon="-6.9673471450805664">
        <ele>1255.0</ele>
        <time>2018-10-12T13:26:53.000Z</time>
      </trkpt>
      <trkpt lat="31.0736999511718750" lon="-6.9673528671264648">
        <ele>1255.0</ele>
        <time>2018-10-12T13:26:54.000Z</time>
      </trkpt>
      <trkpt lat="31.0737304687500000" lon="-6.9673581123352051">
        <ele>1255.0</ele>
        <time>2018-10-12T13:26:55.000Z</time>
      </trkpt>
      <trkpt lat="31.0737590789794922" lon="-6.9673638343811035">
        <ele>1255.0</ele>
        <time>2018-10-12T13:26:56.000Z</time>
      </trkpt>
      <trkpt lat="31.0737895965576172" lon="-6.9673690795898438">
        <ele>1255.7479248046875</ele>
        <time>2018-10-12T13:26:57.000Z</time>
      </trkpt>
      <trkpt lat="31.0738201141357422" lon="-6.9673738479614258">
        <ele>1256.0</ele>
        <time>2018-10-12T13:26:58.000Z</time>
      </trkpt>
      <trkpt lat="31.0738525390625000" lon="-6.9673781394958496">
        <ele>1256.0</ele>
        <time>2018-10-12T13:26:59.000Z</time>
      </trkpt>
      <trkpt lat="31.0738830566406250" lon="-6.9673819541931152">
        <ele>1256.0</ele>
        <time>2018-10-12T13:27:00.000Z</time>
      </trkpt>
      <trkpt lat="31.0739135742187500" lon="-6.9673848152160645">
        <ele>1256.0</ele>
        <time>2018-10-12T13:27:01.000Z</time>
      </trkpt>
      <trkpt lat="31.0739440917968750" lon="-6.9673891067504883">
        <ele>1256.0</ele>
        <time>2018-10-12T13:27:02.000Z</time>
      </trkpt>
      <trkpt lat="31.0739746093750000" lon="-6.9673919677734375">
        <ele>1256.0</ele>
        <time>2018-10-12T13:27:03.000Z</time>
      </trkpt>
      <trkpt lat="31.0740051269531250" lon="-6.9673948287963867">
        <ele>1256.0</ele>
        <time>2018-10-12T13:27:04.000Z</time>
      </trkpt>
      <trkpt lat="31.0740375518798828" lon="-6.9673972129821777">
        <ele>1256.0</ele>
        <time>2018-10-12T13:27:05.000Z</time>
      </trkpt>
      <trkpt lat="31.0740661621093750" lon="-6.9673981666564941">
        <ele>1256.0</ele>
        <time>2018-10-12T13:27:06.000Z</time>
      </trkpt>
      <trkpt lat="31.0740966796875000" lon="-6.9673948287963867">
        <ele>1256.0</ele>
        <time>2018-10-12T13:27:07.000Z</time>
      </trkpt>
      <trkpt lat="31.0741252899169922" lon="-6.9673910140991211">
        <ele>1256.0</ele>
        <time>2018-10-12T13:27:08.000Z</time>
      </trkpt>
      <trkpt lat="31.0741539001464844" lon="-6.9673857688903809">
        <ele>1256.0</ele>
        <time>2018-10-12T13:27:09.000Z</time>
      </trkpt>
      <trkpt lat="31.0741825103759766" lon="-6.9673810005187988">
        <ele>1256.0</ele>
        <time>2018-10-12T13:27:10.000Z</time>
      </trkpt>
      <trkpt lat="31.0742111206054688" lon="-6.9673738479614258">
        <ele>1256.821044921875</ele>
        <time>2018-10-12T13:27:11.000Z</time>
      </trkpt>
      <trkpt lat="31.0742397308349609" lon="-6.9673671722412109">
        <ele>1257.0</ele>
        <time>2018-10-12T13:27:12.000Z</time>
      </trkpt>
      <trkpt lat="31.0742645263671875" lon="-6.9673609733581543">
        <ele>1257.0</ele>
        <time>2018-10-12T13:27:13.000Z</time>
      </trkpt>
      <trkpt lat="31.0742893218994141" lon="-6.9673547744750977">
        <ele>1257.0</ele>
        <time>2018-10-12T13:27:14.000Z</time>
      </trkpt>
      <trkpt lat="31.0743103027343750" lon="-6.9673471450805664">
        <ele>1257.0</ele>
        <time>2018-10-12T13:27:15.000Z</time>
      </trkpt>
      <trkpt lat="31.0743312835693359" lon="-6.9673390388488770">
        <ele>1257.0</ele>
        <time>2018-10-12T13:27:16.000Z</time>
      </trkpt>
      <trkpt lat="31.0743560791015625" lon="-6.9673309326171875">
        <ele>1257.0</ele>
        <time>2018-10-12T13:27:17.000Z</time>
      </trkpt>
      <trkpt lat="31.0743789672851562" lon="-6.9673252105712891">
        <ele>1257.0</ele>
        <time>2018-10-12T13:27:18.000Z</time>
      </trkpt>
      <trkpt lat="31.0744018554687500" lon="-6.9673190116882324">
        <ele>1257.0</ele>
        <time>2018-10-12T13:27:19.000Z</time>
      </trkpt>
      <trkpt lat="31.0744228363037109" lon="-6.9673128128051758">
        <ele>1257.0</ele>
        <time>2018-10-12T13:27:20.000Z</time>
      </trkpt>
      <trkpt lat="31.0744400024414062" lon="-6.9673070907592773">
        <ele>1257.0</ele>
        <time>2018-10-12T13:27:21.000Z</time>
      </trkpt>
      <trkpt lat="31.0744667053222656" lon="-6.9672980308532715">
        <ele>1257.0</ele>
        <time>2018-10-12T13:27:23.000Z</time>
      </trkpt>
      <trkpt lat="31.0744876861572266" lon="-6.9672918319702148">
        <ele>1257.0</ele>
        <time>2018-10-12T13:27:25.000Z</time>
      </trkpt>
      <trkpt lat="31.0745182037353516" lon="-6.9672827720642090">
        <ele>1257.0</ele>
        <time>2018-10-12T13:27:27.000Z</time>
      </trkpt>
      <trkpt lat="31.0745353698730469" lon="-6.9672799110412598">
        <ele>1257.0</ele>
        <time>2018-10-12T13:27:28.000Z</time>
      </trkpt>
      <trkpt lat="31.0745697021484375" lon="-6.9672741889953613">
        <ele>1257.0</ele>
        <time>2018-10-12T13:27:30.000Z</time>
      </trkpt>
      <trkpt lat="31.0745983123779297" lon="-6.9672689437866211">
        <ele>1257.0</ele>
        <time>2018-10-12T13:27:32.000Z</time>
      </trkpt>
      <trkpt lat="31.0746307373046875" lon="-6.9672651290893555">
        <ele>1257.0</ele>
        <time>2018-10-12T13:27:34.000Z</time>
      </trkpt>
      <trkpt lat="31.0746517181396484" lon="-6.9672641754150391">
        <ele>1257.0</ele>
        <time>2018-10-12T13:27:35.000Z</time>
      </trkpt>
      <trkpt lat="31.0746746063232422" lon="-6.9672617912292480">
        <ele>1257.0</ele>
        <time>2018-10-12T13:27:36.000Z</time>
      </trkpt>
      <trkpt lat="31.0746936798095703" lon="-6.9672617912292480">
        <ele>1257.0</ele>
        <time>2018-10-12T13:27:37.000Z</time>
      </trkpt>
      <trkpt lat="31.0747127532958984" lon="-6.9672608375549316">
        <ele>1257.0</ele>
        <time>2018-10-12T13:27:38.000Z</time>
      </trkpt>
      <trkpt lat="31.0747337341308594" lon="-6.9672608375549316">
        <ele>1257.0</ele>
        <time>2018-10-12T13:27:39.000Z</time>
      </trkpt>
      <trkpt lat="31.0747566223144531" lon="-6.9672598838806152">
        <ele>1257.0</ele>
        <time>2018-10-12T13:27:40.000Z</time>
      </trkpt>
      <trkpt lat="31.0747776031494141" lon="-6.9672617912292480">
        <ele>1257.0</ele>
        <time>2018-10-12T13:27:41.000Z</time>
      </trkpt>
      <trkpt lat="31.0747985839843750" lon="-6.9672632217407227">
        <ele>1257.0</ele>
        <time>2018-10-12T13:27:42.000Z</time>
      </trkpt>
      <trkpt lat="31.0748252868652344" lon="-6.9672632217407227">
        <ele>1257.0</ele>
        <time>2018-10-12T13:27:44.000Z</time>
      </trkpt>
      <trkpt lat="31.0748558044433594" lon="-6.9672660827636719">
        <ele>1257.0</ele>
        <time>2018-10-12T13:27:46.000Z</time>
      </trkpt>
      <trkpt lat="31.0748767852783203" lon="-6.9672689437866211">
        <ele>1257.0</ele>
        <time>2018-10-12T13:27:47.000Z</time>
      </trkpt>
      <trkpt lat="31.0748996734619141" lon="-6.9672718048095703">
        <ele>1257.0</ele>
        <time>2018-10-12T13:27:48.000Z</time>
      </trkpt>
      <trkpt lat="31.0749244689941406" lon="-6.9672732353210449">
        <ele>1257.0</ele>
        <time>2018-10-12T13:27:49.000Z</time>
      </trkpt>
      <trkpt lat="31.0749511718750000" lon="-6.9672718048095703">
        <ele>1257.0</ele>
        <time>2018-10-12T13:27:50.000Z</time>
      </trkpt>
      <trkpt lat="31.0749740600585938" lon="-6.9672718048095703">
        <ele>1257.0</ele>
        <time>2018-10-12T13:27:51.000Z</time>
      </trkpt>
      <trkpt lat="31.0749969482421875" lon="-6.9672718048095703">
        <ele>1257.0</ele>
        <time>2018-10-12T13:27:52.000Z</time>
      </trkpt>
      <trkpt lat="31.0750141143798828" lon="-6.9672708511352539">
        <ele>1257.0</ele>
        <time>2018-10-12T13:27:53.000Z</time>
      </trkpt>
      <trkpt lat="31.0750522613525391" lon="-6.9672651290893555">
        <ele>1257.767333984375</ele>
        <time>2018-10-12T13:27:55.000Z</time>
      </trkpt>
      <trkpt lat="31.0750732421875000" lon="-6.9672641754150391">
        <ele>1258.0</ele>
        <time>2018-10-12T13:27:56.000Z</time>
      </trkpt>
      <trkpt lat="31.0750961303710938" lon="-6.9672632217407227">
        <ele>1258.0</ele>
        <time>2018-10-12T13:27:57.000Z</time>
      </trkpt>
      <trkpt lat="31.0751190185546875" lon="-6.9672608375549316">
        <ele>1258.0</ele>
        <time>2018-10-12T13:27:58.000Z</time>
      </trkpt>
      <trkpt lat="31.0751438140869141" lon="-6.9672589302062988">
        <ele>1258.0</ele>
        <time>2018-10-12T13:27:59.000Z</time>
      </trkpt>
      <trkpt lat="31.0751667022705078" lon="-6.9672579765319824">
        <ele>1258.0</ele>
        <time>2018-10-12T13:28:00.000Z</time>
      </trkpt>
      <trkpt lat="31.0751895904541016" lon="-6.9672560691833496">
        <ele>1258.0</ele>
        <time>2018-10-12T13:28:01.000Z</time>
      </trkpt>
      <trkpt lat="31.0752162933349609" lon="-6.9672508239746094">
        <ele>1258.0</ele>
        <time>2018-10-12T13:28:02.000Z</time>
      </trkpt>
      <trkpt lat="31.0752429962158203" lon="-6.9672470092773438">
        <ele>1258.0</ele>
        <time>2018-10-12T13:28:03.000Z</time>
      </trkpt>
      <trkpt lat="31.0752735137939453" lon="-6.9672441482543945">
        <ele>1258.0</ele>
        <time>2018-10-12T13:28:04.000Z</time>
      </trkpt>
      <trkpt lat="31.0753021240234375" lon="-6.9672417640686035">
        <ele>1258.0</ele>
        <time>2018-10-12T13:28:05.000Z</time>
      </trkpt>
      <trkpt lat="31.0753345489501953" lon="-6.9672417640686035">
        <ele>1258.0</ele>
        <time>2018-10-12T13:28:06.000Z</time>
      </trkpt>
      <trkpt lat="31.0753631591796875" lon="-6.9672431945800781">
        <ele>1258.0</ele>
        <time>2018-10-12T13:28:07.000Z</time>
      </trkpt>
      <trkpt lat="31.0753917694091797" lon="-6.9672460556030273">
        <ele>1258.0</ele>
        <time>2018-10-12T13:28:08.000Z</time>
      </trkpt>
      <trkpt lat="31.0754184722900391" lon="-6.9672489166259766">
        <ele>1258.0</ele>
        <time>2018-10-12T13:28:09.000Z</time>
      </trkpt>
      <trkpt lat="31.0754432678222656" lon="-6.9672532081604004">
        <ele>1258.0</ele>
        <time>2018-10-12T13:28:10.000Z</time>
      </trkpt>
      <trkpt lat="31.0754718780517578" lon="-6.9672589302062988">
        <ele>1258.0</ele>
        <time>2018-10-12T13:28:11.000Z</time>
      </trkpt>
      <trkpt lat="31.0754985809326172" lon="-6.9672660827636719">
        <ele>1258.0</ele>
        <time>2018-10-12T13:28:12.000Z</time>
      </trkpt>
      <trkpt lat="31.0755271911621094" lon="-6.9672751426696777">
        <ele>1258.0</ele>
        <time>2018-10-12T13:28:13.000Z</time>
      </trkpt>
      <trkpt lat="31.0755577087402344" lon="-6.9672842025756836">
        <ele>1258.0</ele>
        <time>2018-10-12T13:28:14.000Z</time>
      </trkpt>
      <trkpt lat="31.0755901336669922" lon="-6.9672942161560059">
        <ele>1258.0</ele>
        <time>2018-10-12T13:28:15.000Z</time>
      </trkpt>
      <trkpt lat="31.0756244659423828" lon="-6.9673051834106445">
        <ele>1258.0</ele>
        <time>2018-10-12T13:28:16.000Z</time>
      </trkpt>
      <trkpt lat="31.0756587982177734" lon="-6.9673171043395996">
        <ele>1258.0</ele>
        <time>2018-10-12T13:28:17.000Z</time>
      </trkpt>
      <trkpt lat="31.0756912231445312" lon="-6.9673299789428711">
        <ele>1258.0</ele>
        <time>2018-10-12T13:28:18.000Z</time>
      </trkpt>
      <trkpt lat="31.0757236480712891" lon="-6.9673438072204590">
        <ele>1258.0</ele>
        <time>2018-10-12T13:28:19.000Z</time>
      </trkpt>
      <trkpt lat="31.0757541656494141" lon="-6.9673609733581543">
        <ele>1258.0</ele>
        <time>2018-10-12T13:28:20.000Z</time>
      </trkpt>
      <trkpt lat="31.0757846832275391" lon="-6.9673790931701660">
        <ele>1258.0</ele>
        <time>2018-10-12T13:28:21.000Z</time>
      </trkpt>
      <trkpt lat="31.0758113861083984" lon="-6.9673957824707031">
        <ele>1258.0</ele>
        <time>2018-10-12T13:28:22.000Z</time>
      </trkpt>
      <trkpt lat="31.0758361816406250" lon="-6.9674129486083984">
        <ele>1258.0</ele>
        <time>2018-10-12T13:28:23.000Z</time>
      </trkpt>
      <trkpt lat="31.0758628845214844" lon="-6.9674301147460938">
        <ele>1258.0</ele>
        <time>2018-10-12T13:28:24.000Z</time>
      </trkpt>
      <trkpt lat="31.0758895874023438" lon="-6.9674458503723145">
        <ele>1258.0</ele>
        <time>2018-10-12T13:28:25.000Z</time>
      </trkpt>
      <trkpt lat="31.0759181976318359" lon="-6.9674630165100098">
        <ele>1258.0</ele>
        <time>2018-10-12T13:28:26.000Z</time>
      </trkpt>
      <trkpt lat="31.0759468078613281" lon="-6.9674792289733887">
        <ele>1258.0</ele>
        <time>2018-10-12T13:28:27.000Z</time>
      </trkpt>
      <trkpt lat="31.0759754180908203" lon="-6.9674949645996094">
        <ele>1258.0</ele>
        <time>2018-10-12T13:28:28.000Z</time>
      </trkpt>
      <trkpt lat="31.0760040283203125" lon="-6.9675111770629883">
        <ele>1258.0</ele>
        <time>2018-10-12T13:28:29.000Z</time>
      </trkpt>
      <trkpt lat="31.0760345458984375" lon="-6.9675269126892090">
        <ele>1258.0</ele>
        <time>2018-10-12T13:28:30.000Z</time>
      </trkpt>
      <trkpt lat="31.0760650634765625" lon="-6.9675421714782715">
        <ele>1258.0</ele>
        <time>2018-10-12T13:28:31.000Z</time>
      </trkpt>
      <trkpt lat="31.0760955810546875" lon="-6.9675559997558594">
        <ele>1258.0</ele>
        <time>2018-10-12T13:28:32.000Z</time>
      </trkpt>
      <trkpt lat="31.0761241912841797" lon="-6.9675698280334473">
        <ele>1258.0</ele>
        <time>2018-10-12T13:28:33.000Z</time>
      </trkpt>
      <trkpt lat="31.0761566162109375" lon="-6.9675831794738770">
        <ele>1258.0</ele>
        <time>2018-10-12T13:28:34.000Z</time>
      </trkpt>
      <trkpt lat="31.0761871337890625" lon="-6.9675960540771484">
        <ele>1258.0</ele>
        <time>2018-10-12T13:28:35.000Z</time>
      </trkpt>
      <trkpt lat="31.0762195587158203" lon="-6.9676079750061035">
        <ele>1258.0</ele>
        <time>2018-10-12T13:28:36.000Z</time>
      </trkpt>
      <trkpt lat="31.0762538909912109" lon="-6.9676198959350586">
        <ele>1258.0</ele>
        <time>2018-10-12T13:28:37.000Z</time>
      </trkpt>
      <trkpt lat="31.0762844085693359" lon="-6.9676327705383301">
        <ele>1258.0</ele>
        <time>2018-10-12T13:28:38.000Z</time>
      </trkpt>
      <trkpt lat="31.0763187408447266" lon="-6.9676442146301270">
        <ele>1258.0</ele>
        <time>2018-10-12T13:28:39.000Z</time>
      </trkpt>
      <trkpt lat="31.0763511657714844" lon="-6.9676561355590820">
        <ele>1258.0</ele>
        <time>2018-10-12T13:28:40.000Z</time>
      </trkpt>
      <trkpt lat="31.0763854980468750" lon="-6.9676680564880371">
        <ele>1258.0</ele>
        <time>2018-10-12T13:28:41.000Z</time>
      </trkpt>
      <trkpt lat="31.0764198303222656" lon="-6.9676790237426758">
        <ele>1258.0</ele>
        <time>2018-10-12T13:28:42.000Z</time>
      </trkpt>
      <trkpt lat="31.0764541625976562" lon="-6.9676899909973145">
        <ele>1258.0</ele>
        <time>2018-10-12T13:28:43.000Z</time>
      </trkpt>
      <trkpt lat="31.0764884948730469" lon="-6.9677019119262695">
        <ele>1258.0</ele>
        <time>2018-10-12T13:28:44.000Z</time>
      </trkpt>
      <trkpt lat="31.0765228271484375" lon="-6.9677109718322754">
        <ele>1258.0</ele>
        <time>2018-10-12T13:28:45.000Z</time>
      </trkpt>
      <trkpt lat="31.0765571594238281" lon="-6.9677190780639648">
        <ele>1258.0</ele>
        <time>2018-10-12T13:28:46.000Z</time>
      </trkpt>
      <trkpt lat="31.0765895843505859" lon="-6.9677271842956543">
        <ele>1258.0</ele>
        <time>2018-10-12T13:28:47.000Z</time>
      </trkpt>
      <trkpt lat="31.0766220092773438" lon="-6.9677348136901855">
        <ele>1258.0</ele>
        <time>2018-10-12T13:28:48.000Z</time>
      </trkpt>
      <trkpt lat="31.0766544342041016" lon="-6.9677429199218750">
        <ele>1258.0</ele>
        <time>2018-10-12T13:28:49.000Z</time>
      </trkpt>
      <trkpt lat="31.0766887664794922" lon="-6.9677500724792480">
        <ele>1258.0</ele>
        <time>2018-10-12T13:28:50.000Z</time>
      </trkpt>
      <trkpt lat="31.0767192840576172" lon="-6.9677557945251465">
        <ele>1258.0</ele>
        <time>2018-10-12T13:28:51.000Z</time>
      </trkpt>
      <trkpt lat="31.0767536163330078" lon="-6.9677629470825195">
        <ele>1258.0</ele>
        <time>2018-10-12T13:28:52.000Z</time>
      </trkpt>
      <trkpt lat="31.0767860412597656" lon="-6.9677700996398926">
        <ele>1258.0</ele>
        <time>2018-10-12T13:28:53.000Z</time>
      </trkpt>
      <trkpt lat="31.0768184661865234" lon="-6.9677782058715820">
        <ele>1258.0</ele>
        <time>2018-10-12T13:28:54.000Z</time>
      </trkpt>
      <trkpt lat="31.0768508911132812" lon="-6.9677848815917969">
        <ele>1258.0</ele>
        <time>2018-10-12T13:28:55.000Z</time>
      </trkpt>
      <trkpt lat="31.0768814086914062" lon="-6.9677910804748535">
        <ele>1258.0</ele>
        <time>2018-10-12T13:28:56.000Z</time>
      </trkpt>
      <trkpt lat="31.0769138336181641" lon="-6.9677968025207520">
        <ele>1258.0</ele>
        <time>2018-10-12T13:28:57.000Z</time>
      </trkpt>
      <trkpt lat="31.0769443511962891" lon="-6.9678020477294922">
        <ele>1258.0</ele>
        <time>2018-10-12T13:28:58.000Z</time>
      </trkpt>
      <trkpt lat="31.0769729614257812" lon="-6.9678058624267578">
        <ele>1258.0</ele>
        <time>2018-10-12T13:28:59.000Z</time>
      </trkpt>
      <trkpt lat="31.0770015716552734" lon="-6.9678101539611816">
        <ele>1258.0</ele>
        <time>2018-10-12T13:29:00.000Z</time>
      </trkpt>
      <trkpt lat="31.0770282745361328" lon="-6.9678130149841309">
        <ele>1258.0</ele>
        <time>2018-10-12T13:29:01.000Z</time>
      </trkpt>
      <trkpt lat="31.0770568847656250" lon="-6.9678158760070801">
        <ele>1258.0</ele>
        <time>2018-10-12T13:29:02.000Z</time>
      </trkpt>
      <trkpt lat="31.0770854949951172" lon="-6.9678201675415039">
        <ele>1258.0</ele>
        <time>2018-10-12T13:29:03.000Z</time>
      </trkpt>
      <trkpt lat="31.0771179199218750" lon="-6.9678239822387695">
        <ele>1258.0</ele>
        <time>2018-10-12T13:29:04.000Z</time>
      </trkpt>
      <trkpt lat="31.0771484375000000" lon="-6.9678268432617188">
        <ele>1258.0</ele>
        <time>2018-10-12T13:29:05.000Z</time>
      </trkpt>
      <trkpt lat="31.0771808624267578" lon="-6.9678311347961426">
        <ele>1258.0</ele>
        <time>2018-10-12T13:29:06.000Z</time>
      </trkpt>
      <trkpt lat="31.0772113800048828" lon="-6.9678359031677246">
        <ele>1258.0</ele>
        <time>2018-10-12T13:29:07.000Z</time>
      </trkpt>
      <trkpt lat="31.0772399902343750" lon="-6.9678401947021484">
        <ele>1258.0</ele>
        <time>2018-10-12T13:29:08.000Z</time>
      </trkpt>
      <trkpt lat="31.0772686004638672" lon="-6.9678440093994141">
        <ele>1258.0</ele>
        <time>2018-10-12T13:29:09.000Z</time>
      </trkpt>
      <trkpt lat="31.0772933959960938" lon="-6.9678487777709961">
        <ele>1258.0</ele>
        <time>2018-10-12T13:29:10.000Z</time>
      </trkpt>
      <trkpt lat="31.0773220062255859" lon="-6.9678549766540527">
        <ele>1258.0</ele>
        <time>2018-10-12T13:29:11.000Z</time>
      </trkpt>
      <trkpt lat="31.0773506164550781" lon="-6.9678611755371094">
        <ele>1258.0</ele>
        <time>2018-10-12T13:29:12.000Z</time>
      </trkpt>
      <trkpt lat="31.0773811340332031" lon="-6.9678678512573242">
        <ele>1258.0</ele>
        <time>2018-10-12T13:29:13.000Z</time>
      </trkpt>
      <trkpt lat="31.0774116516113281" lon="-6.9678769111633301">
        <ele>1258.0</ele>
        <time>2018-10-12T13:29:14.000Z</time>
      </trkpt>
      <trkpt lat="31.0774440765380859" lon="-6.9678859710693359">
        <ele>1258.0</ele>
        <time>2018-10-12T13:29:15.000Z</time>
      </trkpt>
      <trkpt lat="31.0774745941162109" lon="-6.9678959846496582">
        <ele>1258.0</ele>
        <time>2018-10-12T13:29:16.000Z</time>
      </trkpt>
      <trkpt lat="31.0775070190429688" lon="-6.9679069519042969">
        <ele>1258.0</ele>
        <time>2018-10-12T13:29:17.000Z</time>
      </trkpt>
      <trkpt lat="31.0775375366210938" lon="-6.9679179191589355">
        <ele>1258.0</ele>
        <time>2018-10-12T13:29:18.000Z</time>
      </trkpt>
      <trkpt lat="31.0775661468505859" lon="-6.9679288864135742">
        <ele>1258.0</ele>
        <time>2018-10-12T13:29:19.000Z</time>
      </trkpt>
      <trkpt lat="31.0775966644287109" lon="-6.9679398536682129">
        <ele>1258.0</ele>
        <time>2018-10-12T13:29:20.000Z</time>
      </trkpt>
      <trkpt lat="31.0776252746582031" lon="-6.9679517745971680">
        <ele>1258.0</ele>
        <time>2018-10-12T13:29:21.000Z</time>
      </trkpt>
      <trkpt lat="31.0776538848876953" lon="-6.9679632186889648">
        <ele>1258.0</ele>
        <time>2018-10-12T13:29:22.000Z</time>
      </trkpt>
      <trkpt lat="31.0776824951171875" lon="-6.9679741859436035">
        <ele>1258.0</ele>
        <time>2018-10-12T13:29:23.000Z</time>
      </trkpt>
      <trkpt lat="31.0777111053466797" lon="-6.9679851531982422">
        <ele>1258.0</ele>
        <time>2018-10-12T13:29:24.000Z</time>
      </trkpt>
      <trkpt lat="31.0777416229248047" lon="-6.9679927825927734">
        <ele>1258.0</ele>
        <time>2018-10-12T13:29:25.000Z</time>
      </trkpt>
      <trkpt lat="31.0777683258056641" lon="-6.9679980278015137">
        <ele>1258.0</ele>
        <time>2018-10-12T13:29:26.000Z</time>
      </trkpt>
      <trkpt lat="31.0777969360351562" lon="-6.9680027961730957">
        <ele>1258.0</ele>
        <time>2018-10-12T13:29:27.000Z</time>
      </trkpt>
      <trkpt lat="31.0778217315673828" lon="-6.9680109024047852">
        <ele>1258.0</ele>
        <time>2018-10-12T13:29:28.000Z</time>
      </trkpt>
      <trkpt lat="31.0778503417968750" lon="-6.9680199623107910">
        <ele>1258.0</ele>
        <time>2018-10-12T13:29:29.000Z</time>
      </trkpt>
      <trkpt lat="31.0778827667236328" lon="-6.9680299758911133">
        <ele>1258.0</ele>
        <time>2018-10-12T13:29:30.000Z</time>
      </trkpt>
      <trkpt lat="31.0779132843017578" lon="-6.9680409431457520">
        <ele>1258.0</ele>
        <time>2018-10-12T13:29:31.000Z</time>
      </trkpt>
      <trkpt lat="31.0779457092285156" lon="-6.9680509567260742">
        <ele>1258.0</ele>
        <time>2018-10-12T13:29:32.000Z</time>
      </trkpt>
      <trkpt lat="31.0779762268066406" lon="-6.9680609703063965">
        <ele>1258.821044921875</ele>
        <time>2018-10-12T13:29:33.000Z</time>
      </trkpt>
      <trkpt lat="31.0780086517333984" lon="-6.9680690765380859">
        <ele>1259.0</ele>
        <time>2018-10-12T13:29:34.000Z</time>
      </trkpt>
      <trkpt lat="31.0780372619628906" lon="-6.9680781364440918">
        <ele>1259.0</ele>
        <time>2018-10-12T13:29:35.000Z</time>
      </trkpt>
      <trkpt lat="31.0780677795410156" lon="-6.9680871963500977">
        <ele>1259.0</ele>
        <time>2018-10-12T13:29:36.000Z</time>
      </trkpt>
      <trkpt lat="31.0780963897705078" lon="-6.9680957794189453">
        <ele>1259.0</ele>
        <time>2018-10-12T13:29:37.000Z</time>
      </trkpt>
      <trkpt lat="31.0781269073486328" lon="-6.9681038856506348">
        <ele>1259.0</ele>
        <time>2018-10-12T13:29:38.000Z</time>
      </trkpt>
      <trkpt lat="31.0781555175781250" lon="-6.9681119918823242">
        <ele>1259.0</ele>
        <time>2018-10-12T13:29:39.000Z</time>
      </trkpt>
      <trkpt lat="31.0781860351562500" lon="-6.9681191444396973">
        <ele>1259.0</ele>
        <time>2018-10-12T13:29:40.000Z</time>
      </trkpt>
      <trkpt lat="31.0782146453857422" lon="-6.9681267738342285">
        <ele>1259.0</ele>
        <time>2018-10-12T13:29:41.000Z</time>
      </trkpt>
      <trkpt lat="31.0782432556152344" lon="-6.9681339263916016">
        <ele>1259.0</ele>
        <time>2018-10-12T13:29:42.000Z</time>
      </trkpt>
      <trkpt lat="31.0782737731933594" lon="-6.9681410789489746">
        <ele>1259.0</ele>
        <time>2018-10-12T13:29:43.000Z</time>
      </trkpt>
      <trkpt lat="31.0783023834228516" lon="-6.9681468009948730">
        <ele>1259.0</ele>
        <time>2018-10-12T13:29:44.000Z</time>
      </trkpt>
      <trkpt lat="31.0783309936523438" lon="-6.9681529998779297">
        <ele>1259.0</ele>
        <time>2018-10-12T13:29:45.000Z</time>
      </trkpt>
      <trkpt lat="31.0783596038818359" lon="-6.9681601524353027">
        <ele>1259.0</ele>
        <time>2018-10-12T13:29:46.000Z</time>
      </trkpt>
      <trkpt lat="31.0783882141113281" lon="-6.9681649208068848">
        <ele>1259.0</ele>
        <time>2018-10-12T13:29:47.000Z</time>
      </trkpt>
      <trkpt lat="31.0784187316894531" lon="-6.9681701660156250">
        <ele>1259.0</ele>
        <time>2018-10-12T13:29:48.000Z</time>
      </trkpt>
      <trkpt lat="31.0784492492675781" lon="-6.9681758880615234">
        <ele>1259.0</ele>
        <time>2018-10-12T13:29:49.000Z</time>
      </trkpt>
      <trkpt lat="31.0784797668457031" lon="-6.9681801795959473">
        <ele>1259.0</ele>
        <time>2018-10-12T13:29:50.000Z</time>
      </trkpt>
      <trkpt lat="31.0785102844238281" lon="-6.9681839942932129">
        <ele>1259.0</ele>
        <time>2018-10-12T13:29:51.000Z</time>
      </trkpt>
      <trkpt lat="31.0785388946533203" lon="-6.9681878089904785">
        <ele>1259.0</ele>
        <time>2018-10-12T13:29:52.000Z</time>
      </trkpt>
      <trkpt lat="31.0785675048828125" lon="-6.9681921005249023">
        <ele>1259.0</ele>
        <time>2018-10-12T13:29:53.000Z</time>
      </trkpt>
      <trkpt lat="31.0785942077636719" lon="-6.9681959152221680">
        <ele>1259.0</ele>
        <time>2018-10-12T13:29:54.000Z</time>
      </trkpt>
      <trkpt lat="31.0786228179931641" lon="-6.9681987762451172">
        <ele>1259.0</ele>
        <time>2018-10-12T13:29:55.000Z</time>
      </trkpt>
      <trkpt lat="31.0786514282226562" lon="-6.9682030677795410">
        <ele>1259.0</ele>
        <time>2018-10-12T13:29:56.000Z</time>
      </trkpt>
      <trkpt lat="31.0786819458007812" lon="-6.9682068824768066">
        <ele>1259.0</ele>
        <time>2018-10-12T13:29:57.000Z</time>
      </trkpt>
      <trkpt lat="31.0787105560302734" lon="-6.9682111740112305">
        <ele>1259.631591796875</ele>
        <time>2018-10-12T13:29:58.000Z</time>
      </trkpt>
      <trkpt lat="31.0787410736083984" lon="-6.9682140350341797">
        <ele>1260.0</ele>
        <time>2018-10-12T13:29:59.000Z</time>
      </trkpt>
      <trkpt lat="31.0787715911865234" lon="-6.9682178497314453">
        <ele>1260.0</ele>
        <time>2018-10-12T13:30:00.000Z</time>
      </trkpt>
      <trkpt lat="31.0788002014160156" lon="-6.9682221412658691">
        <ele>1260.0</ele>
        <time>2018-10-12T13:30:01.000Z</time>
      </trkpt>
      <trkpt lat="31.0788326263427734" lon="-6.9682269096374512">
        <ele>1260.0</ele>
        <time>2018-10-12T13:30:02.000Z</time>
      </trkpt>
      <trkpt lat="31.0788631439208984" lon="-6.9682331085205078">
        <ele>1260.0</ele>
        <time>2018-10-12T13:30:03.000Z</time>
      </trkpt>
      <trkpt lat="31.0788955688476562" lon="-6.9682378768920898">
        <ele>1260.0</ele>
        <time>2018-10-12T13:30:04.000Z</time>
      </trkpt>
      <trkpt lat="31.0789241790771484" lon="-6.9682431221008301">
        <ele>1260.0</ele>
        <time>2018-10-12T13:30:05.000Z</time>
      </trkpt>
      <trkpt lat="31.0789546966552734" lon="-6.9682488441467285">
        <ele>1260.0</ele>
        <time>2018-10-12T13:30:06.000Z</time>
      </trkpt>
      <trkpt lat="31.0789833068847656" lon="-6.9682540893554688">
        <ele>1260.0</ele>
        <time>2018-10-12T13:30:07.000Z</time>
      </trkpt>
      <trkpt lat="31.0790100097656250" lon="-6.9682598114013672">
        <ele>1260.0</ele>
        <time>2018-10-12T13:30:08.000Z</time>
      </trkpt>
      <trkpt lat="31.0790367126464844" lon="-6.9682669639587402">
        <ele>1260.0</ele>
        <time>2018-10-12T13:30:09.000Z</time>
      </trkpt>
      <trkpt lat="31.0790634155273438" lon="-6.9682741165161133">
        <ele>1260.0</ele>
        <time>2018-10-12T13:30:10.000Z</time>
      </trkpt>
      <trkpt lat="31.0790901184082031" lon="-6.9682807922363281">
        <ele>1260.0</ele>
        <time>2018-10-12T13:30:11.000Z</time>
      </trkpt>
      <trkpt lat="31.0791168212890625" lon="-6.9682879447937012">
        <ele>1260.0</ele>
        <time>2018-10-12T13:30:12.000Z</time>
      </trkpt>
      <trkpt lat="31.0791435241699219" lon="-6.9682950973510742">
        <ele>1260.0</ele>
        <time>2018-10-12T13:30:13.000Z</time>
      </trkpt>
      <trkpt lat="31.0791702270507812" lon="-6.9683017730712891">
        <ele>1260.0</ele>
        <time>2018-10-12T13:30:14.000Z</time>
      </trkpt>
      <trkpt lat="31.0791988372802734" lon="-6.9683079719543457">
        <ele>1260.0</ele>
        <time>2018-10-12T13:30:15.000Z</time>
      </trkpt>
      <trkpt lat="31.0792255401611328" lon="-6.9683151245117188">
        <ele>1260.0</ele>
        <time>2018-10-12T13:30:16.000Z</time>
      </trkpt>
      <trkpt lat="31.0792522430419922" lon="-6.9683232307434082">
        <ele>1260.0</ele>
        <time>2018-10-12T13:30:17.000Z</time>
      </trkpt>
      <trkpt lat="31.0792789459228516" lon="-6.9683299064636230">
        <ele>1260.0</ele>
        <time>2018-10-12T13:30:18.000Z</time>
      </trkpt>
      <trkpt lat="31.0793037414550781" lon="-6.9683370590209961">
        <ele>1260.0</ele>
        <time>2018-10-12T13:30:19.000Z</time>
      </trkpt>
      <trkpt lat="31.0793266296386719" lon="-6.9683427810668945">
        <ele>1260.0</ele>
        <time>2018-10-12T13:30:20.000Z</time>
      </trkpt>
      <trkpt lat="31.0793495178222656" lon="-6.9683489799499512">
        <ele>1260.0</ele>
        <time>2018-10-12T13:30:21.000Z</time>
      </trkpt>
      <trkpt lat="31.0793743133544922" lon="-6.9683551788330078">
        <ele>1260.0</ele>
        <time>2018-10-12T13:30:22.000Z</time>
      </trkpt>
      <trkpt lat="31.0793991088867188" lon="-6.9683618545532227">
        <ele>1260.0</ele>
        <time>2018-10-12T13:30:23.000Z</time>
      </trkpt>
      <trkpt lat="31.0794239044189453" lon="-6.9683690071105957">
        <ele>1260.0</ele>
        <time>2018-10-12T13:30:24.000Z</time>
      </trkpt>
      <trkpt lat="31.0794486999511719" lon="-6.9683771133422852">
        <ele>1260.0</ele>
        <time>2018-10-12T13:30:25.000Z</time>
      </trkpt>
      <trkpt lat="31.0794715881347656" lon="-6.9683837890625000">
        <ele>1260.0</ele>
        <time>2018-10-12T13:30:26.000Z</time>
      </trkpt>
      <trkpt lat="31.0794925689697266" lon="-6.9683918952941895">
        <ele>1260.0</ele>
        <time>2018-10-12T13:30:27.000Z</time>
      </trkpt>
      <trkpt lat="31.0795135498046875" lon="-6.9684009552001953">
        <ele>1260.0</ele>
        <time>2018-10-12T13:30:28.000Z</time>
      </trkpt>
      <trkpt lat="31.0795364379882812" lon="-6.9684090614318848">
        <ele>1260.0</ele>
        <time>2018-10-12T13:30:29.000Z</time>
      </trkpt>
      <trkpt lat="31.0795593261718750" lon="-6.9684181213378906">
        <ele>1260.0</ele>
        <time>2018-10-12T13:30:30.000Z</time>
      </trkpt>
      <trkpt lat="31.0795822143554688" lon="-6.9684271812438965">
        <ele>1260.0</ele>
        <time>2018-10-12T13:30:31.000Z</time>
      </trkpt>
      <trkpt lat="31.0796051025390625" lon="-6.9684357643127441">
        <ele>1260.0</ele>
        <time>2018-10-12T13:30:32.000Z</time>
      </trkpt>
      <trkpt lat="31.0796260833740234" lon="-6.9684472084045410">
        <ele>1260.0</ele>
        <time>2018-10-12T13:30:33.000Z</time>
      </trkpt>
      <trkpt lat="31.0796489715576172" lon="-6.9684581756591797">
        <ele>1260.0</ele>
        <time>2018-10-12T13:30:34.000Z</time>
      </trkpt>
      <trkpt lat="31.0796718597412109" lon="-6.9684691429138184">
        <ele>1260.0</ele>
        <time>2018-10-12T13:30:35.000Z</time>
      </trkpt>
      <trkpt lat="31.0796966552734375" lon="-6.9684791564941406">
        <ele>1260.0</ele>
        <time>2018-10-12T13:30:36.000Z</time>
      </trkpt>
      <trkpt lat="31.0797195434570312" lon="-6.9684901237487793">
        <ele>1260.0</ele>
        <time>2018-10-12T13:30:37.000Z</time>
      </trkpt>
      <trkpt lat="31.0797424316406250" lon="-6.9685010910034180">
        <ele>1260.0</ele>
        <time>2018-10-12T13:30:38.000Z</time>
      </trkpt>
      <trkpt lat="31.0797653198242188" lon="-6.9685130119323730">
        <ele>1260.0</ele>
        <time>2018-10-12T13:30:39.000Z</time>
      </trkpt>
      <trkpt lat="31.0797882080078125" lon="-6.9685239791870117">
        <ele>1260.0</ele>
        <time>2018-10-12T13:30:40.000Z</time>
      </trkpt>
      <trkpt lat="31.0798130035400391" lon="-6.9685349464416504">
        <ele>1260.0</ele>
        <time>2018-10-12T13:30:41.000Z</time>
      </trkpt>
      <trkpt lat="31.0798377990722656" lon="-6.9685449600219727">
        <ele>1260.0</ele>
        <time>2018-10-12T13:30:42.000Z</time>
      </trkpt>
      <trkpt lat="31.0798606872558594" lon="-6.9685559272766113">
        <ele>1260.0</ele>
        <time>2018-10-12T13:30:43.000Z</time>
      </trkpt>
      <trkpt lat="31.0798854827880859" lon="-6.9685659408569336">
        <ele>1260.0</ele>
        <time>2018-10-12T13:30:44.000Z</time>
      </trkpt>
      <trkpt lat="31.0799083709716797" lon="-6.9685750007629395">
        <ele>1260.0</ele>
        <time>2018-10-12T13:30:45.000Z</time>
      </trkpt>
      <trkpt lat="31.0799312591552734" lon="-6.9685831069946289">
        <ele>1260.0</ele>
        <time>2018-10-12T13:30:46.000Z</time>
      </trkpt>
      <trkpt lat="31.0799503326416016" lon="-6.9685912132263184">
        <ele>1260.0</ele>
        <time>2018-10-12T13:30:47.000Z</time>
      </trkpt>
      <trkpt lat="31.0799732208251953" lon="-6.9685997962951660">
        <ele>1260.0</ele>
        <time>2018-10-12T13:30:48.000Z</time>
      </trkpt>
      <trkpt lat="31.0799980163574219" lon="-6.9686107635498047">
        <ele>1260.0</ele>
        <time>2018-10-12T13:30:49.000Z</time>
      </trkpt>
      <trkpt lat="31.0800266265869141" lon="-6.9686207771301270">
        <ele>1260.0</ele>
        <time>2018-10-12T13:30:50.000Z</time>
      </trkpt>
      <trkpt lat="31.0800552368164062" lon="-6.9686298370361328">
        <ele>1260.0</ele>
        <time>2018-10-12T13:30:51.000Z</time>
      </trkpt>
      <trkpt lat="31.0800781250000000" lon="-6.9686388969421387">
        <ele>1260.0</ele>
        <time>2018-10-12T13:30:52.000Z</time>
      </trkpt>
      <trkpt lat="31.0800991058349609" lon="-6.9686470031738281">
        <ele>1260.0</ele>
        <time>2018-10-12T13:30:53.000Z</time>
      </trkpt>
      <trkpt lat="31.0801277160644531" lon="-6.9686641693115234">
        <ele>1261.0</ele>
        <time>2018-10-12T13:30:55.000Z</time>
      </trkpt>
      <trkpt lat="31.0801601409912109" lon="-6.9686818122863770">
        <ele>1261.0</ele>
        <time>2018-10-12T13:30:57.000Z</time>
      </trkpt>
      <trkpt lat="31.0801830291748047" lon="-6.9686861038208008">
        <ele>1261.0</ele>
        <time>2018-10-12T13:30:58.000Z</time>
      </trkpt>
      <trkpt lat="31.0802059173583984" lon="-6.9686889648437500">
        <ele>1261.0</ele>
        <time>2018-10-12T13:30:59.000Z</time>
      </trkpt>
      <trkpt lat="31.0802249908447266" lon="-6.9686908721923828">
        <ele>1261.0</ele>
        <time>2018-10-12T13:31:00.000Z</time>
      </trkpt>
      <trkpt lat="31.0802440643310547" lon="-6.9686942100524902">
        <ele>1261.0</ele>
        <time>2018-10-12T13:31:01.000Z</time>
      </trkpt>
      <trkpt lat="31.0802631378173828" lon="-6.9686970710754395">
        <ele>1261.0</ele>
        <time>2018-10-12T13:31:02.000Z</time>
      </trkpt>
      <trkpt lat="31.0802860260009766" lon="-6.9686980247497559">
        <ele>1261.0</ele>
        <time>2018-10-12T13:31:03.000Z</time>
      </trkpt>
      <trkpt lat="31.0803089141845703" lon="-6.9686989784240723">
        <ele>1261.0</ele>
        <time>2018-10-12T13:31:04.000Z</time>
      </trkpt>
      <trkpt lat="31.0803298950195312" lon="-6.9686999320983887">
        <ele>1261.0</ele>
        <time>2018-10-12T13:31:05.000Z</time>
      </trkpt>
      <trkpt lat="31.0803527832031250" lon="-6.9687018394470215">
        <ele>1261.0</ele>
        <time>2018-10-12T13:31:06.000Z</time>
      </trkpt>
      <trkpt lat="31.0803737640380859" lon="-6.9687027931213379">
        <ele>1261.0</ele>
        <time>2018-10-12T13:31:07.000Z</time>
      </trkpt>
      <trkpt lat="31.0804061889648438" lon="-6.9686980247497559">
        <ele>1261.0</ele>
        <time>2018-10-12T13:31:09.000Z</time>
      </trkpt>
      <trkpt lat="31.0804424285888672" lon="-6.9686980247497559">
        <ele>1261.0</ele>
        <time>2018-10-12T13:31:11.000Z</time>
      </trkpt>
      <trkpt lat="31.0804615020751953" lon="-6.9686970710754395">
        <ele>1261.0</ele>
        <time>2018-10-12T13:31:12.000Z</time>
      </trkpt>
      <trkpt lat="31.0804805755615234" lon="-6.9686961174011230">
        <ele>1261.0</ele>
        <time>2018-10-12T13:31:13.000Z</time>
      </trkpt>
      <trkpt lat="31.0804996490478516" lon="-6.9686961174011230">
        <ele>1261.0</ele>
        <time>2018-10-12T13:31:14.000Z</time>
      </trkpt>
      <trkpt lat="31.0805225372314453" lon="-6.9686961174011230">
        <ele>1261.0</ele>
        <time>2018-10-12T13:31:15.000Z</time>
      </trkpt>
      <trkpt lat="31.0805454254150391" lon="-6.9686970710754395">
        <ele>1261.0</ele>
        <time>2018-10-12T13:31:16.000Z</time>
      </trkpt>
      <trkpt lat="31.0805664062500000" lon="-6.9686970710754395">
        <ele>1261.0</ele>
        <time>2018-10-12T13:31:17.000Z</time>
      </trkpt>
      <trkpt lat="31.0805854797363281" lon="-6.9686989784240723">
        <ele>1261.0</ele>
        <time>2018-10-12T13:31:18.000Z</time>
      </trkpt>
      <trkpt lat="31.0806198120117188" lon="-6.9686980247497559">
        <ele>1262.0</ele>
        <time>2018-10-12T13:31:20.000Z</time>
      </trkpt>
      <trkpt lat="31.0806388854980469" lon="-6.9686980247497559">
        <ele>1262.0</ele>
        <time>2018-10-12T13:31:21.000Z</time>
      </trkpt>
      <trkpt lat="31.0806655883789062" lon="-6.9686980247497559">
        <ele>1262.0</ele>
        <time>2018-10-12T13:31:22.000Z</time>
      </trkpt>
      <trkpt lat="31.0806961059570312" lon="-6.9686989784240723">
        <ele>1262.0</ele>
        <time>2018-10-12T13:31:23.000Z</time>
      </trkpt>
      <trkpt lat="31.0807285308837891" lon="-6.9687008857727051">
        <ele>1262.0</ele>
        <time>2018-10-12T13:31:24.000Z</time>
      </trkpt>
      <trkpt lat="31.0807590484619141" lon="-6.9687027931213379">
        <ele>1262.0</ele>
        <time>2018-10-12T13:31:25.000Z</time>
      </trkpt>
      <trkpt lat="31.0807914733886719" lon="-6.9687051773071289">
        <ele>1261.178955078125</ele>
        <time>2018-10-12T13:31:26.000Z</time>
      </trkpt>
      <trkpt lat="31.0808219909667969" lon="-6.9687070846557617">
        <ele>1261.0</ele>
        <time>2018-10-12T13:31:27.000Z</time>
      </trkpt>
      <trkpt lat="31.0808544158935547" lon="-6.9687089920043945">
        <ele>1261.821044921875</ele>
        <time>2018-10-12T13:31:28.000Z</time>
      </trkpt>
      <trkpt lat="31.0808849334716797" lon="-6.9687099456787109">
        <ele>1262.0</ele>
        <time>2018-10-12T13:31:29.000Z</time>
      </trkpt>
      <trkpt lat="31.0809154510498047" lon="-6.9687108993530273">
        <ele>1262.0</ele>
        <time>2018-10-12T13:31:30.000Z</time>
      </trkpt>
      <trkpt lat="31.0809478759765625" lon="-6.9687099456787109">
        <ele>1262.0</ele>
        <time>2018-10-12T13:31:31.000Z</time>
      </trkpt>
      <trkpt lat="31.0809783935546875" lon="-6.9687089920043945">
        <ele>1262.0</ele>
        <time>2018-10-12T13:31:32.000Z</time>
      </trkpt>
      <trkpt lat="31.0810108184814453" lon="-6.9687080383300781">
        <ele>1262.0</ele>
        <time>2018-10-12T13:31:33.000Z</time>
      </trkpt>
      <trkpt lat="31.0810413360595703" lon="-6.9687061309814453">
        <ele>1262.0</ele>
        <time>2018-10-12T13:31:34.000Z</time>
      </trkpt>
      <trkpt lat="31.0810718536376953" lon="-6.9687042236328125">
        <ele>1262.0</ele>
        <time>2018-10-12T13:31:35.000Z</time>
      </trkpt>
      <trkpt lat="31.0811004638671875" lon="-6.9686999320983887">
        <ele>1262.0</ele>
        <time>2018-10-12T13:31:36.000Z</time>
      </trkpt>
      <trkpt lat="31.0811271667480469" lon="-6.9686961174011230">
        <ele>1262.0</ele>
        <time>2018-10-12T13:31:37.000Z</time>
      </trkpt>
      <trkpt lat="31.0811538696289062" lon="-6.9686927795410156">
        <ele>1262.0</ele>
        <time>2018-10-12T13:31:38.000Z</time>
      </trkpt>
      <trkpt lat="31.0811786651611328" lon="-6.9686918258666992">
        <ele>1262.0</ele>
        <time>2018-10-12T13:31:39.000Z</time>
      </trkpt>
      <trkpt lat="31.0812034606933594" lon="-6.9686918258666992">
        <ele>1262.0</ele>
        <time>2018-10-12T13:31:40.000Z</time>
      </trkpt>
      <trkpt lat="31.0812301635742188" lon="-6.9686918258666992">
        <ele>1262.0</ele>
        <time>2018-10-12T13:31:41.000Z</time>
      </trkpt>
      <trkpt lat="31.0812530517578125" lon="-6.9686961174011230">
        <ele>1262.0</ele>
        <time>2018-10-12T13:31:42.000Z</time>
      </trkpt>
      <trkpt lat="31.0812797546386719" lon="-6.9687042236328125">
        <ele>1262.821044921875</ele>
        <time>2018-10-12T13:31:43.000Z</time>
      </trkpt>
      <trkpt lat="31.0813045501708984" lon="-6.9687161445617676">
        <ele>1263.0</ele>
        <time>2018-10-12T13:31:44.000Z</time>
      </trkpt>
      <trkpt lat="31.0813274383544922" lon="-6.9687290191650391">
        <ele>1263.0</ele>
        <time>2018-10-12T13:31:45.000Z</time>
      </trkpt>
      <trkpt lat="31.0813503265380859" lon="-6.9687418937683105">
        <ele>1263.0</ele>
        <time>2018-10-12T13:31:46.000Z</time>
      </trkpt>
      <trkpt lat="31.0813751220703125" lon="-6.9687538146972656">
        <ele>1263.0</ele>
        <time>2018-10-12T13:31:47.000Z</time>
      </trkpt>
      <trkpt lat="31.0814037322998047" lon="-6.9687647819519043">
        <ele>1263.0</ele>
        <time>2018-10-12T13:31:48.000Z</time>
      </trkpt>
      <trkpt lat="31.0814304351806641" lon="-6.9687747955322266">
        <ele>1263.0</ele>
        <time>2018-10-12T13:31:49.000Z</time>
      </trkpt>
      <trkpt lat="31.0814552307128906" lon="-6.9687848091125488">
        <ele>1263.0</ele>
        <time>2018-10-12T13:31:50.000Z</time>
      </trkpt>
      <trkpt lat="31.0814819335937500" lon="-6.9687938690185547">
        <ele>1263.0</ele>
        <time>2018-10-12T13:31:51.000Z</time>
      </trkpt>
      <trkpt lat="31.0815048217773438" lon="-6.9688019752502441">
        <ele>1263.0</ele>
        <time>2018-10-12T13:31:52.000Z</time>
      </trkpt>
      <trkpt lat="31.0815296173095703" lon="-6.9688081741333008">
        <ele>1263.0</ele>
        <time>2018-10-12T13:31:53.000Z</time>
      </trkpt>
      <trkpt lat="31.0815525054931641" lon="-6.9688158035278320">
        <ele>1263.0</ele>
        <time>2018-10-12T13:31:54.000Z</time>
      </trkpt>
      <trkpt lat="31.0815696716308594" lon="-6.9688248634338379">
        <ele>1263.0</ele>
        <time>2018-10-12T13:31:55.000Z</time>
      </trkpt>
      <trkpt lat="31.0815868377685547" lon="-6.9688320159912109">
        <ele>1263.0</ele>
        <time>2018-10-12T13:31:56.000Z</time>
      </trkpt>
      <trkpt lat="31.0816040039062500" lon="-6.9688401222229004">
        <ele>1263.0</ele>
        <time>2018-10-12T13:31:57.000Z</time>
      </trkpt>
      <trkpt lat="31.0816211700439453" lon="-6.9688491821289062">
        <ele>1263.0</ele>
        <time>2018-10-12T13:31:58.000Z</time>
      </trkpt>
      <trkpt lat="31.0816402435302734" lon="-6.9688601493835449">
        <ele>1263.0</ele>
        <time>2018-10-12T13:31:59.000Z</time>
      </trkpt>
      <trkpt lat="31.0816574096679688" lon="-6.9688720703125000">
        <ele>1263.0</ele>
        <time>2018-10-12T13:32:00.000Z</time>
      </trkpt>
      <trkpt lat="31.0816764831542969" lon="-6.9688839912414551">
        <ele>1263.0</ele>
        <time>2018-10-12T13:32:01.000Z</time>
      </trkpt>
      <trkpt lat="31.0817089080810547" lon="-6.9689011573791504">
        <ele>1263.0</ele>
        <time>2018-10-12T13:32:03.000Z</time>
      </trkpt>
      <trkpt lat="31.0817241668701172" lon="-6.9689121246337891">
        <ele>1263.0</ele>
        <time>2018-10-12T13:32:04.000Z</time>
      </trkpt>
      <trkpt lat="31.0817432403564453" lon="-6.9689230918884277">
        <ele>1263.0</ele>
        <time>2018-10-12T13:32:05.000Z</time>
      </trkpt>
      <trkpt lat="31.0817623138427734" lon="-6.9689340591430664">
        <ele>1263.0</ele>
        <time>2018-10-12T13:32:06.000Z</time>
      </trkpt>
      <trkpt lat="31.0817832946777344" lon="-6.9689459800720215">
        <ele>1263.0</ele>
        <time>2018-10-12T13:32:07.000Z</time>
      </trkpt>
      <trkpt lat="31.0818042755126953" lon="-6.9689588546752930">
        <ele>1263.0</ele>
        <time>2018-10-12T13:32:08.000Z</time>
      </trkpt>
      <trkpt lat="31.0818252563476562" lon="-6.9689731597900391">
        <ele>1263.0</ele>
        <time>2018-10-12T13:32:09.000Z</time>
      </trkpt>
      <trkpt lat="31.0818462371826172" lon="-6.9689860343933105">
        <ele>1263.0</ele>
        <time>2018-10-12T13:32:10.000Z</time>
      </trkpt>
      <trkpt lat="31.0818691253662109" lon="-6.9689998626708984">
        <ele>1263.0</ele>
        <time>2018-10-12T13:32:11.000Z</time>
      </trkpt>
      <trkpt lat="31.0818939208984375" lon="-6.9690151214599609">
        <ele>1263.0</ele>
        <time>2018-10-12T13:32:12.000Z</time>
      </trkpt>
      <trkpt lat="31.0819187164306641" lon="-6.9690318107604980">
        <ele>1263.0</ele>
        <time>2018-10-12T13:32:13.000Z</time>
      </trkpt>
      <trkpt lat="31.0819435119628906" lon="-6.9690480232238770">
        <ele>1263.0</ele>
        <time>2018-10-12T13:32:14.000Z</time>
      </trkpt>
      <trkpt lat="31.0819664001464844" lon="-6.9690618515014648">
        <ele>1263.0</ele>
        <time>2018-10-12T13:32:15.000Z</time>
      </trkpt>
      <trkpt lat="31.0819911956787109" lon="-6.9690761566162109">
        <ele>1263.0</ele>
        <time>2018-10-12T13:32:16.000Z</time>
      </trkpt>
      <trkpt lat="31.0820178985595703" lon="-6.9690899848937988">
        <ele>1263.821044921875</ele>
        <time>2018-10-12T13:32:17.000Z</time>
      </trkpt>
      <trkpt lat="31.0820426940917969" lon="-6.9691047668457031">
        <ele>1264.0</ele>
        <time>2018-10-12T13:32:18.000Z</time>
      </trkpt>
      <trkpt lat="31.0820693969726562" lon="-6.9691219329833984">
        <ele>1264.0</ele>
        <time>2018-10-12T13:32:19.000Z</time>
      </trkpt>
      <trkpt lat="31.0820960998535156" lon="-6.9691390991210938">
        <ele>1264.0</ele>
        <time>2018-10-12T13:32:20.000Z</time>
      </trkpt>
      <trkpt lat="31.0821247100830078" lon="-6.9691538810729980">
        <ele>1264.0</ele>
        <time>2018-10-12T13:32:21.000Z</time>
      </trkpt>
      <trkpt lat="31.0821514129638672" lon="-6.9691700935363770">
        <ele>1264.0</ele>
        <time>2018-10-12T13:32:22.000Z</time>
      </trkpt>
      <trkpt lat="31.0821800231933594" lon="-6.9691858291625977">
        <ele>1264.0</ele>
        <time>2018-10-12T13:32:23.000Z</time>
      </trkpt>
      <trkpt lat="31.0822086334228516" lon="-6.9692001342773438">
        <ele>1264.0</ele>
        <time>2018-10-12T13:32:24.000Z</time>
      </trkpt>
      <trkpt lat="31.0822353363037109" lon="-6.9692130088806152">
        <ele>1264.0</ele>
        <time>2018-10-12T13:32:25.000Z</time>
      </trkpt>
      <trkpt lat="31.0822601318359375" lon="-6.9692230224609375">
        <ele>1264.0</ele>
        <time>2018-10-12T13:32:26.000Z</time>
      </trkpt>
      <trkpt lat="31.0822868347167969" lon="-6.9692320823669434">
        <ele>1264.0</ele>
        <time>2018-10-12T13:32:27.000Z</time>
      </trkpt>
      <trkpt lat="31.0823154449462891" lon="-6.9692411422729492">
        <ele>1264.821044921875</ele>
        <time>2018-10-12T13:32:28.000Z</time>
      </trkpt>
      <trkpt lat="31.0823440551757812" lon="-6.9692487716674805">
        <ele>1265.0</ele>
        <time>2018-10-12T13:32:29.000Z</time>
      </trkpt>
      <trkpt lat="31.0823726654052734" lon="-6.9692568778991699">
        <ele>1265.0</ele>
        <time>2018-10-12T13:32:30.000Z</time>
      </trkpt>
      <trkpt lat="31.0824012756347656" lon="-6.9692640304565430">
        <ele>1265.0</ele>
        <time>2018-10-12T13:32:31.000Z</time>
      </trkpt>
      <trkpt lat="31.0824337005615234" lon="-6.9692702293395996">
        <ele>1265.0</ele>
        <time>2018-10-12T13:32:32.000Z</time>
      </trkpt>
      <trkpt lat="31.0824642181396484" lon="-6.9692740440368652">
        <ele>1265.0</ele>
        <time>2018-10-12T13:32:33.000Z</time>
      </trkpt>
      <trkpt lat="31.0824966430664062" lon="-6.9692769050598145">
        <ele>1265.0</ele>
        <time>2018-10-12T13:32:34.000Z</time>
      </trkpt>
      <trkpt lat="31.0825309753417969" lon="-6.9692797660827637">
        <ele>1265.0</ele>
        <time>2018-10-12T13:32:35.000Z</time>
      </trkpt>
      <trkpt lat="31.0825634002685547" lon="-6.9692840576171875">
        <ele>1265.0</ele>
        <time>2018-10-12T13:32:36.000Z</time>
      </trkpt>
      <trkpt lat="31.0825977325439453" lon="-6.9692878723144531">
        <ele>1265.0</ele>
        <time>2018-10-12T13:32:37.000Z</time>
      </trkpt>
      <trkpt lat="31.0826320648193359" lon="-6.9692921638488770">
        <ele>1265.0</ele>
        <time>2018-10-12T13:32:38.000Z</time>
      </trkpt>
      <trkpt lat="31.0826644897460938" lon="-6.9692940711975098">
        <ele>1265.0</ele>
        <time>2018-10-12T13:32:39.000Z</time>
      </trkpt>
      <trkpt lat="31.0826988220214844" lon="-6.9692969322204590">
        <ele>1265.821044921875</ele>
        <time>2018-10-12T13:32:40.000Z</time>
      </trkpt>
      <trkpt lat="31.0827293395996094" lon="-6.9692997932434082">
        <ele>1266.0</ele>
        <time>2018-10-12T13:32:41.000Z</time>
      </trkpt>
      <trkpt lat="31.0827636718750000" lon="-6.9693031311035156">
        <ele>1266.0</ele>
        <time>2018-10-12T13:32:42.000Z</time>
      </trkpt>
      <trkpt lat="31.0827941894531250" lon="-6.9693069458007812">
        <ele>1266.0</ele>
        <time>2018-10-12T13:32:43.000Z</time>
      </trkpt>
      <trkpt lat="31.0828247070312500" lon="-6.9693112373352051">
        <ele>1266.0</ele>
        <time>2018-10-12T13:32:44.000Z</time>
      </trkpt>
      <trkpt lat="31.0828552246093750" lon="-6.9693160057067871">
        <ele>1266.0</ele>
        <time>2018-10-12T13:32:45.000Z</time>
      </trkpt>
      <trkpt lat="31.0828838348388672" lon="-6.9693198204040527">
        <ele>1266.0</ele>
        <time>2018-10-12T13:32:46.000Z</time>
      </trkpt>
      <trkpt lat="31.0829086303710938" lon="-6.9693222045898438">
        <ele>1266.0</ele>
        <time>2018-10-12T13:32:47.000Z</time>
      </trkpt>
      <trkpt lat="31.0829334259033203" lon="-6.9693241119384766">
        <ele>1266.0</ele>
        <time>2018-10-12T13:32:48.000Z</time>
      </trkpt>
      <trkpt lat="31.0829544067382812" lon="-6.9693250656127930">
        <ele>1266.0</ele>
        <time>2018-10-12T13:32:49.000Z</time>
      </trkpt>
      <trkpt lat="31.0829753875732422" lon="-6.9693250656127930">
        <ele>1266.0</ele>
        <time>2018-10-12T13:32:50.000Z</time>
      </trkpt>
      <trkpt lat="31.0830097198486328" lon="-6.9693288803100586">
        <ele>1266.0</ele>
        <time>2018-10-12T13:32:52.000Z</time>
      </trkpt>
      <trkpt lat="31.0830383300781250" lon="-6.9693360328674316">
        <ele>1266.0</ele>
        <time>2018-10-12T13:32:54.000Z</time>
      </trkpt>
      <trkpt lat="31.0830745697021484" lon="-6.9693360328674316">
        <ele>1266.0</ele>
        <time>2018-10-12T13:32:56.000Z</time>
      </trkpt>
      <trkpt lat="31.0830974578857422" lon="-6.9693360328674316">
        <ele>1266.0</ele>
        <time>2018-10-12T13:32:57.000Z</time>
      </trkpt>
      <trkpt lat="31.0831203460693359" lon="-6.9693379402160645">
        <ele>1266.0</ele>
        <time>2018-10-12T13:32:58.000Z</time>
      </trkpt>
      <trkpt lat="31.0831432342529297" lon="-6.9693408012390137">
        <ele>1266.0</ele>
        <time>2018-10-12T13:32:59.000Z</time>
      </trkpt>
      <trkpt lat="31.0831642150878906" lon="-6.9693441390991211">
        <ele>1266.0</ele>
        <time>2018-10-12T13:33:00.000Z</time>
      </trkpt>
      <trkpt lat="31.0831832885742188" lon="-6.9693460464477539">
        <ele>1266.0</ele>
        <time>2018-10-12T13:33:01.000Z</time>
      </trkpt>
      <trkpt lat="31.0832023620605469" lon="-6.9693470001220703">
        <ele>1266.0</ele>
        <time>2018-10-12T13:33:02.000Z</time>
      </trkpt>
      <trkpt lat="31.0832347869873047" lon="-6.9693460464477539">
        <ele>1266.0</ele>
        <time>2018-10-12T13:33:04.000Z</time>
      </trkpt>
      <trkpt lat="31.0832729339599609" lon="-6.9693479537963867">
        <ele>1266.0</ele>
        <time>2018-10-12T13:33:06.000Z</time>
      </trkpt>
      <trkpt lat="31.0832958221435547" lon="-6.9693498611450195">
        <ele>1266.821044921875</ele>
        <time>2018-10-12T13:33:07.000Z</time>
      </trkpt>
      <trkpt lat="31.0833148956298828" lon="-6.9693517684936523">
        <ele>1267.0</ele>
        <time>2018-10-12T13:33:08.000Z</time>
      </trkpt>
      <trkpt lat="31.0833492279052734" lon="-6.9693551063537598">
        <ele>1267.0</ele>
        <time>2018-10-12T13:33:10.000Z</time>
      </trkpt>
      <trkpt lat="31.0833797454833984" lon="-6.9693570137023926">
        <ele>1267.0</ele>
        <time>2018-10-12T13:33:12.000Z</time>
      </trkpt>
      <trkpt lat="31.0833988189697266" lon="-6.9693589210510254">
        <ele>1267.0</ele>
        <time>2018-10-12T13:33:13.000Z</time>
      </trkpt>
      <trkpt lat="31.0834293365478516" lon="-6.9693570137023926">
        <ele>1267.0</ele>
        <time>2018-10-12T13:33:15.000Z</time>
      </trkpt>
      <trkpt lat="31.0834541320800781" lon="-6.9693598747253418">
        <ele>1267.0</ele>
        <time>2018-10-12T13:33:17.000Z</time>
      </trkpt>
      <trkpt lat="31.0834884643554688" lon="-6.9693679809570312">
        <ele>1267.0</ele>
        <time>2018-10-12T13:33:19.000Z</time>
      </trkpt>
      <trkpt lat="31.0835113525390625" lon="-6.9693689346313477">
        <ele>1267.0</ele>
        <time>2018-10-12T13:33:20.000Z</time>
      </trkpt>
      <trkpt lat="31.0835304260253906" lon="-6.9693698883056641">
        <ele>1267.0</ele>
        <time>2018-10-12T13:33:21.000Z</time>
      </trkpt>
      <trkpt lat="31.0835494995117188" lon="-6.9693698883056641">
        <ele>1267.0</ele>
        <time>2018-10-12T13:33:22.000Z</time>
      </trkpt>
      <trkpt lat="31.0835876464843750" lon="-6.9693679809570312">
        <ele>1267.0</ele>
        <time>2018-10-12T13:33:24.000Z</time>
      </trkpt>
      <trkpt lat="31.0836124420166016" lon="-6.9693698883056641">
        <ele>1267.0</ele>
        <time>2018-10-12T13:33:25.000Z</time>
      </trkpt>
      <trkpt lat="31.0836372375488281" lon="-6.9693698883056641">
        <ele>1267.0</ele>
        <time>2018-10-12T13:33:26.000Z</time>
      </trkpt>
      <trkpt lat="31.0836601257324219" lon="-6.9693698883056641">
        <ele>1267.0</ele>
        <time>2018-10-12T13:33:27.000Z</time>
      </trkpt>
      <trkpt lat="31.0836811065673828" lon="-6.9693717956542969">
        <ele>1267.0</ele>
        <time>2018-10-12T13:33:28.000Z</time>
      </trkpt>
      <trkpt lat="31.0837001800537109" lon="-6.9693751335144043">
        <ele>1267.0</ele>
        <time>2018-10-12T13:33:29.000Z</time>
      </trkpt>
      <trkpt lat="31.0837192535400391" lon="-6.9693751335144043">
        <ele>1267.0</ele>
        <time>2018-10-12T13:33:30.000Z</time>
      </trkpt>
      <trkpt lat="31.0837402343750000" lon="-6.9693741798400879">
        <ele>1267.0</ele>
        <time>2018-10-12T13:33:31.000Z</time>
      </trkpt>
      <trkpt lat="31.0837688446044922" lon="-6.9693751335144043">
        <ele>1267.0</ele>
        <time>2018-10-12T13:33:32.000Z</time>
      </trkpt>
      <trkpt lat="31.0837955474853516" lon="-6.9693779945373535">
        <ele>1267.0</ele>
        <time>2018-10-12T13:33:33.000Z</time>
      </trkpt>
      <trkpt lat="31.0838222503662109" lon="-6.9693808555603027">
        <ele>1267.0</ele>
        <time>2018-10-12T13:33:34.000Z</time>
      </trkpt>
      <trkpt lat="31.0838470458984375" lon="-6.9693827629089355">
        <ele>1267.0</ele>
        <time>2018-10-12T13:33:35.000Z</time>
      </trkpt>
      <trkpt lat="31.0838718414306641" lon="-6.9693861007690430">
        <ele>1267.0</ele>
        <time>2018-10-12T13:33:36.000Z</time>
      </trkpt>
      <trkpt lat="31.0838928222656250" lon="-6.9693880081176758">
        <ele>1267.0</ele>
        <time>2018-10-12T13:33:37.000Z</time>
      </trkpt>
      <trkpt lat="31.0839138031005859" lon="-6.9693908691406250">
        <ele>1267.0</ele>
        <time>2018-10-12T13:33:38.000Z</time>
      </trkpt>
      <trkpt lat="31.0839347839355469" lon="-6.9693927764892578">
        <ele>1267.0</ele>
        <time>2018-10-12T13:33:39.000Z</time>
      </trkpt>
      <trkpt lat="31.0839538574218750" lon="-6.9693961143493652">
        <ele>1267.0</ele>
        <time>2018-10-12T13:33:40.000Z</time>
      </trkpt>
      <trkpt lat="31.0839710235595703" lon="-6.9693989753723145">
        <ele>1267.0</ele>
        <time>2018-10-12T13:33:41.000Z</time>
      </trkpt>
      <trkpt lat="31.0840072631835938" lon="-6.9694061279296875">
        <ele>1267.0</ele>
        <time>2018-10-12T13:33:43.000Z</time>
      </trkpt>
      <trkpt lat="31.0840282440185547" lon="-6.9694089889526367">
        <ele>1267.0</ele>
        <time>2018-10-12T13:33:44.000Z</time>
      </trkpt>
      <trkpt lat="31.0840568542480469" lon="-6.9694128036499023">
        <ele>1267.636474609375</ele>
        <time>2018-10-12T13:33:45.000Z</time>
      </trkpt>
      <trkpt lat="31.0840816497802734" lon="-6.9694199562072754">
        <ele>1268.0</ele>
        <time>2018-10-12T13:33:46.000Z</time>
      </trkpt>
      <trkpt lat="31.0841064453125000" lon="-6.9694271087646484">
        <ele>1268.0</ele>
        <time>2018-10-12T13:33:47.000Z</time>
      </trkpt>
      <trkpt lat="31.0841331481933594" lon="-6.9694328308105469">
        <ele>1268.0</ele>
        <time>2018-10-12T13:33:48.000Z</time>
      </trkpt>
      <trkpt lat="31.0841598510742188" lon="-6.9694399833679199">
        <ele>1268.0</ele>
        <time>2018-10-12T13:33:49.000Z</time>
      </trkpt>
      <trkpt lat="31.0841865539550781" lon="-6.9694480895996094">
        <ele>1268.0</ele>
        <time>2018-10-12T13:33:50.000Z</time>
      </trkpt>
      <trkpt lat="31.0842132568359375" lon="-6.9694561958312988">
        <ele>1268.0</ele>
        <time>2018-10-12T13:33:51.000Z</time>
      </trkpt>
      <trkpt lat="31.0842380523681641" lon="-6.9694647789001465">
        <ele>1268.0</ele>
        <time>2018-10-12T13:33:52.000Z</time>
      </trkpt>
      <trkpt lat="31.0842666625976562" lon="-6.9694728851318359">
        <ele>1268.0</ele>
        <time>2018-10-12T13:33:53.000Z</time>
      </trkpt>
      <trkpt lat="31.0842914581298828" lon="-6.9694819450378418">
        <ele>1268.0</ele>
        <time>2018-10-12T13:33:54.000Z</time>
      </trkpt>
      <trkpt lat="31.0843181610107422" lon="-6.9694910049438477">
        <ele>1268.0</ele>
        <time>2018-10-12T13:33:55.000Z</time>
      </trkpt>
      <trkpt lat="31.0843467712402344" lon="-6.9695010185241699">
        <ele>1268.0</ele>
        <time>2018-10-12T13:33:56.000Z</time>
      </trkpt>
      <trkpt lat="31.0843734741210938" lon="-6.9695100784301758">
        <ele>1268.0</ele>
        <time>2018-10-12T13:33:57.000Z</time>
      </trkpt>
      <trkpt lat="31.0844001770019531" lon="-6.9695191383361816">
        <ele>1268.0</ele>
        <time>2018-10-12T13:33:58.000Z</time>
      </trkpt>
      <trkpt lat="31.0844268798828125" lon="-6.9695281982421875">
        <ele>1268.0</ele>
        <time>2018-10-12T13:33:59.000Z</time>
      </trkpt>
      <trkpt lat="31.0844554901123047" lon="-6.9695367813110352">
        <ele>1268.0</ele>
        <time>2018-10-12T13:34:00.000Z</time>
      </trkpt>
      <trkpt lat="31.0844821929931641" lon="-6.9695448875427246">
        <ele>1268.0</ele>
        <time>2018-10-12T13:34:01.000Z</time>
      </trkpt>
      <trkpt lat="31.0845088958740234" lon="-6.9695539474487305">
        <ele>1268.0</ele>
        <time>2018-10-12T13:34:02.000Z</time>
      </trkpt>
      <trkpt lat="31.0845375061035156" lon="-6.9695620536804199">
        <ele>1268.0</ele>
        <time>2018-10-12T13:34:03.000Z</time>
      </trkpt>
      <trkpt lat="31.0845642089843750" lon="-6.9695692062377930">
        <ele>1268.0</ele>
        <time>2018-10-12T13:34:04.000Z</time>
      </trkpt>
      <trkpt lat="31.0845909118652344" lon="-6.9695758819580078">
        <ele>1268.0</ele>
        <time>2018-10-12T13:34:05.000Z</time>
      </trkpt>
      <trkpt lat="31.0846176147460938" lon="-6.9695839881896973">
        <ele>1268.0</ele>
        <time>2018-10-12T13:34:06.000Z</time>
      </trkpt>
      <trkpt lat="31.0846443176269531" lon="-6.9695901870727539">
        <ele>1268.0</ele>
        <time>2018-10-12T13:34:07.000Z</time>
      </trkpt>
      <trkpt lat="31.0846729278564453" lon="-6.9695968627929688">
        <ele>1268.0</ele>
        <time>2018-10-12T13:34:08.000Z</time>
      </trkpt>
      <trkpt lat="31.0846996307373047" lon="-6.9696040153503418">
        <ele>1268.0</ele>
        <time>2018-10-12T13:34:09.000Z</time>
      </trkpt>
      <trkpt lat="31.0847282409667969" lon="-6.9696111679077148">
        <ele>1268.0</ele>
        <time>2018-10-12T13:34:10.000Z</time>
      </trkpt>
      <trkpt lat="31.0847568511962891" lon="-6.9696178436279297">
        <ele>1268.0</ele>
        <time>2018-10-12T13:34:11.000Z</time>
      </trkpt>
      <trkpt lat="31.0847854614257812" lon="-6.9696249961853027">
        <ele>1268.821044921875</ele>
        <time>2018-10-12T13:34:12.000Z</time>
      </trkpt>
      <trkpt lat="31.0848121643066406" lon="-6.9696311950683594">
        <ele>1269.0</ele>
        <time>2018-10-12T13:34:13.000Z</time>
      </trkpt>
      <trkpt lat="31.0848407745361328" lon="-6.9696378707885742">
        <ele>1269.0</ele>
        <time>2018-10-12T13:34:14.000Z</time>
      </trkpt>
      <trkpt lat="31.0848674774169922" lon="-6.9696431159973145">
        <ele>1269.0</ele>
        <time>2018-10-12T13:34:15.000Z</time>
      </trkpt>
      <trkpt lat="31.0848960876464844" lon="-6.9696478843688965">
        <ele>1269.0</ele>
        <time>2018-10-12T13:34:16.000Z</time>
      </trkpt>
      <trkpt lat="31.0849227905273438" lon="-6.9696559906005859">
        <ele>1269.0</ele>
        <time>2018-10-12T13:34:17.000Z</time>
      </trkpt>
      <trkpt lat="31.0849494934082031" lon="-6.9696650505065918">
        <ele>1269.0</ele>
        <time>2018-10-12T13:34:18.000Z</time>
      </trkpt>
      <trkpt lat="31.0849742889404297" lon="-6.9696722030639648">
        <ele>1269.0</ele>
        <time>2018-10-12T13:34:19.000Z</time>
      </trkpt>
      <trkpt lat="31.0849990844726562" lon="-6.9696779251098633">
        <ele>1269.0</ele>
        <time>2018-10-12T13:34:20.000Z</time>
      </trkpt>
      <trkpt lat="31.0850200653076172" lon="-6.9696850776672363">
        <ele>1269.0</ele>
        <time>2018-10-12T13:34:21.000Z</time>
      </trkpt>
      <trkpt lat="31.0850429534912109" lon="-6.9696922302246094">
        <ele>1269.0</ele>
        <time>2018-10-12T13:34:22.000Z</time>
      </trkpt>
      <trkpt lat="31.0850639343261719" lon="-6.9696989059448242">
        <ele>1269.0</ele>
        <time>2018-10-12T13:34:23.000Z</time>
      </trkpt>
      <trkpt lat="31.0850849151611328" lon="-6.9697060585021973">
        <ele>1269.0</ele>
        <time>2018-10-12T13:34:24.000Z</time>
      </trkpt>
      <trkpt lat="31.0851078033447266" lon="-6.9697132110595703">
        <ele>1269.0</ele>
        <time>2018-10-12T13:34:25.000Z</time>
      </trkpt>
      <trkpt lat="31.0851306915283203" lon="-6.9697208404541016">
        <ele>1269.0</ele>
        <time>2018-10-12T13:34:26.000Z</time>
      </trkpt>
      <trkpt lat="31.0851535797119141" lon="-6.9697299003601074">
        <ele>1269.0</ele>
        <time>2018-10-12T13:34:27.000Z</time>
      </trkpt>
      <trkpt lat="31.0851783752441406" lon="-6.9697399139404297">
        <ele>1269.0</ele>
        <time>2018-10-12T13:34:28.000Z</time>
      </trkpt>
      <trkpt lat="31.0852012634277344" lon="-6.9697518348693848">
        <ele>1269.0</ele>
        <time>2018-10-12T13:34:29.000Z</time>
      </trkpt>
      <trkpt lat="31.0852279663085938" lon="-6.9697642326354980">
        <ele>1269.0</ele>
        <time>2018-10-12T13:34:30.000Z</time>
      </trkpt>
      <trkpt lat="31.0852546691894531" lon="-6.9697751998901367">
        <ele>1269.0</ele>
        <time>2018-10-12T13:34:31.000Z</time>
      </trkpt>
      <trkpt lat="31.0852794647216797" lon="-6.9697871208190918">
        <ele>1269.0</ele>
        <time>2018-10-12T13:34:32.000Z</time>
      </trkpt>
      <trkpt lat="31.0853042602539062" lon="-6.9697999954223633">
        <ele>1269.0</ele>
        <time>2018-10-12T13:34:33.000Z</time>
      </trkpt>
      <trkpt lat="31.0853290557861328" lon="-6.9698119163513184">
        <ele>1269.0</ele>
        <time>2018-10-12T13:34:34.000Z</time>
      </trkpt>
      <trkpt lat="31.0853538513183594" lon="-6.9698238372802734">
        <ele>1269.821044921875</ele>
        <time>2018-10-12T13:34:35.000Z</time>
      </trkpt>
      <trkpt lat="31.0853767395019531" lon="-6.9698309898376465">
        <ele>1270.0</ele>
        <time>2018-10-12T13:34:36.000Z</time>
      </trkpt>
      <trkpt lat="31.0853977203369141" lon="-6.9698400497436523">
        <ele>1270.0</ele>
        <time>2018-10-12T13:34:37.000Z</time>
      </trkpt>
      <trkpt lat="31.0854206085205078" lon="-6.9698519706726074">
        <ele>1270.821044921875</ele>
        <time>2018-10-12T13:34:38.000Z</time>
      </trkpt>
      <trkpt lat="31.0854415893554688" lon="-6.9698657989501953">
        <ele>1271.0</ele>
        <time>2018-10-12T13:34:39.000Z</time>
      </trkpt>
      <trkpt lat="31.0854625701904297" lon="-6.9698767662048340">
        <ele>1271.0</ele>
        <time>2018-10-12T13:34:40.000Z</time>
      </trkpt>
      <trkpt lat="31.0854816436767578" lon="-6.9698882102966309">
        <ele>1271.0</ele>
        <time>2018-10-12T13:34:41.000Z</time>
      </trkpt>
      <trkpt lat="31.0854988098144531" lon="-6.9699010848999023">
        <ele>1271.0</ele>
        <time>2018-10-12T13:34:42.000Z</time>
      </trkpt>
      <trkpt lat="31.0855178833007812" lon="-6.9699139595031738">
        <ele>1271.0</ele>
        <time>2018-10-12T13:34:43.000Z</time>
      </trkpt>
      <trkpt lat="31.0855369567871094" lon="-6.9699268341064453">
        <ele>1271.0</ele>
        <time>2018-10-12T13:34:44.000Z</time>
      </trkpt>
      <trkpt lat="31.0855579376220703" lon="-6.9699411392211914">
        <ele>1271.0</ele>
        <time>2018-10-12T13:34:45.000Z</time>
      </trkpt>
      <trkpt lat="31.0855808258056641" lon="-6.9699568748474121">
        <ele>1271.0</ele>
        <time>2018-10-12T13:34:46.000Z</time>
      </trkpt>
      <trkpt lat="31.0856037139892578" lon="-6.9699721336364746">
        <ele>1271.0</ele>
        <time>2018-10-12T13:34:47.000Z</time>
      </trkpt>
      <trkpt lat="31.0856285095214844" lon="-6.9699869155883789">
        <ele>1271.0</ele>
        <time>2018-10-12T13:34:48.000Z</time>
      </trkpt>
      <trkpt lat="31.0856552124023438" lon="-6.9700012207031250">
        <ele>1271.0</ele>
        <time>2018-10-12T13:34:49.000Z</time>
      </trkpt>
      <trkpt lat="31.0856819152832031" lon="-6.9700150489807129">
        <ele>1271.0</ele>
        <time>2018-10-12T13:34:50.000Z</time>
      </trkpt>
      <trkpt lat="31.0857067108154297" lon="-6.9700288772583008">
        <ele>1271.636474609375</ele>
        <time>2018-10-12T13:34:51.000Z</time>
      </trkpt>
      <trkpt lat="31.0857315063476562" lon="-6.9700441360473633">
        <ele>1272.0</ele>
        <time>2018-10-12T13:34:52.000Z</time>
      </trkpt>
      <trkpt lat="31.0857543945312500" lon="-6.9700589179992676">
        <ele>1272.0</ele>
        <time>2018-10-12T13:34:53.000Z</time>
      </trkpt>
      <trkpt lat="31.0857791900634766" lon="-6.9700732231140137">
        <ele>1272.0</ele>
        <time>2018-10-12T13:34:54.000Z</time>
      </trkpt>
      <trkpt lat="31.0858058929443359" lon="-6.9700870513916016">
        <ele>1272.0</ele>
        <time>2018-10-12T13:34:55.000Z</time>
      </trkpt>
      <trkpt lat="31.0858306884765625" lon="-6.9701008796691895">
        <ele>1272.0</ele>
        <time>2018-10-12T13:34:56.000Z</time>
      </trkpt>
      <trkpt lat="31.0858573913574219" lon="-6.9701118469238281">
        <ele>1272.0</ele>
        <time>2018-10-12T13:34:57.000Z</time>
      </trkpt>
      <trkpt lat="31.0858821868896484" lon="-6.9701218605041504">
        <ele>1272.0</ele>
        <time>2018-10-12T13:34:58.000Z</time>
      </trkpt>
      <trkpt lat="31.0859107971191406" lon="-6.9701309204101562">
        <ele>1272.0</ele>
        <time>2018-10-12T13:34:59.000Z</time>
      </trkpt>
      <trkpt lat="31.0859375000000000" lon="-6.9701380729675293">
        <ele>1272.0</ele>
        <time>2018-10-12T13:35:00.000Z</time>
      </trkpt>
      <trkpt lat="31.0859622955322266" lon="-6.9701461791992188">
        <ele>1272.0</ele>
        <time>2018-10-12T13:35:01.000Z</time>
      </trkpt>
      <trkpt lat="31.0859909057617188" lon="-6.9701509475708008">
        <ele>1272.0</ele>
        <time>2018-10-12T13:35:02.000Z</time>
      </trkpt>
      <trkpt lat="31.0860157012939453" lon="-6.9701561927795410">
        <ele>1272.0</ele>
        <time>2018-10-12T13:35:03.000Z</time>
      </trkpt>
      <trkpt lat="31.0860424041748047" lon="-6.9701609611511230">
        <ele>1272.0</ele>
        <time>2018-10-12T13:35:04.000Z</time>
      </trkpt>
      <trkpt lat="31.0860671997070312" lon="-6.9701647758483887">
        <ele>1272.0</ele>
        <time>2018-10-12T13:35:05.000Z</time>
      </trkpt>
      <trkpt lat="31.0860919952392578" lon="-6.9701671600341797">
        <ele>1272.0</ele>
        <time>2018-10-12T13:35:06.000Z</time>
      </trkpt>
      <trkpt lat="31.0861167907714844" lon="-6.9701700210571289">
        <ele>1272.0</ele>
        <time>2018-10-12T13:35:07.000Z</time>
      </trkpt>
      <trkpt lat="31.0861415863037109" lon="-6.9701709747314453">
        <ele>1272.0</ele>
        <time>2018-10-12T13:35:08.000Z</time>
      </trkpt>
      <trkpt lat="31.0861644744873047" lon="-6.9701738357543945">
        <ele>1272.0</ele>
        <time>2018-10-12T13:35:09.000Z</time>
      </trkpt>
      <trkpt lat="31.0861892700195312" lon="-6.9701747894287109">
        <ele>1272.0</ele>
        <time>2018-10-12T13:35:10.000Z</time>
      </trkpt>
      <trkpt lat="31.0862140655517578" lon="-6.9701771736145020">
        <ele>1272.0</ele>
        <time>2018-10-12T13:35:11.000Z</time>
      </trkpt>
      <trkpt lat="31.0862426757812500" lon="-6.9701790809631348">
        <ele>1272.0</ele>
        <time>2018-10-12T13:35:12.000Z</time>
      </trkpt>
      <trkpt lat="31.0862693786621094" lon="-6.9701800346374512">
        <ele>1272.0</ele>
        <time>2018-10-12T13:35:13.000Z</time>
      </trkpt>
      <trkpt lat="31.0862979888916016" lon="-6.9701819419860840">
        <ele>1272.0</ele>
        <time>2018-10-12T13:35:14.000Z</time>
      </trkpt>
      <trkpt lat="31.0863265991210938" lon="-6.9701809883117676">
        <ele>1272.0</ele>
        <time>2018-10-12T13:35:15.000Z</time>
      </trkpt>
      <trkpt lat="31.0863533020019531" lon="-6.9701828956604004">
        <ele>1272.821044921875</ele>
        <time>2018-10-12T13:35:16.000Z</time>
      </trkpt>
      <trkpt lat="31.0863838195800781" lon="-6.9701838493347168">
        <ele>1273.0</ele>
        <time>2018-10-12T13:35:17.000Z</time>
      </trkpt>
      <trkpt lat="31.0864105224609375" lon="-6.9701848030090332">
        <ele>1273.0</ele>
        <time>2018-10-12T13:35:18.000Z</time>
      </trkpt>
      <trkpt lat="31.0864391326904297" lon="-6.9701862335205078">
        <ele>1273.0</ele>
        <time>2018-10-12T13:35:19.000Z</time>
      </trkpt>
      <trkpt lat="31.0864677429199219" lon="-6.9701890945434570">
        <ele>1273.0</ele>
        <time>2018-10-12T13:35:20.000Z</time>
      </trkpt>
      <trkpt lat="31.0864982604980469" lon="-6.9701919555664062">
        <ele>1273.0</ele>
        <time>2018-10-12T13:35:21.000Z</time>
      </trkpt>
      <trkpt lat="31.0865287780761719" lon="-6.9701957702636719">
        <ele>1273.0</ele>
        <time>2018-10-12T13:35:22.000Z</time>
      </trkpt>
      <trkpt lat="31.0865573883056641" lon="-6.9701991081237793">
        <ele>1273.0</ele>
        <time>2018-10-12T13:35:23.000Z</time>
      </trkpt>
      <trkpt lat="31.0865879058837891" lon="-6.9702019691467285">
        <ele>1273.0</ele>
        <time>2018-10-12T13:35:24.000Z</time>
      </trkpt>
      <trkpt lat="31.0866184234619141" lon="-6.9702038764953613">
        <ele>1273.0</ele>
        <time>2018-10-12T13:35:25.000Z</time>
      </trkpt>
      <trkpt lat="31.0866508483886719" lon="-6.9702057838439941">
        <ele>1273.0</ele>
        <time>2018-10-12T13:35:26.000Z</time>
      </trkpt>
      <trkpt lat="31.0866813659667969" lon="-6.9702081680297852">
        <ele>1273.0</ele>
        <time>2018-10-12T13:35:27.000Z</time>
      </trkpt>
      <trkpt lat="31.0867137908935547" lon="-6.9702110290527344">
        <ele>1273.0</ele>
        <time>2018-10-12T13:35:28.000Z</time>
      </trkpt>
      <trkpt lat="31.0867443084716797" lon="-6.9702157974243164">
        <ele>1273.0</ele>
        <time>2018-10-12T13:35:29.000Z</time>
      </trkpt>
      <trkpt lat="31.0867748260498047" lon="-6.9702219963073730">
        <ele>1273.7479248046875</ele>
        <time>2018-10-12T13:35:30.000Z</time>
      </trkpt>
      <trkpt lat="31.0868034362792969" lon="-6.9702267646789551">
        <ele>1274.0</ele>
        <time>2018-10-12T13:35:31.000Z</time>
      </trkpt>
      <trkpt lat="31.0868320465087891" lon="-6.9702329635620117">
        <ele>1273.178955078125</ele>
        <time>2018-10-12T13:35:32.000Z</time>
      </trkpt>
      <trkpt lat="31.0868625640869141" lon="-6.9702401161193848">
        <ele>1273.0</ele>
        <time>2018-10-12T13:35:33.000Z</time>
      </trkpt>
      <trkpt lat="31.0868930816650391" lon="-6.9702458381652832">
        <ele>1273.0</ele>
        <time>2018-10-12T13:35:34.000Z</time>
      </trkpt>
      <trkpt lat="31.0869235992431641" lon="-6.9702520370483398">
        <ele>1273.0</ele>
        <time>2018-10-12T13:35:35.000Z</time>
      </trkpt>
      <trkpt lat="31.0869522094726562" lon="-6.9702568054199219">
        <ele>1273.0</ele>
        <time>2018-10-12T13:35:36.000Z</time>
      </trkpt>
      <trkpt lat="31.0869808197021484" lon="-6.9702620506286621">
        <ele>1273.0</ele>
        <time>2018-10-12T13:35:37.000Z</time>
      </trkpt>
      <trkpt lat="31.0870113372802734" lon="-6.9702677726745605">
        <ele>1273.0</ele>
        <time>2018-10-12T13:35:38.000Z</time>
      </trkpt>
      <trkpt lat="31.0870437622070312" lon="-6.9702720642089844">
        <ele>1273.0</ele>
        <time>2018-10-12T13:35:39.000Z</time>
      </trkpt>
      <trkpt lat="31.0870780944824219" lon="-6.9702739715576172">
        <ele>1273.0</ele>
        <time>2018-10-12T13:35:40.000Z</time>
      </trkpt>
      <trkpt lat="31.0871124267578125" lon="-6.9702739715576172">
        <ele>1272.178955078125</ele>
        <time>2018-10-12T13:35:41.000Z</time>
      </trkpt>
      <trkpt lat="31.0871486663818359" lon="-6.9702711105346680">
        <ele>1272.0</ele>
        <time>2018-10-12T13:35:42.000Z</time>
      </trkpt>
      <trkpt lat="31.0871868133544922" lon="-6.9702677726745605">
        <ele>1272.0</ele>
        <time>2018-10-12T13:35:43.000Z</time>
      </trkpt>
      <trkpt lat="31.0872230529785156" lon="-6.9702620506286621">
        <ele>1272.0</ele>
        <time>2018-10-12T13:35:44.000Z</time>
      </trkpt>
      <trkpt lat="31.0872611999511719" lon="-6.9702539443969727">
        <ele>1272.0</ele>
        <time>2018-10-12T13:35:45.000Z</time>
      </trkpt>
      <trkpt lat="31.0872955322265625" lon="-6.9702448844909668">
        <ele>1272.0</ele>
        <time>2018-10-12T13:35:46.000Z</time>
      </trkpt>
      <trkpt lat="31.0873317718505859" lon="-6.9702358245849609">
        <ele>1272.0</ele>
        <time>2018-10-12T13:35:47.000Z</time>
      </trkpt>
      <trkpt lat="31.0873680114746094" lon="-6.9702267646789551">
        <ele>1272.0</ele>
        <time>2018-10-12T13:35:48.000Z</time>
      </trkpt>
      <trkpt lat="31.0874061584472656" lon="-6.9702172279357910">
        <ele>1272.0</ele>
        <time>2018-10-12T13:35:49.000Z</time>
      </trkpt>
      <trkpt lat="31.0874443054199219" lon="-6.9702072143554688">
        <ele>1272.0</ele>
        <time>2018-10-12T13:35:50.000Z</time>
      </trkpt>
      <trkpt lat="31.0874824523925781" lon="-6.9701957702636719">
        <ele>1272.0</ele>
        <time>2018-10-12T13:35:51.000Z</time>
      </trkpt>
      <trkpt lat="31.0875225067138672" lon="-6.9701871871948242">
        <ele>1272.0</ele>
        <time>2018-10-12T13:35:52.000Z</time>
      </trkpt>
      <trkpt lat="31.0875625610351562" lon="-6.9701790809631348">
        <ele>1272.0</ele>
        <time>2018-10-12T13:35:53.000Z</time>
      </trkpt>
      <trkpt lat="31.0876045227050781" lon="-6.9701738357543945">
        <ele>1272.0</ele>
        <time>2018-10-12T13:35:54.000Z</time>
      </trkpt>
      <trkpt lat="31.0876445770263672" lon="-6.9701690673828125">
        <ele>1272.0</ele>
        <time>2018-10-12T13:35:55.000Z</time>
      </trkpt>
      <trkpt lat="31.0876865386962891" lon="-6.9701662063598633">
        <ele>1272.0</ele>
        <time>2018-10-12T13:35:56.000Z</time>
      </trkpt>
      <trkpt lat="31.0877265930175781" lon="-6.9701638221740723">
        <ele>1272.0</ele>
        <time>2018-10-12T13:35:57.000Z</time>
      </trkpt>
      <trkpt lat="31.0877647399902344" lon="-6.9701638221740723">
        <ele>1272.0</ele>
        <time>2018-10-12T13:35:58.000Z</time>
      </trkpt>
      <trkpt lat="31.0877990722656250" lon="-6.9701647758483887">
        <ele>1272.0</ele>
        <time>2018-10-12T13:35:59.000Z</time>
      </trkpt>
      <trkpt lat="31.0878372192382812" lon="-6.9701671600341797">
        <ele>1272.0</ele>
        <time>2018-10-12T13:36:00.000Z</time>
      </trkpt>
      <trkpt lat="31.0878753662109375" lon="-6.9701700210571289">
        <ele>1272.0</ele>
        <time>2018-10-12T13:36:01.000Z</time>
      </trkpt>
      <trkpt lat="31.0879154205322266" lon="-6.9701747894287109">
        <ele>1272.0</ele>
        <time>2018-10-12T13:36:02.000Z</time>
      </trkpt>
      <trkpt lat="31.0879535675048828" lon="-6.9701809883117676">
        <ele>1272.0</ele>
        <time>2018-10-12T13:36:03.000Z</time>
      </trkpt>
      <trkpt lat="31.0879898071289062" lon="-6.9701862335205078">
        <ele>1272.821044921875</ele>
        <time>2018-10-12T13:36:04.000Z</time>
      </trkpt>
      <trkpt lat="31.0880203247070312" lon="-6.9701948165893555">
        <ele>1273.0</ele>
        <time>2018-10-12T13:36:05.000Z</time>
      </trkpt>
      <trkpt lat="31.0880546569824219" lon="-6.9702038764953613">
        <ele>1273.0</ele>
        <time>2018-10-12T13:36:06.000Z</time>
      </trkpt>
      <trkpt lat="31.0880908966064453" lon="-6.9702129364013672">
        <ele>1273.0</ele>
        <time>2018-10-12T13:36:07.000Z</time>
      </trkpt>
      <trkpt lat="31.0881271362304688" lon="-6.9702239036560059">
        <ele>1273.0</ele>
        <time>2018-10-12T13:36:08.000Z</time>
      </trkpt>
      <trkpt lat="31.0881633758544922" lon="-6.9702339172363281">
        <ele>1273.0</ele>
        <time>2018-10-12T13:36:09.000Z</time>
      </trkpt>
      <trkpt lat="31.0881977081298828" lon="-6.9702439308166504">
        <ele>1273.0</ele>
        <time>2018-10-12T13:36:10.000Z</time>
      </trkpt>
      <trkpt lat="31.0882301330566406" lon="-6.9702529907226562">
        <ele>1273.0</ele>
        <time>2018-10-12T13:36:11.000Z</time>
      </trkpt>
      <trkpt lat="31.0882606506347656" lon="-6.9702620506286621">
        <ele>1273.0</ele>
        <time>2018-10-12T13:36:12.000Z</time>
      </trkpt>
      <trkpt lat="31.0882911682128906" lon="-6.9702701568603516">
        <ele>1273.0</ele>
        <time>2018-10-12T13:36:13.000Z</time>
      </trkpt>
      <trkpt lat="31.0883255004882812" lon="-6.9702768325805664">
        <ele>1273.0</ele>
        <time>2018-10-12T13:36:14.000Z</time>
      </trkpt>
      <trkpt lat="31.0883598327636719" lon="-6.9702858924865723">
        <ele>1273.0</ele>
        <time>2018-10-12T13:36:15.000Z</time>
      </trkpt>
      <trkpt lat="31.0883960723876953" lon="-6.9702930450439453">
        <ele>1273.0</ele>
        <time>2018-10-12T13:36:16.000Z</time>
      </trkpt>
      <trkpt lat="31.0884342193603516" lon="-6.9702987670898438">
        <ele>1273.0</ele>
        <time>2018-10-12T13:36:17.000Z</time>
      </trkpt>
      <trkpt lat="31.0884704589843750" lon="-6.9703040122985840">
        <ele>1273.821044921875</ele>
        <time>2018-10-12T13:36:18.000Z</time>
      </trkpt>
      <trkpt lat="31.0885028839111328" lon="-6.9703078269958496">
        <ele>1274.0</ele>
        <time>2018-10-12T13:36:19.000Z</time>
      </trkpt>
      <trkpt lat="31.0885334014892578" lon="-6.9703121185302734">
        <ele>1274.0</ele>
        <time>2018-10-12T13:36:20.000Z</time>
      </trkpt>
      <trkpt lat="31.0885620117187500" lon="-6.9703159332275391">
        <ele>1274.0</ele>
        <time>2018-10-12T13:36:21.000Z</time>
      </trkpt>
      <trkpt lat="31.0885925292968750" lon="-6.9703211784362793">
        <ele>1274.0</ele>
        <time>2018-10-12T13:36:22.000Z</time>
      </trkpt>
      <trkpt lat="31.0886287689208984" lon="-6.9703269004821777">
        <ele>1274.0</ele>
        <time>2018-10-12T13:36:23.000Z</time>
      </trkpt>
      <trkpt lat="31.0886650085449219" lon="-6.9703330993652344">
        <ele>1274.0</ele>
        <time>2018-10-12T13:36:24.000Z</time>
      </trkpt>
      <trkpt lat="31.0887012481689453" lon="-6.9703421592712402">
        <ele>1274.0</ele>
        <time>2018-10-12T13:36:25.000Z</time>
      </trkpt>
      <trkpt lat="31.0887393951416016" lon="-6.9703521728515625">
        <ele>1274.0</ele>
        <time>2018-10-12T13:36:26.000Z</time>
      </trkpt>
      <trkpt lat="31.0887756347656250" lon="-6.9703621864318848">
        <ele>1274.0</ele>
        <time>2018-10-12T13:36:27.000Z</time>
      </trkpt>
      <trkpt lat="31.0888137817382812" lon="-6.9703707695007324">
        <ele>1274.0</ele>
        <time>2018-10-12T13:36:28.000Z</time>
      </trkpt>
      <trkpt lat="31.0888519287109375" lon="-6.9703798294067383">
        <ele>1274.0</ele>
        <time>2018-10-12T13:36:29.000Z</time>
      </trkpt>
      <trkpt lat="31.0888919830322266" lon="-6.9703888893127441">
        <ele>1274.0</ele>
        <time>2018-10-12T13:36:30.000Z</time>
      </trkpt>
      <trkpt lat="31.0889301300048828" lon="-6.9703960418701172">
        <ele>1274.0</ele>
        <time>2018-10-12T13:36:31.000Z</time>
      </trkpt>
      <trkpt lat="31.0889701843261719" lon="-6.9704031944274902">
        <ele>1274.0</ele>
        <time>2018-10-12T13:36:32.000Z</time>
      </trkpt>
      <trkpt lat="31.0890102386474609" lon="-6.9704089164733887">
        <ele>1274.0</ele>
        <time>2018-10-12T13:36:33.000Z</time>
      </trkpt>
      <trkpt lat="31.0890483856201172" lon="-6.9704151153564453">
        <ele>1274.0</ele>
        <time>2018-10-12T13:36:34.000Z</time>
      </trkpt>
      <trkpt lat="31.0890884399414062" lon="-6.9704198837280273">
        <ele>1274.0</ele>
        <time>2018-10-12T13:36:35.000Z</time>
      </trkpt>
      <trkpt lat="31.0891265869140625" lon="-6.9704241752624512">
        <ele>1274.0</ele>
        <time>2018-10-12T13:36:36.000Z</time>
      </trkpt>
      <trkpt lat="31.0891628265380859" lon="-6.9704260826110840">
        <ele>1274.0</ele>
        <time>2018-10-12T13:36:37.000Z</time>
      </trkpt>
      <trkpt lat="31.0891990661621094" lon="-6.9704279899597168">
        <ele>1274.0</ele>
        <time>2018-10-12T13:36:38.000Z</time>
      </trkpt>
      <trkpt lat="31.0892353057861328" lon="-6.9704308509826660">
        <ele>1274.821044921875</ele>
        <time>2018-10-12T13:36:39.000Z</time>
      </trkpt>
      <trkpt lat="31.0892715454101562" lon="-6.9704332351684570">
        <ele>1275.0</ele>
        <time>2018-10-12T13:36:40.000Z</time>
      </trkpt>
      <trkpt lat="31.0893058776855469" lon="-6.9704351425170898">
        <ele>1275.0</ele>
        <time>2018-10-12T13:36:41.000Z</time>
      </trkpt>
      <trkpt lat="31.0893402099609375" lon="-6.9704370498657227">
        <ele>1275.0</ele>
        <time>2018-10-12T13:36:42.000Z</time>
      </trkpt>
      <trkpt lat="31.0893745422363281" lon="-6.9704370498657227">
        <ele>1275.636474609375</ele>
        <time>2018-10-12T13:36:43.000Z</time>
      </trkpt>
      <trkpt lat="31.0894107818603516" lon="-6.9704380035400391">
        <ele>1276.0</ele>
        <time>2018-10-12T13:36:44.000Z</time>
      </trkpt>
      <trkpt lat="31.0894451141357422" lon="-6.9704389572143555">
        <ele>1276.0</ele>
        <time>2018-10-12T13:36:45.000Z</time>
      </trkpt>
      <trkpt lat="31.0894832611083984" lon="-6.9704399108886719">
        <ele>1276.0</ele>
        <time>2018-10-12T13:36:46.000Z</time>
      </trkpt>
      <trkpt lat="31.0895214080810547" lon="-6.9704408645629883">
        <ele>1276.0</ele>
        <time>2018-10-12T13:36:47.000Z</time>
      </trkpt>
      <trkpt lat="31.0895576477050781" lon="-6.9704408645629883">
        <ele>1276.0</ele>
        <time>2018-10-12T13:36:48.000Z</time>
      </trkpt>
      <trkpt lat="31.0895938873291016" lon="-6.9704408645629883">
        <ele>1276.0</ele>
        <time>2018-10-12T13:36:49.000Z</time>
      </trkpt>
      <trkpt lat="31.0896282196044922" lon="-6.9704408645629883">
        <ele>1276.0</ele>
        <time>2018-10-12T13:36:50.000Z</time>
      </trkpt>
      <trkpt lat="31.0896606445312500" lon="-6.9704442024230957">
        <ele>1276.0</ele>
        <time>2018-10-12T13:36:51.000Z</time>
      </trkpt>
      <trkpt lat="31.0896892547607422" lon="-6.9704470634460449">
        <ele>1276.0</ele>
        <time>2018-10-12T13:36:52.000Z</time>
      </trkpt>
      <trkpt lat="31.0897178649902344" lon="-6.9704499244689941">
        <ele>1276.0</ele>
        <time>2018-10-12T13:36:53.000Z</time>
      </trkpt>
      <trkpt lat="31.0897464752197266" lon="-6.9704551696777344">
        <ele>1276.0</ele>
        <time>2018-10-12T13:36:54.000Z</time>
      </trkpt>
      <trkpt lat="31.0897750854492188" lon="-6.9704589843750000">
        <ele>1276.0</ele>
        <time>2018-10-12T13:36:55.000Z</time>
      </trkpt>
      <trkpt lat="31.0898056030273438" lon="-6.9704627990722656">
        <ele>1276.0</ele>
        <time>2018-10-12T13:36:56.000Z</time>
      </trkpt>
      <trkpt lat="31.0898361206054688" lon="-6.9704680442810059">
        <ele>1276.0</ele>
        <time>2018-10-12T13:36:57.000Z</time>
      </trkpt>
      <trkpt lat="31.0898685455322266" lon="-6.9704737663269043">
        <ele>1276.0</ele>
        <time>2018-10-12T13:36:58.000Z</time>
      </trkpt>
      <trkpt lat="31.0899009704589844" lon="-6.9704799652099609">
        <ele>1276.0</ele>
        <time>2018-10-12T13:36:59.000Z</time>
      </trkpt>
      <trkpt lat="31.0899333953857422" lon="-6.9704880714416504">
        <ele>1276.0</ele>
        <time>2018-10-12T13:37:00.000Z</time>
      </trkpt>
      <trkpt lat="31.0899677276611328" lon="-6.9704980850219727">
        <ele>1276.0</ele>
        <time>2018-10-12T13:37:01.000Z</time>
      </trkpt>
      <trkpt lat="31.0900020599365234" lon="-6.9705071449279785">
        <ele>1276.0</ele>
        <time>2018-10-12T13:37:02.000Z</time>
      </trkpt>
      <trkpt lat="31.0900363922119141" lon="-6.9705162048339844">
        <ele>1276.0</ele>
        <time>2018-10-12T13:37:03.000Z</time>
      </trkpt>
      <trkpt lat="31.0900707244873047" lon="-6.9705238342285156">
        <ele>1276.0</ele>
        <time>2018-10-12T13:37:04.000Z</time>
      </trkpt>
      <trkpt lat="31.0901031494140625" lon="-6.9705319404602051">
        <ele>1276.0</ele>
        <time>2018-10-12T13:37:05.000Z</time>
      </trkpt>
      <trkpt lat="31.0901374816894531" lon="-6.9705390930175781">
        <ele>1276.0</ele>
        <time>2018-10-12T13:37:06.000Z</time>
      </trkpt>
      <trkpt lat="31.0901699066162109" lon="-6.9705438613891602">
        <ele>1276.0</ele>
        <time>2018-10-12T13:37:07.000Z</time>
      </trkpt>
      <trkpt lat="31.0902023315429688" lon="-6.9705500602722168">
        <ele>1276.0</ele>
        <time>2018-10-12T13:37:08.000Z</time>
      </trkpt>
      <trkpt lat="31.0902347564697266" lon="-6.9705572128295898">
        <ele>1276.0</ele>
        <time>2018-10-12T13:37:09.000Z</time>
      </trkpt>
      <trkpt lat="31.0902652740478516" lon="-6.9705629348754883">
        <ele>1276.0</ele>
        <time>2018-10-12T13:37:10.000Z</time>
      </trkpt>
      <trkpt lat="31.0902976989746094" lon="-6.9705681800842285">
        <ele>1276.0</ele>
        <time>2018-10-12T13:37:11.000Z</time>
      </trkpt>
      <trkpt lat="31.0903263092041016" lon="-6.9705729484558105">
        <ele>1276.0</ele>
        <time>2018-10-12T13:37:12.000Z</time>
      </trkpt>
      <trkpt lat="31.0903568267822266" lon="-6.9705781936645508">
        <ele>1276.821044921875</ele>
        <time>2018-10-12T13:37:13.000Z</time>
      </trkpt>
      <trkpt lat="31.0903835296630859" lon="-6.9705820083618164">
        <ele>1277.0</ele>
        <time>2018-10-12T13:37:14.000Z</time>
      </trkpt>
      <trkpt lat="31.0904121398925781" lon="-6.9705858230590820">
        <ele>1277.0</ele>
        <time>2018-10-12T13:37:15.000Z</time>
      </trkpt>
      <trkpt lat="31.0904426574707031" lon="-6.9705891609191895">
        <ele>1277.0</ele>
        <time>2018-10-12T13:37:16.000Z</time>
      </trkpt>
      <trkpt lat="31.0904712677001953" lon="-6.9705929756164551">
        <ele>1277.0</ele>
        <time>2018-10-12T13:37:17.000Z</time>
      </trkpt>
      <trkpt lat="31.0905017852783203" lon="-6.9705982208251953">
        <ele>1277.0</ele>
        <time>2018-10-12T13:37:18.000Z</time>
      </trkpt>
      <trkpt lat="31.0905323028564453" lon="-6.9706010818481445">
        <ele>1277.0</ele>
        <time>2018-10-12T13:37:19.000Z</time>
      </trkpt>
      <trkpt lat="31.0905666351318359" lon="-6.9706020355224609">
        <ele>1277.0</ele>
        <time>2018-10-12T13:37:20.000Z</time>
      </trkpt>
      <trkpt lat="31.0905990600585938" lon="-6.9706029891967773">
        <ele>1277.0</ele>
        <time>2018-10-12T13:37:21.000Z</time>
      </trkpt>
      <trkpt lat="31.0906333923339844" lon="-6.9706029891967773">
        <ele>1277.0</ele>
        <time>2018-10-12T13:37:22.000Z</time>
      </trkpt>
      <trkpt lat="31.0906677246093750" lon="-6.9706039428710938">
        <ele>1277.0</ele>
        <time>2018-10-12T13:37:23.000Z</time>
      </trkpt>
      <trkpt lat="31.0907020568847656" lon="-6.9706048965454102">
        <ele>1277.7479248046875</ele>
        <time>2018-10-12T13:37:24.000Z</time>
      </trkpt>
      <trkpt lat="31.0907363891601562" lon="-6.9706068038940430">
        <ele>1278.0</ele>
        <time>2018-10-12T13:37:25.000Z</time>
      </trkpt>
      <trkpt lat="31.0907688140869141" lon="-6.9706082344055176">
        <ele>1278.0</ele>
        <time>2018-10-12T13:37:26.000Z</time>
      </trkpt>
      <trkpt lat="31.0908012390136719" lon="-6.9706101417541504">
        <ele>1278.0</ele>
        <time>2018-10-12T13:37:27.000Z</time>
      </trkpt>
      <trkpt lat="31.0908317565917969" lon="-6.9706130027770996">
        <ele>1278.0</ele>
        <time>2018-10-12T13:37:28.000Z</time>
      </trkpt>
      <trkpt lat="31.0908622741699219" lon="-6.9706158638000488">
        <ele>1278.821044921875</ele>
        <time>2018-10-12T13:37:29.000Z</time>
      </trkpt>
      <trkpt lat="31.0908927917480469" lon="-6.9706192016601562">
        <ele>1279.0</ele>
        <time>2018-10-12T13:37:30.000Z</time>
      </trkpt>
      <trkpt lat="31.0909233093261719" lon="-6.9706220626831055">
        <ele>1279.0</ele>
        <time>2018-10-12T13:37:31.000Z</time>
      </trkpt>
      <trkpt lat="31.0909557342529297" lon="-6.9706239700317383">
        <ele>1279.0</ele>
        <time>2018-10-12T13:37:32.000Z</time>
      </trkpt>
      <trkpt lat="31.0909862518310547" lon="-6.9706268310546875">
        <ele>1279.0</ele>
        <time>2018-10-12T13:37:33.000Z</time>
      </trkpt>
      <trkpt lat="31.0910205841064453" lon="-6.9706311225891113">
        <ele>1279.0</ele>
        <time>2018-10-12T13:37:34.000Z</time>
      </trkpt>
      <trkpt lat="31.0910549163818359" lon="-6.9706339836120605">
        <ele>1279.0</ele>
        <time>2018-10-12T13:37:35.000Z</time>
      </trkpt>
      <trkpt lat="31.0910892486572266" lon="-6.9706368446350098">
        <ele>1279.0</ele>
        <time>2018-10-12T13:37:36.000Z</time>
      </trkpt>
      <trkpt lat="31.0911235809326172" lon="-6.9706401824951172">
        <ele>1279.0</ele>
        <time>2018-10-12T13:37:37.000Z</time>
      </trkpt>
      <trkpt lat="31.0911598205566406" lon="-6.9706430435180664">
        <ele>1279.0</ele>
        <time>2018-10-12T13:37:38.000Z</time>
      </trkpt>
      <trkpt lat="31.0911960601806641" lon="-6.9706468582153320">
        <ele>1279.0</ele>
        <time>2018-10-12T13:37:39.000Z</time>
      </trkpt>
      <trkpt lat="31.0912322998046875" lon="-6.9706511497497559">
        <ele>1279.0</ele>
        <time>2018-10-12T13:37:40.000Z</time>
      </trkpt>
      <trkpt lat="31.0912704467773438" lon="-6.9706549644470215">
        <ele>1279.0</ele>
        <time>2018-10-12T13:37:41.000Z</time>
      </trkpt>
      <trkpt lat="31.0913085937500000" lon="-6.9706578254699707">
        <ele>1279.0</ele>
        <time>2018-10-12T13:37:42.000Z</time>
      </trkpt>
      <trkpt lat="31.0913467407226562" lon="-6.9706621170043945">
        <ele>1279.0</ele>
        <time>2018-10-12T13:37:43.000Z</time>
      </trkpt>
      <trkpt lat="31.0913867950439453" lon="-6.9706659317016602">
        <ele>1279.0</ele>
        <time>2018-10-12T13:37:44.000Z</time>
      </trkpt>
      <trkpt lat="31.0914268493652344" lon="-6.9706687927246094">
        <ele>1279.0</ele>
        <time>2018-10-12T13:37:45.000Z</time>
      </trkpt>
      <trkpt lat="31.0914669036865234" lon="-6.9706711769104004">
        <ele>1279.0</ele>
        <time>2018-10-12T13:37:46.000Z</time>
      </trkpt>
      <trkpt lat="31.0915088653564453" lon="-6.9706730842590332">
        <ele>1279.0</ele>
        <time>2018-10-12T13:37:47.000Z</time>
      </trkpt>
      <trkpt lat="31.0915508270263672" lon="-6.9706740379333496">
        <ele>1279.0</ele>
        <time>2018-10-12T13:37:48.000Z</time>
      </trkpt>
      <trkpt lat="31.0915927886962891" lon="-6.9706749916076660">
        <ele>1279.0</ele>
        <time>2018-10-12T13:37:49.000Z</time>
      </trkpt>
      <trkpt lat="31.0916347503662109" lon="-6.9706749916076660">
        <ele>1279.0</ele>
        <time>2018-10-12T13:37:50.000Z</time>
      </trkpt>
      <trkpt lat="31.0916767120361328" lon="-6.9706749916076660">
        <ele>1279.0</ele>
        <time>2018-10-12T13:37:51.000Z</time>
      </trkpt>
      <trkpt lat="31.0917205810546875" lon="-6.9706740379333496">
        <ele>1279.0</ele>
        <time>2018-10-12T13:37:52.000Z</time>
      </trkpt>
      <trkpt lat="31.0917663574218750" lon="-6.9706721305847168">
        <ele>1279.821044921875</ele>
        <time>2018-10-12T13:37:53.000Z</time>
      </trkpt>
      <trkpt lat="31.0918102264404297" lon="-6.9706687927246094">
        <ele>1280.0</ele>
        <time>2018-10-12T13:37:54.000Z</time>
      </trkpt>
      <trkpt lat="31.0918521881103516" lon="-6.9706649780273438">
        <ele>1280.0</ele>
        <time>2018-10-12T13:37:55.000Z</time>
      </trkpt>
      <trkpt lat="31.0918960571289062" lon="-6.9706611633300781">
        <ele>1280.0</ele>
        <time>2018-10-12T13:37:56.000Z</time>
      </trkpt>
      <trkpt lat="31.0919399261474609" lon="-6.9706559181213379">
        <ele>1280.0</ele>
        <time>2018-10-12T13:37:57.000Z</time>
      </trkpt>
      <trkpt lat="31.0919837951660156" lon="-6.9706501960754395">
        <ele>1280.0</ele>
        <time>2018-10-12T13:37:58.000Z</time>
      </trkpt>
      <trkpt lat="31.0920257568359375" lon="-6.9706420898437500">
        <ele>1280.0</ele>
        <time>2018-10-12T13:37:59.000Z</time>
      </trkpt>
      <trkpt lat="31.0920696258544922" lon="-6.9706339836120605">
        <ele>1280.0</ele>
        <time>2018-10-12T13:38:00.000Z</time>
      </trkpt>
      <trkpt lat="31.0921115875244141" lon="-6.9706239700317383">
        <ele>1280.0</ele>
        <time>2018-10-12T13:38:01.000Z</time>
      </trkpt>
      <trkpt lat="31.0921535491943359" lon="-6.9706139564514160">
        <ele>1280.0</ele>
        <time>2018-10-12T13:38:02.000Z</time>
      </trkpt>
      <trkpt lat="31.0921955108642578" lon="-6.9706039428710938">
        <ele>1280.0</ele>
        <time>2018-10-12T13:38:03.000Z</time>
      </trkpt>
      <trkpt lat="31.0922374725341797" lon="-6.9705948829650879">
        <ele>1280.0</ele>
        <time>2018-10-12T13:38:04.000Z</time>
      </trkpt>
      <trkpt lat="31.0922775268554688" lon="-6.9705839157104492">
        <ele>1280.0</ele>
        <time>2018-10-12T13:38:05.000Z</time>
      </trkpt>
      <trkpt lat="31.0923175811767578" lon="-6.9705700874328613">
        <ele>1280.0</ele>
        <time>2018-10-12T13:38:06.000Z</time>
      </trkpt>
      <trkpt lat="31.0923576354980469" lon="-6.9705572128295898">
        <ele>1280.0</ele>
        <time>2018-10-12T13:38:07.000Z</time>
      </trkpt>
      <trkpt lat="31.0923976898193359" lon="-6.9705438613891602">
        <ele>1280.0</ele>
        <time>2018-10-12T13:38:08.000Z</time>
      </trkpt>
      <trkpt lat="31.0924377441406250" lon="-6.9705319404602051">
        <ele>1280.0</ele>
        <time>2018-10-12T13:38:09.000Z</time>
      </trkpt>
      <trkpt lat="31.0924777984619141" lon="-6.9705200195312500">
        <ele>1280.0</ele>
        <time>2018-10-12T13:38:10.000Z</time>
      </trkpt>
      <trkpt lat="31.0925178527832031" lon="-6.9705090522766113">
        <ele>1280.821044921875</ele>
        <time>2018-10-12T13:38:11.000Z</time>
      </trkpt>
      <trkpt lat="31.0925559997558594" lon="-6.9705009460449219">
        <ele>1281.0</ele>
        <time>2018-10-12T13:38:12.000Z</time>
      </trkpt>
      <trkpt lat="31.0925941467285156" lon="-6.9704928398132324">
        <ele>1281.0</ele>
        <time>2018-10-12T13:38:13.000Z</time>
      </trkpt>
      <trkpt lat="31.0926322937011719" lon="-6.9704852104187012">
        <ele>1281.0</ele>
        <time>2018-10-12T13:38:14.000Z</time>
      </trkpt>
      <trkpt lat="31.0926704406738281" lon="-6.9704780578613281">
        <ele>1281.0</ele>
        <time>2018-10-12T13:38:15.000Z</time>
      </trkpt>
      <trkpt lat="31.0927085876464844" lon="-6.9704709053039551">
        <ele>1281.0</ele>
        <time>2018-10-12T13:38:16.000Z</time>
      </trkpt>
      <trkpt lat="31.0927467346191406" lon="-6.9704642295837402">
        <ele>1281.0</ele>
        <time>2018-10-12T13:38:17.000Z</time>
      </trkpt>
      <trkpt lat="31.0927867889404297" lon="-6.9704580307006836">
        <ele>1281.0</ele>
        <time>2018-10-12T13:38:18.000Z</time>
      </trkpt>
      <trkpt lat="31.0928268432617188" lon="-6.9704508781433105">
        <ele>1281.0</ele>
        <time>2018-10-12T13:38:19.000Z</time>
      </trkpt>
      <trkpt lat="31.0928668975830078" lon="-6.9704442024230957">
        <ele>1281.0</ele>
        <time>2018-10-12T13:38:20.000Z</time>
      </trkpt>
      <trkpt lat="31.0929088592529297" lon="-6.9704351425170898">
        <ele>1281.0</ele>
        <time>2018-10-12T13:38:21.000Z</time>
      </trkpt>
      <trkpt lat="31.0929489135742188" lon="-6.9704260826110840">
        <ele>1281.0</ele>
        <time>2018-10-12T13:38:22.000Z</time>
      </trkpt>
      <trkpt lat="31.0929908752441406" lon="-6.9704160690307617">
        <ele>1281.0</ele>
        <time>2018-10-12T13:38:23.000Z</time>
      </trkpt>
      <trkpt lat="31.0930309295654297" lon="-6.9704060554504395">
        <ele>1281.0</ele>
        <time>2018-10-12T13:38:24.000Z</time>
      </trkpt>
      <trkpt lat="31.0930690765380859" lon="-6.9703969955444336">
        <ele>1281.0</ele>
        <time>2018-10-12T13:38:25.000Z</time>
      </trkpt>
      <trkpt lat="31.0931072235107422" lon="-6.9703860282897949">
        <ele>1281.804931640625</ele>
        <time>2018-10-12T13:38:26.000Z</time>
      </trkpt>
      <trkpt lat="31.0931453704833984" lon="-6.9703750610351562">
        <ele>1282.0</ele>
        <time>2018-10-12T13:38:27.000Z</time>
      </trkpt>
      <trkpt lat="31.0931835174560547" lon="-6.9703640937805176">
        <ele>1282.0</ele>
        <time>2018-10-12T13:38:28.000Z</time>
      </trkpt>
      <trkpt lat="31.0932197570800781" lon="-6.9703521728515625">
        <ele>1282.0</ele>
        <time>2018-10-12T13:38:29.000Z</time>
      </trkpt>
      <trkpt lat="31.0932579040527344" lon="-6.9703397750854492">
        <ele>1282.0</ele>
        <time>2018-10-12T13:38:30.000Z</time>
      </trkpt>
      <trkpt lat="31.0932960510253906" lon="-6.9703269004821777">
        <ele>1282.821044921875</ele>
        <time>2018-10-12T13:38:31.000Z</time>
      </trkpt>
      <trkpt lat="31.0933341979980469" lon="-6.9703140258789062">
        <ele>1283.0</ele>
        <time>2018-10-12T13:38:32.000Z</time>
      </trkpt>
      <trkpt lat="31.0933704376220703" lon="-6.9703011512756348">
        <ele>1283.0</ele>
        <time>2018-10-12T13:38:33.000Z</time>
      </trkpt>
      <trkpt lat="31.0934085845947266" lon="-6.9702892303466797">
        <ele>1283.0</ele>
        <time>2018-10-12T13:38:34.000Z</time>
      </trkpt>
      <trkpt lat="31.0934448242187500" lon="-6.9702768325805664">
        <ele>1283.0</ele>
        <time>2018-10-12T13:38:35.000Z</time>
      </trkpt>
      <trkpt lat="31.0934810638427734" lon="-6.9702649116516113">
        <ele>1283.0</ele>
        <time>2018-10-12T13:38:36.000Z</time>
      </trkpt>
      <trkpt lat="31.0935192108154297" lon="-6.9702510833740234">
        <ele>1283.0</ele>
        <time>2018-10-12T13:38:37.000Z</time>
      </trkpt>
      <trkpt lat="31.0935592651367188" lon="-6.9702358245849609">
        <ele>1283.0</ele>
        <time>2018-10-12T13:38:38.000Z</time>
      </trkpt>
      <trkpt lat="31.0936012268066406" lon="-6.9702181816101074">
        <ele>1283.0</ele>
        <time>2018-10-12T13:38:39.000Z</time>
      </trkpt>
      <trkpt lat="31.0936412811279297" lon="-6.9701981544494629">
        <ele>1283.0</ele>
        <time>2018-10-12T13:38:40.000Z</time>
      </trkpt>
      <trkpt lat="31.0936794281005859" lon="-6.9701762199401855">
        <ele>1283.0</ele>
        <time>2018-10-12T13:38:41.000Z</time>
      </trkpt>
      <trkpt lat="31.0937137603759766" lon="-6.9701547622680664">
        <ele>1283.0</ele>
        <time>2018-10-12T13:38:42.000Z</time>
      </trkpt>
      <trkpt lat="31.0937442779541016" lon="-6.9701352119445801">
        <ele>1283.0</ele>
        <time>2018-10-12T13:38:43.000Z</time>
      </trkpt>
      <trkpt lat="31.0937728881835938" lon="-6.9701161384582520">
        <ele>1283.0</ele>
        <time>2018-10-12T13:38:44.000Z</time>
      </trkpt>
      <trkpt lat="31.0938014984130859" lon="-6.9700951576232910">
        <ele>1283.0</ele>
        <time>2018-10-12T13:38:45.000Z</time>
      </trkpt>
      <trkpt lat="31.0938320159912109" lon="-6.9700732231140137">
        <ele>1283.0</ele>
        <time>2018-10-12T13:38:46.000Z</time>
      </trkpt>
      <trkpt lat="31.0938625335693359" lon="-6.9700489044189453">
        <ele>1283.821044921875</ele>
        <time>2018-10-12T13:38:47.000Z</time>
      </trkpt>
      <trkpt lat="31.0938930511474609" lon="-6.9700241088867188">
        <ele>1284.0</ele>
        <time>2018-10-12T13:38:48.000Z</time>
      </trkpt>
      <trkpt lat="31.0939235687255859" lon="-6.9699959754943848">
        <ele>1284.0</ele>
        <time>2018-10-12T13:38:49.000Z</time>
      </trkpt>
      <trkpt lat="31.0939540863037109" lon="-6.9699678421020508">
        <ele>1284.0</ele>
        <time>2018-10-12T13:38:50.000Z</time>
      </trkpt>
      <trkpt lat="31.0939865112304688" lon="-6.9699411392211914">
        <ele>1284.0</ele>
        <time>2018-10-12T13:38:51.000Z</time>
      </trkpt>
      <trkpt lat="31.0940170288085938" lon="-6.9699120521545410">
        <ele>1284.0</ele>
        <time>2018-10-12T13:38:52.000Z</time>
      </trkpt>
      <trkpt lat="31.0940475463867188" lon="-6.9698820114135742">
        <ele>1284.0</ele>
        <time>2018-10-12T13:38:53.000Z</time>
      </trkpt>
      <trkpt lat="31.0940780639648438" lon="-6.9698529243469238">
        <ele>1284.0</ele>
        <time>2018-10-12T13:38:54.000Z</time>
      </trkpt>
      <trkpt lat="31.0941085815429688" lon="-6.9698262214660645">
        <ele>1284.0</ele>
        <time>2018-10-12T13:38:55.000Z</time>
      </trkpt>
      <trkpt lat="31.0941371917724609" lon="-6.9698019027709961">
        <ele>1284.0</ele>
        <time>2018-10-12T13:38:56.000Z</time>
      </trkpt>
      <trkpt lat="31.0941677093505859" lon="-6.9697790145874023">
        <ele>1284.0</ele>
        <time>2018-10-12T13:38:57.000Z</time>
      </trkpt>
      <trkpt lat="31.0941982269287109" lon="-6.9697570800781250">
        <ele>1284.0</ele>
        <time>2018-10-12T13:38:58.000Z</time>
      </trkpt>
      <trkpt lat="31.0942325592041016" lon="-6.9697360992431641">
        <ele>1284.0</ele>
        <time>2018-10-12T13:38:59.000Z</time>
      </trkpt>
      <trkpt lat="31.0942668914794922" lon="-6.9697170257568359">
        <ele>1284.0</ele>
        <time>2018-10-12T13:39:00.000Z</time>
      </trkpt>
      <trkpt lat="31.0943031311035156" lon="-6.9696989059448242">
        <ele>1284.0</ele>
        <time>2018-10-12T13:39:01.000Z</time>
      </trkpt>
      <trkpt lat="31.0943393707275391" lon="-6.9696822166442871">
        <ele>1284.0</ele>
        <time>2018-10-12T13:39:02.000Z</time>
      </trkpt>
      <trkpt lat="31.0943756103515625" lon="-6.9696650505065918">
        <ele>1284.0</ele>
        <time>2018-10-12T13:39:03.000Z</time>
      </trkpt>
      <trkpt lat="31.0944156646728516" lon="-6.9696478843688965">
        <ele>1284.0</ele>
        <time>2018-10-12T13:39:04.000Z</time>
      </trkpt>
      <trkpt lat="31.0944538116455078" lon="-6.9696311950683594">
        <ele>1284.0</ele>
        <time>2018-10-12T13:39:05.000Z</time>
      </trkpt>
      <trkpt lat="31.0944900512695312" lon="-6.9696140289306641">
        <ele>1284.0</ele>
        <time>2018-10-12T13:39:06.000Z</time>
      </trkpt>
      <trkpt lat="31.0945262908935547" lon="-6.9695968627929688">
        <ele>1284.0</ele>
        <time>2018-10-12T13:39:07.000Z</time>
      </trkpt>
      <trkpt lat="31.0945625305175781" lon="-6.9695811271667480">
        <ele>1284.0</ele>
        <time>2018-10-12T13:39:08.000Z</time>
      </trkpt>
      <trkpt lat="31.0945968627929688" lon="-6.9695639610290527">
        <ele>1284.0</ele>
        <time>2018-10-12T13:39:09.000Z</time>
      </trkpt>
      <trkpt lat="31.0946311950683594" lon="-6.9695448875427246">
        <ele>1284.0</ele>
        <time>2018-10-12T13:39:10.000Z</time>
      </trkpt>
      <trkpt lat="31.0946655273437500" lon="-6.9695258140563965">
        <ele>1284.636474609375</ele>
        <time>2018-10-12T13:39:11.000Z</time>
      </trkpt>
      <trkpt lat="31.0946998596191406" lon="-6.9695072174072266">
        <ele>1285.0</ele>
        <time>2018-10-12T13:39:12.000Z</time>
      </trkpt>
      <trkpt lat="31.0947322845458984" lon="-6.9694862365722656">
        <ele>1285.0</ele>
        <time>2018-10-12T13:39:13.000Z</time>
      </trkpt>
      <trkpt lat="31.0947685241699219" lon="-6.9694662094116211">
        <ele>1285.0</ele>
        <time>2018-10-12T13:39:14.000Z</time>
      </trkpt>
      <trkpt lat="31.0948047637939453" lon="-6.9694480895996094">
        <ele>1285.0</ele>
        <time>2018-10-12T13:39:15.000Z</time>
      </trkpt>
      <trkpt lat="31.0948429107666016" lon="-6.9694337844848633">
        <ele>1285.0</ele>
        <time>2018-10-12T13:39:16.000Z</time>
      </trkpt>
      <trkpt lat="31.0948810577392578" lon="-6.9694218635559082">
        <ele>1285.0</ele>
        <time>2018-10-12T13:39:17.000Z</time>
      </trkpt>
      <trkpt lat="31.0949172973632812" lon="-6.9694142341613770">
        <ele>1285.7406005859375</ele>
        <time>2018-10-12T13:39:18.000Z</time>
      </trkpt>
      <trkpt lat="31.0949535369873047" lon="-6.9694089889526367">
        <ele>1286.0</ele>
        <time>2018-10-12T13:39:19.000Z</time>
      </trkpt>
      <trkpt lat="31.0949859619140625" lon="-6.9694080352783203">
        <ele>1286.0</ele>
        <time>2018-10-12T13:39:20.000Z</time>
      </trkpt>
      <trkpt lat="31.0950183868408203" lon="-6.9694089889526367">
        <ele>1286.0</ele>
        <time>2018-10-12T13:39:21.000Z</time>
      </trkpt>
      <trkpt lat="31.0950508117675781" lon="-6.9694108963012695">
        <ele>1286.0</ele>
        <time>2018-10-12T13:39:22.000Z</time>
      </trkpt>
      <trkpt lat="31.0950832366943359" lon="-6.9694161415100098">
        <ele>1286.0</ele>
        <time>2018-10-12T13:39:23.000Z</time>
      </trkpt>
      <trkpt lat="31.0951156616210938" lon="-6.9694218635559082">
        <ele>1286.0</ele>
        <time>2018-10-12T13:39:24.000Z</time>
      </trkpt>
      <trkpt lat="31.0951480865478516" lon="-6.9694299697875977">
        <ele>1286.0</ele>
        <time>2018-10-12T13:39:25.000Z</time>
      </trkpt>
      <trkpt lat="31.0951824188232422" lon="-6.9694399833679199">
        <ele>1286.0</ele>
        <time>2018-10-12T13:39:26.000Z</time>
      </trkpt>
      <trkpt lat="31.0952167510986328" lon="-6.9694561958312988">
        <ele>1286.0</ele>
        <time>2018-10-12T13:39:27.000Z</time>
      </trkpt>
      <trkpt lat="31.0952510833740234" lon="-6.9694771766662598">
        <ele>1286.0</ele>
        <time>2018-10-12T13:39:28.000Z</time>
      </trkpt>
      <trkpt lat="31.0952835083007812" lon="-6.9695000648498535">
        <ele>1286.0</ele>
        <time>2018-10-12T13:39:29.000Z</time>
      </trkpt>
      <trkpt lat="31.0953121185302734" lon="-6.9695248603820801">
        <ele>1286.0</ele>
        <time>2018-10-12T13:39:30.000Z</time>
      </trkpt>
      <trkpt lat="31.0953369140625000" lon="-6.9695491790771484">
        <ele>1286.0</ele>
        <time>2018-10-12T13:39:31.000Z</time>
      </trkpt>
      <trkpt lat="31.0953598022460938" lon="-6.9695720672607422">
        <ele>1286.0</ele>
        <time>2018-10-12T13:39:32.000Z</time>
      </trkpt>
      <trkpt lat="31.0953826904296875" lon="-6.9695959091186523">
        <ele>1286.0</ele>
        <time>2018-10-12T13:39:33.000Z</time>
      </trkpt>
      <trkpt lat="31.0954074859619141" lon="-6.9696230888366699">
        <ele>1286.0</ele>
        <time>2018-10-12T13:39:34.000Z</time>
      </trkpt>
      <trkpt lat="31.0954322814941406" lon="-6.9696497917175293">
        <ele>1286.0</ele>
        <time>2018-10-12T13:39:35.000Z</time>
      </trkpt>
      <trkpt lat="31.0954608917236328" lon="-6.9696760177612305">
        <ele>1286.0</ele>
        <time>2018-10-12T13:39:36.000Z</time>
      </trkpt>
      <trkpt lat="31.0954895019531250" lon="-6.9697008132934570">
        <ele>1286.0</ele>
        <time>2018-10-12T13:39:37.000Z</time>
      </trkpt>
      <trkpt lat="31.0955162048339844" lon="-6.9697217941284180">
        <ele>1286.0</ele>
        <time>2018-10-12T13:39:38.000Z</time>
      </trkpt>
      <trkpt lat="31.0955429077148438" lon="-6.9697399139404297">
        <ele>1286.0</ele>
        <time>2018-10-12T13:39:39.000Z</time>
      </trkpt>
      <trkpt lat="31.0955677032470703" lon="-6.9697551727294922">
        <ele>1286.0</ele>
        <time>2018-10-12T13:39:40.000Z</time>
      </trkpt>
      <trkpt lat="31.0955924987792969" lon="-6.9697690010070801">
        <ele>1286.0</ele>
        <time>2018-10-12T13:39:41.000Z</time>
      </trkpt>
      <trkpt lat="31.0956211090087891" lon="-6.9697818756103516">
        <ele>1286.0</ele>
        <time>2018-10-12T13:39:42.000Z</time>
      </trkpt>
      <trkpt lat="31.0956554412841797" lon="-6.9697928428649902">
        <ele>1286.0</ele>
        <time>2018-10-12T13:39:43.000Z</time>
      </trkpt>
      <trkpt lat="31.0956916809082031" lon="-6.9698047637939453">
        <ele>1286.0</ele>
        <time>2018-10-12T13:39:44.000Z</time>
      </trkpt>
      <trkpt lat="31.0957298278808594" lon="-6.9698162078857422">
        <ele>1286.0</ele>
        <time>2018-10-12T13:39:45.000Z</time>
      </trkpt>
      <trkpt lat="31.0957698822021484" lon="-6.9698238372802734">
        <ele>1286.0</ele>
        <time>2018-10-12T13:39:46.000Z</time>
      </trkpt>
      <trkpt lat="31.0958118438720703" lon="-6.9698300361633301">
        <ele>1286.0</ele>
        <time>2018-10-12T13:39:47.000Z</time>
      </trkpt>
      <trkpt lat="31.0958538055419922" lon="-6.9698348045349121">
        <ele>1286.0</ele>
        <time>2018-10-12T13:39:48.000Z</time>
      </trkpt>
      <trkpt lat="31.0958957672119141" lon="-6.9698390960693359">
        <ele>1286.0</ele>
        <time>2018-10-12T13:39:49.000Z</time>
      </trkpt>
      <trkpt lat="31.0959396362304688" lon="-6.9698429107666016">
        <ele>1286.0</ele>
        <time>2018-10-12T13:39:50.000Z</time>
      </trkpt>
      <trkpt lat="31.0959835052490234" lon="-6.9698481559753418">
        <ele>1286.0</ele>
        <time>2018-10-12T13:39:51.000Z</time>
      </trkpt>
      <trkpt lat="31.0960254669189453" lon="-6.9698548316955566">
        <ele>1286.0</ele>
        <time>2018-10-12T13:39:52.000Z</time>
      </trkpt>
      <trkpt lat="31.0960655212402344" lon="-6.9698638916015625">
        <ele>1286.0</ele>
        <time>2018-10-12T13:39:53.000Z</time>
      </trkpt>
      <trkpt lat="31.0961074829101562" lon="-6.9698758125305176">
        <ele>1286.0</ele>
        <time>2018-10-12T13:39:54.000Z</time>
      </trkpt>
      <trkpt lat="31.0961475372314453" lon="-6.9698901176452637">
        <ele>1286.0</ele>
        <time>2018-10-12T13:39:55.000Z</time>
      </trkpt>
      <trkpt lat="31.0961856842041016" lon="-6.9699048995971680">
        <ele>1286.0</ele>
        <time>2018-10-12T13:39:56.000Z</time>
      </trkpt>
      <trkpt lat="31.0962238311767578" lon="-6.9699230194091797">
        <ele>1286.0</ele>
        <time>2018-10-12T13:39:57.000Z</time>
      </trkpt>
      <trkpt lat="31.0962581634521484" lon="-6.9699411392211914">
        <ele>1286.0</ele>
        <time>2018-10-12T13:39:58.000Z</time>
      </trkpt>
      <trkpt lat="31.0962944030761719" lon="-6.9699602127075195">
        <ele>1286.0</ele>
        <time>2018-10-12T13:39:59.000Z</time>
      </trkpt>
      <trkpt lat="31.0963287353515625" lon="-6.9699778556823730">
        <ele>1286.0</ele>
        <time>2018-10-12T13:40:00.000Z</time>
      </trkpt>
      <trkpt lat="31.0963630676269531" lon="-6.9699950218200684">
        <ele>1286.0</ele>
        <time>2018-10-12T13:40:01.000Z</time>
      </trkpt>
      <trkpt lat="31.0963993072509766" lon="-6.9700069427490234">
        <ele>1286.0</ele>
        <time>2018-10-12T13:40:02.000Z</time>
      </trkpt>
      <trkpt lat="31.0964355468750000" lon="-6.9700150489807129">
        <ele>1286.0</ele>
        <time>2018-10-12T13:40:03.000Z</time>
      </trkpt>
      <trkpt lat="31.0964717864990234" lon="-6.9700250625610352">
        <ele>1286.0</ele>
        <time>2018-10-12T13:40:04.000Z</time>
      </trkpt>
      <trkpt lat="31.0965080261230469" lon="-6.9700350761413574">
        <ele>1286.0</ele>
        <time>2018-10-12T13:40:05.000Z</time>
      </trkpt>
      <trkpt lat="31.0965442657470703" lon="-6.9700460433959961">
        <ele>1286.0</ele>
        <time>2018-10-12T13:40:06.000Z</time>
      </trkpt>
      <trkpt lat="31.0965805053710938" lon="-6.9700579643249512">
        <ele>1286.0</ele>
        <time>2018-10-12T13:40:07.000Z</time>
      </trkpt>
      <trkpt lat="31.0966186523437500" lon="-6.9700689315795898">
        <ele>1286.0</ele>
        <time>2018-10-12T13:40:08.000Z</time>
      </trkpt>
      <trkpt lat="31.0966548919677734" lon="-6.9700789451599121">
        <ele>1286.0</ele>
        <time>2018-10-12T13:40:09.000Z</time>
      </trkpt>
      <trkpt lat="31.0966930389404297" lon="-6.9700860977172852">
        <ele>1286.0</ele>
        <time>2018-10-12T13:40:10.000Z</time>
      </trkpt>
      <trkpt lat="31.0967292785644531" lon="-6.9700942039489746">
        <ele>1286.0</ele>
        <time>2018-10-12T13:40:11.000Z</time>
      </trkpt>
      <trkpt lat="31.0967693328857422" lon="-6.9701018333435059">
        <ele>1286.8173828125</ele>
        <time>2018-10-12T13:40:12.000Z</time>
      </trkpt>
      <trkpt lat="31.0968074798583984" lon="-6.9701099395751953">
        <ele>1287.0</ele>
        <time>2018-10-12T13:40:13.000Z</time>
      </trkpt>
      <trkpt lat="31.0968475341796875" lon="-6.9701170921325684">
        <ele>1287.0</ele>
        <time>2018-10-12T13:40:14.000Z</time>
      </trkpt>
      <trkpt lat="31.0968875885009766" lon="-6.9701209068298340">
        <ele>1287.0</ele>
        <time>2018-10-12T13:40:15.000Z</time>
      </trkpt>
      <trkpt lat="31.0969276428222656" lon="-6.9701251983642578">
        <ele>1287.0</ele>
        <time>2018-10-12T13:40:16.000Z</time>
      </trkpt>
      <trkpt lat="31.0969657897949219" lon="-6.9701280593872070">
        <ele>1287.0</ele>
        <time>2018-10-12T13:40:17.000Z</time>
      </trkpt>
      <trkpt lat="31.0970001220703125" lon="-6.9701290130615234">
        <ele>1287.0</ele>
        <time>2018-10-12T13:40:18.000Z</time>
      </trkpt>
      <trkpt lat="31.0970306396484375" lon="-6.9701309204101562">
        <ele>1287.0</ele>
        <time>2018-10-12T13:40:19.000Z</time>
      </trkpt>
      <trkpt lat="31.0970592498779297" lon="-6.9701337814331055">
        <ele>1287.0</ele>
        <time>2018-10-12T13:40:20.000Z</time>
      </trkpt>
      <trkpt lat="31.0970935821533203" lon="-6.9701361656188965">
        <ele>1287.0</ele>
        <time>2018-10-12T13:40:21.000Z</time>
      </trkpt>
      <trkpt lat="31.0971317291259766" lon="-6.9701361656188965">
        <ele>1287.0</ele>
        <time>2018-10-12T13:40:22.000Z</time>
      </trkpt>
      <trkpt lat="31.0971717834472656" lon="-6.9701352119445801">
        <ele>1286.178955078125</ele>
        <time>2018-10-12T13:40:23.000Z</time>
      </trkpt>
      <trkpt lat="31.0972118377685547" lon="-6.9701328277587891">
        <ele>1286.0</ele>
        <time>2018-10-12T13:40:24.000Z</time>
      </trkpt>
      <trkpt lat="31.0972537994384766" lon="-6.9701290130615234">
        <ele>1286.0</ele>
        <time>2018-10-12T13:40:25.000Z</time>
      </trkpt>
      <trkpt lat="31.0972957611083984" lon="-6.9701237678527832">
        <ele>1286.0</ele>
        <time>2018-10-12T13:40:26.000Z</time>
      </trkpt>
      <trkpt lat="31.0973377227783203" lon="-6.9701180458068848">
        <ele>1286.0</ele>
        <time>2018-10-12T13:40:27.000Z</time>
      </trkpt>
      <trkpt lat="31.0973796844482422" lon="-6.9701089859008789">
        <ele>1286.0</ele>
        <time>2018-10-12T13:40:28.000Z</time>
      </trkpt>
      <trkpt lat="31.0974235534667969" lon="-6.9700980186462402">
        <ele>1286.0</ele>
        <time>2018-10-12T13:40:29.000Z</time>
      </trkpt>
      <trkpt lat="31.0974674224853516" lon="-6.9700841903686523">
        <ele>1286.0</ele>
        <time>2018-10-12T13:40:30.000Z</time>
      </trkpt>
      <trkpt lat="31.0975112915039062" lon="-6.9700689315795898">
        <ele>1286.0</ele>
        <time>2018-10-12T13:40:31.000Z</time>
      </trkpt>
      <trkpt lat="31.0975532531738281" lon="-6.9700531959533691">
        <ele>1286.0</ele>
        <time>2018-10-12T13:40:32.000Z</time>
      </trkpt>
      <trkpt lat="31.0975952148437500" lon="-6.9700350761413574">
        <ele>1286.0</ele>
        <time>2018-10-12T13:40:33.000Z</time>
      </trkpt>
      <trkpt lat="31.0976352691650391" lon="-6.9700169563293457">
        <ele>1286.0</ele>
        <time>2018-10-12T13:40:34.000Z</time>
      </trkpt>
      <trkpt lat="31.0976734161376953" lon="-6.9699978828430176">
        <ele>1286.821044921875</ele>
        <time>2018-10-12T13:40:35.000Z</time>
      </trkpt>
      <trkpt lat="31.0977115631103516" lon="-6.9699811935424805">
        <ele>1287.0</ele>
        <time>2018-10-12T13:40:36.000Z</time>
      </trkpt>
      <trkpt lat="31.0977497100830078" lon="-6.9699649810791016">
        <ele>1287.0</ele>
        <time>2018-10-12T13:40:37.000Z</time>
      </trkpt>
      <trkpt lat="31.0977897644042969" lon="-6.9699478149414062">
        <ele>1287.0</ele>
        <time>2018-10-12T13:40:38.000Z</time>
      </trkpt>
      <trkpt lat="31.0978279113769531" lon="-6.9699277877807617">
        <ele>1287.0</ele>
        <time>2018-10-12T13:40:39.000Z</time>
      </trkpt>
      <trkpt lat="31.0978660583496094" lon="-6.9699068069458008">
        <ele>1287.0</ele>
        <time>2018-10-12T13:40:40.000Z</time>
      </trkpt>
      <trkpt lat="31.0979042053222656" lon="-6.9698858261108398">
        <ele>1287.0</ele>
        <time>2018-10-12T13:40:41.000Z</time>
      </trkpt>
      <trkpt lat="31.0979423522949219" lon="-6.9698657989501953">
        <ele>1287.0</ele>
        <time>2018-10-12T13:40:42.000Z</time>
      </trkpt>
      <trkpt lat="31.0979804992675781" lon="-6.9698472023010254">
        <ele>1287.0</ele>
        <time>2018-10-12T13:40:43.000Z</time>
      </trkpt>
      <trkpt lat="31.0980167388916016" lon="-6.9698290824890137">
        <ele>1287.0</ele>
        <time>2018-10-12T13:40:44.000Z</time>
      </trkpt>
      <trkpt lat="31.0980510711669922" lon="-6.9698119163513184">
        <ele>1287.0</ele>
        <time>2018-10-12T13:40:45.000Z</time>
      </trkpt>
      <trkpt lat="31.0980873107910156" lon="-6.9697937965393066">
        <ele>1287.0</ele>
        <time>2018-10-12T13:40:46.000Z</time>
      </trkpt>
      <trkpt lat="31.0981254577636719" lon="-6.9697751998901367">
        <ele>1287.0</ele>
        <time>2018-10-12T13:40:47.000Z</time>
      </trkpt>
      <trkpt lat="31.0981655120849609" lon="-6.9697570800781250">
        <ele>1287.0</ele>
        <time>2018-10-12T13:40:48.000Z</time>
      </trkpt>
      <trkpt lat="31.0982055664062500" lon="-6.9697389602661133">
        <ele>1287.0</ele>
        <time>2018-10-12T13:40:49.000Z</time>
      </trkpt>
      <trkpt lat="31.0982475280761719" lon="-6.9697217941284180">
        <ele>1287.0</ele>
        <time>2018-10-12T13:40:50.000Z</time>
      </trkpt>
      <trkpt lat="31.0982894897460938" lon="-6.9697060585021973">
        <ele>1287.0</ele>
        <time>2018-10-12T13:40:51.000Z</time>
      </trkpt>
      <trkpt lat="31.0983333587646484" lon="-6.9696931838989258">
        <ele>1287.0</ele>
        <time>2018-10-12T13:40:52.000Z</time>
      </trkpt>
      <trkpt lat="31.0983772277832031" lon="-6.9696841239929199">
        <ele>1287.0</ele>
        <time>2018-10-12T13:40:53.000Z</time>
      </trkpt>
      <trkpt lat="31.0984191894531250" lon="-6.9696779251098633">
        <ele>1287.0</ele>
        <time>2018-10-12T13:40:54.000Z</time>
      </trkpt>
      <trkpt lat="31.0984592437744141" lon="-6.9696750640869141">
        <ele>1287.0</ele>
        <time>2018-10-12T13:40:55.000Z</time>
      </trkpt>
      <trkpt lat="31.0984992980957031" lon="-6.9696741104125977">
        <ele>1287.0</ele>
        <time>2018-10-12T13:40:56.000Z</time>
      </trkpt>
      <trkpt lat="31.0985355377197266" lon="-6.9696750640869141">
        <ele>1287.0</ele>
        <time>2018-10-12T13:40:57.000Z</time>
      </trkpt>
      <trkpt lat="31.0985717773437500" lon="-6.9696779251098633">
        <ele>1287.0</ele>
        <time>2018-10-12T13:40:58.000Z</time>
      </trkpt>
      <trkpt lat="31.0986099243164062" lon="-6.9696822166442871">
        <ele>1287.0</ele>
        <time>2018-10-12T13:40:59.000Z</time>
      </trkpt>
      <trkpt lat="31.0986480712890625" lon="-6.9696907997131348">
        <ele>1287.0</ele>
        <time>2018-10-12T13:41:00.000Z</time>
      </trkpt>
      <trkpt lat="31.0986862182617188" lon="-6.9697008132934570">
        <ele>1287.0</ele>
        <time>2018-10-12T13:41:01.000Z</time>
      </trkpt>
      <trkpt lat="31.0987243652343750" lon="-6.9697132110595703">
        <ele>1287.0</ele>
        <time>2018-10-12T13:41:02.000Z</time>
      </trkpt>
      <trkpt lat="31.0987606048583984" lon="-6.9697251319885254">
        <ele>1287.0</ele>
        <time>2018-10-12T13:41:03.000Z</time>
      </trkpt>
      <trkpt lat="31.0987949371337891" lon="-6.9697370529174805">
        <ele>1287.821044921875</ele>
        <time>2018-10-12T13:41:04.000Z</time>
      </trkpt>
      <trkpt lat="31.0988273620605469" lon="-6.9697499275207520">
        <ele>1288.0</ele>
        <time>2018-10-12T13:41:05.000Z</time>
      </trkpt>
      <trkpt lat="31.0988616943359375" lon="-6.9697642326354980">
        <ele>1288.0</ele>
        <time>2018-10-12T13:41:06.000Z</time>
      </trkpt>
      <trkpt lat="31.0989036560058594" lon="-6.9697780609130859">
        <ele>1288.0</ele>
        <time>2018-10-12T13:41:07.000Z</time>
      </trkpt>
      <trkpt lat="31.0989494323730469" lon="-6.9697928428649902">
        <ele>1288.0</ele>
        <time>2018-10-12T13:41:08.000Z</time>
      </trkpt>
      <trkpt lat="31.0990009307861328" lon="-6.9698061943054199">
        <ele>1287.178955078125</ele>
        <time>2018-10-12T13:41:09.000Z</time>
      </trkpt>
      <trkpt lat="31.0990524291992188" lon="-6.9698181152343750">
        <ele>1287.0</ele>
        <time>2018-10-12T13:41:10.000Z</time>
      </trkpt>
      <trkpt lat="31.0991020202636719" lon="-6.9698290824890137">
        <ele>1287.0</ele>
        <time>2018-10-12T13:41:11.000Z</time>
      </trkpt>
      <trkpt lat="31.0991497039794922" lon="-6.9698381423950195">
        <ele>1287.0</ele>
        <time>2018-10-12T13:41:12.000Z</time>
      </trkpt>
      <trkpt lat="31.0991954803466797" lon="-6.9698448181152344">
        <ele>1287.0</ele>
        <time>2018-10-12T13:41:13.000Z</time>
      </trkpt>
      <trkpt lat="31.0992393493652344" lon="-6.9698491096496582">
        <ele>1287.0</ele>
        <time>2018-10-12T13:41:14.000Z</time>
      </trkpt>
      <trkpt lat="31.0992832183837891" lon="-6.9698500633239746">
        <ele>1287.0</ele>
        <time>2018-10-12T13:41:15.000Z</time>
      </trkpt>
      <trkpt lat="31.0993251800537109" lon="-6.9698500633239746">
        <ele>1287.0</ele>
        <time>2018-10-12T13:41:16.000Z</time>
      </trkpt>
      <trkpt lat="31.0993690490722656" lon="-6.9698491096496582">
        <ele>1287.0</ele>
        <time>2018-10-12T13:41:17.000Z</time>
      </trkpt>
      <trkpt lat="31.0994129180908203" lon="-6.9698472023010254">
        <ele>1287.0</ele>
        <time>2018-10-12T13:41:18.000Z</time>
      </trkpt>
      <trkpt lat="31.0994548797607422" lon="-6.9698438644409180">
        <ele>1287.0</ele>
        <time>2018-10-12T13:41:19.000Z</time>
      </trkpt>
      <trkpt lat="31.0994987487792969" lon="-6.9698400497436523">
        <ele>1287.0</ele>
        <time>2018-10-12T13:41:20.000Z</time>
      </trkpt>
      <trkpt lat="31.0995407104492188" lon="-6.9698362350463867">
        <ele>1287.0</ele>
        <time>2018-10-12T13:41:21.000Z</time>
      </trkpt>
      <trkpt lat="31.0995788574218750" lon="-6.9698319435119629">
        <ele>1287.0</ele>
        <time>2018-10-12T13:41:22.000Z</time>
      </trkpt>
      <trkpt lat="31.0996150970458984" lon="-6.9698271751403809">
        <ele>1287.821044921875</ele>
        <time>2018-10-12T13:41:23.000Z</time>
      </trkpt>
      <trkpt lat="31.0996513366699219" lon="-6.9698219299316406">
        <ele>1288.0</ele>
        <time>2018-10-12T13:41:24.000Z</time>
      </trkpt>
      <trkpt lat="31.0996856689453125" lon="-6.9698181152343750">
        <ele>1288.0</ele>
        <time>2018-10-12T13:41:25.000Z</time>
      </trkpt>
      <trkpt lat="31.0997219085693359" lon="-6.9698138236999512">
        <ele>1288.0</ele>
        <time>2018-10-12T13:41:26.000Z</time>
      </trkpt>
      <trkpt lat="31.0997581481933594" lon="-6.9698090553283691">
        <ele>1288.0</ele>
        <time>2018-10-12T13:41:27.000Z</time>
      </trkpt>
      <trkpt lat="31.0997924804687500" lon="-6.9698038101196289">
        <ele>1288.0</ele>
        <time>2018-10-12T13:41:28.000Z</time>
      </trkpt>
      <trkpt lat="31.0998249053955078" lon="-6.9698009490966797">
        <ele>1288.0</ele>
        <time>2018-10-12T13:41:29.000Z</time>
      </trkpt>
      <trkpt lat="31.0998592376708984" lon="-6.9697961807250977">
        <ele>1288.0</ele>
        <time>2018-10-12T13:41:30.000Z</time>
      </trkpt>
      <trkpt lat="31.0998973846435547" lon="-6.9697890281677246">
        <ele>1288.0</ele>
        <time>2018-10-12T13:41:31.000Z</time>
      </trkpt>
      <trkpt lat="31.0999393463134766" lon="-6.9697818756103516">
        <ele>1288.0</ele>
        <time>2018-10-12T13:41:32.000Z</time>
      </trkpt>
      <trkpt lat="31.0999889373779297" lon="-6.9697761535644531">
        <ele>1288.0</ele>
        <time>2018-10-12T13:41:33.000Z</time>
      </trkpt>
      <trkpt lat="31.1000423431396484" lon="-6.9697690010070801">
        <ele>1288.0</ele>
        <time>2018-10-12T13:41:34.000Z</time>
      </trkpt>
      <trkpt lat="31.1000938415527344" lon="-6.9697608947753906">
        <ele>1288.0</ele>
        <time>2018-10-12T13:41:35.000Z</time>
      </trkpt>
      <trkpt lat="31.1001434326171875" lon="-6.9697551727294922">
        <ele>1288.0</ele>
        <time>2018-10-12T13:41:36.000Z</time>
      </trkpt>
      <trkpt lat="31.1001911163330078" lon="-6.9697489738464355">
        <ele>1288.0</ele>
        <time>2018-10-12T13:41:37.000Z</time>
      </trkpt>
      <trkpt lat="31.1002330780029297" lon="-6.9697418212890625">
        <ele>1288.0</ele>
        <time>2018-10-12T13:41:38.000Z</time>
      </trkpt>
      <trkpt lat="31.1002769470214844" lon="-6.9697360992431641">
        <ele>1288.0</ele>
        <time>2018-10-12T13:41:39.000Z</time>
      </trkpt>
      <trkpt lat="31.1003131866455078" lon="-6.9697308540344238">
        <ele>1288.821044921875</ele>
        <time>2018-10-12T13:41:40.000Z</time>
      </trkpt>
      <trkpt lat="31.1003475189208984" lon="-6.9697270393371582">
        <ele>1289.0</ele>
        <time>2018-10-12T13:41:41.000Z</time>
      </trkpt>
      <trkpt lat="31.1003799438476562" lon="-6.9697217941284180">
        <ele>1289.0</ele>
        <time>2018-10-12T13:41:42.000Z</time>
      </trkpt>
      <trkpt lat="31.1004123687744141" lon="-6.9697179794311523">
        <ele>1289.0</ele>
        <time>2018-10-12T13:41:43.000Z</time>
      </trkpt>
      <trkpt lat="31.1004467010498047" lon="-6.9697160720825195">
        <ele>1289.0</ele>
        <time>2018-10-12T13:41:44.000Z</time>
      </trkpt>
      <trkpt lat="31.1004791259765625" lon="-6.9697160720825195">
        <ele>1289.821044921875</ele>
        <time>2018-10-12T13:41:45.000Z</time>
      </trkpt>
      <trkpt lat="31.1005134582519531" lon="-6.9697151184082031">
        <ele>1290.0</ele>
        <time>2018-10-12T13:41:46.000Z</time>
      </trkpt>
      <trkpt lat="31.1005477905273438" lon="-6.9697117805480957">
        <ele>1290.0</ele>
        <time>2018-10-12T13:41:47.000Z</time>
      </trkpt>
      <trkpt lat="31.1005821228027344" lon="-6.9697117805480957">
        <ele>1290.0</ele>
        <time>2018-10-12T13:41:48.000Z</time>
      </trkpt>
      <trkpt lat="31.1006145477294922" lon="-6.9697132110595703">
        <ele>1290.0</ele>
        <time>2018-10-12T13:41:49.000Z</time>
      </trkpt>
      <trkpt lat="31.1006431579589844" lon="-6.9697141647338867">
        <ele>1290.0</ele>
        <time>2018-10-12T13:41:50.000Z</time>
      </trkpt>
      <trkpt lat="31.1006698608398438" lon="-6.9697179794311523">
        <ele>1290.0</ele>
        <time>2018-10-12T13:41:51.000Z</time>
      </trkpt>
      <trkpt lat="31.1006946563720703" lon="-6.9697241783142090">
        <ele>1290.0</ele>
        <time>2018-10-12T13:41:52.000Z</time>
      </trkpt>
      <trkpt lat="31.1007232666015625" lon="-6.9697308540344238">
        <ele>1290.0</ele>
        <time>2018-10-12T13:41:53.000Z</time>
      </trkpt>
      <trkpt lat="31.1007537841796875" lon="-6.9697360992431641">
        <ele>1290.0</ele>
        <time>2018-10-12T13:41:54.000Z</time>
      </trkpt>
      <trkpt lat="31.1007862091064453" lon="-6.9697418212890625">
        <ele>1290.0</ele>
        <time>2018-10-12T13:41:55.000Z</time>
      </trkpt>
      <trkpt lat="31.1008186340332031" lon="-6.9697508811950684">
        <ele>1290.0</ele>
        <time>2018-10-12T13:41:56.000Z</time>
      </trkpt>
      <trkpt lat="31.1008510589599609" lon="-6.9697608947753906">
        <ele>1290.0</ele>
        <time>2018-10-12T13:41:57.000Z</time>
      </trkpt>
      <trkpt lat="31.1008834838867188" lon="-6.9697709083557129">
        <ele>1290.0</ele>
        <time>2018-10-12T13:41:58.000Z</time>
      </trkpt>
      <trkpt lat="31.1009178161621094" lon="-6.9697790145874023">
        <ele>1290.0</ele>
        <time>2018-10-12T13:41:59.000Z</time>
      </trkpt>
      <trkpt lat="31.1009540557861328" lon="-6.9697871208190918">
        <ele>1290.0</ele>
        <time>2018-10-12T13:42:00.000Z</time>
      </trkpt>
      <trkpt lat="31.1009922027587891" lon="-6.9697952270507812">
        <ele>1290.821044921875</ele>
        <time>2018-10-12T13:42:01.000Z</time>
      </trkpt>
      <trkpt lat="31.1010284423828125" lon="-6.9698028564453125">
        <ele>1291.0</ele>
        <time>2018-10-12T13:42:02.000Z</time>
      </trkpt>
      <trkpt lat="31.1010665893554688" lon="-6.9698100090026855">
        <ele>1291.0</ele>
        <time>2018-10-12T13:42:03.000Z</time>
      </trkpt>
      <trkpt lat="31.1011047363281250" lon="-6.9698171615600586">
        <ele>1291.0</ele>
        <time>2018-10-12T13:42:04.000Z</time>
      </trkpt>
      <trkpt lat="31.1011428833007812" lon="-6.9698228836059570">
        <ele>1291.0</ele>
        <time>2018-10-12T13:42:05.000Z</time>
      </trkpt>
      <trkpt lat="31.1011810302734375" lon="-6.9698271751403809">
        <ele>1291.0</ele>
        <time>2018-10-12T13:42:06.000Z</time>
      </trkpt>
      <trkpt lat="31.1012172698974609" lon="-6.9698309898376465">
        <ele>1291.0</ele>
        <time>2018-10-12T13:42:07.000Z</time>
      </trkpt>
      <trkpt lat="31.1012554168701172" lon="-6.9698338508605957">
        <ele>1291.0</ele>
        <time>2018-10-12T13:42:08.000Z</time>
      </trkpt>
      <trkpt lat="31.1012954711914062" lon="-6.9698362350463867">
        <ele>1291.0</ele>
        <time>2018-10-12T13:42:09.000Z</time>
      </trkpt>
      <trkpt lat="31.1013355255126953" lon="-6.9698381423950195">
        <ele>1291.0</ele>
        <time>2018-10-12T13:42:10.000Z</time>
      </trkpt>
      <trkpt lat="31.1013755798339844" lon="-6.9698410034179688">
        <ele>1291.0</ele>
        <time>2018-10-12T13:42:11.000Z</time>
      </trkpt>
      <trkpt lat="31.1014175415039062" lon="-6.9698438644409180">
        <ele>1291.0</ele>
        <time>2018-10-12T13:42:12.000Z</time>
      </trkpt>
      <trkpt lat="31.1014595031738281" lon="-6.9698472023010254">
        <ele>1291.0</ele>
        <time>2018-10-12T13:42:13.000Z</time>
      </trkpt>
      <trkpt lat="31.1014995574951172" lon="-6.9698500633239746">
        <ele>1291.0</ele>
        <time>2018-10-12T13:42:14.000Z</time>
      </trkpt>
      <trkpt lat="31.1015415191650391" lon="-6.9698519706726074">
        <ele>1291.0</ele>
        <time>2018-10-12T13:42:15.000Z</time>
      </trkpt>
      <trkpt lat="31.1015834808349609" lon="-6.9698548316955566">
        <ele>1291.0</ele>
        <time>2018-10-12T13:42:16.000Z</time>
      </trkpt>
      <trkpt lat="31.1016235351562500" lon="-6.9698591232299805">
        <ele>1291.0</ele>
        <time>2018-10-12T13:42:17.000Z</time>
      </trkpt>
      <trkpt lat="31.1016616821289062" lon="-6.9698638916015625">
        <ele>1291.0</ele>
        <time>2018-10-12T13:42:18.000Z</time>
      </trkpt>
      <trkpt lat="31.1017017364501953" lon="-6.9698700904846191">
        <ele>1291.0</ele>
        <time>2018-10-12T13:42:19.000Z</time>
      </trkpt>
      <trkpt lat="31.1017398834228516" lon="-6.9698767662048340">
        <ele>1291.0</ele>
        <time>2018-10-12T13:42:20.000Z</time>
      </trkpt>
      <trkpt lat="31.1017780303955078" lon="-6.9698848724365234">
        <ele>1291.0</ele>
        <time>2018-10-12T13:42:21.000Z</time>
      </trkpt>
      <trkpt lat="31.1018161773681641" lon="-6.9698929786682129">
        <ele>1291.0</ele>
        <time>2018-10-12T13:42:22.000Z</time>
      </trkpt>
      <trkpt lat="31.1018543243408203" lon="-6.9699020385742188">
        <ele>1291.0</ele>
        <time>2018-10-12T13:42:23.000Z</time>
      </trkpt>
      <trkpt lat="31.1018905639648438" lon="-6.9699130058288574">
        <ele>1291.0</ele>
        <time>2018-10-12T13:42:24.000Z</time>
      </trkpt>
      <trkpt lat="31.1019268035888672" lon="-6.9699258804321289">
        <ele>1291.0</ele>
        <time>2018-10-12T13:42:25.000Z</time>
      </trkpt>
      <trkpt lat="31.1019649505615234" lon="-6.9699401855468750">
        <ele>1291.0</ele>
        <time>2018-10-12T13:42:26.000Z</time>
      </trkpt>
      <trkpt lat="31.1019992828369141" lon="-6.9699540138244629">
        <ele>1291.0</ele>
        <time>2018-10-12T13:42:27.000Z</time>
      </trkpt>
      <trkpt lat="31.1020374298095703" lon="-6.9699711799621582">
        <ele>1291.0</ele>
        <time>2018-10-12T13:42:28.000Z</time>
      </trkpt>
      <trkpt lat="31.1020736694335938" lon="-6.9699888229370117">
        <ele>1291.0</ele>
        <time>2018-10-12T13:42:29.000Z</time>
      </trkpt>
      <trkpt lat="31.1021099090576172" lon="-6.9700078964233398">
        <ele>1291.0</ele>
        <time>2018-10-12T13:42:30.000Z</time>
      </trkpt>
      <trkpt lat="31.1021442413330078" lon="-6.9700288772583008">
        <ele>1291.0</ele>
        <time>2018-10-12T13:42:31.000Z</time>
      </trkpt>
      <trkpt lat="31.1021804809570312" lon="-6.9700498580932617">
        <ele>1291.0</ele>
        <time>2018-10-12T13:42:32.000Z</time>
      </trkpt>
      <trkpt lat="31.1022148132324219" lon="-6.9700717926025391">
        <ele>1291.0</ele>
        <time>2018-10-12T13:42:33.000Z</time>
      </trkpt>
      <trkpt lat="31.1022491455078125" lon="-6.9700961112976074">
        <ele>1291.0</ele>
        <time>2018-10-12T13:42:34.000Z</time>
      </trkpt>
      <trkpt lat="31.1022834777832031" lon="-6.9701189994812012">
        <ele>1291.0</ele>
        <time>2018-10-12T13:42:35.000Z</time>
      </trkpt>
      <trkpt lat="31.1023178100585938" lon="-6.9701428413391113">
        <ele>1291.0</ele>
        <time>2018-10-12T13:42:36.000Z</time>
      </trkpt>
      <trkpt lat="31.1023502349853516" lon="-6.9701681137084961">
        <ele>1291.0</ele>
        <time>2018-10-12T13:42:37.000Z</time>
      </trkpt>
      <trkpt lat="31.1023845672607422" lon="-6.9701929092407227">
        <ele>1291.7479248046875</ele>
        <time>2018-10-12T13:42:38.000Z</time>
      </trkpt>
      <trkpt lat="31.1024169921875000" lon="-6.9702181816101074">
        <ele>1292.0</ele>
        <time>2018-10-12T13:42:39.000Z</time>
      </trkpt>
      <trkpt lat="31.1024513244628906" lon="-6.9702429771423340">
        <ele>1292.0</ele>
        <time>2018-10-12T13:42:40.000Z</time>
      </trkpt>
      <trkpt lat="31.1024856567382812" lon="-6.9702668190002441">
        <ele>1292.0</ele>
        <time>2018-10-12T13:42:41.000Z</time>
      </trkpt>
      <trkpt lat="31.1025180816650391" lon="-6.9702901840209961">
        <ele>1292.0</ele>
        <time>2018-10-12T13:42:42.000Z</time>
      </trkpt>
      <trkpt lat="31.1025543212890625" lon="-6.9703121185302734">
        <ele>1292.0</ele>
        <time>2018-10-12T13:42:43.000Z</time>
      </trkpt>
      <trkpt lat="31.1025905609130859" lon="-6.9703330993652344">
        <ele>1292.0</ele>
        <time>2018-10-12T13:42:44.000Z</time>
      </trkpt>
      <trkpt lat="31.1026248931884766" lon="-6.9703540802001953">
        <ele>1292.0</ele>
        <time>2018-10-12T13:42:45.000Z</time>
      </trkpt>
      <trkpt lat="31.1026611328125000" lon="-6.9703731536865234">
        <ele>1292.0</ele>
        <time>2018-10-12T13:42:46.000Z</time>
      </trkpt>
      <trkpt lat="31.1026973724365234" lon="-6.9703907966613770">
        <ele>1292.0</ele>
        <time>2018-10-12T13:42:47.000Z</time>
      </trkpt>
      <trkpt lat="31.1027355194091797" lon="-6.9704079627990723">
        <ele>1292.0</ele>
        <time>2018-10-12T13:42:48.000Z</time>
      </trkpt>
      <trkpt lat="31.1027736663818359" lon="-6.9704232215881348">
        <ele>1292.636474609375</ele>
        <time>2018-10-12T13:42:49.000Z</time>
      </trkpt>
      <trkpt lat="31.1028118133544922" lon="-6.9704380035400391">
        <ele>1293.0</ele>
        <time>2018-10-12T13:42:50.000Z</time>
      </trkpt>
      <trkpt lat="31.1028480529785156" lon="-6.9704542160034180">
        <ele>1293.0</ele>
        <time>2018-10-12T13:42:51.000Z</time>
      </trkpt>
      <trkpt lat="31.1028861999511719" lon="-6.9704689979553223">
        <ele>1293.0</ele>
        <time>2018-10-12T13:42:52.000Z</time>
      </trkpt>
      <trkpt lat="31.1029243469238281" lon="-6.9704828262329102">
        <ele>1293.0</ele>
        <time>2018-10-12T13:42:53.000Z</time>
      </trkpt>
      <trkpt lat="31.1029605865478516" lon="-6.9704971313476562">
        <ele>1293.0</ele>
        <time>2018-10-12T13:42:54.000Z</time>
      </trkpt>
      <trkpt lat="31.1029949188232422" lon="-6.9705080986022949">
        <ele>1293.0</ele>
        <time>2018-10-12T13:42:55.000Z</time>
      </trkpt>
      <trkpt lat="31.1030254364013672" lon="-6.9705200195312500">
        <ele>1293.0</ele>
        <time>2018-10-12T13:42:56.000Z</time>
      </trkpt>
      <trkpt lat="31.1030578613281250" lon="-6.9705328941345215">
        <ele>1293.0</ele>
        <time>2018-10-12T13:42:57.000Z</time>
      </trkpt>
      <trkpt lat="31.1030883789062500" lon="-6.9705457687377930">
        <ele>1293.0</ele>
        <time>2018-10-12T13:42:58.000Z</time>
      </trkpt>
      <trkpt lat="31.1031188964843750" lon="-6.9705581665039062">
        <ele>1293.0</ele>
        <time>2018-10-12T13:42:59.000Z</time>
      </trkpt>
      <trkpt lat="31.1031494140625000" lon="-6.9705691337585449">
        <ele>1293.0</ele>
        <time>2018-10-12T13:43:00.000Z</time>
      </trkpt>
      <trkpt lat="31.1031761169433594" lon="-6.9705781936645508">
        <ele>1293.0</ele>
        <time>2018-10-12T13:43:01.000Z</time>
      </trkpt>
      <trkpt lat="31.1032047271728516" lon="-6.9705839157104492">
        <ele>1293.0</ele>
        <time>2018-10-12T13:43:02.000Z</time>
      </trkpt>
      <trkpt lat="31.1032314300537109" lon="-6.9705882072448730">
        <ele>1293.0</ele>
        <time>2018-10-12T13:43:03.000Z</time>
      </trkpt>
      <trkpt lat="31.1032562255859375" lon="-6.9705882072448730">
        <ele>1293.0</ele>
        <time>2018-10-12T13:43:04.000Z</time>
      </trkpt>
      <trkpt lat="31.1032772064208984" lon="-6.9705810546875000">
        <ele>1293.0</ele>
        <time>2018-10-12T13:43:05.000Z</time>
      </trkpt>
      <trkpt lat="31.1032943725585938" lon="-6.9705681800842285">
        <ele>1293.0</ele>
        <time>2018-10-12T13:43:06.000Z</time>
      </trkpt>
      <trkpt lat="31.1033096313476562" lon="-6.9705457687377930">
        <ele>1293.0</ele>
        <time>2018-10-12T13:43:07.000Z</time>
      </trkpt>
      <trkpt lat="31.1033267974853516" lon="-6.9705219268798828">
        <ele>1293.0</ele>
        <time>2018-10-12T13:43:08.000Z</time>
      </trkpt>
      <trkpt lat="31.1033420562744141" lon="-6.9704961776733398">
        <ele>1293.0</ele>
        <time>2018-10-12T13:43:09.000Z</time>
      </trkpt>
      <trkpt lat="31.1033630371093750" lon="-6.9704699516296387">
        <ele>1293.0</ele>
        <time>2018-10-12T13:43:10.000Z</time>
      </trkpt>
      <trkpt lat="31.1033878326416016" lon="-6.9704427719116211">
        <ele>1293.0</ele>
        <time>2018-10-12T13:43:11.000Z</time>
      </trkpt>
      <trkpt lat="31.1034164428710938" lon="-6.9704098701477051">
        <ele>1293.0</ele>
        <time>2018-10-12T13:43:12.000Z</time>
      </trkpt>
      <trkpt lat="31.1034431457519531" lon="-6.9703688621520996">
        <ele>1293.0</ele>
        <time>2018-10-12T13:43:13.000Z</time>
      </trkpt>
      <trkpt lat="31.1034679412841797" lon="-6.9703240394592285">
        <ele>1293.0</ele>
        <time>2018-10-12T13:43:14.000Z</time>
      </trkpt>
      <trkpt lat="31.1034927368164062" lon="-6.9702777862548828">
        <ele>1293.0</ele>
        <time>2018-10-12T13:43:15.000Z</time>
      </trkpt>
      <trkpt lat="31.1035156250000000" lon="-6.9702320098876953">
        <ele>1293.0</ele>
        <time>2018-10-12T13:43:16.000Z</time>
      </trkpt>
      <trkpt lat="31.1035327911376953" lon="-6.9701838493347168">
        <ele>1293.0</ele>
        <time>2018-10-12T13:43:17.000Z</time>
      </trkpt>
      <trkpt lat="31.1035423278808594" lon="-6.9701318740844727">
        <ele>1293.0</ele>
        <time>2018-10-12T13:43:18.000Z</time>
      </trkpt>
      <trkpt lat="31.1035480499267578" lon="-6.9700818061828613">
        <ele>1293.0</ele>
        <time>2018-10-12T13:43:19.000Z</time>
      </trkpt>
      <trkpt lat="31.1035499572753906" lon="-6.9700322151184082">
        <ele>1293.0</ele>
        <time>2018-10-12T13:43:20.000Z</time>
      </trkpt>
      <trkpt lat="31.1035499572753906" lon="-6.9699859619140625">
        <ele>1293.0</ele>
        <time>2018-10-12T13:43:21.000Z</time>
      </trkpt>
      <trkpt lat="31.1035499572753906" lon="-6.9699401855468750">
        <ele>1293.0</ele>
        <time>2018-10-12T13:43:22.000Z</time>
      </trkpt>
      <trkpt lat="31.1035575866699219" lon="-6.9698982238769531">
        <ele>1293.0</ele>
        <time>2018-10-12T13:43:23.000Z</time>
      </trkpt>
      <trkpt lat="31.1035728454589844" lon="-6.9698600769042969">
        <ele>1293.0</ele>
        <time>2018-10-12T13:43:24.000Z</time>
      </trkpt>
      <trkpt lat="31.1035919189453125" lon="-6.9698238372802734">
        <ele>1293.0</ele>
        <time>2018-10-12T13:43:25.000Z</time>
      </trkpt>
      <trkpt lat="31.1036167144775391" lon="-6.9697880744934082">
        <ele>1293.0</ele>
        <time>2018-10-12T13:43:26.000Z</time>
      </trkpt>
      <trkpt lat="31.1036396026611328" lon="-6.9697461128234863">
        <ele>1292.178955078125</ele>
        <time>2018-10-12T13:43:27.000Z</time>
      </trkpt>
      <trkpt lat="31.1036643981933594" lon="-6.9697017669677734">
        <ele>1292.0</ele>
        <time>2018-10-12T13:43:28.000Z</time>
      </trkpt>
      <trkpt lat="31.1036872863769531" lon="-6.9696598052978516">
        <ele>1292.0</ele>
        <time>2018-10-12T13:43:29.000Z</time>
      </trkpt>
      <trkpt lat="31.1037120819091797" lon="-6.9696140289306641">
        <ele>1292.0</ele>
        <time>2018-10-12T13:43:30.000Z</time>
      </trkpt>
      <trkpt lat="31.1037368774414062" lon="-6.9695668220520020">
        <ele>1292.0</ele>
        <time>2018-10-12T13:43:31.000Z</time>
      </trkpt>
      <trkpt lat="31.1037616729736328" lon="-6.9695281982421875">
        <ele>1291.178955078125</ele>
        <time>2018-10-12T13:43:32.000Z</time>
      </trkpt>
      <trkpt lat="31.1037845611572266" lon="-6.9694938659667969">
        <ele>1291.0</ele>
        <time>2018-10-12T13:43:33.000Z</time>
      </trkpt>
      <trkpt lat="31.1038055419921875" lon="-6.9694638252258301">
        <ele>1291.0</ele>
        <time>2018-10-12T13:43:34.000Z</time>
      </trkpt>
      <trkpt lat="31.1038246154785156" lon="-6.9694280624389648">
        <ele>1291.0</ele>
        <time>2018-10-12T13:43:35.000Z</time>
      </trkpt>
      <trkpt lat="31.1038494110107422" lon="-6.9693880081176758">
        <ele>1291.0</ele>
        <time>2018-10-12T13:43:36.000Z</time>
      </trkpt>
      <trkpt lat="31.1038799285888672" lon="-6.9693422317504883">
        <ele>1290.178955078125</ele>
        <time>2018-10-12T13:43:37.000Z</time>
      </trkpt>
      <trkpt lat="31.1039104461669922" lon="-6.9692978858947754">
        <ele>1290.0</ele>
        <time>2018-10-12T13:43:38.000Z</time>
      </trkpt>
      <trkpt lat="31.1039428710937500" lon="-6.9692568778991699">
        <ele>1290.0</ele>
        <time>2018-10-12T13:43:39.000Z</time>
      </trkpt>
      <trkpt lat="31.1039714813232422" lon="-6.9692158699035645">
        <ele>1290.0</ele>
        <time>2018-10-12T13:43:40.000Z</time>
      </trkpt>
      <trkpt lat="31.1039981842041016" lon="-6.9691781997680664">
        <ele>1290.0</ele>
        <time>2018-10-12T13:43:41.000Z</time>
      </trkpt>
      <trkpt lat="31.1040267944335938" lon="-6.9691419601440430">
        <ele>1290.0</ele>
        <time>2018-10-12T13:43:42.000Z</time>
      </trkpt>
      <trkpt lat="31.1040554046630859" lon="-6.9691100120544434">
        <ele>1290.0</ele>
        <time>2018-10-12T13:43:43.000Z</time>
      </trkpt>
      <trkpt lat="31.1040821075439453" lon="-6.9690799713134766">
        <ele>1290.0</ele>
        <time>2018-10-12T13:43:44.000Z</time>
      </trkpt>
      <trkpt lat="31.1041069030761719" lon="-6.9690499305725098">
        <ele>1290.0</ele>
        <time>2018-10-12T13:43:45.000Z</time>
      </trkpt>
      <trkpt lat="31.1041297912597656" lon="-6.9690198898315430">
        <ele>1290.0</ele>
        <time>2018-10-12T13:43:46.000Z</time>
      </trkpt>
      <trkpt lat="31.1041507720947266" lon="-6.9689922332763672">
        <ele>1290.0</ele>
        <time>2018-10-12T13:43:47.000Z</time>
      </trkpt>
      <trkpt lat="31.1041717529296875" lon="-6.9689640998840332">
        <ele>1290.0</ele>
        <time>2018-10-12T13:43:48.000Z</time>
      </trkpt>
      <trkpt lat="31.1041908264160156" lon="-6.9689359664916992">
        <ele>1290.0</ele>
        <time>2018-10-12T13:43:49.000Z</time>
      </trkpt>
      <trkpt lat="31.1042098999023438" lon="-6.9689087867736816">
        <ele>1290.0</ele>
        <time>2018-10-12T13:43:50.000Z</time>
      </trkpt>
      <trkpt lat="31.1042289733886719" lon="-6.9688878059387207">
        <ele>1290.0</ele>
        <time>2018-10-12T13:43:51.000Z</time>
      </trkpt>
      <trkpt lat="31.1042518615722656" lon="-6.9688692092895508">
        <ele>1290.0</ele>
        <time>2018-10-12T13:43:52.000Z</time>
      </trkpt>
      <trkpt lat="31.1042728424072266" lon="-6.9688539505004883">
        <ele>1290.0</ele>
        <time>2018-10-12T13:43:53.000Z</time>
      </trkpt>
      <trkpt lat="31.1042938232421875" lon="-6.9688401222229004">
        <ele>1290.0</ele>
        <time>2018-10-12T13:43:54.000Z</time>
      </trkpt>
      <trkpt lat="31.1043128967285156" lon="-6.9688239097595215">
        <ele>1290.0</ele>
        <time>2018-10-12T13:43:55.000Z</time>
      </trkpt>
      <trkpt lat="31.1043300628662109" lon="-6.9688119888305664">
        <ele>1290.0</ele>
        <time>2018-10-12T13:43:56.000Z</time>
      </trkpt>
      <trkpt lat="31.1043472290039062" lon="-6.9688019752502441">
        <ele>1290.0</ele>
        <time>2018-10-12T13:43:57.000Z</time>
      </trkpt>
      <trkpt lat="31.1043643951416016" lon="-6.9687900543212891">
        <ele>1290.0</ele>
        <time>2018-10-12T13:43:58.000Z</time>
      </trkpt>
      <trkpt lat="31.1043891906738281" lon="-6.9687719345092773">
        <ele>1290.0</ele>
        <time>2018-10-12T13:44:00.000Z</time>
      </trkpt>
      <trkpt lat="31.1044063568115234" lon="-6.9687857627868652">
        <ele>0.0</ele>
        <time>2018-10-12T13:48:45.000Z</time>
      </trkpt>
      <trkpt lat="31.1044311523437500" lon="-6.9687819480895996">
        <ele>1291.0</ele>
        <time>2018-10-12T13:48:53.000Z</time>
      </trkpt>
      <trkpt lat="31.1044483184814453" lon="-6.9687771797180176">
        <ele>1291.0</ele>
        <time>2018-10-12T13:48:54.000Z</time>
      </trkpt>
      <trkpt lat="31.1044712066650391" lon="-6.9687638282775879">
        <ele>1291.0</ele>
        <time>2018-10-12T13:48:55.000Z</time>
      </trkpt>
      <trkpt lat="31.1044940948486328" lon="-6.9687452316284180">
        <ele>1291.0</ele>
        <time>2018-10-12T13:48:56.000Z</time>
      </trkpt>
      <trkpt lat="31.1045188903808594" lon="-6.9687271118164062">
        <ele>1291.0</ele>
        <time>2018-10-12T13:48:57.000Z</time>
      </trkpt>
      <trkpt lat="31.1045436859130859" lon="-6.9687108993530273">
        <ele>1291.0</ele>
        <time>2018-10-12T13:48:58.000Z</time>
      </trkpt>
      <trkpt lat="31.1045684814453125" lon="-6.9686989784240723">
        <ele>1291.0</ele>
        <time>2018-10-12T13:48:59.000Z</time>
      </trkpt>
      <trkpt lat="31.1045970916748047" lon="-6.9686899185180664">
        <ele>1291.0</ele>
        <time>2018-10-12T13:49:00.000Z</time>
      </trkpt>
      <trkpt lat="31.1046257019042969" lon="-6.9686818122863770">
        <ele>1291.0</ele>
        <time>2018-10-12T13:49:01.000Z</time>
      </trkpt>
      <trkpt lat="31.1046543121337891" lon="-6.9686760902404785">
        <ele>1291.0</ele>
        <time>2018-10-12T13:49:02.000Z</time>
      </trkpt>
      <trkpt lat="31.1046810150146484" lon="-6.9686698913574219">
        <ele>1291.0</ele>
        <time>2018-10-12T13:49:03.000Z</time>
      </trkpt>
      <trkpt lat="31.1047058105468750" lon="-6.9686632156372070">
        <ele>1291.0</ele>
        <time>2018-10-12T13:49:04.000Z</time>
      </trkpt>
      <trkpt lat="31.1047306060791016" lon="-6.9686541557312012">
        <ele>1291.0</ele>
        <time>2018-10-12T13:49:05.000Z</time>
      </trkpt>
      <trkpt lat="31.1047515869140625" lon="-6.9686470031738281">
        <ele>1291.0</ele>
        <time>2018-10-12T13:49:06.000Z</time>
      </trkpt>
      <trkpt lat="31.1047725677490234" lon="-6.9686422348022461">
        <ele>1291.0</ele>
        <time>2018-10-12T13:49:07.000Z</time>
      </trkpt>
      <trkpt lat="31.1047954559326172" lon="-6.9686379432678223">
        <ele>1291.0</ele>
        <time>2018-10-12T13:49:08.000Z</time>
      </trkpt>
      <trkpt lat="31.1048202514648438" lon="-6.9686360359191895">
        <ele>1291.0</ele>
        <time>2018-10-12T13:49:09.000Z</time>
      </trkpt>
      <trkpt lat="31.1048488616943359" lon="-6.9686307907104492">
        <ele>1291.0</ele>
        <time>2018-10-12T13:49:10.000Z</time>
      </trkpt>
      <trkpt lat="31.1048774719238281" lon="-6.9686241149902344">
        <ele>1291.0</ele>
        <time>2018-10-12T13:49:11.000Z</time>
      </trkpt>
      <trkpt lat="31.1049060821533203" lon="-6.9686160087585449">
        <ele>1291.0</ele>
        <time>2018-10-12T13:49:12.000Z</time>
      </trkpt>
      <trkpt lat="31.1049346923828125" lon="-6.9686098098754883">
        <ele>1291.0</ele>
        <time>2018-10-12T13:49:13.000Z</time>
      </trkpt>
      <trkpt lat="31.1049633026123047" lon="-6.9686079025268555">
        <ele>1291.0</ele>
        <time>2018-10-12T13:49:14.000Z</time>
      </trkpt>
      <trkpt lat="31.1049938201904297" lon="-6.9686050415039062">
        <ele>1291.0</ele>
        <time>2018-10-12T13:49:15.000Z</time>
      </trkpt>
      <trkpt lat="31.1050243377685547" lon="-6.9685978889465332">
        <ele>1291.0</ele>
        <time>2018-10-12T13:49:16.000Z</time>
      </trkpt>
      <trkpt lat="31.1050548553466797" lon="-6.9685912132263184">
        <ele>1291.0</ele>
        <time>2018-10-12T13:49:17.000Z</time>
      </trkpt>
      <trkpt lat="31.1050834655761719" lon="-6.9685840606689453">
        <ele>1291.0</ele>
        <time>2018-10-12T13:49:18.000Z</time>
      </trkpt>
      <trkpt lat="31.1051120758056641" lon="-6.9685769081115723">
        <ele>1291.0</ele>
        <time>2018-10-12T13:49:19.000Z</time>
      </trkpt>
      <trkpt lat="31.1051425933837891" lon="-6.9685711860656738">
        <ele>1291.73095703125</ele>
        <time>2018-10-12T13:49:20.000Z</time>
      </trkpt>
      <trkpt lat="31.1051712036132812" lon="-6.9685659408569336">
        <ele>1292.0</ele>
        <time>2018-10-12T13:49:21.000Z</time>
      </trkpt>
      <trkpt lat="31.1051979064941406" lon="-6.9685621261596680">
        <ele>1292.0</ele>
        <time>2018-10-12T13:49:22.000Z</time>
      </trkpt>
      <trkpt lat="31.1052246093750000" lon="-6.9685602188110352">
        <ele>1292.0</ele>
        <time>2018-10-12T13:49:23.000Z</time>
      </trkpt>
      <trkpt lat="31.1052513122558594" lon="-6.9685578346252441">
        <ele>1292.0</ele>
        <time>2018-10-12T13:49:24.000Z</time>
      </trkpt>
      <trkpt lat="31.1052799224853516" lon="-6.9685559272766113">
        <ele>1291.26904296875</ele>
        <time>2018-10-12T13:49:25.000Z</time>
      </trkpt>
      <trkpt lat="31.1053085327148438" lon="-6.9685540199279785">
        <ele>1291.0</ele>
        <time>2018-10-12T13:49:26.000Z</time>
      </trkpt>
      <trkpt lat="31.1053371429443359" lon="-6.9685521125793457">
        <ele>1291.0</ele>
        <time>2018-10-12T13:49:27.000Z</time>
      </trkpt>
      <trkpt lat="31.1053676605224609" lon="-6.9685521125793457">
        <ele>1291.0</ele>
        <time>2018-10-12T13:49:28.000Z</time>
      </trkpt>
      <trkpt lat="31.1053962707519531" lon="-6.9685540199279785">
        <ele>1291.0</ele>
        <time>2018-10-12T13:49:29.000Z</time>
      </trkpt>
      <trkpt lat="31.1054267883300781" lon="-6.9685559272766113">
        <ele>1291.0</ele>
        <time>2018-10-12T13:49:30.000Z</time>
      </trkpt>
      <trkpt lat="31.1054573059082031" lon="-6.9685587882995605">
        <ele>1291.0</ele>
        <time>2018-10-12T13:49:31.000Z</time>
      </trkpt>
      <trkpt lat="31.1054897308349609" lon="-6.9685630798339844">
        <ele>1291.0</ele>
        <time>2018-10-12T13:49:32.000Z</time>
      </trkpt>
      <trkpt lat="31.1055183410644531" lon="-6.9685659408569336">
        <ele>1291.0</ele>
        <time>2018-10-12T13:49:33.000Z</time>
      </trkpt>
      <trkpt lat="31.1055507659912109" lon="-6.9685659408569336">
        <ele>1291.0</ele>
        <time>2018-10-12T13:49:34.000Z</time>
      </trkpt>
      <trkpt lat="31.1055812835693359" lon="-6.9685649871826172">
        <ele>1291.0</ele>
        <time>2018-10-12T13:49:35.000Z</time>
      </trkpt>
      <trkpt lat="31.1056079864501953" lon="-6.9685649871826172">
        <ele>1291.0</ele>
        <time>2018-10-12T13:49:36.000Z</time>
      </trkpt>
      <trkpt lat="31.1056346893310547" lon="-6.9685630798339844">
        <ele>1291.0</ele>
        <time>2018-10-12T13:49:37.000Z</time>
      </trkpt>
      <trkpt lat="31.1056671142578125" lon="-6.9685611724853516">
        <ele>1291.73095703125</ele>
        <time>2018-10-12T13:49:38.000Z</time>
      </trkpt>
      <trkpt lat="31.1056995391845703" lon="-6.9685611724853516">
        <ele>1292.0</ele>
        <time>2018-10-12T13:49:39.000Z</time>
      </trkpt>
      <trkpt lat="31.1057300567626953" lon="-6.9685611724853516">
        <ele>1292.0</ele>
        <time>2018-10-12T13:49:40.000Z</time>
      </trkpt>
      <trkpt lat="31.1057624816894531" lon="-6.9685602188110352">
        <ele>1292.0</ele>
        <time>2018-10-12T13:49:41.000Z</time>
      </trkpt>
      <trkpt lat="31.1057910919189453" lon="-6.9685587882995605">
        <ele>1292.0</ele>
        <time>2018-10-12T13:49:42.000Z</time>
      </trkpt>
      <trkpt lat="31.1058235168457031" lon="-6.9685559272766113">
        <ele>1292.562255859375</ele>
        <time>2018-10-12T13:49:43.000Z</time>
      </trkpt>
      <trkpt lat="31.1058521270751953" lon="-6.9685521125793457">
        <ele>1293.0</ele>
        <time>2018-10-12T13:49:44.000Z</time>
      </trkpt>
      <trkpt lat="31.1058826446533203" lon="-6.9685478210449219">
        <ele>1293.0</ele>
        <time>2018-10-12T13:49:45.000Z</time>
      </trkpt>
      <trkpt lat="31.1059112548828125" lon="-6.9685420989990234">
        <ele>1292.26904296875</ele>
        <time>2018-10-12T13:49:46.000Z</time>
      </trkpt>
      <trkpt lat="31.1059436798095703" lon="-6.9685392379760742">
        <ele>1292.73095703125</ele>
        <time>2018-10-12T13:49:47.000Z</time>
      </trkpt>
      <trkpt lat="31.1059741973876953" lon="-6.9685359001159668">
        <ele>1293.0</ele>
        <time>2018-10-12T13:49:48.000Z</time>
      </trkpt>
      <trkpt lat="31.1060047149658203" lon="-6.9685359001159668">
        <ele>1293.0</ele>
        <time>2018-10-12T13:49:49.000Z</time>
      </trkpt>
      <trkpt lat="31.1060352325439453" lon="-6.9685378074645996">
        <ele>1293.0</ele>
        <time>2018-10-12T13:49:50.000Z</time>
      </trkpt>
      <trkpt lat="31.1060657501220703" lon="-6.9685378074645996">
        <ele>1293.0</ele>
        <time>2018-10-12T13:49:51.000Z</time>
      </trkpt>
      <trkpt lat="31.1060962677001953" lon="-6.9685349464416504">
        <ele>1293.0</ele>
        <time>2018-10-12T13:49:52.000Z</time>
      </trkpt>
      <trkpt lat="31.1061267852783203" lon="-6.9685311317443848">
        <ele>1293.0</ele>
        <time>2018-10-12T13:49:53.000Z</time>
      </trkpt>
      <trkpt lat="31.1061553955078125" lon="-6.9685277938842773">
        <ele>1293.0</ele>
        <time>2018-10-12T13:49:54.000Z</time>
      </trkpt>
      <trkpt lat="31.1061878204345703" lon="-6.9685292243957520">
        <ele>1293.0</ele>
        <time>2018-10-12T13:49:55.000Z</time>
      </trkpt>
      <trkpt lat="31.1062164306640625" lon="-6.9685301780700684">
        <ele>1293.0</ele>
        <time>2018-10-12T13:49:56.000Z</time>
      </trkpt>
      <trkpt lat="31.1062469482421875" lon="-6.9685292243957520">
        <ele>1293.0</ele>
        <time>2018-10-12T13:49:57.000Z</time>
      </trkpt>
      <trkpt lat="31.1062774658203125" lon="-6.9685249328613281">
        <ele>1293.73095703125</ele>
        <time>2018-10-12T13:49:58.000Z</time>
      </trkpt>
      <trkpt lat="31.1063060760498047" lon="-6.9685192108154297">
        <ele>1294.0</ele>
        <time>2018-10-12T13:49:59.000Z</time>
      </trkpt>
      <trkpt lat="31.1063365936279297" lon="-6.9685130119323730">
        <ele>1294.0</ele>
        <time>2018-10-12T13:50:00.000Z</time>
      </trkpt>
      <trkpt lat="31.1063652038574219" lon="-6.9685068130493164">
        <ele>1294.28466796875</ele>
        <time>2018-10-12T13:50:01.000Z</time>
      </trkpt>
      <trkpt lat="31.1063919067382812" lon="-6.9685001373291016">
        <ele>1295.0</ele>
        <time>2018-10-12T13:50:02.000Z</time>
      </trkpt>
      <trkpt lat="31.1064186096191406" lon="-6.9684948921203613">
        <ele>1295.0</ele>
        <time>2018-10-12T13:50:03.000Z</time>
      </trkpt>
      <trkpt lat="31.1064414978027344" lon="-6.9684901237487793">
        <ele>1295.0</ele>
        <time>2018-10-12T13:50:04.000Z</time>
      </trkpt>
      <trkpt lat="31.1064643859863281" lon="-6.9684829711914062">
        <ele>1295.0</ele>
        <time>2018-10-12T13:50:05.000Z</time>
      </trkpt>
      <trkpt lat="31.1064872741699219" lon="-6.9684739112854004">
        <ele>1295.0</ele>
        <time>2018-10-12T13:50:06.000Z</time>
      </trkpt>
      <trkpt lat="31.1065101623535156" lon="-6.9684648513793945">
        <ele>1295.0</ele>
        <time>2018-10-12T13:50:07.000Z</time>
      </trkpt>
      <trkpt lat="31.1065330505371094" lon="-6.9684591293334961">
        <ele>1295.0</ele>
        <time>2018-10-12T13:50:08.000Z</time>
      </trkpt>
      <trkpt lat="31.1065597534179688" lon="-6.9684557914733887">
        <ele>1295.0</ele>
        <time>2018-10-12T13:50:09.000Z</time>
      </trkpt>
      <trkpt lat="31.1065864562988281" lon="-6.9684519767761230">
        <ele>1295.0</ele>
        <time>2018-10-12T13:50:10.000Z</time>
      </trkpt>
      <trkpt lat="31.1066131591796875" lon="-6.9684472084045410">
        <ele>1295.0</ele>
        <time>2018-10-12T13:50:11.000Z</time>
      </trkpt>
      <trkpt lat="31.1066417694091797" lon="-6.9684400558471680">
        <ele>1295.0</ele>
        <time>2018-10-12T13:50:12.000Z</time>
      </trkpt>
      <trkpt lat="31.1066722869873047" lon="-6.9684329032897949">
        <ele>1295.0</ele>
        <time>2018-10-12T13:50:13.000Z</time>
      </trkpt>
      <trkpt lat="31.1067028045654297" lon="-6.9684300422668457">
        <ele>1295.0</ele>
        <time>2018-10-12T13:50:14.000Z</time>
      </trkpt>
      <trkpt lat="31.1067295074462891" lon="-6.9684281349182129">
        <ele>1295.0</ele>
        <time>2018-10-12T13:50:15.000Z</time>
      </trkpt>
      <trkpt lat="31.1067619323730469" lon="-6.9684247970581055">
        <ele>1295.0</ele>
        <time>2018-10-12T13:50:16.000Z</time>
      </trkpt>
      <trkpt lat="31.1067905426025391" lon="-6.9684219360351562">
        <ele>1295.0</ele>
        <time>2018-10-12T13:50:17.000Z</time>
      </trkpt>
      <trkpt lat="31.1068191528320312" lon="-6.9684200286865234">
        <ele>1295.0</ele>
        <time>2018-10-12T13:50:18.000Z</time>
      </trkpt>
      <trkpt lat="31.1068496704101562" lon="-6.9684200286865234">
        <ele>1295.0</ele>
        <time>2018-10-12T13:50:19.000Z</time>
      </trkpt>
      <trkpt lat="31.1068782806396484" lon="-6.9684200286865234">
        <ele>1295.0</ele>
        <time>2018-10-12T13:50:20.000Z</time>
      </trkpt>
      <trkpt lat="31.1069087982177734" lon="-6.9684209823608398">
        <ele>1295.0</ele>
        <time>2018-10-12T13:50:21.000Z</time>
      </trkpt>
      <trkpt lat="31.1069374084472656" lon="-6.9684200286865234">
        <ele>1295.0</ele>
        <time>2018-10-12T13:50:22.000Z</time>
      </trkpt>
      <trkpt lat="31.1069660186767578" lon="-6.9684209823608398">
        <ele>1295.0</ele>
        <time>2018-10-12T13:50:23.000Z</time>
      </trkpt>
      <trkpt lat="31.1069965362548828" lon="-6.9684238433837891">
        <ele>1295.0</ele>
        <time>2018-10-12T13:50:24.000Z</time>
      </trkpt>
      <trkpt lat="31.1070232391357422" lon="-6.9684262275695801">
        <ele>1295.0</ele>
        <time>2018-10-12T13:50:25.000Z</time>
      </trkpt>
      <trkpt lat="31.1070518493652344" lon="-6.9684271812438965">
        <ele>1295.0</ele>
        <time>2018-10-12T13:50:26.000Z</time>
      </trkpt>
      <trkpt lat="31.1070785522460938" lon="-6.9684281349182129">
        <ele>1295.0</ele>
        <time>2018-10-12T13:50:27.000Z</time>
      </trkpt>
      <trkpt lat="31.1071071624755859" lon="-6.9684300422668457">
        <ele>1295.0</ele>
        <time>2018-10-12T13:50:28.000Z</time>
      </trkpt>
      <trkpt lat="31.1071357727050781" lon="-6.9684309959411621">
        <ele>1295.0</ele>
        <time>2018-10-12T13:50:29.000Z</time>
      </trkpt>
      <trkpt lat="31.1071643829345703" lon="-6.9684300422668457">
        <ele>1295.0</ele>
        <time>2018-10-12T13:50:30.000Z</time>
      </trkpt>
      <trkpt lat="31.1071949005126953" lon="-6.9684281349182129">
        <ele>1295.73095703125</ele>
        <time>2018-10-12T13:50:31.000Z</time>
      </trkpt>
      <trkpt lat="31.1072254180908203" lon="-6.9684271812438965">
        <ele>1296.0</ele>
        <time>2018-10-12T13:50:32.000Z</time>
      </trkpt>
      <trkpt lat="31.1072578430175781" lon="-6.9684281349182129">
        <ele>1296.0</ele>
        <time>2018-10-12T13:50:33.000Z</time>
      </trkpt>
      <trkpt lat="31.1072902679443359" lon="-6.9684300422668457">
        <ele>1296.0</ele>
        <time>2018-10-12T13:50:34.000Z</time>
      </trkpt>
      <trkpt lat="31.1073207855224609" lon="-6.9684309959411621">
        <ele>1296.0</ele>
        <time>2018-10-12T13:50:35.000Z</time>
      </trkpt>
      <trkpt lat="31.1073532104492188" lon="-6.9684309959411621">
        <ele>1296.0</ele>
        <time>2018-10-12T13:50:36.000Z</time>
      </trkpt>
      <trkpt lat="31.1073875427246094" lon="-6.9684290885925293">
        <ele>1295.26904296875</ele>
        <time>2018-10-12T13:50:37.000Z</time>
      </trkpt>
      <trkpt lat="31.1074180603027344" lon="-6.9684271812438965">
        <ele>1295.0</ele>
        <time>2018-10-12T13:50:38.000Z</time>
      </trkpt>
      <trkpt lat="31.1074485778808594" lon="-6.9684238433837891">
        <ele>1295.0</ele>
        <time>2018-10-12T13:50:39.000Z</time>
      </trkpt>
      <trkpt lat="31.1074771881103516" lon="-6.9684190750122070">
        <ele>1295.0</ele>
        <time>2018-10-12T13:50:40.000Z</time>
      </trkpt>
      <trkpt lat="31.1075057983398438" lon="-6.9684138298034668">
        <ele>1295.0</ele>
        <time>2018-10-12T13:50:41.000Z</time>
      </trkpt>
      <trkpt lat="31.1075344085693359" lon="-6.9684100151062012">
        <ele>1295.0</ele>
        <time>2018-10-12T13:50:42.000Z</time>
      </trkpt>
      <trkpt lat="31.1075687408447266" lon="-6.9684047698974609">
        <ele>1295.0</ele>
        <time>2018-10-12T13:50:43.000Z</time>
      </trkpt>
      <trkpt lat="31.1076087951660156" lon="-6.9683961868286133">
        <ele>1295.0</ele>
        <time>2018-10-12T13:50:44.000Z</time>
      </trkpt>
      <trkpt lat="31.1076507568359375" lon="-6.9683852195739746">
        <ele>1295.0</ele>
        <time>2018-10-12T13:50:45.000Z</time>
      </trkpt>
      <trkpt lat="31.1076908111572266" lon="-6.9683761596679688">
        <ele>1295.0</ele>
        <time>2018-10-12T13:50:46.000Z</time>
      </trkpt>
      <trkpt lat="31.1077308654785156" lon="-6.9683670997619629">
        <ele>1295.73095703125</ele>
        <time>2018-10-12T13:50:47.000Z</time>
      </trkpt>
      <trkpt lat="31.1077728271484375" lon="-6.9683570861816406">
        <ele>1296.0</ele>
        <time>2018-10-12T13:50:48.000Z</time>
      </trkpt>
      <trkpt lat="31.1078090667724609" lon="-6.9683470726013184">
        <ele>1296.0</ele>
        <time>2018-10-12T13:50:49.000Z</time>
      </trkpt>
      <trkpt lat="31.1078472137451172" lon="-6.9683361053466797">
        <ele>1296.0</ele>
        <time>2018-10-12T13:50:50.000Z</time>
      </trkpt>
      <trkpt lat="31.1078815460205078" lon="-6.9683260917663574">
        <ele>1296.0</ele>
        <time>2018-10-12T13:50:51.000Z</time>
      </trkpt>
      <trkpt lat="31.1079177856445312" lon="-6.9683160781860352">
        <ele>1296.0</ele>
        <time>2018-10-12T13:50:52.000Z</time>
      </trkpt>
      <trkpt lat="31.1079502105712891" lon="-6.9683060646057129">
        <ele>1296.0</ele>
        <time>2018-10-12T13:50:53.000Z</time>
      </trkpt>
      <trkpt lat="31.1079807281494141" lon="-6.9682950973510742">
        <ele>1296.0</ele>
        <time>2018-10-12T13:50:54.000Z</time>
      </trkpt>
      <trkpt lat="31.1080074310302734" lon="-6.9682841300964355">
        <ele>1296.0</ele>
        <time>2018-10-12T13:50:55.000Z</time>
      </trkpt>
      <trkpt lat="31.1080341339111328" lon="-6.9682741165161133">
        <ele>1296.0</ele>
        <time>2018-10-12T13:50:56.000Z</time>
      </trkpt>
      <trkpt lat="31.1080589294433594" lon="-6.9682660102844238">
        <ele>1296.0</ele>
        <time>2018-10-12T13:50:57.000Z</time>
      </trkpt>
      <trkpt lat="31.1080818176269531" lon="-6.9682579040527344">
        <ele>1296.0</ele>
        <time>2018-10-12T13:50:58.000Z</time>
      </trkpt>
      <trkpt lat="31.1081066131591797" lon="-6.9682512283325195">
        <ele>1296.0</ele>
        <time>2018-10-12T13:50:59.000Z</time>
      </trkpt>
      <trkpt lat="31.1081333160400391" lon="-6.9682431221008301">
        <ele>1296.0</ele>
        <time>2018-10-12T13:51:00.000Z</time>
      </trkpt>
      <trkpt lat="31.1081619262695312" lon="-6.9682350158691406">
        <ele>1296.0</ele>
        <time>2018-10-12T13:51:01.000Z</time>
      </trkpt>
      <trkpt lat="31.1081924438476562" lon="-6.9682288169860840">
        <ele>1296.73095703125</ele>
        <time>2018-10-12T13:51:02.000Z</time>
      </trkpt>
      <trkpt lat="31.1082248687744141" lon="-6.9682230949401855">
        <ele>1297.0</ele>
        <time>2018-10-12T13:51:03.000Z</time>
      </trkpt>
      <trkpt lat="31.1082553863525391" lon="-6.9682178497314453">
        <ele>1297.0</ele>
        <time>2018-10-12T13:51:04.000Z</time>
      </trkpt>
      <trkpt lat="31.1082878112792969" lon="-6.9682130813598633">
        <ele>1297.0</ele>
        <time>2018-10-12T13:51:05.000Z</time>
      </trkpt>
      <trkpt lat="31.1083183288574219" lon="-6.9682111740112305">
        <ele>1297.0</ele>
        <time>2018-10-12T13:51:06.000Z</time>
      </trkpt>
      <trkpt lat="31.1083507537841797" lon="-6.9682087898254395">
        <ele>1297.0</ele>
        <time>2018-10-12T13:51:07.000Z</time>
      </trkpt>
      <trkpt lat="31.1083812713623047" lon="-6.9682078361511230">
        <ele>1297.0</ele>
        <time>2018-10-12T13:51:08.000Z</time>
      </trkpt>
      <trkpt lat="31.1084136962890625" lon="-6.9682068824768066">
        <ele>1297.0</ele>
        <time>2018-10-12T13:51:09.000Z</time>
      </trkpt>
      <trkpt lat="31.1084442138671875" lon="-6.9682068824768066">
        <ele>1297.0</ele>
        <time>2018-10-12T13:51:10.000Z</time>
      </trkpt>
      <trkpt lat="31.1084747314453125" lon="-6.9682059288024902">
        <ele>1297.0</ele>
        <time>2018-10-12T13:51:11.000Z</time>
      </trkpt>
      <trkpt lat="31.1085033416748047" lon="-6.9682059288024902">
        <ele>1297.0</ele>
        <time>2018-10-12T13:51:12.000Z</time>
      </trkpt>
      <trkpt lat="31.1085319519042969" lon="-6.9682040214538574">
        <ele>1297.0</ele>
        <time>2018-10-12T13:51:13.000Z</time>
      </trkpt>
      <trkpt lat="31.1085605621337891" lon="-6.9682040214538574">
        <ele>1297.73095703125</ele>
        <time>2018-10-12T13:51:14.000Z</time>
      </trkpt>
      <trkpt lat="31.1085872650146484" lon="-6.9682059288024902">
        <ele>1298.0</ele>
        <time>2018-10-12T13:51:15.000Z</time>
      </trkpt>
      <trkpt lat="31.1086177825927734" lon="-6.9682049751281738">
        <ele>1298.0</ele>
        <time>2018-10-12T13:51:16.000Z</time>
      </trkpt>
      <trkpt lat="31.1086444854736328" lon="-6.9682021141052246">
        <ele>1298.0</ele>
        <time>2018-10-12T13:51:17.000Z</time>
      </trkpt>
      <trkpt lat="31.1086730957031250" lon="-6.9682011604309082">
        <ele>1298.0</ele>
        <time>2018-10-12T13:51:18.000Z</time>
      </trkpt>
      <trkpt lat="31.1087017059326172" lon="-6.9682011604309082">
        <ele>1298.0</ele>
        <time>2018-10-12T13:51:19.000Z</time>
      </trkpt>
      <trkpt lat="31.1087284088134766" lon="-6.9682021141052246">
        <ele>1298.0</ele>
        <time>2018-10-12T13:51:20.000Z</time>
      </trkpt>
      <trkpt lat="31.1087570190429688" lon="-6.9682021141052246">
        <ele>1298.0</ele>
        <time>2018-10-12T13:51:21.000Z</time>
      </trkpt>
      <trkpt lat="31.1087856292724609" lon="-6.9681987762451172">
        <ele>1298.0</ele>
        <time>2018-10-12T13:51:22.000Z</time>
      </trkpt>
      <trkpt lat="31.1088123321533203" lon="-6.9681959152221680">
        <ele>1298.0</ele>
        <time>2018-10-12T13:51:23.000Z</time>
      </trkpt>
      <trkpt lat="31.1088409423828125" lon="-6.9681940078735352">
        <ele>1298.73095703125</ele>
        <time>2018-10-12T13:51:24.000Z</time>
      </trkpt>
      <trkpt lat="31.1088695526123047" lon="-6.9681949615478516">
        <ele>1299.0</ele>
        <time>2018-10-12T13:51:25.000Z</time>
      </trkpt>
      <trkpt lat="31.1089000701904297" lon="-6.9681949615478516">
        <ele>1299.0</ele>
        <time>2018-10-12T13:51:26.000Z</time>
      </trkpt>
      <trkpt lat="31.1089305877685547" lon="-6.9681959152221680">
        <ele>1299.0</ele>
        <time>2018-10-12T13:51:27.000Z</time>
      </trkpt>
      <trkpt lat="31.1089591979980469" lon="-6.9681949615478516">
        <ele>1299.0</ele>
        <time>2018-10-12T13:51:28.000Z</time>
      </trkpt>
      <trkpt lat="31.1089897155761719" lon="-6.9681949615478516">
        <ele>1299.0</ele>
        <time>2018-10-12T13:51:29.000Z</time>
      </trkpt>
      <trkpt lat="31.1090202331542969" lon="-6.9681959152221680">
        <ele>1299.0</ele>
        <time>2018-10-12T13:51:30.000Z</time>
      </trkpt>
      <trkpt lat="31.1090507507324219" lon="-6.9681968688964844">
        <ele>1299.0</ele>
        <time>2018-10-12T13:51:31.000Z</time>
      </trkpt>
      <trkpt lat="31.1090831756591797" lon="-6.9681959152221680">
        <ele>1299.0</ele>
        <time>2018-10-12T13:51:32.000Z</time>
      </trkpt>
      <trkpt lat="31.1091175079345703" lon="-6.9681940078735352">
        <ele>1299.0</ele>
        <time>2018-10-12T13:51:33.000Z</time>
      </trkpt>
      <trkpt lat="31.1091518402099609" lon="-6.9681921005249023">
        <ele>1299.0</ele>
        <time>2018-10-12T13:51:34.000Z</time>
      </trkpt>
      <trkpt lat="31.1091842651367188" lon="-6.9681887626647949">
        <ele>1299.0</ele>
        <time>2018-10-12T13:51:35.000Z</time>
      </trkpt>
      <trkpt lat="31.1092224121093750" lon="-6.9681849479675293">
        <ele>1299.0</ele>
        <time>2018-10-12T13:51:36.000Z</time>
      </trkpt>
      <trkpt lat="31.1092586517333984" lon="-6.9681749343872070">
        <ele>1299.0</ele>
        <time>2018-10-12T13:51:37.000Z</time>
      </trkpt>
      <trkpt lat="31.1092910766601562" lon="-6.9681630134582520">
        <ele>1299.0</ele>
        <time>2018-10-12T13:51:38.000Z</time>
      </trkpt>
      <trkpt lat="31.1093254089355469" lon="-6.9681510925292969">
        <ele>1299.0</ele>
        <time>2018-10-12T13:51:39.000Z</time>
      </trkpt>
      <trkpt lat="31.1093559265136719" lon="-6.9681410789489746">
        <ele>1299.0</ele>
        <time>2018-10-12T13:51:40.000Z</time>
      </trkpt>
      <trkpt lat="31.1093864440917969" lon="-6.9681282043457031">
        <ele>1299.0</ele>
        <time>2018-10-12T13:51:41.000Z</time>
      </trkpt>
      <trkpt lat="31.1094169616699219" lon="-6.9681119918823242">
        <ele>1299.0</ele>
        <time>2018-10-12T13:51:42.000Z</time>
      </trkpt>
      <trkpt lat="31.1094455718994141" lon="-6.9680957794189453">
        <ele>1299.0</ele>
        <time>2018-10-12T13:51:43.000Z</time>
      </trkpt>
      <trkpt lat="31.1094722747802734" lon="-6.9680809974670410">
        <ele>1299.0</ele>
        <time>2018-10-12T13:51:44.000Z</time>
      </trkpt>
      <trkpt lat="31.1094989776611328" lon="-6.9680662155151367">
        <ele>1299.0</ele>
        <time>2018-10-12T13:51:45.000Z</time>
      </trkpt>
      <trkpt lat="31.1095256805419922" lon="-6.9680500030517578">
        <ele>1299.0</ele>
        <time>2018-10-12T13:51:46.000Z</time>
      </trkpt>
      <trkpt lat="31.1095504760742188" lon="-6.9680328369140625">
        <ele>1299.0</ele>
        <time>2018-10-12T13:51:47.000Z</time>
      </trkpt>
      <trkpt lat="31.1095752716064453" lon="-6.9680180549621582">
        <ele>1299.0</ele>
        <time>2018-10-12T13:51:48.000Z</time>
      </trkpt>
      <trkpt lat="31.1095981597900391" lon="-6.9680042266845703">
        <ele>1299.7166748046875</ele>
        <time>2018-10-12T13:51:49.000Z</time>
      </trkpt>
      <trkpt lat="31.1096229553222656" lon="-6.9679889678955078">
        <ele>1300.0</ele>
        <time>2018-10-12T13:51:50.000Z</time>
      </trkpt>
      <trkpt lat="31.1096477508544922" lon="-6.9679760932922363">
        <ele>1300.0</ele>
        <time>2018-10-12T13:51:51.000Z</time>
      </trkpt>
      <trkpt lat="31.1096744537353516" lon="-6.9679641723632812">
        <ele>1300.0</ele>
        <time>2018-10-12T13:51:52.000Z</time>
      </trkpt>
      <trkpt lat="31.1097030639648438" lon="-6.9679541587829590">
        <ele>1300.0</ele>
        <time>2018-10-12T13:51:53.000Z</time>
      </trkpt>
      <trkpt lat="31.1097297668457031" lon="-6.9679441452026367">
        <ele>1300.0</ele>
        <time>2018-10-12T13:51:54.000Z</time>
      </trkpt>
      <trkpt lat="31.1097564697265625" lon="-6.9679350852966309">
        <ele>1300.0</ele>
        <time>2018-10-12T13:51:55.000Z</time>
      </trkpt>
      <trkpt lat="31.1097850799560547" lon="-6.9679260253906250">
        <ele>1300.0</ele>
        <time>2018-10-12T13:51:56.000Z</time>
      </trkpt>
      <trkpt lat="31.1098136901855469" lon="-6.9679198265075684">
        <ele>1300.73095703125</ele>
        <time>2018-10-12T13:51:57.000Z</time>
      </trkpt>
      <trkpt lat="31.1098423004150391" lon="-6.9679160118103027">
        <ele>1301.0</ele>
        <time>2018-10-12T13:51:58.000Z</time>
      </trkpt>
      <trkpt lat="31.1098747253417969" lon="-6.9679131507873535">
        <ele>1301.0</ele>
        <time>2018-10-12T13:51:59.000Z</time>
      </trkpt>
      <trkpt lat="31.1099071502685547" lon="-6.9679121971130371">
        <ele>1301.0</ele>
        <time>2018-10-12T13:52:00.000Z</time>
      </trkpt>
      <trkpt lat="31.1099414825439453" lon="-6.9679098129272461">
        <ele>1301.0</ele>
        <time>2018-10-12T13:52:01.000Z</time>
      </trkpt>
      <trkpt lat="31.1099758148193359" lon="-6.9679098129272461">
        <ele>1301.0</ele>
        <time>2018-10-12T13:52:02.000Z</time>
      </trkpt>
      <trkpt lat="31.1100082397460938" lon="-6.9679121971130371">
        <ele>1301.0</ele>
        <time>2018-10-12T13:52:03.000Z</time>
      </trkpt>
      <trkpt lat="31.1100406646728516" lon="-6.9679131507873535">
        <ele>1301.0</ele>
        <time>2018-10-12T13:52:04.000Z</time>
      </trkpt>
      <trkpt lat="31.1100730895996094" lon="-6.9679141044616699">
        <ele>1301.0</ele>
        <time>2018-10-12T13:52:05.000Z</time>
      </trkpt>
      <trkpt lat="31.1101055145263672" lon="-6.9679160118103027">
        <ele>1301.0</ele>
        <time>2018-10-12T13:52:06.000Z</time>
      </trkpt>
      <trkpt lat="31.1101379394531250" lon="-6.9679179191589355">
        <ele>1301.0</ele>
        <time>2018-10-12T13:52:07.000Z</time>
      </trkpt>
      <trkpt lat="31.1101703643798828" lon="-6.9679198265075684">
        <ele>1301.0</ele>
        <time>2018-10-12T13:52:08.000Z</time>
      </trkpt>
      <trkpt lat="31.1102027893066406" lon="-6.9679222106933594">
        <ele>1301.0</ele>
        <time>2018-10-12T13:52:09.000Z</time>
      </trkpt>
      <trkpt lat="31.1102352142333984" lon="-6.9679222106933594">
        <ele>1301.0</ele>
        <time>2018-10-12T13:52:10.000Z</time>
      </trkpt>
      <trkpt lat="31.1102695465087891" lon="-6.9679207801818848">
        <ele>1301.0</ele>
        <time>2018-10-12T13:52:11.000Z</time>
      </trkpt>
      <trkpt lat="31.1103057861328125" lon="-6.9679198265075684">
        <ele>1301.0</ele>
        <time>2018-10-12T13:52:12.000Z</time>
      </trkpt>
      <trkpt lat="31.1103382110595703" lon="-6.9679207801818848">
        <ele>1301.0</ele>
        <time>2018-10-12T13:52:13.000Z</time>
      </trkpt>
      <trkpt lat="31.1103763580322266" lon="-6.9679207801818848">
        <ele>1301.0</ele>
        <time>2018-10-12T13:52:14.000Z</time>
      </trkpt>
      <trkpt lat="31.1104164123535156" lon="-6.9679222106933594">
        <ele>1301.0</ele>
        <time>2018-10-12T13:52:15.000Z</time>
      </trkpt>
      <trkpt lat="31.1104564666748047" lon="-6.9679222106933594">
        <ele>1301.0</ele>
        <time>2018-10-12T13:52:16.000Z</time>
      </trkpt>
      <trkpt lat="31.1104946136474609" lon="-6.9679207801818848">
        <ele>1301.0</ele>
        <time>2018-10-12T13:52:17.000Z</time>
      </trkpt>
      <trkpt lat="31.1105308532714844" lon="-6.9679160118103027">
        <ele>1301.0</ele>
        <time>2018-10-12T13:52:18.000Z</time>
      </trkpt>
      <trkpt lat="31.1105613708496094" lon="-6.9679059982299805">
        <ele>1301.0</ele>
        <time>2018-10-12T13:52:19.000Z</time>
      </trkpt>
      <trkpt lat="31.1105918884277344" lon="-6.9678950309753418">
        <ele>1301.0</ele>
        <time>2018-10-12T13:52:20.000Z</time>
      </trkpt>
      <trkpt lat="31.1106224060058594" lon="-6.9678921699523926">
        <ele>1301.0</ele>
        <time>2018-10-12T13:52:21.000Z</time>
      </trkpt>
      <trkpt lat="31.1106529235839844" lon="-6.9678969383239746">
        <ele>1301.73095703125</ele>
        <time>2018-10-12T13:52:22.000Z</time>
      </trkpt>
      <trkpt lat="31.1106834411621094" lon="-6.9679069519042969">
        <ele>1302.0</ele>
        <time>2018-10-12T13:52:23.000Z</time>
      </trkpt>
      <trkpt lat="31.1107158660888672" lon="-6.9679179191589355">
        <ele>1302.0</ele>
        <time>2018-10-12T13:52:24.000Z</time>
      </trkpt>
      <trkpt lat="31.1107482910156250" lon="-6.9679269790649414">
        <ele>1302.0</ele>
        <time>2018-10-12T13:52:25.000Z</time>
      </trkpt>
      <trkpt lat="31.1107807159423828" lon="-6.9679350852966309">
        <ele>1302.0</ele>
        <time>2018-10-12T13:52:26.000Z</time>
      </trkpt>
      <trkpt lat="31.1108131408691406" lon="-6.9679388999938965">
        <ele>1302.0</ele>
        <time>2018-10-12T13:52:27.000Z</time>
      </trkpt>
      <trkpt lat="31.1108455657958984" lon="-6.9679388999938965">
        <ele>1302.0</ele>
        <time>2018-10-12T13:52:28.000Z</time>
      </trkpt>
      <trkpt lat="31.1108741760253906" lon="-6.9679360389709473">
        <ele>1302.0</ele>
        <time>2018-10-12T13:52:29.000Z</time>
      </trkpt>
      <trkpt lat="31.1109027862548828" lon="-6.9679307937622070">
        <ele>1302.0</ele>
        <time>2018-10-12T13:52:30.000Z</time>
      </trkpt>
      <trkpt lat="31.1109275817871094" lon="-6.9679279327392578">
        <ele>1302.7166748046875</ele>
        <time>2018-10-12T13:52:31.000Z</time>
      </trkpt>
      <trkpt lat="31.1109523773193359" lon="-6.9679279327392578">
        <ele>1303.0</ele>
        <time>2018-10-12T13:52:32.000Z</time>
      </trkpt>
      <trkpt lat="31.1109771728515625" lon="-6.9679298400878906">
        <ele>1303.0</ele>
        <time>2018-10-12T13:52:33.000Z</time>
      </trkpt>
      <trkpt lat="31.1110038757324219" lon="-6.9679360389709473">
        <ele>1303.0</ele>
        <time>2018-10-12T13:52:34.000Z</time>
      </trkpt>
      <trkpt lat="31.1110267639160156" lon="-6.9679422378540039">
        <ele>1303.0</ele>
        <time>2018-10-12T13:52:35.000Z</time>
      </trkpt>
      <trkpt lat="31.1110534667968750" lon="-6.9679441452026367">
        <ele>1303.0</ele>
        <time>2018-10-12T13:52:36.000Z</time>
      </trkpt>
      <trkpt lat="31.1110820770263672" lon="-6.9679460525512695">
        <ele>1303.0</ele>
        <time>2018-10-12T13:52:37.000Z</time>
      </trkpt>
      <trkpt lat="31.1111125946044922" lon="-6.9679479598999023">
        <ele>1303.0</ele>
        <time>2018-10-12T13:52:38.000Z</time>
      </trkpt>
      <trkpt lat="31.1111412048339844" lon="-6.9679517745971680">
        <ele>1303.73095703125</ele>
        <time>2018-10-12T13:52:39.000Z</time>
      </trkpt>
      <trkpt lat="31.1111717224121094" lon="-6.9679551124572754">
        <ele>1304.0</ele>
        <time>2018-10-12T13:52:40.000Z</time>
      </trkpt>
      <trkpt lat="31.1112003326416016" lon="-6.9679560661315918">
        <ele>1303.26904296875</ele>
        <time>2018-10-12T13:52:41.000Z</time>
      </trkpt>
      <trkpt lat="31.1112308502197266" lon="-6.9679560661315918">
        <ele>1303.0</ele>
        <time>2018-10-12T13:52:42.000Z</time>
      </trkpt>
      <trkpt lat="31.1112594604492188" lon="-6.9679551124572754">
        <ele>1303.0</ele>
        <time>2018-10-12T13:52:43.000Z</time>
      </trkpt>
      <trkpt lat="31.1112918853759766" lon="-6.9679541587829590">
        <ele>1303.73095703125</ele>
        <time>2018-10-12T13:52:44.000Z</time>
      </trkpt>
      <trkpt lat="31.1113224029541016" lon="-6.9679541587829590">
        <ele>1304.0</ele>
        <time>2018-10-12T13:52:45.000Z</time>
      </trkpt>
      <trkpt lat="31.1113529205322266" lon="-6.9679541587829590">
        <ele>1304.0</ele>
        <time>2018-10-12T13:52:46.000Z</time>
      </trkpt>
      <trkpt lat="31.1113853454589844" lon="-6.9679541587829590">
        <ele>1304.0</ele>
        <time>2018-10-12T13:52:47.000Z</time>
      </trkpt>
      <trkpt lat="31.1114177703857422" lon="-6.9679541587829590">
        <ele>1304.0</ele>
        <time>2018-10-12T13:52:48.000Z</time>
      </trkpt>
      <trkpt lat="31.1114482879638672" lon="-6.9679532051086426">
        <ele>1304.0</ele>
        <time>2018-10-12T13:52:49.000Z</time>
      </trkpt>
      <trkpt lat="31.1114807128906250" lon="-6.9679532051086426">
        <ele>1304.0</ele>
        <time>2018-10-12T13:52:50.000Z</time>
      </trkpt>
      <trkpt lat="31.1115093231201172" lon="-6.9679541587829590">
        <ele>1304.0</ele>
        <time>2018-10-12T13:52:51.000Z</time>
      </trkpt>
      <trkpt lat="31.1115417480468750" lon="-6.9679541587829590">
        <ele>1304.0</ele>
        <time>2018-10-12T13:52:52.000Z</time>
      </trkpt>
      <trkpt lat="31.1115703582763672" lon="-6.9679551124572754">
        <ele>1304.0</ele>
        <time>2018-10-12T13:52:53.000Z</time>
      </trkpt>
      <trkpt lat="31.1116008758544922" lon="-6.9679560661315918">
        <ele>1304.0</ele>
        <time>2018-10-12T13:52:54.000Z</time>
      </trkpt>
      <trkpt lat="31.1116313934326172" lon="-6.9679579734802246">
        <ele>1304.0</ele>
        <time>2018-10-12T13:52:55.000Z</time>
      </trkpt>
      <trkpt lat="31.1116638183593750" lon="-6.9679608345031738">
        <ele>1304.0</ele>
        <time>2018-10-12T13:52:56.000Z</time>
      </trkpt>
      <trkpt lat="31.1116981506347656" lon="-6.9679641723632812">
        <ele>1304.0</ele>
        <time>2018-10-12T13:52:57.000Z</time>
      </trkpt>
      <trkpt lat="31.1117305755615234" lon="-6.9679679870605469">
        <ele>1304.0</ele>
        <time>2018-10-12T13:52:58.000Z</time>
      </trkpt>
      <trkpt lat="31.1117649078369141" lon="-6.9679708480834961">
        <ele>1304.0</ele>
        <time>2018-10-12T13:52:59.000Z</time>
      </trkpt>
      <trkpt lat="31.1117973327636719" lon="-6.9679732322692871">
        <ele>1304.0</ele>
        <time>2018-10-12T13:53:00.000Z</time>
      </trkpt>
      <trkpt lat="31.1118297576904297" lon="-6.9679741859436035">
        <ele>1304.0</ele>
        <time>2018-10-12T13:53:01.000Z</time>
      </trkpt>
      <trkpt lat="31.1118621826171875" lon="-6.9679741859436035">
        <ele>1304.0</ele>
        <time>2018-10-12T13:53:02.000Z</time>
      </trkpt>
      <trkpt lat="31.1118946075439453" lon="-6.9679741859436035">
        <ele>1304.0</ele>
        <time>2018-10-12T13:53:03.000Z</time>
      </trkpt>
      <trkpt lat="31.1119289398193359" lon="-6.9679732322692871">
        <ele>1304.0</ele>
        <time>2018-10-12T13:53:04.000Z</time>
      </trkpt>
      <trkpt lat="31.1119613647460938" lon="-6.9679732322692871">
        <ele>1304.73193359375</ele>
        <time>2018-10-12T13:53:05.000Z</time>
      </trkpt>
      <trkpt lat="31.1119956970214844" lon="-6.9679741859436035">
        <ele>1305.0</ele>
        <time>2018-10-12T13:53:06.000Z</time>
      </trkpt>
      <trkpt lat="31.1120300292968750" lon="-6.9679751396179199">
        <ele>1305.0</ele>
        <time>2018-10-12T13:53:07.000Z</time>
      </trkpt>
      <trkpt lat="31.1120624542236328" lon="-6.9679751396179199">
        <ele>1305.0</ele>
        <time>2018-10-12T13:53:08.000Z</time>
      </trkpt>
      <trkpt lat="31.1120967864990234" lon="-6.9679751396179199">
        <ele>1305.0</ele>
        <time>2018-10-12T13:53:09.000Z</time>
      </trkpt>
      <trkpt lat="31.1121292114257812" lon="-6.9679751396179199">
        <ele>1305.0</ele>
        <time>2018-10-12T13:53:10.000Z</time>
      </trkpt>
      <trkpt lat="31.1121597290039062" lon="-6.9679732322692871">
        <ele>1305.0</ele>
        <time>2018-10-12T13:53:11.000Z</time>
      </trkpt>
      <trkpt lat="31.1121902465820312" lon="-6.9679718017578125">
        <ele>1305.0</ele>
        <time>2018-10-12T13:53:12.000Z</time>
      </trkpt>
      <trkpt lat="31.1122226715087891" lon="-6.9679732322692871">
        <ele>1305.0</ele>
        <time>2018-10-12T13:53:13.000Z</time>
      </trkpt>
      <trkpt lat="31.1122512817382812" lon="-6.9679760932922363">
        <ele>1305.0</ele>
        <time>2018-10-12T13:53:14.000Z</time>
      </trkpt>
      <trkpt lat="31.1122817993164062" lon="-6.9679789543151855">
        <ele>1305.0</ele>
        <time>2018-10-12T13:53:15.000Z</time>
      </trkpt>
      <trkpt lat="31.1123085021972656" lon="-6.9679808616638184">
        <ele>1305.0</ele>
        <time>2018-10-12T13:53:16.000Z</time>
      </trkpt>
      <trkpt lat="31.1123371124267578" lon="-6.9679827690124512">
        <ele>1305.0</ele>
        <time>2018-10-12T13:53:17.000Z</time>
      </trkpt>
      <trkpt lat="31.1123657226562500" lon="-6.9679818153381348">
        <ele>1305.0</ele>
        <time>2018-10-12T13:53:18.000Z</time>
      </trkpt>
      <trkpt lat="31.1123924255371094" lon="-6.9679770469665527">
        <ele>1305.0</ele>
        <time>2018-10-12T13:53:19.000Z</time>
      </trkpt>
      <trkpt lat="31.1124210357666016" lon="-6.9679679870605469">
        <ele>1305.0</ele>
        <time>2018-10-12T13:53:20.000Z</time>
      </trkpt>
      <trkpt lat="31.1124515533447266" lon="-6.9679579734802246">
        <ele>1305.0</ele>
        <time>2018-10-12T13:53:21.000Z</time>
      </trkpt>
      <trkpt lat="31.1124820709228516" lon="-6.9679460525512695">
        <ele>1305.0</ele>
        <time>2018-10-12T13:53:22.000Z</time>
      </trkpt>
      <trkpt lat="31.1125144958496094" lon="-6.9679341316223145">
        <ele>1305.0</ele>
        <time>2018-10-12T13:53:23.000Z</time>
      </trkpt>
      <trkpt lat="31.1125469207763672" lon="-6.9679198265075684">
        <ele>1305.0</ele>
        <time>2018-10-12T13:53:24.000Z</time>
      </trkpt>
      <trkpt lat="31.1125774383544922" lon="-6.9679050445556641">
        <ele>1305.0</ele>
        <time>2018-10-12T13:53:25.000Z</time>
      </trkpt>
      <trkpt lat="31.1126117706298828" lon="-6.9678912162780762">
        <ele>1305.0</ele>
        <time>2018-10-12T13:53:26.000Z</time>
      </trkpt>
      <trkpt lat="31.1126461029052734" lon="-6.9678778648376465">
        <ele>1305.0</ele>
        <time>2018-10-12T13:53:27.000Z</time>
      </trkpt>
      <trkpt lat="31.1126842498779297" lon="-6.9678678512573242">
        <ele>1305.0</ele>
        <time>2018-10-12T13:53:28.000Z</time>
      </trkpt>
      <trkpt lat="31.1127223968505859" lon="-6.9678578376770020">
        <ele>1305.0</ele>
        <time>2018-10-12T13:53:29.000Z</time>
      </trkpt>
      <trkpt lat="31.1127605438232422" lon="-6.9678511619567871">
        <ele>1305.0</ele>
        <time>2018-10-12T13:53:30.000Z</time>
      </trkpt>
      <trkpt lat="31.1127986907958984" lon="-6.9678459167480469">
        <ele>1305.0</ele>
        <time>2018-10-12T13:53:31.000Z</time>
      </trkpt>
      <trkpt lat="31.1128349304199219" lon="-6.9678411483764648">
        <ele>1305.0</ele>
        <time>2018-10-12T13:53:32.000Z</time>
      </trkpt>
      <trkpt lat="31.1128730773925781" lon="-6.9678359031677246">
        <ele>1305.0</ele>
        <time>2018-10-12T13:53:33.000Z</time>
      </trkpt>
      <trkpt lat="31.1129112243652344" lon="-6.9678311347961426">
        <ele>1305.0</ele>
        <time>2018-10-12T13:53:34.000Z</time>
      </trkpt>
      <trkpt lat="31.1129493713378906" lon="-6.9678258895874023">
        <ele>1305.0</ele>
        <time>2018-10-12T13:53:35.000Z</time>
      </trkpt>
      <trkpt lat="31.1129875183105469" lon="-6.9678201675415039">
        <ele>1305.0</ele>
        <time>2018-10-12T13:53:36.000Z</time>
      </trkpt>
      <trkpt lat="31.1130237579345703" lon="-6.9678158760070801">
        <ele>1305.0</ele>
        <time>2018-10-12T13:53:37.000Z</time>
      </trkpt>
      <trkpt lat="31.1130619049072266" lon="-6.9678130149841309">
        <ele>1305.0</ele>
        <time>2018-10-12T13:53:38.000Z</time>
      </trkpt>
      <trkpt lat="31.1130981445312500" lon="-6.9678120613098145">
        <ele>1305.0</ele>
        <time>2018-10-12T13:53:39.000Z</time>
      </trkpt>
      <trkpt lat="31.1131362915039062" lon="-6.9678130149841309">
        <ele>1305.0</ele>
        <time>2018-10-12T13:53:40.000Z</time>
      </trkpt>
      <trkpt lat="31.1131744384765625" lon="-6.9678139686584473">
        <ele>1305.0</ele>
        <time>2018-10-12T13:53:41.000Z</time>
      </trkpt>
      <trkpt lat="31.1132106781005859" lon="-6.9678149223327637">
        <ele>1305.0</ele>
        <time>2018-10-12T13:53:42.000Z</time>
      </trkpt>
      <trkpt lat="31.1132488250732422" lon="-6.9678177833557129">
        <ele>1305.5924072265625</ele>
        <time>2018-10-12T13:53:43.000Z</time>
      </trkpt>
      <trkpt lat="31.1132850646972656" lon="-6.9678220748901367">
        <ele>1306.0</ele>
        <time>2018-10-12T13:53:44.000Z</time>
      </trkpt>
      <trkpt lat="31.1133213043212891" lon="-6.9678268432617188">
        <ele>1306.0</ele>
        <time>2018-10-12T13:53:45.000Z</time>
      </trkpt>
      <trkpt lat="31.1133556365966797" lon="-6.9678330421447754">
        <ele>1306.0</ele>
        <time>2018-10-12T13:53:46.000Z</time>
      </trkpt>
      <trkpt lat="31.1133918762207031" lon="-6.9678368568420410">
        <ele>1306.0</ele>
        <time>2018-10-12T13:53:47.000Z</time>
      </trkpt>
      <trkpt lat="31.1134262084960938" lon="-6.9678411483764648">
        <ele>1306.0</ele>
        <time>2018-10-12T13:53:48.000Z</time>
      </trkpt>
      <trkpt lat="31.1134605407714844" lon="-6.9678449630737305">
        <ele>1306.0</ele>
        <time>2018-10-12T13:53:49.000Z</time>
      </trkpt>
      <trkpt lat="31.1134967803955078" lon="-6.9678468704223633">
        <ele>1306.0</ele>
        <time>2018-10-12T13:53:50.000Z</time>
      </trkpt>
      <trkpt lat="31.1135349273681641" lon="-6.9678478240966797">
        <ele>1306.0</ele>
        <time>2018-10-12T13:53:51.000Z</time>
      </trkpt>
      <trkpt lat="31.1135768890380859" lon="-6.9678478240966797">
        <ele>1306.0</ele>
        <time>2018-10-12T13:53:52.000Z</time>
      </trkpt>
      <trkpt lat="31.1136188507080078" lon="-6.9678459167480469">
        <ele>1306.0</ele>
        <time>2018-10-12T13:53:53.000Z</time>
      </trkpt>
      <trkpt lat="31.1136608123779297" lon="-6.9678421020507812">
        <ele>1306.0</ele>
        <time>2018-10-12T13:53:54.000Z</time>
      </trkpt>
      <trkpt lat="31.1137027740478516" lon="-6.9678378105163574">
        <ele>1306.0</ele>
        <time>2018-10-12T13:53:55.000Z</time>
      </trkpt>
      <trkpt lat="31.1137428283691406" lon="-6.9678330421447754">
        <ele>1306.0</ele>
        <time>2018-10-12T13:53:56.000Z</time>
      </trkpt>
      <trkpt lat="31.1137809753417969" lon="-6.9678292274475098">
        <ele>1306.0</ele>
        <time>2018-10-12T13:53:57.000Z</time>
      </trkpt>
      <trkpt lat="31.1138191223144531" lon="-6.9678230285644531">
        <ele>1306.0</ele>
        <time>2018-10-12T13:53:58.000Z</time>
      </trkpt>
      <trkpt lat="31.1138591766357422" lon="-6.9678158760070801">
        <ele>1306.0</ele>
        <time>2018-10-12T13:53:59.000Z</time>
      </trkpt>
      <trkpt lat="31.1138973236083984" lon="-6.9678092002868652">
        <ele>1306.0</ele>
        <time>2018-10-12T13:54:00.000Z</time>
      </trkpt>
      <trkpt lat="31.1139392852783203" lon="-6.9678020477294922">
        <ele>1306.0</ele>
        <time>2018-10-12T13:54:01.000Z</time>
      </trkpt>
      <trkpt lat="31.1139793395996094" lon="-6.9677939414978027">
        <ele>1306.0</ele>
        <time>2018-10-12T13:54:02.000Z</time>
      </trkpt>
      <trkpt lat="31.1140213012695312" lon="-6.9677858352661133">
        <ele>1306.0</ele>
        <time>2018-10-12T13:54:03.000Z</time>
      </trkpt>
      <trkpt lat="31.1140632629394531" lon="-6.9677767753601074">
        <ele>1306.0</ele>
        <time>2018-10-12T13:54:04.000Z</time>
      </trkpt>
      <trkpt lat="31.1141052246093750" lon="-6.9677681922912598">
        <ele>1306.0</ele>
        <time>2018-10-12T13:54:05.000Z</time>
      </trkpt>
      <trkpt lat="31.1141471862792969" lon="-6.9677591323852539">
        <ele>1306.0</ele>
        <time>2018-10-12T13:54:06.000Z</time>
      </trkpt>
      <trkpt lat="31.1141891479492188" lon="-6.9677510261535645">
        <ele>1306.0</ele>
        <time>2018-10-12T13:54:07.000Z</time>
      </trkpt>
      <trkpt lat="31.1142292022705078" lon="-6.9677419662475586">
        <ele>1306.0</ele>
        <time>2018-10-12T13:54:08.000Z</time>
      </trkpt>
      <trkpt lat="31.1142711639404297" lon="-6.9677338600158691">
        <ele>1306.0</ele>
        <time>2018-10-12T13:54:09.000Z</time>
      </trkpt>
      <trkpt lat="31.1143131256103516" lon="-6.9677271842956543">
        <ele>1306.0</ele>
        <time>2018-10-12T13:54:10.000Z</time>
      </trkpt>
      <trkpt lat="31.1143550872802734" lon="-6.9677219390869141">
        <ele>1306.73095703125</ele>
        <time>2018-10-12T13:54:11.000Z</time>
      </trkpt>
      <trkpt lat="31.1143951416015625" lon="-6.9677190780639648">
        <ele>1307.0</ele>
        <time>2018-10-12T13:54:12.000Z</time>
      </trkpt>
      <trkpt lat="31.1144332885742188" lon="-6.9677171707153320">
        <ele>1307.0</ele>
        <time>2018-10-12T13:54:13.000Z</time>
      </trkpt>
      <trkpt lat="31.1144733428955078" lon="-6.9677162170410156">
        <ele>1307.0</ele>
        <time>2018-10-12T13:54:14.000Z</time>
      </trkpt>
      <trkpt lat="31.1145114898681641" lon="-6.9677138328552246">
        <ele>1307.0</ele>
        <time>2018-10-12T13:54:15.000Z</time>
      </trkpt>
      <trkpt lat="31.1145496368408203" lon="-6.9677119255065918">
        <ele>1307.0</ele>
        <time>2018-10-12T13:54:16.000Z</time>
      </trkpt>
      <trkpt lat="31.1145877838134766" lon="-6.9677109718322754">
        <ele>1307.73095703125</ele>
        <time>2018-10-12T13:54:17.000Z</time>
      </trkpt>
      <trkpt lat="31.1146259307861328" lon="-6.9677109718322754">
        <ele>1308.0</ele>
        <time>2018-10-12T13:54:18.000Z</time>
      </trkpt>
      <trkpt lat="31.1146621704101562" lon="-6.9677100181579590">
        <ele>1308.0</ele>
        <time>2018-10-12T13:54:19.000Z</time>
      </trkpt>
      <trkpt lat="31.1147003173828125" lon="-6.9677100181579590">
        <ele>1308.0</ele>
        <time>2018-10-12T13:54:20.000Z</time>
      </trkpt>
      <trkpt lat="31.1147384643554688" lon="-6.9677100181579590">
        <ele>1308.0</ele>
        <time>2018-10-12T13:54:21.000Z</time>
      </trkpt>
      <trkpt lat="31.1147747039794922" lon="-6.9677109718322754">
        <ele>1308.0</ele>
        <time>2018-10-12T13:54:22.000Z</time>
      </trkpt>
      <trkpt lat="31.1148109436035156" lon="-6.9677109718322754">
        <ele>1308.0</ele>
        <time>2018-10-12T13:54:23.000Z</time>
      </trkpt>
      <trkpt lat="31.1148452758789062" lon="-6.9677109718322754">
        <ele>1308.0</ele>
        <time>2018-10-12T13:54:24.000Z</time>
      </trkpt>
      <trkpt lat="31.1148796081542969" lon="-6.9677109718322754">
        <ele>1308.0</ele>
        <time>2018-10-12T13:54:25.000Z</time>
      </trkpt>
      <trkpt lat="31.1149158477783203" lon="-6.9677119255065918">
        <ele>1308.0</ele>
        <time>2018-10-12T13:54:26.000Z</time>
      </trkpt>
      <trkpt lat="31.1149482727050781" lon="-6.9677119255065918">
        <ele>1308.0</ele>
        <time>2018-10-12T13:54:27.000Z</time>
      </trkpt>
      <trkpt lat="31.1149845123291016" lon="-6.9677119255065918">
        <ele>1308.0</ele>
        <time>2018-10-12T13:54:28.000Z</time>
      </trkpt>
      <trkpt lat="31.1150207519531250" lon="-6.9677109718322754">
        <ele>1308.0</ele>
        <time>2018-10-12T13:54:29.000Z</time>
      </trkpt>
      <trkpt lat="31.1150569915771484" lon="-6.9677119255065918">
        <ele>1308.0</ele>
        <time>2018-10-12T13:54:30.000Z</time>
      </trkpt>
      <trkpt lat="31.1150913238525391" lon="-6.9677128791809082">
        <ele>1308.0</ele>
        <time>2018-10-12T13:54:31.000Z</time>
      </trkpt>
      <trkpt lat="31.1151256561279297" lon="-6.9677147865295410">
        <ele>1308.0</ele>
        <time>2018-10-12T13:54:32.000Z</time>
      </trkpt>
      <trkpt lat="31.1151561737060547" lon="-6.9677171707153320">
        <ele>1308.0</ele>
        <time>2018-10-12T13:54:33.000Z</time>
      </trkpt>
      <trkpt lat="31.1151905059814453" lon="-6.9677200317382812">
        <ele>1308.0</ele>
        <time>2018-10-12T13:54:34.000Z</time>
      </trkpt>
      <trkpt lat="31.1152286529541016" lon="-6.9677209854125977">
        <ele>1308.0</ele>
        <time>2018-10-12T13:54:35.000Z</time>
      </trkpt>
      <trkpt lat="31.1152667999267578" lon="-6.9677228927612305">
        <ele>1308.0</ele>
        <time>2018-10-12T13:54:36.000Z</time>
      </trkpt>
      <trkpt lat="31.1153087615966797" lon="-6.9677238464355469">
        <ele>1308.0</ele>
        <time>2018-10-12T13:54:37.000Z</time>
      </trkpt>
      <trkpt lat="31.1153469085693359" lon="-6.9677228927612305">
        <ele>1308.0</ele>
        <time>2018-10-12T13:54:38.000Z</time>
      </trkpt>
      <trkpt lat="31.1153850555419922" lon="-6.9677238464355469">
        <ele>1308.0</ele>
        <time>2018-10-12T13:54:39.000Z</time>
      </trkpt>
      <trkpt lat="31.1154251098632812" lon="-6.9677238464355469">
        <ele>1308.0</ele>
        <time>2018-10-12T13:54:40.000Z</time>
      </trkpt>
      <trkpt lat="31.1154670715332031" lon="-6.9677238464355469">
        <ele>1308.0</ele>
        <time>2018-10-12T13:54:41.000Z</time>
      </trkpt>
      <trkpt lat="31.1155052185058594" lon="-6.9677219390869141">
        <ele>1308.0</ele>
        <time>2018-10-12T13:54:42.000Z</time>
      </trkpt>
      <trkpt lat="31.1155452728271484" lon="-6.9677190780639648">
        <ele>1308.0</ele>
        <time>2018-10-12T13:54:43.000Z</time>
      </trkpt>
      <trkpt lat="31.1155815124511719" lon="-6.9677162170410156">
        <ele>1308.0</ele>
        <time>2018-10-12T13:54:44.000Z</time>
      </trkpt>
      <trkpt lat="31.1156215667724609" lon="-6.9677128791809082">
        <ele>1308.0</ele>
        <time>2018-10-12T13:54:45.000Z</time>
      </trkpt>
      <trkpt lat="31.1156597137451172" lon="-6.9677090644836426">
        <ele>1308.0</ele>
        <time>2018-10-12T13:54:46.000Z</time>
      </trkpt>
      <trkpt lat="31.1156959533691406" lon="-6.9677047729492188">
        <ele>1308.0</ele>
        <time>2018-10-12T13:54:47.000Z</time>
      </trkpt>
      <trkpt lat="31.1157302856445312" lon="-6.9677019119262695">
        <ele>1308.0</ele>
        <time>2018-10-12T13:54:48.000Z</time>
      </trkpt>
      <trkpt lat="31.1157646179199219" lon="-6.9677000045776367">
        <ele>1308.0</ele>
        <time>2018-10-12T13:54:49.000Z</time>
      </trkpt>
      <trkpt lat="31.1158027648925781" lon="-6.9676971435546875">
        <ele>1308.0</ele>
        <time>2018-10-12T13:54:50.000Z</time>
      </trkpt>
      <trkpt lat="31.1158409118652344" lon="-6.9676928520202637">
        <ele>1308.0</ele>
        <time>2018-10-12T13:54:51.000Z</time>
      </trkpt>
      <trkpt lat="31.1158790588378906" lon="-6.9676899909973145">
        <ele>1308.0</ele>
        <time>2018-10-12T13:54:52.000Z</time>
      </trkpt>
      <trkpt lat="31.1159191131591797" lon="-6.9676890373229980">
        <ele>1308.0</ele>
        <time>2018-10-12T13:54:53.000Z</time>
      </trkpt>
      <trkpt lat="31.1159591674804688" lon="-6.9676890373229980">
        <ele>1308.0</ele>
        <time>2018-10-12T13:54:54.000Z</time>
      </trkpt>
      <trkpt lat="31.1159992218017578" lon="-6.9676871299743652">
        <ele>1308.73095703125</ele>
        <time>2018-10-12T13:54:55.000Z</time>
      </trkpt>
      <trkpt lat="31.1160392761230469" lon="-6.9676828384399414">
        <ele>1309.0</ele>
        <time>2018-10-12T13:54:56.000Z</time>
      </trkpt>
      <trkpt lat="31.1160812377929688" lon="-6.9676799774169922">
        <ele>1309.0</ele>
        <time>2018-10-12T13:54:57.000Z</time>
      </trkpt>
      <trkpt lat="31.1161231994628906" lon="-6.9676761627197266">
        <ele>1309.0</ele>
        <time>2018-10-12T13:54:58.000Z</time>
      </trkpt>
      <trkpt lat="31.1161632537841797" lon="-6.9676718711853027">
        <ele>1309.0</ele>
        <time>2018-10-12T13:54:59.000Z</time>
      </trkpt>
      <trkpt lat="31.1162052154541016" lon="-6.9676671028137207">
        <ele>1309.0</ele>
        <time>2018-10-12T13:55:00.000Z</time>
      </trkpt>
      <trkpt lat="31.1162471771240234" lon="-6.9676628112792969">
        <ele>1309.0</ele>
        <time>2018-10-12T13:55:01.000Z</time>
      </trkpt>
      <trkpt lat="31.1162891387939453" lon="-6.9676589965820312">
        <ele>1309.0</ele>
        <time>2018-10-12T13:55:02.000Z</time>
      </trkpt>
      <trkpt lat="31.1163311004638672" lon="-6.9676551818847656">
        <ele>1309.0</ele>
        <time>2018-10-12T13:55:03.000Z</time>
      </trkpt>
      <trkpt lat="31.1163730621337891" lon="-6.9676499366760254">
        <ele>1309.0</ele>
        <time>2018-10-12T13:55:04.000Z</time>
      </trkpt>
      <trkpt lat="31.1164169311523438" lon="-6.9676461219787598">
        <ele>1309.0</ele>
        <time>2018-10-12T13:55:05.000Z</time>
      </trkpt>
      <trkpt lat="31.1164588928222656" lon="-6.9676418304443359">
        <ele>1309.0</ele>
        <time>2018-10-12T13:55:06.000Z</time>
      </trkpt>
      <trkpt lat="31.1165008544921875" lon="-6.9676380157470703">
        <ele>1309.0</ele>
        <time>2018-10-12T13:55:07.000Z</time>
      </trkpt>
      <trkpt lat="31.1165409088134766" lon="-6.9676342010498047">
        <ele>1308.271728515625</ele>
        <time>2018-10-12T13:55:08.000Z</time>
      </trkpt>
      <trkpt lat="31.1165828704833984" lon="-6.9676299095153809">
        <ele>1308.0</ele>
        <time>2018-10-12T13:55:09.000Z</time>
      </trkpt>
      <trkpt lat="31.1166248321533203" lon="-6.9676251411437988">
        <ele>1308.0</ele>
        <time>2018-10-12T13:55:10.000Z</time>
      </trkpt>
      <trkpt lat="31.1166648864746094" lon="-6.9676189422607422">
        <ele>1308.0</ele>
        <time>2018-10-12T13:55:11.000Z</time>
      </trkpt>
      <trkpt lat="31.1167068481445312" lon="-6.9676151275634766">
        <ele>1308.0</ele>
        <time>2018-10-12T13:55:12.000Z</time>
      </trkpt>
      <trkpt lat="31.1167469024658203" lon="-6.9676098823547363">
        <ele>1308.0</ele>
        <time>2018-10-12T13:55:13.000Z</time>
      </trkpt>
      <trkpt lat="31.1167888641357422" lon="-6.9676060676574707">
        <ele>1308.0</ele>
        <time>2018-10-12T13:55:14.000Z</time>
      </trkpt>
      <trkpt lat="31.1168308258056641" lon="-6.9676017761230469">
        <ele>1308.73095703125</ele>
        <time>2018-10-12T13:55:15.000Z</time>
      </trkpt>
      <trkpt lat="31.1168727874755859" lon="-6.9675979614257812">
        <ele>1309.0</ele>
        <time>2018-10-12T13:55:16.000Z</time>
      </trkpt>
      <trkpt lat="31.1169147491455078" lon="-6.9675951004028320">
        <ele>1309.0</ele>
        <time>2018-10-12T13:55:17.000Z</time>
      </trkpt>
      <trkpt lat="31.1169567108154297" lon="-6.9675908088684082">
        <ele>1309.0</ele>
        <time>2018-10-12T13:55:18.000Z</time>
      </trkpt>
      <trkpt lat="31.1170005798339844" lon="-6.9675879478454590">
        <ele>1309.0</ele>
        <time>2018-10-12T13:55:19.000Z</time>
      </trkpt>
      <trkpt lat="31.1170444488525391" lon="-6.9675850868225098">
        <ele>1309.0</ele>
        <time>2018-10-12T13:55:20.000Z</time>
      </trkpt>
      <trkpt lat="31.1170883178710938" lon="-6.9675831794738770">
        <ele>1309.0</ele>
        <time>2018-10-12T13:55:21.000Z</time>
      </trkpt>
      <trkpt lat="31.1171321868896484" lon="-6.9675831794738770">
        <ele>1309.73095703125</ele>
        <time>2018-10-12T13:55:22.000Z</time>
      </trkpt>
      <trkpt lat="31.1171760559082031" lon="-6.9675850868225098">
        <ele>1310.0</ele>
        <time>2018-10-12T13:55:23.000Z</time>
      </trkpt>
      <trkpt lat="31.1172218322753906" lon="-6.9675898551940918">
        <ele>1310.0</ele>
        <time>2018-10-12T13:55:24.000Z</time>
      </trkpt>
      <trkpt lat="31.1172676086425781" lon="-6.9675979614257812">
        <ele>1310.0</ele>
        <time>2018-10-12T13:55:25.000Z</time>
      </trkpt>
      <trkpt lat="31.1173114776611328" lon="-6.9676098823547363">
        <ele>1310.0</ele>
        <time>2018-10-12T13:55:26.000Z</time>
      </trkpt>
      <trkpt lat="31.1173534393310547" lon="-6.9676241874694824">
        <ele>1309.26904296875</ele>
        <time>2018-10-12T13:55:27.000Z</time>
      </trkpt>
      <trkpt lat="31.1173954010009766" lon="-6.9676399230957031">
        <ele>1309.0</ele>
        <time>2018-10-12T13:55:28.000Z</time>
      </trkpt>
      <trkpt lat="31.1174392700195312" lon="-6.9676551818847656">
        <ele>1309.0</ele>
        <time>2018-10-12T13:55:29.000Z</time>
      </trkpt>
      <trkpt lat="31.1174831390380859" lon="-6.9676699638366699">
        <ele>1309.0</ele>
        <time>2018-10-12T13:55:30.000Z</time>
      </trkpt>
      <trkpt lat="31.1175251007080078" lon="-6.9676852226257324">
        <ele>1309.709716796875</ele>
        <time>2018-10-12T13:55:31.000Z</time>
      </trkpt>
      <trkpt lat="31.1175689697265625" lon="-6.9677000045776367">
        <ele>1310.0</ele>
        <time>2018-10-12T13:55:32.000Z</time>
      </trkpt>
      <trkpt lat="31.1176109313964844" lon="-6.9677138328552246">
        <ele>1310.0</ele>
        <time>2018-10-12T13:55:33.000Z</time>
      </trkpt>
      <trkpt lat="31.1176548004150391" lon="-6.9677271842956543">
        <ele>1310.0</ele>
        <time>2018-10-12T13:55:34.000Z</time>
      </trkpt>
      <trkpt lat="31.1176986694335938" lon="-6.9677391052246094">
        <ele>1310.0</ele>
        <time>2018-10-12T13:55:35.000Z</time>
      </trkpt>
      <trkpt lat="31.1177444458007812" lon="-6.9677491188049316">
        <ele>1310.0</ele>
        <time>2018-10-12T13:55:36.000Z</time>
      </trkpt>
      <trkpt lat="31.1177883148193359" lon="-6.9677572250366211">
        <ele>1310.0</ele>
        <time>2018-10-12T13:55:37.000Z</time>
      </trkpt>
      <trkpt lat="31.1178321838378906" lon="-6.9677648544311523">
        <ele>1310.0</ele>
        <time>2018-10-12T13:55:38.000Z</time>
      </trkpt>
      <trkpt lat="31.1178760528564453" lon="-6.9677710533142090">
        <ele>1310.0</ele>
        <time>2018-10-12T13:55:39.000Z</time>
      </trkpt>
      <trkpt lat="31.1179218292236328" lon="-6.9677767753601074">
        <ele>1310.0</ele>
        <time>2018-10-12T13:55:40.000Z</time>
      </trkpt>
      <trkpt lat="31.1179676055908203" lon="-6.9677820205688477">
        <ele>1310.0</ele>
        <time>2018-10-12T13:55:41.000Z</time>
      </trkpt>
      <trkpt lat="31.1180152893066406" lon="-6.9677882194519043">
        <ele>1310.0</ele>
        <time>2018-10-12T13:55:42.000Z</time>
      </trkpt>
      <trkpt lat="31.1180629730224609" lon="-6.9677939414978027">
        <ele>1310.0</ele>
        <time>2018-10-12T13:55:43.000Z</time>
      </trkpt>
      <trkpt lat="31.1181087493896484" lon="-6.9677991867065430">
        <ele>1310.0</ele>
        <time>2018-10-12T13:55:44.000Z</time>
      </trkpt>
      <trkpt lat="31.1181545257568359" lon="-6.9678039550781250">
        <ele>1310.0</ele>
        <time>2018-10-12T13:55:45.000Z</time>
      </trkpt>
      <trkpt lat="31.1181983947753906" lon="-6.9678077697753906">
        <ele>1310.0</ele>
        <time>2018-10-12T13:55:46.000Z</time>
      </trkpt>
      <trkpt lat="31.1182422637939453" lon="-6.9678130149841309">
        <ele>1310.0</ele>
        <time>2018-10-12T13:55:47.000Z</time>
      </trkpt>
      <trkpt lat="31.1182861328125000" lon="-6.9678177833557129">
        <ele>1310.0</ele>
        <time>2018-10-12T13:55:48.000Z</time>
      </trkpt>
      <trkpt lat="31.1183300018310547" lon="-6.9678230285644531">
        <ele>1310.0</ele>
        <time>2018-10-12T13:55:49.000Z</time>
      </trkpt>
      <trkpt lat="31.1183738708496094" lon="-6.9678268432617188">
        <ele>1310.0</ele>
        <time>2018-10-12T13:55:50.000Z</time>
      </trkpt>
      <trkpt lat="31.1184158325195312" lon="-6.9678301811218262">
        <ele>1310.0</ele>
        <time>2018-10-12T13:55:51.000Z</time>
      </trkpt>
      <trkpt lat="31.1184597015380859" lon="-6.9678320884704590">
        <ele>1310.0</ele>
        <time>2018-10-12T13:55:52.000Z</time>
      </trkpt>
      <trkpt lat="31.1185035705566406" lon="-6.9678330421447754">
        <ele>1310.0</ele>
        <time>2018-10-12T13:55:53.000Z</time>
      </trkpt>
      <trkpt lat="31.1185455322265625" lon="-6.9678349494934082">
        <ele>1310.0</ele>
        <time>2018-10-12T13:55:54.000Z</time>
      </trkpt>
      <trkpt lat="31.1185874938964844" lon="-6.9678378105163574">
        <ele>1310.0</ele>
        <time>2018-10-12T13:55:55.000Z</time>
      </trkpt>
      <trkpt lat="31.1186294555664062" lon="-6.9678411483764648">
        <ele>1310.0</ele>
        <time>2018-10-12T13:55:56.000Z</time>
      </trkpt>
      <trkpt lat="31.1186733245849609" lon="-6.9678449630737305">
        <ele>1310.5579833984375</ele>
        <time>2018-10-12T13:55:57.000Z</time>
      </trkpt>
      <trkpt lat="31.1187171936035156" lon="-6.9678487777709961">
        <ele>1311.0</ele>
        <time>2018-10-12T13:55:58.000Z</time>
      </trkpt>
      <trkpt lat="31.1187591552734375" lon="-6.9678540229797363">
        <ele>1311.0</ele>
        <time>2018-10-12T13:55:59.000Z</time>
      </trkpt>
      <trkpt lat="31.1188030242919922" lon="-6.9678578376770020">
        <ele>1311.0</ele>
        <time>2018-10-12T13:56:00.000Z</time>
      </trkpt>
      <trkpt lat="31.1188468933105469" lon="-6.9678621292114258">
        <ele>1311.0</ele>
        <time>2018-10-12T13:56:01.000Z</time>
      </trkpt>
      <trkpt lat="31.1188888549804688" lon="-6.9678659439086914">
        <ele>1311.0</ele>
        <time>2018-10-12T13:56:02.000Z</time>
      </trkpt>
      <trkpt lat="31.1189327239990234" lon="-6.9678711891174316">
        <ele>1311.0</ele>
        <time>2018-10-12T13:56:03.000Z</time>
      </trkpt>
      <trkpt lat="31.1189765930175781" lon="-6.9678750038146973">
        <ele>1311.0</ele>
        <time>2018-10-12T13:56:04.000Z</time>
      </trkpt>
      <trkpt lat="31.1190204620361328" lon="-6.9678797721862793">
        <ele>1311.0</ele>
        <time>2018-10-12T13:56:05.000Z</time>
      </trkpt>
      <trkpt lat="31.1190681457519531" lon="-6.9678850173950195">
        <ele>1311.0</ele>
        <time>2018-10-12T13:56:06.000Z</time>
      </trkpt>
      <trkpt lat="31.1191158294677734" lon="-6.9678897857666016">
        <ele>1311.0</ele>
        <time>2018-10-12T13:56:07.000Z</time>
      </trkpt>
      <trkpt lat="31.1191616058349609" lon="-6.9678950309753418">
        <ele>1311.0</ele>
        <time>2018-10-12T13:56:08.000Z</time>
      </trkpt>
      <trkpt lat="31.1192092895507812" lon="-6.9678978919982910">
        <ele>1311.0</ele>
        <time>2018-10-12T13:56:09.000Z</time>
      </trkpt>
      <trkpt lat="31.1192550659179688" lon="-6.9679021835327148">
        <ele>1311.0</ele>
        <time>2018-10-12T13:56:10.000Z</time>
      </trkpt>
      <trkpt lat="31.1193027496337891" lon="-6.9679059982299805">
        <ele>1311.0</ele>
        <time>2018-10-12T13:56:11.000Z</time>
      </trkpt>
      <trkpt lat="31.1193466186523438" lon="-6.9679088592529297">
        <ele>1311.0</ele>
        <time>2018-10-12T13:56:12.000Z</time>
      </trkpt>
      <trkpt lat="31.1193904876708984" lon="-6.9679131507873535">
        <ele>1311.0</ele>
        <time>2018-10-12T13:56:13.000Z</time>
      </trkpt>
      <trkpt lat="31.1194362640380859" lon="-6.9679169654846191">
        <ele>1311.0</ele>
        <time>2018-10-12T13:56:14.000Z</time>
      </trkpt>
      <trkpt lat="31.1194801330566406" lon="-6.9679179191589355">
        <ele>1311.0</ele>
        <time>2018-10-12T13:56:15.000Z</time>
      </trkpt>
      <trkpt lat="31.1195259094238281" lon="-6.9679179191589355">
        <ele>1311.0</ele>
        <time>2018-10-12T13:56:16.000Z</time>
      </trkpt>
      <trkpt lat="31.1195697784423828" lon="-6.9679179191589355">
        <ele>1311.0</ele>
        <time>2018-10-12T13:56:17.000Z</time>
      </trkpt>
      <trkpt lat="31.1196136474609375" lon="-6.9679160118103027">
        <ele>1311.0</ele>
        <time>2018-10-12T13:56:18.000Z</time>
      </trkpt>
      <trkpt lat="31.1196575164794922" lon="-6.9679121971130371">
        <ele>1311.0</ele>
        <time>2018-10-12T13:56:19.000Z</time>
      </trkpt>
      <trkpt lat="31.1197032928466797" lon="-6.9679079055786133">
        <ele>1311.0</ele>
        <time>2018-10-12T13:56:20.000Z</time>
      </trkpt>
      <trkpt lat="31.1197471618652344" lon="-6.9679059982299805">
        <ele>1311.0</ele>
        <time>2018-10-12T13:56:21.000Z</time>
      </trkpt>
      <trkpt lat="31.1197891235351562" lon="-6.9679021835327148">
        <ele>1311.73095703125</ele>
        <time>2018-10-12T13:56:22.000Z</time>
      </trkpt>
      <trkpt lat="31.1198348999023438" lon="-6.9678988456726074">
        <ele>1312.0</ele>
        <time>2018-10-12T13:56:23.000Z</time>
      </trkpt>
      <trkpt lat="31.1198787689208984" lon="-6.9678969383239746">
        <ele>1312.0</ele>
        <time>2018-10-12T13:56:24.000Z</time>
      </trkpt>
      <trkpt lat="31.1199226379394531" lon="-6.9678959846496582">
        <ele>1312.0</ele>
        <time>2018-10-12T13:56:25.000Z</time>
      </trkpt>
      <trkpt lat="31.1199665069580078" lon="-6.9678931236267090">
        <ele>1312.0</ele>
        <time>2018-10-12T13:56:26.000Z</time>
      </trkpt>
      <trkpt lat="31.1200103759765625" lon="-6.9678912162780762">
        <ele>1312.0</ele>
        <time>2018-10-12T13:56:27.000Z</time>
      </trkpt>
      <trkpt lat="31.1200542449951172" lon="-6.9678897857666016">
        <ele>1312.0</ele>
        <time>2018-10-12T13:56:28.000Z</time>
      </trkpt>
      <trkpt lat="31.1200981140136719" lon="-6.9678897857666016">
        <ele>1312.0</ele>
        <time>2018-10-12T13:56:29.000Z</time>
      </trkpt>
      <trkpt lat="31.1201400756835938" lon="-6.9678897857666016">
        <ele>1312.0</ele>
        <time>2018-10-12T13:56:30.000Z</time>
      </trkpt>
      <trkpt lat="31.1201839447021484" lon="-6.9678912162780762">
        <ele>1312.0</ele>
        <time>2018-10-12T13:56:31.000Z</time>
      </trkpt>
      <trkpt lat="31.1202239990234375" lon="-6.9678931236267090">
        <ele>1312.0</ele>
        <time>2018-10-12T13:56:32.000Z</time>
      </trkpt>
      <trkpt lat="31.1202659606933594" lon="-6.9678950309753418">
        <ele>1312.0</ele>
        <time>2018-10-12T13:56:33.000Z</time>
      </trkpt>
      <trkpt lat="31.1203079223632812" lon="-6.9678969383239746">
        <ele>1312.0</ele>
        <time>2018-10-12T13:56:34.000Z</time>
      </trkpt>
      <trkpt lat="31.1203479766845703" lon="-6.9678997993469238">
        <ele>1312.0</ele>
        <time>2018-10-12T13:56:35.000Z</time>
      </trkpt>
      <trkpt lat="31.1203899383544922" lon="-6.9679021835327148">
        <ele>1311.26904296875</ele>
        <time>2018-10-12T13:56:36.000Z</time>
      </trkpt>
      <trkpt lat="31.1204319000244141" lon="-6.9679059982299805">
        <ele>1311.0</ele>
        <time>2018-10-12T13:56:37.000Z</time>
      </trkpt>
      <trkpt lat="31.1204738616943359" lon="-6.9679079055786133">
        <ele>1311.0</ele>
        <time>2018-10-12T13:56:38.000Z</time>
      </trkpt>
      <trkpt lat="31.1205177307128906" lon="-6.9679107666015625">
        <ele>1311.562255859375</ele>
        <time>2018-10-12T13:56:39.000Z</time>
      </trkpt>
      <trkpt lat="31.1205577850341797" lon="-6.9679141044616699">
        <ele>1312.0</ele>
        <time>2018-10-12T13:56:40.000Z</time>
      </trkpt>
      <trkpt lat="31.1206016540527344" lon="-6.9679160118103027">
        <ele>1312.0</ele>
        <time>2018-10-12T13:56:41.000Z</time>
      </trkpt>
      <trkpt lat="31.1206436157226562" lon="-6.9679198265075684">
        <ele>1312.0</ele>
        <time>2018-10-12T13:56:42.000Z</time>
      </trkpt>
      <trkpt lat="31.1206836700439453" lon="-6.9679231643676758">
        <ele>1312.0</ele>
        <time>2018-10-12T13:56:43.000Z</time>
      </trkpt>
      <trkpt lat="31.1207218170166016" lon="-6.9679288864135742">
        <ele>1312.0</ele>
        <time>2018-10-12T13:56:44.000Z</time>
      </trkpt>
      <trkpt lat="31.1207580566406250" lon="-6.9679341316223145">
        <ele>1312.0</ele>
        <time>2018-10-12T13:56:45.000Z</time>
      </trkpt>
      <trkpt lat="31.1207962036132812" lon="-6.9679388999938965">
        <ele>1312.0</ele>
        <time>2018-10-12T13:56:46.000Z</time>
      </trkpt>
      <trkpt lat="31.1208343505859375" lon="-6.9679450988769531">
        <ele>1312.0</ele>
        <time>2018-10-12T13:56:47.000Z</time>
      </trkpt>
      <trkpt lat="31.1208724975585938" lon="-6.9679498672485352">
        <ele>1312.0</ele>
        <time>2018-10-12T13:56:48.000Z</time>
      </trkpt>
      <trkpt lat="31.1209106445312500" lon="-6.9679551124572754">
        <ele>1312.0</ele>
        <time>2018-10-12T13:56:49.000Z</time>
      </trkpt>
      <trkpt lat="31.1209506988525391" lon="-6.9679598808288574">
        <ele>1312.0</ele>
        <time>2018-10-12T13:56:50.000Z</time>
      </trkpt>
      <trkpt lat="31.1209888458251953" lon="-6.9679660797119141">
        <ele>1312.0</ele>
        <time>2018-10-12T13:56:51.000Z</time>
      </trkpt>
      <trkpt lat="31.1210289001464844" lon="-6.9679708480834961">
        <ele>1312.0</ele>
        <time>2018-10-12T13:56:52.000Z</time>
      </trkpt>
      <trkpt lat="31.1210651397705078" lon="-6.9679760932922363">
        <ele>1312.0</ele>
        <time>2018-10-12T13:56:53.000Z</time>
      </trkpt>
      <trkpt lat="31.1211032867431641" lon="-6.9679808616638184">
        <ele>1312.0</ele>
        <time>2018-10-12T13:56:54.000Z</time>
      </trkpt>
      <trkpt lat="31.1211414337158203" lon="-6.9679861068725586">
        <ele>1312.0</ele>
        <time>2018-10-12T13:56:55.000Z</time>
      </trkpt>
      <trkpt lat="31.1211795806884766" lon="-6.9679908752441406">
        <ele>1312.0</ele>
        <time>2018-10-12T13:56:56.000Z</time>
      </trkpt>
      <trkpt lat="31.1212158203125000" lon="-6.9679942131042480">
        <ele>1312.0</ele>
        <time>2018-10-12T13:56:57.000Z</time>
      </trkpt>
      <trkpt lat="31.1212482452392578" lon="-6.9679980278015137">
        <ele>1312.0</ele>
        <time>2018-10-12T13:56:58.000Z</time>
      </trkpt>
      <trkpt lat="31.1212806701660156" lon="-6.9680018424987793">
        <ele>1312.0</ele>
        <time>2018-10-12T13:56:59.000Z</time>
      </trkpt>
      <trkpt lat="31.1213111877441406" lon="-6.9680051803588867">
        <ele>1312.0</ele>
        <time>2018-10-12T13:57:00.000Z</time>
      </trkpt>
      <trkpt lat="31.1213417053222656" lon="-6.9680070877075195">
        <ele>1312.73095703125</ele>
        <time>2018-10-12T13:57:01.000Z</time>
      </trkpt>
      <trkpt lat="31.1213741302490234" lon="-6.9680080413818359">
        <ele>1313.0</ele>
        <time>2018-10-12T13:57:02.000Z</time>
      </trkpt>
      <trkpt lat="31.1214103698730469" lon="-6.9680089950561523">
        <ele>1313.0</ele>
        <time>2018-10-12T13:57:03.000Z</time>
      </trkpt>
      <trkpt lat="31.1214485168457031" lon="-6.9680099487304688">
        <ele>1313.0</ele>
        <time>2018-10-12T13:57:04.000Z</time>
      </trkpt>
      <trkpt lat="31.1214885711669922" lon="-6.9680137634277344">
        <ele>1313.0</ele>
        <time>2018-10-12T13:57:05.000Z</time>
      </trkpt>
      <trkpt lat="31.1215267181396484" lon="-6.9680151939392090">
        <ele>1313.0</ele>
        <time>2018-10-12T13:57:06.000Z</time>
      </trkpt>
      <trkpt lat="31.1215648651123047" lon="-6.9680128097534180">
        <ele>1313.0</ele>
        <time>2018-10-12T13:57:07.000Z</time>
      </trkpt>
      <trkpt lat="31.1216011047363281" lon="-6.9680089950561523">
        <ele>1313.0</ele>
        <time>2018-10-12T13:57:08.000Z</time>
      </trkpt>
      <trkpt lat="31.1216373443603516" lon="-6.9680051803588867">
        <ele>1313.0</ele>
        <time>2018-10-12T13:57:09.000Z</time>
      </trkpt>
      <trkpt lat="31.1216735839843750" lon="-6.9680008888244629">
        <ele>1313.0</ele>
        <time>2018-10-12T13:57:10.000Z</time>
      </trkpt>
      <trkpt lat="31.1217098236083984" lon="-6.9679970741271973">
        <ele>1313.0</ele>
        <time>2018-10-12T13:57:11.000Z</time>
      </trkpt>
      <trkpt lat="31.1217498779296875" lon="-6.9679918289184570">
        <ele>1313.0</ele>
        <time>2018-10-12T13:57:12.000Z</time>
      </trkpt>
      <trkpt lat="31.1217937469482422" lon="-6.9679870605468750">
        <ele>1313.0</ele>
        <time>2018-10-12T13:57:13.000Z</time>
      </trkpt>
      <trkpt lat="31.1218414306640625" lon="-6.9679827690124512">
        <ele>1313.0</ele>
        <time>2018-10-12T13:57:14.000Z</time>
      </trkpt>
      <trkpt lat="31.1218872070312500" lon="-6.9679799079895020">
        <ele>1313.0</ele>
        <time>2018-10-12T13:57:15.000Z</time>
      </trkpt>
      <trkpt lat="31.1219329833984375" lon="-6.9679770469665527">
        <ele>1313.0</ele>
        <time>2018-10-12T13:57:16.000Z</time>
      </trkpt>
      <trkpt lat="31.1219768524169922" lon="-6.9679760932922363">
        <ele>1313.0</ele>
        <time>2018-10-12T13:57:17.000Z</time>
      </trkpt>
      <trkpt lat="31.1220149993896484" lon="-6.9679751396179199">
        <ele>1312.38427734375</ele>
        <time>2018-10-12T13:57:18.000Z</time>
      </trkpt>
      <trkpt lat="31.1220531463623047" lon="-6.9679741859436035">
        <ele>1312.0</ele>
        <time>2018-10-12T13:57:19.000Z</time>
      </trkpt>
      <trkpt lat="31.1220874786376953" lon="-6.9679708480834961">
        <ele>1312.0</ele>
        <time>2018-10-12T13:57:20.000Z</time>
      </trkpt>
      <trkpt lat="31.1221218109130859" lon="-6.9679670333862305">
        <ele>1312.0</ele>
        <time>2018-10-12T13:57:21.000Z</time>
      </trkpt>
      <trkpt lat="31.1221561431884766" lon="-6.9679641723632812">
        <ele>1312.5496826171875</ele>
        <time>2018-10-12T13:57:22.000Z</time>
      </trkpt>
      <trkpt lat="31.1221942901611328" lon="-6.9679608345031738">
        <ele>1313.0</ele>
        <time>2018-10-12T13:57:23.000Z</time>
      </trkpt>
      <trkpt lat="31.1222362518310547" lon="-6.9679570198059082">
        <ele>1313.0</ele>
        <time>2018-10-12T13:57:24.000Z</time>
      </trkpt>
      <trkpt lat="31.1222782135009766" lon="-6.9679551124572754">
        <ele>1313.0</ele>
        <time>2018-10-12T13:57:25.000Z</time>
      </trkpt>
      <trkpt lat="31.1223220825195312" lon="-6.9679532051086426">
        <ele>1313.73095703125</ele>
        <time>2018-10-12T13:57:26.000Z</time>
      </trkpt>
      <trkpt lat="31.1223659515380859" lon="-6.9679517745971680">
        <ele>1314.0</ele>
        <time>2018-10-12T13:57:27.000Z</time>
      </trkpt>
      <trkpt lat="31.1224060058593750" lon="-6.9679517745971680">
        <ele>1314.0</ele>
        <time>2018-10-12T13:57:28.000Z</time>
      </trkpt>
      <trkpt lat="31.1224460601806641" lon="-6.9679508209228516">
        <ele>1314.0</ele>
        <time>2018-10-12T13:57:29.000Z</time>
      </trkpt>
      <trkpt lat="31.1224842071533203" lon="-6.9679508209228516">
        <ele>1314.0</ele>
        <time>2018-10-12T13:57:30.000Z</time>
      </trkpt>
      <trkpt lat="31.1225242614746094" lon="-6.9679498672485352">
        <ele>1314.0</ele>
        <time>2018-10-12T13:57:31.000Z</time>
      </trkpt>
      <trkpt lat="31.1225624084472656" lon="-6.9679508209228516">
        <ele>1314.0</ele>
        <time>2018-10-12T13:57:32.000Z</time>
      </trkpt>
      <trkpt lat="31.1226005554199219" lon="-6.9679498672485352">
        <ele>1314.0</ele>
        <time>2018-10-12T13:57:33.000Z</time>
      </trkpt>
      <trkpt lat="31.1226348876953125" lon="-6.9679489135742188">
        <ele>1314.0</ele>
        <time>2018-10-12T13:57:34.000Z</time>
      </trkpt>
      <trkpt lat="31.1226692199707031" lon="-6.9679498672485352">
        <ele>1314.0</ele>
        <time>2018-10-12T13:57:35.000Z</time>
      </trkpt>
      <trkpt lat="31.1227035522460938" lon="-6.9679489135742188">
        <ele>1314.0</ele>
        <time>2018-10-12T13:57:36.000Z</time>
      </trkpt>
      <trkpt lat="31.1227397918701172" lon="-6.9679460525512695">
        <ele>1314.0</ele>
        <time>2018-10-12T13:57:37.000Z</time>
      </trkpt>
      <trkpt lat="31.1227798461914062" lon="-6.9679441452026367">
        <ele>1314.0</ele>
        <time>2018-10-12T13:57:38.000Z</time>
      </trkpt>
      <trkpt lat="31.1228237152099609" lon="-6.9679441452026367">
        <ele>1314.0</ele>
        <time>2018-10-12T13:57:39.000Z</time>
      </trkpt>
      <trkpt lat="31.1228675842285156" lon="-6.9679460525512695">
        <ele>1314.0</ele>
        <time>2018-10-12T13:57:40.000Z</time>
      </trkpt>
      <trkpt lat="31.1229133605957031" lon="-6.9679479598999023">
        <ele>1314.0</ele>
        <time>2018-10-12T13:57:41.000Z</time>
      </trkpt>
      <trkpt lat="31.1229591369628906" lon="-6.9679498672485352">
        <ele>1314.0</ele>
        <time>2018-10-12T13:57:42.000Z</time>
      </trkpt>
      <trkpt lat="31.1229991912841797" lon="-6.9679517745971680">
        <ele>1314.0</ele>
        <time>2018-10-12T13:57:43.000Z</time>
      </trkpt>
      <trkpt lat="31.1230392456054688" lon="-6.9679532051086426">
        <ele>1314.0</ele>
        <time>2018-10-12T13:57:44.000Z</time>
      </trkpt>
      <trkpt lat="31.1230773925781250" lon="-6.9679517745971680">
        <ele>1314.0</ele>
        <time>2018-10-12T13:57:45.000Z</time>
      </trkpt>
      <trkpt lat="31.1231174468994141" lon="-6.9679498672485352">
        <ele>1314.0</ele>
        <time>2018-10-12T13:57:46.000Z</time>
      </trkpt>
      <trkpt lat="31.1231575012207031" lon="-6.9679489135742188">
        <ele>1314.0</ele>
        <time>2018-10-12T13:57:47.000Z</time>
      </trkpt>
      <trkpt lat="31.1231994628906250" lon="-6.9679498672485352">
        <ele>1314.0</ele>
        <time>2018-10-12T13:57:48.000Z</time>
      </trkpt>
      <trkpt lat="31.1232376098632812" lon="-6.9679498672485352">
        <ele>1314.0</ele>
        <time>2018-10-12T13:57:49.000Z</time>
      </trkpt>
      <trkpt lat="31.1232757568359375" lon="-6.9679498672485352">
        <ele>1314.0</ele>
        <time>2018-10-12T13:57:50.000Z</time>
      </trkpt>
      <trkpt lat="31.1233158111572266" lon="-6.9679517745971680">
        <ele>1314.73095703125</ele>
        <time>2018-10-12T13:57:51.000Z</time>
      </trkpt>
      <trkpt lat="31.1233539581298828" lon="-6.9679532051086426">
        <ele>1315.0</ele>
        <time>2018-10-12T13:57:52.000Z</time>
      </trkpt>
      <trkpt lat="31.1233921051025391" lon="-6.9679532051086426">
        <ele>1315.0</ele>
        <time>2018-10-12T13:57:53.000Z</time>
      </trkpt>
      <trkpt lat="31.1234321594238281" lon="-6.9679541587829590">
        <ele>1315.0</ele>
        <time>2018-10-12T13:57:54.000Z</time>
      </trkpt>
      <trkpt lat="31.1234703063964844" lon="-6.9679551124572754">
        <ele>1315.0</ele>
        <time>2018-10-12T13:57:55.000Z</time>
      </trkpt>
      <trkpt lat="31.1235103607177734" lon="-6.9679560661315918">
        <ele>1315.0</ele>
        <time>2018-10-12T13:57:56.000Z</time>
      </trkpt>
      <trkpt lat="31.1235485076904297" lon="-6.9679560661315918">
        <ele>1315.0</ele>
        <time>2018-10-12T13:57:57.000Z</time>
      </trkpt>
      <trkpt lat="31.1235885620117188" lon="-6.9679541587829590">
        <ele>1315.0</ele>
        <time>2018-10-12T13:57:58.000Z</time>
      </trkpt>
      <trkpt lat="31.1236305236816406" lon="-6.9679489135742188">
        <ele>1315.0</ele>
        <time>2018-10-12T13:57:59.000Z</time>
      </trkpt>
      <trkpt lat="31.1236705780029297" lon="-6.9679422378540039">
        <ele>1315.0</ele>
        <time>2018-10-12T13:58:00.000Z</time>
      </trkpt>
      <trkpt lat="31.1237125396728516" lon="-6.9679341316223145">
        <ele>1315.0</ele>
        <time>2018-10-12T13:58:01.000Z</time>
      </trkpt>
      <trkpt lat="31.1237545013427734" lon="-6.9679260253906250">
        <ele>1315.0</ele>
        <time>2018-10-12T13:58:02.000Z</time>
      </trkpt>
      <trkpt lat="31.1237983703613281" lon="-6.9679179191589355">
        <ele>1315.0</ele>
        <time>2018-10-12T13:58:03.000Z</time>
      </trkpt>
      <trkpt lat="31.1238403320312500" lon="-6.9679098129272461">
        <ele>1315.0</ele>
        <time>2018-10-12T13:58:04.000Z</time>
      </trkpt>
      <trkpt lat="31.1238842010498047" lon="-6.9679021835327148">
        <ele>1315.0</ele>
        <time>2018-10-12T13:58:05.000Z</time>
      </trkpt>
      <trkpt lat="31.1239280700683594" lon="-6.9678931236267090">
        <ele>1315.0</ele>
        <time>2018-10-12T13:58:06.000Z</time>
      </trkpt>
      <trkpt lat="31.1239738464355469" lon="-6.9678831100463867">
        <ele>1315.0</ele>
        <time>2018-10-12T13:58:07.000Z</time>
      </trkpt>
      <trkpt lat="31.1240158081054688" lon="-6.9678721427917480">
        <ele>1315.0</ele>
        <time>2018-10-12T13:58:08.000Z</time>
      </trkpt>
      <trkpt lat="31.1240596771240234" lon="-6.9678611755371094">
        <ele>1315.0</ele>
        <time>2018-10-12T13:58:09.000Z</time>
      </trkpt>
      <trkpt lat="31.1241016387939453" lon="-6.9678511619567871">
        <ele>1315.0</ele>
        <time>2018-10-12T13:58:10.000Z</time>
      </trkpt>
      <trkpt lat="31.1241455078125000" lon="-6.9678401947021484">
        <ele>1315.0</ele>
        <time>2018-10-12T13:58:11.000Z</time>
      </trkpt>
      <trkpt lat="31.1241874694824219" lon="-6.9678268432617188">
        <ele>1315.0</ele>
        <time>2018-10-12T13:58:12.000Z</time>
      </trkpt>
      <trkpt lat="31.1242275238037109" lon="-6.9678139686584473">
        <ele>1315.73095703125</ele>
        <time>2018-10-12T13:58:13.000Z</time>
      </trkpt>
      <trkpt lat="31.1242694854736328" lon="-6.9678001403808594">
        <ele>1316.0</ele>
        <time>2018-10-12T13:58:14.000Z</time>
      </trkpt>
      <trkpt lat="31.1243095397949219" lon="-6.9677867889404297">
        <ele>1316.0</ele>
        <time>2018-10-12T13:58:15.000Z</time>
      </trkpt>
      <trkpt lat="31.1243495941162109" lon="-6.9677739143371582">
        <ele>1316.0</ele>
        <time>2018-10-12T13:58:16.000Z</time>
      </trkpt>
      <trkpt lat="31.1243896484375000" lon="-6.9677591323852539">
        <ele>1316.0</ele>
        <time>2018-10-12T13:58:17.000Z</time>
      </trkpt>
      <trkpt lat="31.1244297027587891" lon="-6.9677438735961914">
        <ele>1316.0</ele>
        <time>2018-10-12T13:58:18.000Z</time>
      </trkpt>
      <trkpt lat="31.1244678497314453" lon="-6.9677300453186035">
        <ele>1316.0</ele>
        <time>2018-10-12T13:58:19.000Z</time>
      </trkpt>
      <trkpt lat="31.1245079040527344" lon="-6.9677147865295410">
        <ele>1316.0</ele>
        <time>2018-10-12T13:58:20.000Z</time>
      </trkpt>
      <trkpt lat="31.1245441436767578" lon="-6.9676990509033203">
        <ele>1316.0</ele>
        <time>2018-10-12T13:58:21.000Z</time>
      </trkpt>
      <trkpt lat="31.1245841979980469" lon="-6.9676828384399414">
        <ele>1316.0</ele>
        <time>2018-10-12T13:58:22.000Z</time>
      </trkpt>
      <trkpt lat="31.1246223449707031" lon="-6.9676661491394043">
        <ele>1316.0</ele>
        <time>2018-10-12T13:58:23.000Z</time>
      </trkpt>
      <trkpt lat="31.1246604919433594" lon="-6.9676489830017090">
        <ele>1316.0</ele>
        <time>2018-10-12T13:58:24.000Z</time>
      </trkpt>
      <trkpt lat="31.1246986389160156" lon="-6.9676351547241211">
        <ele>1316.0</ele>
        <time>2018-10-12T13:58:25.000Z</time>
      </trkpt>
      <trkpt lat="31.1247367858886719" lon="-6.9676208496093750">
        <ele>1316.0</ele>
        <time>2018-10-12T13:58:26.000Z</time>
      </trkpt>
      <trkpt lat="31.1247730255126953" lon="-6.9676060676574707">
        <ele>1316.0</ele>
        <time>2018-10-12T13:58:27.000Z</time>
      </trkpt>
      <trkpt lat="31.1248092651367188" lon="-6.9675941467285156">
        <ele>1316.73095703125</ele>
        <time>2018-10-12T13:58:28.000Z</time>
      </trkpt>
      <trkpt lat="31.1248455047607422" lon="-6.9675831794738770">
        <ele>1317.0</ele>
        <time>2018-10-12T13:58:29.000Z</time>
      </trkpt>
      <trkpt lat="31.1248817443847656" lon="-6.9675698280334473">
        <ele>1317.0</ele>
        <time>2018-10-12T13:58:30.000Z</time>
      </trkpt>
      <trkpt lat="31.1249198913574219" lon="-6.9675559997558594">
        <ele>1317.0</ele>
        <time>2018-10-12T13:58:31.000Z</time>
      </trkpt>
      <trkpt lat="31.1249561309814453" lon="-6.9675421714782715">
        <ele>1317.0</ele>
        <time>2018-10-12T13:58:32.000Z</time>
      </trkpt>
      <trkpt lat="31.1249942779541016" lon="-6.9675288200378418">
        <ele>1317.0</ele>
        <time>2018-10-12T13:58:33.000Z</time>
      </trkpt>
      <trkpt lat="31.1250324249267578" lon="-6.9675159454345703">
        <ele>1317.0</ele>
        <time>2018-10-12T13:58:34.000Z</time>
      </trkpt>
      <trkpt lat="31.1250705718994141" lon="-6.9675030708312988">
        <ele>1317.0</ele>
        <time>2018-10-12T13:58:35.000Z</time>
      </trkpt>
      <trkpt lat="31.1251087188720703" lon="-6.9674901962280273">
        <ele>1317.0</ele>
        <time>2018-10-12T13:58:36.000Z</time>
      </trkpt>
      <trkpt lat="31.1251468658447266" lon="-6.9674768447875977">
        <ele>1317.0</ele>
        <time>2018-10-12T13:58:37.000Z</time>
      </trkpt>
      <trkpt lat="31.1251831054687500" lon="-6.9674649238586426">
        <ele>1317.0</ele>
        <time>2018-10-12T13:58:38.000Z</time>
      </trkpt>
      <trkpt lat="31.1252212524414062" lon="-6.9674530029296875">
        <ele>1317.0</ele>
        <time>2018-10-12T13:58:39.000Z</time>
      </trkpt>
      <trkpt lat="31.1252574920654297" lon="-6.9674401283264160">
        <ele>1317.0</ele>
        <time>2018-10-12T13:58:40.000Z</time>
      </trkpt>
      <trkpt lat="31.1252956390380859" lon="-6.9674282073974609">
        <ele>1317.0</ele>
        <time>2018-10-12T13:58:41.000Z</time>
      </trkpt>
      <trkpt lat="31.1253337860107422" lon="-6.9674158096313477">
        <ele>1317.73095703125</ele>
        <time>2018-10-12T13:58:42.000Z</time>
      </trkpt>
      <trkpt lat="31.1253719329833984" lon="-6.9674029350280762">
        <ele>1318.0</ele>
        <time>2018-10-12T13:58:43.000Z</time>
      </trkpt>
      <trkpt lat="31.1254100799560547" lon="-6.9673900604248047">
        <ele>1318.0</ele>
        <time>2018-10-12T13:58:44.000Z</time>
      </trkpt>
      <trkpt lat="31.1254501342773438" lon="-6.9673771858215332">
        <ele>1318.0</ele>
        <time>2018-10-12T13:58:45.000Z</time>
      </trkpt>
      <trkpt lat="31.1254882812500000" lon="-6.9673628807067871">
        <ele>1318.0</ele>
        <time>2018-10-12T13:58:46.000Z</time>
      </trkpt>
      <trkpt lat="31.1255283355712891" lon="-6.9673480987548828">
        <ele>1318.0</ele>
        <time>2018-10-12T13:58:47.000Z</time>
      </trkpt>
      <trkpt lat="31.1255683898925781" lon="-6.9673328399658203">
        <ele>1318.0</ele>
        <time>2018-10-12T13:58:48.000Z</time>
      </trkpt>
      <trkpt lat="31.1256084442138672" lon="-6.9673171043395996">
        <ele>1318.0</ele>
        <time>2018-10-12T13:58:49.000Z</time>
      </trkpt>
      <trkpt lat="31.1256484985351562" lon="-6.9673008918762207">
        <ele>1318.0</ele>
        <time>2018-10-12T13:58:50.000Z</time>
      </trkpt>
      <trkpt lat="31.1256885528564453" lon="-6.9672851562500000">
        <ele>1318.0</ele>
        <time>2018-10-12T13:58:51.000Z</time>
      </trkpt>
      <trkpt lat="31.1257305145263672" lon="-6.9672689437866211">
        <ele>1318.562255859375</ele>
        <time>2018-10-12T13:58:52.000Z</time>
      </trkpt>
      <trkpt lat="31.1257724761962891" lon="-6.9672532081604004">
        <ele>1319.0</ele>
        <time>2018-10-12T13:58:53.000Z</time>
      </trkpt>
      <trkpt lat="31.1258125305175781" lon="-6.9672369956970215">
        <ele>1319.0</ele>
        <time>2018-10-12T13:58:54.000Z</time>
      </trkpt>
      <trkpt lat="31.1258525848388672" lon="-6.9672198295593262">
        <ele>1319.0</ele>
        <time>2018-10-12T13:58:55.000Z</time>
      </trkpt>
      <trkpt lat="31.1258907318115234" lon="-6.9672050476074219">
        <ele>1319.0</ele>
        <time>2018-10-12T13:58:56.000Z</time>
      </trkpt>
      <trkpt lat="31.1259288787841797" lon="-6.9671897888183594">
        <ele>1319.0</ele>
        <time>2018-10-12T13:58:57.000Z</time>
      </trkpt>
      <trkpt lat="31.1259651184082031" lon="-6.9671750068664551">
        <ele>1319.0</ele>
        <time>2018-10-12T13:58:58.000Z</time>
      </trkpt>
      <trkpt lat="31.1259994506835938" lon="-6.9671611785888672">
        <ele>1319.0</ele>
        <time>2018-10-12T13:58:59.000Z</time>
      </trkpt>
      <trkpt lat="31.1260356903076172" lon="-6.9671478271484375">
        <ele>1319.0</ele>
        <time>2018-10-12T13:59:00.000Z</time>
      </trkpt>
      <trkpt lat="31.1260719299316406" lon="-6.9671349525451660">
        <ele>1319.0</ele>
        <time>2018-10-12T13:59:01.000Z</time>
      </trkpt>
      <trkpt lat="31.1261081695556641" lon="-6.9671220779418945">
        <ele>1319.0</ele>
        <time>2018-10-12T13:59:02.000Z</time>
      </trkpt>
      <trkpt lat="31.1261425018310547" lon="-6.9671077728271484">
        <ele>1319.0</ele>
        <time>2018-10-12T13:59:03.000Z</time>
      </trkpt>
      <trkpt lat="31.1261806488037109" lon="-6.9670929908752441">
        <ele>1319.0</ele>
        <time>2018-10-12T13:59:04.000Z</time>
      </trkpt>
      <trkpt lat="31.1262187957763672" lon="-6.9670782089233398">
        <ele>1319.0</ele>
        <time>2018-10-12T13:59:05.000Z</time>
      </trkpt>
      <trkpt lat="31.1262550354003906" lon="-6.9670639038085938">
        <ele>1319.0</ele>
        <time>2018-10-12T13:59:06.000Z</time>
      </trkpt>
      <trkpt lat="31.1262912750244141" lon="-6.9670500755310059">
        <ele>1319.0</ele>
        <time>2018-10-12T13:59:07.000Z</time>
      </trkpt>
      <trkpt lat="31.1263275146484375" lon="-6.9670348167419434">
        <ele>1319.0</ele>
        <time>2018-10-12T13:59:08.000Z</time>
      </trkpt>
      <trkpt lat="31.1263656616210938" lon="-6.9670209884643555">
        <ele>1319.0</ele>
        <time>2018-10-12T13:59:09.000Z</time>
      </trkpt>
      <trkpt lat="31.1264019012451172" lon="-6.9670071601867676">
        <ele>1319.0</ele>
        <time>2018-10-12T13:59:10.000Z</time>
      </trkpt>
      <trkpt lat="31.1264381408691406" lon="-6.9669928550720215">
        <ele>1319.0</ele>
        <time>2018-10-12T13:59:11.000Z</time>
      </trkpt>
      <trkpt lat="31.1264781951904297" lon="-6.9669790267944336">
        <ele>1319.0</ele>
        <time>2018-10-12T13:59:12.000Z</time>
      </trkpt>
      <trkpt lat="31.1265163421630859" lon="-6.9669637680053711">
        <ele>1319.0</ele>
        <time>2018-10-12T13:59:13.000Z</time>
      </trkpt>
      <trkpt lat="31.1265544891357422" lon="-6.9669499397277832">
        <ele>1319.0</ele>
        <time>2018-10-12T13:59:14.000Z</time>
      </trkpt>
      <trkpt lat="31.1265926361083984" lon="-6.9669380187988281">
        <ele>1319.0</ele>
        <time>2018-10-12T13:59:15.000Z</time>
      </trkpt>
      <trkpt lat="31.1266307830810547" lon="-6.9669260978698730">
        <ele>1319.0</ele>
        <time>2018-10-12T13:59:16.000Z</time>
      </trkpt>
      <trkpt lat="31.1266689300537109" lon="-6.9669141769409180">
        <ele>1319.0</ele>
        <time>2018-10-12T13:59:17.000Z</time>
      </trkpt>
      <trkpt lat="31.1267051696777344" lon="-6.9669008255004883">
        <ele>1319.0</ele>
        <time>2018-10-12T13:59:18.000Z</time>
      </trkpt>
      <trkpt lat="31.1267414093017578" lon="-6.9668898582458496">
        <ele>1319.0</ele>
        <time>2018-10-12T13:59:19.000Z</time>
      </trkpt>
      <trkpt lat="31.1267776489257812" lon="-6.9668779373168945">
        <ele>1319.0</ele>
        <time>2018-10-12T13:59:20.000Z</time>
      </trkpt>
      <trkpt lat="31.1268177032470703" lon="-6.9668669700622559">
        <ele>1319.0</ele>
        <time>2018-10-12T13:59:21.000Z</time>
      </trkpt>
      <trkpt lat="31.1268558502197266" lon="-6.9668550491333008">
        <ele>1319.0</ele>
        <time>2018-10-12T13:59:22.000Z</time>
      </trkpt>
      <trkpt lat="31.1268920898437500" lon="-6.9668421745300293">
        <ele>1319.0</ele>
        <time>2018-10-12T13:59:23.000Z</time>
      </trkpt>
      <trkpt lat="31.1269321441650391" lon="-6.9668297767639160">
        <ele>1319.0</ele>
        <time>2018-10-12T13:59:24.000Z</time>
      </trkpt>
      <trkpt lat="31.1269702911376953" lon="-6.9668188095092773">
        <ele>1319.0</ele>
        <time>2018-10-12T13:59:25.000Z</time>
      </trkpt>
      <trkpt lat="31.1270103454589844" lon="-6.9668078422546387">
        <ele>1319.0</ele>
        <time>2018-10-12T13:59:26.000Z</time>
      </trkpt>
      <trkpt lat="31.1270484924316406" lon="-6.9667959213256836">
        <ele>1319.610107421875</ele>
        <time>2018-10-12T13:59:27.000Z</time>
      </trkpt>
      <trkpt lat="31.1270866394042969" lon="-6.9667840003967285">
        <ele>1320.0</ele>
        <time>2018-10-12T13:59:28.000Z</time>
      </trkpt>
      <trkpt lat="31.1271286010742188" lon="-6.9667730331420898">
        <ele>1320.0</ele>
        <time>2018-10-12T13:59:29.000Z</time>
      </trkpt>
      <trkpt lat="31.1271667480468750" lon="-6.9667620658874512">
        <ele>1320.0</ele>
        <time>2018-10-12T13:59:30.000Z</time>
      </trkpt>
      <trkpt lat="31.1272068023681641" lon="-6.9667510986328125">
        <ele>1320.0</ele>
        <time>2018-10-12T13:59:31.000Z</time>
      </trkpt>
      <trkpt lat="31.1272468566894531" lon="-6.9667391777038574">
        <ele>1320.0</ele>
        <time>2018-10-12T13:59:32.000Z</time>
      </trkpt>
      <trkpt lat="31.1272869110107422" lon="-6.9667282104492188">
        <ele>1320.0</ele>
        <time>2018-10-12T13:59:33.000Z</time>
      </trkpt>
      <trkpt lat="31.1273250579833984" lon="-6.9667167663574219">
        <ele>1320.0</ele>
        <time>2018-10-12T13:59:34.000Z</time>
      </trkpt>
      <trkpt lat="31.1273689270019531" lon="-6.9667057991027832">
        <ele>1320.0</ele>
        <time>2018-10-12T13:59:35.000Z</time>
      </trkpt>
      <trkpt lat="31.1274089813232422" lon="-6.9666957855224609">
        <ele>1320.0</ele>
        <time>2018-10-12T13:59:36.000Z</time>
      </trkpt>
      <trkpt lat="31.1274509429931641" lon="-6.9666857719421387">
        <ele>1320.0</ele>
        <time>2018-10-12T13:59:37.000Z</time>
      </trkpt>
      <trkpt lat="31.1274929046630859" lon="-6.9666771888732910">
        <ele>1320.0</ele>
        <time>2018-10-12T13:59:38.000Z</time>
      </trkpt>
      <trkpt lat="31.1275367736816406" lon="-6.9666681289672852">
        <ele>1320.0</ele>
        <time>2018-10-12T13:59:39.000Z</time>
      </trkpt>
      <trkpt lat="31.1275768280029297" lon="-6.9666590690612793">
        <ele>1320.0</ele>
        <time>2018-10-12T13:59:40.000Z</time>
      </trkpt>
      <trkpt lat="31.1276168823242188" lon="-6.9666509628295898">
        <ele>1320.0</ele>
        <time>2018-10-12T13:59:41.000Z</time>
      </trkpt>
      <trkpt lat="31.1276531219482422" lon="-6.9666447639465332">
        <ele>1320.0</ele>
        <time>2018-10-12T13:59:42.000Z</time>
      </trkpt>
      <trkpt lat="31.1276931762695312" lon="-6.9666390419006348">
        <ele>1320.0</ele>
        <time>2018-10-12T13:59:43.000Z</time>
      </trkpt>
      <trkpt lat="31.1277313232421875" lon="-6.9666337966918945">
        <ele>1320.0</ele>
        <time>2018-10-12T13:59:44.000Z</time>
      </trkpt>
      <trkpt lat="31.1277675628662109" lon="-6.9666280746459961">
        <ele>1320.0</ele>
        <time>2018-10-12T13:59:45.000Z</time>
      </trkpt>
      <trkpt lat="31.1278057098388672" lon="-6.9666218757629395">
        <ele>1320.0</ele>
        <time>2018-10-12T13:59:46.000Z</time>
      </trkpt>
      <trkpt lat="31.1278400421142578" lon="-6.9666180610656738">
        <ele>1320.0</ele>
        <time>2018-10-12T13:59:47.000Z</time>
      </trkpt>
      <trkpt lat="31.1278743743896484" lon="-6.9666128158569336">
        <ele>1320.0</ele>
        <time>2018-10-12T13:59:48.000Z</time>
      </trkpt>
      <trkpt lat="31.1279106140136719" lon="-6.9666061401367188">
        <ele>1320.0</ele>
        <time>2018-10-12T13:59:49.000Z</time>
      </trkpt>
      <trkpt lat="31.1279468536376953" lon="-6.9665970802307129">
        <ele>1320.0</ele>
        <time>2018-10-12T13:59:50.000Z</time>
      </trkpt>
      <trkpt lat="31.1279811859130859" lon="-6.9665851593017578">
        <ele>1320.0</ele>
        <time>2018-10-12T13:59:51.000Z</time>
      </trkpt>
      <trkpt lat="31.1280212402343750" lon="-6.9665741920471191">
        <ele>1320.0</ele>
        <time>2018-10-12T13:59:52.000Z</time>
      </trkpt>
      <trkpt lat="31.1280593872070312" lon="-6.9665641784667969">
        <ele>1320.0</ele>
        <time>2018-10-12T13:59:53.000Z</time>
      </trkpt>
      <trkpt lat="31.1280994415283203" lon="-6.9665532112121582">
        <ele>1320.0</ele>
        <time>2018-10-12T13:59:54.000Z</time>
      </trkpt>
      <trkpt lat="31.1281394958496094" lon="-6.9665431976318359">
        <ele>1320.0</ele>
        <time>2018-10-12T13:59:55.000Z</time>
      </trkpt>
      <trkpt lat="31.1281776428222656" lon="-6.9665322303771973">
        <ele>1320.0</ele>
        <time>2018-10-12T13:59:56.000Z</time>
      </trkpt>
      <trkpt lat="31.1282176971435547" lon="-6.9665179252624512">
        <ele>1320.0</ele>
        <time>2018-10-12T13:59:57.000Z</time>
      </trkpt>
      <trkpt lat="31.1282577514648438" lon="-6.9665031433105469">
        <ele>1320.0</ele>
        <time>2018-10-12T13:59:58.000Z</time>
      </trkpt>
      <trkpt lat="31.1282958984375000" lon="-6.9664859771728516">
        <ele>1320.0</ele>
        <time>2018-10-12T13:59:59.000Z</time>
      </trkpt>
      <trkpt lat="31.1283359527587891" lon="-6.9664688110351562">
        <ele>1320.0</ele>
        <time>2018-10-12T14:00:00.000Z</time>
      </trkpt>
      <trkpt lat="31.1283740997314453" lon="-6.9664521217346191">
        <ele>1320.0</ele>
        <time>2018-10-12T14:00:01.000Z</time>
      </trkpt>
      <trkpt lat="31.1284141540527344" lon="-6.9664349555969238">
        <ele>1320.0</ele>
        <time>2018-10-12T14:00:02.000Z</time>
      </trkpt>
      <trkpt lat="31.1284523010253906" lon="-6.9664168357849121">
        <ele>1320.0</ele>
        <time>2018-10-12T14:00:03.000Z</time>
      </trkpt>
      <trkpt lat="31.1284904479980469" lon="-6.9663991928100586">
        <ele>1320.61572265625</ele>
        <time>2018-10-12T14:00:04.000Z</time>
      </trkpt>
      <trkpt lat="31.1285285949707031" lon="-6.9663810729980469">
        <ele>1321.0</ele>
        <time>2018-10-12T14:00:05.000Z</time>
      </trkpt>
      <trkpt lat="31.1285667419433594" lon="-6.9663610458374023">
        <ele>1321.0</ele>
        <time>2018-10-12T14:00:06.000Z</time>
      </trkpt>
      <trkpt lat="31.1286048889160156" lon="-6.9663429260253906">
        <ele>1321.0</ele>
        <time>2018-10-12T14:00:07.000Z</time>
      </trkpt>
      <trkpt lat="31.1286411285400391" lon="-6.9663248062133789">
        <ele>1321.0</ele>
        <time>2018-10-12T14:00:08.000Z</time>
      </trkpt>
      <trkpt lat="31.1286773681640625" lon="-6.9663071632385254">
        <ele>1321.0</ele>
        <time>2018-10-12T14:00:09.000Z</time>
      </trkpt>
      <trkpt lat="31.1287155151367188" lon="-6.9662899971008301">
        <ele>1321.0</ele>
        <time>2018-10-12T14:00:10.000Z</time>
      </trkpt>
      <trkpt lat="31.1287517547607422" lon="-6.9662718772888184">
        <ele>1321.0</ele>
        <time>2018-10-12T14:00:11.000Z</time>
      </trkpt>
      <trkpt lat="31.1287899017333984" lon="-6.9662542343139648">
        <ele>1321.0</ele>
        <time>2018-10-12T14:00:12.000Z</time>
      </trkpt>
      <trkpt lat="31.1288242340087891" lon="-6.9662361145019531">
        <ele>1321.0</ele>
        <time>2018-10-12T14:00:13.000Z</time>
      </trkpt>
      <trkpt lat="31.1288623809814453" lon="-6.9662179946899414">
        <ele>1321.0</ele>
        <time>2018-10-12T14:00:14.000Z</time>
      </trkpt>
      <trkpt lat="31.1289005279541016" lon="-6.9661989212036133">
        <ele>1321.0</ele>
        <time>2018-10-12T14:00:15.000Z</time>
      </trkpt>
      <trkpt lat="31.1289386749267578" lon="-6.9661798477172852">
        <ele>1321.0</ele>
        <time>2018-10-12T14:00:16.000Z</time>
      </trkpt>
      <trkpt lat="31.1289749145507812" lon="-6.9661622047424316">
        <ele>1321.0</ele>
        <time>2018-10-12T14:00:17.000Z</time>
      </trkpt>
      <trkpt lat="31.1290130615234375" lon="-6.9661440849304199">
        <ele>1321.0</ele>
        <time>2018-10-12T14:00:18.000Z</time>
      </trkpt>
      <trkpt lat="31.1290493011474609" lon="-6.9661240577697754">
        <ele>1321.0</ele>
        <time>2018-10-12T14:00:19.000Z</time>
      </trkpt>
      <trkpt lat="31.1290874481201172" lon="-6.9661002159118652">
        <ele>1321.0</ele>
        <time>2018-10-12T14:00:20.000Z</time>
      </trkpt>
      <trkpt lat="31.1291217803955078" lon="-6.9660720825195312">
        <ele>1321.0</ele>
        <time>2018-10-12T14:00:21.000Z</time>
      </trkpt>
      <trkpt lat="31.1291542053222656" lon="-6.9660401344299316">
        <ele>1321.0</ele>
        <time>2018-10-12T14:00:22.000Z</time>
      </trkpt>
      <trkpt lat="31.1291847229003906" lon="-6.9660029411315918">
        <ele>1321.0</ele>
        <time>2018-10-12T14:00:23.000Z</time>
      </trkpt>
      <trkpt lat="31.1292114257812500" lon="-6.9659662246704102">
        <ele>1321.0</ele>
        <time>2018-10-12T14:00:24.000Z</time>
      </trkpt>
      <trkpt lat="31.1292343139648438" lon="-6.9659290313720703">
        <ele>1321.0</ele>
        <time>2018-10-12T14:00:25.000Z</time>
      </trkpt>
      <trkpt lat="31.1292533874511719" lon="-6.9658918380737305">
        <ele>1321.0</ele>
        <time>2018-10-12T14:00:26.000Z</time>
      </trkpt>
      <trkpt lat="31.1292743682861328" lon="-6.9658532142639160">
        <ele>1321.0</ele>
        <time>2018-10-12T14:00:27.000Z</time>
      </trkpt>
      <trkpt lat="31.1292991638183594" lon="-6.9658131599426270">
        <ele>1321.0</ele>
        <time>2018-10-12T14:00:28.000Z</time>
      </trkpt>
      <trkpt lat="31.1293277740478516" lon="-6.9657731056213379">
        <ele>1321.0</ele>
        <time>2018-10-12T14:00:29.000Z</time>
      </trkpt>
      <trkpt lat="31.1293563842773438" lon="-6.9657330513000488">
        <ele>1321.0</ele>
        <time>2018-10-12T14:00:30.000Z</time>
      </trkpt>
      <trkpt lat="31.1293811798095703" lon="-6.9656929969787598">
        <ele>1321.0</ele>
        <time>2018-10-12T14:00:31.000Z</time>
      </trkpt>
      <trkpt lat="31.1294078826904297" lon="-6.9656558036804199">
        <ele>1321.0</ele>
        <time>2018-10-12T14:00:32.000Z</time>
      </trkpt>
      <trkpt lat="31.1294326782226562" lon="-6.9656229019165039">
        <ele>1321.0</ele>
        <time>2018-10-12T14:00:33.000Z</time>
      </trkpt>
      <trkpt lat="31.1294574737548828" lon="-6.9655928611755371">
        <ele>1321.0</ele>
        <time>2018-10-12T14:00:34.000Z</time>
      </trkpt>
      <trkpt lat="31.1294822692871094" lon="-6.9655637741088867">
        <ele>1321.0</ele>
        <time>2018-10-12T14:00:35.000Z</time>
      </trkpt>
      <trkpt lat="31.1295127868652344" lon="-6.9655342102050781">
        <ele>1321.73095703125</ele>
        <time>2018-10-12T14:00:36.000Z</time>
      </trkpt>
      <trkpt lat="31.1295452117919922" lon="-6.9655051231384277">
        <ele>1322.73095703125</ele>
        <time>2018-10-12T14:00:37.000Z</time>
      </trkpt>
      <trkpt lat="31.1295776367187500" lon="-6.9654779434204102">
        <ele>1323.0</ele>
        <time>2018-10-12T14:00:38.000Z</time>
      </trkpt>
      <trkpt lat="31.1296100616455078" lon="-6.9654521942138672">
        <ele>1323.0</ele>
        <time>2018-10-12T14:00:39.000Z</time>
      </trkpt>
      <trkpt lat="31.1296443939208984" lon="-6.9654240608215332">
        <ele>1323.0</ele>
        <time>2018-10-12T14:00:40.000Z</time>
      </trkpt>
      <trkpt lat="31.1296806335449219" lon="-6.9653978347778320">
        <ele>1323.0</ele>
        <time>2018-10-12T14:00:41.000Z</time>
      </trkpt>
      <trkpt lat="31.1297168731689453" lon="-6.9653730392456055">
        <ele>1322.26904296875</ele>
        <time>2018-10-12T14:00:42.000Z</time>
      </trkpt>
      <trkpt lat="31.1297531127929688" lon="-6.9653477668762207">
        <ele>1322.0</ele>
        <time>2018-10-12T14:00:43.000Z</time>
      </trkpt>
      <trkpt lat="31.1297912597656250" lon="-6.9653220176696777">
        <ele>1322.0</ele>
        <time>2018-10-12T14:00:44.000Z</time>
      </trkpt>
      <trkpt lat="31.1298294067382812" lon="-6.9652972221374512">
        <ele>1322.0</ele>
        <time>2018-10-12T14:00:45.000Z</time>
      </trkpt>
      <trkpt lat="31.1298675537109375" lon="-6.9652719497680664">
        <ele>1322.0</ele>
        <time>2018-10-12T14:00:46.000Z</time>
      </trkpt>
      <trkpt lat="31.1299057006835938" lon="-6.9652471542358398">
        <ele>1322.0</ele>
        <time>2018-10-12T14:00:47.000Z</time>
      </trkpt>
      <trkpt lat="31.1299438476562500" lon="-6.9652237892150879">
        <ele>1322.0</ele>
        <time>2018-10-12T14:00:48.000Z</time>
      </trkpt>
      <trkpt lat="31.1299800872802734" lon="-6.9651999473571777">
        <ele>1322.0</ele>
        <time>2018-10-12T14:00:49.000Z</time>
      </trkpt>
      <trkpt lat="31.1300163269042969" lon="-6.9651761054992676">
        <ele>1322.0</ele>
        <time>2018-10-12T14:00:50.000Z</time>
      </trkpt>
      <trkpt lat="31.1300544738769531" lon="-6.9651541709899902">
        <ele>1322.0</ele>
        <time>2018-10-12T14:00:51.000Z</time>
      </trkpt>
      <trkpt lat="31.1300907135009766" lon="-6.9651298522949219">
        <ele>1322.562255859375</ele>
        <time>2018-10-12T14:00:52.000Z</time>
      </trkpt>
      <trkpt lat="31.1301269531250000" lon="-6.9651069641113281">
        <ele>1323.0</ele>
        <time>2018-10-12T14:00:53.000Z</time>
      </trkpt>
      <trkpt lat="31.1301631927490234" lon="-6.9650831222534180">
        <ele>1323.0</ele>
        <time>2018-10-12T14:00:54.000Z</time>
      </trkpt>
      <trkpt lat="31.1301994323730469" lon="-6.9650588035583496">
        <ele>1323.0</ele>
        <time>2018-10-12T14:00:55.000Z</time>
      </trkpt>
      <trkpt lat="31.1302337646484375" lon="-6.9650368690490723">
        <ele>1323.0</ele>
        <time>2018-10-12T14:00:56.000Z</time>
      </trkpt>
      <trkpt lat="31.1302700042724609" lon="-6.9650149345397949">
        <ele>1323.0</ele>
        <time>2018-10-12T14:00:57.000Z</time>
      </trkpt>
      <trkpt lat="31.1303043365478516" lon="-6.9649930000305176">
        <ele>1323.0</ele>
        <time>2018-10-12T14:00:58.000Z</time>
      </trkpt>
      <trkpt lat="31.1303386688232422" lon="-6.9649710655212402">
        <ele>1323.0</ele>
        <time>2018-10-12T14:00:59.000Z</time>
      </trkpt>
      <trkpt lat="31.1303749084472656" lon="-6.9649491310119629">
        <ele>1323.0</ele>
        <time>2018-10-12T14:01:00.000Z</time>
      </trkpt>
      <trkpt lat="31.1304073333740234" lon="-6.9649291038513184">
        <ele>1323.0</ele>
        <time>2018-10-12T14:01:01.000Z</time>
      </trkpt>
      <trkpt lat="31.1304435729980469" lon="-6.9649090766906738">
        <ele>1323.0</ele>
        <time>2018-10-12T14:01:02.000Z</time>
      </trkpt>
      <trkpt lat="31.1304798126220703" lon="-6.9648890495300293">
        <ele>1323.0</ele>
        <time>2018-10-12T14:01:03.000Z</time>
      </trkpt>
      <trkpt lat="31.1305141448974609" lon="-6.9648680686950684">
        <ele>1323.0</ele>
        <time>2018-10-12T14:01:04.000Z</time>
      </trkpt>
      <trkpt lat="31.1305484771728516" lon="-6.9648470878601074">
        <ele>1323.4151611328125</ele>
        <time>2018-10-12T14:01:05.000Z</time>
      </trkpt>
      <trkpt lat="31.1305847167968750" lon="-6.9648251533508301">
        <ele>1324.0</ele>
        <time>2018-10-12T14:01:06.000Z</time>
      </trkpt>
      <trkpt lat="31.1306190490722656" lon="-6.9648032188415527">
        <ele>1324.0</ele>
        <time>2018-10-12T14:01:07.000Z</time>
      </trkpt>
      <trkpt lat="31.1306552886962891" lon="-6.9647808074951172">
        <ele>1324.0</ele>
        <time>2018-10-12T14:01:08.000Z</time>
      </trkpt>
      <trkpt lat="31.1306896209716797" lon="-6.9647588729858398">
        <ele>1324.0</ele>
        <time>2018-10-12T14:01:09.000Z</time>
      </trkpt>
      <trkpt lat="31.1307258605957031" lon="-6.9647359848022461">
        <ele>1324.0</ele>
        <time>2018-10-12T14:01:10.000Z</time>
      </trkpt>
      <trkpt lat="31.1307601928710938" lon="-6.9647140502929688">
        <ele>1324.0</ele>
        <time>2018-10-12T14:01:11.000Z</time>
      </trkpt>
      <trkpt lat="31.1307964324951172" lon="-6.9646930694580078">
        <ele>1324.0</ele>
        <time>2018-10-12T14:01:12.000Z</time>
      </trkpt>
      <trkpt lat="31.1308307647705078" lon="-6.9646720886230469">
        <ele>1324.0</ele>
        <time>2018-10-12T14:01:13.000Z</time>
      </trkpt>
      <trkpt lat="31.1308650970458984" lon="-6.9646511077880859">
        <ele>1324.0</ele>
        <time>2018-10-12T14:01:14.000Z</time>
      </trkpt>
      <trkpt lat="31.1309013366699219" lon="-6.9646282196044922">
        <ele>1324.0</ele>
        <time>2018-10-12T14:01:15.000Z</time>
      </trkpt>
      <trkpt lat="31.1309375762939453" lon="-6.9646058082580566">
        <ele>1324.0</ele>
        <time>2018-10-12T14:01:16.000Z</time>
      </trkpt>
      <trkpt lat="31.1309738159179688" lon="-6.9645857810974121">
        <ele>1324.0</ele>
        <time>2018-10-12T14:01:17.000Z</time>
      </trkpt>
      <trkpt lat="31.1310100555419922" lon="-6.9645671844482422">
        <ele>1324.0</ele>
        <time>2018-10-12T14:01:18.000Z</time>
      </trkpt>
      <trkpt lat="31.1310462951660156" lon="-6.9645462036132812">
        <ele>1324.0</ele>
        <time>2018-10-12T14:01:19.000Z</time>
      </trkpt>
      <trkpt lat="31.1310844421386719" lon="-6.9645261764526367">
        <ele>1324.0</ele>
        <time>2018-10-12T14:01:20.000Z</time>
      </trkpt>
      <trkpt lat="31.1311206817626953" lon="-6.9645061492919922">
        <ele>1324.0</ele>
        <time>2018-10-12T14:01:21.000Z</time>
      </trkpt>
      <trkpt lat="31.1311569213867188" lon="-6.9644861221313477">
        <ele>1324.0</ele>
        <time>2018-10-12T14:01:22.000Z</time>
      </trkpt>
      <trkpt lat="31.1311912536621094" lon="-6.9644651412963867">
        <ele>1324.0</ele>
        <time>2018-10-12T14:01:23.000Z</time>
      </trkpt>
      <trkpt lat="31.1312274932861328" lon="-6.9644441604614258">
        <ele>1324.0</ele>
        <time>2018-10-12T14:01:24.000Z</time>
      </trkpt>
      <trkpt lat="31.1312637329101562" lon="-6.9644231796264648">
        <ele>1324.61572265625</ele>
        <time>2018-10-12T14:01:25.000Z</time>
      </trkpt>
      <trkpt lat="31.1312999725341797" lon="-6.9644021987915039">
        <ele>1325.0</ele>
        <time>2018-10-12T14:01:26.000Z</time>
      </trkpt>
      <trkpt lat="31.1313381195068359" lon="-6.9643821716308594">
        <ele>1325.0</ele>
        <time>2018-10-12T14:01:27.000Z</time>
      </trkpt>
      <trkpt lat="31.1313743591308594" lon="-6.9643611907958984">
        <ele>1325.0</ele>
        <time>2018-10-12T14:01:28.000Z</time>
      </trkpt>
      <trkpt lat="31.1314125061035156" lon="-6.9643411636352539">
        <ele>1325.0</ele>
        <time>2018-10-12T14:01:29.000Z</time>
      </trkpt>
      <trkpt lat="31.1314525604248047" lon="-6.9643220901489258">
        <ele>1325.0</ele>
        <time>2018-10-12T14:01:30.000Z</time>
      </trkpt>
      <trkpt lat="31.1314907073974609" lon="-6.9643030166625977">
        <ele>1325.0</ele>
        <time>2018-10-12T14:01:31.000Z</time>
      </trkpt>
      <trkpt lat="31.1315288543701172" lon="-6.9642848968505859">
        <ele>1325.0</ele>
        <time>2018-10-12T14:01:32.000Z</time>
      </trkpt>
      <trkpt lat="31.1315689086914062" lon="-6.9642682075500488">
        <ele>1325.0</ele>
        <time>2018-10-12T14:01:33.000Z</time>
      </trkpt>
      <trkpt lat="31.1316070556640625" lon="-6.9642529487609863">
        <ele>1325.0</ele>
        <time>2018-10-12T14:01:34.000Z</time>
      </trkpt>
      <trkpt lat="31.1316452026367188" lon="-6.9642381668090820">
        <ele>1325.0</ele>
        <time>2018-10-12T14:01:35.000Z</time>
      </trkpt>
      <trkpt lat="31.1316852569580078" lon="-6.9642229080200195">
        <ele>1325.0</ele>
        <time>2018-10-12T14:01:36.000Z</time>
      </trkpt>
      <trkpt lat="31.1317234039306641" lon="-6.9642109870910645">
        <ele>1325.0</ele>
        <time>2018-10-12T14:01:37.000Z</time>
      </trkpt>
      <trkpt lat="31.1317615509033203" lon="-6.9642009735107422">
        <ele>1325.0</ele>
        <time>2018-10-12T14:01:38.000Z</time>
      </trkpt>
      <trkpt lat="31.1317977905273438" lon="-6.9641909599304199">
        <ele>1325.0</ele>
        <time>2018-10-12T14:01:39.000Z</time>
      </trkpt>
      <trkpt lat="31.1318321228027344" lon="-6.9641799926757812">
        <ele>1325.0</ele>
        <time>2018-10-12T14:01:40.000Z</time>
      </trkpt>
      <trkpt lat="31.1318683624267578" lon="-6.9641690254211426">
        <ele>1325.0</ele>
        <time>2018-10-12T14:01:41.000Z</time>
      </trkpt>
      <trkpt lat="31.1319046020507812" lon="-6.9641551971435547">
        <ele>1325.0</ele>
        <time>2018-10-12T14:01:42.000Z</time>
      </trkpt>
      <trkpt lat="31.1319427490234375" lon="-6.9641418457031250">
        <ele>1325.0</ele>
        <time>2018-10-12T14:01:43.000Z</time>
      </trkpt>
      <trkpt lat="31.1319789886474609" lon="-6.9641299247741699">
        <ele>1325.0</ele>
        <time>2018-10-12T14:01:44.000Z</time>
      </trkpt>
      <trkpt lat="31.1320152282714844" lon="-6.9641180038452148">
        <ele>1325.0</ele>
        <time>2018-10-12T14:01:45.000Z</time>
      </trkpt>
      <trkpt lat="31.1320514678955078" lon="-6.9641070365905762">
        <ele>1325.0</ele>
        <time>2018-10-12T14:01:46.000Z</time>
      </trkpt>
      <trkpt lat="31.1320858001708984" lon="-6.9640970230102539">
        <ele>1325.73095703125</ele>
        <time>2018-10-12T14:01:47.000Z</time>
      </trkpt>
      <trkpt lat="31.1321182250976562" lon="-6.9640860557556152">
        <ele>1326.0</ele>
        <time>2018-10-12T14:01:48.000Z</time>
      </trkpt>
      <trkpt lat="31.1321506500244141" lon="-6.9640731811523438">
        <ele>1326.0</ele>
        <time>2018-10-12T14:01:49.000Z</time>
      </trkpt>
      <trkpt lat="31.1321830749511719" lon="-6.9640631675720215">
        <ele>1326.0</ele>
        <time>2018-10-12T14:01:50.000Z</time>
      </trkpt>
      <trkpt lat="31.1322154998779297" lon="-6.9640541076660156">
        <ele>1326.0</ele>
        <time>2018-10-12T14:01:51.000Z</time>
      </trkpt>
      <trkpt lat="31.1322479248046875" lon="-6.9640469551086426">
        <ele>1326.0</ele>
        <time>2018-10-12T14:01:52.000Z</time>
      </trkpt>
      <trkpt lat="31.1322803497314453" lon="-6.9640388488769531">
        <ele>1326.0</ele>
        <time>2018-10-12T14:01:53.000Z</time>
      </trkpt>
      <trkpt lat="31.1323146820068359" lon="-6.9640312194824219">
        <ele>1326.0</ele>
        <time>2018-10-12T14:01:54.000Z</time>
      </trkpt>
      <trkpt lat="31.1323490142822266" lon="-6.9640231132507324">
        <ele>1326.728271484375</ele>
        <time>2018-10-12T14:01:55.000Z</time>
      </trkpt>
      <trkpt lat="31.1323833465576172" lon="-6.9640150070190430">
        <ele>1327.0</ele>
        <time>2018-10-12T14:01:56.000Z</time>
      </trkpt>
      <trkpt lat="31.1324176788330078" lon="-6.9640069007873535">
        <ele>1327.0</ele>
        <time>2018-10-12T14:01:57.000Z</time>
      </trkpt>
      <trkpt lat="31.1324520111083984" lon="-6.9639987945556641">
        <ele>1327.0</ele>
        <time>2018-10-12T14:01:58.000Z</time>
      </trkpt>
      <trkpt lat="31.1324863433837891" lon="-6.9639911651611328">
        <ele>1327.0</ele>
        <time>2018-10-12T14:01:59.000Z</time>
      </trkpt>
      <trkpt lat="31.1325187683105469" lon="-6.9639830589294434">
        <ele>1327.0</ele>
        <time>2018-10-12T14:02:00.000Z</time>
      </trkpt>
      <trkpt lat="31.1325511932373047" lon="-6.9639749526977539">
        <ele>1327.0</ele>
        <time>2018-10-12T14:02:01.000Z</time>
      </trkpt>
      <trkpt lat="31.1325836181640625" lon="-6.9639658927917480">
        <ele>1327.0</ele>
        <time>2018-10-12T14:02:02.000Z</time>
      </trkpt>
      <trkpt lat="31.1326179504394531" lon="-6.9639577865600586">
        <ele>1327.0</ele>
        <time>2018-10-12T14:02:03.000Z</time>
      </trkpt>
      <trkpt lat="31.1326503753662109" lon="-6.9639501571655273">
        <ele>1327.0</ele>
        <time>2018-10-12T14:02:04.000Z</time>
      </trkpt>
      <trkpt lat="31.1326866149902344" lon="-6.9639410972595215">
        <ele>1327.0</ele>
        <time>2018-10-12T14:02:05.000Z</time>
      </trkpt>
      <trkpt lat="31.1327209472656250" lon="-6.9639320373535156">
        <ele>1327.0</ele>
        <time>2018-10-12T14:02:06.000Z</time>
      </trkpt>
      <trkpt lat="31.1327533721923828" lon="-6.9639229774475098">
        <ele>1327.0</ele>
        <time>2018-10-12T14:02:07.000Z</time>
      </trkpt>
      <trkpt lat="31.1327877044677734" lon="-6.9639139175415039">
        <ele>1327.0</ele>
        <time>2018-10-12T14:02:08.000Z</time>
      </trkpt>
      <trkpt lat="31.1328220367431641" lon="-6.9639039039611816">
        <ele>1327.0</ele>
        <time>2018-10-12T14:02:09.000Z</time>
      </trkpt>
      <trkpt lat="31.1328563690185547" lon="-6.9638929367065430">
        <ele>1327.0</ele>
        <time>2018-10-12T14:02:10.000Z</time>
      </trkpt>
      <trkpt lat="31.1328907012939453" lon="-6.9638829231262207">
        <ele>1327.0</ele>
        <time>2018-10-12T14:02:11.000Z</time>
      </trkpt>
      <trkpt lat="31.1329269409179688" lon="-6.9638729095458984">
        <ele>1327.0</ele>
        <time>2018-10-12T14:02:12.000Z</time>
      </trkpt>
      <trkpt lat="31.1329593658447266" lon="-6.9638619422912598">
        <ele>1327.0</ele>
        <time>2018-10-12T14:02:13.000Z</time>
      </trkpt>
      <trkpt lat="31.1329956054687500" lon="-6.9638509750366211">
        <ele>1327.0</ele>
        <time>2018-10-12T14:02:14.000Z</time>
      </trkpt>
      <trkpt lat="31.1330318450927734" lon="-6.9638400077819824">
        <ele>1327.0</ele>
        <time>2018-10-12T14:02:15.000Z</time>
      </trkpt>
      <trkpt lat="31.1330642700195312" lon="-6.9638290405273438">
        <ele>1327.0</ele>
        <time>2018-10-12T14:02:16.000Z</time>
      </trkpt>
      <trkpt lat="31.1331005096435547" lon="-6.9638180732727051">
        <ele>1327.0</ele>
        <time>2018-10-12T14:02:17.000Z</time>
      </trkpt>
      <trkpt lat="31.1331348419189453" lon="-6.9638071060180664">
        <ele>1327.0</ele>
        <time>2018-10-12T14:02:18.000Z</time>
      </trkpt>
      <trkpt lat="31.1331691741943359" lon="-6.9637951850891113">
        <ele>1327.0</ele>
        <time>2018-10-12T14:02:19.000Z</time>
      </trkpt>
      <trkpt lat="31.1332035064697266" lon="-6.9637818336486816">
        <ele>1327.0</ele>
        <time>2018-10-12T14:02:20.000Z</time>
      </trkpt>
      <trkpt lat="31.1332378387451172" lon="-6.9637680053710938">
        <ele>1327.0</ele>
        <time>2018-10-12T14:02:21.000Z</time>
      </trkpt>
      <trkpt lat="31.1332721710205078" lon="-6.9637551307678223">
        <ele>1327.0</ele>
        <time>2018-10-12T14:02:22.000Z</time>
      </trkpt>
      <trkpt lat="31.1333065032958984" lon="-6.9637417793273926">
        <ele>1327.0</ele>
        <time>2018-10-12T14:02:23.000Z</time>
      </trkpt>
      <trkpt lat="31.1333408355712891" lon="-6.9637289047241211">
        <ele>1327.0</ele>
        <time>2018-10-12T14:02:24.000Z</time>
      </trkpt>
      <trkpt lat="31.1333732604980469" lon="-6.9637160301208496">
        <ele>1327.0</ele>
        <time>2018-10-12T14:02:25.000Z</time>
      </trkpt>
      <trkpt lat="31.1334075927734375" lon="-6.9637007713317871">
        <ele>1327.0</ele>
        <time>2018-10-12T14:02:26.000Z</time>
      </trkpt>
      <trkpt lat="31.1334419250488281" lon="-6.9636859893798828">
        <ele>1327.0</ele>
        <time>2018-10-12T14:02:27.000Z</time>
      </trkpt>
      <trkpt lat="31.1334762573242188" lon="-6.9636731147766113">
        <ele>1327.0</ele>
        <time>2018-10-12T14:02:28.000Z</time>
      </trkpt>
      <trkpt lat="31.1335086822509766" lon="-6.9636597633361816">
        <ele>1327.0</ele>
        <time>2018-10-12T14:02:29.000Z</time>
      </trkpt>
      <trkpt lat="31.1335411071777344" lon="-6.9636468887329102">
        <ele>1327.0</ele>
        <time>2018-10-12T14:02:30.000Z</time>
      </trkpt>
      <trkpt lat="31.1335754394531250" lon="-6.9636330604553223">
        <ele>1327.0</ele>
        <time>2018-10-12T14:02:31.000Z</time>
      </trkpt>
      <trkpt lat="31.1336116790771484" lon="-6.9636178016662598">
        <ele>1327.0</ele>
        <time>2018-10-12T14:02:32.000Z</time>
      </trkpt>
      <trkpt lat="31.1336460113525391" lon="-6.9636039733886719">
        <ele>1327.0</ele>
        <time>2018-10-12T14:02:33.000Z</time>
      </trkpt>
      <trkpt lat="31.1336803436279297" lon="-6.9635901451110840">
        <ele>1327.0</ele>
        <time>2018-10-12T14:02:34.000Z</time>
      </trkpt>
      <trkpt lat="31.1337127685546875" lon="-6.9635758399963379">
        <ele>1327.0</ele>
        <time>2018-10-12T14:02:35.000Z</time>
      </trkpt>
      <trkpt lat="31.1337451934814453" lon="-6.9635620117187500">
        <ele>1327.0</ele>
        <time>2018-10-12T14:02:36.000Z</time>
      </trkpt>
      <trkpt lat="31.1337776184082031" lon="-6.9635500907897949">
        <ele>1327.0</ele>
        <time>2018-10-12T14:02:37.000Z</time>
      </trkpt>
      <trkpt lat="31.1338119506835938" lon="-6.9635391235351562">
        <ele>1327.0</ele>
        <time>2018-10-12T14:02:38.000Z</time>
      </trkpt>
      <trkpt lat="31.1338443756103516" lon="-6.9635281562805176">
        <ele>1327.0</ele>
        <time>2018-10-12T14:02:39.000Z</time>
      </trkpt>
      <trkpt lat="31.1338768005371094" lon="-6.9635162353515625">
        <ele>1327.5579833984375</ele>
        <time>2018-10-12T14:02:40.000Z</time>
      </trkpt>
      <trkpt lat="31.1339092254638672" lon="-6.9635028839111328">
        <ele>1328.0</ele>
        <time>2018-10-12T14:02:41.000Z</time>
      </trkpt>
      <trkpt lat="31.1339435577392578" lon="-6.9634900093078613">
        <ele>1328.0</ele>
        <time>2018-10-12T14:02:42.000Z</time>
      </trkpt>
      <trkpt lat="31.1339740753173828" lon="-6.9634771347045898">
        <ele>1328.0</ele>
        <time>2018-10-12T14:02:43.000Z</time>
      </trkpt>
      <trkpt lat="31.1340065002441406" lon="-6.9634628295898438">
        <ele>1328.0</ele>
        <time>2018-10-12T14:02:44.000Z</time>
      </trkpt>
      <trkpt lat="31.1340408325195312" lon="-6.9634480476379395">
        <ele>1328.0</ele>
        <time>2018-10-12T14:02:45.000Z</time>
      </trkpt>
      <trkpt lat="31.1340713500976562" lon="-6.9634327888488770">
        <ele>1328.0</ele>
        <time>2018-10-12T14:02:46.000Z</time>
      </trkpt>
      <trkpt lat="31.1341037750244141" lon="-6.9634180068969727">
        <ele>1328.0</ele>
        <time>2018-10-12T14:02:47.000Z</time>
      </trkpt>
      <trkpt lat="31.1341361999511719" lon="-6.9634041786193848">
        <ele>1328.0</ele>
        <time>2018-10-12T14:02:48.000Z</time>
      </trkpt>
      <trkpt lat="31.1341705322265625" lon="-6.9633917808532715">
        <ele>1328.0</ele>
        <time>2018-10-12T14:02:49.000Z</time>
      </trkpt>
      <trkpt lat="31.1342048645019531" lon="-6.9633798599243164">
        <ele>1328.0</ele>
        <time>2018-10-12T14:02:50.000Z</time>
      </trkpt>
      <trkpt lat="31.1342372894287109" lon="-6.9633660316467285">
        <ele>1328.0</ele>
        <time>2018-10-12T14:02:51.000Z</time>
      </trkpt>
      <trkpt lat="31.1342716217041016" lon="-6.9633531570434570">
        <ele>1328.0</ele>
        <time>2018-10-12T14:02:52.000Z</time>
      </trkpt>
      <trkpt lat="31.1343059539794922" lon="-6.9633378982543945">
        <ele>1328.0</ele>
        <time>2018-10-12T14:02:53.000Z</time>
      </trkpt>
      <trkpt lat="31.1343402862548828" lon="-6.9633240699768066">
        <ele>1328.0</ele>
        <time>2018-10-12T14:02:54.000Z</time>
      </trkpt>
      <trkpt lat="31.1343727111816406" lon="-6.9633097648620605">
        <ele>1328.0</ele>
        <time>2018-10-12T14:02:55.000Z</time>
      </trkpt>
      <trkpt lat="31.1344089508056641" lon="-6.9632968902587891">
        <ele>1328.0</ele>
        <time>2018-10-12T14:02:56.000Z</time>
      </trkpt>
      <trkpt lat="31.1344413757324219" lon="-6.9632830619812012">
        <ele>1328.0</ele>
        <time>2018-10-12T14:02:57.000Z</time>
      </trkpt>
      <trkpt lat="31.1344776153564453" lon="-6.9632701873779297">
        <ele>1328.0</ele>
        <time>2018-10-12T14:02:58.000Z</time>
      </trkpt>
      <trkpt lat="31.1345138549804688" lon="-6.9632568359375000">
        <ele>1328.0</ele>
        <time>2018-10-12T14:02:59.000Z</time>
      </trkpt>
      <trkpt lat="31.1345481872558594" lon="-6.9632430076599121">
        <ele>1328.0</ele>
        <time>2018-10-12T14:03:00.000Z</time>
      </trkpt>
      <trkpt lat="31.1345825195312500" lon="-6.9632301330566406">
        <ele>1328.0</ele>
        <time>2018-10-12T14:03:01.000Z</time>
      </trkpt>
      <trkpt lat="31.1346187591552734" lon="-6.9632167816162109">
        <ele>1328.0</ele>
        <time>2018-10-12T14:03:02.000Z</time>
      </trkpt>
      <trkpt lat="31.1346511840820312" lon="-6.9632048606872559">
        <ele>1328.0</ele>
        <time>2018-10-12T14:03:03.000Z</time>
      </trkpt>
      <trkpt lat="31.1346817016601562" lon="-6.9631938934326172">
        <ele>1328.0</ele>
        <time>2018-10-12T14:03:04.000Z</time>
      </trkpt>
      <trkpt lat="31.1347122192382812" lon="-6.9631829261779785">
        <ele>1328.0</ele>
        <time>2018-10-12T14:03:05.000Z</time>
      </trkpt>
      <trkpt lat="31.1347408294677734" lon="-6.9631719589233398">
        <ele>1328.73095703125</ele>
        <time>2018-10-12T14:03:06.000Z</time>
      </trkpt>
      <trkpt lat="31.1347732543945312" lon="-6.9631600379943848">
        <ele>1329.0</ele>
        <time>2018-10-12T14:03:07.000Z</time>
      </trkpt>
      <trkpt lat="31.1348075866699219" lon="-6.9631481170654297">
        <ele>1329.0</ele>
        <time>2018-10-12T14:03:08.000Z</time>
      </trkpt>
      <trkpt lat="31.1348438262939453" lon="-6.9631371498107910">
        <ele>1329.0</ele>
        <time>2018-10-12T14:03:09.000Z</time>
      </trkpt>
      <trkpt lat="31.1348762512207031" lon="-6.9631252288818359">
        <ele>1329.0</ele>
        <time>2018-10-12T14:03:10.000Z</time>
      </trkpt>
      <trkpt lat="31.1349086761474609" lon="-6.9631152153015137">
        <ele>1329.0</ele>
        <time>2018-10-12T14:03:11.000Z</time>
      </trkpt>
      <trkpt lat="31.1349372863769531" lon="-6.9631061553955078">
        <ele>1329.0</ele>
        <time>2018-10-12T14:03:12.000Z</time>
      </trkpt>
      <trkpt lat="31.1349678039550781" lon="-6.9630951881408691">
        <ele>1329.0</ele>
        <time>2018-10-12T14:03:13.000Z</time>
      </trkpt>
      <trkpt lat="31.1349983215332031" lon="-6.9630827903747559">
        <ele>1329.0</ele>
        <time>2018-10-12T14:03:14.000Z</time>
      </trkpt>
      <trkpt lat="31.1350326538085938" lon="-6.9630718231201172">
        <ele>1329.0</ele>
        <time>2018-10-12T14:03:15.000Z</time>
      </trkpt>
      <trkpt lat="31.1350708007812500" lon="-6.9630589485168457">
        <ele>1329.0</ele>
        <time>2018-10-12T14:03:16.000Z</time>
      </trkpt>
      <trkpt lat="31.1351070404052734" lon="-6.9630451202392578">
        <ele>1329.0</ele>
        <time>2018-10-12T14:03:17.000Z</time>
      </trkpt>
      <trkpt lat="31.1351413726806641" lon="-6.9630308151245117">
        <ele>1329.0</ele>
        <time>2018-10-12T14:03:18.000Z</time>
      </trkpt>
      <trkpt lat="31.1351757049560547" lon="-6.9630179405212402">
        <ele>1329.0</ele>
        <time>2018-10-12T14:03:19.000Z</time>
      </trkpt>
      <trkpt lat="31.1352138519287109" lon="-6.9630041122436523">
        <ele>1329.0</ele>
        <time>2018-10-12T14:03:20.000Z</time>
      </trkpt>
      <trkpt lat="31.1352519989013672" lon="-6.9629898071289062">
        <ele>1329.0</ele>
        <time>2018-10-12T14:03:21.000Z</time>
      </trkpt>
      <trkpt lat="31.1352901458740234" lon="-6.9629740715026855">
        <ele>1329.0</ele>
        <time>2018-10-12T14:03:22.000Z</time>
      </trkpt>
      <trkpt lat="31.1353282928466797" lon="-6.9629588127136230">
        <ele>1329.0</ele>
        <time>2018-10-12T14:03:23.000Z</time>
      </trkpt>
      <trkpt lat="31.1353626251220703" lon="-6.9629449844360352">
        <ele>1329.0</ele>
        <time>2018-10-12T14:03:24.000Z</time>
      </trkpt>
      <trkpt lat="31.1353969573974609" lon="-6.9629311561584473">
        <ele>1329.0</ele>
        <time>2018-10-12T14:03:25.000Z</time>
      </trkpt>
      <trkpt lat="31.1354293823242188" lon="-6.9629158973693848">
        <ele>1329.0</ele>
        <time>2018-10-12T14:03:26.000Z</time>
      </trkpt>
      <trkpt lat="31.1354598999023438" lon="-6.9629030227661133">
        <ele>1329.0</ele>
        <time>2018-10-12T14:03:27.000Z</time>
      </trkpt>
      <trkpt lat="31.1354885101318359" lon="-6.9628901481628418">
        <ele>1329.0</ele>
        <time>2018-10-12T14:03:28.000Z</time>
      </trkpt>
      <trkpt lat="31.1355209350585938" lon="-6.9628748893737793">
        <ele>1329.73095703125</ele>
        <time>2018-10-12T14:03:29.000Z</time>
      </trkpt>
      <trkpt lat="31.1355571746826172" lon="-6.9628591537475586">
        <ele>1330.0</ele>
        <time>2018-10-12T14:03:30.000Z</time>
      </trkpt>
      <trkpt lat="31.1355953216552734" lon="-6.9628419876098633">
        <ele>1330.0</ele>
        <time>2018-10-12T14:03:31.000Z</time>
      </trkpt>
      <trkpt lat="31.1356334686279297" lon="-6.9628229141235352">
        <ele>1330.0</ele>
        <time>2018-10-12T14:03:32.000Z</time>
      </trkpt>
      <trkpt lat="31.1356716156005859" lon="-6.9628062248229980">
        <ele>1330.0</ele>
        <time>2018-10-12T14:03:33.000Z</time>
      </trkpt>
      <trkpt lat="31.1357078552246094" lon="-6.9627890586853027">
        <ele>1330.0</ele>
        <time>2018-10-12T14:03:34.000Z</time>
      </trkpt>
      <trkpt lat="31.1357402801513672" lon="-6.9627718925476074">
        <ele>1330.0</ele>
        <time>2018-10-12T14:03:35.000Z</time>
      </trkpt>
      <trkpt lat="31.1357727050781250" lon="-6.9627537727355957">
        <ele>1330.0</ele>
        <time>2018-10-12T14:03:36.000Z</time>
      </trkpt>
      <trkpt lat="31.1358032226562500" lon="-6.9627351760864258">
        <ele>1330.0</ele>
        <time>2018-10-12T14:03:37.000Z</time>
      </trkpt>
      <trkpt lat="31.1358375549316406" lon="-6.9627161026000977">
        <ele>1330.0</ele>
        <time>2018-10-12T14:03:38.000Z</time>
      </trkpt>
      <trkpt lat="31.1358757019042969" lon="-6.9626979827880859">
        <ele>1330.0</ele>
        <time>2018-10-12T14:03:39.000Z</time>
      </trkpt>
      <trkpt lat="31.1359138488769531" lon="-6.9626798629760742">
        <ele>1330.0</ele>
        <time>2018-10-12T14:03:40.000Z</time>
      </trkpt>
      <trkpt lat="31.1359539031982422" lon="-6.9626641273498535">
        <ele>1330.0</ele>
        <time>2018-10-12T14:03:41.000Z</time>
      </trkpt>
      <trkpt lat="31.1359882354736328" lon="-6.9626507759094238">
        <ele>1330.0</ele>
        <time>2018-10-12T14:03:42.000Z</time>
      </trkpt>
      <trkpt lat="31.1360206604003906" lon="-6.9626359939575195">
        <ele>1330.0</ele>
        <time>2018-10-12T14:03:43.000Z</time>
      </trkpt>
      <trkpt lat="31.1360492706298828" lon="-6.9626221656799316">
        <ele>1330.73095703125</ele>
        <time>2018-10-12T14:03:44.000Z</time>
      </trkpt>
      <trkpt lat="31.1360797882080078" lon="-6.9626049995422363">
        <ele>1331.0</ele>
        <time>2018-10-12T14:03:45.000Z</time>
      </trkpt>
      <trkpt lat="31.1361122131347656" lon="-6.9625849723815918">
        <ele>1331.0</ele>
        <time>2018-10-12T14:03:46.000Z</time>
      </trkpt>
      <trkpt lat="31.1361465454101562" lon="-6.9625630378723145">
        <ele>1331.0</ele>
        <time>2018-10-12T14:03:47.000Z</time>
      </trkpt>
      <trkpt lat="31.1361827850341797" lon="-6.9625430107116699">
        <ele>1331.0</ele>
        <time>2018-10-12T14:03:48.000Z</time>
      </trkpt>
      <trkpt lat="31.1362133026123047" lon="-6.9625220298767090">
        <ele>1331.0</ele>
        <time>2018-10-12T14:03:49.000Z</time>
      </trkpt>
      <trkpt lat="31.1362438201904297" lon="-6.9625020027160645">
        <ele>1331.0</ele>
        <time>2018-10-12T14:03:50.000Z</time>
      </trkpt>
      <trkpt lat="31.1362724304199219" lon="-6.9624810218811035">
        <ele>1331.0</ele>
        <time>2018-10-12T14:03:51.000Z</time>
      </trkpt>
      <trkpt lat="31.1363048553466797" lon="-6.9624571800231934">
        <ele>1331.0</ele>
        <time>2018-10-12T14:03:52.000Z</time>
      </trkpt>
      <trkpt lat="31.1363353729248047" lon="-6.9624319076538086">
        <ele>1331.0</ele>
        <time>2018-10-12T14:03:53.000Z</time>
      </trkpt>
      <trkpt lat="31.1363658905029297" lon="-6.9624061584472656">
        <ele>1331.0</ele>
        <time>2018-10-12T14:03:54.000Z</time>
      </trkpt>
      <trkpt lat="31.1363964080810547" lon="-6.9623818397521973">
        <ele>1331.0</ele>
        <time>2018-10-12T14:03:55.000Z</time>
      </trkpt>
      <trkpt lat="31.1364269256591797" lon="-6.9623589515686035">
        <ele>1331.0</ele>
        <time>2018-10-12T14:03:56.000Z</time>
      </trkpt>
      <trkpt lat="31.1364574432373047" lon="-6.9623351097106934">
        <ele>1331.0</ele>
        <time>2018-10-12T14:03:57.000Z</time>
      </trkpt>
      <trkpt lat="31.1364898681640625" lon="-6.9623131752014160">
        <ele>1331.73095703125</ele>
        <time>2018-10-12T14:03:58.000Z</time>
      </trkpt>
      <trkpt lat="31.1365222930908203" lon="-6.9622921943664551">
        <ele>1332.0</ele>
        <time>2018-10-12T14:03:59.000Z</time>
      </trkpt>
      <trkpt lat="31.1365528106689453" lon="-6.9622759819030762">
        <ele>1332.0</ele>
        <time>2018-10-12T14:04:00.000Z</time>
      </trkpt>
      <trkpt lat="31.1365852355957031" lon="-6.9622621536254883">
        <ele>1332.0</ele>
        <time>2018-10-12T14:04:01.000Z</time>
      </trkpt>
      <trkpt lat="31.1366195678710938" lon="-6.9622511863708496">
        <ele>1332.0</ele>
        <time>2018-10-12T14:04:02.000Z</time>
      </trkpt>
      <trkpt lat="31.1366539001464844" lon="-6.9622402191162109">
        <ele>1332.0</ele>
        <time>2018-10-12T14:04:03.000Z</time>
      </trkpt>
      <trkpt lat="31.1366863250732422" lon="-6.9622340202331543">
        <ele>1332.0</ele>
        <time>2018-10-12T14:04:04.000Z</time>
      </trkpt>
      <trkpt lat="31.1367206573486328" lon="-6.9622321128845215">
        <ele>1332.0</ele>
        <time>2018-10-12T14:04:05.000Z</time>
      </trkpt>
      <trkpt lat="31.1367568969726562" lon="-6.9622321128845215">
        <ele>1332.0</ele>
        <time>2018-10-12T14:04:06.000Z</time>
      </trkpt>
      <trkpt lat="31.1367893218994141" lon="-6.9622321128845215">
        <ele>1332.73095703125</ele>
        <time>2018-10-12T14:04:07.000Z</time>
      </trkpt>
      <trkpt lat="31.1368236541748047" lon="-6.9622340202331543">
        <ele>1333.0</ele>
        <time>2018-10-12T14:04:08.000Z</time>
      </trkpt>
      <trkpt lat="31.1368579864501953" lon="-6.9622378349304199">
        <ele>1333.0</ele>
        <time>2018-10-12T14:04:09.000Z</time>
      </trkpt>
      <trkpt lat="31.1368923187255859" lon="-6.9622440338134766">
        <ele>1333.0</ele>
        <time>2018-10-12T14:04:10.000Z</time>
      </trkpt>
      <trkpt lat="31.1369266510009766" lon="-6.9622502326965332">
        <ele>1333.0</ele>
        <time>2018-10-12T14:04:11.000Z</time>
      </trkpt>
      <trkpt lat="31.1369628906250000" lon="-6.9622559547424316">
        <ele>1333.0</ele>
        <time>2018-10-12T14:04:12.000Z</time>
      </trkpt>
      <trkpt lat="31.1369972229003906" lon="-6.9622659683227539">
        <ele>1333.0</ele>
        <time>2018-10-12T14:04:13.000Z</time>
      </trkpt>
      <trkpt lat="31.1370334625244141" lon="-6.9622740745544434">
        <ele>1333.0</ele>
        <time>2018-10-12T14:04:14.000Z</time>
      </trkpt>
      <trkpt lat="31.1370697021484375" lon="-6.9622821807861328">
        <ele>1333.0</ele>
        <time>2018-10-12T14:04:15.000Z</time>
      </trkpt>
      <trkpt lat="31.1371059417724609" lon="-6.9622879028320312">
        <ele>1333.0</ele>
        <time>2018-10-12T14:04:16.000Z</time>
      </trkpt>
      <trkpt lat="31.1371421813964844" lon="-6.9622941017150879">
        <ele>1333.0</ele>
        <time>2018-10-12T14:04:17.000Z</time>
      </trkpt>
      <trkpt lat="31.1371784210205078" lon="-6.9622988700866699">
        <ele>1333.0</ele>
        <time>2018-10-12T14:04:18.000Z</time>
      </trkpt>
      <trkpt lat="31.1372146606445312" lon="-6.9623022079467773">
        <ele>1333.0</ele>
        <time>2018-10-12T14:04:19.000Z</time>
      </trkpt>
      <trkpt lat="31.1372489929199219" lon="-6.9623041152954102">
        <ele>1333.0</ele>
        <time>2018-10-12T14:04:20.000Z</time>
      </trkpt>
      <trkpt lat="31.1372852325439453" lon="-6.9623050689697266">
        <ele>1333.0</ele>
        <time>2018-10-12T14:04:21.000Z</time>
      </trkpt>
      <trkpt lat="31.1373214721679688" lon="-6.9623060226440430">
        <ele>1333.0</ele>
        <time>2018-10-12T14:04:22.000Z</time>
      </trkpt>
      <trkpt lat="31.1373558044433594" lon="-6.9623041152954102">
        <ele>1333.0</ele>
        <time>2018-10-12T14:04:23.000Z</time>
      </trkpt>
      <trkpt lat="31.1373920440673828" lon="-6.9623041152954102">
        <ele>1333.0</ele>
        <time>2018-10-12T14:04:24.000Z</time>
      </trkpt>
      <trkpt lat="31.1374282836914062" lon="-6.9623050689697266">
        <ele>1333.0</ele>
        <time>2018-10-12T14:04:25.000Z</time>
      </trkpt>
      <trkpt lat="31.1374645233154297" lon="-6.9623079299926758">
        <ele>1333.0</ele>
        <time>2018-10-12T14:04:26.000Z</time>
      </trkpt>
      <trkpt lat="31.1375007629394531" lon="-6.9623098373413086">
        <ele>1333.0</ele>
        <time>2018-10-12T14:04:27.000Z</time>
      </trkpt>
      <trkpt lat="31.1375350952148438" lon="-6.9623122215270996">
        <ele>1333.0</ele>
        <time>2018-10-12T14:04:28.000Z</time>
      </trkpt>
      <trkpt lat="31.1375732421875000" lon="-6.9623141288757324">
        <ele>1333.5579833984375</ele>
        <time>2018-10-12T14:04:29.000Z</time>
      </trkpt>
      <trkpt lat="31.1376094818115234" lon="-6.9623141288757324">
        <ele>1334.0</ele>
        <time>2018-10-12T14:04:30.000Z</time>
      </trkpt>
      <trkpt lat="31.1376476287841797" lon="-6.9623160362243652">
        <ele>1334.0</ele>
        <time>2018-10-12T14:04:31.000Z</time>
      </trkpt>
      <trkpt lat="31.1376857757568359" lon="-6.9623169898986816">
        <ele>1334.0</ele>
        <time>2018-10-12T14:04:32.000Z</time>
      </trkpt>
      <trkpt lat="31.1377220153808594" lon="-6.9623179435729980">
        <ele>1334.0</ele>
        <time>2018-10-12T14:04:33.000Z</time>
      </trkpt>
      <trkpt lat="31.1377582550048828" lon="-6.9623198509216309">
        <ele>1334.0</ele>
        <time>2018-10-12T14:04:34.000Z</time>
      </trkpt>
      <trkpt lat="31.1377944946289062" lon="-6.9623198509216309">
        <ele>1334.0</ele>
        <time>2018-10-12T14:04:35.000Z</time>
      </trkpt>
      <trkpt lat="31.1378326416015625" lon="-6.9623198509216309">
        <ele>1334.0</ele>
        <time>2018-10-12T14:04:36.000Z</time>
      </trkpt>
      <trkpt lat="31.1378707885742188" lon="-6.9623169898986816">
        <ele>1334.0</ele>
        <time>2018-10-12T14:04:37.000Z</time>
      </trkpt>
      <trkpt lat="31.1379089355468750" lon="-6.9623122215270996">
        <ele>1334.0</ele>
        <time>2018-10-12T14:04:38.000Z</time>
      </trkpt>
      <trkpt lat="31.1379451751708984" lon="-6.9623050689697266">
        <ele>1334.0</ele>
        <time>2018-10-12T14:04:39.000Z</time>
      </trkpt>
      <trkpt lat="31.1379833221435547" lon="-6.9622979164123535">
        <ele>1334.0</ele>
        <time>2018-10-12T14:04:40.000Z</time>
      </trkpt>
      <trkpt lat="31.1380195617675781" lon="-6.9622898101806641">
        <ele>1334.0</ele>
        <time>2018-10-12T14:04:41.000Z</time>
      </trkpt>
      <trkpt lat="31.1380577087402344" lon="-6.9622821807861328">
        <ele>1334.0</ele>
        <time>2018-10-12T14:04:42.000Z</time>
      </trkpt>
      <trkpt lat="31.1380920410156250" lon="-6.9622721672058105">
        <ele>1334.0</ele>
        <time>2018-10-12T14:04:43.000Z</time>
      </trkpt>
      <trkpt lat="31.1381282806396484" lon="-6.9622621536254883">
        <ele>1334.0</ele>
        <time>2018-10-12T14:04:44.000Z</time>
      </trkpt>
      <trkpt lat="31.1381645202636719" lon="-6.9622511863708496">
        <ele>1334.0</ele>
        <time>2018-10-12T14:04:45.000Z</time>
      </trkpt>
      <trkpt lat="31.1381988525390625" lon="-6.9622387886047363">
        <ele>1334.0</ele>
        <time>2018-10-12T14:04:46.000Z</time>
      </trkpt>
      <trkpt lat="31.1382350921630859" lon="-6.9622268676757812">
        <ele>1334.0</ele>
        <time>2018-10-12T14:04:47.000Z</time>
      </trkpt>
      <trkpt lat="31.1382713317871094" lon="-6.9622159004211426">
        <ele>1334.73095703125</ele>
        <time>2018-10-12T14:04:48.000Z</time>
      </trkpt>
      <trkpt lat="31.1383056640625000" lon="-6.9622058868408203">
        <ele>1335.0</ele>
        <time>2018-10-12T14:04:49.000Z</time>
      </trkpt>
      <trkpt lat="31.1383380889892578" lon="-6.9621958732604980">
        <ele>1335.0</ele>
        <time>2018-10-12T14:04:50.000Z</time>
      </trkpt>
      <trkpt lat="31.1383705139160156" lon="-6.9621849060058594">
        <ele>1335.0</ele>
        <time>2018-10-12T14:04:51.000Z</time>
      </trkpt>
      <trkpt lat="31.1384029388427734" lon="-6.9621758460998535">
        <ele>1335.0</ele>
        <time>2018-10-12T14:04:52.000Z</time>
      </trkpt>
      <trkpt lat="31.1384353637695312" lon="-6.9621658325195312">
        <ele>1335.0</ele>
        <time>2018-10-12T14:04:53.000Z</time>
      </trkpt>
      <trkpt lat="31.1384677886962891" lon="-6.9621558189392090">
        <ele>1334.4014892578125</ele>
        <time>2018-10-12T14:04:54.000Z</time>
      </trkpt>
      <trkpt lat="31.1384983062744141" lon="-6.9621438980102539">
        <ele>1334.0</ele>
        <time>2018-10-12T14:04:55.000Z</time>
      </trkpt>
      <trkpt lat="31.1385326385498047" lon="-6.9621319770812988">
        <ele>1334.0</ele>
        <time>2018-10-12T14:04:56.000Z</time>
      </trkpt>
      <trkpt lat="31.1385650634765625" lon="-6.9621200561523438">
        <ele>1334.5496826171875</ele>
        <time>2018-10-12T14:04:57.000Z</time>
      </trkpt>
      <trkpt lat="31.1385974884033203" lon="-6.9621062278747559">
        <ele>1335.0</ele>
        <time>2018-10-12T14:04:58.000Z</time>
      </trkpt>
      <trkpt lat="31.1386299133300781" lon="-6.9620919227600098">
        <ele>1335.0</ele>
        <time>2018-10-12T14:04:59.000Z</time>
      </trkpt>
      <trkpt lat="31.1386585235595703" lon="-6.9620800018310547">
        <ele>1335.0</ele>
        <time>2018-10-12T14:05:00.000Z</time>
      </trkpt>
      <trkpt lat="31.1386909484863281" lon="-6.9620661735534668">
        <ele>1335.0</ele>
        <time>2018-10-12T14:05:01.000Z</time>
      </trkpt>
      <trkpt lat="31.1387214660644531" lon="-6.9620509147644043">
        <ele>1335.0</ele>
        <time>2018-10-12T14:05:02.000Z</time>
      </trkpt>
      <trkpt lat="31.1387519836425781" lon="-6.9620351791381836">
        <ele>1335.0</ele>
        <time>2018-10-12T14:05:03.000Z</time>
      </trkpt>
      <trkpt lat="31.1387825012207031" lon="-6.9620199203491211">
        <ele>1335.0</ele>
        <time>2018-10-12T14:05:04.000Z</time>
      </trkpt>
      <trkpt lat="31.1388149261474609" lon="-6.9620051383972168">
        <ele>1335.0</ele>
        <time>2018-10-12T14:05:05.000Z</time>
      </trkpt>
      <trkpt lat="31.1388454437255859" lon="-6.9619908332824707">
        <ele>1335.0</ele>
        <time>2018-10-12T14:05:06.000Z</time>
      </trkpt>
      <trkpt lat="31.1388797760009766" lon="-6.9619760513305664">
        <ele>1335.0</ele>
        <time>2018-10-12T14:05:07.000Z</time>
      </trkpt>
      <trkpt lat="31.1389102935791016" lon="-6.9619622230529785">
        <ele>1335.0</ele>
        <time>2018-10-12T14:05:08.000Z</time>
      </trkpt>
      <trkpt lat="31.1389446258544922" lon="-6.9619479179382324">
        <ele>1335.0</ele>
        <time>2018-10-12T14:05:09.000Z</time>
      </trkpt>
      <trkpt lat="31.1389751434326172" lon="-6.9619350433349609">
        <ele>1335.0</ele>
        <time>2018-10-12T14:05:10.000Z</time>
      </trkpt>
      <trkpt lat="31.1390094757080078" lon="-6.9619250297546387">
        <ele>1335.0</ele>
        <time>2018-10-12T14:05:11.000Z</time>
      </trkpt>
      <trkpt lat="31.1390419006347656" lon="-6.9619159698486328">
        <ele>1335.0</ele>
        <time>2018-10-12T14:05:12.000Z</time>
      </trkpt>
      <trkpt lat="31.1390724182128906" lon="-6.9619078636169434">
        <ele>1335.2275390625</ele>
        <time>2018-10-12T14:05:13.000Z</time>
      </trkpt>
      <trkpt lat="31.1391067504882812" lon="-6.9619021415710449">
        <ele>1336.0</ele>
        <time>2018-10-12T14:05:14.000Z</time>
      </trkpt>
      <trkpt lat="31.1391391754150391" lon="-6.9618968963623047">
        <ele>1336.0</ele>
        <time>2018-10-12T14:05:15.000Z</time>
      </trkpt>
      <trkpt lat="31.1391735076904297" lon="-6.9618921279907227">
        <ele>1336.0</ele>
        <time>2018-10-12T14:05:16.000Z</time>
      </trkpt>
      <trkpt lat="31.1392078399658203" lon="-6.9618887901306152">
        <ele>1336.0</ele>
        <time>2018-10-12T14:05:17.000Z</time>
      </trkpt>
      <trkpt lat="31.1392421722412109" lon="-6.9618859291076660">
        <ele>1336.0</ele>
        <time>2018-10-12T14:05:18.000Z</time>
      </trkpt>
      <trkpt lat="31.1392784118652344" lon="-6.9618840217590332">
        <ele>1336.0</ele>
        <time>2018-10-12T14:05:19.000Z</time>
      </trkpt>
      <trkpt lat="31.1393127441406250" lon="-6.9618821144104004">
        <ele>1336.0</ele>
        <time>2018-10-12T14:05:20.000Z</time>
      </trkpt>
      <trkpt lat="31.1393470764160156" lon="-6.9618802070617676">
        <ele>1336.73095703125</ele>
        <time>2018-10-12T14:05:21.000Z</time>
      </trkpt>
      <trkpt lat="31.1393833160400391" lon="-6.9618778228759766">
        <ele>1337.0</ele>
        <time>2018-10-12T14:05:22.000Z</time>
      </trkpt>
      <trkpt lat="31.1394176483154297" lon="-6.9618759155273438">
        <ele>1337.0</ele>
        <time>2018-10-12T14:05:23.000Z</time>
      </trkpt>
      <trkpt lat="31.1394538879394531" lon="-6.9618749618530273">
        <ele>1337.0</ele>
        <time>2018-10-12T14:05:24.000Z</time>
      </trkpt>
      <trkpt lat="31.1394863128662109" lon="-6.9618740081787109">
        <ele>1337.0</ele>
        <time>2018-10-12T14:05:25.000Z</time>
      </trkpt>
      <trkpt lat="31.1395225524902344" lon="-6.9618730545043945">
        <ele>1337.0</ele>
        <time>2018-10-12T14:05:26.000Z</time>
      </trkpt>
      <trkpt lat="31.1395568847656250" lon="-6.9618730545043945">
        <ele>1337.0</ele>
        <time>2018-10-12T14:05:27.000Z</time>
      </trkpt>
      <trkpt lat="31.1395912170410156" lon="-6.9618721008300781">
        <ele>1337.0</ele>
        <time>2018-10-12T14:05:28.000Z</time>
      </trkpt>
      <trkpt lat="31.1396274566650391" lon="-6.9618701934814453">
        <ele>1337.0</ele>
        <time>2018-10-12T14:05:29.000Z</time>
      </trkpt>
      <trkpt lat="31.1396636962890625" lon="-6.9618649482727051">
        <ele>1337.0</ele>
        <time>2018-10-12T14:05:30.000Z</time>
      </trkpt>
      <trkpt lat="31.1396961212158203" lon="-6.9618568420410156">
        <ele>1337.0</ele>
        <time>2018-10-12T14:05:31.000Z</time>
      </trkpt>
      <trkpt lat="31.1397285461425781" lon="-6.9618477821350098">
        <ele>1337.0</ele>
        <time>2018-10-12T14:05:32.000Z</time>
      </trkpt>
      <trkpt lat="31.1397628784179688" lon="-6.9618377685546875">
        <ele>1337.0</ele>
        <time>2018-10-12T14:05:33.000Z</time>
      </trkpt>
      <trkpt lat="31.1397933959960938" lon="-6.9618248939514160">
        <ele>1337.0</ele>
        <time>2018-10-12T14:05:34.000Z</time>
      </trkpt>
      <trkpt lat="31.1398258209228516" lon="-6.9618101119995117">
        <ele>1337.0</ele>
        <time>2018-10-12T14:05:35.000Z</time>
      </trkpt>
      <trkpt lat="31.1398544311523438" lon="-6.9617929458618164">
        <ele>1337.0</ele>
        <time>2018-10-12T14:05:36.000Z</time>
      </trkpt>
      <trkpt lat="31.1398868560791016" lon="-6.9617738723754883">
        <ele>1337.0</ele>
        <time>2018-10-12T14:05:37.000Z</time>
      </trkpt>
      <trkpt lat="31.1399173736572266" lon="-6.9617547988891602">
        <ele>1337.0</ele>
        <time>2018-10-12T14:05:38.000Z</time>
      </trkpt>
      <trkpt lat="31.1399478912353516" lon="-6.9617347717285156">
        <ele>1337.0</ele>
        <time>2018-10-12T14:05:39.000Z</time>
      </trkpt>
      <trkpt lat="31.1399765014648438" lon="-6.9617128372192383">
        <ele>1337.0</ele>
        <time>2018-10-12T14:05:40.000Z</time>
      </trkpt>
      <trkpt lat="31.1400089263916016" lon="-6.9616909027099609">
        <ele>1337.0</ele>
        <time>2018-10-12T14:05:41.000Z</time>
      </trkpt>
      <trkpt lat="31.1400375366210938" lon="-6.9616680145263672">
        <ele>1337.0</ele>
        <time>2018-10-12T14:05:42.000Z</time>
      </trkpt>
      <trkpt lat="31.1400680541992188" lon="-6.9616451263427734">
        <ele>1337.0</ele>
        <time>2018-10-12T14:05:43.000Z</time>
      </trkpt>
      <trkpt lat="31.1401004791259766" lon="-6.9616222381591797">
        <ele>1337.0</ele>
        <time>2018-10-12T14:05:44.000Z</time>
      </trkpt>
      <trkpt lat="31.1401309967041016" lon="-6.9615998268127441">
        <ele>1337.0</ele>
        <time>2018-10-12T14:05:45.000Z</time>
      </trkpt>
      <trkpt lat="31.1401615142822266" lon="-6.9615778923034668">
        <ele>1337.0</ele>
        <time>2018-10-12T14:05:46.000Z</time>
      </trkpt>
      <trkpt lat="31.1401939392089844" lon="-6.9615569114685059">
        <ele>1337.0</ele>
        <time>2018-10-12T14:05:47.000Z</time>
      </trkpt>
      <trkpt lat="31.1402244567871094" lon="-6.9615359306335449">
        <ele>1337.0</ele>
        <time>2018-10-12T14:05:48.000Z</time>
      </trkpt>
      <trkpt lat="31.1402568817138672" lon="-6.9615159034729004">
        <ele>1337.0</ele>
        <time>2018-10-12T14:05:49.000Z</time>
      </trkpt>
      <trkpt lat="31.1402893066406250" lon="-6.9614968299865723">
        <ele>1337.562744140625</ele>
        <time>2018-10-12T14:05:50.000Z</time>
      </trkpt>
      <trkpt lat="31.1403217315673828" lon="-6.9614782333374023">
        <ele>1338.0</ele>
        <time>2018-10-12T14:05:51.000Z</time>
      </trkpt>
      <trkpt lat="31.1403541564941406" lon="-6.9614601135253906">
        <ele>1338.0</ele>
        <time>2018-10-12T14:05:52.000Z</time>
      </trkpt>
      <trkpt lat="31.1403884887695312" lon="-6.9614419937133789">
        <ele>1338.0</ele>
        <time>2018-10-12T14:05:53.000Z</time>
      </trkpt>
      <trkpt lat="31.1404209136962891" lon="-6.9614229202270508">
        <ele>1338.0</ele>
        <time>2018-10-12T14:05:54.000Z</time>
      </trkpt>
      <trkpt lat="31.1404552459716797" lon="-6.9614048004150391">
        <ele>1338.0</ele>
        <time>2018-10-12T14:05:55.000Z</time>
      </trkpt>
      <trkpt lat="31.1404876708984375" lon="-6.9613871574401855">
        <ele>1338.0</ele>
        <time>2018-10-12T14:05:56.000Z</time>
      </trkpt>
      <trkpt lat="31.1405200958251953" lon="-6.9613690376281738">
        <ele>1338.0</ele>
        <time>2018-10-12T14:05:57.000Z</time>
      </trkpt>
      <trkpt lat="31.1405544281005859" lon="-6.9613518714904785">
        <ele>1338.0</ele>
        <time>2018-10-12T14:05:58.000Z</time>
      </trkpt>
      <trkpt lat="31.1405868530273438" lon="-6.9613361358642578">
        <ele>1338.0</ele>
        <time>2018-10-12T14:05:59.000Z</time>
      </trkpt>
      <trkpt lat="31.1406211853027344" lon="-6.9613189697265625">
        <ele>1338.0</ele>
        <time>2018-10-12T14:06:00.000Z</time>
      </trkpt>
      <trkpt lat="31.1406555175781250" lon="-6.9613018035888672">
        <ele>1338.0</ele>
        <time>2018-10-12T14:06:01.000Z</time>
      </trkpt>
      <trkpt lat="31.1406898498535156" lon="-6.9612851142883301">
        <ele>1338.0</ele>
        <time>2018-10-12T14:06:02.000Z</time>
      </trkpt>
      <trkpt lat="31.1407241821289062" lon="-6.9612689018249512">
        <ele>1338.0</ele>
        <time>2018-10-12T14:06:03.000Z</time>
      </trkpt>
      <trkpt lat="31.1407585144042969" lon="-6.9612531661987305">
        <ele>1338.0</ele>
        <time>2018-10-12T14:06:04.000Z</time>
      </trkpt>
      <trkpt lat="31.1407928466796875" lon="-6.9612369537353516">
        <ele>1338.0</ele>
        <time>2018-10-12T14:06:05.000Z</time>
      </trkpt>
      <trkpt lat="31.1408233642578125" lon="-6.9612212181091309">
        <ele>1338.0</ele>
        <time>2018-10-12T14:06:06.000Z</time>
      </trkpt>
      <trkpt lat="31.1408557891845703" lon="-6.9612050056457520">
        <ele>1338.0</ele>
        <time>2018-10-12T14:06:07.000Z</time>
      </trkpt>
      <trkpt lat="31.1408863067626953" lon="-6.9611887931823730">
        <ele>1338.0</ele>
        <time>2018-10-12T14:06:08.000Z</time>
      </trkpt>
      <trkpt lat="31.1409187316894531" lon="-6.9611740112304688">
        <ele>1338.0</ele>
        <time>2018-10-12T14:06:09.000Z</time>
      </trkpt>
      <trkpt lat="31.1409492492675781" lon="-6.9611592292785645">
        <ele>1338.0</ele>
        <time>2018-10-12T14:06:10.000Z</time>
      </trkpt>
      <trkpt lat="31.1409816741943359" lon="-6.9611430168151855">
        <ele>1338.0</ele>
        <time>2018-10-12T14:06:11.000Z</time>
      </trkpt>
      <trkpt lat="31.1410121917724609" lon="-6.9611291885375977">
        <ele>1338.0</ele>
        <time>2018-10-12T14:06:12.000Z</time>
      </trkpt>
      <trkpt lat="31.1410446166992188" lon="-6.9611158370971680">
        <ele>1338.0</ele>
        <time>2018-10-12T14:06:13.000Z</time>
      </trkpt>
      <trkpt lat="31.1410770416259766" lon="-6.9611001014709473">
        <ele>1338.0</ele>
        <time>2018-10-12T14:06:14.000Z</time>
      </trkpt>
      <trkpt lat="31.1411113739013672" lon="-6.9610829353332520">
        <ele>1338.0</ele>
        <time>2018-10-12T14:06:15.000Z</time>
      </trkpt>
      <trkpt lat="31.1411476135253906" lon="-6.9610671997070312">
        <ele>1338.0</ele>
        <time>2018-10-12T14:06:16.000Z</time>
      </trkpt>
      <trkpt lat="31.1411857604980469" lon="-6.9610509872436523">
        <ele>1338.73095703125</ele>
        <time>2018-10-12T14:06:17.000Z</time>
      </trkpt>
      <trkpt lat="31.1412200927734375" lon="-6.9610347747802734">
        <ele>1339.0</ele>
        <time>2018-10-12T14:06:18.000Z</time>
      </trkpt>
      <trkpt lat="31.1412544250488281" lon="-6.9610199928283691">
        <ele>1339.0</ele>
        <time>2018-10-12T14:06:19.000Z</time>
      </trkpt>
      <trkpt lat="31.1412868499755859" lon="-6.9610061645507812">
        <ele>1339.0</ele>
        <time>2018-10-12T14:06:20.000Z</time>
      </trkpt>
      <trkpt lat="31.1413173675537109" lon="-6.9609918594360352">
        <ele>1339.0</ele>
        <time>2018-10-12T14:06:21.000Z</time>
      </trkpt>
      <trkpt lat="31.1413478851318359" lon="-6.9609770774841309">
        <ele>1339.0</ele>
        <time>2018-10-12T14:06:22.000Z</time>
      </trkpt>
      <trkpt lat="31.1413822174072266" lon="-6.9609608650207520">
        <ele>1339.0</ele>
        <time>2018-10-12T14:06:23.000Z</time>
      </trkpt>
      <trkpt lat="31.1414146423339844" lon="-6.9609451293945312">
        <ele>1339.0</ele>
        <time>2018-10-12T14:06:24.000Z</time>
      </trkpt>
      <trkpt lat="31.1414451599121094" lon="-6.9609298706054688">
        <ele>1339.73095703125</ele>
        <time>2018-10-12T14:06:25.000Z</time>
      </trkpt>
      <trkpt lat="31.1414756774902344" lon="-6.9609150886535645">
        <ele>1340.0</ele>
        <time>2018-10-12T14:06:26.000Z</time>
      </trkpt>
      <trkpt lat="31.1415061950683594" lon="-6.9608988761901855">
        <ele>1340.0</ele>
        <time>2018-10-12T14:06:27.000Z</time>
      </trkpt>
      <trkpt lat="31.1415348052978516" lon="-6.9608831405639648">
        <ele>1340.0</ele>
        <time>2018-10-12T14:06:28.000Z</time>
      </trkpt>
      <trkpt lat="31.1415634155273438" lon="-6.9608688354492188">
        <ele>1340.0</ele>
        <time>2018-10-12T14:06:29.000Z</time>
      </trkpt>
      <trkpt lat="31.1415901184082031" lon="-6.9608550071716309">
        <ele>1340.0</ele>
        <time>2018-10-12T14:06:30.000Z</time>
      </trkpt>
      <trkpt lat="31.1416168212890625" lon="-6.9608387947082520">
        <ele>1340.0</ele>
        <time>2018-10-12T14:06:31.000Z</time>
      </trkpt>
      <trkpt lat="31.1416416168212891" lon="-6.9608221054077148">
        <ele>1340.0</ele>
        <time>2018-10-12T14:06:32.000Z</time>
      </trkpt>
      <trkpt lat="31.1416664123535156" lon="-6.9608049392700195">
        <ele>1340.0</ele>
        <time>2018-10-12T14:06:33.000Z</time>
      </trkpt>
      <trkpt lat="31.1416969299316406" lon="-6.9607877731323242">
        <ele>1340.0</ele>
        <time>2018-10-12T14:06:34.000Z</time>
      </trkpt>
      <trkpt lat="31.1417255401611328" lon="-6.9607710838317871">
        <ele>1340.0</ele>
        <time>2018-10-12T14:06:35.000Z</time>
      </trkpt>
      <trkpt lat="31.1417560577392578" lon="-6.9607539176940918">
        <ele>1340.0</ele>
        <time>2018-10-12T14:06:36.000Z</time>
      </trkpt>
      <trkpt lat="31.1417865753173828" lon="-6.9607348442077637">
        <ele>1340.0</ele>
        <time>2018-10-12T14:06:37.000Z</time>
      </trkpt>
      <trkpt lat="31.1418151855468750" lon="-6.9607138633728027">
        <ele>1340.0</ele>
        <time>2018-10-12T14:06:38.000Z</time>
      </trkpt>
      <trkpt lat="31.1418418884277344" lon="-6.9606947898864746">
        <ele>1340.0</ele>
        <time>2018-10-12T14:06:39.000Z</time>
      </trkpt>
      <trkpt lat="31.1418666839599609" lon="-6.9606771469116211">
        <ele>1340.0</ele>
        <time>2018-10-12T14:06:40.000Z</time>
      </trkpt>
      <trkpt lat="31.1418933868408203" lon="-6.9606561660766602">
        <ele>1340.0</ele>
        <time>2018-10-12T14:06:41.000Z</time>
      </trkpt>
      <trkpt lat="31.1419200897216797" lon="-6.9606342315673828">
        <ele>1340.0</ele>
        <time>2018-10-12T14:06:42.000Z</time>
      </trkpt>
      <trkpt lat="31.1419486999511719" lon="-6.9606118202209473">
        <ele>1340.73095703125</ele>
        <time>2018-10-12T14:06:43.000Z</time>
      </trkpt>
      <trkpt lat="31.1419734954833984" lon="-6.9605908393859863">
        <ele>1341.0</ele>
        <time>2018-10-12T14:06:44.000Z</time>
      </trkpt>
      <trkpt lat="31.1419963836669922" lon="-6.9605708122253418">
        <ele>1341.0</ele>
        <time>2018-10-12T14:06:45.000Z</time>
      </trkpt>
      <trkpt lat="31.1420192718505859" lon="-6.9605488777160645">
        <ele>1341.0</ele>
        <time>2018-10-12T14:06:46.000Z</time>
      </trkpt>
      <trkpt lat="31.1420459747314453" lon="-6.9605240821838379">
        <ele>1341.0</ele>
        <time>2018-10-12T14:06:47.000Z</time>
      </trkpt>
      <trkpt lat="31.1420764923095703" lon="-6.9604988098144531">
        <ele>1341.0</ele>
        <time>2018-10-12T14:06:48.000Z</time>
      </trkpt>
      <trkpt lat="31.1421051025390625" lon="-6.9604749679565430">
        <ele>1341.0</ele>
        <time>2018-10-12T14:06:49.000Z</time>
      </trkpt>
      <trkpt lat="31.1421356201171875" lon="-6.9604520797729492">
        <ele>1341.0</ele>
        <time>2018-10-12T14:06:50.000Z</time>
      </trkpt>
      <trkpt lat="31.1421623229980469" lon="-6.9604320526123047">
        <ele>1341.0</ele>
        <time>2018-10-12T14:06:51.000Z</time>
      </trkpt>
      <trkpt lat="31.1421909332275391" lon="-6.9604120254516602">
        <ele>1341.0</ele>
        <time>2018-10-12T14:06:52.000Z</time>
      </trkpt>
      <trkpt lat="31.1422214508056641" lon="-6.9603881835937500">
        <ele>1341.0</ele>
        <time>2018-10-12T14:06:53.000Z</time>
      </trkpt>
      <trkpt lat="31.1422500610351562" lon="-6.9603648185729980">
        <ele>1341.0</ele>
        <time>2018-10-12T14:06:54.000Z</time>
      </trkpt>
      <trkpt lat="31.1422786712646484" lon="-6.9603462219238281">
        <ele>1341.0</ele>
        <time>2018-10-12T14:06:55.000Z</time>
      </trkpt>
      <trkpt lat="31.1423053741455078" lon="-6.9603300094604492">
        <ele>1341.0</ele>
        <time>2018-10-12T14:06:56.000Z</time>
      </trkpt>
      <trkpt lat="31.1423301696777344" lon="-6.9603128433227539">
        <ele>1341.0</ele>
        <time>2018-10-12T14:06:57.000Z</time>
      </trkpt>
      <trkpt lat="31.1423568725585938" lon="-6.9602937698364258">
        <ele>1341.0</ele>
        <time>2018-10-12T14:06:58.000Z</time>
      </trkpt>
      <trkpt lat="31.1423854827880859" lon="-6.9602761268615723">
        <ele>1341.0</ele>
        <time>2018-10-12T14:06:59.000Z</time>
      </trkpt>
      <trkpt lat="31.1424121856689453" lon="-6.9602580070495605">
        <ele>1341.0</ele>
        <time>2018-10-12T14:07:00.000Z</time>
      </trkpt>
      <trkpt lat="31.1424427032470703" lon="-6.9602408409118652">
        <ele>1341.0</ele>
        <time>2018-10-12T14:07:01.000Z</time>
      </trkpt>
      <trkpt lat="31.1424713134765625" lon="-6.9602241516113281">
        <ele>1341.0</ele>
        <time>2018-10-12T14:07:02.000Z</time>
      </trkpt>
      <trkpt lat="31.1425018310546875" lon="-6.9602050781250000">
        <ele>1341.0</ele>
        <time>2018-10-12T14:07:03.000Z</time>
      </trkpt>
      <trkpt lat="31.1425304412841797" lon="-6.9601888656616211">
        <ele>1341.0</ele>
        <time>2018-10-12T14:07:04.000Z</time>
      </trkpt>
      <trkpt lat="31.1425571441650391" lon="-6.9601721763610840">
        <ele>1341.0</ele>
        <time>2018-10-12T14:07:05.000Z</time>
      </trkpt>
      <trkpt lat="31.1425819396972656" lon="-6.9601559638977051">
        <ele>1341.0</ele>
        <time>2018-10-12T14:07:06.000Z</time>
      </trkpt>
      <trkpt lat="31.1426086425781250" lon="-6.9601421356201172">
        <ele>1341.61572265625</ele>
        <time>2018-10-12T14:07:07.000Z</time>
      </trkpt>
      <trkpt lat="31.1426372528076172" lon="-6.9601268768310547">
        <ele>1342.0</ele>
        <time>2018-10-12T14:07:08.000Z</time>
      </trkpt>
      <trkpt lat="31.1426696777343750" lon="-6.9601092338562012">
        <ele>1342.0</ele>
        <time>2018-10-12T14:07:09.000Z</time>
      </trkpt>
      <trkpt lat="31.1427021026611328" lon="-6.9600901603698730">
        <ele>1342.0</ele>
        <time>2018-10-12T14:07:10.000Z</time>
      </trkpt>
      <trkpt lat="31.1427345275878906" lon="-6.9600710868835449">
        <ele>1342.0</ele>
        <time>2018-10-12T14:07:11.000Z</time>
      </trkpt>
      <trkpt lat="31.1427631378173828" lon="-6.9600539207458496">
        <ele>1342.0</ele>
        <time>2018-10-12T14:07:12.000Z</time>
      </trkpt>
      <trkpt lat="31.1427917480468750" lon="-6.9600372314453125">
        <ele>1342.0</ele>
        <time>2018-10-12T14:07:13.000Z</time>
      </trkpt>
      <trkpt lat="31.1428165435791016" lon="-6.9600210189819336">
        <ele>1342.0</ele>
        <time>2018-10-12T14:07:14.000Z</time>
      </trkpt>
      <trkpt lat="31.1428413391113281" lon="-6.9600038528442383">
        <ele>1342.0</ele>
        <time>2018-10-12T14:07:15.000Z</time>
      </trkpt>
      <trkpt lat="31.1428699493408203" lon="-6.9599871635437012">
        <ele>1342.0</ele>
        <time>2018-10-12T14:07:16.000Z</time>
      </trkpt>
      <trkpt lat="31.1428985595703125" lon="-6.9599699974060059">
        <ele>1342.0</ele>
        <time>2018-10-12T14:07:17.000Z</time>
      </trkpt>
      <trkpt lat="31.1429290771484375" lon="-6.9599509239196777">
        <ele>1342.0</ele>
        <time>2018-10-12T14:07:18.000Z</time>
      </trkpt>
      <trkpt lat="31.1429595947265625" lon="-6.9599308967590332">
        <ele>1342.0</ele>
        <time>2018-10-12T14:07:19.000Z</time>
      </trkpt>
      <trkpt lat="31.1429901123046875" lon="-6.9599089622497559">
        <ele>1342.0</ele>
        <time>2018-10-12T14:07:20.000Z</time>
      </trkpt>
      <trkpt lat="31.1430206298828125" lon="-6.9598860740661621">
        <ele>1342.0</ele>
        <time>2018-10-12T14:07:21.000Z</time>
      </trkpt>
      <trkpt lat="31.1430492401123047" lon="-6.9598631858825684">
        <ele>1342.0</ele>
        <time>2018-10-12T14:07:22.000Z</time>
      </trkpt>
      <trkpt lat="31.1430778503417969" lon="-6.9598388671875000">
        <ele>1342.0</ele>
        <time>2018-10-12T14:07:23.000Z</time>
      </trkpt>
      <trkpt lat="31.1431064605712891" lon="-6.9598159790039062">
        <ele>1342.0</ele>
        <time>2018-10-12T14:07:24.000Z</time>
      </trkpt>
      <trkpt lat="31.1431350708007812" lon="-6.9597949981689453">
        <ele>1342.0</ele>
        <time>2018-10-12T14:07:25.000Z</time>
      </trkpt>
      <trkpt lat="31.1431655883789062" lon="-6.9597740173339844">
        <ele>1342.0</ele>
        <time>2018-10-12T14:07:26.000Z</time>
      </trkpt>
      <trkpt lat="31.1431922912597656" lon="-6.9597530364990234">
        <ele>1342.0</ele>
        <time>2018-10-12T14:07:27.000Z</time>
      </trkpt>
      <trkpt lat="31.1432170867919922" lon="-6.9597301483154297">
        <ele>1342.0</ele>
        <time>2018-10-12T14:07:28.000Z</time>
      </trkpt>
      <trkpt lat="31.1432437896728516" lon="-6.9597091674804688">
        <ele>1342.0</ele>
        <time>2018-10-12T14:07:29.000Z</time>
      </trkpt>
      <trkpt lat="31.1432704925537109" lon="-6.9596910476684570">
        <ele>1342.0</ele>
        <time>2018-10-12T14:07:30.000Z</time>
      </trkpt>
      <trkpt lat="31.1432991027832031" lon="-6.9596748352050781">
        <ele>1342.0</ele>
        <time>2018-10-12T14:07:31.000Z</time>
      </trkpt>
      <trkpt lat="31.1433296203613281" lon="-6.9596590995788574">
        <ele>1342.0</ele>
        <time>2018-10-12T14:07:32.000Z</time>
      </trkpt>
      <trkpt lat="31.1433601379394531" lon="-6.9596428871154785">
        <ele>1342.0</ele>
        <time>2018-10-12T14:07:33.000Z</time>
      </trkpt>
      <trkpt lat="31.1433906555175781" lon="-6.9596271514892578">
        <ele>1342.0</ele>
        <time>2018-10-12T14:07:34.000Z</time>
      </trkpt>
      <trkpt lat="31.1434211730957031" lon="-6.9596109390258789">
        <ele>1342.0</ele>
        <time>2018-10-12T14:07:35.000Z</time>
      </trkpt>
      <trkpt lat="31.1434535980224609" lon="-6.9595952033996582">
        <ele>1342.0</ele>
        <time>2018-10-12T14:07:36.000Z</time>
      </trkpt>
      <trkpt lat="31.1434879302978516" lon="-6.9595799446105957">
        <ele>1342.0</ele>
        <time>2018-10-12T14:07:37.000Z</time>
      </trkpt>
      <trkpt lat="31.1435203552246094" lon="-6.9595651626586914">
        <ele>1342.0</ele>
        <time>2018-10-12T14:07:38.000Z</time>
      </trkpt>
      <trkpt lat="31.1435546875000000" lon="-6.9595499038696289">
        <ele>1342.0</ele>
        <time>2018-10-12T14:07:39.000Z</time>
      </trkpt>
      <trkpt lat="31.1435871124267578" lon="-6.9595351219177246">
        <ele>1342.0</ele>
        <time>2018-10-12T14:07:40.000Z</time>
      </trkpt>
      <trkpt lat="31.1436214447021484" lon="-6.9595198631286621">
        <ele>1342.0</ele>
        <time>2018-10-12T14:07:41.000Z</time>
      </trkpt>
      <trkpt lat="31.1436557769775391" lon="-6.9595069885253906">
        <ele>1342.0</ele>
        <time>2018-10-12T14:07:42.000Z</time>
      </trkpt>
      <trkpt lat="31.1436901092529297" lon="-6.9594950675964355">
        <ele>1342.0</ele>
        <time>2018-10-12T14:07:43.000Z</time>
      </trkpt>
      <trkpt lat="31.1437244415283203" lon="-6.9594831466674805">
        <ele>1342.0</ele>
        <time>2018-10-12T14:07:44.000Z</time>
      </trkpt>
      <trkpt lat="31.1437587738037109" lon="-6.9594712257385254">
        <ele>1342.0</ele>
        <time>2018-10-12T14:07:45.000Z</time>
      </trkpt>
      <trkpt lat="31.1437950134277344" lon="-6.9594597816467285">
        <ele>1342.0</ele>
        <time>2018-10-12T14:07:46.000Z</time>
      </trkpt>
      <trkpt lat="31.1438293457031250" lon="-6.9594478607177734">
        <ele>1342.0</ele>
        <time>2018-10-12T14:07:47.000Z</time>
      </trkpt>
      <trkpt lat="31.1438636779785156" lon="-6.9594359397888184">
        <ele>1342.0</ele>
        <time>2018-10-12T14:07:48.000Z</time>
      </trkpt>
      <trkpt lat="31.1438980102539062" lon="-6.9594259262084961">
        <ele>1342.0</ele>
        <time>2018-10-12T14:07:49.000Z</time>
      </trkpt>
      <trkpt lat="31.1439323425292969" lon="-6.9594159126281738">
        <ele>1342.73095703125</ele>
        <time>2018-10-12T14:07:50.000Z</time>
      </trkpt>
      <trkpt lat="31.1439666748046875" lon="-6.9594058990478516">
        <ele>1343.0</ele>
        <time>2018-10-12T14:07:51.000Z</time>
      </trkpt>
      <trkpt lat="31.1439990997314453" lon="-6.9593949317932129">
        <ele>1343.0</ele>
        <time>2018-10-12T14:07:52.000Z</time>
      </trkpt>
      <trkpt lat="31.1440315246582031" lon="-6.9593839645385742">
        <ele>1343.0</ele>
        <time>2018-10-12T14:07:53.000Z</time>
      </trkpt>
      <trkpt lat="31.1440658569335938" lon="-6.9593729972839355">
        <ele>1343.0</ele>
        <time>2018-10-12T14:07:54.000Z</time>
      </trkpt>
      <trkpt lat="31.1440982818603516" lon="-6.9593629837036133">
        <ele>1343.0</ele>
        <time>2018-10-12T14:07:55.000Z</time>
      </trkpt>
      <trkpt lat="31.1441307067871094" lon="-6.9593520164489746">
        <ele>1343.0</ele>
        <time>2018-10-12T14:07:56.000Z</time>
      </trkpt>
      <trkpt lat="31.1441631317138672" lon="-6.9593420028686523">
        <ele>1343.0</ele>
        <time>2018-10-12T14:07:57.000Z</time>
      </trkpt>
      <trkpt lat="31.1441974639892578" lon="-6.9593319892883301">
        <ele>1343.0</ele>
        <time>2018-10-12T14:07:58.000Z</time>
      </trkpt>
      <trkpt lat="31.1442298889160156" lon="-6.9593219757080078">
        <ele>1343.0</ele>
        <time>2018-10-12T14:07:59.000Z</time>
      </trkpt>
      <trkpt lat="31.1442623138427734" lon="-6.9593100547790527">
        <ele>1343.0</ele>
        <time>2018-10-12T14:08:00.000Z</time>
      </trkpt>
      <trkpt lat="31.1442947387695312" lon="-6.9592971801757812">
        <ele>1343.0</ele>
        <time>2018-10-12T14:08:01.000Z</time>
      </trkpt>
      <trkpt lat="31.1443271636962891" lon="-6.9592871665954590">
        <ele>1343.0</ele>
        <time>2018-10-12T14:08:02.000Z</time>
      </trkpt>
      <trkpt lat="31.1443595886230469" lon="-6.9592771530151367">
        <ele>1343.0</ele>
        <time>2018-10-12T14:08:03.000Z</time>
      </trkpt>
      <trkpt lat="31.1443920135498047" lon="-6.9592661857604980">
        <ele>1343.0</ele>
        <time>2018-10-12T14:08:04.000Z</time>
      </trkpt>
      <trkpt lat="31.1444225311279297" lon="-6.9592561721801758">
        <ele>1343.73095703125</ele>
        <time>2018-10-12T14:08:05.000Z</time>
      </trkpt>
      <trkpt lat="31.1444530487060547" lon="-6.9592471122741699">
        <ele>1344.0</ele>
        <time>2018-10-12T14:08:06.000Z</time>
      </trkpt>
      <trkpt lat="31.1444854736328125" lon="-6.9592380523681641">
        <ele>1344.0</ele>
        <time>2018-10-12T14:08:07.000Z</time>
      </trkpt>
      <trkpt lat="31.1445178985595703" lon="-6.9592289924621582">
        <ele>1344.0</ele>
        <time>2018-10-12T14:08:08.000Z</time>
      </trkpt>
      <trkpt lat="31.1445484161376953" lon="-6.9592208862304688">
        <ele>1344.0</ele>
        <time>2018-10-12T14:08:09.000Z</time>
      </trkpt>
      <trkpt lat="31.1445789337158203" lon="-6.9592127799987793">
        <ele>1344.0</ele>
        <time>2018-10-12T14:08:10.000Z</time>
      </trkpt>
      <trkpt lat="31.1446094512939453" lon="-6.9592041969299316">
        <ele>1344.0</ele>
        <time>2018-10-12T14:08:11.000Z</time>
      </trkpt>
      <trkpt lat="31.1446380615234375" lon="-6.9591941833496094">
        <ele>1344.0</ele>
        <time>2018-10-12T14:08:12.000Z</time>
      </trkpt>
      <trkpt lat="31.1446685791015625" lon="-6.9591851234436035">
        <ele>1344.0</ele>
        <time>2018-10-12T14:08:13.000Z</time>
      </trkpt>
      <trkpt lat="31.1446971893310547" lon="-6.9591760635375977">
        <ele>1344.0</ele>
        <time>2018-10-12T14:08:14.000Z</time>
      </trkpt>
      <trkpt lat="31.1447257995605469" lon="-6.9591670036315918">
        <ele>1344.0</ele>
        <time>2018-10-12T14:08:15.000Z</time>
      </trkpt>
      <trkpt lat="31.1447544097900391" lon="-6.9591579437255859">
        <ele>1344.0</ele>
        <time>2018-10-12T14:08:16.000Z</time>
      </trkpt>
      <trkpt lat="31.1447849273681641" lon="-6.9591479301452637">
        <ele>1344.0</ele>
        <time>2018-10-12T14:08:17.000Z</time>
      </trkpt>
      <trkpt lat="31.1448116302490234" lon="-6.9591388702392578">
        <ele>1344.0</ele>
        <time>2018-10-12T14:08:18.000Z</time>
      </trkpt>
      <trkpt lat="31.1448383331298828" lon="-6.9591298103332520">
        <ele>1344.0</ele>
        <time>2018-10-12T14:08:19.000Z</time>
      </trkpt>
      <trkpt lat="31.1448669433593750" lon="-6.9591212272644043">
        <ele>1344.0</ele>
        <time>2018-10-12T14:08:20.000Z</time>
      </trkpt>
      <trkpt lat="31.1448955535888672" lon="-6.9591121673583984">
        <ele>1344.0</ele>
        <time>2018-10-12T14:08:21.000Z</time>
      </trkpt>
      <trkpt lat="31.1449241638183594" lon="-6.9591021537780762">
        <ele>1344.0</ele>
        <time>2018-10-12T14:08:22.000Z</time>
      </trkpt>
      <trkpt lat="31.1449546813964844" lon="-6.9590921401977539">
        <ele>1344.0</ele>
        <time>2018-10-12T14:08:23.000Z</time>
      </trkpt>
      <trkpt lat="31.1449851989746094" lon="-6.9590830802917480">
        <ele>1344.0</ele>
        <time>2018-10-12T14:08:24.000Z</time>
      </trkpt>
      <trkpt lat="31.1450157165527344" lon="-6.9590730667114258">
        <ele>1344.0</ele>
        <time>2018-10-12T14:08:25.000Z</time>
      </trkpt>
      <trkpt lat="31.1450443267822266" lon="-6.9590620994567871">
        <ele>1344.0</ele>
        <time>2018-10-12T14:08:26.000Z</time>
      </trkpt>
      <trkpt lat="31.1450729370117188" lon="-6.9590520858764648">
        <ele>1344.0</ele>
        <time>2018-10-12T14:08:27.000Z</time>
      </trkpt>
      <trkpt lat="31.1451015472412109" lon="-6.9590420722961426">
        <ele>1344.0</ele>
        <time>2018-10-12T14:08:28.000Z</time>
      </trkpt>
      <trkpt lat="31.1451301574707031" lon="-6.9590311050415039">
        <ele>1344.0</ele>
        <time>2018-10-12T14:08:29.000Z</time>
      </trkpt>
      <trkpt lat="31.1451587677001953" lon="-6.9590220451354980">
        <ele>1344.0</ele>
        <time>2018-10-12T14:08:30.000Z</time>
      </trkpt>
      <trkpt lat="31.1451873779296875" lon="-6.9590139389038086">
        <ele>1344.73095703125</ele>
        <time>2018-10-12T14:08:31.000Z</time>
      </trkpt>
      <trkpt lat="31.1452178955078125" lon="-6.9590048789978027">
        <ele>1345.0</ele>
        <time>2018-10-12T14:08:32.000Z</time>
      </trkpt>
      <trkpt lat="31.1452445983886719" lon="-6.9589948654174805">
        <ele>1345.0</ele>
        <time>2018-10-12T14:08:33.000Z</time>
      </trkpt>
      <trkpt lat="31.1452732086181641" lon="-6.9589848518371582">
        <ele>1345.0</ele>
        <time>2018-10-12T14:08:34.000Z</time>
      </trkpt>
      <trkpt lat="31.1453018188476562" lon="-6.9589748382568359">
        <ele>1345.0</ele>
        <time>2018-10-12T14:08:35.000Z</time>
      </trkpt>
      <trkpt lat="31.1453285217285156" lon="-6.9589657783508301">
        <ele>1345.0</ele>
        <time>2018-10-12T14:08:36.000Z</time>
      </trkpt>
      <trkpt lat="31.1453552246093750" lon="-6.9589557647705078">
        <ele>1345.0</ele>
        <time>2018-10-12T14:08:37.000Z</time>
      </trkpt>
      <trkpt lat="31.1453857421875000" lon="-6.9589462280273438">
        <ele>1345.0</ele>
        <time>2018-10-12T14:08:38.000Z</time>
      </trkpt>
      <trkpt lat="31.1454124450683594" lon="-6.9589347839355469">
        <ele>1345.0</ele>
        <time>2018-10-12T14:08:39.000Z</time>
      </trkpt>
      <trkpt lat="31.1454410552978516" lon="-6.9589238166809082">
        <ele>1345.0</ele>
        <time>2018-10-12T14:08:40.000Z</time>
      </trkpt>
      <trkpt lat="31.1454715728759766" lon="-6.9589109420776367">
        <ele>1345.0</ele>
        <time>2018-10-12T14:08:41.000Z</time>
      </trkpt>
      <trkpt lat="31.1454982757568359" lon="-6.9588990211486816">
        <ele>1345.0</ele>
        <time>2018-10-12T14:08:42.000Z</time>
      </trkpt>
      <trkpt lat="31.1455287933349609" lon="-6.9588861465454102">
        <ele>1345.0</ele>
        <time>2018-10-12T14:08:43.000Z</time>
      </trkpt>
      <trkpt lat="31.1455574035644531" lon="-6.9588751792907715">
        <ele>1345.0</ele>
        <time>2018-10-12T14:08:44.000Z</time>
      </trkpt>
      <trkpt lat="31.1455860137939453" lon="-6.9588651657104492">
        <ele>1345.0</ele>
        <time>2018-10-12T14:08:45.000Z</time>
      </trkpt>
      <trkpt lat="31.1456146240234375" lon="-6.9588541984558105">
        <ele>1345.73095703125</ele>
        <time>2018-10-12T14:08:46.000Z</time>
      </trkpt>
      <trkpt lat="31.1456451416015625" lon="-6.9588432312011719">
        <ele>1346.0</ele>
        <time>2018-10-12T14:08:47.000Z</time>
      </trkpt>
      <trkpt lat="31.1456756591796875" lon="-6.9588308334350586">
        <ele>1346.0</ele>
        <time>2018-10-12T14:08:48.000Z</time>
      </trkpt>
      <trkpt lat="31.1457042694091797" lon="-6.9588179588317871">
        <ele>1346.0</ele>
        <time>2018-10-12T14:08:49.000Z</time>
      </trkpt>
      <trkpt lat="31.1457328796386719" lon="-6.9588060379028320">
        <ele>1346.0</ele>
        <time>2018-10-12T14:08:50.000Z</time>
      </trkpt>
      <trkpt lat="31.1457633972167969" lon="-6.9587931632995605">
        <ele>1346.0</ele>
        <time>2018-10-12T14:08:51.000Z</time>
      </trkpt>
      <trkpt lat="31.1457920074462891" lon="-6.9587798118591309">
        <ele>1346.0</ele>
        <time>2018-10-12T14:08:52.000Z</time>
      </trkpt>
      <trkpt lat="31.1458206176757812" lon="-6.9587669372558594">
        <ele>1346.0</ele>
        <time>2018-10-12T14:08:53.000Z</time>
      </trkpt>
      <trkpt lat="31.1458492279052734" lon="-6.9587540626525879">
        <ele>1346.0</ele>
        <time>2018-10-12T14:08:54.000Z</time>
      </trkpt>
      <trkpt lat="31.1458797454833984" lon="-6.9587421417236328">
        <ele>1346.0</ele>
        <time>2018-10-12T14:08:55.000Z</time>
      </trkpt>
      <trkpt lat="31.1459083557128906" lon="-6.9587302207946777">
        <ele>1346.0</ele>
        <time>2018-10-12T14:08:56.000Z</time>
      </trkpt>
      <trkpt lat="31.1459388732910156" lon="-6.9587178230285645">
        <ele>1346.5579833984375</ele>
        <time>2018-10-12T14:08:57.000Z</time>
      </trkpt>
      <trkpt lat="31.1459655761718750" lon="-6.9587059020996094">
        <ele>1347.0</ele>
        <time>2018-10-12T14:08:58.000Z</time>
      </trkpt>
      <trkpt lat="31.1459941864013672" lon="-6.9586949348449707">
        <ele>1347.0</ele>
        <time>2018-10-12T14:08:59.000Z</time>
      </trkpt>
      <trkpt lat="31.1460227966308594" lon="-6.9586849212646484">
        <ele>1346.4420166015625</ele>
        <time>2018-10-12T14:09:00.000Z</time>
      </trkpt>
      <trkpt lat="31.1460514068603516" lon="-6.9586749076843262">
        <ele>1346.0</ele>
        <time>2018-10-12T14:09:01.000Z</time>
      </trkpt>
      <trkpt lat="31.1460819244384766" lon="-6.9586629867553711">
        <ele>1346.0</ele>
        <time>2018-10-12T14:09:02.000Z</time>
      </trkpt>
      <trkpt lat="31.1461105346679688" lon="-6.9586510658264160">
        <ele>1346.0</ele>
        <time>2018-10-12T14:09:03.000Z</time>
      </trkpt>
      <trkpt lat="31.1461372375488281" lon="-6.9586391448974609">
        <ele>1346.0</ele>
        <time>2018-10-12T14:09:04.000Z</time>
      </trkpt>
      <trkpt lat="31.1461658477783203" lon="-6.9586291313171387">
        <ele>1346.0</ele>
        <time>2018-10-12T14:09:05.000Z</time>
      </trkpt>
      <trkpt lat="31.1461906433105469" lon="-6.9586181640625000">
        <ele>1346.0</ele>
        <time>2018-10-12T14:09:06.000Z</time>
      </trkpt>
      <trkpt lat="31.1462154388427734" lon="-6.9586071968078613">
        <ele>1346.73095703125</ele>
        <time>2018-10-12T14:09:07.000Z</time>
      </trkpt>
      <trkpt lat="31.1462421417236328" lon="-6.9585981369018555">
        <ele>1347.0</ele>
        <time>2018-10-12T14:09:08.000Z</time>
      </trkpt>
      <trkpt lat="31.1462707519531250" lon="-6.9585900306701660">
        <ele>1347.0</ele>
        <time>2018-10-12T14:09:09.000Z</time>
      </trkpt>
      <trkpt lat="31.1462974548339844" lon="-6.9585819244384766">
        <ele>1347.0</ele>
        <time>2018-10-12T14:09:10.000Z</time>
      </trkpt>
      <trkpt lat="31.1463241577148438" lon="-6.9585738182067871">
        <ele>1347.0</ele>
        <time>2018-10-12T14:09:11.000Z</time>
      </trkpt>
      <trkpt lat="31.1463527679443359" lon="-6.9585661888122559">
        <ele>1347.0</ele>
        <time>2018-10-12T14:09:12.000Z</time>
      </trkpt>
      <trkpt lat="31.1463813781738281" lon="-6.9585580825805664">
        <ele>1347.0</ele>
        <time>2018-10-12T14:09:13.000Z</time>
      </trkpt>
      <trkpt lat="31.1464099884033203" lon="-6.9585509300231934">
        <ele>1347.0</ele>
        <time>2018-10-12T14:09:14.000Z</time>
      </trkpt>
      <trkpt lat="31.1464385986328125" lon="-6.9585428237915039">
        <ele>1347.0</ele>
        <time>2018-10-12T14:09:15.000Z</time>
      </trkpt>
      <trkpt lat="31.1464672088623047" lon="-6.9585351943969727">
        <ele>1347.0</ele>
        <time>2018-10-12T14:09:16.000Z</time>
      </trkpt>
      <trkpt lat="31.1464958190917969" lon="-6.9585270881652832">
        <ele>1347.0</ele>
        <time>2018-10-12T14:09:17.000Z</time>
      </trkpt>
      <trkpt lat="31.1465244293212891" lon="-6.9585189819335938">
        <ele>1347.0</ele>
        <time>2018-10-12T14:09:18.000Z</time>
      </trkpt>
      <trkpt lat="31.1465549468994141" lon="-6.9585118293762207">
        <ele>1347.0</ele>
        <time>2018-10-12T14:09:19.000Z</time>
      </trkpt>
      <trkpt lat="31.1465816497802734" lon="-6.9585051536560059">
        <ele>1347.0</ele>
        <time>2018-10-12T14:09:20.000Z</time>
      </trkpt>
      <trkpt lat="31.1466083526611328" lon="-6.9584980010986328">
        <ele>1347.73095703125</ele>
        <time>2018-10-12T14:09:21.000Z</time>
      </trkpt>
      <trkpt lat="31.1466369628906250" lon="-6.9584889411926270">
        <ele>1348.0</ele>
        <time>2018-10-12T14:09:22.000Z</time>
      </trkpt>
      <trkpt lat="31.1466636657714844" lon="-6.9584789276123047">
        <ele>1348.0</ele>
        <time>2018-10-12T14:09:23.000Z</time>
      </trkpt>
      <trkpt lat="31.1466903686523438" lon="-6.9584679603576660">
        <ele>1348.0</ele>
        <time>2018-10-12T14:09:24.000Z</time>
      </trkpt>
      <trkpt lat="31.1467151641845703" lon="-6.9584550857543945">
        <ele>1348.0</ele>
        <time>2018-10-12T14:09:25.000Z</time>
      </trkpt>
      <trkpt lat="31.1467418670654297" lon="-6.9584398269653320">
        <ele>1348.0</ele>
        <time>2018-10-12T14:09:26.000Z</time>
      </trkpt>
      <trkpt lat="31.1467666625976562" lon="-6.9584212303161621">
        <ele>1348.0</ele>
        <time>2018-10-12T14:09:27.000Z</time>
      </trkpt>
      <trkpt lat="31.1467895507812500" lon="-6.9584012031555176">
        <ele>1348.0</ele>
        <time>2018-10-12T14:09:28.000Z</time>
      </trkpt>
      <trkpt lat="31.1468124389648438" lon="-6.9583811759948730">
        <ele>1348.0</ele>
        <time>2018-10-12T14:09:29.000Z</time>
      </trkpt>
      <trkpt lat="31.1468353271484375" lon="-6.9583621025085449">
        <ele>1348.0</ele>
        <time>2018-10-12T14:09:30.000Z</time>
      </trkpt>
      <trkpt lat="31.1468601226806641" lon="-6.9583439826965332">
        <ele>1348.0</ele>
        <time>2018-10-12T14:09:31.000Z</time>
      </trkpt>
      <trkpt lat="31.1468830108642578" lon="-6.9583239555358887">
        <ele>1348.0</ele>
        <time>2018-10-12T14:09:32.000Z</time>
      </trkpt>
      <trkpt lat="31.1469039916992188" lon="-6.9583010673522949">
        <ele>1348.0</ele>
        <time>2018-10-12T14:09:33.000Z</time>
      </trkpt>
      <trkpt lat="31.1469249725341797" lon="-6.9582772254943848">
        <ele>1348.0</ele>
        <time>2018-10-12T14:09:34.000Z</time>
      </trkpt>
      <trkpt lat="31.1469459533691406" lon="-6.9582529067993164">
        <ele>1348.0</ele>
        <time>2018-10-12T14:09:35.000Z</time>
      </trkpt>
      <trkpt lat="31.1469669342041016" lon="-6.9582281112670898">
        <ele>1348.0</ele>
        <time>2018-10-12T14:09:36.000Z</time>
      </trkpt>
      <trkpt lat="31.1469898223876953" lon="-6.9582018852233887">
        <ele>1348.0</ele>
        <time>2018-10-12T14:09:37.000Z</time>
      </trkpt>
      <trkpt lat="31.1470108032226562" lon="-6.9581751823425293">
        <ele>1348.0</ele>
        <time>2018-10-12T14:09:38.000Z</time>
      </trkpt>
      <trkpt lat="31.1470317840576172" lon="-6.9581470489501953">
        <ele>1348.610107421875</ele>
        <time>2018-10-12T14:09:39.000Z</time>
      </trkpt>
      <trkpt lat="31.1470527648925781" lon="-6.9581208229064941">
        <ele>1349.0</ele>
        <time>2018-10-12T14:09:40.000Z</time>
      </trkpt>
      <trkpt lat="31.1470756530761719" lon="-6.9580960273742676">
        <ele>1349.0</ele>
        <time>2018-10-12T14:09:41.000Z</time>
      </trkpt>
      <trkpt lat="31.1470966339111328" lon="-6.9580721855163574">
        <ele>1349.0</ele>
        <time>2018-10-12T14:09:42.000Z</time>
      </trkpt>
      <trkpt lat="31.1471214294433594" lon="-6.9580478668212891">
        <ele>1349.0</ele>
        <time>2018-10-12T14:09:43.000Z</time>
      </trkpt>
      <trkpt lat="31.1471443176269531" lon="-6.9580259323120117">
        <ele>1349.0</ele>
        <time>2018-10-12T14:09:44.000Z</time>
      </trkpt>
      <trkpt lat="31.1471691131591797" lon="-6.9580049514770508">
        <ele>1349.0</ele>
        <time>2018-10-12T14:09:45.000Z</time>
      </trkpt>
      <trkpt lat="31.1471958160400391" lon="-6.9579839706420898">
        <ele>1349.0</ele>
        <time>2018-10-12T14:09:46.000Z</time>
      </trkpt>
      <trkpt lat="31.1472206115722656" lon="-6.9579610824584961">
        <ele>1349.0</ele>
        <time>2018-10-12T14:09:47.000Z</time>
      </trkpt>
      <trkpt lat="31.1472473144531250" lon="-6.9579367637634277">
        <ele>1349.0</ele>
        <time>2018-10-12T14:09:48.000Z</time>
      </trkpt>
      <trkpt lat="31.1472702026367188" lon="-6.9579119682312012">
        <ele>1349.0</ele>
        <time>2018-10-12T14:09:49.000Z</time>
      </trkpt>
      <trkpt lat="31.1472988128662109" lon="-6.9578847885131836">
        <ele>1349.0</ele>
        <time>2018-10-12T14:09:50.000Z</time>
      </trkpt>
      <trkpt lat="31.1473217010498047" lon="-6.9578571319580078">
        <ele>1349.0</ele>
        <time>2018-10-12T14:09:51.000Z</time>
      </trkpt>
      <trkpt lat="31.1473426818847656" lon="-6.9578299522399902">
        <ele>1349.0</ele>
        <time>2018-10-12T14:09:52.000Z</time>
      </trkpt>
      <trkpt lat="31.1473617553710938" lon="-6.9578018188476562">
        <ele>1349.0</ele>
        <time>2018-10-12T14:09:53.000Z</time>
      </trkpt>
      <trkpt lat="31.1473808288574219" lon="-6.9577732086181641">
        <ele>1349.0</ele>
        <time>2018-10-12T14:09:54.000Z</time>
      </trkpt>
      <trkpt lat="31.1474018096923828" lon="-6.9577407836914062">
        <ele>1349.0</ele>
        <time>2018-10-12T14:09:55.000Z</time>
      </trkpt>
      <trkpt lat="31.1474208831787109" lon="-6.9577050209045410">
        <ele>1349.0</ele>
        <time>2018-10-12T14:09:56.000Z</time>
      </trkpt>
      <trkpt lat="31.1474437713623047" lon="-6.9576668739318848">
        <ele>1349.0</ele>
        <time>2018-10-12T14:09:57.000Z</time>
      </trkpt>
      <trkpt lat="31.1474666595458984" lon="-6.9576320648193359">
        <ele>1349.0</ele>
        <time>2018-10-12T14:09:58.000Z</time>
      </trkpt>
      <trkpt lat="31.1474857330322266" lon="-6.9575991630554199">
        <ele>1349.0</ele>
        <time>2018-10-12T14:09:59.000Z</time>
      </trkpt>
      <trkpt lat="31.1475067138671875" lon="-6.9575691223144531">
        <ele>1349.0</ele>
        <time>2018-10-12T14:10:00.000Z</time>
      </trkpt>
      <trkpt lat="31.1475296020507812" lon="-6.9575419425964355">
        <ele>1349.0</ele>
        <time>2018-10-12T14:10:01.000Z</time>
      </trkpt>
      <trkpt lat="31.1475543975830078" lon="-6.9575138092041016">
        <ele>1349.0</ele>
        <time>2018-10-12T14:10:02.000Z</time>
      </trkpt>
      <trkpt lat="31.1475811004638672" lon="-6.9574880599975586">
        <ele>1349.0</ele>
        <time>2018-10-12T14:10:03.000Z</time>
      </trkpt>
      <trkpt lat="31.1476058959960938" lon="-6.9574680328369141">
        <ele>1349.0</ele>
        <time>2018-10-12T14:10:04.000Z</time>
      </trkpt>
      <trkpt lat="31.1476287841796875" lon="-6.9574480056762695">
        <ele>1349.0</ele>
        <time>2018-10-12T14:10:05.000Z</time>
      </trkpt>
      <trkpt lat="31.1476535797119141" lon="-6.9574279785156250">
        <ele>1349.73095703125</ele>
        <time>2018-10-12T14:10:06.000Z</time>
      </trkpt>
      <trkpt lat="31.1476802825927734" lon="-6.9574060440063477">
        <ele>1350.0</ele>
        <time>2018-10-12T14:10:07.000Z</time>
      </trkpt>
      <trkpt lat="31.1477127075195312" lon="-6.9573860168457031">
        <ele>1350.0</ele>
        <time>2018-10-12T14:10:08.000Z</time>
      </trkpt>
      <trkpt lat="31.1477451324462891" lon="-6.9573669433593750">
        <ele>1350.0</ele>
        <time>2018-10-12T14:10:09.000Z</time>
      </trkpt>
      <trkpt lat="31.1477756500244141" lon="-6.9573478698730469">
        <ele>1350.0</ele>
        <time>2018-10-12T14:10:10.000Z</time>
      </trkpt>
      <trkpt lat="31.1478023529052734" lon="-6.9573302268981934">
        <ele>1350.0</ele>
        <time>2018-10-12T14:10:11.000Z</time>
      </trkpt>
      <trkpt lat="31.1478309631347656" lon="-6.9573140144348145">
        <ele>1350.0</ele>
        <time>2018-10-12T14:10:12.000Z</time>
      </trkpt>
      <trkpt lat="31.1478595733642578" lon="-6.9573001861572266">
        <ele>1350.0</ele>
        <time>2018-10-12T14:10:13.000Z</time>
      </trkpt>
      <trkpt lat="31.1478862762451172" lon="-6.9572877883911133">
        <ele>1350.0</ele>
        <time>2018-10-12T14:10:14.000Z</time>
      </trkpt>
      <trkpt lat="31.1479148864746094" lon="-6.9572730064392090">
        <ele>1350.0</ele>
        <time>2018-10-12T14:10:15.000Z</time>
      </trkpt>
      <trkpt lat="31.1479454040527344" lon="-6.9572548866271973">
        <ele>1350.0</ele>
        <time>2018-10-12T14:10:16.000Z</time>
      </trkpt>
      <trkpt lat="31.1479778289794922" lon="-6.9572358131408691">
        <ele>1350.0</ele>
        <time>2018-10-12T14:10:17.000Z</time>
      </trkpt>
      <trkpt lat="31.1480083465576172" lon="-6.9572181701660156">
        <ele>1350.0</ele>
        <time>2018-10-12T14:10:18.000Z</time>
      </trkpt>
      <trkpt lat="31.1480407714843750" lon="-6.9572000503540039">
        <ele>1350.0</ele>
        <time>2018-10-12T14:10:19.000Z</time>
      </trkpt>
      <trkpt lat="31.1480770111083984" lon="-6.9571800231933594">
        <ele>1350.0</ele>
        <time>2018-10-12T14:10:20.000Z</time>
      </trkpt>
      <trkpt lat="31.1481113433837891" lon="-6.9571628570556641">
        <ele>1350.0</ele>
        <time>2018-10-12T14:10:21.000Z</time>
      </trkpt>
      <trkpt lat="31.1481418609619141" lon="-6.9571437835693359">
        <ele>1350.0</ele>
        <time>2018-10-12T14:10:22.000Z</time>
      </trkpt>
      <trkpt lat="31.1481723785400391" lon="-6.9571242332458496">
        <ele>1350.0</ele>
        <time>2018-10-12T14:10:23.000Z</time>
      </trkpt>
      <trkpt lat="31.1482048034667969" lon="-6.9571042060852051">
        <ele>1350.0</ele>
        <time>2018-10-12T14:10:24.000Z</time>
      </trkpt>
      <trkpt lat="31.1482391357421875" lon="-6.9570860862731934">
        <ele>1350.0</ele>
        <time>2018-10-12T14:10:25.000Z</time>
      </trkpt>
      <trkpt lat="31.1482753753662109" lon="-6.9570641517639160">
        <ele>1350.0</ele>
        <time>2018-10-12T14:10:26.000Z</time>
      </trkpt>
      <trkpt lat="31.1483097076416016" lon="-6.9570441246032715">
        <ele>1350.73095703125</ele>
        <time>2018-10-12T14:10:27.000Z</time>
      </trkpt>
      <trkpt lat="31.1483402252197266" lon="-6.9570250511169434">
        <ele>1351.0</ele>
        <time>2018-10-12T14:10:28.000Z</time>
      </trkpt>
      <trkpt lat="31.1483707427978516" lon="-6.9570097923278809">
        <ele>1351.0</ele>
        <time>2018-10-12T14:10:29.000Z</time>
      </trkpt>
      <trkpt lat="31.1483993530273438" lon="-6.9569940567016602">
        <ele>1351.0</ele>
        <time>2018-10-12T14:10:30.000Z</time>
      </trkpt>
      <trkpt lat="31.1484279632568359" lon="-6.9569802284240723">
        <ele>1351.0</ele>
        <time>2018-10-12T14:10:31.000Z</time>
      </trkpt>
      <trkpt lat="31.1484584808349609" lon="-6.9569640159606934">
        <ele>1351.0</ele>
        <time>2018-10-12T14:10:32.000Z</time>
      </trkpt>
      <trkpt lat="31.1484928131103516" lon="-6.9569468498229980">
        <ele>1351.0</ele>
        <time>2018-10-12T14:10:33.000Z</time>
      </trkpt>
      <trkpt lat="31.1485271453857422" lon="-6.9569320678710938">
        <ele>1351.0</ele>
        <time>2018-10-12T14:10:34.000Z</time>
      </trkpt>
      <trkpt lat="31.1485614776611328" lon="-6.9569201469421387">
        <ele>1351.0</ele>
        <time>2018-10-12T14:10:35.000Z</time>
      </trkpt>
      <trkpt lat="31.1485939025878906" lon="-6.9569082260131836">
        <ele>1351.0</ele>
        <time>2018-10-12T14:10:36.000Z</time>
      </trkpt>
      <trkpt lat="31.1486225128173828" lon="-6.9568982124328613">
        <ele>1351.0</ele>
        <time>2018-10-12T14:10:37.000Z</time>
      </trkpt>
      <trkpt lat="31.1486473083496094" lon="-6.9568920135498047">
        <ele>1351.0</ele>
        <time>2018-10-12T14:10:38.000Z</time>
      </trkpt>
      <trkpt lat="31.1486701965332031" lon="-6.9568848609924316">
        <ele>1351.0</ele>
        <time>2018-10-12T14:10:39.000Z</time>
      </trkpt>
      <trkpt lat="31.1486930847167969" lon="-6.9568800926208496">
        <ele>1351.0</ele>
        <time>2018-10-12T14:10:40.000Z</time>
      </trkpt>
      <trkpt lat="31.1487178802490234" lon="-6.9568738937377930">
        <ele>1351.73095703125</ele>
        <time>2018-10-12T14:10:41.000Z</time>
      </trkpt>
      <trkpt lat="31.1487445831298828" lon="-6.9568700790405273">
        <ele>1352.0</ele>
        <time>2018-10-12T14:10:42.000Z</time>
      </trkpt>
      <trkpt lat="31.1487731933593750" lon="-6.9568657875061035">
        <ele>1352.0</ele>
        <time>2018-10-12T14:10:43.000Z</time>
      </trkpt>
      <trkpt lat="31.1488018035888672" lon="-6.9568619728088379">
        <ele>1352.0</ele>
        <time>2018-10-12T14:10:44.000Z</time>
      </trkpt>
      <trkpt lat="31.1488342285156250" lon="-6.9568581581115723">
        <ele>1352.0</ele>
        <time>2018-10-12T14:10:45.000Z</time>
      </trkpt>
      <trkpt lat="31.1488666534423828" lon="-6.9568519592285156">
        <ele>1352.0</ele>
        <time>2018-10-12T14:10:46.000Z</time>
      </trkpt>
      <trkpt lat="31.1488971710205078" lon="-6.9568500518798828">
        <ele>1352.0</ele>
        <time>2018-10-12T14:10:47.000Z</time>
      </trkpt>
      <trkpt lat="31.1489276885986328" lon="-6.9568500518798828">
        <ele>1352.0</ele>
        <time>2018-10-12T14:10:48.000Z</time>
      </trkpt>
      <trkpt lat="31.1489562988281250" lon="-6.9568481445312500">
        <ele>1352.0</ele>
        <time>2018-10-12T14:10:49.000Z</time>
      </trkpt>
      <trkpt lat="31.1489830017089844" lon="-6.9568438529968262">
        <ele>1352.0</ele>
        <time>2018-10-12T14:10:50.000Z</time>
      </trkpt>
      <trkpt lat="31.1490116119384766" lon="-6.9568400382995605">
        <ele>1352.0</ele>
        <time>2018-10-12T14:10:51.000Z</time>
      </trkpt>
      <trkpt lat="31.1490421295166016" lon="-6.9568319320678711">
        <ele>1352.0</ele>
        <time>2018-10-12T14:10:52.000Z</time>
      </trkpt>
      <trkpt lat="31.1490726470947266" lon="-6.9568228721618652">
        <ele>1352.0</ele>
        <time>2018-10-12T14:10:53.000Z</time>
      </trkpt>
      <trkpt lat="31.1491012573242188" lon="-6.9568147659301758">
        <ele>1351.4420166015625</ele>
        <time>2018-10-12T14:10:54.000Z</time>
      </trkpt>
      <trkpt lat="31.1491298675537109" lon="-6.9568061828613281">
        <ele>1351.0</ele>
        <time>2018-10-12T14:10:55.000Z</time>
      </trkpt>
      <trkpt lat="31.1491546630859375" lon="-6.9567971229553223">
        <ele>1351.0</ele>
        <time>2018-10-12T14:10:56.000Z</time>
      </trkpt>
      <trkpt lat="31.1491794586181641" lon="-6.9567880630493164">
        <ele>1351.0</ele>
        <time>2018-10-12T14:10:57.000Z</time>
      </trkpt>
      <trkpt lat="31.1492061614990234" lon="-6.9567799568176270">
        <ele>1351.73095703125</ele>
        <time>2018-10-12T14:10:58.000Z</time>
      </trkpt>
      <trkpt lat="31.1492347717285156" lon="-6.9567680358886719">
        <ele>1352.0</ele>
        <time>2018-10-12T14:10:59.000Z</time>
      </trkpt>
      <trkpt lat="31.1492614746093750" lon="-6.9567542076110840">
        <ele>1352.0</ele>
        <time>2018-10-12T14:11:00.000Z</time>
      </trkpt>
      <trkpt lat="31.1492900848388672" lon="-6.9567379951477051">
        <ele>1352.0</ele>
        <time>2018-10-12T14:11:01.000Z</time>
      </trkpt>
      <trkpt lat="31.1493206024169922" lon="-6.9567217826843262">
        <ele>1352.0</ele>
        <time>2018-10-12T14:11:02.000Z</time>
      </trkpt>
      <trkpt lat="31.1493511199951172" lon="-6.9567060470581055">
        <ele>1352.0</ele>
        <time>2018-10-12T14:11:03.000Z</time>
      </trkpt>
      <trkpt lat="31.1493797302246094" lon="-6.9566922187805176">
        <ele>1352.0</ele>
        <time>2018-10-12T14:11:04.000Z</time>
      </trkpt>
      <trkpt lat="31.1494045257568359" lon="-6.9566788673400879">
        <ele>1352.0</ele>
        <time>2018-10-12T14:11:05.000Z</time>
      </trkpt>
      <trkpt lat="31.1494255065917969" lon="-6.9566659927368164">
        <ele>1352.0</ele>
        <time>2018-10-12T14:11:06.000Z</time>
      </trkpt>
      <trkpt lat="31.1494464874267578" lon="-6.9566559791564941">
        <ele>1352.0</ele>
        <time>2018-10-12T14:11:07.000Z</time>
      </trkpt>
      <trkpt lat="31.1494674682617188" lon="-6.9566450119018555">
        <ele>1352.0</ele>
        <time>2018-10-12T14:11:08.000Z</time>
      </trkpt>
      <trkpt lat="31.1494922637939453" lon="-6.9566349983215332">
        <ele>1352.0</ele>
        <time>2018-10-12T14:11:09.000Z</time>
      </trkpt>
      <trkpt lat="31.1495189666748047" lon="-6.9566230773925781">
        <ele>1352.0</ele>
        <time>2018-10-12T14:11:10.000Z</time>
      </trkpt>
      <trkpt lat="31.1495456695556641" lon="-6.9566102027893066">
        <ele>1352.0</ele>
        <time>2018-10-12T14:11:11.000Z</time>
      </trkpt>
      <trkpt lat="31.1495742797851562" lon="-6.9565958976745605">
        <ele>1352.0</ele>
        <time>2018-10-12T14:11:12.000Z</time>
      </trkpt>
      <trkpt lat="31.1496028900146484" lon="-6.9565830230712891">
        <ele>1352.0</ele>
        <time>2018-10-12T14:11:13.000Z</time>
      </trkpt>
      <trkpt lat="31.1496295928955078" lon="-6.9565691947937012">
        <ele>1352.0</ele>
        <time>2018-10-12T14:11:14.000Z</time>
      </trkpt>
      <trkpt lat="31.1496582031250000" lon="-6.9565558433532715">
        <ele>1352.0</ele>
        <time>2018-10-12T14:11:15.000Z</time>
      </trkpt>
      <trkpt lat="31.1496868133544922" lon="-6.9565410614013672">
        <ele>1352.73095703125</ele>
        <time>2018-10-12T14:11:16.000Z</time>
      </trkpt>
      <trkpt lat="31.1497135162353516" lon="-6.9565258026123047">
        <ele>1353.0</ele>
        <time>2018-10-12T14:11:17.000Z</time>
      </trkpt>
      <trkpt lat="31.1497421264648438" lon="-6.9565110206604004">
        <ele>1353.0</ele>
        <time>2018-10-12T14:11:18.000Z</time>
      </trkpt>
      <trkpt lat="31.1497707366943359" lon="-6.9564938545227051">
        <ele>1353.0</ele>
        <time>2018-10-12T14:11:19.000Z</time>
      </trkpt>
      <trkpt lat="31.1497974395751953" lon="-6.9564771652221680">
        <ele>1353.0</ele>
        <time>2018-10-12T14:11:20.000Z</time>
      </trkpt>
      <trkpt lat="31.1498260498046875" lon="-6.9564590454101562">
        <ele>1353.0</ele>
        <time>2018-10-12T14:11:21.000Z</time>
      </trkpt>
      <trkpt lat="31.1498527526855469" lon="-6.9564409255981445">
        <ele>1353.0</ele>
        <time>2018-10-12T14:11:22.000Z</time>
      </trkpt>
      <trkpt lat="31.1498813629150391" lon="-6.9564242362976074">
        <ele>1353.0</ele>
        <time>2018-10-12T14:11:23.000Z</time>
      </trkpt>
      <trkpt lat="31.1499080657958984" lon="-6.9564070701599121">
        <ele>1353.0</ele>
        <time>2018-10-12T14:11:24.000Z</time>
      </trkpt>
      <trkpt lat="31.1499366760253906" lon="-6.9563899040222168">
        <ele>1353.0</ele>
        <time>2018-10-12T14:11:25.000Z</time>
      </trkpt>
      <trkpt lat="31.1499633789062500" lon="-6.9563741683959961">
        <ele>1353.0</ele>
        <time>2018-10-12T14:11:26.000Z</time>
      </trkpt>
      <trkpt lat="31.1499900817871094" lon="-6.9563598632812500">
        <ele>1353.0</ele>
        <time>2018-10-12T14:11:27.000Z</time>
      </trkpt>
      <trkpt lat="31.1500186920166016" lon="-6.9563469886779785">
        <ele>1353.0</ele>
        <time>2018-10-12T14:11:28.000Z</time>
      </trkpt>
      <trkpt lat="31.1500473022460938" lon="-6.9563341140747070">
        <ele>1353.0</ele>
        <time>2018-10-12T14:11:29.000Z</time>
      </trkpt>
      <trkpt lat="31.1500759124755859" lon="-6.9563207626342773">
        <ele>1353.0</ele>
        <time>2018-10-12T14:11:30.000Z</time>
      </trkpt>
      <trkpt lat="31.1501026153564453" lon="-6.9563059806823730">
        <ele>1353.0</ele>
        <time>2018-10-12T14:11:31.000Z</time>
      </trkpt>
      <trkpt lat="31.1501312255859375" lon="-6.9562931060791016">
        <ele>1353.0</ele>
        <time>2018-10-12T14:11:32.000Z</time>
      </trkpt>
      <trkpt lat="31.1501579284667969" lon="-6.9562802314758301">
        <ele>1353.610107421875</ele>
        <time>2018-10-12T14:11:33.000Z</time>
      </trkpt>
      <trkpt lat="31.1501865386962891" lon="-6.9562659263610840">
        <ele>1354.0</ele>
        <time>2018-10-12T14:11:34.000Z</time>
      </trkpt>
      <trkpt lat="31.1502113342285156" lon="-6.9562520980834961">
        <ele>1354.0</ele>
        <time>2018-10-12T14:11:35.000Z</time>
      </trkpt>
      <trkpt lat="31.1502399444580078" lon="-6.9562392234802246">
        <ele>1354.0</ele>
        <time>2018-10-12T14:11:36.000Z</time>
      </trkpt>
      <trkpt lat="31.1502666473388672" lon="-6.9562268257141113">
        <ele>1354.0</ele>
        <time>2018-10-12T14:11:37.000Z</time>
      </trkpt>
      <trkpt lat="31.1502952575683594" lon="-6.9562149047851562">
        <ele>1354.0</ele>
        <time>2018-10-12T14:11:38.000Z</time>
      </trkpt>
      <trkpt lat="31.1503238677978516" lon="-6.9562029838562012">
        <ele>1354.0</ele>
        <time>2018-10-12T14:11:39.000Z</time>
      </trkpt>
      <trkpt lat="31.1503505706787109" lon="-6.9561910629272461">
        <ele>1354.0</ele>
        <time>2018-10-12T14:11:40.000Z</time>
      </trkpt>
      <trkpt lat="31.1503791809082031" lon="-6.9561791419982910">
        <ele>1354.0</ele>
        <time>2018-10-12T14:11:41.000Z</time>
      </trkpt>
      <trkpt lat="31.1504077911376953" lon="-6.9561672210693359">
        <ele>1354.0</ele>
        <time>2018-10-12T14:11:42.000Z</time>
      </trkpt>
      <trkpt lat="31.1504344940185547" lon="-6.9561557769775391">
        <ele>1354.0</ele>
        <time>2018-10-12T14:11:43.000Z</time>
      </trkpt>
      <trkpt lat="31.1504592895507812" lon="-6.9561448097229004">
        <ele>1354.0</ele>
        <time>2018-10-12T14:11:44.000Z</time>
      </trkpt>
      <trkpt lat="31.1504859924316406" lon="-6.9561338424682617">
        <ele>1354.0</ele>
        <time>2018-10-12T14:11:45.000Z</time>
      </trkpt>
      <trkpt lat="31.1505126953125000" lon="-6.9561281204223633">
        <ele>1354.0</ele>
        <time>2018-10-12T14:11:46.000Z</time>
      </trkpt>
      <trkpt lat="31.1505393981933594" lon="-6.9561228752136230">
        <ele>1354.0</ele>
        <time>2018-10-12T14:11:47.000Z</time>
      </trkpt>
      <trkpt lat="31.1505661010742188" lon="-6.9561147689819336">
        <ele>1354.0</ele>
        <time>2018-10-12T14:11:48.000Z</time>
      </trkpt>
      <trkpt lat="31.1505947113037109" lon="-6.9561080932617188">
        <ele>1354.0</ele>
        <time>2018-10-12T14:11:49.000Z</time>
      </trkpt>
      <trkpt lat="31.1506195068359375" lon="-6.9561009407043457">
        <ele>1354.0</ele>
        <time>2018-10-12T14:11:50.000Z</time>
      </trkpt>
      <trkpt lat="31.1506462097167969" lon="-6.9560952186584473">
        <ele>1354.0</ele>
        <time>2018-10-12T14:11:51.000Z</time>
      </trkpt>
      <trkpt lat="31.1506710052490234" lon="-6.9560890197753906">
        <ele>1354.0</ele>
        <time>2018-10-12T14:11:52.000Z</time>
      </trkpt>
      <trkpt lat="31.1506958007812500" lon="-6.9560818672180176">
        <ele>1354.0</ele>
        <time>2018-10-12T14:11:53.000Z</time>
      </trkpt>
      <trkpt lat="31.1507205963134766" lon="-6.9560742378234863">
        <ele>1354.0</ele>
        <time>2018-10-12T14:11:54.000Z</time>
      </trkpt>
      <trkpt lat="31.1507434844970703" lon="-6.9560651779174805">
        <ele>1354.0</ele>
        <time>2018-10-12T14:11:55.000Z</time>
      </trkpt>
      <trkpt lat="31.1507663726806641" lon="-6.9560561180114746">
        <ele>1354.0</ele>
        <time>2018-10-12T14:11:56.000Z</time>
      </trkpt>
      <trkpt lat="31.1507911682128906" lon="-6.9560480117797852">
        <ele>1354.0</ele>
        <time>2018-10-12T14:11:57.000Z</time>
      </trkpt>
      <trkpt lat="31.1508178710937500" lon="-6.9560399055480957">
        <ele>1354.0</ele>
        <time>2018-10-12T14:11:58.000Z</time>
      </trkpt>
      <trkpt lat="31.1508445739746094" lon="-6.9560308456420898">
        <ele>1354.0</ele>
        <time>2018-10-12T14:11:59.000Z</time>
      </trkpt>
      <trkpt lat="31.1508712768554688" lon="-6.9560198783874512">
        <ele>1354.0</ele>
        <time>2018-10-12T14:12:00.000Z</time>
      </trkpt>
      <trkpt lat="31.1508960723876953" lon="-6.9560079574584961">
        <ele>1354.0</ele>
        <time>2018-10-12T14:12:01.000Z</time>
      </trkpt>
      <trkpt lat="31.1509208679199219" lon="-6.9559950828552246">
        <ele>1354.0</ele>
        <time>2018-10-12T14:12:02.000Z</time>
      </trkpt>
      <trkpt lat="31.1509456634521484" lon="-6.9559831619262695">
        <ele>1354.0</ele>
        <time>2018-10-12T14:12:03.000Z</time>
      </trkpt>
      <trkpt lat="31.1509704589843750" lon="-6.9559721946716309">
        <ele>1354.0</ele>
        <time>2018-10-12T14:12:04.000Z</time>
      </trkpt>
      <trkpt lat="31.1509952545166016" lon="-6.9559621810913086">
        <ele>1354.0</ele>
        <time>2018-10-12T14:12:05.000Z</time>
      </trkpt>
      <trkpt lat="31.1510219573974609" lon="-6.9559521675109863">
        <ele>1354.0</ele>
        <time>2018-10-12T14:12:06.000Z</time>
      </trkpt>
      <trkpt lat="31.1510486602783203" lon="-6.9559421539306641">
        <ele>1354.0</ele>
        <time>2018-10-12T14:12:07.000Z</time>
      </trkpt>
      <trkpt lat="31.1510753631591797" lon="-6.9559340476989746">
        <ele>1354.0</ele>
        <time>2018-10-12T14:12:08.000Z</time>
      </trkpt>
      <trkpt lat="31.1511039733886719" lon="-6.9559249877929688">
        <ele>1354.0</ele>
        <time>2018-10-12T14:12:09.000Z</time>
      </trkpt>
      <trkpt lat="31.1511306762695312" lon="-6.9559149742126465">
        <ele>1354.0</ele>
        <time>2018-10-12T14:12:10.000Z</time>
      </trkpt>
      <trkpt lat="31.1511573791503906" lon="-6.9559040069580078">
        <ele>1354.0</ele>
        <time>2018-10-12T14:12:11.000Z</time>
      </trkpt>
      <trkpt lat="31.1511840820312500" lon="-6.9558930397033691">
        <ele>1354.0</ele>
        <time>2018-10-12T14:12:12.000Z</time>
      </trkpt>
      <trkpt lat="31.1512107849121094" lon="-6.9558820724487305">
        <ele>1354.0</ele>
        <time>2018-10-12T14:12:13.000Z</time>
      </trkpt>
      <trkpt lat="31.1512374877929688" lon="-6.9558720588684082">
        <ele>1354.0</ele>
        <time>2018-10-12T14:12:14.000Z</time>
      </trkpt>
      <trkpt lat="31.1512641906738281" lon="-6.9558620452880859">
        <ele>1354.0</ele>
        <time>2018-10-12T14:12:15.000Z</time>
      </trkpt>
      <trkpt lat="31.1512908935546875" lon="-6.9558491706848145">
        <ele>1354.0</ele>
        <time>2018-10-12T14:12:16.000Z</time>
      </trkpt>
      <trkpt lat="31.1513156890869141" lon="-6.9558358192443848">
        <ele>1354.5985107421875</ele>
        <time>2018-10-12T14:12:17.000Z</time>
      </trkpt>
      <trkpt lat="31.1513423919677734" lon="-6.9558248519897461">
        <ele>1355.0</ele>
        <time>2018-10-12T14:12:18.000Z</time>
      </trkpt>
      <trkpt lat="31.1513690948486328" lon="-6.9558157920837402">
        <ele>1355.0</ele>
        <time>2018-10-12T14:12:19.000Z</time>
      </trkpt>
      <trkpt lat="31.1513977050781250" lon="-6.9558081626892090">
        <ele>1355.0</ele>
        <time>2018-10-12T14:12:20.000Z</time>
      </trkpt>
      <trkpt lat="31.1514263153076172" lon="-6.9557991027832031">
        <ele>1355.0</ele>
        <time>2018-10-12T14:12:21.000Z</time>
      </trkpt>
      <trkpt lat="31.1514549255371094" lon="-6.9557900428771973">
        <ele>1355.0</ele>
        <time>2018-10-12T14:12:22.000Z</time>
      </trkpt>
      <trkpt lat="31.1514816284179688" lon="-6.9557809829711914">
        <ele>1355.0</ele>
        <time>2018-10-12T14:12:23.000Z</time>
      </trkpt>
      <trkpt lat="31.1515102386474609" lon="-6.9557709693908691">
        <ele>1355.0</ele>
        <time>2018-10-12T14:12:24.000Z</time>
      </trkpt>
      <trkpt lat="31.1515388488769531" lon="-6.9557619094848633">
        <ele>1355.728271484375</ele>
        <time>2018-10-12T14:12:25.000Z</time>
      </trkpt>
      <trkpt lat="31.1515674591064453" lon="-6.9557538032531738">
        <ele>1356.0</ele>
        <time>2018-10-12T14:12:26.000Z</time>
      </trkpt>
      <trkpt lat="31.1515941619873047" lon="-6.9557437896728516">
        <ele>1356.0</ele>
        <time>2018-10-12T14:12:27.000Z</time>
      </trkpt>
      <trkpt lat="31.1516246795654297" lon="-6.9557337760925293">
        <ele>1356.0</ele>
        <time>2018-10-12T14:12:28.000Z</time>
      </trkpt>
      <trkpt lat="31.1516513824462891" lon="-6.9557218551635742">
        <ele>1356.0</ele>
        <time>2018-10-12T14:12:29.000Z</time>
      </trkpt>
      <trkpt lat="31.1516799926757812" lon="-6.9557118415832520">
        <ele>1356.0</ele>
        <time>2018-10-12T14:12:30.000Z</time>
      </trkpt>
      <trkpt lat="31.1517086029052734" lon="-6.9557008743286133">
        <ele>1356.0</ele>
        <time>2018-10-12T14:12:31.000Z</time>
      </trkpt>
      <trkpt lat="31.1517372131347656" lon="-6.9556889533996582">
        <ele>1356.0</ele>
        <time>2018-10-12T14:12:32.000Z</time>
      </trkpt>
      <trkpt lat="31.1517658233642578" lon="-6.9556751251220703">
        <ele>1356.5579833984375</ele>
        <time>2018-10-12T14:12:33.000Z</time>
      </trkpt>
      <trkpt lat="31.1517944335937500" lon="-6.9556617736816406">
        <ele>1357.0</ele>
        <time>2018-10-12T14:12:34.000Z</time>
      </trkpt>
      <trkpt lat="31.1518230438232422" lon="-6.9556488990783691">
        <ele>1356.26904296875</ele>
        <time>2018-10-12T14:12:35.000Z</time>
      </trkpt>
      <trkpt lat="31.1518516540527344" lon="-6.9556350708007812">
        <ele>1356.0</ele>
        <time>2018-10-12T14:12:36.000Z</time>
      </trkpt>
      <trkpt lat="31.1518783569335938" lon="-6.9556198120117188">
        <ele>1356.0</ele>
        <time>2018-10-12T14:12:37.000Z</time>
      </trkpt>
      <trkpt lat="31.1519088745117188" lon="-6.9556059837341309">
        <ele>1356.0</ele>
        <time>2018-10-12T14:12:38.000Z</time>
      </trkpt>
      <trkpt lat="31.1519374847412109" lon="-6.9555940628051758">
        <ele>1356.0</ele>
        <time>2018-10-12T14:12:39.000Z</time>
      </trkpt>
      <trkpt lat="31.1519660949707031" lon="-6.9555811882019043">
        <ele>1356.0</ele>
        <time>2018-10-12T14:12:40.000Z</time>
      </trkpt>
      <trkpt lat="31.1519966125488281" lon="-6.9555687904357910">
        <ele>1356.0</ele>
        <time>2018-10-12T14:12:41.000Z</time>
      </trkpt>
      <trkpt lat="31.1520271301269531" lon="-6.9555587768554688">
        <ele>1356.0</ele>
        <time>2018-10-12T14:12:42.000Z</time>
      </trkpt>
      <trkpt lat="31.1520576477050781" lon="-6.9555487632751465">
        <ele>1356.0</ele>
        <time>2018-10-12T14:12:43.000Z</time>
      </trkpt>
      <trkpt lat="31.1520881652832031" lon="-6.9555377960205078">
        <ele>1356.73095703125</ele>
        <time>2018-10-12T14:12:44.000Z</time>
      </trkpt>
      <trkpt lat="31.1521186828613281" lon="-6.9555268287658691">
        <ele>1357.0</ele>
        <time>2018-10-12T14:12:45.000Z</time>
      </trkpt>
      <trkpt lat="31.1521472930908203" lon="-6.9555158615112305">
        <ele>1357.0</ele>
        <time>2018-10-12T14:12:46.000Z</time>
      </trkpt>
      <trkpt lat="31.1521759033203125" lon="-6.9555058479309082">
        <ele>1357.0</ele>
        <time>2018-10-12T14:12:47.000Z</time>
      </trkpt>
      <trkpt lat="31.1522064208984375" lon="-6.9554967880249023">
        <ele>1357.0</ele>
        <time>2018-10-12T14:12:48.000Z</time>
      </trkpt>
      <trkpt lat="31.1522350311279297" lon="-6.9554882049560547">
        <ele>1357.0</ele>
        <time>2018-10-12T14:12:49.000Z</time>
      </trkpt>
      <trkpt lat="31.1522636413574219" lon="-6.9554781913757324">
        <ele>1357.0</ele>
        <time>2018-10-12T14:12:50.000Z</time>
      </trkpt>
      <trkpt lat="31.1522922515869141" lon="-6.9554691314697266">
        <ele>1357.0</ele>
        <time>2018-10-12T14:12:51.000Z</time>
      </trkpt>
      <trkpt lat="31.1523208618164062" lon="-6.9554600715637207">
        <ele>1357.0</ele>
        <time>2018-10-12T14:12:52.000Z</time>
      </trkpt>
      <trkpt lat="31.1523494720458984" lon="-6.9554510116577148">
        <ele>1357.0</ele>
        <time>2018-10-12T14:12:53.000Z</time>
      </trkpt>
      <trkpt lat="31.1523780822753906" lon="-6.9554409980773926">
        <ele>1357.0</ele>
        <time>2018-10-12T14:12:54.000Z</time>
      </trkpt>
      <trkpt lat="31.1524066925048828" lon="-6.9554300308227539">
        <ele>1357.0</ele>
        <time>2018-10-12T14:12:55.000Z</time>
      </trkpt>
      <trkpt lat="31.1524353027343750" lon="-6.9554190635681152">
        <ele>1357.0</ele>
        <time>2018-10-12T14:12:56.000Z</time>
      </trkpt>
      <trkpt lat="31.1524677276611328" lon="-6.9554100036621094">
        <ele>1357.0</ele>
        <time>2018-10-12T14:12:57.000Z</time>
      </trkpt>
      <trkpt lat="31.1524982452392578" lon="-6.9554009437561035">
        <ele>1357.0</ele>
        <time>2018-10-12T14:12:58.000Z</time>
      </trkpt>
      <trkpt lat="31.1525287628173828" lon="-6.9553909301757812">
        <ele>1357.0</ele>
        <time>2018-10-12T14:12:59.000Z</time>
      </trkpt>
      <trkpt lat="31.1525573730468750" lon="-6.9553809165954590">
        <ele>1357.0</ele>
        <time>2018-10-12T14:13:00.000Z</time>
      </trkpt>
      <trkpt lat="31.1525878906250000" lon="-6.9553709030151367">
        <ele>1357.0</ele>
        <time>2018-10-12T14:13:01.000Z</time>
      </trkpt>
      <trkpt lat="31.1526165008544922" lon="-6.9553608894348145">
        <ele>1357.0</ele>
        <time>2018-10-12T14:13:02.000Z</time>
      </trkpt>
      <trkpt lat="31.1526432037353516" lon="-6.9553499221801758">
        <ele>1357.0</ele>
        <time>2018-10-12T14:13:03.000Z</time>
      </trkpt>
      <trkpt lat="31.1526737213134766" lon="-6.9553399085998535">
        <ele>1357.0</ele>
        <time>2018-10-12T14:13:04.000Z</time>
      </trkpt>
      <trkpt lat="31.1527023315429688" lon="-6.9553289413452148">
        <ele>1357.0</ele>
        <time>2018-10-12T14:13:05.000Z</time>
      </trkpt>
      <trkpt lat="31.1527309417724609" lon="-6.9553179740905762">
        <ele>1357.0</ele>
        <time>2018-10-12T14:13:06.000Z</time>
      </trkpt>
      <trkpt lat="31.1527576446533203" lon="-6.9553079605102539">
        <ele>1357.0</ele>
        <time>2018-10-12T14:13:07.000Z</time>
      </trkpt>
      <trkpt lat="31.1527862548828125" lon="-6.9552969932556152">
        <ele>1357.610107421875</ele>
        <time>2018-10-12T14:13:08.000Z</time>
      </trkpt>
      <trkpt lat="31.1528167724609375" lon="-6.9552850723266602">
        <ele>1358.0</ele>
        <time>2018-10-12T14:13:09.000Z</time>
      </trkpt>
      <trkpt lat="31.1528434753417969" lon="-6.9552741050720215">
        <ele>1358.0</ele>
        <time>2018-10-12T14:13:10.000Z</time>
      </trkpt>
      <trkpt lat="31.1528720855712891" lon="-6.9552621841430664">
        <ele>1358.0</ele>
        <time>2018-10-12T14:13:11.000Z</time>
      </trkpt>
      <trkpt lat="31.1528987884521484" lon="-6.9552497863769531">
        <ele>1358.0</ele>
        <time>2018-10-12T14:13:12.000Z</time>
      </trkpt>
      <trkpt lat="31.1529254913330078" lon="-6.9552388191223145">
        <ele>1358.0</ele>
        <time>2018-10-12T14:13:13.000Z</time>
      </trkpt>
      <trkpt lat="31.1529521942138672" lon="-6.9552268981933594">
        <ele>1358.0</ele>
        <time>2018-10-12T14:13:14.000Z</time>
      </trkpt>
      <trkpt lat="31.1529788970947266" lon="-6.9552149772644043">
        <ele>1358.0</ele>
        <time>2018-10-12T14:13:15.000Z</time>
      </trkpt>
      <trkpt lat="31.1530055999755859" lon="-6.9552030563354492">
        <ele>1358.0</ele>
        <time>2018-10-12T14:13:16.000Z</time>
      </trkpt>
      <trkpt lat="31.1530323028564453" lon="-6.9551911354064941">
        <ele>1358.0</ele>
        <time>2018-10-12T14:13:17.000Z</time>
      </trkpt>
      <trkpt lat="31.1530590057373047" lon="-6.9551801681518555">
        <ele>1358.0</ele>
        <time>2018-10-12T14:13:18.000Z</time>
      </trkpt>
      <trkpt lat="31.1530857086181641" lon="-6.9551692008972168">
        <ele>1358.0</ele>
        <time>2018-10-12T14:13:19.000Z</time>
      </trkpt>
      <trkpt lat="31.1531124114990234" lon="-6.9551558494567871">
        <ele>1358.0</ele>
        <time>2018-10-12T14:13:20.000Z</time>
      </trkpt>
      <trkpt lat="31.1531391143798828" lon="-6.9551429748535156">
        <ele>1358.0</ele>
        <time>2018-10-12T14:13:21.000Z</time>
      </trkpt>
      <trkpt lat="31.1531677246093750" lon="-6.9551310539245605">
        <ele>1358.0</ele>
        <time>2018-10-12T14:13:22.000Z</time>
      </trkpt>
      <trkpt lat="31.1531944274902344" lon="-6.9551172256469727">
        <ele>1358.0</ele>
        <time>2018-10-12T14:13:23.000Z</time>
      </trkpt>
      <trkpt lat="31.1532211303710938" lon="-6.9551029205322266">
        <ele>1358.0</ele>
        <time>2018-10-12T14:13:24.000Z</time>
      </trkpt>
      <trkpt lat="31.1532478332519531" lon="-6.9550900459289551">
        <ele>1358.0</ele>
        <time>2018-10-12T14:13:25.000Z</time>
      </trkpt>
      <trkpt lat="31.1532745361328125" lon="-6.9550771713256836">
        <ele>1358.0</ele>
        <time>2018-10-12T14:13:26.000Z</time>
      </trkpt>
      <trkpt lat="31.1532993316650391" lon="-6.9550619125366211">
        <ele>1358.0</ele>
        <time>2018-10-12T14:13:27.000Z</time>
      </trkpt>
      <trkpt lat="31.1533241271972656" lon="-6.9550490379333496">
        <ele>1358.0</ele>
        <time>2018-10-12T14:13:28.000Z</time>
      </trkpt>
      <trkpt lat="31.1533489227294922" lon="-6.9550361633300781">
        <ele>1358.0</ele>
        <time>2018-10-12T14:13:29.000Z</time>
      </trkpt>
      <trkpt lat="31.1533718109130859" lon="-6.9550228118896484">
        <ele>1358.73095703125</ele>
        <time>2018-10-12T14:13:30.000Z</time>
      </trkpt>
      <trkpt lat="31.1533966064453125" lon="-6.9550099372863770">
        <ele>1359.0</ele>
        <time>2018-10-12T14:13:31.000Z</time>
      </trkpt>
      <trkpt lat="31.1534214019775391" lon="-6.9549961090087891">
        <ele>1359.0</ele>
        <time>2018-10-12T14:13:32.000Z</time>
      </trkpt>
      <trkpt lat="31.1534500122070312" lon="-6.9549808502197266">
        <ele>1359.0</ele>
        <time>2018-10-12T14:13:33.000Z</time>
      </trkpt>
      <trkpt lat="31.1534767150878906" lon="-6.9549651145935059">
        <ele>1359.0</ele>
        <time>2018-10-12T14:13:34.000Z</time>
      </trkpt>
      <trkpt lat="31.1535015106201172" lon="-6.9549489021301270">
        <ele>1359.0</ele>
        <time>2018-10-12T14:13:35.000Z</time>
      </trkpt>
      <trkpt lat="31.1535282135009766" lon="-6.9549331665039062">
        <ele>1359.0</ele>
        <time>2018-10-12T14:13:36.000Z</time>
      </trkpt>
      <trkpt lat="31.1535549163818359" lon="-6.9549179077148438">
        <ele>1359.0</ele>
        <time>2018-10-12T14:13:37.000Z</time>
      </trkpt>
      <trkpt lat="31.1535816192626953" lon="-6.9549012184143066">
        <ele>1359.0</ele>
        <time>2018-10-12T14:13:38.000Z</time>
      </trkpt>
      <trkpt lat="31.1536064147949219" lon="-6.9548859596252441">
        <ele>1359.0</ele>
        <time>2018-10-12T14:13:39.000Z</time>
      </trkpt>
      <trkpt lat="31.1536312103271484" lon="-6.9548721313476562">
        <ele>1359.0</ele>
        <time>2018-10-12T14:13:40.000Z</time>
      </trkpt>
      <trkpt lat="31.1536598205566406" lon="-6.9548578262329102">
        <ele>1359.610107421875</ele>
        <time>2018-10-12T14:13:41.000Z</time>
      </trkpt>
      <trkpt lat="31.1536865234375000" lon="-6.9548449516296387">
        <ele>1360.0</ele>
        <time>2018-10-12T14:13:42.000Z</time>
      </trkpt>
      <trkpt lat="31.1537113189697266" lon="-6.9548330307006836">
        <ele>1360.0</ele>
        <time>2018-10-12T14:13:43.000Z</time>
      </trkpt>
      <trkpt lat="31.1537361145019531" lon="-6.9548220634460449">
        <ele>1360.0</ele>
        <time>2018-10-12T14:13:44.000Z</time>
      </trkpt>
      <trkpt lat="31.1537570953369141" lon="-6.9548130035400391">
        <ele>1360.0</ele>
        <time>2018-10-12T14:13:45.000Z</time>
      </trkpt>
      <trkpt lat="31.1537761688232422" lon="-6.9548039436340332">
        <ele>1360.0</ele>
        <time>2018-10-12T14:13:46.000Z</time>
      </trkpt>
      <trkpt lat="31.1537933349609375" lon="-6.9547967910766602">
        <ele>1360.0</ele>
        <time>2018-10-12T14:13:47.000Z</time>
      </trkpt>
      <trkpt lat="31.1538143157958984" lon="-6.9547920227050781">
        <ele>1360.0</ele>
        <time>2018-10-12T14:13:48.000Z</time>
      </trkpt>
      <trkpt lat="31.1538333892822266" lon="-6.9547867774963379">
        <ele>1360.0</ele>
        <time>2018-10-12T14:13:49.000Z</time>
      </trkpt>
      <trkpt lat="31.1538524627685547" lon="-6.9547810554504395">
        <ele>1360.0</ele>
        <time>2018-10-12T14:13:50.000Z</time>
      </trkpt>
      <trkpt lat="31.1538810729980469" lon="-6.9547719955444336">
        <ele>1360.0</ele>
        <time>2018-10-12T14:13:52.000Z</time>
      </trkpt>
      <trkpt lat="31.1539020538330078" lon="-6.9547638893127441">
        <ele>1360.0</ele>
        <time>2018-10-12T14:13:54.000Z</time>
      </trkpt>
    </trkseg>
  </trk>
</gpx>
